<?xml version="1.0" encoding="UTF-8" standalone="no" ?>
<gpx xmlns="http://www.topografix.com/GPX/1/1" xmlns:xsi="http://www.w3.org/2001/XMLSchema-instance" xsi:schemaLocation="http://www.topografix.com/GPX/1/1 http://www.topografix.com/GPX/1/1/gpx.xsd" version="1.1" creator="VisuGPX - https://www.visugpx.com">
  <metadata>
    <name>2021-05-23 16:41:19 [Garmin]</name>
  </metadata>
  <trk>
    <name><![CDATA[2021-05-23 16:41:19 [Garmin]_1]]></name>
    <trkseg>
      <trkpt lat="48.12606" lon="7.15972">
        <ele>503.79998779297</ele>
        <time>2021-05-23T07:46:03Z</time>
      </trkpt>
      <trkpt lat="48.12606" lon="7.15972">
        <ele>503.79998779297</ele>
        <time>2021-05-23T07:46:04Z</time>
      </trkpt>
      <trkpt lat="48.12604" lon="7.15973">
        <ele>503.79998779297</ele>
        <time>2021-05-23T07:46:10Z</time>
      </trkpt>
      <trkpt lat="48.12604" lon="7.15973">
        <ele>503.79998779297</ele>
        <time>2021-05-23T07:46:11Z</time>
      </trkpt>
      <trkpt lat="48.12602" lon="7.15974">
        <ele>503.79998779297</ele>
        <time>2021-05-23T07:49:31Z</time>
      </trkpt>
      <trkpt lat="48.12605" lon="7.15978">
        <ele>503.79998779297</ele>
        <time>2021-05-23T07:49:33Z</time>
      </trkpt>
      <trkpt lat="48.12607" lon="7.15978">
        <ele>503.79998779297</ele>
        <time>2021-05-23T07:49:34Z</time>
      </trkpt>
      <trkpt lat="48.12612" lon="7.15978">
        <ele>503.79998779297</ele>
        <time>2021-05-23T07:49:36Z</time>
      </trkpt>
      <trkpt lat="48.12616" lon="7.15979">
        <ele>503.60000610352</ele>
        <time>2021-05-23T07:49:38Z</time>
      </trkpt>
      <trkpt lat="48.12623" lon="7.15982">
        <ele>503.20001220703</ele>
        <time>2021-05-23T07:49:41Z</time>
      </trkpt>
      <trkpt lat="48.12623" lon="7.15984">
        <ele>503</ele>
        <time>2021-05-23T07:49:42Z</time>
      </trkpt>
      <trkpt lat="48.12623" lon="7.15985">
        <ele>502.79998779297</ele>
        <time>2021-05-23T07:49:43Z</time>
      </trkpt>
      <trkpt lat="48.12625" lon="7.15989">
        <ele>502.20001220703</ele>
        <time>2021-05-23T07:50:18Z</time>
      </trkpt>
      <trkpt lat="48.12626" lon="7.15995">
        <ele>502.20001220703</ele>
        <time>2021-05-23T07:50:20Z</time>
      </trkpt>
      <trkpt lat="48.12628" lon="7.16028">
        <ele>501.79998779297</ele>
        <time>2021-05-23T07:50:27Z</time>
      </trkpt>
      <trkpt lat="48.12632" lon="7.16051">
        <ele>501.39999389648</ele>
        <time>2021-05-23T07:50:30Z</time>
      </trkpt>
      <trkpt lat="48.12632" lon="7.16061">
        <ele>501</ele>
        <time>2021-05-23T07:50:31Z</time>
      </trkpt>
      <trkpt lat="48.12637" lon="7.161">
        <ele>499.60000610352</ele>
        <time>2021-05-23T07:50:35Z</time>
      </trkpt>
      <trkpt lat="48.12639" lon="7.16122">
        <ele>499</ele>
        <time>2021-05-23T07:50:37Z</time>
      </trkpt>
      <trkpt lat="48.12641" lon="7.16142">
        <ele>498.60000610352</ele>
        <time>2021-05-23T07:50:39Z</time>
      </trkpt>
      <trkpt lat="48.12642" lon="7.16166">
        <ele>497.79998779297</ele>
        <time>2021-05-23T07:50:41Z</time>
      </trkpt>
      <trkpt lat="48.12642" lon="7.16175">
        <ele>497.39999389648</ele>
        <time>2021-05-23T07:50:42Z</time>
      </trkpt>
      <trkpt lat="48.12641" lon="7.16187">
        <ele>497.39999389648</ele>
        <time>2021-05-23T07:50:43Z</time>
      </trkpt>
      <trkpt lat="48.12639" lon="7.16227">
        <ele>495.79998779297</ele>
        <time>2021-05-23T07:50:46Z</time>
      </trkpt>
      <trkpt lat="48.12637" lon="7.16251">
        <ele>494.79998779297</ele>
        <time>2021-05-23T07:50:48Z</time>
      </trkpt>
      <trkpt lat="48.12635" lon="7.16267">
        <ele>494.39999389648</ele>
        <time>2021-05-23T07:50:49Z</time>
      </trkpt>
      <trkpt lat="48.12633" lon="7.16296">
        <ele>493</ele>
        <time>2021-05-23T07:50:51Z</time>
      </trkpt>
      <trkpt lat="48.12631" lon="7.16337">
        <ele>492</ele>
        <time>2021-05-23T07:50:54Z</time>
      </trkpt>
      <trkpt lat="48.12629" lon="7.16362">
        <ele>490.39999389648</ele>
        <time>2021-05-23T07:50:56Z</time>
      </trkpt>
      <trkpt lat="48.12626" lon="7.16418">
        <ele>488.79998779297</ele>
        <time>2021-05-23T07:51:00Z</time>
      </trkpt>
      <trkpt lat="48.12624" lon="7.1645">
        <ele>487.39999389648</ele>
        <time>2021-05-23T07:51:03Z</time>
      </trkpt>
      <trkpt lat="48.12621" lon="7.1647">
        <ele>486.60000610352</ele>
        <time>2021-05-23T07:51:05Z</time>
      </trkpt>
      <trkpt lat="48.1262" lon="7.1648">
        <ele>486.39999389648</ele>
        <time>2021-05-23T07:51:06Z</time>
      </trkpt>
      <trkpt lat="48.12622" lon="7.16498">
        <ele>485.60000610352</ele>
        <time>2021-05-23T07:51:08Z</time>
      </trkpt>
      <trkpt lat="48.12625" lon="7.16506">
        <ele>485.20001220703</ele>
        <time>2021-05-23T07:51:09Z</time>
      </trkpt>
      <trkpt lat="48.12629" lon="7.16512">
        <ele>485</ele>
        <time>2021-05-23T07:51:10Z</time>
      </trkpt>
      <trkpt lat="48.12645" lon="7.16534">
        <ele>484.60000610352</ele>
        <time>2021-05-23T07:51:13Z</time>
      </trkpt>
      <trkpt lat="48.12649" lon="7.16541">
        <ele>484.20001220703</ele>
        <time>2021-05-23T07:51:14Z</time>
      </trkpt>
      <trkpt lat="48.12657" lon="7.16557">
        <ele>483.39999389648</ele>
        <time>2021-05-23T07:51:16Z</time>
      </trkpt>
      <trkpt lat="48.12663" lon="7.16564">
        <ele>483</ele>
        <time>2021-05-23T07:51:17Z</time>
      </trkpt>
      <trkpt lat="48.1267" lon="7.1657">
        <ele>482.60000610352</ele>
        <time>2021-05-23T07:51:18Z</time>
      </trkpt>
      <trkpt lat="48.12675" lon="7.16575">
        <ele>482</ele>
        <time>2021-05-23T07:51:19Z</time>
      </trkpt>
      <trkpt lat="48.12696" lon="7.16595">
        <ele>480.79998779297</ele>
        <time>2021-05-23T07:51:22Z</time>
      </trkpt>
      <trkpt lat="48.12705" lon="7.16604">
        <ele>480.39999389648</ele>
        <time>2021-05-23T07:51:23Z</time>
      </trkpt>
      <trkpt lat="48.12718" lon="7.16617">
        <ele>479.79998779297</ele>
        <time>2021-05-23T07:51:25Z</time>
      </trkpt>
      <trkpt lat="48.12746" lon="7.16646">
        <ele>479</ele>
        <time>2021-05-23T07:51:29Z</time>
      </trkpt>
      <trkpt lat="48.12753" lon="7.16652">
        <ele>478.60000610352</ele>
        <time>2021-05-23T07:51:30Z</time>
      </trkpt>
      <trkpt lat="48.12801" lon="7.16694">
        <ele>478.20001220703</ele>
        <time>2021-05-23T07:51:37Z</time>
      </trkpt>
      <trkpt lat="48.12823" lon="7.16708">
        <ele>477.60000610352</ele>
        <time>2021-05-23T07:51:40Z</time>
      </trkpt>
      <trkpt lat="48.12838" lon="7.16719">
        <ele>476.79998779297</ele>
        <time>2021-05-23T07:51:42Z</time>
      </trkpt>
      <trkpt lat="48.12845" lon="7.16726">
        <ele>476.39999389648</ele>
        <time>2021-05-23T07:51:43Z</time>
      </trkpt>
      <trkpt lat="48.12867" lon="7.16749">
        <ele>475.39999389648</ele>
        <time>2021-05-23T07:51:46Z</time>
      </trkpt>
      <trkpt lat="48.12882" lon="7.16765">
        <ele>473.79998779297</ele>
        <time>2021-05-23T07:51:48Z</time>
      </trkpt>
      <trkpt lat="48.12889" lon="7.16773">
        <ele>472.79998779297</ele>
        <time>2021-05-23T07:51:49Z</time>
      </trkpt>
      <trkpt lat="48.12897" lon="7.16782">
        <ele>472.39999389648</ele>
        <time>2021-05-23T07:51:50Z</time>
      </trkpt>
      <trkpt lat="48.12919" lon="7.16806">
        <ele>471.39999389648</ele>
        <time>2021-05-23T07:51:53Z</time>
      </trkpt>
      <trkpt lat="48.12935" lon="7.16824">
        <ele>470.39999389648</ele>
        <time>2021-05-23T07:51:55Z</time>
      </trkpt>
      <trkpt lat="48.12944" lon="7.16833">
        <ele>469.79998779297</ele>
        <time>2021-05-23T07:51:56Z</time>
      </trkpt>
      <trkpt lat="48.12971" lon="7.16864">
        <ele>468.79998779297</ele>
        <time>2021-05-23T07:51:59Z</time>
      </trkpt>
      <trkpt lat="48.12996" lon="7.16892">
        <ele>467</ele>
        <time>2021-05-23T07:52:02Z</time>
      </trkpt>
      <trkpt lat="48.13015" lon="7.16911">
        <ele>465.60000610352</ele>
        <time>2021-05-23T07:52:04Z</time>
      </trkpt>
      <trkpt lat="48.13038" lon="7.16928">
        <ele>464.60000610352</ele>
        <time>2021-05-23T07:52:06Z</time>
      </trkpt>
      <trkpt lat="48.13048" lon="7.16936">
        <ele>464</ele>
        <time>2021-05-23T07:52:07Z</time>
      </trkpt>
      <trkpt lat="48.13068" lon="7.16951">
        <ele>463</ele>
        <time>2021-05-23T07:52:09Z</time>
      </trkpt>
      <trkpt lat="48.13078" lon="7.16959">
        <ele>462.60000610352</ele>
        <time>2021-05-23T07:52:10Z</time>
      </trkpt>
      <trkpt lat="48.13096" lon="7.16979">
        <ele>461.39999389648</ele>
        <time>2021-05-23T07:52:12Z</time>
      </trkpt>
      <trkpt lat="48.13112" lon="7.17003">
        <ele>460.39999389648</ele>
        <time>2021-05-23T07:52:14Z</time>
      </trkpt>
      <trkpt lat="48.13128" lon="7.17029">
        <ele>459</ele>
        <time>2021-05-23T07:52:16Z</time>
      </trkpt>
      <trkpt lat="48.13135" lon="7.17043">
        <ele>458.60000610352</ele>
        <time>2021-05-23T07:52:17Z</time>
      </trkpt>
      <trkpt lat="48.13142" lon="7.17056">
        <ele>458</ele>
        <time>2021-05-23T07:52:18Z</time>
      </trkpt>
      <trkpt lat="48.13164" lon="7.17091">
        <ele>456.60000610352</ele>
        <time>2021-05-23T07:52:21Z</time>
      </trkpt>
      <trkpt lat="48.13183" lon="7.17113">
        <ele>455.39999389648</ele>
        <time>2021-05-23T07:52:23Z</time>
      </trkpt>
      <trkpt lat="48.13212" lon="7.17136">
        <ele>454.20001220703</ele>
        <time>2021-05-23T07:52:26Z</time>
      </trkpt>
      <trkpt lat="48.13245" lon="7.1716">
        <ele>452.79998779297</ele>
        <time>2021-05-23T07:52:29Z</time>
      </trkpt>
      <trkpt lat="48.13278" lon="7.17179">
        <ele>451.60000610352</ele>
        <time>2021-05-23T07:52:32Z</time>
      </trkpt>
      <trkpt lat="48.13324" lon="7.17203">
        <ele>450.60000610352</ele>
        <time>2021-05-23T07:52:36Z</time>
      </trkpt>
      <trkpt lat="48.13336" lon="7.17208">
        <ele>450.39999389648</ele>
        <time>2021-05-23T07:52:37Z</time>
      </trkpt>
      <trkpt lat="48.13369" lon="7.17217">
        <ele>449.39999389648</ele>
        <time>2021-05-23T07:52:40Z</time>
      </trkpt>
      <trkpt lat="48.13395" lon="7.17225">
        <ele>448.20001220703</ele>
        <time>2021-05-23T07:52:42Z</time>
      </trkpt>
      <trkpt lat="48.13417" lon="7.17234">
        <ele>447.60000610352</ele>
        <time>2021-05-23T07:52:44Z</time>
      </trkpt>
      <trkpt lat="48.13441" lon="7.17244">
        <ele>446.60000610352</ele>
        <time>2021-05-23T07:52:46Z</time>
      </trkpt>
      <trkpt lat="48.13464" lon="7.17256">
        <ele>444.79998779297</ele>
        <time>2021-05-23T07:52:48Z</time>
      </trkpt>
      <trkpt lat="48.13474" lon="7.17264">
        <ele>444.20001220703</ele>
        <time>2021-05-23T07:52:49Z</time>
      </trkpt>
      <trkpt lat="48.13484" lon="7.17275">
        <ele>443.39999389648</ele>
        <time>2021-05-23T07:52:50Z</time>
      </trkpt>
      <trkpt lat="48.13502" lon="7.17301">
        <ele>442.39999389648</ele>
        <time>2021-05-23T07:52:52Z</time>
      </trkpt>
      <trkpt lat="48.13508" lon="7.17316">
        <ele>441</ele>
        <time>2021-05-23T07:52:53Z</time>
      </trkpt>
      <trkpt lat="48.13518" lon="7.17351">
        <ele>438.79998779297</ele>
        <time>2021-05-23T07:52:55Z</time>
      </trkpt>
      <trkpt lat="48.13527" lon="7.17381">
        <ele>437.79998779297</ele>
        <time>2021-05-23T07:52:57Z</time>
      </trkpt>
      <trkpt lat="48.13533" lon="7.17394">
        <ele>437.20001220703</ele>
        <time>2021-05-23T07:52:58Z</time>
      </trkpt>
      <trkpt lat="48.13538" lon="7.17403">
        <ele>437</ele>
        <time>2021-05-23T07:52:59Z</time>
      </trkpt>
      <trkpt lat="48.13547" lon="7.17416">
        <ele>436.79998779297</ele>
        <time>2021-05-23T07:53:00Z</time>
      </trkpt>
      <trkpt lat="48.13563" lon="7.17435">
        <ele>436.39999389648</ele>
        <time>2021-05-23T07:53:02Z</time>
      </trkpt>
      <trkpt lat="48.1357" lon="7.17444">
        <ele>436.39999389648</ele>
        <time>2021-05-23T07:53:03Z</time>
      </trkpt>
      <trkpt lat="48.13617" lon="7.17494">
        <ele>435.79998779297</ele>
        <time>2021-05-23T07:53:09Z</time>
      </trkpt>
      <trkpt lat="48.13635" lon="7.17507">
        <ele>435.39999389648</ele>
        <time>2021-05-23T07:53:11Z</time>
      </trkpt>
      <trkpt lat="48.13662" lon="7.17519">
        <ele>434.39999389648</ele>
        <time>2021-05-23T07:53:14Z</time>
      </trkpt>
      <trkpt lat="48.13674" lon="7.17522">
        <ele>434.20001220703</ele>
        <time>2021-05-23T07:53:15Z</time>
      </trkpt>
      <trkpt lat="48.13692" lon="7.17521">
        <ele>433.60000610352</ele>
        <time>2021-05-23T07:53:17Z</time>
      </trkpt>
      <trkpt lat="48.13712" lon="7.17517">
        <ele>433</ele>
        <time>2021-05-23T07:53:19Z</time>
      </trkpt>
      <trkpt lat="48.13743" lon="7.17517">
        <ele>431.79998779297</ele>
        <time>2021-05-23T07:53:22Z</time>
      </trkpt>
      <trkpt lat="48.1379" lon="7.17531">
        <ele>430.39999389648</ele>
        <time>2021-05-23T07:53:27Z</time>
      </trkpt>
      <trkpt lat="48.13823" lon="7.17554">
        <ele>429.60000610352</ele>
        <time>2021-05-23T07:53:31Z</time>
      </trkpt>
      <trkpt lat="48.1383" lon="7.17562">
        <ele>429.39999389648</ele>
        <time>2021-05-23T07:53:32Z</time>
      </trkpt>
      <trkpt lat="48.13849" lon="7.17593">
        <ele>428.79998779297</ele>
        <time>2021-05-23T07:53:35Z</time>
      </trkpt>
      <trkpt lat="48.13853" lon="7.17602">
        <ele>428.20001220703</ele>
        <time>2021-05-23T07:53:36Z</time>
      </trkpt>
      <trkpt lat="48.1388" lon="7.17654">
        <ele>427.39999389648</ele>
        <time>2021-05-23T07:53:41Z</time>
      </trkpt>
      <trkpt lat="48.13902" lon="7.17699">
        <ele>426.20001220703</ele>
        <time>2021-05-23T07:53:45Z</time>
      </trkpt>
      <trkpt lat="48.13924" lon="7.17741">
        <ele>425.20001220703</ele>
        <time>2021-05-23T07:53:49Z</time>
      </trkpt>
      <trkpt lat="48.13937" lon="7.17761">
        <ele>424.60000610352</ele>
        <time>2021-05-23T07:53:51Z</time>
      </trkpt>
      <trkpt lat="48.13954" lon="7.17781">
        <ele>424</ele>
        <time>2021-05-23T07:53:53Z</time>
      </trkpt>
      <trkpt lat="48.13964" lon="7.17789">
        <ele>423.79998779297</ele>
        <time>2021-05-23T07:53:54Z</time>
      </trkpt>
      <trkpt lat="48.13994" lon="7.17807">
        <ele>422.60000610352</ele>
        <time>2021-05-23T07:53:57Z</time>
      </trkpt>
      <trkpt lat="48.14016" lon="7.17818">
        <ele>422</ele>
        <time>2021-05-23T07:53:59Z</time>
      </trkpt>
      <trkpt lat="48.14035" lon="7.17828">
        <ele>421.39999389648</ele>
        <time>2021-05-23T07:54:01Z</time>
      </trkpt>
      <trkpt lat="48.14056" lon="7.17839">
        <ele>420</ele>
        <time>2021-05-23T07:54:03Z</time>
      </trkpt>
      <trkpt lat="48.14076" lon="7.17852">
        <ele>419.20001220703</ele>
        <time>2021-05-23T07:54:05Z</time>
      </trkpt>
      <trkpt lat="48.14086" lon="7.17858">
        <ele>418.60000610352</ele>
        <time>2021-05-23T07:54:06Z</time>
      </trkpt>
      <trkpt lat="48.14112" lon="7.17883">
        <ele>417.39999389648</ele>
        <time>2021-05-23T07:54:09Z</time>
      </trkpt>
      <trkpt lat="48.14143" lon="7.17928">
        <ele>416.20001220703</ele>
        <time>2021-05-23T07:54:13Z</time>
      </trkpt>
      <trkpt lat="48.14151" lon="7.1794">
        <ele>416.20001220703</ele>
        <time>2021-05-23T07:54:14Z</time>
      </trkpt>
      <trkpt lat="48.14163" lon="7.17965">
        <ele>415</ele>
        <time>2021-05-23T07:54:16Z</time>
      </trkpt>
      <trkpt lat="48.14169" lon="7.1798">
        <ele>414.60000610352</ele>
        <time>2021-05-23T07:54:17Z</time>
      </trkpt>
      <trkpt lat="48.14173" lon="7.17995">
        <ele>414</ele>
        <time>2021-05-23T07:54:18Z</time>
      </trkpt>
      <trkpt lat="48.14177" lon="7.1801">
        <ele>413.79998779297</ele>
        <time>2021-05-23T07:54:19Z</time>
      </trkpt>
      <trkpt lat="48.14182" lon="7.18043">
        <ele>412.60000610352</ele>
        <time>2021-05-23T07:54:21Z</time>
      </trkpt>
      <trkpt lat="48.14186" lon="7.18059">
        <ele>411.60000610352</ele>
        <time>2021-05-23T07:54:22Z</time>
      </trkpt>
      <trkpt lat="48.14189" lon="7.18078">
        <ele>410.79998779297</ele>
        <time>2021-05-23T07:54:23Z</time>
      </trkpt>
      <trkpt lat="48.14196" lon="7.18105">
        <ele>409.60000610352</ele>
        <time>2021-05-23T07:54:25Z</time>
      </trkpt>
      <trkpt lat="48.142" lon="7.18118">
        <ele>409.20001220703</ele>
        <time>2021-05-23T07:54:26Z</time>
      </trkpt>
      <trkpt lat="48.14205" lon="7.18131">
        <ele>408.79998779297</ele>
        <time>2021-05-23T07:54:27Z</time>
      </trkpt>
      <trkpt lat="48.14212" lon="7.18142">
        <ele>408.60000610352</ele>
        <time>2021-05-23T07:54:28Z</time>
      </trkpt>
      <trkpt lat="48.14219" lon="7.18152">
        <ele>408.39999389648</ele>
        <time>2021-05-23T07:54:29Z</time>
      </trkpt>
      <trkpt lat="48.14227" lon="7.1816">
        <ele>408.39999389648</ele>
        <time>2021-05-23T07:54:30Z</time>
      </trkpt>
      <trkpt lat="48.14266" lon="7.18187">
        <ele>408.20001220703</ele>
        <time>2021-05-23T07:54:34Z</time>
      </trkpt>
      <trkpt lat="48.14304" lon="7.18211">
        <ele>407.39999389648</ele>
        <time>2021-05-23T07:54:38Z</time>
      </trkpt>
      <trkpt lat="48.14314" lon="7.18217">
        <ele>406.60000610352</ele>
        <time>2021-05-23T07:54:39Z</time>
      </trkpt>
      <trkpt lat="48.14333" lon="7.1823">
        <ele>405.79998779297</ele>
        <time>2021-05-23T07:54:41Z</time>
      </trkpt>
      <trkpt lat="48.14371" lon="7.1825">
        <ele>404.39999389648</ele>
        <time>2021-05-23T07:54:45Z</time>
      </trkpt>
      <trkpt lat="48.14399" lon="7.1826">
        <ele>403.20001220703</ele>
        <time>2021-05-23T07:54:48Z</time>
      </trkpt>
      <trkpt lat="48.14419" lon="7.18262">
        <ele>402.20001220703</ele>
        <time>2021-05-23T07:54:50Z</time>
      </trkpt>
      <trkpt lat="48.14456" lon="7.18266">
        <ele>400.79998779297</ele>
        <time>2021-05-23T07:54:54Z</time>
      </trkpt>
      <trkpt lat="48.14465" lon="7.18268">
        <ele>400.60000610352</ele>
        <time>2021-05-23T07:54:55Z</time>
      </trkpt>
      <trkpt lat="48.14482" lon="7.18275">
        <ele>400</ele>
        <time>2021-05-23T07:54:57Z</time>
      </trkpt>
      <trkpt lat="48.14492" lon="7.18282">
        <ele>400</ele>
        <time>2021-05-23T07:54:58Z</time>
      </trkpt>
      <trkpt lat="48.14498" lon="7.18288">
        <ele>399.79998779297</ele>
        <time>2021-05-23T07:54:59Z</time>
      </trkpt>
      <trkpt lat="48.14512" lon="7.18304">
        <ele>399.39999389648</ele>
        <time>2021-05-23T07:55:01Z</time>
      </trkpt>
      <trkpt lat="48.14527" lon="7.18313">
        <ele>398.60000610352</ele>
        <time>2021-05-23T07:55:03Z</time>
      </trkpt>
      <trkpt lat="48.14534" lon="7.1832">
        <ele>398.60000610352</ele>
        <time>2021-05-23T07:55:04Z</time>
      </trkpt>
      <trkpt lat="48.1454" lon="7.18328">
        <ele>398.60000610352</ele>
        <time>2021-05-23T07:55:05Z</time>
      </trkpt>
      <trkpt lat="48.14548" lon="7.18347">
        <ele>398.20001220703</ele>
        <time>2021-05-23T07:55:07Z</time>
      </trkpt>
      <trkpt lat="48.14575" lon="7.18407">
        <ele>397.79998779297</ele>
        <time>2021-05-23T07:55:13Z</time>
      </trkpt>
      <trkpt lat="48.14579" lon="7.18418">
        <ele>397.39999389648</ele>
        <time>2021-05-23T07:55:14Z</time>
      </trkpt>
      <trkpt lat="48.14592" lon="7.18465">
        <ele>396.39999389648</ele>
        <time>2021-05-23T07:55:18Z</time>
      </trkpt>
      <trkpt lat="48.14598" lon="7.18489">
        <ele>395.60000610352</ele>
        <time>2021-05-23T07:55:20Z</time>
      </trkpt>
      <trkpt lat="48.14601" lon="7.18501">
        <ele>395.39999389648</ele>
        <time>2021-05-23T07:55:21Z</time>
      </trkpt>
      <trkpt lat="48.14613" lon="7.18549">
        <ele>394.20001220703</ele>
        <time>2021-05-23T07:55:25Z</time>
      </trkpt>
      <trkpt lat="48.14629" lon="7.18607">
        <ele>393</ele>
        <time>2021-05-23T07:55:30Z</time>
      </trkpt>
      <trkpt lat="48.14647" lon="7.1868">
        <ele>391.79998779297</ele>
        <time>2021-05-23T07:55:36Z</time>
      </trkpt>
      <trkpt lat="48.14657" lon="7.18717">
        <ele>391.39999389648</ele>
        <time>2021-05-23T07:55:39Z</time>
      </trkpt>
      <trkpt lat="48.1466" lon="7.18729">
        <ele>390.79998779297</ele>
        <time>2021-05-23T07:55:40Z</time>
      </trkpt>
      <trkpt lat="48.14671" lon="7.18765">
        <ele>389.60000610352</ele>
        <time>2021-05-23T07:55:43Z</time>
      </trkpt>
      <trkpt lat="48.14676" lon="7.18777">
        <ele>389.60000610352</ele>
        <time>2021-05-23T07:55:44Z</time>
      </trkpt>
      <trkpt lat="48.14692" lon="7.18808">
        <ele>389</ele>
        <time>2021-05-23T07:55:47Z</time>
      </trkpt>
      <trkpt lat="48.14698" lon="7.18817">
        <ele>389</ele>
        <time>2021-05-23T07:55:48Z</time>
      </trkpt>
      <trkpt lat="48.14711" lon="7.18835">
        <ele>388.39999389648</ele>
        <time>2021-05-23T07:55:50Z</time>
      </trkpt>
      <trkpt lat="48.14717" lon="7.18843">
        <ele>388.39999389648</ele>
        <time>2021-05-23T07:55:51Z</time>
      </trkpt>
      <trkpt lat="48.14732" lon="7.18856">
        <ele>388</ele>
        <time>2021-05-23T07:55:53Z</time>
      </trkpt>
      <trkpt lat="48.14753" lon="7.18874">
        <ele>387.39999389648</ele>
        <time>2021-05-23T07:55:56Z</time>
      </trkpt>
      <trkpt lat="48.14759" lon="7.18882">
        <ele>387.60000610352</ele>
        <time>2021-05-23T07:55:57Z</time>
      </trkpt>
      <trkpt lat="48.14764" lon="7.1889">
        <ele>387.79998779297</ele>
        <time>2021-05-23T07:55:58Z</time>
      </trkpt>
      <trkpt lat="48.14774" lon="7.18908">
        <ele>387.79998779297</ele>
        <time>2021-05-23T07:56:00Z</time>
      </trkpt>
      <trkpt lat="48.14777" lon="7.18919">
        <ele>388</ele>
        <time>2021-05-23T07:56:01Z</time>
      </trkpt>
      <trkpt lat="48.14798" lon="7.19002">
        <ele>387.79998779297</ele>
        <time>2021-05-23T07:56:08Z</time>
      </trkpt>
      <trkpt lat="48.14803" lon="7.19016">
        <ele>387.60000610352</ele>
        <time>2021-05-23T07:56:09Z</time>
      </trkpt>
      <trkpt lat="48.14817" lon="7.19066">
        <ele>386.39999389648</ele>
        <time>2021-05-23T07:56:13Z</time>
      </trkpt>
      <trkpt lat="48.14826" lon="7.19101">
        <ele>385.60000610352</ele>
        <time>2021-05-23T07:56:16Z</time>
      </trkpt>
      <trkpt lat="48.14829" lon="7.19113">
        <ele>385.20001220703</ele>
        <time>2021-05-23T07:56:17Z</time>
      </trkpt>
      <trkpt lat="48.14844" lon="7.19185">
        <ele>384.39999389648</ele>
        <time>2021-05-23T07:56:23Z</time>
      </trkpt>
      <trkpt lat="48.14849" lon="7.1921">
        <ele>384.20001220703</ele>
        <time>2021-05-23T07:56:25Z</time>
      </trkpt>
      <trkpt lat="48.14862" lon="7.19259">
        <ele>383.39999389648</ele>
        <time>2021-05-23T07:56:29Z</time>
      </trkpt>
      <trkpt lat="48.14879" lon="7.19305">
        <ele>383</ele>
        <time>2021-05-23T07:56:33Z</time>
      </trkpt>
      <trkpt lat="48.14894" lon="7.19343">
        <ele>382.39999389648</ele>
        <time>2021-05-23T07:56:36Z</time>
      </trkpt>
      <trkpt lat="48.1491" lon="7.19378">
        <ele>381.79998779297</ele>
        <time>2021-05-23T07:56:39Z</time>
      </trkpt>
      <trkpt lat="48.14927" lon="7.1941">
        <ele>381</ele>
        <time>2021-05-23T07:56:42Z</time>
      </trkpt>
      <trkpt lat="48.14935" lon="7.19424">
        <ele>380.79998779297</ele>
        <time>2021-05-23T07:56:43Z</time>
      </trkpt>
      <trkpt lat="48.14958" lon="7.19468">
        <ele>379.60000610352</ele>
        <time>2021-05-23T07:56:47Z</time>
      </trkpt>
      <trkpt lat="48.14977" lon="7.19504">
        <ele>378.79998779297</ele>
        <time>2021-05-23T07:56:50Z</time>
      </trkpt>
      <trkpt lat="48.14982" lon="7.19512">
        <ele>378.20001220703</ele>
        <time>2021-05-23T07:56:51Z</time>
      </trkpt>
      <trkpt lat="48.15" lon="7.19546">
        <ele>377</ele>
        <time>2021-05-23T07:56:54Z</time>
      </trkpt>
      <trkpt lat="48.15023" lon="7.19584">
        <ele>376.39999389648</ele>
        <time>2021-05-23T07:56:58Z</time>
      </trkpt>
      <trkpt lat="48.15056" lon="7.19626">
        <ele>376</ele>
        <time>2021-05-23T07:57:03Z</time>
      </trkpt>
      <trkpt lat="48.15062" lon="7.19635">
        <ele>376</ele>
        <time>2021-05-23T07:57:04Z</time>
      </trkpt>
      <trkpt lat="48.15095" lon="7.19676">
        <ele>375.60000610352</ele>
        <time>2021-05-23T07:57:09Z</time>
      </trkpt>
      <trkpt lat="48.15131" lon="7.1972">
        <ele>374.60000610352</ele>
        <time>2021-05-23T07:57:14Z</time>
      </trkpt>
      <trkpt lat="48.15137" lon="7.19728">
        <ele>374.39999389648</ele>
        <time>2021-05-23T07:57:15Z</time>
      </trkpt>
      <trkpt lat="48.15166" lon="7.19769">
        <ele>373.20001220703</ele>
        <time>2021-05-23T07:57:19Z</time>
      </trkpt>
      <trkpt lat="48.15189" lon="7.19801">
        <ele>371.79998779297</ele>
        <time>2021-05-23T07:57:22Z</time>
      </trkpt>
      <trkpt lat="48.15196" lon="7.19812">
        <ele>371.60000610352</ele>
        <time>2021-05-23T07:57:23Z</time>
      </trkpt>
      <trkpt lat="48.15212" lon="7.19835">
        <ele>370.39999389648</ele>
        <time>2021-05-23T07:57:25Z</time>
      </trkpt>
      <trkpt lat="48.15254" lon="7.19893">
        <ele>368.79998779297</ele>
        <time>2021-05-23T07:57:30Z</time>
      </trkpt>
      <trkpt lat="48.15263" lon="7.19906">
        <ele>367.79998779297</ele>
        <time>2021-05-23T07:57:31Z</time>
      </trkpt>
      <trkpt lat="48.15272" lon="7.19918">
        <ele>367.39999389648</ele>
        <time>2021-05-23T07:57:32Z</time>
      </trkpt>
      <trkpt lat="48.15291" lon="7.19945">
        <ele>366.20001220703</ele>
        <time>2021-05-23T07:57:34Z</time>
      </trkpt>
      <trkpt lat="48.15308" lon="7.19971">
        <ele>365</ele>
        <time>2021-05-23T07:57:36Z</time>
      </trkpt>
      <trkpt lat="48.15315" lon="7.19984">
        <ele>364</ele>
        <time>2021-05-23T07:57:37Z</time>
      </trkpt>
      <trkpt lat="48.15323" lon="7.19998">
        <ele>363</ele>
        <time>2021-05-23T07:57:38Z</time>
      </trkpt>
      <trkpt lat="48.1533" lon="7.20013">
        <ele>362.60000610352</ele>
        <time>2021-05-23T07:57:39Z</time>
      </trkpt>
      <trkpt lat="48.1535" lon="7.20058">
        <ele>361.39999389648</ele>
        <time>2021-05-23T07:57:42Z</time>
      </trkpt>
      <trkpt lat="48.15355" lon="7.20074">
        <ele>361.20001220703</ele>
        <time>2021-05-23T07:57:43Z</time>
      </trkpt>
      <trkpt lat="48.1537" lon="7.20115">
        <ele>360.39999389648</ele>
        <time>2021-05-23T07:57:46Z</time>
      </trkpt>
      <trkpt lat="48.1538" lon="7.20147">
        <ele>359.39999389648</ele>
        <time>2021-05-23T07:57:48Z</time>
      </trkpt>
      <trkpt lat="48.15386" lon="7.20161">
        <ele>359</ele>
        <time>2021-05-23T07:57:49Z</time>
      </trkpt>
      <trkpt lat="48.15405" lon="7.20216">
        <ele>358.39999389648</ele>
        <time>2021-05-23T07:57:53Z</time>
      </trkpt>
      <trkpt lat="48.15418" lon="7.20258">
        <ele>358</ele>
        <time>2021-05-23T07:57:56Z</time>
      </trkpt>
      <trkpt lat="48.15425" lon="7.20286">
        <ele>357.60000610352</ele>
        <time>2021-05-23T07:57:58Z</time>
      </trkpt>
      <trkpt lat="48.15429" lon="7.20316">
        <ele>357.20001220703</ele>
        <time>2021-05-23T07:58:00Z</time>
      </trkpt>
      <trkpt lat="48.1543" lon="7.20346">
        <ele>357</ele>
        <time>2021-05-23T07:58:02Z</time>
      </trkpt>
      <trkpt lat="48.15431" lon="7.2036">
        <ele>356.79998779297</ele>
        <time>2021-05-23T07:58:03Z</time>
      </trkpt>
      <trkpt lat="48.15431" lon="7.20385">
        <ele>356.79998779297</ele>
        <time>2021-05-23T07:58:05Z</time>
      </trkpt>
      <trkpt lat="48.15426" lon="7.20413">
        <ele>356.39999389648</ele>
        <time>2021-05-23T07:58:07Z</time>
      </trkpt>
      <trkpt lat="48.15412" lon="7.2047">
        <ele>356.60000610352</ele>
        <time>2021-05-23T07:58:12Z</time>
      </trkpt>
      <trkpt lat="48.15403" lon="7.20504">
        <ele>356.79998779297</ele>
        <time>2021-05-23T07:58:15Z</time>
      </trkpt>
      <trkpt lat="48.15397" lon="7.20526">
        <ele>357</ele>
        <time>2021-05-23T07:58:17Z</time>
      </trkpt>
      <trkpt lat="48.15378" lon="7.20581">
        <ele>356.79998779297</ele>
        <time>2021-05-23T07:58:22Z</time>
      </trkpt>
      <trkpt lat="48.15355" lon="7.20654">
        <ele>355.60000610352</ele>
        <time>2021-05-23T07:58:28Z</time>
      </trkpt>
      <trkpt lat="48.15344" lon="7.20689">
        <ele>354.39999389648</ele>
        <time>2021-05-23T07:58:31Z</time>
      </trkpt>
      <trkpt lat="48.15337" lon="7.20717">
        <ele>353.79998779297</ele>
        <time>2021-05-23T07:58:33Z</time>
      </trkpt>
      <trkpt lat="48.15332" lon="7.20742">
        <ele>353.20001220703</ele>
        <time>2021-05-23T07:58:35Z</time>
      </trkpt>
      <trkpt lat="48.1533" lon="7.20781">
        <ele>352.79998779297</ele>
        <time>2021-05-23T07:58:38Z</time>
      </trkpt>
      <trkpt lat="48.15335" lon="7.20869">
        <ele>352.20001220703</ele>
        <time>2021-05-23T07:58:45Z</time>
      </trkpt>
      <trkpt lat="48.1534" lon="7.20892">
        <ele>352.20001220703</ele>
        <time>2021-05-23T07:58:47Z</time>
      </trkpt>
      <trkpt lat="48.15343" lon="7.20904">
        <ele>352</ele>
        <time>2021-05-23T07:58:48Z</time>
      </trkpt>
      <trkpt lat="48.15347" lon="7.20916">
        <ele>351.79998779297</ele>
        <time>2021-05-23T07:58:49Z</time>
      </trkpt>
      <trkpt lat="48.15374" lon="7.20986">
        <ele>351.20001220703</ele>
        <time>2021-05-23T07:58:55Z</time>
      </trkpt>
      <trkpt lat="48.15379" lon="7.20998">
        <ele>350.79998779297</ele>
        <time>2021-05-23T07:58:56Z</time>
      </trkpt>
      <trkpt lat="48.15394" lon="7.21034">
        <ele>350</ele>
        <time>2021-05-23T07:58:59Z</time>
      </trkpt>
      <trkpt lat="48.15405" lon="7.2106">
        <ele>349.20001220703</ele>
        <time>2021-05-23T07:59:01Z</time>
      </trkpt>
      <trkpt lat="48.1541" lon="7.21073">
        <ele>348.79998779297</ele>
        <time>2021-05-23T07:59:02Z</time>
      </trkpt>
      <trkpt lat="48.15427" lon="7.21112">
        <ele>347.60000610352</ele>
        <time>2021-05-23T07:59:05Z</time>
      </trkpt>
      <trkpt lat="48.15438" lon="7.21139">
        <ele>346.60000610352</ele>
        <time>2021-05-23T07:59:07Z</time>
      </trkpt>
      <trkpt lat="48.15444" lon="7.21153">
        <ele>346</ele>
        <time>2021-05-23T07:59:08Z</time>
      </trkpt>
      <trkpt lat="48.1545" lon="7.21166">
        <ele>344.60000610352</ele>
        <time>2021-05-23T07:59:09Z</time>
      </trkpt>
      <trkpt lat="48.15461" lon="7.21194">
        <ele>343.20001220703</ele>
        <time>2021-05-23T07:59:11Z</time>
      </trkpt>
      <trkpt lat="48.15473" lon="7.21221">
        <ele>342</ele>
        <time>2021-05-23T07:59:13Z</time>
      </trkpt>
      <trkpt lat="48.1548" lon="7.21235">
        <ele>341.60000610352</ele>
        <time>2021-05-23T07:59:14Z</time>
      </trkpt>
      <trkpt lat="48.15487" lon="7.21251">
        <ele>341</ele>
        <time>2021-05-23T07:59:15Z</time>
      </trkpt>
      <trkpt lat="48.15503" lon="7.21291">
        <ele>339.60000610352</ele>
        <time>2021-05-23T07:59:18Z</time>
      </trkpt>
      <trkpt lat="48.15521" lon="7.21336">
        <ele>339</ele>
        <time>2021-05-23T07:59:21Z</time>
      </trkpt>
      <trkpt lat="48.15533" lon="7.21367">
        <ele>338.39999389648</ele>
        <time>2021-05-23T07:59:23Z</time>
      </trkpt>
      <trkpt lat="48.15548" lon="7.21411">
        <ele>337.20001220703</ele>
        <time>2021-05-23T07:59:26Z</time>
      </trkpt>
      <trkpt lat="48.15565" lon="7.21472">
        <ele>336</ele>
        <time>2021-05-23T07:59:30Z</time>
      </trkpt>
      <trkpt lat="48.15588" lon="7.21548">
        <ele>335.39999389648</ele>
        <time>2021-05-23T07:59:36Z</time>
      </trkpt>
      <trkpt lat="48.15592" lon="7.21561">
        <ele>335</ele>
        <time>2021-05-23T07:59:37Z</time>
      </trkpt>
      <trkpt lat="48.156" lon="7.21587">
        <ele>334.79998779297</ele>
        <time>2021-05-23T07:59:39Z</time>
      </trkpt>
      <trkpt lat="48.15614" lon="7.21652">
        <ele>334.20001220703</ele>
        <time>2021-05-23T07:59:44Z</time>
      </trkpt>
      <trkpt lat="48.15624" lon="7.21729">
        <ele>334</ele>
        <time>2021-05-23T07:59:50Z</time>
      </trkpt>
      <trkpt lat="48.15622" lon="7.21768">
        <ele>333.79998779297</ele>
        <time>2021-05-23T07:59:53Z</time>
      </trkpt>
      <trkpt lat="48.15624" lon="7.21794">
        <ele>333.60000610352</ele>
        <time>2021-05-23T07:59:55Z</time>
      </trkpt>
      <trkpt lat="48.15626" lon="7.21808">
        <ele>333.39999389648</ele>
        <time>2021-05-23T07:59:56Z</time>
      </trkpt>
      <trkpt lat="48.15626" lon="7.21821">
        <ele>333.39999389648</ele>
        <time>2021-05-23T07:59:57Z</time>
      </trkpt>
      <trkpt lat="48.15625" lon="7.21851">
        <ele>332.79998779297</ele>
        <time>2021-05-23T07:59:59Z</time>
      </trkpt>
      <trkpt lat="48.15625" lon="7.21862">
        <ele>332.39999389648</ele>
        <time>2021-05-23T08:00:00Z</time>
      </trkpt>
      <trkpt lat="48.15621" lon="7.21947">
        <ele>331.60000610352</ele>
        <time>2021-05-23T08:00:06Z</time>
      </trkpt>
      <trkpt lat="48.15621" lon="7.22018">
        <ele>330.60000610352</ele>
        <time>2021-05-23T08:00:11Z</time>
      </trkpt>
      <trkpt lat="48.15622" lon="7.22047">
        <ele>330.20001220703</ele>
        <time>2021-05-23T08:00:13Z</time>
      </trkpt>
      <trkpt lat="48.15626" lon="7.22124">
        <ele>329.39999389648</ele>
        <time>2021-05-23T08:00:18Z</time>
      </trkpt>
      <trkpt lat="48.15627" lon="7.22139">
        <ele>329.20001220703</ele>
        <time>2021-05-23T08:00:19Z</time>
      </trkpt>
      <trkpt lat="48.1563" lon="7.22187">
        <ele>328.39999389648</ele>
        <time>2021-05-23T08:00:22Z</time>
      </trkpt>
      <trkpt lat="48.15635" lon="7.2225">
        <ele>327.20001220703</ele>
        <time>2021-05-23T08:00:26Z</time>
      </trkpt>
      <trkpt lat="48.15636" lon="7.22266">
        <ele>326.20001220703</ele>
        <time>2021-05-23T08:00:27Z</time>
      </trkpt>
      <trkpt lat="48.15639" lon="7.22298">
        <ele>325</ele>
        <time>2021-05-23T08:00:29Z</time>
      </trkpt>
      <trkpt lat="48.15641" lon="7.22329">
        <ele>323.79998779297</ele>
        <time>2021-05-23T08:00:31Z</time>
      </trkpt>
      <trkpt lat="48.15646" lon="7.22392">
        <ele>322.79998779297</ele>
        <time>2021-05-23T08:00:35Z</time>
      </trkpt>
      <trkpt lat="48.15649" lon="7.22439">
        <ele>322.39999389648</ele>
        <time>2021-05-23T08:00:38Z</time>
      </trkpt>
      <trkpt lat="48.15654" lon="7.225">
        <ele>321.39999389648</ele>
        <time>2021-05-23T08:00:42Z</time>
      </trkpt>
      <trkpt lat="48.15658" lon="7.22561">
        <ele>320.39999389648</ele>
        <time>2021-05-23T08:00:46Z</time>
      </trkpt>
      <trkpt lat="48.15658" lon="7.22576">
        <ele>320.20001220703</ele>
        <time>2021-05-23T08:00:47Z</time>
      </trkpt>
      <trkpt lat="48.15656" lon="7.22606">
        <ele>319.60000610352</ele>
        <time>2021-05-23T08:00:49Z</time>
      </trkpt>
      <trkpt lat="48.15651" lon="7.22635">
        <ele>319.20001220703</ele>
        <time>2021-05-23T08:00:51Z</time>
      </trkpt>
      <trkpt lat="48.15636" lon="7.2269">
        <ele>318.20001220703</ele>
        <time>2021-05-23T08:00:55Z</time>
      </trkpt>
      <trkpt lat="48.15631" lon="7.22703">
        <ele>318</ele>
        <time>2021-05-23T08:00:56Z</time>
      </trkpt>
      <trkpt lat="48.15603" lon="7.22748">
        <ele>316.39999389648</ele>
        <time>2021-05-23T08:01:00Z</time>
      </trkpt>
      <trkpt lat="48.15574" lon="7.22789">
        <ele>315.39999389648</ele>
        <time>2021-05-23T08:01:04Z</time>
      </trkpt>
      <trkpt lat="48.15551" lon="7.22819">
        <ele>314.39999389648</ele>
        <time>2021-05-23T08:01:07Z</time>
      </trkpt>
      <trkpt lat="48.15544" lon="7.22829">
        <ele>314.20001220703</ele>
        <time>2021-05-23T08:01:08Z</time>
      </trkpt>
      <trkpt lat="48.15516" lon="7.22874">
        <ele>313.20001220703</ele>
        <time>2021-05-23T08:01:12Z</time>
      </trkpt>
      <trkpt lat="48.1551" lon="7.22886">
        <ele>313</ele>
        <time>2021-05-23T08:01:13Z</time>
      </trkpt>
      <trkpt lat="48.15486" lon="7.22948">
        <ele>312.20001220703</ele>
        <time>2021-05-23T08:01:18Z</time>
      </trkpt>
      <trkpt lat="48.15482" lon="7.22961">
        <ele>312.20001220703</ele>
        <time>2021-05-23T08:01:19Z</time>
      </trkpt>
      <trkpt lat="48.15458" lon="7.23037">
        <ele>311.79998779297</ele>
        <time>2021-05-23T08:01:25Z</time>
      </trkpt>
      <trkpt lat="48.15453" lon="7.23049">
        <ele>311.60000610352</ele>
        <time>2021-05-23T08:01:26Z</time>
      </trkpt>
      <trkpt lat="48.15426" lon="7.23104">
        <ele>311.20001220703</ele>
        <time>2021-05-23T08:01:31Z</time>
      </trkpt>
      <trkpt lat="48.1542" lon="7.23114">
        <ele>311</ele>
        <time>2021-05-23T08:01:32Z</time>
      </trkpt>
      <trkpt lat="48.15383" lon="7.23165">
        <ele>310.39999389648</ele>
        <time>2021-05-23T08:01:38Z</time>
      </trkpt>
      <trkpt lat="48.15337" lon="7.23214">
        <ele>310.60000610352</ele>
        <time>2021-05-23T08:01:45Z</time>
      </trkpt>
      <trkpt lat="48.15324" lon="7.23227">
        <ele>310.60000610352</ele>
        <time>2021-05-23T08:01:47Z</time>
      </trkpt>
      <trkpt lat="48.15312" lon="7.23239">
        <ele>310.60000610352</ele>
        <time>2021-05-23T08:01:49Z</time>
      </trkpt>
      <trkpt lat="48.153" lon="7.23252">
        <ele>310.60000610352</ele>
        <time>2021-05-23T08:01:51Z</time>
      </trkpt>
      <trkpt lat="48.15264" lon="7.23294">
        <ele>310.20001220703</ele>
        <time>2021-05-23T08:01:57Z</time>
      </trkpt>
      <trkpt lat="48.15259" lon="7.23302">
        <ele>310.20001220703</ele>
        <time>2021-05-23T08:01:58Z</time>
      </trkpt>
      <trkpt lat="48.15227" lon="7.23366">
        <ele>310</ele>
        <time>2021-05-23T08:02:05Z</time>
      </trkpt>
      <trkpt lat="48.15206" lon="7.2344">
        <ele>310</ele>
        <time>2021-05-23T08:02:12Z</time>
      </trkpt>
      <trkpt lat="48.15202" lon="7.23462">
        <ele>310</ele>
        <time>2021-05-23T08:02:14Z</time>
      </trkpt>
      <trkpt lat="48.15198" lon="7.23507">
        <ele>309.60000610352</ele>
        <time>2021-05-23T08:02:18Z</time>
      </trkpt>
      <trkpt lat="48.15187" lon="7.23565">
        <ele>309.39999389648</ele>
        <time>2021-05-23T08:02:23Z</time>
      </trkpt>
      <trkpt lat="48.1517" lon="7.23642">
        <ele>309.20001220703</ele>
        <time>2021-05-23T08:02:30Z</time>
      </trkpt>
      <trkpt lat="48.15166" lon="7.23711">
        <ele>309</ele>
        <time>2021-05-23T08:02:36Z</time>
      </trkpt>
      <trkpt lat="48.15165" lon="7.23734">
        <ele>308.79998779297</ele>
        <time>2021-05-23T08:02:38Z</time>
      </trkpt>
      <trkpt lat="48.15171" lon="7.23782">
        <ele>308.60000610352</ele>
        <time>2021-05-23T08:02:42Z</time>
      </trkpt>
      <trkpt lat="48.15184" lon="7.23867">
        <ele>308.60000610352</ele>
        <time>2021-05-23T08:02:49Z</time>
      </trkpt>
      <trkpt lat="48.15186" lon="7.23879">
        <ele>308.60000610352</ele>
        <time>2021-05-23T08:02:50Z</time>
      </trkpt>
      <trkpt lat="48.15199" lon="7.23963">
        <ele>308.20001220703</ele>
        <time>2021-05-23T08:02:57Z</time>
      </trkpt>
      <trkpt lat="48.15202" lon="7.23999">
        <ele>308.20001220703</ele>
        <time>2021-05-23T08:03:00Z</time>
      </trkpt>
      <trkpt lat="48.15204" lon="7.24023">
        <ele>307.79998779297</ele>
        <time>2021-05-23T08:03:02Z</time>
      </trkpt>
      <trkpt lat="48.15204" lon="7.24035">
        <ele>307.79998779297</ele>
        <time>2021-05-23T08:03:03Z</time>
      </trkpt>
      <trkpt lat="48.15206" lon="7.24099">
        <ele>306.79998779297</ele>
        <time>2021-05-23T08:03:08Z</time>
      </trkpt>
      <trkpt lat="48.15206" lon="7.24112">
        <ele>306.60000610352</ele>
        <time>2021-05-23T08:03:09Z</time>
      </trkpt>
      <trkpt lat="48.15201" lon="7.24166">
        <ele>306</ele>
        <time>2021-05-23T08:03:13Z</time>
      </trkpt>
      <trkpt lat="48.15197" lon="7.24194">
        <ele>305</ele>
        <time>2021-05-23T08:03:15Z</time>
      </trkpt>
      <trkpt lat="48.15191" lon="7.24236">
        <ele>303.79998779297</ele>
        <time>2021-05-23T08:03:18Z</time>
      </trkpt>
      <trkpt lat="48.1519" lon="7.24251">
        <ele>303.39999389648</ele>
        <time>2021-05-23T08:03:19Z</time>
      </trkpt>
      <trkpt lat="48.15187" lon="7.24279">
        <ele>302.39999389648</ele>
        <time>2021-05-23T08:03:21Z</time>
      </trkpt>
      <trkpt lat="48.1518" lon="7.24338">
        <ele>301.39999389648</ele>
        <time>2021-05-23T08:03:25Z</time>
      </trkpt>
      <trkpt lat="48.15178" lon="7.24353">
        <ele>301</ele>
        <time>2021-05-23T08:03:26Z</time>
      </trkpt>
      <trkpt lat="48.15174" lon="7.24383">
        <ele>300.20001220703</ele>
        <time>2021-05-23T08:03:28Z</time>
      </trkpt>
      <trkpt lat="48.15165" lon="7.24428">
        <ele>298.39999389648</ele>
        <time>2021-05-23T08:03:31Z</time>
      </trkpt>
      <trkpt lat="48.15161" lon="7.24443">
        <ele>297.39999389648</ele>
        <time>2021-05-23T08:03:32Z</time>
      </trkpt>
      <trkpt lat="48.15157" lon="7.24458">
        <ele>296.79998779297</ele>
        <time>2021-05-23T08:03:33Z</time>
      </trkpt>
      <trkpt lat="48.15147" lon="7.24488">
        <ele>295.60000610352</ele>
        <time>2021-05-23T08:03:35Z</time>
      </trkpt>
      <trkpt lat="48.15136" lon="7.24517">
        <ele>294.79998779297</ele>
        <time>2021-05-23T08:03:37Z</time>
      </trkpt>
      <trkpt lat="48.1513" lon="7.24531">
        <ele>294</ele>
        <time>2021-05-23T08:03:38Z</time>
      </trkpt>
      <trkpt lat="48.15117" lon="7.24558">
        <ele>292.79998779297</ele>
        <time>2021-05-23T08:03:40Z</time>
      </trkpt>
      <trkpt lat="48.15103" lon="7.24584">
        <ele>291.79998779297</ele>
        <time>2021-05-23T08:03:42Z</time>
      </trkpt>
      <trkpt lat="48.15096" lon="7.24596">
        <ele>290.79998779297</ele>
        <time>2021-05-23T08:03:43Z</time>
      </trkpt>
      <trkpt lat="48.15082" lon="7.24621">
        <ele>289.60000610352</ele>
        <time>2021-05-23T08:03:45Z</time>
      </trkpt>
      <trkpt lat="48.15062" lon="7.2466">
        <ele>288.39999389648</ele>
        <time>2021-05-23T08:03:48Z</time>
      </trkpt>
      <trkpt lat="48.15041" lon="7.24695">
        <ele>287.20001220703</ele>
        <time>2021-05-23T08:03:51Z</time>
      </trkpt>
      <trkpt lat="48.1502" lon="7.24728">
        <ele>286.39999389648</ele>
        <time>2021-05-23T08:03:54Z</time>
      </trkpt>
      <trkpt lat="48.15013" lon="7.24738">
        <ele>286</ele>
        <time>2021-05-23T08:03:55Z</time>
      </trkpt>
      <trkpt lat="48.14973" lon="7.248">
        <ele>285.20001220703</ele>
        <time>2021-05-23T08:04:01Z</time>
      </trkpt>
      <trkpt lat="48.14966" lon="7.2481">
        <ele>284.79998779297</ele>
        <time>2021-05-23T08:04:02Z</time>
      </trkpt>
      <trkpt lat="48.14928" lon="7.24872">
        <ele>284</ele>
        <time>2021-05-23T08:04:08Z</time>
      </trkpt>
      <trkpt lat="48.14922" lon="7.24883">
        <ele>283.79998779297</ele>
        <time>2021-05-23T08:04:09Z</time>
      </trkpt>
      <trkpt lat="48.14884" lon="7.24943">
        <ele>282.79998779297</ele>
        <time>2021-05-23T08:04:15Z</time>
      </trkpt>
      <trkpt lat="48.14855" lon="7.24992">
        <ele>281.60000610352</ele>
        <time>2021-05-23T08:04:20Z</time>
      </trkpt>
      <trkpt lat="48.14832" lon="7.2503">
        <ele>281</ele>
        <time>2021-05-23T08:04:24Z</time>
      </trkpt>
      <trkpt lat="48.14818" lon="7.25054">
        <ele>280.39999389648</ele>
        <time>2021-05-23T08:04:27Z</time>
      </trkpt>
      <trkpt lat="48.14815" lon="7.2506">
        <ele>280.39999389648</ele>
        <time>2021-05-23T08:04:28Z</time>
      </trkpt>
      <trkpt lat="48.14805" lon="7.25076">
        <ele>280</ele>
        <time>2021-05-23T08:04:32Z</time>
      </trkpt>
      <trkpt lat="48.14802" lon="7.25081">
        <ele>280.20001220703</ele>
        <time>2021-05-23T08:04:34Z</time>
      </trkpt>
      <trkpt lat="48.14799" lon="7.25087">
        <ele>280.20001220703</ele>
        <time>2021-05-23T08:04:36Z</time>
      </trkpt>
      <trkpt lat="48.14787" lon="7.25106">
        <ele>280</ele>
        <time>2021-05-23T08:04:40Z</time>
      </trkpt>
      <trkpt lat="48.14764" lon="7.2514">
        <ele>279.39999389648</ele>
        <time>2021-05-23T08:04:45Z</time>
      </trkpt>
      <trkpt lat="48.14731" lon="7.25195">
        <ele>278.20001220703</ele>
        <time>2021-05-23T08:04:52Z</time>
      </trkpt>
      <trkpt lat="48.14695" lon="7.25252">
        <ele>277.20001220703</ele>
        <time>2021-05-23T08:04:59Z</time>
      </trkpt>
      <trkpt lat="48.14689" lon="7.2526">
        <ele>277.20001220703</ele>
        <time>2021-05-23T08:05:00Z</time>
      </trkpt>
      <trkpt lat="48.14665" lon="7.2529">
        <ele>276</ele>
        <time>2021-05-23T08:05:04Z</time>
      </trkpt>
      <trkpt lat="48.14639" lon="7.25316">
        <ele>275.60000610352</ele>
        <time>2021-05-23T08:05:08Z</time>
      </trkpt>
      <trkpt lat="48.14609" lon="7.25346">
        <ele>275.39999389648</ele>
        <time>2021-05-23T08:05:13Z</time>
      </trkpt>
      <trkpt lat="48.14601" lon="7.2535">
        <ele>275.39999389648</ele>
        <time>2021-05-23T08:05:14Z</time>
      </trkpt>
      <trkpt lat="48.14589" lon="7.25352">
        <ele>275.39999389648</ele>
        <time>2021-05-23T08:05:16Z</time>
      </trkpt>
      <trkpt lat="48.14579" lon="7.25361">
        <ele>275.39999389648</ele>
        <time>2021-05-23T08:05:18Z</time>
      </trkpt>
      <trkpt lat="48.14575" lon="7.25375">
        <ele>275.60000610352</ele>
        <time>2021-05-23T08:05:20Z</time>
      </trkpt>
      <trkpt lat="48.14581" lon="7.25399">
        <ele>275.79998779297</ele>
        <time>2021-05-23T08:05:23Z</time>
      </trkpt>
      <trkpt lat="48.14582" lon="7.25408">
        <ele>275.79998779297</ele>
        <time>2021-05-23T08:05:24Z</time>
      </trkpt>
      <trkpt lat="48.1458" lon="7.25428">
        <ele>275.79998779297</ele>
        <time>2021-05-23T08:05:26Z</time>
      </trkpt>
      <trkpt lat="48.1457" lon="7.25455">
        <ele>275.79998779297</ele>
        <time>2021-05-23T08:05:29Z</time>
      </trkpt>
      <trkpt lat="48.14562" lon="7.25472">
        <ele>275.60000610352</ele>
        <time>2021-05-23T08:05:31Z</time>
      </trkpt>
      <trkpt lat="48.14553" lon="7.2549">
        <ele>275.20001220703</ele>
        <time>2021-05-23T08:05:33Z</time>
      </trkpt>
      <trkpt lat="48.1454" lon="7.25513">
        <ele>274.79998779297</ele>
        <time>2021-05-23T08:05:36Z</time>
      </trkpt>
      <trkpt lat="48.14524" lon="7.25532">
        <ele>274.60000610352</ele>
        <time>2021-05-23T08:05:39Z</time>
      </trkpt>
      <trkpt lat="48.14518" lon="7.25536">
        <ele>274.39999389648</ele>
        <time>2021-05-23T08:05:40Z</time>
      </trkpt>
      <trkpt lat="48.14481" lon="7.25565">
        <ele>274.20001220703</ele>
        <time>2021-05-23T08:05:46Z</time>
      </trkpt>
      <trkpt lat="48.14442" lon="7.25597">
        <ele>274</ele>
        <time>2021-05-23T08:05:53Z</time>
      </trkpt>
      <trkpt lat="48.1441" lon="7.2562">
        <ele>273.20001220703</ele>
        <time>2021-05-23T08:05:58Z</time>
      </trkpt>
      <trkpt lat="48.14403" lon="7.25624">
        <ele>272.79998779297</ele>
        <time>2021-05-23T08:05:59Z</time>
      </trkpt>
      <trkpt lat="48.14374" lon="7.25638">
        <ele>272</ele>
        <time>2021-05-23T08:06:03Z</time>
      </trkpt>
      <trkpt lat="48.14351" lon="7.25649">
        <ele>271.39999389648</ele>
        <time>2021-05-23T08:06:06Z</time>
      </trkpt>
      <trkpt lat="48.14335" lon="7.25656">
        <ele>270.60000610352</ele>
        <time>2021-05-23T08:06:08Z</time>
      </trkpt>
      <trkpt lat="48.14312" lon="7.25668">
        <ele>269.20001220703</ele>
        <time>2021-05-23T08:06:11Z</time>
      </trkpt>
      <trkpt lat="48.14296" lon="7.25678">
        <ele>268.60000610352</ele>
        <time>2021-05-23T08:06:13Z</time>
      </trkpt>
      <trkpt lat="48.1428" lon="7.25688">
        <ele>268.20001220703</ele>
        <time>2021-05-23T08:06:15Z</time>
      </trkpt>
      <trkpt lat="48.14253" lon="7.25713">
        <ele>267</ele>
        <time>2021-05-23T08:06:19Z</time>
      </trkpt>
      <trkpt lat="48.14247" lon="7.2572">
        <ele>266.79998779297</ele>
        <time>2021-05-23T08:06:20Z</time>
      </trkpt>
      <trkpt lat="48.14225" lon="7.25745">
        <ele>265.79998779297</ele>
        <time>2021-05-23T08:06:24Z</time>
      </trkpt>
      <trkpt lat="48.1422" lon="7.25751">
        <ele>265.79998779297</ele>
        <time>2021-05-23T08:06:25Z</time>
      </trkpt>
      <trkpt lat="48.14184" lon="7.25796">
        <ele>265.39999389648</ele>
        <time>2021-05-23T08:06:32Z</time>
      </trkpt>
      <trkpt lat="48.14139" lon="7.25845">
        <ele>265</ele>
        <time>2021-05-23T08:06:40Z</time>
      </trkpt>
      <trkpt lat="48.14126" lon="7.25856">
        <ele>265</ele>
        <time>2021-05-23T08:06:43Z</time>
      </trkpt>
      <trkpt lat="48.14123" lon="7.25858">
        <ele>265</ele>
        <time>2021-05-23T08:06:44Z</time>
      </trkpt>
      <trkpt lat="48.14111" lon="7.25869">
        <ele>265</ele>
        <time>2021-05-23T08:06:49Z</time>
      </trkpt>
      <trkpt lat="48.14106" lon="7.25877">
        <ele>264.79998779297</ele>
        <time>2021-05-23T08:06:52Z</time>
      </trkpt>
      <trkpt lat="48.14099" lon="7.25885">
        <ele>264.60000610352</ele>
        <time>2021-05-23T08:06:55Z</time>
      </trkpt>
      <trkpt lat="48.14074" lon="7.2591">
        <ele>264.60000610352</ele>
        <time>2021-05-23T08:07:05Z</time>
      </trkpt>
      <trkpt lat="48.14058" lon="7.25929">
        <ele>263.60000610352</ele>
        <time>2021-05-23T08:07:11Z</time>
      </trkpt>
      <trkpt lat="48.14039" lon="7.25951">
        <ele>262.60000610352</ele>
        <time>2021-05-23T08:07:18Z</time>
      </trkpt>
      <trkpt lat="48.14033" lon="7.25958">
        <ele>261.60000610352</ele>
        <time>2021-05-23T08:07:20Z</time>
      </trkpt>
      <trkpt lat="48.1403" lon="7.25962">
        <ele>261.39999389648</ele>
        <time>2021-05-23T08:07:21Z</time>
      </trkpt>
      <trkpt lat="48.14018" lon="7.25978">
        <ele>260.79998779297</ele>
        <time>2021-05-23T08:07:25Z</time>
      </trkpt>
      <trkpt lat="48.14001" lon="7.26003">
        <ele>260.60000610352</ele>
        <time>2021-05-23T08:07:32Z</time>
      </trkpt>
      <trkpt lat="48.13997" lon="7.2601">
        <ele>260.60000610352</ele>
        <time>2021-05-23T08:07:35Z</time>
      </trkpt>
      <trkpt lat="48.13995" lon="7.26012">
        <ele>260.60000610352</ele>
        <time>2021-05-23T08:07:36Z</time>
      </trkpt>
      <trkpt lat="48.13995" lon="7.26014">
        <ele>260.60000610352</ele>
        <time>2021-05-23T08:07:37Z</time>
      </trkpt>
      <trkpt lat="48.13992" lon="7.26022">
        <ele>260.39999389648</ele>
        <time>2021-05-23T08:07:40Z</time>
      </trkpt>
      <trkpt lat="48.1399" lon="7.26031">
        <ele>260.20001220703</ele>
        <time>2021-05-23T08:07:43Z</time>
      </trkpt>
      <trkpt lat="48.1399" lon="7.26043">
        <ele>260</ele>
        <time>2021-05-23T08:07:46Z</time>
      </trkpt>
      <trkpt lat="48.13992" lon="7.26067">
        <ele>259.79998779297</ele>
        <time>2021-05-23T08:07:52Z</time>
      </trkpt>
      <trkpt lat="48.13993" lon="7.26081">
        <ele>259.79998779297</ele>
        <time>2021-05-23T08:07:57Z</time>
      </trkpt>
      <trkpt lat="48.13993" lon="7.26097">
        <ele>259.60000610352</ele>
        <time>2021-05-23T08:08:02Z</time>
      </trkpt>
      <trkpt lat="48.13991" lon="7.26105">
        <ele>259.39999389648</ele>
        <time>2021-05-23T08:08:05Z</time>
      </trkpt>
      <trkpt lat="48.13983" lon="7.26109">
        <ele>259.39999389648</ele>
        <time>2021-05-23T08:08:10Z</time>
      </trkpt>
      <trkpt lat="48.13977" lon="7.26113">
        <ele>259.20001220703</ele>
        <time>2021-05-23T08:08:15Z</time>
      </trkpt>
      <trkpt lat="48.13966" lon="7.26118">
        <ele>258.79998779297</ele>
        <time>2021-05-23T08:08:21Z</time>
      </trkpt>
      <trkpt lat="48.13953" lon="7.26127">
        <ele>258.39999389648</ele>
        <time>2021-05-23T08:08:26Z</time>
      </trkpt>
      <trkpt lat="48.13949" lon="7.26128">
        <ele>258.20001220703</ele>
        <time>2021-05-23T08:08:28Z</time>
      </trkpt>
      <trkpt lat="48.13936" lon="7.26134">
        <ele>258</ele>
        <time>2021-05-23T08:08:33Z</time>
      </trkpt>
      <trkpt lat="48.13912" lon="7.26155">
        <ele>257.79998779297</ele>
        <time>2021-05-23T08:08:42Z</time>
      </trkpt>
      <trkpt lat="48.13896" lon="7.26179">
        <ele>257.20001220703</ele>
        <time>2021-05-23T08:08:48Z</time>
      </trkpt>
      <trkpt lat="48.13894" lon="7.26182">
        <ele>257.20001220703</ele>
        <time>2021-05-23T08:08:49Z</time>
      </trkpt>
      <trkpt lat="48.13886" lon="7.26201">
        <ele>257.60000610352</ele>
        <time>2021-05-23T08:08:54Z</time>
      </trkpt>
      <trkpt lat="48.13886" lon="7.26209">
        <ele>257.79998779297</ele>
        <time>2021-05-23T08:08:57Z</time>
      </trkpt>
      <trkpt lat="48.13886" lon="7.26212">
        <ele>257.79998779297</ele>
        <time>2021-05-23T08:08:58Z</time>
      </trkpt>
      <trkpt lat="48.13887" lon="7.26238">
        <ele>257.39999389648</ele>
        <time>2021-05-23T08:09:05Z</time>
      </trkpt>
      <trkpt lat="48.13886" lon="7.26268">
        <ele>257.20001220703</ele>
        <time>2021-05-23T08:09:12Z</time>
      </trkpt>
      <trkpt lat="48.13888" lon="7.26296">
        <ele>256.79998779297</ele>
        <time>2021-05-23T08:09:19Z</time>
      </trkpt>
      <trkpt lat="48.1389" lon="7.26331">
        <ele>256.79998779297</ele>
        <time>2021-05-23T08:09:27Z</time>
      </trkpt>
      <trkpt lat="48.13887" lon="7.26368">
        <ele>256.20001220703</ele>
        <time>2021-05-23T08:09:35Z</time>
      </trkpt>
      <trkpt lat="48.13886" lon="7.26372">
        <ele>256</ele>
        <time>2021-05-23T08:09:36Z</time>
      </trkpt>
      <trkpt lat="48.13881" lon="7.26389">
        <ele>255.80000305176</ele>
        <time>2021-05-23T08:09:40Z</time>
      </trkpt>
      <trkpt lat="48.13876" lon="7.2643">
        <ele>256</ele>
        <time>2021-05-23T08:09:48Z</time>
      </trkpt>
      <trkpt lat="48.13875" lon="7.26459">
        <ele>255.60000610352</ele>
        <time>2021-05-23T08:09:54Z</time>
      </trkpt>
      <trkpt lat="48.13874" lon="7.26469">
        <ele>255</ele>
        <time>2021-05-23T08:09:56Z</time>
      </trkpt>
      <trkpt lat="48.13869" lon="7.26501">
        <ele>255</ele>
        <time>2021-05-23T08:10:02Z</time>
      </trkpt>
      <trkpt lat="48.13863" lon="7.26532">
        <ele>255.39999389648</ele>
        <time>2021-05-23T08:10:09Z</time>
      </trkpt>
      <trkpt lat="48.1386" lon="7.26555">
        <ele>255.39999389648</ele>
        <time>2021-05-23T08:10:15Z</time>
      </trkpt>
      <trkpt lat="48.13857" lon="7.26581">
        <ele>255.39999389648</ele>
        <time>2021-05-23T08:10:23Z</time>
      </trkpt>
      <trkpt lat="48.13852" lon="7.26602">
        <ele>254.60000610352</ele>
        <time>2021-05-23T08:10:30Z</time>
      </trkpt>
      <trkpt lat="48.13836" lon="7.26625">
        <ele>254.39999389648</ele>
        <time>2021-05-23T08:10:38Z</time>
      </trkpt>
      <trkpt lat="48.13828" lon="7.26635">
        <ele>254.19999694824</ele>
        <time>2021-05-23T08:10:42Z</time>
      </trkpt>
      <trkpt lat="48.13824" lon="7.26638">
        <ele>254</ele>
        <time>2021-05-23T08:10:44Z</time>
      </trkpt>
      <trkpt lat="48.1382" lon="7.26643">
        <ele>254</ele>
        <time>2021-05-23T08:10:49Z</time>
      </trkpt>
      <trkpt lat="48.1382" lon="7.26643">
        <ele>254</ele>
        <time>2021-05-23T08:10:50Z</time>
      </trkpt>
      <trkpt lat="48.13819" lon="7.26647">
        <ele>253.60000610352</ele>
        <time>2021-05-23T08:11:04Z</time>
      </trkpt>
      <trkpt lat="48.13819" lon="7.26656">
        <ele>253.60000610352</ele>
        <time>2021-05-23T08:11:06Z</time>
      </trkpt>
      <trkpt lat="48.13821" lon="7.2669">
        <ele>253.39999389648</ele>
        <time>2021-05-23T08:11:12Z</time>
      </trkpt>
      <trkpt lat="48.13815" lon="7.26712">
        <ele>253.19999694824</ele>
        <time>2021-05-23T08:11:16Z</time>
      </trkpt>
      <trkpt lat="48.13811" lon="7.26745">
        <ele>252.60000610352</ele>
        <time>2021-05-23T08:11:21Z</time>
      </trkpt>
      <trkpt lat="48.13811" lon="7.26751">
        <ele>252.60000610352</ele>
        <time>2021-05-23T08:11:22Z</time>
      </trkpt>
      <trkpt lat="48.1381" lon="7.26757">
        <ele>252.39999389648</ele>
        <time>2021-05-23T08:11:23Z</time>
      </trkpt>
      <trkpt lat="48.1381" lon="7.26769">
        <ele>252.39999389648</ele>
        <time>2021-05-23T08:11:25Z</time>
      </trkpt>
      <trkpt lat="48.13809" lon="7.26781">
        <ele>252.19999694824</ele>
        <time>2021-05-23T08:11:27Z</time>
      </trkpt>
      <trkpt lat="48.13803" lon="7.26835">
        <ele>251.60000610352</ele>
        <time>2021-05-23T08:11:35Z</time>
      </trkpt>
      <trkpt lat="48.13802" lon="7.26842">
        <ele>251.60000610352</ele>
        <time>2021-05-23T08:11:36Z</time>
      </trkpt>
      <trkpt lat="48.13797" lon="7.26884">
        <ele>251.19999694824</ele>
        <time>2021-05-23T08:11:42Z</time>
      </trkpt>
      <trkpt lat="48.13796" lon="7.269">
        <ele>251</ele>
        <time>2021-05-23T08:11:44Z</time>
      </trkpt>
      <trkpt lat="48.13792" lon="7.2694">
        <ele>250.39999389648</ele>
        <time>2021-05-23T08:11:49Z</time>
      </trkpt>
      <trkpt lat="48.13791" lon="7.26948">
        <ele>250</ele>
        <time>2021-05-23T08:11:50Z</time>
      </trkpt>
      <trkpt lat="48.13787" lon="7.26991">
        <ele>249.39999389648</ele>
        <time>2021-05-23T08:11:55Z</time>
      </trkpt>
      <trkpt lat="48.13785" lon="7.27019">
        <ele>248.80000305176</ele>
        <time>2021-05-23T08:11:58Z</time>
      </trkpt>
      <trkpt lat="48.13783" lon="7.2705">
        <ele>248.60000610352</ele>
        <time>2021-05-23T08:12:01Z</time>
      </trkpt>
      <trkpt lat="48.1378" lon="7.27072">
        <ele>248.39999389648</ele>
        <time>2021-05-23T08:12:03Z</time>
      </trkpt>
      <trkpt lat="48.13772" lon="7.27152">
        <ele>247.60000610352</ele>
        <time>2021-05-23T08:12:10Z</time>
      </trkpt>
      <trkpt lat="48.13771" lon="7.27163">
        <ele>247.39999389648</ele>
        <time>2021-05-23T08:12:11Z</time>
      </trkpt>
      <trkpt lat="48.13765" lon="7.27233">
        <ele>246.19999694824</ele>
        <time>2021-05-23T08:12:17Z</time>
      </trkpt>
      <trkpt lat="48.13763" lon="7.27256">
        <ele>245.80000305176</ele>
        <time>2021-05-23T08:12:19Z</time>
      </trkpt>
      <trkpt lat="48.13757" lon="7.27313">
        <ele>245.19999694824</ele>
        <time>2021-05-23T08:12:24Z</time>
      </trkpt>
      <trkpt lat="48.13753" lon="7.27359">
        <ele>244.39999389648</ele>
        <time>2021-05-23T08:12:29Z</time>
      </trkpt>
      <trkpt lat="48.1375" lon="7.27394">
        <ele>244.19999694824</ele>
        <time>2021-05-23T08:12:32Z</time>
      </trkpt>
      <trkpt lat="48.13742" lon="7.27477">
        <ele>243.60000610352</ele>
        <time>2021-05-23T08:12:39Z</time>
      </trkpt>
      <trkpt lat="48.13739" lon="7.27501">
        <ele>243.39999389648</ele>
        <time>2021-05-23T08:12:41Z</time>
      </trkpt>
      <trkpt lat="48.13736" lon="7.27523">
        <ele>243.19999694824</ele>
        <time>2021-05-23T08:12:43Z</time>
      </trkpt>
      <trkpt lat="48.13729" lon="7.27582">
        <ele>242.19999694824</ele>
        <time>2021-05-23T08:12:48Z</time>
      </trkpt>
      <trkpt lat="48.13727" lon="7.27594">
        <ele>242.19999694824</ele>
        <time>2021-05-23T08:12:49Z</time>
      </trkpt>
      <trkpt lat="48.13718" lon="7.27676">
        <ele>241.60000610352</ele>
        <time>2021-05-23T08:12:56Z</time>
      </trkpt>
      <trkpt lat="48.13716" lon="7.27712">
        <ele>241.19999694824</ele>
        <time>2021-05-23T08:12:59Z</time>
      </trkpt>
      <trkpt lat="48.13715" lon="7.27747">
        <ele>240.80000305176</ele>
        <time>2021-05-23T08:13:02Z</time>
      </trkpt>
      <trkpt lat="48.13711" lon="7.27819">
        <ele>239.80000305176</ele>
        <time>2021-05-23T08:13:08Z</time>
      </trkpt>
      <trkpt lat="48.1371" lon="7.27831">
        <ele>239.80000305176</ele>
        <time>2021-05-23T08:13:09Z</time>
      </trkpt>
      <trkpt lat="48.13701" lon="7.27913">
        <ele>239.19999694824</ele>
        <time>2021-05-23T08:13:16Z</time>
      </trkpt>
      <trkpt lat="48.137" lon="7.27925">
        <ele>239</ele>
        <time>2021-05-23T08:13:17Z</time>
      </trkpt>
      <trkpt lat="48.13694" lon="7.27959">
        <ele>238.80000305176</ele>
        <time>2021-05-23T08:13:20Z</time>
      </trkpt>
      <trkpt lat="48.1368" lon="7.28047">
        <ele>238.39999389648</ele>
        <time>2021-05-23T08:13:28Z</time>
      </trkpt>
      <trkpt lat="48.13675" lon="7.28068">
        <ele>238</ele>
        <time>2021-05-23T08:13:30Z</time>
      </trkpt>
      <trkpt lat="48.13656" lon="7.28126">
        <ele>237.60000610352</ele>
        <time>2021-05-23T08:13:36Z</time>
      </trkpt>
      <trkpt lat="48.13644" lon="7.2817">
        <ele>237.60000610352</ele>
        <time>2021-05-23T08:13:41Z</time>
      </trkpt>
      <trkpt lat="48.13635" lon="7.28218">
        <ele>237.80000305176</ele>
        <time>2021-05-23T08:13:47Z</time>
      </trkpt>
      <trkpt lat="48.13633" lon="7.28227">
        <ele>237.80000305176</ele>
        <time>2021-05-23T08:13:48Z</time>
      </trkpt>
      <trkpt lat="48.13624" lon="7.28264">
        <ele>237.60000610352</ele>
        <time>2021-05-23T08:13:53Z</time>
      </trkpt>
      <trkpt lat="48.13613" lon="7.28319">
        <ele>236.60000610352</ele>
        <time>2021-05-23T08:14:00Z</time>
      </trkpt>
      <trkpt lat="48.13608" lon="7.28378">
        <ele>235.60000610352</ele>
        <time>2021-05-23T08:14:08Z</time>
      </trkpt>
      <trkpt lat="48.13607" lon="7.28385">
        <ele>235.60000610352</ele>
        <time>2021-05-23T08:14:09Z</time>
      </trkpt>
      <trkpt lat="48.13607" lon="7.28393">
        <ele>235.60000610352</ele>
        <time>2021-05-23T08:14:10Z</time>
      </trkpt>
      <trkpt lat="48.13607" lon="7.284">
        <ele>235.39999389648</ele>
        <time>2021-05-23T08:14:11Z</time>
      </trkpt>
      <trkpt lat="48.13608" lon="7.28436">
        <ele>235</ele>
        <time>2021-05-23T08:14:16Z</time>
      </trkpt>
      <trkpt lat="48.13611" lon="7.28462">
        <ele>235.39999389648</ele>
        <time>2021-05-23T08:14:20Z</time>
      </trkpt>
      <trkpt lat="48.13614" lon="7.28489">
        <ele>235.19999694824</ele>
        <time>2021-05-23T08:14:24Z</time>
      </trkpt>
      <trkpt lat="48.1362" lon="7.28538">
        <ele>234.60000610352</ele>
        <time>2021-05-23T08:14:31Z</time>
      </trkpt>
      <trkpt lat="48.13621" lon="7.28545">
        <ele>234.60000610352</ele>
        <time>2021-05-23T08:14:32Z</time>
      </trkpt>
      <trkpt lat="48.13626" lon="7.28565">
        <ele>234.19999694824</ele>
        <time>2021-05-23T08:14:35Z</time>
      </trkpt>
      <trkpt lat="48.13633" lon="7.28598">
        <ele>234.39999389648</ele>
        <time>2021-05-23T08:14:40Z</time>
      </trkpt>
      <trkpt lat="48.13647" lon="7.28658">
        <ele>234.39999389648</ele>
        <time>2021-05-23T08:14:49Z</time>
      </trkpt>
      <trkpt lat="48.13656" lon="7.28696">
        <ele>234</ele>
        <time>2021-05-23T08:14:55Z</time>
      </trkpt>
      <trkpt lat="48.13658" lon="7.28702">
        <ele>234</ele>
        <time>2021-05-23T08:14:56Z</time>
      </trkpt>
      <trkpt lat="48.13658" lon="7.28709">
        <ele>234</ele>
        <time>2021-05-23T08:14:57Z</time>
      </trkpt>
      <trkpt lat="48.13659" lon="7.28735">
        <ele>234</ele>
        <time>2021-05-23T08:15:01Z</time>
      </trkpt>
      <trkpt lat="48.13657" lon="7.28747">
        <ele>233.60000610352</ele>
        <time>2021-05-23T08:15:03Z</time>
      </trkpt>
      <trkpt lat="48.13651" lon="7.28759">
        <ele>233.39999389648</ele>
        <time>2021-05-23T08:15:05Z</time>
      </trkpt>
      <trkpt lat="48.13644" lon="7.2877">
        <ele>233.19999694824</ele>
        <time>2021-05-23T08:15:07Z</time>
      </trkpt>
      <trkpt lat="48.13627" lon="7.28796">
        <ele>232.19999694824</ele>
        <time>2021-05-23T08:15:12Z</time>
      </trkpt>
      <trkpt lat="48.13623" lon="7.288">
        <ele>232</ele>
        <time>2021-05-23T08:15:13Z</time>
      </trkpt>
      <trkpt lat="48.13612" lon="7.2881">
        <ele>231.80000305176</ele>
        <time>2021-05-23T08:15:16Z</time>
      </trkpt>
      <trkpt lat="48.13603" lon="7.28813">
        <ele>231.60000610352</ele>
        <time>2021-05-23T08:15:18Z</time>
      </trkpt>
      <trkpt lat="48.13567" lon="7.28826">
        <ele>231.39999389648</ele>
        <time>2021-05-23T08:15:26Z</time>
      </trkpt>
      <trkpt lat="48.13544" lon="7.28834">
        <ele>231.80000305176</ele>
        <time>2021-05-23T08:15:31Z</time>
      </trkpt>
      <trkpt lat="48.13537" lon="7.28839">
        <ele>231.80000305176</ele>
        <time>2021-05-23T08:15:33Z</time>
      </trkpt>
      <trkpt lat="48.13527" lon="7.28853">
        <ele>231.60000610352</ele>
        <time>2021-05-23T08:15:37Z</time>
      </trkpt>
      <trkpt lat="48.13525" lon="7.28858">
        <ele>231.39999389648</ele>
        <time>2021-05-23T08:15:39Z</time>
      </trkpt>
      <trkpt lat="48.1352" lon="7.28868">
        <ele>231.39999389648</ele>
        <time>2021-05-23T08:15:41Z</time>
      </trkpt>
      <trkpt lat="48.13508" lon="7.28905">
        <ele>231.39999389648</ele>
        <time>2021-05-23T08:15:47Z</time>
      </trkpt>
      <trkpt lat="48.13499" lon="7.28931">
        <ele>231.39999389648</ele>
        <time>2021-05-23T08:15:52Z</time>
      </trkpt>
      <trkpt lat="48.13498" lon="7.28938">
        <ele>231.19999694824</ele>
        <time>2021-05-23T08:15:53Z</time>
      </trkpt>
      <trkpt lat="48.13494" lon="7.28962">
        <ele>231</ele>
        <time>2021-05-23T08:15:56Z</time>
      </trkpt>
      <trkpt lat="48.13487" lon="7.28998">
        <ele>230.60000610352</ele>
        <time>2021-05-23T08:16:02Z</time>
      </trkpt>
      <trkpt lat="48.13487" lon="7.29004">
        <ele>229</ele>
        <time>2021-05-23T08:16:07Z</time>
      </trkpt>
      <trkpt lat="48.13484" lon="7.29014">
        <ele>230.19999694824</ele>
        <time>2021-05-23T08:16:14Z</time>
      </trkpt>
      <trkpt lat="48.13482" lon="7.29019">
        <ele>230.19999694824</ele>
        <time>2021-05-23T08:16:15Z</time>
      </trkpt>
      <trkpt lat="48.13479" lon="7.29025">
        <ele>230.19999694824</ele>
        <time>2021-05-23T08:16:16Z</time>
      </trkpt>
      <trkpt lat="48.13476" lon="7.29039">
        <ele>230.19999694824</ele>
        <time>2021-05-23T08:16:18Z</time>
      </trkpt>
      <trkpt lat="48.13476" lon="7.29056">
        <ele>230.19999694824</ele>
        <time>2021-05-23T08:16:20Z</time>
      </trkpt>
      <trkpt lat="48.13479" lon="7.29111">
        <ele>229.80000305176</ele>
        <time>2021-05-23T08:16:26Z</time>
      </trkpt>
      <trkpt lat="48.13477" lon="7.29181">
        <ele>229.19999694824</ele>
        <time>2021-05-23T08:16:33Z</time>
      </trkpt>
      <trkpt lat="48.13475" lon="7.29201">
        <ele>229.19999694824</ele>
        <time>2021-05-23T08:16:35Z</time>
      </trkpt>
      <trkpt lat="48.13468" lon="7.29261">
        <ele>228.60000610352</ele>
        <time>2021-05-23T08:16:41Z</time>
      </trkpt>
      <trkpt lat="48.13461" lon="7.29302">
        <ele>228.19999694824</ele>
        <time>2021-05-23T08:16:45Z</time>
      </trkpt>
      <trkpt lat="48.1345" lon="7.29365">
        <ele>227.60000610352</ele>
        <time>2021-05-23T08:16:51Z</time>
      </trkpt>
      <trkpt lat="48.13434" lon="7.29453">
        <ele>227.39999389648</ele>
        <time>2021-05-23T08:16:59Z</time>
      </trkpt>
      <trkpt lat="48.13433" lon="7.29464">
        <ele>227.19999694824</ele>
        <time>2021-05-23T08:17:00Z</time>
      </trkpt>
      <trkpt lat="48.13429" lon="7.29487">
        <ele>227</ele>
        <time>2021-05-23T08:17:02Z</time>
      </trkpt>
      <trkpt lat="48.1342" lon="7.29542">
        <ele>226.39999389648</ele>
        <time>2021-05-23T08:17:07Z</time>
      </trkpt>
      <trkpt lat="48.13408" lon="7.29607">
        <ele>226</ele>
        <time>2021-05-23T08:17:13Z</time>
      </trkpt>
      <trkpt lat="48.13391" lon="7.29695">
        <ele>225.39999389648</ele>
        <time>2021-05-23T08:17:21Z</time>
      </trkpt>
      <trkpt lat="48.13387" lon="7.29717">
        <ele>225.39999389648</ele>
        <time>2021-05-23T08:17:23Z</time>
      </trkpt>
      <trkpt lat="48.13375" lon="7.2977">
        <ele>224.80000305176</ele>
        <time>2021-05-23T08:17:28Z</time>
      </trkpt>
      <trkpt lat="48.1337" lon="7.29792">
        <ele>224.60000610352</ele>
        <time>2021-05-23T08:17:30Z</time>
      </trkpt>
      <trkpt lat="48.13352" lon="7.29879">
        <ele>224.39999389648</ele>
        <time>2021-05-23T08:17:38Z</time>
      </trkpt>
      <trkpt lat="48.13347" lon="7.29901">
        <ele>224.19999694824</ele>
        <time>2021-05-23T08:17:40Z</time>
      </trkpt>
      <trkpt lat="48.13337" lon="7.29944">
        <ele>224</ele>
        <time>2021-05-23T08:17:44Z</time>
      </trkpt>
      <trkpt lat="48.13325" lon="7.29998">
        <ele>223.19999694824</ele>
        <time>2021-05-23T08:17:49Z</time>
      </trkpt>
      <trkpt lat="48.1332" lon="7.3002">
        <ele>222.80000305176</ele>
        <time>2021-05-23T08:17:51Z</time>
      </trkpt>
      <trkpt lat="48.13309" lon="7.30073">
        <ele>222</ele>
        <time>2021-05-23T08:17:56Z</time>
      </trkpt>
      <trkpt lat="48.13307" lon="7.30083">
        <ele>222</ele>
        <time>2021-05-23T08:17:57Z</time>
      </trkpt>
      <trkpt lat="48.13305" lon="7.30094">
        <ele>221.80000305176</ele>
        <time>2021-05-23T08:17:58Z</time>
      </trkpt>
      <trkpt lat="48.13292" lon="7.30159">
        <ele>221.19999694824</ele>
        <time>2021-05-23T08:18:04Z</time>
      </trkpt>
      <trkpt lat="48.13272" lon="7.30246">
        <ele>221</ele>
        <time>2021-05-23T08:18:12Z</time>
      </trkpt>
      <trkpt lat="48.1327" lon="7.30257">
        <ele>220.80000305176</ele>
        <time>2021-05-23T08:18:13Z</time>
      </trkpt>
      <trkpt lat="48.13268" lon="7.30279">
        <ele>220.60000610352</ele>
        <time>2021-05-23T08:18:15Z</time>
      </trkpt>
      <trkpt lat="48.13267" lon="7.30301">
        <ele>220.19999694824</ele>
        <time>2021-05-23T08:18:17Z</time>
      </trkpt>
      <trkpt lat="48.13266" lon="7.30336">
        <ele>219.80000305176</ele>
        <time>2021-05-23T08:18:20Z</time>
      </trkpt>
      <trkpt lat="48.13265" lon="7.30427">
        <ele>219</ele>
        <time>2021-05-23T08:18:28Z</time>
      </trkpt>
      <trkpt lat="48.13265" lon="7.30449">
        <ele>218.80000305176</ele>
        <time>2021-05-23T08:18:30Z</time>
      </trkpt>
      <trkpt lat="48.13269" lon="7.30503">
        <ele>218.60000610352</ele>
        <time>2021-05-23T08:18:35Z</time>
      </trkpt>
      <trkpt lat="48.13271" lon="7.30514">
        <ele>218.60000610352</ele>
        <time>2021-05-23T08:18:36Z</time>
      </trkpt>
      <trkpt lat="48.13276" lon="7.30559">
        <ele>218.39999389648</ele>
        <time>2021-05-23T08:18:40Z</time>
      </trkpt>
      <trkpt lat="48.13284" lon="7.30641">
        <ele>218</ele>
        <time>2021-05-23T08:18:47Z</time>
      </trkpt>
      <trkpt lat="48.13285" lon="7.30653">
        <ele>218</ele>
        <time>2021-05-23T08:18:48Z</time>
      </trkpt>
      <trkpt lat="48.13295" lon="7.30725">
        <ele>217.60000610352</ele>
        <time>2021-05-23T08:18:54Z</time>
      </trkpt>
      <trkpt lat="48.133" lon="7.30774">
        <ele>217.39999389648</ele>
        <time>2021-05-23T08:18:58Z</time>
      </trkpt>
      <trkpt lat="48.1331" lon="7.30857">
        <ele>217.39999389648</ele>
        <time>2021-05-23T08:19:05Z</time>
      </trkpt>
      <trkpt lat="48.13316" lon="7.30902">
        <ele>217.39999389648</ele>
        <time>2021-05-23T08:19:09Z</time>
      </trkpt>
      <trkpt lat="48.13325" lon="7.30978">
        <ele>217</ele>
        <time>2021-05-23T08:19:16Z</time>
      </trkpt>
      <trkpt lat="48.13326" lon="7.30989">
        <ele>216.80000305176</ele>
        <time>2021-05-23T08:19:17Z</time>
      </trkpt>
      <trkpt lat="48.13338" lon="7.31077">
        <ele>216.19999694824</ele>
        <time>2021-05-23T08:19:25Z</time>
      </trkpt>
      <trkpt lat="48.1334" lon="7.31101">
        <ele>216</ele>
        <time>2021-05-23T08:19:27Z</time>
      </trkpt>
      <trkpt lat="48.13346" lon="7.3117">
        <ele>215.80000305176</ele>
        <time>2021-05-23T08:19:33Z</time>
      </trkpt>
      <trkpt lat="48.13347" lon="7.31206">
        <ele>215.60000610352</ele>
        <time>2021-05-23T08:19:36Z</time>
      </trkpt>
      <trkpt lat="48.13344" lon="7.3129">
        <ele>215.19999694824</ele>
        <time>2021-05-23T08:19:43Z</time>
      </trkpt>
      <trkpt lat="48.13343" lon="7.31302">
        <ele>215.19999694824</ele>
        <time>2021-05-23T08:19:44Z</time>
      </trkpt>
      <trkpt lat="48.13331" lon="7.31384">
        <ele>214.80000305176</ele>
        <time>2021-05-23T08:19:51Z</time>
      </trkpt>
      <trkpt lat="48.13329" lon="7.31396">
        <ele>214.60000610352</ele>
        <time>2021-05-23T08:19:52Z</time>
      </trkpt>
      <trkpt lat="48.13312" lon="7.31476">
        <ele>214</ele>
        <time>2021-05-23T08:19:59Z</time>
      </trkpt>
      <trkpt lat="48.13302" lon="7.31521">
        <ele>213.80000305176</ele>
        <time>2021-05-23T08:20:03Z</time>
      </trkpt>
      <trkpt lat="48.13293" lon="7.31567">
        <ele>213.60000610352</ele>
        <time>2021-05-23T08:20:07Z</time>
      </trkpt>
      <trkpt lat="48.13288" lon="7.31613">
        <ele>213</ele>
        <time>2021-05-23T08:20:11Z</time>
      </trkpt>
      <trkpt lat="48.13283" lon="7.31673">
        <ele>212.60000610352</ele>
        <time>2021-05-23T08:20:16Z</time>
      </trkpt>
      <trkpt lat="48.13281" lon="7.31719">
        <ele>212.19999694824</ele>
        <time>2021-05-23T08:20:20Z</time>
      </trkpt>
      <trkpt lat="48.13276" lon="7.31772">
        <ele>211.60000610352</ele>
        <time>2021-05-23T08:20:25Z</time>
      </trkpt>
      <trkpt lat="48.13274" lon="7.31779">
        <ele>211.60000610352</ele>
        <time>2021-05-23T08:20:26Z</time>
      </trkpt>
      <trkpt lat="48.13273" lon="7.31785">
        <ele>211.60000610352</ele>
        <time>2021-05-23T08:20:27Z</time>
      </trkpt>
      <trkpt lat="48.13272" lon="7.31789">
        <ele>211.60000610352</ele>
        <time>2021-05-23T08:20:28Z</time>
      </trkpt>
      <trkpt lat="48.13263" lon="7.31807">
        <ele>211.80000305176</ele>
        <time>2021-05-23T08:20:32Z</time>
      </trkpt>
      <trkpt lat="48.1326" lon="7.31813">
        <ele>211.80000305176</ele>
        <time>2021-05-23T08:20:33Z</time>
      </trkpt>
      <trkpt lat="48.13259" lon="7.31822">
        <ele>211.80000305176</ele>
        <time>2021-05-23T08:20:34Z</time>
      </trkpt>
      <trkpt lat="48.13261" lon="7.31839">
        <ele>211.80000305176</ele>
        <time>2021-05-23T08:20:36Z</time>
      </trkpt>
      <trkpt lat="48.1327" lon="7.31851">
        <ele>211.80000305176</ele>
        <time>2021-05-23T08:20:38Z</time>
      </trkpt>
      <trkpt lat="48.13277" lon="7.31853">
        <ele>211.60000610352</ele>
        <time>2021-05-23T08:20:39Z</time>
      </trkpt>
      <trkpt lat="48.13283" lon="7.31852">
        <ele>211.60000610352</ele>
        <time>2021-05-23T08:20:40Z</time>
      </trkpt>
      <trkpt lat="48.13301" lon="7.31846">
        <ele>211.39999389648</ele>
        <time>2021-05-23T08:20:43Z</time>
      </trkpt>
      <trkpt lat="48.13323" lon="7.31851">
        <ele>211.39999389648</ele>
        <time>2021-05-23T08:20:47Z</time>
      </trkpt>
      <trkpt lat="48.13377" lon="7.31875">
        <ele>211.39999389648</ele>
        <time>2021-05-23T08:20:56Z</time>
      </trkpt>
      <trkpt lat="48.13397" lon="7.31885">
        <ele>211.39999389648</ele>
        <time>2021-05-23T08:20:59Z</time>
      </trkpt>
      <trkpt lat="48.13417" lon="7.319">
        <ele>211.19999694824</ele>
        <time>2021-05-23T08:21:02Z</time>
      </trkpt>
      <trkpt lat="48.13429" lon="7.31913">
        <ele>211.19999694824</ele>
        <time>2021-05-23T08:21:04Z</time>
      </trkpt>
      <trkpt lat="48.13445" lon="7.31934">
        <ele>211</ele>
        <time>2021-05-23T08:21:07Z</time>
      </trkpt>
      <trkpt lat="48.13491" lon="7.31989">
        <ele>210.80000305176</ele>
        <time>2021-05-23T08:21:15Z</time>
      </trkpt>
      <trkpt lat="48.13497" lon="7.31996">
        <ele>210.80000305176</ele>
        <time>2021-05-23T08:21:16Z</time>
      </trkpt>
      <trkpt lat="48.13541" lon="7.32048">
        <ele>211</ele>
        <time>2021-05-23T08:21:24Z</time>
      </trkpt>
      <trkpt lat="48.13552" lon="7.32061">
        <ele>211.39999389648</ele>
        <time>2021-05-23T08:21:26Z</time>
      </trkpt>
      <trkpt lat="48.13598" lon="7.32119">
        <ele>212.60000610352</ele>
        <time>2021-05-23T08:21:35Z</time>
      </trkpt>
      <trkpt lat="48.13607" lon="7.32131">
        <ele>213</ele>
        <time>2021-05-23T08:21:37Z</time>
      </trkpt>
      <trkpt lat="48.13642" lon="7.32182">
        <ele>214</ele>
        <time>2021-05-23T08:21:45Z</time>
      </trkpt>
      <trkpt lat="48.13651" lon="7.32195">
        <ele>214.39999389648</ele>
        <time>2021-05-23T08:21:47Z</time>
      </trkpt>
      <trkpt lat="48.13675" lon="7.32225">
        <ele>215</ele>
        <time>2021-05-23T08:21:52Z</time>
      </trkpt>
      <trkpt lat="48.13686" lon="7.32236">
        <ele>215.39999389648</ele>
        <time>2021-05-23T08:21:54Z</time>
      </trkpt>
      <trkpt lat="48.13733" lon="7.32277">
        <ele>216</ele>
        <time>2021-05-23T08:22:02Z</time>
      </trkpt>
      <trkpt lat="48.13765" lon="7.32314">
        <ele>216</ele>
        <time>2021-05-23T08:22:08Z</time>
      </trkpt>
      <trkpt lat="48.13791" lon="7.32364">
        <ele>216</ele>
        <time>2021-05-23T08:22:14Z</time>
      </trkpt>
      <trkpt lat="48.13825" lon="7.32424">
        <ele>215.39999389648</ele>
        <time>2021-05-23T08:22:21Z</time>
      </trkpt>
      <trkpt lat="48.13871" lon="7.32472">
        <ele>214.80000305176</ele>
        <time>2021-05-23T08:22:28Z</time>
      </trkpt>
      <trkpt lat="48.13905" lon="7.32503">
        <ele>214</ele>
        <time>2021-05-23T08:22:33Z</time>
      </trkpt>
      <trkpt lat="48.13926" lon="7.32516">
        <ele>213.60000610352</ele>
        <time>2021-05-23T08:22:36Z</time>
      </trkpt>
      <trkpt lat="48.13959" lon="7.32534">
        <ele>213.60000610352</ele>
        <time>2021-05-23T08:22:41Z</time>
      </trkpt>
      <trkpt lat="48.13965" lon="7.32537">
        <ele>213.60000610352</ele>
        <time>2021-05-23T08:22:42Z</time>
      </trkpt>
      <trkpt lat="48.13978" lon="7.32538">
        <ele>213.60000610352</ele>
        <time>2021-05-23T08:22:44Z</time>
      </trkpt>
      <trkpt lat="48.13984" lon="7.32536">
        <ele>213.80000305176</ele>
        <time>2021-05-23T08:22:45Z</time>
      </trkpt>
      <trkpt lat="48.13991" lon="7.32533">
        <ele>213.80000305176</ele>
        <time>2021-05-23T08:22:46Z</time>
      </trkpt>
      <trkpt lat="48.14004" lon="7.32527">
        <ele>213.80000305176</ele>
        <time>2021-05-23T08:22:48Z</time>
      </trkpt>
      <trkpt lat="48.14017" lon="7.32524">
        <ele>213.80000305176</ele>
        <time>2021-05-23T08:22:50Z</time>
      </trkpt>
      <trkpt lat="48.14068" lon="7.32517">
        <ele>214.19999694824</ele>
        <time>2021-05-23T08:22:57Z</time>
      </trkpt>
      <trkpt lat="48.14119" lon="7.32508">
        <ele>213.80000305176</ele>
        <time>2021-05-23T08:23:04Z</time>
      </trkpt>
      <trkpt lat="48.1417" lon="7.32502">
        <ele>213.39999389648</ele>
        <time>2021-05-23T08:23:11Z</time>
      </trkpt>
      <trkpt lat="48.14177" lon="7.32501">
        <ele>213.39999389648</ele>
        <time>2021-05-23T08:23:12Z</time>
      </trkpt>
      <trkpt lat="48.14219" lon="7.32495">
        <ele>213.39999389648</ele>
        <time>2021-05-23T08:23:18Z</time>
      </trkpt>
      <trkpt lat="48.14265" lon="7.32487">
        <ele>213.39999389648</ele>
        <time>2021-05-23T08:23:25Z</time>
      </trkpt>
      <trkpt lat="48.14317" lon="7.3248">
        <ele>213.19999694824</ele>
        <time>2021-05-23T08:23:33Z</time>
      </trkpt>
      <trkpt lat="48.14336" lon="7.32476">
        <ele>213</ele>
        <time>2021-05-23T08:23:36Z</time>
      </trkpt>
      <trkpt lat="48.14342" lon="7.32474">
        <ele>213</ele>
        <time>2021-05-23T08:23:37Z</time>
      </trkpt>
      <trkpt lat="48.14354" lon="7.32473">
        <ele>212.80000305176</ele>
        <time>2021-05-23T08:23:39Z</time>
      </trkpt>
      <trkpt lat="48.14396" lon="7.32467">
        <ele>213.19999694824</ele>
        <time>2021-05-23T08:23:46Z</time>
      </trkpt>
      <trkpt lat="48.14446" lon="7.32448">
        <ele>214</ele>
        <time>2021-05-23T08:23:55Z</time>
      </trkpt>
      <trkpt lat="48.14451" lon="7.32445">
        <ele>214</ele>
        <time>2021-05-23T08:23:56Z</time>
      </trkpt>
      <trkpt lat="48.14477" lon="7.32432">
        <ele>214.39999389648</ele>
        <time>2021-05-23T08:24:01Z</time>
      </trkpt>
      <trkpt lat="48.14494" lon="7.32424">
        <ele>215.19999694824</ele>
        <time>2021-05-23T08:24:04Z</time>
      </trkpt>
      <trkpt lat="48.14529" lon="7.32403">
        <ele>215.80000305176</ele>
        <time>2021-05-23T08:24:11Z</time>
      </trkpt>
      <trkpt lat="48.14539" lon="7.32398">
        <ele>216.19999694824</ele>
        <time>2021-05-23T08:24:13Z</time>
      </trkpt>
      <trkpt lat="48.1456" lon="7.32387">
        <ele>217</ele>
        <time>2021-05-23T08:24:17Z</time>
      </trkpt>
      <trkpt lat="48.14565" lon="7.32384">
        <ele>217</ele>
        <time>2021-05-23T08:24:18Z</time>
      </trkpt>
      <trkpt lat="48.14576" lon="7.32379">
        <ele>217.39999389648</ele>
        <time>2021-05-23T08:24:20Z</time>
      </trkpt>
      <trkpt lat="48.14591" lon="7.3237">
        <ele>217.60000610352</ele>
        <time>2021-05-23T08:24:23Z</time>
      </trkpt>
      <trkpt lat="48.146" lon="7.32365">
        <ele>217.60000610352</ele>
        <time>2021-05-23T08:24:25Z</time>
      </trkpt>
      <trkpt lat="48.14629" lon="7.32348">
        <ele>218.39999389648</ele>
        <time>2021-05-23T08:24:31Z</time>
      </trkpt>
      <trkpt lat="48.14634" lon="7.32346">
        <ele>218.80000305176</ele>
        <time>2021-05-23T08:24:32Z</time>
      </trkpt>
      <trkpt lat="48.14643" lon="7.32341">
        <ele>219.39999389648</ele>
        <time>2021-05-23T08:24:34Z</time>
      </trkpt>
      <trkpt lat="48.14662" lon="7.32331">
        <ele>220.19999694824</ele>
        <time>2021-05-23T08:24:38Z</time>
      </trkpt>
      <trkpt lat="48.1468" lon="7.3232">
        <ele>220.39999389648</ele>
        <time>2021-05-23T08:24:42Z</time>
      </trkpt>
      <trkpt lat="48.14693" lon="7.32311">
        <ele>220.80000305176</ele>
        <time>2021-05-23T08:24:45Z</time>
      </trkpt>
      <trkpt lat="48.14716" lon="7.32295">
        <ele>221.80000305176</ele>
        <time>2021-05-23T08:24:50Z</time>
      </trkpt>
      <trkpt lat="48.14729" lon="7.32284">
        <ele>222.19999694824</ele>
        <time>2021-05-23T08:24:53Z</time>
      </trkpt>
      <trkpt lat="48.14765" lon="7.32256">
        <ele>222.80000305176</ele>
        <time>2021-05-23T08:25:01Z</time>
      </trkpt>
      <trkpt lat="48.14774" lon="7.32249">
        <ele>223.39999389648</ele>
        <time>2021-05-23T08:25:03Z</time>
      </trkpt>
      <trkpt lat="48.14787" lon="7.32239">
        <ele>224</ele>
        <time>2021-05-23T08:25:06Z</time>
      </trkpt>
      <trkpt lat="48.14816" lon="7.32215">
        <ele>225.19999694824</ele>
        <time>2021-05-23T08:25:13Z</time>
      </trkpt>
      <trkpt lat="48.14838" lon="7.32198">
        <ele>226.19999694824</ele>
        <time>2021-05-23T08:25:18Z</time>
      </trkpt>
      <trkpt lat="48.14855" lon="7.32186">
        <ele>226.80000305176</ele>
        <time>2021-05-23T08:25:22Z</time>
      </trkpt>
      <trkpt lat="48.14864" lon="7.32179">
        <ele>227.39999389648</ele>
        <time>2021-05-23T08:25:24Z</time>
      </trkpt>
      <trkpt lat="48.14883" lon="7.32162">
        <ele>228.39999389648</ele>
        <time>2021-05-23T08:25:29Z</time>
      </trkpt>
      <trkpt lat="48.14891" lon="7.32155">
        <ele>229</ele>
        <time>2021-05-23T08:25:31Z</time>
      </trkpt>
      <trkpt lat="48.14909" lon="7.32142">
        <ele>229.39999389648</ele>
        <time>2021-05-23T08:25:35Z</time>
      </trkpt>
      <trkpt lat="48.14936" lon="7.32124">
        <ele>230.60000610352</ele>
        <time>2021-05-23T08:25:41Z</time>
      </trkpt>
      <trkpt lat="48.14941" lon="7.32121">
        <ele>230.60000610352</ele>
        <time>2021-05-23T08:25:42Z</time>
      </trkpt>
      <trkpt lat="48.14961" lon="7.3211">
        <ele>230.80000305176</ele>
        <time>2021-05-23T08:25:46Z</time>
      </trkpt>
      <trkpt lat="48.14973" lon="7.32105">
        <ele>230.80000305176</ele>
        <time>2021-05-23T08:25:48Z</time>
      </trkpt>
      <trkpt lat="48.15003" lon="7.32089">
        <ele>230.39999389648</ele>
        <time>2021-05-23T08:25:53Z</time>
      </trkpt>
      <trkpt lat="48.1501" lon="7.32087">
        <ele>230.19999694824</ele>
        <time>2021-05-23T08:25:54Z</time>
      </trkpt>
      <trkpt lat="48.1503" lon="7.32081">
        <ele>229.60000610352</ele>
        <time>2021-05-23T08:25:57Z</time>
      </trkpt>
      <trkpt lat="48.15044" lon="7.32079">
        <ele>229.39999389648</ele>
        <time>2021-05-23T08:25:59Z</time>
      </trkpt>
      <trkpt lat="48.1505" lon="7.32079">
        <ele>229.39999389648</ele>
        <time>2021-05-23T08:26:00Z</time>
      </trkpt>
      <trkpt lat="48.15062" lon="7.32078">
        <ele>229.60000610352</ele>
        <time>2021-05-23T08:26:02Z</time>
      </trkpt>
      <trkpt lat="48.15087" lon="7.32083">
        <ele>230</ele>
        <time>2021-05-23T08:26:06Z</time>
      </trkpt>
      <trkpt lat="48.15104" lon="7.32087">
        <ele>230</ele>
        <time>2021-05-23T08:26:09Z</time>
      </trkpt>
      <trkpt lat="48.15122" lon="7.32091">
        <ele>230.19999694824</ele>
        <time>2021-05-23T08:26:12Z</time>
      </trkpt>
      <trkpt lat="48.15139" lon="7.32095">
        <ele>230.39999389648</ele>
        <time>2021-05-23T08:26:15Z</time>
      </trkpt>
      <trkpt lat="48.1515" lon="7.32098">
        <ele>230.80000305176</ele>
        <time>2021-05-23T08:26:17Z</time>
      </trkpt>
      <trkpt lat="48.15155" lon="7.32099">
        <ele>231</ele>
        <time>2021-05-23T08:26:18Z</time>
      </trkpt>
      <trkpt lat="48.15179" lon="7.32104">
        <ele>231.60000610352</ele>
        <time>2021-05-23T08:26:22Z</time>
      </trkpt>
      <trkpt lat="48.15212" lon="7.32108">
        <ele>232</ele>
        <time>2021-05-23T08:26:27Z</time>
      </trkpt>
      <trkpt lat="48.1526" lon="7.32102">
        <ele>231.60000610352</ele>
        <time>2021-05-23T08:26:34Z</time>
      </trkpt>
      <trkpt lat="48.15318" lon="7.32084">
        <ele>230.60000610352</ele>
        <time>2021-05-23T08:26:43Z</time>
      </trkpt>
      <trkpt lat="48.15331" lon="7.32079">
        <ele>230.39999389648</ele>
        <time>2021-05-23T08:26:45Z</time>
      </trkpt>
      <trkpt lat="48.15383" lon="7.32052">
        <ele>231.19999694824</ele>
        <time>2021-05-23T08:26:54Z</time>
      </trkpt>
      <trkpt lat="48.154" lon="7.32043">
        <ele>231.60000610352</ele>
        <time>2021-05-23T08:26:57Z</time>
      </trkpt>
      <trkpt lat="48.15416" lon="7.32035">
        <ele>232.60000610352</ele>
        <time>2021-05-23T08:27:00Z</time>
      </trkpt>
      <trkpt lat="48.15421" lon="7.32033">
        <ele>232.80000305176</ele>
        <time>2021-05-23T08:27:01Z</time>
      </trkpt>
      <trkpt lat="48.15462" lon="7.32015">
        <ele>234</ele>
        <time>2021-05-23T08:27:09Z</time>
      </trkpt>
      <trkpt lat="48.15507" lon="7.32004">
        <ele>235</ele>
        <time>2021-05-23T08:27:17Z</time>
      </trkpt>
      <trkpt lat="48.15519" lon="7.32001">
        <ele>235.19999694824</ele>
        <time>2021-05-23T08:27:19Z</time>
      </trkpt>
      <trkpt lat="48.15574" lon="7.31994">
        <ele>235.60000610352</ele>
        <time>2021-05-23T08:27:28Z</time>
      </trkpt>
      <trkpt lat="48.1558" lon="7.31994">
        <ele>235.60000610352</ele>
        <time>2021-05-23T08:27:29Z</time>
      </trkpt>
      <trkpt lat="48.15622" lon="7.31991">
        <ele>236</ele>
        <time>2021-05-23T08:27:36Z</time>
      </trkpt>
      <trkpt lat="48.15633" lon="7.31991">
        <ele>236.19999694824</ele>
        <time>2021-05-23T08:27:38Z</time>
      </trkpt>
      <trkpt lat="48.15659" lon="7.3199">
        <ele>237.19999694824</ele>
        <time>2021-05-23T08:27:43Z</time>
      </trkpt>
      <trkpt lat="48.1568" lon="7.31989">
        <ele>237.80000305176</ele>
        <time>2021-05-23T08:27:47Z</time>
      </trkpt>
      <trkpt lat="48.15691" lon="7.31989">
        <ele>238.19999694824</ele>
        <time>2021-05-23T08:27:49Z</time>
      </trkpt>
      <trkpt lat="48.15712" lon="7.31989">
        <ele>239.19999694824</ele>
        <time>2021-05-23T08:27:53Z</time>
      </trkpt>
      <trkpt lat="48.15733" lon="7.3199">
        <ele>239.39999389648</ele>
        <time>2021-05-23T08:27:57Z</time>
      </trkpt>
      <trkpt lat="48.15758" lon="7.31991">
        <ele>240.19999694824</ele>
        <time>2021-05-23T08:28:02Z</time>
      </trkpt>
      <trkpt lat="48.15778" lon="7.3199">
        <ele>241</ele>
        <time>2021-05-23T08:28:06Z</time>
      </trkpt>
      <trkpt lat="48.15788" lon="7.31988">
        <ele>241.39999389648</ele>
        <time>2021-05-23T08:28:08Z</time>
      </trkpt>
      <trkpt lat="48.15814" lon="7.31983">
        <ele>242.39999389648</ele>
        <time>2021-05-23T08:28:13Z</time>
      </trkpt>
      <trkpt lat="48.1582" lon="7.31981">
        <ele>242.80000305176</ele>
        <time>2021-05-23T08:28:14Z</time>
      </trkpt>
      <trkpt lat="48.15825" lon="7.31978">
        <ele>242.80000305176</ele>
        <time>2021-05-23T08:28:15Z</time>
      </trkpt>
      <trkpt lat="48.15873" lon="7.31945">
        <ele>243.39999389648</ele>
        <time>2021-05-23T08:28:24Z</time>
      </trkpt>
      <trkpt lat="48.15915" lon="7.31899">
        <ele>243.19999694824</ele>
        <time>2021-05-23T08:28:33Z</time>
      </trkpt>
      <trkpt lat="48.15919" lon="7.31896">
        <ele>243.19999694824</ele>
        <time>2021-05-23T08:28:34Z</time>
      </trkpt>
      <trkpt lat="48.1593" lon="7.31892">
        <ele>243.19999694824</ele>
        <time>2021-05-23T08:28:36Z</time>
      </trkpt>
      <trkpt lat="48.15936" lon="7.31892">
        <ele>243.19999694824</ele>
        <time>2021-05-23T08:28:37Z</time>
      </trkpt>
      <trkpt lat="48.15955" lon="7.31895">
        <ele>243.19999694824</ele>
        <time>2021-05-23T08:28:41Z</time>
      </trkpt>
      <trkpt lat="48.15959" lon="7.31895">
        <ele>243.19999694824</ele>
        <time>2021-05-23T08:28:42Z</time>
      </trkpt>
      <trkpt lat="48.15972" lon="7.31885">
        <ele>243.60000610352</ele>
        <time>2021-05-23T08:28:46Z</time>
      </trkpt>
      <trkpt lat="48.15974" lon="7.31881">
        <ele>243.60000610352</ele>
        <time>2021-05-23T08:28:47Z</time>
      </trkpt>
      <trkpt lat="48.15977" lon="7.31876">
        <ele>243.60000610352</ele>
        <time>2021-05-23T08:28:48Z</time>
      </trkpt>
      <trkpt lat="48.15981" lon="7.3186">
        <ele>244</ele>
        <time>2021-05-23T08:28:51Z</time>
      </trkpt>
      <trkpt lat="48.1598" lon="7.31834">
        <ele>244.39999389648</ele>
        <time>2021-05-23T08:28:55Z</time>
      </trkpt>
      <trkpt lat="48.15978" lon="7.31828">
        <ele>244.39999389648</ele>
        <time>2021-05-23T08:28:56Z</time>
      </trkpt>
      <trkpt lat="48.15975" lon="7.31823">
        <ele>244.39999389648</ele>
        <time>2021-05-23T08:28:57Z</time>
      </trkpt>
      <trkpt lat="48.15967" lon="7.31813">
        <ele>244.60000610352</ele>
        <time>2021-05-23T08:28:59Z</time>
      </trkpt>
      <trkpt lat="48.15963" lon="7.31808">
        <ele>244.60000610352</ele>
        <time>2021-05-23T08:29:00Z</time>
      </trkpt>
      <trkpt lat="48.15956" lon="7.31795">
        <ele>244.80000305176</ele>
        <time>2021-05-23T08:29:02Z</time>
      </trkpt>
      <trkpt lat="48.15953" lon="7.31781">
        <ele>245.39999389648</ele>
        <time>2021-05-23T08:29:04Z</time>
      </trkpt>
      <trkpt lat="48.15951" lon="7.31766">
        <ele>245.60000610352</ele>
        <time>2021-05-23T08:29:06Z</time>
      </trkpt>
      <trkpt lat="48.1595" lon="7.31739">
        <ele>246.19999694824</ele>
        <time>2021-05-23T08:29:10Z</time>
      </trkpt>
      <trkpt lat="48.15951" lon="7.31733">
        <ele>246.39999389648</ele>
        <time>2021-05-23T08:29:11Z</time>
      </trkpt>
      <trkpt lat="48.15952" lon="7.3172">
        <ele>246.60000610352</ele>
        <time>2021-05-23T08:29:13Z</time>
      </trkpt>
      <trkpt lat="48.15955" lon="7.31692">
        <ele>247.80000305176</ele>
        <time>2021-05-23T08:29:18Z</time>
      </trkpt>
      <trkpt lat="48.15955" lon="7.31686">
        <ele>248</ele>
        <time>2021-05-23T08:29:19Z</time>
      </trkpt>
      <trkpt lat="48.15959" lon="7.31664">
        <ele>249</ele>
        <time>2021-05-23T08:29:23Z</time>
      </trkpt>
      <trkpt lat="48.15962" lon="7.31638">
        <ele>250.39999389648</ele>
        <time>2021-05-23T08:29:28Z</time>
      </trkpt>
      <trkpt lat="48.15964" lon="7.31621">
        <ele>251</ele>
        <time>2021-05-23T08:29:31Z</time>
      </trkpt>
      <trkpt lat="48.15967" lon="7.31604">
        <ele>251.39999389648</ele>
        <time>2021-05-23T08:29:34Z</time>
      </trkpt>
      <trkpt lat="48.1597" lon="7.31569">
        <ele>252</ele>
        <time>2021-05-23T08:29:40Z</time>
      </trkpt>
      <trkpt lat="48.15972" lon="7.31551">
        <ele>252.60000610352</ele>
        <time>2021-05-23T08:29:43Z</time>
      </trkpt>
      <trkpt lat="48.15977" lon="7.31512">
        <ele>253.80000305176</ele>
        <time>2021-05-23T08:29:50Z</time>
      </trkpt>
      <trkpt lat="48.1598" lon="7.31489">
        <ele>254.80000305176</ele>
        <time>2021-05-23T08:29:54Z</time>
      </trkpt>
      <trkpt lat="48.1598" lon="7.31455">
        <ele>256.20001220703</ele>
        <time>2021-05-23T08:30:00Z</time>
      </trkpt>
      <trkpt lat="48.15981" lon="7.31422">
        <ele>257.20001220703</ele>
        <time>2021-05-23T08:30:06Z</time>
      </trkpt>
      <trkpt lat="48.15982" lon="7.31395">
        <ele>257.79998779297</ele>
        <time>2021-05-23T08:30:11Z</time>
      </trkpt>
      <trkpt lat="48.15982" lon="7.31385">
        <ele>258.60000610352</ele>
        <time>2021-05-23T08:30:13Z</time>
      </trkpt>
      <trkpt lat="48.15984" lon="7.31369">
        <ele>259.60000610352</ele>
        <time>2021-05-23T08:30:16Z</time>
      </trkpt>
      <trkpt lat="48.15986" lon="7.31347">
        <ele>260.60000610352</ele>
        <time>2021-05-23T08:30:20Z</time>
      </trkpt>
      <trkpt lat="48.15987" lon="7.31341">
        <ele>260.79998779297</ele>
        <time>2021-05-23T08:30:21Z</time>
      </trkpt>
      <trkpt lat="48.15991" lon="7.31303">
        <ele>262</ele>
        <time>2021-05-23T08:30:28Z</time>
      </trkpt>
      <trkpt lat="48.15993" lon="7.31286">
        <ele>262.39999389648</ele>
        <time>2021-05-23T08:30:31Z</time>
      </trkpt>
      <trkpt lat="48.15996" lon="7.31269">
        <ele>263.20001220703</ele>
        <time>2021-05-23T08:30:34Z</time>
      </trkpt>
      <trkpt lat="48.16002" lon="7.31243">
        <ele>264</ele>
        <time>2021-05-23T08:30:39Z</time>
      </trkpt>
      <trkpt lat="48.16003" lon="7.31238">
        <ele>264.39999389648</ele>
        <time>2021-05-23T08:30:40Z</time>
      </trkpt>
      <trkpt lat="48.16013" lon="7.31208">
        <ele>265.39999389648</ele>
        <time>2021-05-23T08:30:46Z</time>
      </trkpt>
      <trkpt lat="48.16017" lon="7.31198">
        <ele>265.79998779297</ele>
        <time>2021-05-23T08:30:48Z</time>
      </trkpt>
      <trkpt lat="48.16021" lon="7.31187">
        <ele>266.39999389648</ele>
        <time>2021-05-23T08:30:50Z</time>
      </trkpt>
      <trkpt lat="48.16033" lon="7.31155">
        <ele>267.39999389648</ele>
        <time>2021-05-23T08:30:56Z</time>
      </trkpt>
      <trkpt lat="48.16038" lon="7.31145">
        <ele>268</ele>
        <time>2021-05-23T08:30:58Z</time>
      </trkpt>
      <trkpt lat="48.1605" lon="7.31114">
        <ele>268.79998779297</ele>
        <time>2021-05-23T08:31:04Z</time>
      </trkpt>
      <trkpt lat="48.16064" lon="7.31077">
        <ele>269.79998779297</ele>
        <time>2021-05-23T08:31:11Z</time>
      </trkpt>
      <trkpt lat="48.16073" lon="7.31059">
        <ele>271</ele>
        <time>2021-05-23T08:31:15Z</time>
      </trkpt>
      <trkpt lat="48.16087" lon="7.31037">
        <ele>272.20001220703</ele>
        <time>2021-05-23T08:31:20Z</time>
      </trkpt>
      <trkpt lat="48.161" lon="7.31013">
        <ele>273.20001220703</ele>
        <time>2021-05-23T08:31:25Z</time>
      </trkpt>
      <trkpt lat="48.16109" lon="7.31">
        <ele>273.79998779297</ele>
        <time>2021-05-23T08:31:28Z</time>
      </trkpt>
      <trkpt lat="48.1612" lon="7.30986">
        <ele>274.60000610352</ele>
        <time>2021-05-23T08:31:32Z</time>
      </trkpt>
      <trkpt lat="48.16141" lon="7.30963">
        <ele>275.39999389648</ele>
        <time>2021-05-23T08:31:38Z</time>
      </trkpt>
      <trkpt lat="48.16144" lon="7.30959">
        <ele>275.79998779297</ele>
        <time>2021-05-23T08:31:39Z</time>
      </trkpt>
      <trkpt lat="48.16172" lon="7.30929">
        <ele>276.60000610352</ele>
        <time>2021-05-23T08:31:47Z</time>
      </trkpt>
      <trkpt lat="48.16183" lon="7.30918">
        <ele>276.79998779297</ele>
        <time>2021-05-23T08:31:50Z</time>
      </trkpt>
      <trkpt lat="48.16211" lon="7.30886">
        <ele>278</ele>
        <time>2021-05-23T08:31:58Z</time>
      </trkpt>
      <trkpt lat="48.16235" lon="7.30854">
        <ele>279</ele>
        <time>2021-05-23T08:32:05Z</time>
      </trkpt>
      <trkpt lat="48.16247" lon="7.30838">
        <ele>279.20001220703</ele>
        <time>2021-05-23T08:32:08Z</time>
      </trkpt>
      <trkpt lat="48.16271" lon="7.30804">
        <ele>280.20001220703</ele>
        <time>2021-05-23T08:32:15Z</time>
      </trkpt>
      <trkpt lat="48.16278" lon="7.30794">
        <ele>280.39999389648</ele>
        <time>2021-05-23T08:32:17Z</time>
      </trkpt>
      <trkpt lat="48.16303" lon="7.30763">
        <ele>280.79998779297</ele>
        <time>2021-05-23T08:32:24Z</time>
      </trkpt>
      <trkpt lat="48.1631" lon="7.30754">
        <ele>281</ele>
        <time>2021-05-23T08:32:26Z</time>
      </trkpt>
      <trkpt lat="48.16333" lon="7.30716">
        <ele>281</ele>
        <time>2021-05-23T08:32:33Z</time>
      </trkpt>
      <trkpt lat="48.16346" lon="7.30692">
        <ele>281.39999389648</ele>
        <time>2021-05-23T08:32:37Z</time>
      </trkpt>
      <trkpt lat="48.16362" lon="7.30663">
        <ele>282</ele>
        <time>2021-05-23T08:32:42Z</time>
      </trkpt>
      <trkpt lat="48.16404" lon="7.30601">
        <ele>282.20001220703</ele>
        <time>2021-05-23T08:32:53Z</time>
      </trkpt>
      <trkpt lat="48.16442" lon="7.30551">
        <ele>281.39999389648</ele>
        <time>2021-05-23T08:33:02Z</time>
      </trkpt>
      <trkpt lat="48.16479" lon="7.30504">
        <ele>281.60000610352</ele>
        <time>2021-05-23T08:33:11Z</time>
      </trkpt>
      <trkpt lat="48.16513" lon="7.30466">
        <ele>282.20001220703</ele>
        <time>2021-05-23T08:33:19Z</time>
      </trkpt>
      <trkpt lat="48.16526" lon="7.30455">
        <ele>282.39999389648</ele>
        <time>2021-05-23T08:33:22Z</time>
      </trkpt>
      <trkpt lat="48.16553" lon="7.30438">
        <ele>282.39999389648</ele>
        <time>2021-05-23T08:33:28Z</time>
      </trkpt>
      <trkpt lat="48.16568" lon="7.30433">
        <ele>283</ele>
        <time>2021-05-23T08:33:31Z</time>
      </trkpt>
      <trkpt lat="48.16583" lon="7.30434">
        <ele>283.39999389648</ele>
        <time>2021-05-23T08:33:34Z</time>
      </trkpt>
      <trkpt lat="48.16592" lon="7.30438">
        <ele>283.39999389648</ele>
        <time>2021-05-23T08:33:36Z</time>
      </trkpt>
      <trkpt lat="48.16603" lon="7.30435">
        <ele>283.60000610352</ele>
        <time>2021-05-23T08:33:38Z</time>
      </trkpt>
      <trkpt lat="48.16608" lon="7.30423">
        <ele>283.79998779297</ele>
        <time>2021-05-23T08:33:40Z</time>
      </trkpt>
      <trkpt lat="48.16607" lon="7.3041">
        <ele>283.60000610352</ele>
        <time>2021-05-23T08:33:42Z</time>
      </trkpt>
      <trkpt lat="48.16606" lon="7.30403">
        <ele>283.60000610352</ele>
        <time>2021-05-23T08:33:43Z</time>
      </trkpt>
      <trkpt lat="48.16604" lon="7.30397">
        <ele>283.79998779297</ele>
        <time>2021-05-23T08:33:44Z</time>
      </trkpt>
      <trkpt lat="48.16603" lon="7.30379">
        <ele>284</ele>
        <time>2021-05-23T08:33:47Z</time>
      </trkpt>
      <trkpt lat="48.16604" lon="7.30357">
        <ele>284.79998779297</ele>
        <time>2021-05-23T08:33:51Z</time>
      </trkpt>
      <trkpt lat="48.16603" lon="7.30351">
        <ele>285.20001220703</ele>
        <time>2021-05-23T08:33:53Z</time>
      </trkpt>
      <trkpt lat="48.16604" lon="7.30325">
        <ele>286</ele>
        <time>2021-05-23T08:34:00Z</time>
      </trkpt>
      <trkpt lat="48.16605" lon="7.30285">
        <ele>286.60000610352</ele>
        <time>2021-05-23T08:34:10Z</time>
      </trkpt>
      <trkpt lat="48.16605" lon="7.30278">
        <ele>286.79998779297</ele>
        <time>2021-05-23T08:34:12Z</time>
      </trkpt>
      <trkpt lat="48.16606" lon="7.30266">
        <ele>287</ele>
        <time>2021-05-23T08:34:14Z</time>
      </trkpt>
      <trkpt lat="48.16605" lon="7.30258">
        <ele>287.39999389648</ele>
        <time>2021-05-23T08:34:17Z</time>
      </trkpt>
      <trkpt lat="48.16604" lon="7.30258">
        <ele>287.39999389648</ele>
        <time>2021-05-23T08:34:18Z</time>
      </trkpt>
      <trkpt lat="48.16603" lon="7.30277">
        <ele>287.60000610352</ele>
        <time>2021-05-23T08:34:22Z</time>
      </trkpt>
      <trkpt lat="48.16601" lon="7.30317">
        <ele>287</ele>
        <time>2021-05-23T08:34:28Z</time>
      </trkpt>
      <trkpt lat="48.166" lon="7.30334">
        <ele>286.79998779297</ele>
        <time>2021-05-23T08:34:31Z</time>
      </trkpt>
      <trkpt lat="48.16598" lon="7.30345">
        <ele>286.60000610352</ele>
        <time>2021-05-23T08:34:33Z</time>
      </trkpt>
      <trkpt lat="48.16595" lon="7.30367">
        <ele>285.79998779297</ele>
        <time>2021-05-23T08:34:37Z</time>
      </trkpt>
      <trkpt lat="48.16594" lon="7.30375">
        <ele>285.60000610352</ele>
        <time>2021-05-23T08:34:39Z</time>
      </trkpt>
      <trkpt lat="48.16593" lon="7.30379">
        <ele>285.39999389648</ele>
        <time>2021-05-23T08:34:40Z</time>
      </trkpt>
      <trkpt lat="48.16593" lon="7.30382">
        <ele>285.39999389648</ele>
        <time>2021-05-23T08:34:42Z</time>
      </trkpt>
      <trkpt lat="48.16593" lon="7.30383">
        <ele>285.20001220703</ele>
        <time>2021-05-23T08:34:44Z</time>
      </trkpt>
      <trkpt lat="48.16595" lon="7.30384">
        <ele>284</ele>
        <time>2021-05-23T08:35:41Z</time>
      </trkpt>
      <trkpt lat="48.16599" lon="7.30379">
        <ele>284</ele>
        <time>2021-05-23T08:35:43Z</time>
      </trkpt>
      <trkpt lat="48.166" lon="7.30361">
        <ele>284</ele>
        <time>2021-05-23T08:35:46Z</time>
      </trkpt>
      <trkpt lat="48.166" lon="7.30355">
        <ele>284</ele>
        <time>2021-05-23T08:35:47Z</time>
      </trkpt>
      <trkpt lat="48.166" lon="7.30341">
        <ele>284.20001220703</ele>
        <time>2021-05-23T08:35:49Z</time>
      </trkpt>
      <trkpt lat="48.166" lon="7.30334">
        <ele>284.39999389648</ele>
        <time>2021-05-23T08:35:50Z</time>
      </trkpt>
      <trkpt lat="48.16603" lon="7.30298">
        <ele>285.20001220703</ele>
        <time>2021-05-23T08:35:55Z</time>
      </trkpt>
      <trkpt lat="48.16605" lon="7.30269">
        <ele>286.39999389648</ele>
        <time>2021-05-23T08:35:59Z</time>
      </trkpt>
      <trkpt lat="48.16605" lon="7.30262">
        <ele>286.60000610352</ele>
        <time>2021-05-23T08:36:00Z</time>
      </trkpt>
      <trkpt lat="48.16606" lon="7.30227">
        <ele>287.20001220703</ele>
        <time>2021-05-23T08:36:05Z</time>
      </trkpt>
      <trkpt lat="48.16606" lon="7.3022">
        <ele>287.39999389648</ele>
        <time>2021-05-23T08:36:06Z</time>
      </trkpt>
      <trkpt lat="48.16607" lon="7.30213">
        <ele>287.60000610352</ele>
        <time>2021-05-23T08:36:07Z</time>
      </trkpt>
      <trkpt lat="48.1661" lon="7.30183">
        <ele>288.39999389648</ele>
        <time>2021-05-23T08:36:12Z</time>
      </trkpt>
      <trkpt lat="48.16611" lon="7.3018">
        <ele>288.60000610352</ele>
        <time>2021-05-23T08:36:13Z</time>
      </trkpt>
      <trkpt lat="48.16612" lon="7.30177">
        <ele>288.79998779297</ele>
        <time>2021-05-23T08:36:14Z</time>
      </trkpt>
      <trkpt lat="48.16612" lon="7.30176">
        <ele>289.20001220703</ele>
        <time>2021-05-23T08:36:16Z</time>
      </trkpt>
      <trkpt lat="48.16618" lon="7.3018">
        <ele>289.20001220703</ele>
        <time>2021-05-23T08:37:01Z</time>
      </trkpt>
      <trkpt lat="48.16621" lon="7.3018">
        <ele>289.20001220703</ele>
        <time>2021-05-23T08:37:03Z</time>
      </trkpt>
      <trkpt lat="48.16621" lon="7.3018">
        <ele>289.20001220703</ele>
        <time>2021-05-23T08:37:05Z</time>
      </trkpt>
      <trkpt lat="48.16612" lon="7.30171">
        <ele>289.39999389648</ele>
        <time>2021-05-23T08:41:21Z</time>
      </trkpt>
      <trkpt lat="48.1661" lon="7.30175">
        <ele>289.39999389648</ele>
        <time>2021-05-23T08:41:22Z</time>
      </trkpt>
      <trkpt lat="48.16609" lon="7.30179">
        <ele>289.39999389648</ele>
        <time>2021-05-23T08:41:23Z</time>
      </trkpt>
      <trkpt lat="48.16606" lon="7.30199">
        <ele>289</ele>
        <time>2021-05-23T08:41:26Z</time>
      </trkpt>
      <trkpt lat="48.16604" lon="7.30247">
        <ele>288.60000610352</ele>
        <time>2021-05-23T08:41:32Z</time>
      </trkpt>
      <trkpt lat="48.166" lon="7.30319">
        <ele>287.60000610352</ele>
        <time>2021-05-23T08:41:40Z</time>
      </trkpt>
      <trkpt lat="48.16599" lon="7.30328">
        <ele>287.39999389648</ele>
        <time>2021-05-23T08:41:41Z</time>
      </trkpt>
      <trkpt lat="48.16594" lon="7.30383">
        <ele>286.79998779297</ele>
        <time>2021-05-23T08:41:47Z</time>
      </trkpt>
      <trkpt lat="48.16592" lon="7.3039">
        <ele>286.39999389648</ele>
        <time>2021-05-23T08:41:48Z</time>
      </trkpt>
      <trkpt lat="48.1659" lon="7.30398">
        <ele>286.20001220703</ele>
        <time>2021-05-23T08:41:49Z</time>
      </trkpt>
      <trkpt lat="48.16584" lon="7.30411">
        <ele>285.79998779297</ele>
        <time>2021-05-23T08:41:51Z</time>
      </trkpt>
      <trkpt lat="48.16583" lon="7.30419">
        <ele>285.60000610352</ele>
        <time>2021-05-23T08:41:52Z</time>
      </trkpt>
      <trkpt lat="48.16584" lon="7.30427">
        <ele>285.39999389648</ele>
        <time>2021-05-23T08:41:53Z</time>
      </trkpt>
      <trkpt lat="48.16587" lon="7.30434">
        <ele>285.39999389648</ele>
        <time>2021-05-23T08:41:54Z</time>
      </trkpt>
      <trkpt lat="48.16592" lon="7.30438">
        <ele>285.20001220703</ele>
        <time>2021-05-23T08:41:55Z</time>
      </trkpt>
      <trkpt lat="48.16604" lon="7.30444">
        <ele>285.20001220703</ele>
        <time>2021-05-23T08:41:57Z</time>
      </trkpt>
      <trkpt lat="48.16614" lon="7.30458">
        <ele>285</ele>
        <time>2021-05-23T08:41:59Z</time>
      </trkpt>
      <trkpt lat="48.1662" lon="7.30488">
        <ele>284.20001220703</ele>
        <time>2021-05-23T08:42:02Z</time>
      </trkpt>
      <trkpt lat="48.16621" lon="7.30498">
        <ele>284</ele>
        <time>2021-05-23T08:42:03Z</time>
      </trkpt>
      <trkpt lat="48.16624" lon="7.30529">
        <ele>283.20001220703</ele>
        <time>2021-05-23T08:42:06Z</time>
      </trkpt>
      <trkpt lat="48.16625" lon="7.30562">
        <ele>282</ele>
        <time>2021-05-23T08:42:09Z</time>
      </trkpt>
      <trkpt lat="48.16627" lon="7.30637">
        <ele>281.39999389648</ele>
        <time>2021-05-23T08:42:16Z</time>
      </trkpt>
      <trkpt lat="48.16629" lon="7.30657">
        <ele>281</ele>
        <time>2021-05-23T08:42:18Z</time>
      </trkpt>
      <trkpt lat="48.16633" lon="7.30676">
        <ele>281</ele>
        <time>2021-05-23T08:42:20Z</time>
      </trkpt>
      <trkpt lat="48.16636" lon="7.30684">
        <ele>280.79998779297</ele>
        <time>2021-05-23T08:42:21Z</time>
      </trkpt>
      <trkpt lat="48.16643" lon="7.307">
        <ele>280.60000610352</ele>
        <time>2021-05-23T08:42:23Z</time>
      </trkpt>
      <trkpt lat="48.16651" lon="7.30713">
        <ele>280.39999389648</ele>
        <time>2021-05-23T08:42:25Z</time>
      </trkpt>
      <trkpt lat="48.16684" lon="7.30751">
        <ele>280.60000610352</ele>
        <time>2021-05-23T08:42:32Z</time>
      </trkpt>
      <trkpt lat="48.16705" lon="7.3078">
        <ele>281.39999389648</ele>
        <time>2021-05-23T08:42:37Z</time>
      </trkpt>
      <trkpt lat="48.1672" lon="7.30798">
        <ele>281.60000610352</ele>
        <time>2021-05-23T08:42:41Z</time>
      </trkpt>
      <trkpt lat="48.16722" lon="7.30803">
        <ele>281.60000610352</ele>
        <time>2021-05-23T08:42:42Z</time>
      </trkpt>
      <trkpt lat="48.16725" lon="7.30808">
        <ele>281.60000610352</ele>
        <time>2021-05-23T08:42:43Z</time>
      </trkpt>
      <trkpt lat="48.16737" lon="7.30829">
        <ele>281.39999389648</ele>
        <time>2021-05-23T08:42:47Z</time>
      </trkpt>
      <trkpt lat="48.16753" lon="7.30865">
        <ele>281</ele>
        <time>2021-05-23T08:42:53Z</time>
      </trkpt>
      <trkpt lat="48.16755" lon="7.30873">
        <ele>281</ele>
        <time>2021-05-23T08:42:54Z</time>
      </trkpt>
      <trkpt lat="48.1677" lon="7.30934">
        <ele>280.20001220703</ele>
        <time>2021-05-23T08:43:01Z</time>
      </trkpt>
      <trkpt lat="48.16774" lon="7.30953">
        <ele>280</ele>
        <time>2021-05-23T08:43:03Z</time>
      </trkpt>
      <trkpt lat="48.16777" lon="7.30971">
        <ele>279</ele>
        <time>2021-05-23T08:43:05Z</time>
      </trkpt>
      <trkpt lat="48.16781" lon="7.30989">
        <ele>278.79998779297</ele>
        <time>2021-05-23T08:43:07Z</time>
      </trkpt>
      <trkpt lat="48.16787" lon="7.31061">
        <ele>278.60000610352</ele>
        <time>2021-05-23T08:43:14Z</time>
      </trkpt>
      <trkpt lat="48.16785" lon="7.31143">
        <ele>278.39999389648</ele>
        <time>2021-05-23T08:43:22Z</time>
      </trkpt>
      <trkpt lat="48.16785" lon="7.31172">
        <ele>278.60000610352</ele>
        <time>2021-05-23T08:43:25Z</time>
      </trkpt>
      <trkpt lat="48.16792" lon="7.31241">
        <ele>279.60000610352</ele>
        <time>2021-05-23T08:43:32Z</time>
      </trkpt>
      <trkpt lat="48.16805" lon="7.31321">
        <ele>278.79998779297</ele>
        <time>2021-05-23T08:43:39Z</time>
      </trkpt>
      <trkpt lat="48.16812" lon="7.31382">
        <ele>277.39999389648</ele>
        <time>2021-05-23T08:43:44Z</time>
      </trkpt>
      <trkpt lat="48.16813" lon="7.31392">
        <ele>277</ele>
        <time>2021-05-23T08:43:45Z</time>
      </trkpt>
      <trkpt lat="48.16812" lon="7.31406">
        <ele>276.39999389648</ele>
        <time>2021-05-23T08:43:47Z</time>
      </trkpt>
      <trkpt lat="48.16811" lon="7.3141">
        <ele>276.20001220703</ele>
        <time>2021-05-23T08:43:48Z</time>
      </trkpt>
      <trkpt lat="48.1681" lon="7.31417">
        <ele>275.79998779297</ele>
        <time>2021-05-23T08:43:51Z</time>
      </trkpt>
      <trkpt lat="48.1681" lon="7.31418">
        <ele>275.79998779297</ele>
        <time>2021-05-23T08:43:52Z</time>
      </trkpt>
      <trkpt lat="48.16811" lon="7.31435">
        <ele>275.60000610352</ele>
        <time>2021-05-23T08:43:57Z</time>
      </trkpt>
      <trkpt lat="48.16818" lon="7.31445">
        <ele>275.60000610352</ele>
        <time>2021-05-23T08:43:59Z</time>
      </trkpt>
      <trkpt lat="48.16822" lon="7.31449">
        <ele>275.60000610352</ele>
        <time>2021-05-23T08:44:00Z</time>
      </trkpt>
      <trkpt lat="48.16849" lon="7.31479">
        <ele>275.39999389648</ele>
        <time>2021-05-23T08:44:06Z</time>
      </trkpt>
      <trkpt lat="48.16871" lon="7.31505">
        <ele>275.79998779297</ele>
        <time>2021-05-23T08:44:11Z</time>
      </trkpt>
      <trkpt lat="48.16881" lon="7.31514">
        <ele>276</ele>
        <time>2021-05-23T08:44:13Z</time>
      </trkpt>
      <trkpt lat="48.16916" lon="7.31558">
        <ele>277.39999389648</ele>
        <time>2021-05-23T08:44:21Z</time>
      </trkpt>
      <trkpt lat="48.16932" lon="7.31583">
        <ele>277.60000610352</ele>
        <time>2021-05-23T08:44:25Z</time>
      </trkpt>
      <trkpt lat="48.16942" lon="7.31605">
        <ele>278</ele>
        <time>2021-05-23T08:44:28Z</time>
      </trkpt>
      <trkpt lat="48.16971" lon="7.31671">
        <ele>278</ele>
        <time>2021-05-23T08:44:36Z</time>
      </trkpt>
      <trkpt lat="48.17003" lon="7.31738">
        <ele>277.39999389648</ele>
        <time>2021-05-23T08:44:44Z</time>
      </trkpt>
      <trkpt lat="48.17028" lon="7.31787">
        <ele>277.20001220703</ele>
        <time>2021-05-23T08:44:50Z</time>
      </trkpt>
      <trkpt lat="48.17031" lon="7.31796">
        <ele>277</ele>
        <time>2021-05-23T08:44:51Z</time>
      </trkpt>
      <trkpt lat="48.17053" lon="7.31847">
        <ele>276.79998779297</ele>
        <time>2021-05-23T08:44:57Z</time>
      </trkpt>
      <trkpt lat="48.17056" lon="7.31856">
        <ele>276.60000610352</ele>
        <time>2021-05-23T08:44:58Z</time>
      </trkpt>
      <trkpt lat="48.17082" lon="7.31922">
        <ele>276.39999389648</ele>
        <time>2021-05-23T08:45:05Z</time>
      </trkpt>
      <trkpt lat="48.17109" lon="7.31978">
        <ele>276.39999389648</ele>
        <time>2021-05-23T08:45:12Z</time>
      </trkpt>
      <trkpt lat="48.17141" lon="7.32043">
        <ele>276.60000610352</ele>
        <time>2021-05-23T08:45:20Z</time>
      </trkpt>
      <trkpt lat="48.17173" lon="7.32106">
        <ele>276.79998779297</ele>
        <time>2021-05-23T08:45:28Z</time>
      </trkpt>
      <trkpt lat="48.17188" lon="7.32127">
        <ele>277</ele>
        <time>2021-05-23T08:45:31Z</time>
      </trkpt>
      <trkpt lat="48.17198" lon="7.32138">
        <ele>277</ele>
        <time>2021-05-23T08:45:33Z</time>
      </trkpt>
      <trkpt lat="48.17211" lon="7.32148">
        <ele>277.39999389648</ele>
        <time>2021-05-23T08:45:35Z</time>
      </trkpt>
      <trkpt lat="48.17217" lon="7.32152">
        <ele>277.60000610352</ele>
        <time>2021-05-23T08:45:36Z</time>
      </trkpt>
      <trkpt lat="48.17228" lon="7.32157">
        <ele>277.79998779297</ele>
        <time>2021-05-23T08:45:38Z</time>
      </trkpt>
      <trkpt lat="48.17263" lon="7.32173">
        <ele>278.60000610352</ele>
        <time>2021-05-23T08:45:44Z</time>
      </trkpt>
      <trkpt lat="48.17286" lon="7.32181">
        <ele>279.39999389648</ele>
        <time>2021-05-23T08:45:48Z</time>
      </trkpt>
      <trkpt lat="48.17309" lon="7.3219">
        <ele>279.79998779297</ele>
        <time>2021-05-23T08:45:52Z</time>
      </trkpt>
      <trkpt lat="48.17334" lon="7.32199">
        <ele>280.60000610352</ele>
        <time>2021-05-23T08:45:56Z</time>
      </trkpt>
      <trkpt lat="48.17347" lon="7.32203">
        <ele>280.79998779297</ele>
        <time>2021-05-23T08:45:58Z</time>
      </trkpt>
      <trkpt lat="48.1736" lon="7.32208">
        <ele>281.20001220703</ele>
        <time>2021-05-23T08:46:00Z</time>
      </trkpt>
      <trkpt lat="48.17381" lon="7.32218">
        <ele>281.39999389648</ele>
        <time>2021-05-23T08:46:03Z</time>
      </trkpt>
      <trkpt lat="48.17426" lon="7.32249">
        <ele>280.60000610352</ele>
        <time>2021-05-23T08:46:09Z</time>
      </trkpt>
      <trkpt lat="48.17457" lon="7.32277">
        <ele>279.60000610352</ele>
        <time>2021-05-23T08:46:13Z</time>
      </trkpt>
      <trkpt lat="48.17473" lon="7.3229">
        <ele>279.39999389648</ele>
        <time>2021-05-23T08:46:15Z</time>
      </trkpt>
      <trkpt lat="48.17483" lon="7.32296">
        <ele>279.20001220703</ele>
        <time>2021-05-23T08:46:16Z</time>
      </trkpt>
      <trkpt lat="48.17502" lon="7.32305">
        <ele>278.39999389648</ele>
        <time>2021-05-23T08:46:18Z</time>
      </trkpt>
      <trkpt lat="48.17512" lon="7.32309">
        <ele>278.20001220703</ele>
        <time>2021-05-23T08:46:19Z</time>
      </trkpt>
      <trkpt lat="48.17533" lon="7.32317">
        <ele>277.39999389648</ele>
        <time>2021-05-23T08:46:21Z</time>
      </trkpt>
      <trkpt lat="48.17567" lon="7.32328">
        <ele>275.39999389648</ele>
        <time>2021-05-23T08:46:24Z</time>
      </trkpt>
      <trkpt lat="48.17579" lon="7.32332">
        <ele>274</ele>
        <time>2021-05-23T08:46:25Z</time>
      </trkpt>
      <trkpt lat="48.17603" lon="7.32341">
        <ele>273</ele>
        <time>2021-05-23T08:46:27Z</time>
      </trkpt>
      <trkpt lat="48.17628" lon="7.32351">
        <ele>271.60000610352</ele>
        <time>2021-05-23T08:46:29Z</time>
      </trkpt>
      <trkpt lat="48.17641" lon="7.32356">
        <ele>271.20001220703</ele>
        <time>2021-05-23T08:46:30Z</time>
      </trkpt>
      <trkpt lat="48.17654" lon="7.32361">
        <ele>270</ele>
        <time>2021-05-23T08:46:31Z</time>
      </trkpt>
      <trkpt lat="48.17667" lon="7.32366">
        <ele>269</ele>
        <time>2021-05-23T08:46:32Z</time>
      </trkpt>
      <trkpt lat="48.17692" lon="7.32377">
        <ele>266.60000610352</ele>
        <time>2021-05-23T08:46:34Z</time>
      </trkpt>
      <trkpt lat="48.17718" lon="7.32389">
        <ele>264.20001220703</ele>
        <time>2021-05-23T08:46:36Z</time>
      </trkpt>
      <trkpt lat="48.17745" lon="7.324">
        <ele>263</ele>
        <time>2021-05-23T08:46:38Z</time>
      </trkpt>
      <trkpt lat="48.17761" lon="7.32407">
        <ele>261.60000610352</ele>
        <time>2021-05-23T08:46:39Z</time>
      </trkpt>
      <trkpt lat="48.17785" lon="7.32415">
        <ele>260.60000610352</ele>
        <time>2021-05-23T08:46:41Z</time>
      </trkpt>
      <trkpt lat="48.17813" lon="7.32422">
        <ele>258.79998779297</ele>
        <time>2021-05-23T08:46:43Z</time>
      </trkpt>
      <trkpt lat="48.17841" lon="7.32426">
        <ele>256.79998779297</ele>
        <time>2021-05-23T08:46:45Z</time>
      </trkpt>
      <trkpt lat="48.17869" lon="7.32427">
        <ele>255</ele>
        <time>2021-05-23T08:46:47Z</time>
      </trkpt>
      <trkpt lat="48.17884" lon="7.32426">
        <ele>253.19999694824</ele>
        <time>2021-05-23T08:46:48Z</time>
      </trkpt>
      <trkpt lat="48.17913" lon="7.32423">
        <ele>252</ele>
        <time>2021-05-23T08:46:50Z</time>
      </trkpt>
      <trkpt lat="48.17942" lon="7.3242">
        <ele>250</ele>
        <time>2021-05-23T08:46:52Z</time>
      </trkpt>
      <trkpt lat="48.17956" lon="7.32418">
        <ele>248.80000305176</ele>
        <time>2021-05-23T08:46:53Z</time>
      </trkpt>
      <trkpt lat="48.17986" lon="7.32414">
        <ele>247.39999389648</ele>
        <time>2021-05-23T08:46:55Z</time>
      </trkpt>
      <trkpt lat="48.18015" lon="7.3241">
        <ele>245.19999694824</ele>
        <time>2021-05-23T08:46:57Z</time>
      </trkpt>
      <trkpt lat="48.18029" lon="7.32407">
        <ele>244.19999694824</ele>
        <time>2021-05-23T08:46:58Z</time>
      </trkpt>
      <trkpt lat="48.18043" lon="7.32404">
        <ele>243.19999694824</ele>
        <time>2021-05-23T08:46:59Z</time>
      </trkpt>
      <trkpt lat="48.18069" lon="7.32395">
        <ele>241.60000610352</ele>
        <time>2021-05-23T08:47:01Z</time>
      </trkpt>
      <trkpt lat="48.18082" lon="7.32389">
        <ele>240.60000610352</ele>
        <time>2021-05-23T08:47:02Z</time>
      </trkpt>
      <trkpt lat="48.18094" lon="7.32384">
        <ele>240.19999694824</ele>
        <time>2021-05-23T08:47:03Z</time>
      </trkpt>
      <trkpt lat="48.18138" lon="7.32362">
        <ele>239.80000305176</ele>
        <time>2021-05-23T08:47:07Z</time>
      </trkpt>
      <trkpt lat="48.18177" lon="7.32352">
        <ele>240</ele>
        <time>2021-05-23T08:47:11Z</time>
      </trkpt>
      <trkpt lat="48.18211" lon="7.32353">
        <ele>240.60000610352</ele>
        <time>2021-05-23T08:47:15Z</time>
      </trkpt>
      <trkpt lat="48.18234" lon="7.32359">
        <ele>241.60000610352</ele>
        <time>2021-05-23T08:47:18Z</time>
      </trkpt>
      <trkpt lat="48.18255" lon="7.32369">
        <ele>242.80000305176</ele>
        <time>2021-05-23T08:47:21Z</time>
      </trkpt>
      <trkpt lat="48.18274" lon="7.32381">
        <ele>243.80000305176</ele>
        <time>2021-05-23T08:47:24Z</time>
      </trkpt>
      <trkpt lat="48.18292" lon="7.32393">
        <ele>245</ele>
        <time>2021-05-23T08:47:27Z</time>
      </trkpt>
      <trkpt lat="48.18322" lon="7.32411">
        <ele>246.19999694824</ele>
        <time>2021-05-23T08:47:32Z</time>
      </trkpt>
      <trkpt lat="48.1834" lon="7.32419">
        <ele>246.60000610352</ele>
        <time>2021-05-23T08:47:35Z</time>
      </trkpt>
      <trkpt lat="48.18356" lon="7.32426">
        <ele>247.19999694824</ele>
        <time>2021-05-23T08:47:38Z</time>
      </trkpt>
      <trkpt lat="48.18365" lon="7.3243">
        <ele>247.60000610352</ele>
        <time>2021-05-23T08:47:40Z</time>
      </trkpt>
      <trkpt lat="48.18385" lon="7.3244">
        <ele>248.39999389648</ele>
        <time>2021-05-23T08:47:44Z</time>
      </trkpt>
      <trkpt lat="48.18409" lon="7.32451">
        <ele>249</ele>
        <time>2021-05-23T08:47:49Z</time>
      </trkpt>
      <trkpt lat="48.18419" lon="7.32455">
        <ele>249.39999389648</ele>
        <time>2021-05-23T08:47:51Z</time>
      </trkpt>
      <trkpt lat="48.18462" lon="7.32475">
        <ele>250.39999389648</ele>
        <time>2021-05-23T08:48:00Z</time>
      </trkpt>
      <trkpt lat="48.18497" lon="7.32488">
        <ele>251.60000610352</ele>
        <time>2021-05-23T08:48:07Z</time>
      </trkpt>
      <trkpt lat="48.18513" lon="7.32492">
        <ele>252.19999694824</ele>
        <time>2021-05-23T08:48:10Z</time>
      </trkpt>
      <trkpt lat="48.18535" lon="7.32498">
        <ele>252.80000305176</ele>
        <time>2021-05-23T08:48:14Z</time>
      </trkpt>
      <trkpt lat="48.18558" lon="7.32502">
        <ele>253.39999389648</ele>
        <time>2021-05-23T08:48:18Z</time>
      </trkpt>
      <trkpt lat="48.18574" lon="7.32504">
        <ele>253.80000305176</ele>
        <time>2021-05-23T08:48:21Z</time>
      </trkpt>
      <trkpt lat="48.18606" lon="7.32508">
        <ele>254.19999694824</ele>
        <time>2021-05-23T08:48:26Z</time>
      </trkpt>
      <trkpt lat="48.18618" lon="7.3251">
        <ele>254.19999694824</ele>
        <time>2021-05-23T08:48:28Z</time>
      </trkpt>
      <trkpt lat="48.18643" lon="7.32516">
        <ele>254.39999389648</ele>
        <time>2021-05-23T08:48:32Z</time>
      </trkpt>
      <trkpt lat="48.1867" lon="7.32515">
        <ele>254.19999694824</ele>
        <time>2021-05-23T08:48:36Z</time>
      </trkpt>
      <trkpt lat="48.18677" lon="7.32516">
        <ele>254.19999694824</ele>
        <time>2021-05-23T08:48:37Z</time>
      </trkpt>
      <trkpt lat="48.18724" lon="7.32519">
        <ele>254.19999694824</ele>
        <time>2021-05-23T08:48:44Z</time>
      </trkpt>
      <trkpt lat="48.18771" lon="7.32524">
        <ele>254.19999694824</ele>
        <time>2021-05-23T08:48:51Z</time>
      </trkpt>
      <trkpt lat="48.18817" lon="7.3252">
        <ele>254.60000610352</ele>
        <time>2021-05-23T08:48:58Z</time>
      </trkpt>
      <trkpt lat="48.1883" lon="7.32515">
        <ele>254.80000305176</ele>
        <time>2021-05-23T08:49:00Z</time>
      </trkpt>
      <trkpt lat="48.18862" lon="7.32506">
        <ele>255.60000610352</ele>
        <time>2021-05-23T08:49:05Z</time>
      </trkpt>
      <trkpt lat="48.189" lon="7.32499">
        <ele>256</ele>
        <time>2021-05-23T08:49:11Z</time>
      </trkpt>
      <trkpt lat="48.18937" lon="7.32496">
        <ele>256</ele>
        <time>2021-05-23T08:49:17Z</time>
      </trkpt>
      <trkpt lat="48.18998" lon="7.32504">
        <ele>256.20001220703</ele>
        <time>2021-05-23T08:49:26Z</time>
      </trkpt>
      <trkpt lat="48.19047" lon="7.32512">
        <ele>255.39999389648</ele>
        <time>2021-05-23T08:49:33Z</time>
      </trkpt>
      <trkpt lat="48.19061" lon="7.32512">
        <ele>255.19999694824</ele>
        <time>2021-05-23T08:49:35Z</time>
      </trkpt>
      <trkpt lat="48.19075" lon="7.32511">
        <ele>255</ele>
        <time>2021-05-23T08:49:37Z</time>
      </trkpt>
      <trkpt lat="48.19082" lon="7.32509">
        <ele>254.80000305176</ele>
        <time>2021-05-23T08:49:38Z</time>
      </trkpt>
      <trkpt lat="48.19105" lon="7.32503">
        <ele>254.60000610352</ele>
        <time>2021-05-23T08:49:41Z</time>
      </trkpt>
      <trkpt lat="48.1912" lon="7.32496">
        <ele>254.60000610352</ele>
        <time>2021-05-23T08:49:43Z</time>
      </trkpt>
      <trkpt lat="48.19143" lon="7.32486">
        <ele>254.19999694824</ele>
        <time>2021-05-23T08:49:46Z</time>
      </trkpt>
      <trkpt lat="48.19156" lon="7.3248">
        <ele>253.80000305176</ele>
        <time>2021-05-23T08:49:48Z</time>
      </trkpt>
      <trkpt lat="48.19163" lon="7.32479">
        <ele>253</ele>
        <time>2021-05-23T08:49:49Z</time>
      </trkpt>
      <trkpt lat="48.19171" lon="7.32477">
        <ele>252.80000305176</ele>
        <time>2021-05-23T08:49:50Z</time>
      </trkpt>
      <trkpt lat="48.192" lon="7.3247">
        <ele>251.19999694824</ele>
        <time>2021-05-23T08:49:54Z</time>
      </trkpt>
      <trkpt lat="48.19207" lon="7.32469">
        <ele>250.80000305176</ele>
        <time>2021-05-23T08:49:55Z</time>
      </trkpt>
      <trkpt lat="48.19219" lon="7.32469">
        <ele>250.39999389648</ele>
        <time>2021-05-23T08:49:57Z</time>
      </trkpt>
      <trkpt lat="48.19227" lon="7.32474">
        <ele>250.19999694824</ele>
        <time>2021-05-23T08:49:59Z</time>
      </trkpt>
      <trkpt lat="48.19233" lon="7.32483">
        <ele>250</ele>
        <time>2021-05-23T08:50:01Z</time>
      </trkpt>
      <trkpt lat="48.19237" lon="7.32493">
        <ele>250</ele>
        <time>2021-05-23T08:50:03Z</time>
      </trkpt>
      <trkpt lat="48.19246" lon="7.32502">
        <ele>250</ele>
        <time>2021-05-23T08:50:06Z</time>
      </trkpt>
      <trkpt lat="48.1926" lon="7.32495">
        <ele>250</ele>
        <time>2021-05-23T08:50:10Z</time>
      </trkpt>
      <trkpt lat="48.19283" lon="7.32467">
        <ele>250.39999389648</ele>
        <time>2021-05-23T08:50:17Z</time>
      </trkpt>
      <trkpt lat="48.19289" lon="7.32463">
        <ele>250.60000610352</ele>
        <time>2021-05-23T08:50:19Z</time>
      </trkpt>
      <trkpt lat="48.19307" lon="7.32461">
        <ele>251.19999694824</ele>
        <time>2021-05-23T08:50:24Z</time>
      </trkpt>
      <trkpt lat="48.19337" lon="7.3247">
        <ele>251.19999694824</ele>
        <time>2021-05-23T08:50:31Z</time>
      </trkpt>
      <trkpt lat="48.19377" lon="7.32483">
        <ele>251.19999694824</ele>
        <time>2021-05-23T08:50:38Z</time>
      </trkpt>
      <trkpt lat="48.19416" lon="7.32503">
        <ele>250.80000305176</ele>
        <time>2021-05-23T08:50:45Z</time>
      </trkpt>
      <trkpt lat="48.19421" lon="7.32507">
        <ele>250.80000305176</ele>
        <time>2021-05-23T08:50:46Z</time>
      </trkpt>
      <trkpt lat="48.19425" lon="7.32512">
        <ele>250.80000305176</ele>
        <time>2021-05-23T08:50:47Z</time>
      </trkpt>
      <trkpt lat="48.19429" lon="7.32518">
        <ele>250.60000610352</ele>
        <time>2021-05-23T08:50:48Z</time>
      </trkpt>
      <trkpt lat="48.19432" lon="7.32525">
        <ele>250.60000610352</ele>
        <time>2021-05-23T08:50:49Z</time>
      </trkpt>
      <trkpt lat="48.19434" lon="7.32533">
        <ele>250.60000610352</ele>
        <time>2021-05-23T08:50:50Z</time>
      </trkpt>
      <trkpt lat="48.19442" lon="7.32568">
        <ele>251.19999694824</ele>
        <time>2021-05-23T08:50:54Z</time>
      </trkpt>
      <trkpt lat="48.19447" lon="7.32597">
        <ele>250.80000305176</ele>
        <time>2021-05-23T08:50:57Z</time>
      </trkpt>
      <trkpt lat="48.19452" lon="7.32671">
        <ele>250.19999694824</ele>
        <time>2021-05-23T08:51:04Z</time>
      </trkpt>
      <trkpt lat="48.19452" lon="7.32694">
        <ele>250</ele>
        <time>2021-05-23T08:51:06Z</time>
      </trkpt>
      <trkpt lat="48.19454" lon="7.32752">
        <ele>248.39999389648</ele>
        <time>2021-05-23T08:51:11Z</time>
      </trkpt>
      <trkpt lat="48.19454" lon="7.32776">
        <ele>247.60000610352</ele>
        <time>2021-05-23T08:51:13Z</time>
      </trkpt>
      <trkpt lat="48.19455" lon="7.32799">
        <ele>247.19999694824</ele>
        <time>2021-05-23T08:51:15Z</time>
      </trkpt>
      <trkpt lat="48.1946" lon="7.3286">
        <ele>246.39999389648</ele>
        <time>2021-05-23T08:51:20Z</time>
      </trkpt>
      <trkpt lat="48.19463" lon="7.32884">
        <ele>246.19999694824</ele>
        <time>2021-05-23T08:51:22Z</time>
      </trkpt>
      <trkpt lat="48.19473" lon="7.32955">
        <ele>245.80000305176</ele>
        <time>2021-05-23T08:51:28Z</time>
      </trkpt>
      <trkpt lat="48.19495" lon="7.33027">
        <ele>245.60000610352</ele>
        <time>2021-05-23T08:51:35Z</time>
      </trkpt>
      <trkpt lat="48.19525" lon="7.33089">
        <ele>245.60000610352</ele>
        <time>2021-05-23T08:51:42Z</time>
      </trkpt>
      <trkpt lat="48.19558" lon="7.33142">
        <ele>245.60000610352</ele>
        <time>2021-05-23T08:51:49Z</time>
      </trkpt>
      <trkpt lat="48.19563" lon="7.3315">
        <ele>245.80000305176</ele>
        <time>2021-05-23T08:51:50Z</time>
      </trkpt>
      <trkpt lat="48.19591" lon="7.33198">
        <ele>245.60000610352</ele>
        <time>2021-05-23T08:51:56Z</time>
      </trkpt>
      <trkpt lat="48.19604" lon="7.33226">
        <ele>245.60000610352</ele>
        <time>2021-05-23T08:51:59Z</time>
      </trkpt>
      <trkpt lat="48.19614" lon="7.33246">
        <ele>245.39999389648</ele>
        <time>2021-05-23T08:52:01Z</time>
      </trkpt>
      <trkpt lat="48.19619" lon="7.33256">
        <ele>245</ele>
        <time>2021-05-23T08:52:02Z</time>
      </trkpt>
      <trkpt lat="48.19639" lon="7.33285">
        <ele>244</ele>
        <time>2021-05-23T08:52:05Z</time>
      </trkpt>
      <trkpt lat="48.19653" lon="7.33303">
        <ele>243.60000610352</ele>
        <time>2021-05-23T08:52:07Z</time>
      </trkpt>
      <trkpt lat="48.19661" lon="7.33312">
        <ele>243</ele>
        <time>2021-05-23T08:52:08Z</time>
      </trkpt>
      <trkpt lat="48.19684" lon="7.33339">
        <ele>242</ele>
        <time>2021-05-23T08:52:11Z</time>
      </trkpt>
      <trkpt lat="48.19699" lon="7.33358">
        <ele>241.39999389648</ele>
        <time>2021-05-23T08:52:13Z</time>
      </trkpt>
      <trkpt lat="48.19715" lon="7.33377">
        <ele>240.60000610352</ele>
        <time>2021-05-23T08:52:15Z</time>
      </trkpt>
      <trkpt lat="48.19747" lon="7.33415">
        <ele>239.60000610352</ele>
        <time>2021-05-23T08:52:19Z</time>
      </trkpt>
      <trkpt lat="48.19753" lon="7.33423">
        <ele>239.19999694824</ele>
        <time>2021-05-23T08:52:20Z</time>
      </trkpt>
      <trkpt lat="48.19766" lon="7.33443">
        <ele>238.39999389648</ele>
        <time>2021-05-23T08:52:22Z</time>
      </trkpt>
      <trkpt lat="48.19772" lon="7.33454">
        <ele>238.19999694824</ele>
        <time>2021-05-23T08:52:23Z</time>
      </trkpt>
      <trkpt lat="48.19777" lon="7.33465">
        <ele>237.80000305176</ele>
        <time>2021-05-23T08:52:24Z</time>
      </trkpt>
      <trkpt lat="48.19781" lon="7.33476">
        <ele>237.60000610352</ele>
        <time>2021-05-23T08:52:25Z</time>
      </trkpt>
      <trkpt lat="48.19792" lon="7.33511">
        <ele>237.60000610352</ele>
        <time>2021-05-23T08:52:28Z</time>
      </trkpt>
      <trkpt lat="48.19803" lon="7.33567">
        <ele>237.60000610352</ele>
        <time>2021-05-23T08:52:33Z</time>
      </trkpt>
      <trkpt lat="48.19817" lon="7.33616">
        <ele>239</ele>
        <time>2021-05-23T08:52:38Z</time>
      </trkpt>
      <trkpt lat="48.19821" lon="7.33625">
        <ele>239.19999694824</ele>
        <time>2021-05-23T08:52:39Z</time>
      </trkpt>
      <trkpt lat="48.19846" lon="7.3368">
        <ele>239.60000610352</ele>
        <time>2021-05-23T08:52:45Z</time>
      </trkpt>
      <trkpt lat="48.19859" lon="7.33705">
        <ele>239.80000305176</ele>
        <time>2021-05-23T08:52:48Z</time>
      </trkpt>
      <trkpt lat="48.19886" lon="7.33749">
        <ele>240.19999694824</ele>
        <time>2021-05-23T08:52:54Z</time>
      </trkpt>
      <trkpt lat="48.19908" lon="7.33769">
        <ele>240.60000610352</ele>
        <time>2021-05-23T08:52:58Z</time>
      </trkpt>
      <trkpt lat="48.19914" lon="7.33773">
        <ele>240.80000305176</ele>
        <time>2021-05-23T08:52:59Z</time>
      </trkpt>
      <trkpt lat="48.19939" lon="7.33792">
        <ele>241.80000305176</ele>
        <time>2021-05-23T08:53:04Z</time>
      </trkpt>
      <trkpt lat="48.19954" lon="7.33805">
        <ele>242.19999694824</ele>
        <time>2021-05-23T08:53:07Z</time>
      </trkpt>
      <trkpt lat="48.19963" lon="7.33814">
        <ele>243.19999694824</ele>
        <time>2021-05-23T08:53:09Z</time>
      </trkpt>
      <trkpt lat="48.19981" lon="7.33842">
        <ele>244.39999389648</ele>
        <time>2021-05-23T08:53:14Z</time>
      </trkpt>
      <trkpt lat="48.1999" lon="7.33862">
        <ele>245.39999389648</ele>
        <time>2021-05-23T08:53:17Z</time>
      </trkpt>
      <trkpt lat="48.2" lon="7.3389">
        <ele>246.19999694824</ele>
        <time>2021-05-23T08:53:21Z</time>
      </trkpt>
      <trkpt lat="48.20003" lon="7.33897">
        <ele>246.39999389648</ele>
        <time>2021-05-23T08:53:22Z</time>
      </trkpt>
      <trkpt lat="48.20009" lon="7.3391">
        <ele>246.80000305176</ele>
        <time>2021-05-23T08:53:24Z</time>
      </trkpt>
      <trkpt lat="48.20019" lon="7.33929">
        <ele>247.60000610352</ele>
        <time>2021-05-23T08:53:27Z</time>
      </trkpt>
      <trkpt lat="48.20022" lon="7.33935">
        <ele>247.80000305176</ele>
        <time>2021-05-23T08:53:28Z</time>
      </trkpt>
      <trkpt lat="48.20034" lon="7.33952">
        <ele>248.80000305176</ele>
        <time>2021-05-23T08:53:31Z</time>
      </trkpt>
      <trkpt lat="48.2006" lon="7.33986">
        <ele>249.60000610352</ele>
        <time>2021-05-23T08:53:37Z</time>
      </trkpt>
      <trkpt lat="48.20069" lon="7.33998">
        <ele>249.80000305176</ele>
        <time>2021-05-23T08:53:39Z</time>
      </trkpt>
      <trkpt lat="48.20092" lon="7.34028">
        <ele>250</ele>
        <time>2021-05-23T08:53:44Z</time>
      </trkpt>
      <trkpt lat="48.20117" lon="7.34071">
        <ele>250.19999694824</ele>
        <time>2021-05-23T08:53:50Z</time>
      </trkpt>
      <trkpt lat="48.2013" lon="7.34118">
        <ele>250.19999694824</ele>
        <time>2021-05-23T08:53:55Z</time>
      </trkpt>
      <trkpt lat="48.20138" lon="7.34195">
        <ele>250</ele>
        <time>2021-05-23T08:54:02Z</time>
      </trkpt>
      <trkpt lat="48.20139" lon="7.34207">
        <ele>249.80000305176</ele>
        <time>2021-05-23T08:54:03Z</time>
      </trkpt>
      <trkpt lat="48.20144" lon="7.34294">
        <ele>248.80000305176</ele>
        <time>2021-05-23T08:54:10Z</time>
      </trkpt>
      <trkpt lat="48.20144" lon="7.34306">
        <ele>248.60000610352</ele>
        <time>2021-05-23T08:54:11Z</time>
      </trkpt>
      <trkpt lat="48.20147" lon="7.34388">
        <ele>247.80000305176</ele>
        <time>2021-05-23T08:54:18Z</time>
      </trkpt>
      <trkpt lat="48.20148" lon="7.3441">
        <ele>248.19999694824</ele>
        <time>2021-05-23T08:54:20Z</time>
      </trkpt>
      <trkpt lat="48.20157" lon="7.34463">
        <ele>248.80000305176</ele>
        <time>2021-05-23T08:54:25Z</time>
      </trkpt>
      <trkpt lat="48.20178" lon="7.34518">
        <ele>249.60000610352</ele>
        <time>2021-05-23T08:54:31Z</time>
      </trkpt>
      <trkpt lat="48.20181" lon="7.34527">
        <ele>249.80000305176</ele>
        <time>2021-05-23T08:54:32Z</time>
      </trkpt>
      <trkpt lat="48.202" lon="7.34592">
        <ele>251</ele>
        <time>2021-05-23T08:54:39Z</time>
      </trkpt>
      <trkpt lat="48.2023" lon="7.34669">
        <ele>251.80000305176</ele>
        <time>2021-05-23T08:54:47Z</time>
      </trkpt>
      <trkpt lat="48.20266" lon="7.34737">
        <ele>251.39999389648</ele>
        <time>2021-05-23T08:54:54Z</time>
      </trkpt>
      <trkpt lat="48.20303" lon="7.34782">
        <ele>250.39999389648</ele>
        <time>2021-05-23T08:54:59Z</time>
      </trkpt>
      <trkpt lat="48.20312" lon="7.34791">
        <ele>250</ele>
        <time>2021-05-23T08:55:00Z</time>
      </trkpt>
      <trkpt lat="48.2034" lon="7.34818">
        <ele>248.60000610352</ele>
        <time>2021-05-23T08:55:03Z</time>
      </trkpt>
      <trkpt lat="48.20357" lon="7.34839">
        <ele>247.39999389648</ele>
        <time>2021-05-23T08:55:05Z</time>
      </trkpt>
      <trkpt lat="48.20373" lon="7.34865">
        <ele>245.60000610352</ele>
        <time>2021-05-23T08:55:07Z</time>
      </trkpt>
      <trkpt lat="48.20388" lon="7.34896">
        <ele>243.80000305176</ele>
        <time>2021-05-23T08:55:09Z</time>
      </trkpt>
      <trkpt lat="48.20399" lon="7.34929">
        <ele>242.60000610352</ele>
        <time>2021-05-23T08:55:11Z</time>
      </trkpt>
      <trkpt lat="48.20408" lon="7.34963">
        <ele>241</ele>
        <time>2021-05-23T08:55:13Z</time>
      </trkpt>
      <trkpt lat="48.2042" lon="7.34996">
        <ele>239.80000305176</ele>
        <time>2021-05-23T08:55:15Z</time>
      </trkpt>
      <trkpt lat="48.20427" lon="7.35011">
        <ele>239.39999389648</ele>
        <time>2021-05-23T08:55:16Z</time>
      </trkpt>
      <trkpt lat="48.20443" lon="7.35038">
        <ele>238.39999389648</ele>
        <time>2021-05-23T08:55:18Z</time>
      </trkpt>
      <trkpt lat="48.20466" lon="7.35081">
        <ele>237</ele>
        <time>2021-05-23T08:55:21Z</time>
      </trkpt>
      <trkpt lat="48.20475" lon="7.35115">
        <ele>235.80000305176</ele>
        <time>2021-05-23T08:55:23Z</time>
      </trkpt>
      <trkpt lat="48.20479" lon="7.35132">
        <ele>235.60000610352</ele>
        <time>2021-05-23T08:55:24Z</time>
      </trkpt>
      <trkpt lat="48.2048" lon="7.35151">
        <ele>235</ele>
        <time>2021-05-23T08:55:25Z</time>
      </trkpt>
      <trkpt lat="48.20481" lon="7.35169">
        <ele>234.80000305176</ele>
        <time>2021-05-23T08:55:26Z</time>
      </trkpt>
      <trkpt lat="48.20482" lon="7.35188">
        <ele>234.39999389648</ele>
        <time>2021-05-23T08:55:27Z</time>
      </trkpt>
      <trkpt lat="48.20482" lon="7.35206">
        <ele>233.60000610352</ele>
        <time>2021-05-23T08:55:28Z</time>
      </trkpt>
      <trkpt lat="48.20482" lon="7.35243">
        <ele>232.39999389648</ele>
        <time>2021-05-23T08:55:30Z</time>
      </trkpt>
      <trkpt lat="48.20483" lon="7.35297">
        <ele>231</ele>
        <time>2021-05-23T08:55:33Z</time>
      </trkpt>
      <trkpt lat="48.20484" lon="7.35315">
        <ele>230.60000610352</ele>
        <time>2021-05-23T08:55:34Z</time>
      </trkpt>
      <trkpt lat="48.20487" lon="7.3535">
        <ele>230</ele>
        <time>2021-05-23T08:55:36Z</time>
      </trkpt>
      <trkpt lat="48.2049" lon="7.35366">
        <ele>229.60000610352</ele>
        <time>2021-05-23T08:55:37Z</time>
      </trkpt>
      <trkpt lat="48.20494" lon="7.35382">
        <ele>229.60000610352</ele>
        <time>2021-05-23T08:55:38Z</time>
      </trkpt>
      <trkpt lat="48.2051" lon="7.35425">
        <ele>228.39999389648</ele>
        <time>2021-05-23T08:55:41Z</time>
      </trkpt>
      <trkpt lat="48.20515" lon="7.3544">
        <ele>228.39999389648</ele>
        <time>2021-05-23T08:55:42Z</time>
      </trkpt>
      <trkpt lat="48.2052" lon="7.3547">
        <ele>227.80000305176</ele>
        <time>2021-05-23T08:55:44Z</time>
      </trkpt>
      <trkpt lat="48.20519" lon="7.35486">
        <ele>227.80000305176</ele>
        <time>2021-05-23T08:55:45Z</time>
      </trkpt>
      <trkpt lat="48.20514" lon="7.35516">
        <ele>227.39999389648</ele>
        <time>2021-05-23T08:55:47Z</time>
      </trkpt>
      <trkpt lat="48.2051" lon="7.35546">
        <ele>226.60000610352</ele>
        <time>2021-05-23T08:55:49Z</time>
      </trkpt>
      <trkpt lat="48.20508" lon="7.3556">
        <ele>226.19999694824</ele>
        <time>2021-05-23T08:55:50Z</time>
      </trkpt>
      <trkpt lat="48.20504" lon="7.35632">
        <ele>225.80000305176</ele>
        <time>2021-05-23T08:55:55Z</time>
      </trkpt>
      <trkpt lat="48.20508" lon="7.35672">
        <ele>225.39999389648</ele>
        <time>2021-05-23T08:55:58Z</time>
      </trkpt>
      <trkpt lat="48.20511" lon="7.35684">
        <ele>225.39999389648</ele>
        <time>2021-05-23T08:55:59Z</time>
      </trkpt>
      <trkpt lat="48.20515" lon="7.35694">
        <ele>225.19999694824</ele>
        <time>2021-05-23T08:56:00Z</time>
      </trkpt>
      <trkpt lat="48.20525" lon="7.35713">
        <ele>224.80000305176</ele>
        <time>2021-05-23T08:56:02Z</time>
      </trkpt>
      <trkpt lat="48.20555" lon="7.35752">
        <ele>224.60000610352</ele>
        <time>2021-05-23T08:56:07Z</time>
      </trkpt>
      <trkpt lat="48.20572" lon="7.35775">
        <ele>224.80000305176</ele>
        <time>2021-05-23T08:56:11Z</time>
      </trkpt>
      <trkpt lat="48.2058" lon="7.35788">
        <ele>224.60000610352</ele>
        <time>2021-05-23T08:56:13Z</time>
      </trkpt>
      <trkpt lat="48.20591" lon="7.35793">
        <ele>224.39999389648</ele>
        <time>2021-05-23T08:56:15Z</time>
      </trkpt>
      <trkpt lat="48.20596" lon="7.3579">
        <ele>224.39999389648</ele>
        <time>2021-05-23T08:56:16Z</time>
      </trkpt>
      <trkpt lat="48.20598" lon="7.35785">
        <ele>224.39999389648</ele>
        <time>2021-05-23T08:56:17Z</time>
      </trkpt>
      <trkpt lat="48.20594" lon="7.35765">
        <ele>224.19999694824</ele>
        <time>2021-05-23T08:56:20Z</time>
      </trkpt>
      <trkpt lat="48.20591" lon="7.35749">
        <ele>224.19999694824</ele>
        <time>2021-05-23T08:56:22Z</time>
      </trkpt>
      <trkpt lat="48.2059" lon="7.35741">
        <ele>224.19999694824</ele>
        <time>2021-05-23T08:56:23Z</time>
      </trkpt>
      <trkpt lat="48.2059" lon="7.35732">
        <ele>224.19999694824</ele>
        <time>2021-05-23T08:56:24Z</time>
      </trkpt>
      <trkpt lat="48.20591" lon="7.35723">
        <ele>224.19999694824</ele>
        <time>2021-05-23T08:56:25Z</time>
      </trkpt>
      <trkpt lat="48.20601" lon="7.35682">
        <ele>224.39999389648</ele>
        <time>2021-05-23T08:56:30Z</time>
      </trkpt>
      <trkpt lat="48.20603" lon="7.35675">
        <ele>224.39999389648</ele>
        <time>2021-05-23T08:56:31Z</time>
      </trkpt>
      <trkpt lat="48.20613" lon="7.35645">
        <ele>225</ele>
        <time>2021-05-23T08:56:36Z</time>
      </trkpt>
      <trkpt lat="48.20614" lon="7.35641">
        <ele>225.19999694824</ele>
        <time>2021-05-23T08:56:37Z</time>
      </trkpt>
      <trkpt lat="48.20616" lon="7.35639">
        <ele>225.39999389648</ele>
        <time>2021-05-23T08:56:39Z</time>
      </trkpt>
      <trkpt lat="48.20616" lon="7.35639">
        <ele>225.39999389648</ele>
        <time>2021-05-23T08:56:40Z</time>
      </trkpt>
      <trkpt lat="48.20616" lon="7.35639">
        <ele>225.60000610352</ele>
        <time>2021-05-23T08:56:41Z</time>
      </trkpt>
      <trkpt lat="48.20611" lon="7.35635">
        <ele>225.60000610352</ele>
        <time>2021-05-23T08:56:52Z</time>
      </trkpt>
      <trkpt lat="48.20609" lon="7.35637">
        <ele>225.60000610352</ele>
        <time>2021-05-23T08:56:53Z</time>
      </trkpt>
      <trkpt lat="48.20604" lon="7.35656">
        <ele>225.60000610352</ele>
        <time>2021-05-23T08:56:57Z</time>
      </trkpt>
      <trkpt lat="48.20596" lon="7.35678">
        <ele>225.80000305176</ele>
        <time>2021-05-23T08:57:01Z</time>
      </trkpt>
      <trkpt lat="48.20592" lon="7.35689">
        <ele>225.39999389648</ele>
        <time>2021-05-23T08:57:03Z</time>
      </trkpt>
      <trkpt lat="48.20584" lon="7.35728">
        <ele>225.19999694824</ele>
        <time>2021-05-23T08:57:09Z</time>
      </trkpt>
      <trkpt lat="48.20583" lon="7.35735">
        <ele>225.19999694824</ele>
        <time>2021-05-23T08:57:10Z</time>
      </trkpt>
      <trkpt lat="48.20581" lon="7.35765">
        <ele>225.19999694824</ele>
        <time>2021-05-23T08:57:14Z</time>
      </trkpt>
      <trkpt lat="48.20579" lon="7.3578">
        <ele>225</ele>
        <time>2021-05-23T08:57:16Z</time>
      </trkpt>
      <trkpt lat="48.20585" lon="7.35793">
        <ele>225</ele>
        <time>2021-05-23T08:57:18Z</time>
      </trkpt>
      <trkpt lat="48.20595" lon="7.35793">
        <ele>224.60000610352</ele>
        <time>2021-05-23T08:57:20Z</time>
      </trkpt>
      <trkpt lat="48.20609" lon="7.35787">
        <ele>224.39999389648</ele>
        <time>2021-05-23T08:57:23Z</time>
      </trkpt>
      <trkpt lat="48.20619" lon="7.35784">
        <ele>224.39999389648</ele>
        <time>2021-05-23T08:57:25Z</time>
      </trkpt>
      <trkpt lat="48.20623" lon="7.35783">
        <ele>224.39999389648</ele>
        <time>2021-05-23T08:57:26Z</time>
      </trkpt>
      <trkpt lat="48.20632" lon="7.3578">
        <ele>224.39999389648</ele>
        <time>2021-05-23T08:57:28Z</time>
      </trkpt>
      <trkpt lat="48.2064" lon="7.35777">
        <ele>224.39999389648</ele>
        <time>2021-05-23T08:57:30Z</time>
      </trkpt>
      <trkpt lat="48.20657" lon="7.35773">
        <ele>225.19999694824</ele>
        <time>2021-05-23T08:57:35Z</time>
      </trkpt>
      <trkpt lat="48.20665" lon="7.35773">
        <ele>225.60000610352</ele>
        <time>2021-05-23T08:57:37Z</time>
      </trkpt>
      <trkpt lat="48.20686" lon="7.35778">
        <ele>226.19999694824</ele>
        <time>2021-05-23T08:57:42Z</time>
      </trkpt>
      <trkpt lat="48.20694" lon="7.35784">
        <ele>226.19999694824</ele>
        <time>2021-05-23T08:57:44Z</time>
      </trkpt>
      <trkpt lat="48.20705" lon="7.35799">
        <ele>226.39999389648</ele>
        <time>2021-05-23T08:57:47Z</time>
      </trkpt>
      <trkpt lat="48.20711" lon="7.35808">
        <ele>226.60000610352</ele>
        <time>2021-05-23T08:57:49Z</time>
      </trkpt>
      <trkpt lat="48.20715" lon="7.35813">
        <ele>226.80000305176</ele>
        <time>2021-05-23T08:57:50Z</time>
      </trkpt>
      <trkpt lat="48.2072" lon="7.35825">
        <ele>226.80000305176</ele>
        <time>2021-05-23T08:57:52Z</time>
      </trkpt>
      <trkpt lat="48.20723" lon="7.35833">
        <ele>226.80000305176</ele>
        <time>2021-05-23T08:57:53Z</time>
      </trkpt>
      <trkpt lat="48.20731" lon="7.35873">
        <ele>227</ele>
        <time>2021-05-23T08:57:58Z</time>
      </trkpt>
      <trkpt lat="48.20731" lon="7.35881">
        <ele>227</ele>
        <time>2021-05-23T08:57:59Z</time>
      </trkpt>
      <trkpt lat="48.20727" lon="7.3595">
        <ele>226.60000610352</ele>
        <time>2021-05-23T08:58:07Z</time>
      </trkpt>
      <trkpt lat="48.20728" lon="7.35997">
        <ele>226.80000305176</ele>
        <time>2021-05-23T08:58:13Z</time>
      </trkpt>
      <trkpt lat="48.20729" lon="7.36005">
        <ele>226.80000305176</ele>
        <time>2021-05-23T08:58:14Z</time>
      </trkpt>
      <trkpt lat="48.20736" lon="7.36024">
        <ele>227.19999694824</ele>
        <time>2021-05-23T08:58:17Z</time>
      </trkpt>
      <trkpt lat="48.20743" lon="7.36037">
        <ele>227.39999389648</ele>
        <time>2021-05-23T08:58:19Z</time>
      </trkpt>
      <trkpt lat="48.20747" lon="7.36042">
        <ele>227.39999389648</ele>
        <time>2021-05-23T08:58:20Z</time>
      </trkpt>
      <trkpt lat="48.20754" lon="7.36051">
        <ele>227.60000610352</ele>
        <time>2021-05-23T08:58:22Z</time>
      </trkpt>
      <trkpt lat="48.20762" lon="7.36057">
        <ele>227.80000305176</ele>
        <time>2021-05-23T08:58:24Z</time>
      </trkpt>
      <trkpt lat="48.20777" lon="7.36067">
        <ele>228.80000305176</ele>
        <time>2021-05-23T08:58:28Z</time>
      </trkpt>
      <trkpt lat="48.20784" lon="7.36071">
        <ele>229</ele>
        <time>2021-05-23T08:58:30Z</time>
      </trkpt>
      <trkpt lat="48.20797" lon="7.36078">
        <ele>230.19999694824</ele>
        <time>2021-05-23T08:58:34Z</time>
      </trkpt>
      <trkpt lat="48.20804" lon="7.36082">
        <ele>230.60000610352</ele>
        <time>2021-05-23T08:58:36Z</time>
      </trkpt>
      <trkpt lat="48.20813" lon="7.36085">
        <ele>231.19999694824</ele>
        <time>2021-05-23T08:58:39Z</time>
      </trkpt>
      <trkpt lat="48.20821" lon="7.36089">
        <ele>232</ele>
        <time>2021-05-23T08:58:42Z</time>
      </trkpt>
      <trkpt lat="48.20829" lon="7.36093">
        <ele>232.39999389648</ele>
        <time>2021-05-23T08:58:46Z</time>
      </trkpt>
      <trkpt lat="48.20833" lon="7.36095">
        <ele>232.80000305176</ele>
        <time>2021-05-23T08:58:48Z</time>
      </trkpt>
      <trkpt lat="48.20844" lon="7.36101">
        <ele>233.39999389648</ele>
        <time>2021-05-23T08:58:54Z</time>
      </trkpt>
      <trkpt lat="48.20858" lon="7.36109">
        <ele>234.19999694824</ele>
        <time>2021-05-23T08:59:01Z</time>
      </trkpt>
      <trkpt lat="48.20862" lon="7.3611">
        <ele>234.60000610352</ele>
        <time>2021-05-23T08:59:03Z</time>
      </trkpt>
      <trkpt lat="48.20874" lon="7.36116">
        <ele>235.19999694824</ele>
        <time>2021-05-23T08:59:08Z</time>
      </trkpt>
      <trkpt lat="48.20884" lon="7.36121">
        <ele>235.60000610352</ele>
        <time>2021-05-23T08:59:12Z</time>
      </trkpt>
      <trkpt lat="48.20895" lon="7.36125">
        <ele>236.19999694824</ele>
        <time>2021-05-23T08:59:16Z</time>
      </trkpt>
      <trkpt lat="48.209" lon="7.36126">
        <ele>236.80000305176</ele>
        <time>2021-05-23T08:59:18Z</time>
      </trkpt>
      <trkpt lat="48.20904" lon="7.36129">
        <ele>237.39999389648</ele>
        <time>2021-05-23T08:59:21Z</time>
      </trkpt>
      <trkpt lat="48.20906" lon="7.3613">
        <ele>237.80000305176</ele>
        <time>2021-05-23T08:59:24Z</time>
      </trkpt>
      <trkpt lat="48.20906" lon="7.3613">
        <ele>237.80000305176</ele>
        <time>2021-05-23T08:59:25Z</time>
      </trkpt>
      <trkpt lat="48.20903" lon="7.36127">
        <ele>238.19999694824</ele>
        <time>2021-05-23T09:00:19Z</time>
      </trkpt>
      <trkpt lat="48.20892" lon="7.36118">
        <ele>238</ele>
        <time>2021-05-23T09:00:22Z</time>
      </trkpt>
      <trkpt lat="48.20866" lon="7.36105">
        <ele>237</ele>
        <time>2021-05-23T09:00:26Z</time>
      </trkpt>
      <trkpt lat="48.20859" lon="7.36103">
        <ele>237</ele>
        <time>2021-05-23T09:00:27Z</time>
      </trkpt>
      <trkpt lat="48.20835" lon="7.36092">
        <ele>235.60000610352</ele>
        <time>2021-05-23T09:00:30Z</time>
      </trkpt>
      <trkpt lat="48.20818" lon="7.36084">
        <ele>234.39999389648</ele>
        <time>2021-05-23T09:00:32Z</time>
      </trkpt>
      <trkpt lat="48.20801" lon="7.36074">
        <ele>233.39999389648</ele>
        <time>2021-05-23T09:00:34Z</time>
      </trkpt>
      <trkpt lat="48.20783" lon="7.36064">
        <ele>232.39999389648</ele>
        <time>2021-05-23T09:00:36Z</time>
      </trkpt>
      <trkpt lat="48.20766" lon="7.36052">
        <ele>231.39999389648</ele>
        <time>2021-05-23T09:00:38Z</time>
      </trkpt>
      <trkpt lat="48.20757" lon="7.36045">
        <ele>230.39999389648</ele>
        <time>2021-05-23T09:00:39Z</time>
      </trkpt>
      <trkpt lat="48.20749" lon="7.36036">
        <ele>230</ele>
        <time>2021-05-23T09:00:40Z</time>
      </trkpt>
      <trkpt lat="48.20742" lon="7.36025">
        <ele>229.39999389648</ele>
        <time>2021-05-23T09:00:41Z</time>
      </trkpt>
      <trkpt lat="48.20737" lon="7.36013">
        <ele>228.60000610352</ele>
        <time>2021-05-23T09:00:42Z</time>
      </trkpt>
      <trkpt lat="48.2073" lon="7.35987">
        <ele>227.60000610352</ele>
        <time>2021-05-23T09:00:44Z</time>
      </trkpt>
      <trkpt lat="48.20729" lon="7.35974">
        <ele>227.39999389648</ele>
        <time>2021-05-23T09:00:45Z</time>
      </trkpt>
      <trkpt lat="48.20728" lon="7.35961">
        <ele>226.60000610352</ele>
        <time>2021-05-23T09:00:46Z</time>
      </trkpt>
      <trkpt lat="48.20728" lon="7.35948">
        <ele>226</ele>
        <time>2021-05-23T09:00:47Z</time>
      </trkpt>
      <trkpt lat="48.20732" lon="7.35882">
        <ele>225.39999389648</ele>
        <time>2021-05-23T09:00:53Z</time>
      </trkpt>
      <trkpt lat="48.20732" lon="7.35855">
        <ele>225.39999389648</ele>
        <time>2021-05-23T09:00:56Z</time>
      </trkpt>
      <trkpt lat="48.20731" lon="7.35847">
        <ele>225.39999389648</ele>
        <time>2021-05-23T09:00:57Z</time>
      </trkpt>
      <trkpt lat="48.20729" lon="7.35833">
        <ele>225.39999389648</ele>
        <time>2021-05-23T09:00:59Z</time>
      </trkpt>
      <trkpt lat="48.20729" lon="7.35823">
        <ele>226</ele>
        <time>2021-05-23T09:01:01Z</time>
      </trkpt>
      <trkpt lat="48.20725" lon="7.35819">
        <ele>226.60000610352</ele>
        <time>2021-05-23T09:01:03Z</time>
      </trkpt>
      <trkpt lat="48.20722" lon="7.3582">
        <ele>227</ele>
        <time>2021-05-23T09:01:04Z</time>
      </trkpt>
      <trkpt lat="48.2072" lon="7.35825">
        <ele>227.19999694824</ele>
        <time>2021-05-23T09:01:05Z</time>
      </trkpt>
      <trkpt lat="48.20721" lon="7.3584">
        <ele>227.60000610352</ele>
        <time>2021-05-23T09:01:07Z</time>
      </trkpt>
      <trkpt lat="48.20724" lon="7.35857">
        <ele>227.60000610352</ele>
        <time>2021-05-23T09:01:09Z</time>
      </trkpt>
      <trkpt lat="48.20726" lon="7.35881">
        <ele>227.39999389648</ele>
        <time>2021-05-23T09:01:11Z</time>
      </trkpt>
      <trkpt lat="48.20725" lon="7.35935">
        <ele>226.19999694824</ele>
        <time>2021-05-23T09:01:16Z</time>
      </trkpt>
      <trkpt lat="48.20725" lon="7.35946">
        <ele>226</ele>
        <time>2021-05-23T09:01:17Z</time>
      </trkpt>
      <trkpt lat="48.20725" lon="7.3598">
        <ele>225.80000305176</ele>
        <time>2021-05-23T09:01:20Z</time>
      </trkpt>
      <trkpt lat="48.20727" lon="7.36001">
        <ele>226</ele>
        <time>2021-05-23T09:01:22Z</time>
      </trkpt>
      <trkpt lat="48.20729" lon="7.3601">
        <ele>226</ele>
        <time>2021-05-23T09:01:23Z</time>
      </trkpt>
      <trkpt lat="48.20732" lon="7.36019">
        <ele>226.19999694824</ele>
        <time>2021-05-23T09:01:24Z</time>
      </trkpt>
      <trkpt lat="48.20741" lon="7.36035">
        <ele>226.39999389648</ele>
        <time>2021-05-23T09:01:26Z</time>
      </trkpt>
      <trkpt lat="48.20746" lon="7.36042">
        <ele>226.60000610352</ele>
        <time>2021-05-23T09:01:27Z</time>
      </trkpt>
      <trkpt lat="48.20773" lon="7.36065">
        <ele>227.19999694824</ele>
        <time>2021-05-23T09:01:32Z</time>
      </trkpt>
      <trkpt lat="48.20794" lon="7.36076">
        <ele>228.19999694824</ele>
        <time>2021-05-23T09:01:36Z</time>
      </trkpt>
      <trkpt lat="48.20803" lon="7.36081">
        <ele>229.19999694824</ele>
        <time>2021-05-23T09:01:38Z</time>
      </trkpt>
      <trkpt lat="48.20808" lon="7.36083">
        <ele>229.80000305176</ele>
        <time>2021-05-23T09:01:39Z</time>
      </trkpt>
      <trkpt lat="48.20826" lon="7.36092">
        <ele>231</ele>
        <time>2021-05-23T09:01:43Z</time>
      </trkpt>
      <trkpt lat="48.20838" lon="7.36099">
        <ele>231.80000305176</ele>
        <time>2021-05-23T09:01:46Z</time>
      </trkpt>
      <trkpt lat="48.20843" lon="7.36101">
        <ele>232.19999694824</ele>
        <time>2021-05-23T09:01:47Z</time>
      </trkpt>
      <trkpt lat="48.20863" lon="7.36111">
        <ele>233.39999389648</ele>
        <time>2021-05-23T09:01:52Z</time>
      </trkpt>
      <trkpt lat="48.20871" lon="7.36115">
        <ele>234</ele>
        <time>2021-05-23T09:01:54Z</time>
      </trkpt>
      <trkpt lat="48.2088" lon="7.36119">
        <ele>234.39999389648</ele>
        <time>2021-05-23T09:01:56Z</time>
      </trkpt>
      <trkpt lat="48.20897" lon="7.36125">
        <ele>235.39999389648</ele>
        <time>2021-05-23T09:02:00Z</time>
      </trkpt>
      <trkpt lat="48.20905" lon="7.36127">
        <ele>236.39999389648</ele>
        <time>2021-05-23T09:02:02Z</time>
      </trkpt>
      <trkpt lat="48.20914" lon="7.3613">
        <ele>237.19999694824</ele>
        <time>2021-05-23T09:02:04Z</time>
      </trkpt>
      <trkpt lat="48.20918" lon="7.36131">
        <ele>237.60000610352</ele>
        <time>2021-05-23T09:02:05Z</time>
      </trkpt>
      <trkpt lat="48.20939" lon="7.36136">
        <ele>238.80000305176</ele>
        <time>2021-05-23T09:02:10Z</time>
      </trkpt>
      <trkpt lat="48.20954" lon="7.3614">
        <ele>239.80000305176</ele>
        <time>2021-05-23T09:02:14Z</time>
      </trkpt>
      <trkpt lat="48.20957" lon="7.3614">
        <ele>240</ele>
        <time>2021-05-23T09:02:15Z</time>
      </trkpt>
      <trkpt lat="48.20972" lon="7.36146">
        <ele>241</ele>
        <time>2021-05-23T09:02:19Z</time>
      </trkpt>
      <trkpt lat="48.20979" lon="7.36148">
        <ele>241.19999694824</ele>
        <time>2021-05-23T09:02:21Z</time>
      </trkpt>
      <trkpt lat="48.20989" lon="7.36153">
        <ele>242</ele>
        <time>2021-05-23T09:02:24Z</time>
      </trkpt>
      <trkpt lat="48.21007" lon="7.36164">
        <ele>242.60000610352</ele>
        <time>2021-05-23T09:02:29Z</time>
      </trkpt>
      <trkpt lat="48.21024" lon="7.36174">
        <ele>243.19999694824</ele>
        <time>2021-05-23T09:02:33Z</time>
      </trkpt>
      <trkpt lat="48.21042" lon="7.36188">
        <ele>243.80000305176</ele>
        <time>2021-05-23T09:02:38Z</time>
      </trkpt>
      <trkpt lat="48.21053" lon="7.36196">
        <ele>244.19999694824</ele>
        <time>2021-05-23T09:02:41Z</time>
      </trkpt>
      <trkpt lat="48.21071" lon="7.36212">
        <ele>244.80000305176</ele>
        <time>2021-05-23T09:02:46Z</time>
      </trkpt>
      <trkpt lat="48.21075" lon="7.36215">
        <ele>245</ele>
        <time>2021-05-23T09:02:47Z</time>
      </trkpt>
      <trkpt lat="48.21083" lon="7.36221">
        <ele>245.19999694824</ele>
        <time>2021-05-23T09:02:49Z</time>
      </trkpt>
      <trkpt lat="48.211" lon="7.36231">
        <ele>245.80000305176</ele>
        <time>2021-05-23T09:02:53Z</time>
      </trkpt>
      <trkpt lat="48.21123" lon="7.36244">
        <ele>246.39999389648</ele>
        <time>2021-05-23T09:02:58Z</time>
      </trkpt>
      <trkpt lat="48.21143" lon="7.36254">
        <ele>246.80000305176</ele>
        <time>2021-05-23T09:03:02Z</time>
      </trkpt>
      <trkpt lat="48.2116" lon="7.36261">
        <ele>247.60000610352</ele>
        <time>2021-05-23T09:03:05Z</time>
      </trkpt>
      <trkpt lat="48.21166" lon="7.36264">
        <ele>247.60000610352</ele>
        <time>2021-05-23T09:03:06Z</time>
      </trkpt>
      <trkpt lat="48.21178" lon="7.36269">
        <ele>248</ele>
        <time>2021-05-23T09:03:08Z</time>
      </trkpt>
      <trkpt lat="48.21202" lon="7.36281">
        <ele>248.80000305176</ele>
        <time>2021-05-23T09:03:12Z</time>
      </trkpt>
      <trkpt lat="48.21225" lon="7.36291">
        <ele>249.39999389648</ele>
        <time>2021-05-23T09:03:16Z</time>
      </trkpt>
      <trkpt lat="48.21237" lon="7.36297">
        <ele>249.80000305176</ele>
        <time>2021-05-23T09:03:18Z</time>
      </trkpt>
      <trkpt lat="48.2126" lon="7.36309">
        <ele>250.80000305176</ele>
        <time>2021-05-23T09:03:22Z</time>
      </trkpt>
      <trkpt lat="48.21276" lon="7.36318">
        <ele>251.19999694824</ele>
        <time>2021-05-23T09:03:25Z</time>
      </trkpt>
      <trkpt lat="48.21293" lon="7.36324">
        <ele>251.80000305176</ele>
        <time>2021-05-23T09:03:28Z</time>
      </trkpt>
      <trkpt lat="48.21324" lon="7.3633">
        <ele>252.19999694824</ele>
        <time>2021-05-23T09:03:33Z</time>
      </trkpt>
      <trkpt lat="48.21355" lon="7.36333">
        <ele>252</ele>
        <time>2021-05-23T09:03:39Z</time>
      </trkpt>
      <trkpt lat="48.21403" lon="7.36328">
        <ele>251.80000305176</ele>
        <time>2021-05-23T09:03:48Z</time>
      </trkpt>
      <trkpt lat="48.21442" lon="7.3632">
        <ele>251</ele>
        <time>2021-05-23T09:03:54Z</time>
      </trkpt>
      <trkpt lat="48.21457" lon="7.36317">
        <ele>250.60000610352</ele>
        <time>2021-05-23T09:03:56Z</time>
      </trkpt>
      <trkpt lat="48.21481" lon="7.36314">
        <ele>249.80000305176</ele>
        <time>2021-05-23T09:03:59Z</time>
      </trkpt>
      <trkpt lat="48.21497" lon="7.3631">
        <ele>249</ele>
        <time>2021-05-23T09:04:01Z</time>
      </trkpt>
      <trkpt lat="48.21513" lon="7.36306">
        <ele>248.60000610352</ele>
        <time>2021-05-23T09:04:03Z</time>
      </trkpt>
      <trkpt lat="48.21546" lon="7.36293">
        <ele>247.39999389648</ele>
        <time>2021-05-23T09:04:07Z</time>
      </trkpt>
      <trkpt lat="48.21554" lon="7.36289">
        <ele>247.19999694824</ele>
        <time>2021-05-23T09:04:08Z</time>
      </trkpt>
      <trkpt lat="48.21562" lon="7.36285">
        <ele>247.19999694824</ele>
        <time>2021-05-23T09:04:09Z</time>
      </trkpt>
      <trkpt lat="48.21593" lon="7.36265">
        <ele>246.39999389648</ele>
        <time>2021-05-23T09:04:13Z</time>
      </trkpt>
      <trkpt lat="48.21616" lon="7.36251">
        <ele>245</ele>
        <time>2021-05-23T09:04:16Z</time>
      </trkpt>
      <trkpt lat="48.21635" lon="7.36238">
        <ele>243.80000305176</ele>
        <time>2021-05-23T09:04:19Z</time>
      </trkpt>
      <trkpt lat="48.21641" lon="7.36235">
        <ele>243.60000610352</ele>
        <time>2021-05-23T09:04:20Z</time>
      </trkpt>
      <trkpt lat="48.21654" lon="7.36235">
        <ele>243.19999694824</ele>
        <time>2021-05-23T09:04:22Z</time>
      </trkpt>
      <trkpt lat="48.21661" lon="7.36237">
        <ele>243</ele>
        <time>2021-05-23T09:04:23Z</time>
      </trkpt>
      <trkpt lat="48.21674" lon="7.36241">
        <ele>242.80000305176</ele>
        <time>2021-05-23T09:04:25Z</time>
      </trkpt>
      <trkpt lat="48.21711" lon="7.36252">
        <ele>242.19999694824</ele>
        <time>2021-05-23T09:04:30Z</time>
      </trkpt>
      <trkpt lat="48.21745" lon="7.36263">
        <ele>242</ele>
        <time>2021-05-23T09:04:35Z</time>
      </trkpt>
      <trkpt lat="48.21775" lon="7.36261">
        <ele>242.60000610352</ele>
        <time>2021-05-23T09:04:40Z</time>
      </trkpt>
      <trkpt lat="48.218" lon="7.36258">
        <ele>243.19999694824</ele>
        <time>2021-05-23T09:04:45Z</time>
      </trkpt>
      <trkpt lat="48.21805" lon="7.36257">
        <ele>243.39999389648</ele>
        <time>2021-05-23T09:04:46Z</time>
      </trkpt>
      <trkpt lat="48.2181" lon="7.36255">
        <ele>244</ele>
        <time>2021-05-23T09:04:47Z</time>
      </trkpt>
      <trkpt lat="48.21825" lon="7.36251">
        <ele>245.19999694824</ele>
        <time>2021-05-23T09:04:50Z</time>
      </trkpt>
      <trkpt lat="48.21843" lon="7.3625">
        <ele>246.39999389648</ele>
        <time>2021-05-23T09:04:54Z</time>
      </trkpt>
      <trkpt lat="48.21848" lon="7.36251">
        <ele>246.60000610352</ele>
        <time>2021-05-23T09:04:55Z</time>
      </trkpt>
      <trkpt lat="48.21856" lon="7.36255">
        <ele>247.60000610352</ele>
        <time>2021-05-23T09:04:57Z</time>
      </trkpt>
      <trkpt lat="48.21865" lon="7.3626">
        <ele>248.60000610352</ele>
        <time>2021-05-23T09:04:59Z</time>
      </trkpt>
      <trkpt lat="48.21879" lon="7.36269">
        <ele>249.60000610352</ele>
        <time>2021-05-23T09:05:02Z</time>
      </trkpt>
      <trkpt lat="48.21883" lon="7.36272">
        <ele>249.80000305176</ele>
        <time>2021-05-23T09:05:03Z</time>
      </trkpt>
      <trkpt lat="48.21905" lon="7.3629">
        <ele>250.60000610352</ele>
        <time>2021-05-23T09:05:08Z</time>
      </trkpt>
      <trkpt lat="48.2191" lon="7.36294">
        <ele>250.60000610352</ele>
        <time>2021-05-23T09:05:09Z</time>
      </trkpt>
      <trkpt lat="48.21943" lon="7.36319">
        <ele>251.19999694824</ele>
        <time>2021-05-23T09:05:16Z</time>
      </trkpt>
      <trkpt lat="48.21952" lon="7.36324">
        <ele>251.39999389648</ele>
        <time>2021-05-23T09:05:18Z</time>
      </trkpt>
      <trkpt lat="48.2196" lon="7.36332">
        <ele>251.60000610352</ele>
        <time>2021-05-23T09:05:20Z</time>
      </trkpt>
      <trkpt lat="48.21964" lon="7.36336">
        <ele>251.60000610352</ele>
        <time>2021-05-23T09:05:21Z</time>
      </trkpt>
      <trkpt lat="48.21973" lon="7.36341">
        <ele>251.80000305176</ele>
        <time>2021-05-23T09:05:23Z</time>
      </trkpt>
      <trkpt lat="48.21987" lon="7.36347">
        <ele>252</ele>
        <time>2021-05-23T09:05:27Z</time>
      </trkpt>
      <trkpt lat="48.22002" lon="7.36352">
        <ele>252</ele>
        <time>2021-05-23T09:05:33Z</time>
      </trkpt>
      <trkpt lat="48.22016" lon="7.36355">
        <ele>251.80000305176</ele>
        <time>2021-05-23T09:05:38Z</time>
      </trkpt>
      <trkpt lat="48.22036" lon="7.36363">
        <ele>251.60000610352</ele>
        <time>2021-05-23T09:05:44Z</time>
      </trkpt>
      <trkpt lat="48.2206" lon="7.36369">
        <ele>251</ele>
        <time>2021-05-23T09:05:50Z</time>
      </trkpt>
      <trkpt lat="48.22073" lon="7.3637">
        <ele>250.80000305176</ele>
        <time>2021-05-23T09:05:53Z</time>
      </trkpt>
      <trkpt lat="48.22092" lon="7.3637">
        <ele>250.60000610352</ele>
        <time>2021-05-23T09:05:57Z</time>
      </trkpt>
      <trkpt lat="48.22096" lon="7.3637">
        <ele>250.60000610352</ele>
        <time>2021-05-23T09:05:58Z</time>
      </trkpt>
      <trkpt lat="48.22136" lon="7.36362">
        <ele>250</ele>
        <time>2021-05-23T09:06:06Z</time>
      </trkpt>
      <trkpt lat="48.22158" lon="7.36354">
        <ele>249.39999389648</ele>
        <time>2021-05-23T09:06:10Z</time>
      </trkpt>
      <trkpt lat="48.22171" lon="7.36349">
        <ele>249</ele>
        <time>2021-05-23T09:06:12Z</time>
      </trkpt>
      <trkpt lat="48.22192" lon="7.36341">
        <ele>248.39999389648</ele>
        <time>2021-05-23T09:06:15Z</time>
      </trkpt>
      <trkpt lat="48.22215" lon="7.36335">
        <ele>247.80000305176</ele>
        <time>2021-05-23T09:06:18Z</time>
      </trkpt>
      <trkpt lat="48.22231" lon="7.3633">
        <ele>247.19999694824</ele>
        <time>2021-05-23T09:06:20Z</time>
      </trkpt>
      <trkpt lat="48.22267" lon="7.36322">
        <ele>246</ele>
        <time>2021-05-23T09:06:24Z</time>
      </trkpt>
      <trkpt lat="48.22285" lon="7.3632">
        <ele>244.80000305176</ele>
        <time>2021-05-23T09:06:26Z</time>
      </trkpt>
      <trkpt lat="48.22314" lon="7.36318">
        <ele>243.39999389648</ele>
        <time>2021-05-23T09:06:29Z</time>
      </trkpt>
      <trkpt lat="48.22334" lon="7.36317">
        <ele>243</ele>
        <time>2021-05-23T09:06:31Z</time>
      </trkpt>
      <trkpt lat="48.22355" lon="7.36315">
        <ele>241.39999389648</ele>
        <time>2021-05-23T09:06:33Z</time>
      </trkpt>
      <trkpt lat="48.22375" lon="7.36312">
        <ele>240.19999694824</ele>
        <time>2021-05-23T09:06:35Z</time>
      </trkpt>
      <trkpt lat="48.22395" lon="7.36306">
        <ele>239.19999694824</ele>
        <time>2021-05-23T09:06:37Z</time>
      </trkpt>
      <trkpt lat="48.22405" lon="7.36303">
        <ele>238.80000305176</ele>
        <time>2021-05-23T09:06:38Z</time>
      </trkpt>
      <trkpt lat="48.22442" lon="7.36288">
        <ele>237.80000305176</ele>
        <time>2021-05-23T09:06:42Z</time>
      </trkpt>
      <trkpt lat="48.22451" lon="7.36284">
        <ele>237.19999694824</ele>
        <time>2021-05-23T09:06:43Z</time>
      </trkpt>
      <trkpt lat="48.22489" lon="7.36269">
        <ele>236</ele>
        <time>2021-05-23T09:06:47Z</time>
      </trkpt>
      <trkpt lat="48.22517" lon="7.36258">
        <ele>235.39999389648</ele>
        <time>2021-05-23T09:06:50Z</time>
      </trkpt>
      <trkpt lat="48.22534" lon="7.36256">
        <ele>235.19999694824</ele>
        <time>2021-05-23T09:06:52Z</time>
      </trkpt>
      <trkpt lat="48.22543" lon="7.36256">
        <ele>235.19999694824</ele>
        <time>2021-05-23T09:06:53Z</time>
      </trkpt>
      <trkpt lat="48.22552" lon="7.36255">
        <ele>235</ele>
        <time>2021-05-23T09:06:54Z</time>
      </trkpt>
      <trkpt lat="48.22576" lon="7.36247">
        <ele>234.19999694824</ele>
        <time>2021-05-23T09:06:57Z</time>
      </trkpt>
      <trkpt lat="48.22584" lon="7.36246">
        <ele>234</ele>
        <time>2021-05-23T09:06:58Z</time>
      </trkpt>
      <trkpt lat="48.22606" lon="7.36249">
        <ele>233.60000610352</ele>
        <time>2021-05-23T09:07:01Z</time>
      </trkpt>
      <trkpt lat="48.22613" lon="7.36252">
        <ele>233.60000610352</ele>
        <time>2021-05-23T09:07:02Z</time>
      </trkpt>
      <trkpt lat="48.22631" lon="7.36261">
        <ele>233.60000610352</ele>
        <time>2021-05-23T09:07:05Z</time>
      </trkpt>
      <trkpt lat="48.22636" lon="7.36265">
        <ele>233.60000610352</ele>
        <time>2021-05-23T09:07:06Z</time>
      </trkpt>
      <trkpt lat="48.22657" lon="7.36282">
        <ele>234.39999389648</ele>
        <time>2021-05-23T09:07:11Z</time>
      </trkpt>
      <trkpt lat="48.22666" lon="7.36292">
        <ele>235.19999694824</ele>
        <time>2021-05-23T09:07:14Z</time>
      </trkpt>
      <trkpt lat="48.22676" lon="7.36304">
        <ele>236</ele>
        <time>2021-05-23T09:07:18Z</time>
      </trkpt>
      <trkpt lat="48.22681" lon="7.36309">
        <ele>236.19999694824</ele>
        <time>2021-05-23T09:07:20Z</time>
      </trkpt>
      <trkpt lat="48.22696" lon="7.3633">
        <ele>237.60000610352</ele>
        <time>2021-05-23T09:07:26Z</time>
      </trkpt>
      <trkpt lat="48.22709" lon="7.36348">
        <ele>239</ele>
        <time>2021-05-23T09:07:31Z</time>
      </trkpt>
      <trkpt lat="48.22716" lon="7.36359">
        <ele>239.80000305176</ele>
        <time>2021-05-23T09:07:34Z</time>
      </trkpt>
      <trkpt lat="48.22718" lon="7.36362">
        <ele>240</ele>
        <time>2021-05-23T09:07:35Z</time>
      </trkpt>
      <trkpt lat="48.22731" lon="7.3638">
        <ele>241</ele>
        <time>2021-05-23T09:07:40Z</time>
      </trkpt>
      <trkpt lat="48.22743" lon="7.36397">
        <ele>241.80000305176</ele>
        <time>2021-05-23T09:07:45Z</time>
      </trkpt>
      <trkpt lat="48.22751" lon="7.36406">
        <ele>242.19999694824</ele>
        <time>2021-05-23T09:07:48Z</time>
      </trkpt>
      <trkpt lat="48.2277" lon="7.36429">
        <ele>243.19999694824</ele>
        <time>2021-05-23T09:07:55Z</time>
      </trkpt>
      <trkpt lat="48.22779" lon="7.36439">
        <ele>244</ele>
        <time>2021-05-23T09:07:58Z</time>
      </trkpt>
      <trkpt lat="48.22788" lon="7.36447">
        <ele>244.39999389648</ele>
        <time>2021-05-23T09:08:01Z</time>
      </trkpt>
      <trkpt lat="48.228" lon="7.36459">
        <ele>245.19999694824</ele>
        <time>2021-05-23T09:08:05Z</time>
      </trkpt>
      <trkpt lat="48.22803" lon="7.36462">
        <ele>245.60000610352</ele>
        <time>2021-05-23T09:08:06Z</time>
      </trkpt>
      <trkpt lat="48.2282" lon="7.36476">
        <ele>246.60000610352</ele>
        <time>2021-05-23T09:08:11Z</time>
      </trkpt>
      <trkpt lat="48.22836" lon="7.36487">
        <ele>247.60000610352</ele>
        <time>2021-05-23T09:08:16Z</time>
      </trkpt>
      <trkpt lat="48.22839" lon="7.36489">
        <ele>248</ele>
        <time>2021-05-23T09:08:17Z</time>
      </trkpt>
      <trkpt lat="48.22857" lon="7.36497">
        <ele>249.39999389648</ele>
        <time>2021-05-23T09:08:22Z</time>
      </trkpt>
      <trkpt lat="48.22861" lon="7.36499">
        <ele>249.39999389648</ele>
        <time>2021-05-23T09:08:23Z</time>
      </trkpt>
      <trkpt lat="48.22869" lon="7.36503">
        <ele>250</ele>
        <time>2021-05-23T09:08:25Z</time>
      </trkpt>
      <trkpt lat="48.22877" lon="7.36505">
        <ele>250.39999389648</ele>
        <time>2021-05-23T09:08:27Z</time>
      </trkpt>
      <trkpt lat="48.22885" lon="7.36507">
        <ele>250.60000610352</ele>
        <time>2021-05-23T09:08:29Z</time>
      </trkpt>
      <trkpt lat="48.22908" lon="7.36513">
        <ele>251.39999389648</ele>
        <time>2021-05-23T09:08:35Z</time>
      </trkpt>
      <trkpt lat="48.22921" lon="7.36516">
        <ele>251.80000305176</ele>
        <time>2021-05-23T09:08:38Z</time>
      </trkpt>
      <trkpt lat="48.2295" lon="7.36521">
        <ele>252.39999389648</ele>
        <time>2021-05-23T09:08:45Z</time>
      </trkpt>
      <trkpt lat="48.22954" lon="7.36522">
        <ele>252.39999389648</ele>
        <time>2021-05-23T09:08:46Z</time>
      </trkpt>
      <trkpt lat="48.22992" lon="7.36531">
        <ele>253.19999694824</ele>
        <time>2021-05-23T09:08:55Z</time>
      </trkpt>
      <trkpt lat="48.23019" lon="7.36539">
        <ele>253.39999389648</ele>
        <time>2021-05-23T09:09:01Z</time>
      </trkpt>
      <trkpt lat="48.23022" lon="7.36542">
        <ele>253.60000610352</ele>
        <time>2021-05-23T09:09:02Z</time>
      </trkpt>
      <trkpt lat="48.23026" lon="7.36545">
        <ele>253.60000610352</ele>
        <time>2021-05-23T09:09:03Z</time>
      </trkpt>
      <trkpt lat="48.23037" lon="7.36551">
        <ele>254</ele>
        <time>2021-05-23T09:09:07Z</time>
      </trkpt>
      <trkpt lat="48.23055" lon="7.36559">
        <ele>254.19999694824</ele>
        <time>2021-05-23T09:09:14Z</time>
      </trkpt>
      <trkpt lat="48.23069" lon="7.36566">
        <ele>254.39999389648</ele>
        <time>2021-05-23T09:09:19Z</time>
      </trkpt>
      <trkpt lat="48.23078" lon="7.36571">
        <ele>254.60000610352</ele>
        <time>2021-05-23T09:09:22Z</time>
      </trkpt>
      <trkpt lat="48.23093" lon="7.36581">
        <ele>254.60000610352</ele>
        <time>2021-05-23T09:09:26Z</time>
      </trkpt>
      <trkpt lat="48.23096" lon="7.36583">
        <ele>254.60000610352</ele>
        <time>2021-05-23T09:09:27Z</time>
      </trkpt>
      <trkpt lat="48.23118" lon="7.366">
        <ele>254.80000305176</ele>
        <time>2021-05-23T09:09:33Z</time>
      </trkpt>
      <trkpt lat="48.23132" lon="7.3661">
        <ele>255.60000610352</ele>
        <time>2021-05-23T09:09:37Z</time>
      </trkpt>
      <trkpt lat="48.23143" lon="7.36618">
        <ele>255.60000610352</ele>
        <time>2021-05-23T09:09:40Z</time>
      </trkpt>
      <trkpt lat="48.23147" lon="7.36622">
        <ele>255.80000305176</ele>
        <time>2021-05-23T09:09:41Z</time>
      </trkpt>
      <trkpt lat="48.23168" lon="7.36644">
        <ele>256.39999389648</ele>
        <time>2021-05-23T09:09:47Z</time>
      </trkpt>
      <trkpt lat="48.23172" lon="7.36648">
        <ele>256.60000610352</ele>
        <time>2021-05-23T09:09:48Z</time>
      </trkpt>
      <trkpt lat="48.23197" lon="7.36676">
        <ele>256.79998779297</ele>
        <time>2021-05-23T09:09:55Z</time>
      </trkpt>
      <trkpt lat="48.23203" lon="7.36685">
        <ele>256.79998779297</ele>
        <time>2021-05-23T09:09:57Z</time>
      </trkpt>
      <trkpt lat="48.23206" lon="7.36688">
        <ele>256.79998779297</ele>
        <time>2021-05-23T09:09:58Z</time>
      </trkpt>
      <trkpt lat="48.23214" lon="7.36695">
        <ele>257.20001220703</ele>
        <time>2021-05-23T09:10:01Z</time>
      </trkpt>
      <trkpt lat="48.23219" lon="7.36696">
        <ele>257.39999389648</ele>
        <time>2021-05-23T09:10:03Z</time>
      </trkpt>
      <trkpt lat="48.23221" lon="7.36694">
        <ele>257.79998779297</ele>
        <time>2021-05-23T09:10:04Z</time>
      </trkpt>
      <trkpt lat="48.23224" lon="7.36686">
        <ele>258</ele>
        <time>2021-05-23T09:10:06Z</time>
      </trkpt>
      <trkpt lat="48.23225" lon="7.36678">
        <ele>258.20001220703</ele>
        <time>2021-05-23T09:10:08Z</time>
      </trkpt>
      <trkpt lat="48.23228" lon="7.36661">
        <ele>258.60000610352</ele>
        <time>2021-05-23T09:10:13Z</time>
      </trkpt>
      <trkpt lat="48.2323" lon="7.36657">
        <ele>258.60000610352</ele>
        <time>2021-05-23T09:10:14Z</time>
      </trkpt>
      <trkpt lat="48.23232" lon="7.36654">
        <ele>259</ele>
        <time>2021-05-23T09:10:15Z</time>
      </trkpt>
      <trkpt lat="48.23236" lon="7.36637">
        <ele>259.79998779297</ele>
        <time>2021-05-23T09:10:21Z</time>
      </trkpt>
      <trkpt lat="48.23237" lon="7.36634">
        <ele>260</ele>
        <time>2021-05-23T09:10:22Z</time>
      </trkpt>
      <trkpt lat="48.23241" lon="7.36624">
        <ele>260.79998779297</ele>
        <time>2021-05-23T09:10:25Z</time>
      </trkpt>
      <trkpt lat="48.23243" lon="7.36618">
        <ele>261.39999389648</ele>
        <time>2021-05-23T09:10:27Z</time>
      </trkpt>
      <trkpt lat="48.23244" lon="7.36615">
        <ele>261.60000610352</ele>
        <time>2021-05-23T09:10:28Z</time>
      </trkpt>
      <trkpt lat="48.2325" lon="7.36602">
        <ele>262.60000610352</ele>
        <time>2021-05-23T09:10:32Z</time>
      </trkpt>
      <trkpt lat="48.23255" lon="7.36589">
        <ele>263.60000610352</ele>
        <time>2021-05-23T09:10:36Z</time>
      </trkpt>
      <trkpt lat="48.23259" lon="7.36579">
        <ele>264</ele>
        <time>2021-05-23T09:10:39Z</time>
      </trkpt>
      <trkpt lat="48.23263" lon="7.36568">
        <ele>264.60000610352</ele>
        <time>2021-05-23T09:10:42Z</time>
      </trkpt>
      <trkpt lat="48.23269" lon="7.36553">
        <ele>265.60000610352</ele>
        <time>2021-05-23T09:10:46Z</time>
      </trkpt>
      <trkpt lat="48.23274" lon="7.36542">
        <ele>266</ele>
        <time>2021-05-23T09:10:49Z</time>
      </trkpt>
      <trkpt lat="48.23277" lon="7.36534">
        <ele>266.60000610352</ele>
        <time>2021-05-23T09:10:51Z</time>
      </trkpt>
      <trkpt lat="48.2328" lon="7.36526">
        <ele>267.20001220703</ele>
        <time>2021-05-23T09:10:53Z</time>
      </trkpt>
      <trkpt lat="48.23284" lon="7.36518">
        <ele>268.20001220703</ele>
        <time>2021-05-23T09:10:55Z</time>
      </trkpt>
      <trkpt lat="48.2329" lon="7.36503">
        <ele>269</ele>
        <time>2021-05-23T09:10:59Z</time>
      </trkpt>
      <trkpt lat="48.23291" lon="7.36499">
        <ele>269.20001220703</ele>
        <time>2021-05-23T09:11:00Z</time>
      </trkpt>
      <trkpt lat="48.23297" lon="7.36485">
        <ele>270.39999389648</ele>
        <time>2021-05-23T09:11:04Z</time>
      </trkpt>
      <trkpt lat="48.23304" lon="7.3647">
        <ele>271.20001220703</ele>
        <time>2021-05-23T09:11:08Z</time>
      </trkpt>
      <trkpt lat="48.23306" lon="7.36466">
        <ele>271.60000610352</ele>
        <time>2021-05-23T09:11:09Z</time>
      </trkpt>
      <trkpt lat="48.23317" lon="7.36444">
        <ele>272.79998779297</ele>
        <time>2021-05-23T09:11:14Z</time>
      </trkpt>
      <trkpt lat="48.23321" lon="7.36435">
        <ele>273.20001220703</ele>
        <time>2021-05-23T09:11:16Z</time>
      </trkpt>
      <trkpt lat="48.23327" lon="7.36423">
        <ele>273.79998779297</ele>
        <time>2021-05-23T09:11:19Z</time>
      </trkpt>
      <trkpt lat="48.23335" lon="7.36407">
        <ele>275</ele>
        <time>2021-05-23T09:11:23Z</time>
      </trkpt>
      <trkpt lat="48.2334" lon="7.36395">
        <ele>275.39999389648</ele>
        <time>2021-05-23T09:11:26Z</time>
      </trkpt>
      <trkpt lat="48.23344" lon="7.36387">
        <ele>276</ele>
        <time>2021-05-23T09:11:28Z</time>
      </trkpt>
      <trkpt lat="48.23353" lon="7.36363">
        <ele>277.20001220703</ele>
        <time>2021-05-23T09:11:34Z</time>
      </trkpt>
      <trkpt lat="48.23358" lon="7.36346">
        <ele>278.20001220703</ele>
        <time>2021-05-23T09:11:38Z</time>
      </trkpt>
      <trkpt lat="48.2336" lon="7.36342">
        <ele>278.60000610352</ele>
        <time>2021-05-23T09:11:39Z</time>
      </trkpt>
      <trkpt lat="48.23363" lon="7.3633">
        <ele>279.39999389648</ele>
        <time>2021-05-23T09:11:42Z</time>
      </trkpt>
      <trkpt lat="48.2337" lon="7.36307">
        <ele>280.39999389648</ele>
        <time>2021-05-23T09:11:48Z</time>
      </trkpt>
      <trkpt lat="48.23371" lon="7.36303">
        <ele>280.60000610352</ele>
        <time>2021-05-23T09:11:49Z</time>
      </trkpt>
      <trkpt lat="48.23384" lon="7.36283">
        <ele>281.79998779297</ele>
        <time>2021-05-23T09:11:55Z</time>
      </trkpt>
      <trkpt lat="48.23387" lon="7.36281">
        <ele>282</ele>
        <time>2021-05-23T09:11:56Z</time>
      </trkpt>
      <trkpt lat="48.23412" lon="7.36268">
        <ele>282.79998779297</ele>
        <time>2021-05-23T09:12:04Z</time>
      </trkpt>
      <trkpt lat="48.23436" lon="7.36256">
        <ele>284</ele>
        <time>2021-05-23T09:12:12Z</time>
      </trkpt>
      <trkpt lat="48.23438" lon="7.36256">
        <ele>284</ele>
        <time>2021-05-23T09:12:13Z</time>
      </trkpt>
      <trkpt lat="48.23438" lon="7.36256">
        <ele>284.39999389648</ele>
        <time>2021-05-23T09:12:16Z</time>
      </trkpt>
      <trkpt lat="48.23438" lon="7.36256">
        <ele>284.60000610352</ele>
        <time>2021-05-23T09:12:19Z</time>
      </trkpt>
      <trkpt lat="48.23441" lon="7.36254">
        <ele>285.79998779297</ele>
        <time>2021-05-23T09:12:48Z</time>
      </trkpt>
      <trkpt lat="48.23444" lon="7.36251">
        <ele>285.79998779297</ele>
        <time>2021-05-23T09:12:49Z</time>
      </trkpt>
      <trkpt lat="48.23455" lon="7.36243">
        <ele>285.79998779297</ele>
        <time>2021-05-23T09:12:52Z</time>
      </trkpt>
      <trkpt lat="48.2346" lon="7.36241">
        <ele>285.79998779297</ele>
        <time>2021-05-23T09:12:53Z</time>
      </trkpt>
      <trkpt lat="48.23499" lon="7.36218">
        <ele>286.60000610352</ele>
        <time>2021-05-23T09:13:01Z</time>
      </trkpt>
      <trkpt lat="48.23509" lon="7.36212">
        <ele>286.79998779297</ele>
        <time>2021-05-23T09:13:03Z</time>
      </trkpt>
      <trkpt lat="48.23546" lon="7.36189">
        <ele>287.79998779297</ele>
        <time>2021-05-23T09:13:11Z</time>
      </trkpt>
      <trkpt lat="48.23551" lon="7.36187">
        <ele>288</ele>
        <time>2021-05-23T09:13:12Z</time>
      </trkpt>
      <trkpt lat="48.23573" lon="7.36173">
        <ele>289</ele>
        <time>2021-05-23T09:13:17Z</time>
      </trkpt>
      <trkpt lat="48.23587" lon="7.36165">
        <ele>289.20001220703</ele>
        <time>2021-05-23T09:13:20Z</time>
      </trkpt>
      <trkpt lat="48.23604" lon="7.36154">
        <ele>289.79998779297</ele>
        <time>2021-05-23T09:13:24Z</time>
      </trkpt>
      <trkpt lat="48.23613" lon="7.36153">
        <ele>290</ele>
        <time>2021-05-23T09:13:26Z</time>
      </trkpt>
      <trkpt lat="48.23617" lon="7.36154">
        <ele>290.20001220703</ele>
        <time>2021-05-23T09:13:27Z</time>
      </trkpt>
      <trkpt lat="48.23631" lon="7.36163">
        <ele>291</ele>
        <time>2021-05-23T09:13:31Z</time>
      </trkpt>
      <trkpt lat="48.23634" lon="7.36167">
        <ele>291.20001220703</ele>
        <time>2021-05-23T09:13:32Z</time>
      </trkpt>
      <trkpt lat="48.23643" lon="7.36176">
        <ele>292.39999389648</ele>
        <time>2021-05-23T09:13:35Z</time>
      </trkpt>
      <trkpt lat="48.23652" lon="7.36183">
        <ele>293.39999389648</ele>
        <time>2021-05-23T09:13:38Z</time>
      </trkpt>
      <trkpt lat="48.23656" lon="7.36185">
        <ele>293.60000610352</ele>
        <time>2021-05-23T09:13:39Z</time>
      </trkpt>
      <trkpt lat="48.23672" lon="7.36195">
        <ele>294.79998779297</ele>
        <time>2021-05-23T09:13:44Z</time>
      </trkpt>
      <trkpt lat="48.23679" lon="7.36197">
        <ele>295.60000610352</ele>
        <time>2021-05-23T09:13:46Z</time>
      </trkpt>
      <trkpt lat="48.23683" lon="7.36199">
        <ele>296.20001220703</ele>
        <time>2021-05-23T09:13:47Z</time>
      </trkpt>
      <trkpt lat="48.23705" lon="7.3621">
        <ele>297.20001220703</ele>
        <time>2021-05-23T09:13:53Z</time>
      </trkpt>
      <trkpt lat="48.23712" lon="7.36212">
        <ele>297.60000610352</ele>
        <time>2021-05-23T09:13:55Z</time>
      </trkpt>
      <trkpt lat="48.23723" lon="7.36215">
        <ele>298.39999389648</ele>
        <time>2021-05-23T09:13:58Z</time>
      </trkpt>
      <trkpt lat="48.23734" lon="7.36216">
        <ele>299.39999389648</ele>
        <time>2021-05-23T09:14:01Z</time>
      </trkpt>
      <trkpt lat="48.23741" lon="7.36213">
        <ele>299.79998779297</ele>
        <time>2021-05-23T09:14:03Z</time>
      </trkpt>
      <trkpt lat="48.23748" lon="7.36209">
        <ele>300.39999389648</ele>
        <time>2021-05-23T09:14:05Z</time>
      </trkpt>
      <trkpt lat="48.23757" lon="7.36201">
        <ele>301.39999389648</ele>
        <time>2021-05-23T09:14:08Z</time>
      </trkpt>
      <trkpt lat="48.2376" lon="7.36198">
        <ele>301.60000610352</ele>
        <time>2021-05-23T09:14:09Z</time>
      </trkpt>
      <trkpt lat="48.23767" lon="7.36186">
        <ele>302.60000610352</ele>
        <time>2021-05-23T09:14:12Z</time>
      </trkpt>
      <trkpt lat="48.23771" lon="7.36173">
        <ele>303.60000610352</ele>
        <time>2021-05-23T09:14:15Z</time>
      </trkpt>
      <trkpt lat="48.23773" lon="7.36169">
        <ele>303.79998779297</ele>
        <time>2021-05-23T09:14:16Z</time>
      </trkpt>
      <trkpt lat="48.23781" lon="7.36154">
        <ele>304.79998779297</ele>
        <time>2021-05-23T09:14:20Z</time>
      </trkpt>
      <trkpt lat="48.23788" lon="7.36144">
        <ele>305.39999389648</ele>
        <time>2021-05-23T09:14:23Z</time>
      </trkpt>
      <trkpt lat="48.23792" lon="7.3614">
        <ele>305.79998779297</ele>
        <time>2021-05-23T09:14:25Z</time>
      </trkpt>
      <trkpt lat="48.23805" lon="7.36129">
        <ele>306.79998779297</ele>
        <time>2021-05-23T09:14:30Z</time>
      </trkpt>
      <trkpt lat="48.2381" lon="7.36125">
        <ele>307.39999389648</ele>
        <time>2021-05-23T09:14:32Z</time>
      </trkpt>
      <trkpt lat="48.23815" lon="7.36121">
        <ele>308</ele>
        <time>2021-05-23T09:14:34Z</time>
      </trkpt>
      <trkpt lat="48.23826" lon="7.36113">
        <ele>309.39999389648</ele>
        <time>2021-05-23T09:14:38Z</time>
      </trkpt>
      <trkpt lat="48.2384" lon="7.36101">
        <ele>310.60000610352</ele>
        <time>2021-05-23T09:14:44Z</time>
      </trkpt>
      <trkpt lat="48.23853" lon="7.36091">
        <ele>311.60000610352</ele>
        <time>2021-05-23T09:14:49Z</time>
      </trkpt>
      <trkpt lat="48.23866" lon="7.36081">
        <ele>313</ele>
        <time>2021-05-23T09:14:54Z</time>
      </trkpt>
      <trkpt lat="48.23873" lon="7.36076">
        <ele>314</ele>
        <time>2021-05-23T09:14:57Z</time>
      </trkpt>
      <trkpt lat="48.23883" lon="7.36067">
        <ele>315</ele>
        <time>2021-05-23T09:15:01Z</time>
      </trkpt>
      <trkpt lat="48.23888" lon="7.36062">
        <ele>315.60000610352</ele>
        <time>2021-05-23T09:15:03Z</time>
      </trkpt>
      <trkpt lat="48.23893" lon="7.36057">
        <ele>316.20001220703</ele>
        <time>2021-05-23T09:15:05Z</time>
      </trkpt>
      <trkpt lat="48.23904" lon="7.36045">
        <ele>317.60000610352</ele>
        <time>2021-05-23T09:15:10Z</time>
      </trkpt>
      <trkpt lat="48.23906" lon="7.36043">
        <ele>317.79998779297</ele>
        <time>2021-05-23T09:15:11Z</time>
      </trkpt>
      <trkpt lat="48.23912" lon="7.36037">
        <ele>318.60000610352</ele>
        <time>2021-05-23T09:15:14Z</time>
      </trkpt>
      <trkpt lat="48.23922" lon="7.36026">
        <ele>319.79998779297</ele>
        <time>2021-05-23T09:15:18Z</time>
      </trkpt>
      <trkpt lat="48.23929" lon="7.36017">
        <ele>320.20001220703</ele>
        <time>2021-05-23T09:15:21Z</time>
      </trkpt>
      <trkpt lat="48.23934" lon="7.36012">
        <ele>320.79998779297</ele>
        <time>2021-05-23T09:15:23Z</time>
      </trkpt>
      <trkpt lat="48.23944" lon="7.36002">
        <ele>322</ele>
        <time>2021-05-23T09:15:27Z</time>
      </trkpt>
      <trkpt lat="48.23958" lon="7.35985">
        <ele>323.20001220703</ele>
        <time>2021-05-23T09:15:33Z</time>
      </trkpt>
      <trkpt lat="48.23969" lon="7.35973">
        <ele>324.20001220703</ele>
        <time>2021-05-23T09:15:38Z</time>
      </trkpt>
      <trkpt lat="48.23976" lon="7.35964">
        <ele>325.39999389648</ele>
        <time>2021-05-23T09:15:41Z</time>
      </trkpt>
      <trkpt lat="48.23978" lon="7.35961">
        <ele>325.60000610352</ele>
        <time>2021-05-23T09:15:42Z</time>
      </trkpt>
      <trkpt lat="48.23985" lon="7.35952">
        <ele>326.79998779297</ele>
        <time>2021-05-23T09:15:45Z</time>
      </trkpt>
      <trkpt lat="48.23994" lon="7.35938">
        <ele>328</ele>
        <time>2021-05-23T09:15:50Z</time>
      </trkpt>
      <trkpt lat="48.23998" lon="7.35932">
        <ele>328.60000610352</ele>
        <time>2021-05-23T09:15:52Z</time>
      </trkpt>
      <trkpt lat="48.24003" lon="7.35926">
        <ele>329</ele>
        <time>2021-05-23T09:15:54Z</time>
      </trkpt>
      <trkpt lat="48.2401" lon="7.35912">
        <ele>330.20001220703</ele>
        <time>2021-05-23T09:15:58Z</time>
      </trkpt>
      <trkpt lat="48.24017" lon="7.35898">
        <ele>331.39999389648</ele>
        <time>2021-05-23T09:16:02Z</time>
      </trkpt>
      <trkpt lat="48.24024" lon="7.35889">
        <ele>332.20001220703</ele>
        <time>2021-05-23T09:16:05Z</time>
      </trkpt>
      <trkpt lat="48.24026" lon="7.35886">
        <ele>332.39999389648</ele>
        <time>2021-05-23T09:16:06Z</time>
      </trkpt>
      <trkpt lat="48.24035" lon="7.3587">
        <ele>333.39999389648</ele>
        <time>2021-05-23T09:16:10Z</time>
      </trkpt>
      <trkpt lat="48.24039" lon="7.35864">
        <ele>334</ele>
        <time>2021-05-23T09:16:12Z</time>
      </trkpt>
      <trkpt lat="48.24045" lon="7.35853">
        <ele>334.60000610352</ele>
        <time>2021-05-23T09:16:15Z</time>
      </trkpt>
      <trkpt lat="48.24052" lon="7.35839">
        <ele>335.39999389648</ele>
        <time>2021-05-23T09:16:19Z</time>
      </trkpt>
      <trkpt lat="48.24054" lon="7.35835">
        <ele>335.79998779297</ele>
        <time>2021-05-23T09:16:20Z</time>
      </trkpt>
      <trkpt lat="48.24059" lon="7.35826">
        <ele>336.39999389648</ele>
        <time>2021-05-23T09:16:23Z</time>
      </trkpt>
      <trkpt lat="48.24068" lon="7.3581">
        <ele>337.60000610352</ele>
        <time>2021-05-23T09:16:28Z</time>
      </trkpt>
      <trkpt lat="48.24069" lon="7.35806">
        <ele>338</ele>
        <time>2021-05-23T09:16:29Z</time>
      </trkpt>
      <trkpt lat="48.24074" lon="7.35797">
        <ele>338.60000610352</ele>
        <time>2021-05-23T09:16:32Z</time>
      </trkpt>
      <trkpt lat="48.24084" lon="7.35779">
        <ele>339.79998779297</ele>
        <time>2021-05-23T09:16:37Z</time>
      </trkpt>
      <trkpt lat="48.24086" lon="7.35776">
        <ele>339.79998779297</ele>
        <time>2021-05-23T09:16:38Z</time>
      </trkpt>
      <trkpt lat="48.24095" lon="7.3576">
        <ele>340.79998779297</ele>
        <time>2021-05-23T09:16:43Z</time>
      </trkpt>
      <trkpt lat="48.24097" lon="7.35757">
        <ele>341.39999389648</ele>
        <time>2021-05-23T09:16:44Z</time>
      </trkpt>
      <trkpt lat="48.24102" lon="7.35749">
        <ele>342</ele>
        <time>2021-05-23T09:16:46Z</time>
      </trkpt>
      <trkpt lat="48.24108" lon="7.35736">
        <ele>342.79998779297</ele>
        <time>2021-05-23T09:16:50Z</time>
      </trkpt>
      <trkpt lat="48.2411" lon="7.35732">
        <ele>343</ele>
        <time>2021-05-23T09:16:51Z</time>
      </trkpt>
      <trkpt lat="48.24114" lon="7.35725">
        <ele>343.60000610352</ele>
        <time>2021-05-23T09:16:53Z</time>
      </trkpt>
      <trkpt lat="48.24115" lon="7.35721">
        <ele>343.79998779297</ele>
        <time>2021-05-23T09:16:54Z</time>
      </trkpt>
      <trkpt lat="48.24121" lon="7.35708">
        <ele>345.39999389648</ele>
        <time>2021-05-23T09:16:58Z</time>
      </trkpt>
      <trkpt lat="48.24128" lon="7.35698">
        <ele>346.39999389648</ele>
        <time>2021-05-23T09:17:02Z</time>
      </trkpt>
      <trkpt lat="48.24141" lon="7.35689">
        <ele>347.79998779297</ele>
        <time>2021-05-23T09:17:07Z</time>
      </trkpt>
      <trkpt lat="48.24147" lon="7.35687">
        <ele>348.20001220703</ele>
        <time>2021-05-23T09:17:09Z</time>
      </trkpt>
      <trkpt lat="48.24156" lon="7.35686">
        <ele>348.79998779297</ele>
        <time>2021-05-23T09:17:12Z</time>
      </trkpt>
      <trkpt lat="48.24169" lon="7.35688">
        <ele>350</ele>
        <time>2021-05-23T09:17:17Z</time>
      </trkpt>
      <trkpt lat="48.24176" lon="7.35687">
        <ele>351.20001220703</ele>
        <time>2021-05-23T09:17:20Z</time>
      </trkpt>
      <trkpt lat="48.24189" lon="7.35682">
        <ele>352.20001220703</ele>
        <time>2021-05-23T09:17:24Z</time>
      </trkpt>
      <trkpt lat="48.24199" lon="7.35671">
        <ele>353.39999389648</ele>
        <time>2021-05-23T09:17:28Z</time>
      </trkpt>
      <trkpt lat="48.24202" lon="7.35664">
        <ele>354.20001220703</ele>
        <time>2021-05-23T09:17:30Z</time>
      </trkpt>
      <trkpt lat="48.24204" lon="7.35661">
        <ele>354.39999389648</ele>
        <time>2021-05-23T09:17:31Z</time>
      </trkpt>
      <trkpt lat="48.24204" lon="7.35659">
        <ele>354.60000610352</ele>
        <time>2021-05-23T09:17:32Z</time>
      </trkpt>
      <trkpt lat="48.24205" lon="7.35657">
        <ele>354.60000610352</ele>
        <time>2021-05-23T09:17:33Z</time>
      </trkpt>
      <trkpt lat="48.24205" lon="7.35653">
        <ele>354.79998779297</ele>
        <time>2021-05-23T09:17:34Z</time>
      </trkpt>
      <trkpt lat="48.24202" lon="7.35645">
        <ele>355</ele>
        <time>2021-05-23T09:17:36Z</time>
      </trkpt>
      <trkpt lat="48.24199" lon="7.3564">
        <ele>355.20001220703</ele>
        <time>2021-05-23T09:17:37Z</time>
      </trkpt>
      <trkpt lat="48.24192" lon="7.35633">
        <ele>355.20001220703</ele>
        <time>2021-05-23T09:17:39Z</time>
      </trkpt>
      <trkpt lat="48.24179" lon="7.35631">
        <ele>355.60000610352</ele>
        <time>2021-05-23T09:17:42Z</time>
      </trkpt>
      <trkpt lat="48.24175" lon="7.35632">
        <ele>355.60000610352</ele>
        <time>2021-05-23T09:17:43Z</time>
      </trkpt>
      <trkpt lat="48.24161" lon="7.35639">
        <ele>356</ele>
        <time>2021-05-23T09:17:47Z</time>
      </trkpt>
      <trkpt lat="48.24159" lon="7.35641">
        <ele>356.20001220703</ele>
        <time>2021-05-23T09:17:48Z</time>
      </trkpt>
      <trkpt lat="48.24156" lon="7.35642">
        <ele>356.39999389648</ele>
        <time>2021-05-23T09:17:49Z</time>
      </trkpt>
      <trkpt lat="48.24153" lon="7.35642">
        <ele>356.60000610352</ele>
        <time>2021-05-23T09:17:50Z</time>
      </trkpt>
      <trkpt lat="48.24139" lon="7.35638">
        <ele>357.20001220703</ele>
        <time>2021-05-23T09:17:54Z</time>
      </trkpt>
      <trkpt lat="48.24132" lon="7.35633">
        <ele>357.60000610352</ele>
        <time>2021-05-23T09:17:56Z</time>
      </trkpt>
      <trkpt lat="48.24125" lon="7.35621">
        <ele>358.39999389648</ele>
        <time>2021-05-23T09:17:59Z</time>
      </trkpt>
      <trkpt lat="48.24124" lon="7.35615">
        <ele>359</ele>
        <time>2021-05-23T09:18:00Z</time>
      </trkpt>
      <trkpt lat="48.24119" lon="7.35602">
        <ele>360.20001220703</ele>
        <time>2021-05-23T09:18:03Z</time>
      </trkpt>
      <trkpt lat="48.24118" lon="7.35597">
        <ele>360.39999389648</ele>
        <time>2021-05-23T09:18:04Z</time>
      </trkpt>
      <trkpt lat="48.24114" lon="7.35584">
        <ele>361.20001220703</ele>
        <time>2021-05-23T09:18:07Z</time>
      </trkpt>
      <trkpt lat="48.24113" lon="7.35582">
        <ele>361.60000610352</ele>
        <time>2021-05-23T09:18:08Z</time>
      </trkpt>
      <trkpt lat="48.24111" lon="7.3558">
        <ele>362.20001220703</ele>
        <time>2021-05-23T09:18:09Z</time>
      </trkpt>
      <trkpt lat="48.2411" lon="7.35578">
        <ele>362.60000610352</ele>
        <time>2021-05-23T09:18:10Z</time>
      </trkpt>
      <trkpt lat="48.24101" lon="7.35571">
        <ele>363.20001220703</ele>
        <time>2021-05-23T09:18:13Z</time>
      </trkpt>
      <trkpt lat="48.24098" lon="7.3557">
        <ele>363.60000610352</ele>
        <time>2021-05-23T09:18:14Z</time>
      </trkpt>
      <trkpt lat="48.24085" lon="7.35568">
        <ele>364.39999389648</ele>
        <time>2021-05-23T09:18:18Z</time>
      </trkpt>
      <trkpt lat="48.24081" lon="7.35568">
        <ele>364.60000610352</ele>
        <time>2021-05-23T09:18:19Z</time>
      </trkpt>
      <trkpt lat="48.24071" lon="7.35571">
        <ele>365.39999389648</ele>
        <time>2021-05-23T09:18:22Z</time>
      </trkpt>
      <trkpt lat="48.24067" lon="7.35573">
        <ele>365.79998779297</ele>
        <time>2021-05-23T09:18:23Z</time>
      </trkpt>
      <trkpt lat="48.24052" lon="7.35576">
        <ele>367.20001220703</ele>
        <time>2021-05-23T09:18:28Z</time>
      </trkpt>
      <trkpt lat="48.24049" lon="7.35575">
        <ele>367.20001220703</ele>
        <time>2021-05-23T09:18:29Z</time>
      </trkpt>
      <trkpt lat="48.24034" lon="7.35565">
        <ele>368</ele>
        <time>2021-05-23T09:18:34Z</time>
      </trkpt>
      <trkpt lat="48.24032" lon="7.35561">
        <ele>368.39999389648</ele>
        <time>2021-05-23T09:18:35Z</time>
      </trkpt>
      <trkpt lat="48.24027" lon="7.35549">
        <ele>369</ele>
        <time>2021-05-23T09:18:38Z</time>
      </trkpt>
      <trkpt lat="48.24027" lon="7.35542">
        <ele>369.79998779297</ele>
        <time>2021-05-23T09:18:40Z</time>
      </trkpt>
      <trkpt lat="48.2403" lon="7.35523">
        <ele>371</ele>
        <time>2021-05-23T09:18:45Z</time>
      </trkpt>
      <trkpt lat="48.24036" lon="7.355">
        <ele>372.20001220703</ele>
        <time>2021-05-23T09:18:51Z</time>
      </trkpt>
      <trkpt lat="48.24038" lon="7.35487">
        <ele>373.39999389648</ele>
        <time>2021-05-23T09:18:54Z</time>
      </trkpt>
      <trkpt lat="48.24043" lon="7.35468">
        <ele>374.20001220703</ele>
        <time>2021-05-23T09:18:59Z</time>
      </trkpt>
      <trkpt lat="48.24043" lon="7.35465">
        <ele>374.39999389648</ele>
        <time>2021-05-23T09:19:00Z</time>
      </trkpt>
      <trkpt lat="48.24048" lon="7.35446">
        <ele>375.60000610352</ele>
        <time>2021-05-23T09:19:05Z</time>
      </trkpt>
      <trkpt lat="48.24055" lon="7.35424">
        <ele>376.60000610352</ele>
        <time>2021-05-23T09:19:10Z</time>
      </trkpt>
      <trkpt lat="48.24059" lon="7.35415">
        <ele>377.39999389648</ele>
        <time>2021-05-23T09:19:12Z</time>
      </trkpt>
      <trkpt lat="48.24063" lon="7.35407">
        <ele>378</ele>
        <time>2021-05-23T09:19:14Z</time>
      </trkpt>
      <trkpt lat="48.24072" lon="7.35397">
        <ele>379.20001220703</ele>
        <time>2021-05-23T09:19:18Z</time>
      </trkpt>
      <trkpt lat="48.24077" lon="7.35394">
        <ele>379.60000610352</ele>
        <time>2021-05-23T09:19:20Z</time>
      </trkpt>
      <trkpt lat="48.24083" lon="7.35393">
        <ele>380.20001220703</ele>
        <time>2021-05-23T09:19:22Z</time>
      </trkpt>
      <trkpt lat="48.24092" lon="7.35392">
        <ele>380.60000610352</ele>
        <time>2021-05-23T09:19:25Z</time>
      </trkpt>
      <trkpt lat="48.24101" lon="7.3539">
        <ele>381.60000610352</ele>
        <time>2021-05-23T09:19:28Z</time>
      </trkpt>
      <trkpt lat="48.24111" lon="7.35389">
        <ele>382.39999389648</ele>
        <time>2021-05-23T09:19:31Z</time>
      </trkpt>
      <trkpt lat="48.24114" lon="7.35388">
        <ele>382.60000610352</ele>
        <time>2021-05-23T09:19:32Z</time>
      </trkpt>
      <trkpt lat="48.24126" lon="7.35388">
        <ele>383.60000610352</ele>
        <time>2021-05-23T09:19:36Z</time>
      </trkpt>
      <trkpt lat="48.24131" lon="7.35388">
        <ele>383.79998779297</ele>
        <time>2021-05-23T09:19:38Z</time>
      </trkpt>
      <trkpt lat="48.24139" lon="7.3539">
        <ele>384.79998779297</ele>
        <time>2021-05-23T09:19:41Z</time>
      </trkpt>
      <trkpt lat="48.2415" lon="7.35393">
        <ele>385.79998779297</ele>
        <time>2021-05-23T09:19:45Z</time>
      </trkpt>
      <trkpt lat="48.24164" lon="7.354">
        <ele>387</ele>
        <time>2021-05-23T09:19:50Z</time>
      </trkpt>
      <trkpt lat="48.24169" lon="7.35404">
        <ele>387.60000610352</ele>
        <time>2021-05-23T09:19:52Z</time>
      </trkpt>
      <trkpt lat="48.24174" lon="7.35408">
        <ele>387.60000610352</ele>
        <time>2021-05-23T09:19:54Z</time>
      </trkpt>
      <trkpt lat="48.24179" lon="7.35413">
        <ele>388.20001220703</ele>
        <time>2021-05-23T09:19:56Z</time>
      </trkpt>
      <trkpt lat="48.24189" lon="7.35421">
        <ele>389.20001220703</ele>
        <time>2021-05-23T09:20:00Z</time>
      </trkpt>
      <trkpt lat="48.24191" lon="7.35424">
        <ele>389.39999389648</ele>
        <time>2021-05-23T09:20:01Z</time>
      </trkpt>
      <trkpt lat="48.24199" lon="7.35437">
        <ele>390.39999389648</ele>
        <time>2021-05-23T09:20:05Z</time>
      </trkpt>
      <trkpt lat="48.24206" lon="7.35446">
        <ele>391</ele>
        <time>2021-05-23T09:20:08Z</time>
      </trkpt>
      <trkpt lat="48.24211" lon="7.3545">
        <ele>391.60000610352</ele>
        <time>2021-05-23T09:20:10Z</time>
      </trkpt>
      <trkpt lat="48.24217" lon="7.35453">
        <ele>392.20001220703</ele>
        <time>2021-05-23T09:20:12Z</time>
      </trkpt>
      <trkpt lat="48.24226" lon="7.35452">
        <ele>392.79998779297</ele>
        <time>2021-05-23T09:20:15Z</time>
      </trkpt>
      <trkpt lat="48.24229" lon="7.35451">
        <ele>393</ele>
        <time>2021-05-23T09:20:16Z</time>
      </trkpt>
      <trkpt lat="48.24238" lon="7.3544">
        <ele>394</ele>
        <time>2021-05-23T09:20:20Z</time>
      </trkpt>
      <trkpt lat="48.24239" lon="7.35435">
        <ele>394</ele>
        <time>2021-05-23T09:20:21Z</time>
      </trkpt>
      <trkpt lat="48.24239" lon="7.35417">
        <ele>394.79998779297</ele>
        <time>2021-05-23T09:20:26Z</time>
      </trkpt>
      <trkpt lat="48.24238" lon="7.3541">
        <ele>395</ele>
        <time>2021-05-23T09:20:28Z</time>
      </trkpt>
      <trkpt lat="48.24232" lon="7.35399">
        <ele>395.39999389648</ele>
        <time>2021-05-23T09:20:31Z</time>
      </trkpt>
      <trkpt lat="48.24224" lon="7.35384">
        <ele>396</ele>
        <time>2021-05-23T09:20:35Z</time>
      </trkpt>
      <trkpt lat="48.24221" lon="7.35376">
        <ele>396.60000610352</ele>
        <time>2021-05-23T09:20:37Z</time>
      </trkpt>
      <trkpt lat="48.24214" lon="7.35362">
        <ele>397.20001220703</ele>
        <time>2021-05-23T09:20:41Z</time>
      </trkpt>
      <trkpt lat="48.24212" lon="7.35353">
        <ele>397.39999389648</ele>
        <time>2021-05-23T09:20:43Z</time>
      </trkpt>
      <trkpt lat="48.24209" lon="7.35341">
        <ele>398</ele>
        <time>2021-05-23T09:20:46Z</time>
      </trkpt>
      <trkpt lat="48.24208" lon="7.35337">
        <ele>398</ele>
        <time>2021-05-23T09:20:47Z</time>
      </trkpt>
      <trkpt lat="48.24208" lon="7.35333">
        <ele>398.20001220703</ele>
        <time>2021-05-23T09:20:48Z</time>
      </trkpt>
      <trkpt lat="48.24209" lon="7.35324">
        <ele>398.79998779297</ele>
        <time>2021-05-23T09:20:50Z</time>
      </trkpt>
      <trkpt lat="48.24208" lon="7.35318">
        <ele>399.20001220703</ele>
        <time>2021-05-23T09:20:52Z</time>
      </trkpt>
      <trkpt lat="48.24207" lon="7.35298">
        <ele>400.60000610352</ele>
        <time>2021-05-23T09:20:57Z</time>
      </trkpt>
      <trkpt lat="48.24207" lon="7.35294">
        <ele>400.79998779297</ele>
        <time>2021-05-23T09:20:58Z</time>
      </trkpt>
      <trkpt lat="48.2421" lon="7.35267">
        <ele>401.79998779297</ele>
        <time>2021-05-23T09:21:04Z</time>
      </trkpt>
      <trkpt lat="48.24215" lon="7.35249">
        <ele>403</ele>
        <time>2021-05-23T09:21:08Z</time>
      </trkpt>
      <trkpt lat="48.24218" lon="7.3524">
        <ele>403.60000610352</ele>
        <time>2021-05-23T09:21:10Z</time>
      </trkpt>
      <trkpt lat="48.24222" lon="7.35225">
        <ele>404.20001220703</ele>
        <time>2021-05-23T09:21:13Z</time>
      </trkpt>
      <trkpt lat="48.24225" lon="7.35209">
        <ele>405.39999389648</ele>
        <time>2021-05-23T09:21:17Z</time>
      </trkpt>
      <trkpt lat="48.24227" lon="7.35199">
        <ele>406</ele>
        <time>2021-05-23T09:21:19Z</time>
      </trkpt>
      <trkpt lat="48.24228" lon="7.35183">
        <ele>406.79998779297</ele>
        <time>2021-05-23T09:21:22Z</time>
      </trkpt>
      <trkpt lat="48.24228" lon="7.35179">
        <ele>406.79998779297</ele>
        <time>2021-05-23T09:21:23Z</time>
      </trkpt>
      <trkpt lat="48.24228" lon="7.35163">
        <ele>407.79998779297</ele>
        <time>2021-05-23T09:21:26Z</time>
      </trkpt>
      <trkpt lat="48.2423" lon="7.3514">
        <ele>409</ele>
        <time>2021-05-23T09:21:31Z</time>
      </trkpt>
      <trkpt lat="48.24229" lon="7.35135">
        <ele>409</ele>
        <time>2021-05-23T09:21:32Z</time>
      </trkpt>
      <trkpt lat="48.24228" lon="7.35113">
        <ele>409.79998779297</ele>
        <time>2021-05-23T09:21:37Z</time>
      </trkpt>
      <trkpt lat="48.24228" lon="7.35105">
        <ele>410.20001220703</ele>
        <time>2021-05-23T09:21:39Z</time>
      </trkpt>
      <trkpt lat="48.24226" lon="7.35097">
        <ele>410.79998779297</ele>
        <time>2021-05-23T09:21:41Z</time>
      </trkpt>
      <trkpt lat="48.24224" lon="7.35081">
        <ele>411.60000610352</ele>
        <time>2021-05-23T09:21:45Z</time>
      </trkpt>
      <trkpt lat="48.24223" lon="7.35073">
        <ele>412.20001220703</ele>
        <time>2021-05-23T09:21:47Z</time>
      </trkpt>
      <trkpt lat="48.24222" lon="7.35053">
        <ele>413</ele>
        <time>2021-05-23T09:21:52Z</time>
      </trkpt>
      <trkpt lat="48.24222" lon="7.35049">
        <ele>413.20001220703</ele>
        <time>2021-05-23T09:21:53Z</time>
      </trkpt>
      <trkpt lat="48.24222" lon="7.35029">
        <ele>414.39999389648</ele>
        <time>2021-05-23T09:21:58Z</time>
      </trkpt>
      <trkpt lat="48.24222" lon="7.35014">
        <ele>415.39999389648</ele>
        <time>2021-05-23T09:22:02Z</time>
      </trkpt>
      <trkpt lat="48.24223" lon="7.35006">
        <ele>415.79998779297</ele>
        <time>2021-05-23T09:22:04Z</time>
      </trkpt>
      <trkpt lat="48.24223" lon="7.35003">
        <ele>416</ele>
        <time>2021-05-23T09:22:05Z</time>
      </trkpt>
      <trkpt lat="48.24225" lon="7.34995">
        <ele>416.60000610352</ele>
        <time>2021-05-23T09:22:08Z</time>
      </trkpt>
      <trkpt lat="48.24226" lon="7.34989">
        <ele>417</ele>
        <time>2021-05-23T09:22:10Z</time>
      </trkpt>
      <trkpt lat="48.24227" lon="7.34981">
        <ele>417.79998779297</ele>
        <time>2021-05-23T09:22:13Z</time>
      </trkpt>
      <trkpt lat="48.24229" lon="7.34974">
        <ele>418.60000610352</ele>
        <time>2021-05-23T09:22:15Z</time>
      </trkpt>
      <trkpt lat="48.2423" lon="7.34966">
        <ele>419</ele>
        <time>2021-05-23T09:22:17Z</time>
      </trkpt>
      <trkpt lat="48.24234" lon="7.34952">
        <ele>419.79998779297</ele>
        <time>2021-05-23T09:22:21Z</time>
      </trkpt>
      <trkpt lat="48.24236" lon="7.34944">
        <ele>420</ele>
        <time>2021-05-23T09:22:23Z</time>
      </trkpt>
      <trkpt lat="48.2424" lon="7.34922">
        <ele>421.20001220703</ele>
        <time>2021-05-23T09:22:28Z</time>
      </trkpt>
      <trkpt lat="48.24246" lon="7.34892">
        <ele>422.39999389648</ele>
        <time>2021-05-23T09:22:34Z</time>
      </trkpt>
      <trkpt lat="48.24247" lon="7.34887">
        <ele>422.79998779297</ele>
        <time>2021-05-23T09:22:35Z</time>
      </trkpt>
      <trkpt lat="48.24247" lon="7.34871">
        <ele>423.60000610352</ele>
        <time>2021-05-23T09:22:38Z</time>
      </trkpt>
      <trkpt lat="48.2425" lon="7.34849">
        <ele>424.39999389648</ele>
        <time>2021-05-23T09:22:42Z</time>
      </trkpt>
      <trkpt lat="48.24251" lon="7.34841">
        <ele>424.79998779297</ele>
        <time>2021-05-23T09:22:44Z</time>
      </trkpt>
      <trkpt lat="48.2426" lon="7.34825">
        <ele>425.20001220703</ele>
        <time>2021-05-23T09:22:48Z</time>
      </trkpt>
      <trkpt lat="48.24274" lon="7.34821">
        <ele>425.60000610352</ele>
        <time>2021-05-23T09:22:53Z</time>
      </trkpt>
      <trkpt lat="48.24277" lon="7.34822">
        <ele>426.20001220703</ele>
        <time>2021-05-23T09:22:54Z</time>
      </trkpt>
      <trkpt lat="48.24284" lon="7.3483">
        <ele>427.20001220703</ele>
        <time>2021-05-23T09:22:57Z</time>
      </trkpt>
      <trkpt lat="48.24285" lon="7.34833">
        <ele>427.39999389648</ele>
        <time>2021-05-23T09:22:58Z</time>
      </trkpt>
      <trkpt lat="48.24288" lon="7.34852">
        <ele>428.39999389648</ele>
        <time>2021-05-23T09:23:02Z</time>
      </trkpt>
      <trkpt lat="48.24281" lon="7.34875">
        <ele>429.39999389648</ele>
        <time>2021-05-23T09:23:07Z</time>
      </trkpt>
      <trkpt lat="48.24279" lon="7.34878">
        <ele>429.39999389648</ele>
        <time>2021-05-23T09:23:08Z</time>
      </trkpt>
      <trkpt lat="48.2427" lon="7.34904">
        <ele>430.39999389648</ele>
        <time>2021-05-23T09:23:14Z</time>
      </trkpt>
      <trkpt lat="48.2427" lon="7.34909">
        <ele>430.60000610352</ele>
        <time>2021-05-23T09:23:15Z</time>
      </trkpt>
      <trkpt lat="48.2427" lon="7.34929">
        <ele>431.60000610352</ele>
        <time>2021-05-23T09:23:19Z</time>
      </trkpt>
      <trkpt lat="48.24271" lon="7.34934">
        <ele>431.79998779297</ele>
        <time>2021-05-23T09:23:20Z</time>
      </trkpt>
      <trkpt lat="48.24272" lon="7.34943">
        <ele>432.20001220703</ele>
        <time>2021-05-23T09:23:22Z</time>
      </trkpt>
      <trkpt lat="48.24272" lon="7.34948">
        <ele>432.20001220703</ele>
        <time>2021-05-23T09:23:23Z</time>
      </trkpt>
      <trkpt lat="48.24276" lon="7.34967">
        <ele>432.79998779297</ele>
        <time>2021-05-23T09:23:27Z</time>
      </trkpt>
      <trkpt lat="48.24283" lon="7.34981">
        <ele>433.60000610352</ele>
        <time>2021-05-23T09:23:30Z</time>
      </trkpt>
      <trkpt lat="48.24286" lon="7.34988">
        <ele>434</ele>
        <time>2021-05-23T09:23:32Z</time>
      </trkpt>
      <trkpt lat="48.24292" lon="7.35006">
        <ele>434.79998779297</ele>
        <time>2021-05-23T09:23:36Z</time>
      </trkpt>
      <trkpt lat="48.24293" lon="7.35009">
        <ele>435</ele>
        <time>2021-05-23T09:23:37Z</time>
      </trkpt>
      <trkpt lat="48.24295" lon="7.35018">
        <ele>435.39999389648</ele>
        <time>2021-05-23T09:23:39Z</time>
      </trkpt>
      <trkpt lat="48.24302" lon="7.35034">
        <ele>436.20001220703</ele>
        <time>2021-05-23T09:23:43Z</time>
      </trkpt>
      <trkpt lat="48.24307" lon="7.35046">
        <ele>436.79998779297</ele>
        <time>2021-05-23T09:23:46Z</time>
      </trkpt>
      <trkpt lat="48.24309" lon="7.35049">
        <ele>437.20001220703</ele>
        <time>2021-05-23T09:23:47Z</time>
      </trkpt>
      <trkpt lat="48.24314" lon="7.35061">
        <ele>438.20001220703</ele>
        <time>2021-05-23T09:23:50Z</time>
      </trkpt>
      <trkpt lat="48.24316" lon="7.35064">
        <ele>438.39999389648</ele>
        <time>2021-05-23T09:23:51Z</time>
      </trkpt>
      <trkpt lat="48.24324" lon="7.35085">
        <ele>439.39999389648</ele>
        <time>2021-05-23T09:23:56Z</time>
      </trkpt>
      <trkpt lat="48.24325" lon="7.35088">
        <ele>439.79998779297</ele>
        <time>2021-05-23T09:23:57Z</time>
      </trkpt>
      <trkpt lat="48.2433" lon="7.35096">
        <ele>440.60000610352</ele>
        <time>2021-05-23T09:24:00Z</time>
      </trkpt>
      <trkpt lat="48.24334" lon="7.35102">
        <ele>441.39999389648</ele>
        <time>2021-05-23T09:24:02Z</time>
      </trkpt>
      <trkpt lat="48.24339" lon="7.35107">
        <ele>442</ele>
        <time>2021-05-23T09:24:04Z</time>
      </trkpt>
      <trkpt lat="48.24348" lon="7.35114">
        <ele>442.60000610352</ele>
        <time>2021-05-23T09:24:07Z</time>
      </trkpt>
      <trkpt lat="48.24351" lon="7.35116">
        <ele>443</ele>
        <time>2021-05-23T09:24:08Z</time>
      </trkpt>
      <trkpt lat="48.24364" lon="7.3513">
        <ele>444.20001220703</ele>
        <time>2021-05-23T09:24:13Z</time>
      </trkpt>
      <trkpt lat="48.24367" lon="7.35132">
        <ele>444.39999389648</ele>
        <time>2021-05-23T09:24:14Z</time>
      </trkpt>
      <trkpt lat="48.24379" lon="7.35139">
        <ele>445.39999389648</ele>
        <time>2021-05-23T09:24:18Z</time>
      </trkpt>
      <trkpt lat="48.24383" lon="7.3514">
        <ele>445.79998779297</ele>
        <time>2021-05-23T09:24:20Z</time>
      </trkpt>
      <trkpt lat="48.2439" lon="7.35141">
        <ele>446.60000610352</ele>
        <time>2021-05-23T09:24:23Z</time>
      </trkpt>
      <trkpt lat="48.24397" lon="7.35139">
        <ele>447</ele>
        <time>2021-05-23T09:24:25Z</time>
      </trkpt>
      <trkpt lat="48.24408" lon="7.35127">
        <ele>447.79998779297</ele>
        <time>2021-05-23T09:24:30Z</time>
      </trkpt>
      <trkpt lat="48.24412" lon="7.35113">
        <ele>448.60000610352</ele>
        <time>2021-05-23T09:24:35Z</time>
      </trkpt>
      <trkpt lat="48.24412" lon="7.3511">
        <ele>449</ele>
        <time>2021-05-23T09:24:36Z</time>
      </trkpt>
      <trkpt lat="48.24412" lon="7.35098">
        <ele>449.60000610352</ele>
        <time>2021-05-23T09:24:39Z</time>
      </trkpt>
      <trkpt lat="48.24413" lon="7.35091">
        <ele>449.79998779297</ele>
        <time>2021-05-23T09:24:40Z</time>
      </trkpt>
      <trkpt lat="48.24412" lon="7.35086">
        <ele>450</ele>
        <time>2021-05-23T09:24:41Z</time>
      </trkpt>
      <trkpt lat="48.24409" lon="7.35078">
        <ele>450.60000610352</ele>
        <time>2021-05-23T09:24:43Z</time>
      </trkpt>
      <trkpt lat="48.24407" lon="7.35075">
        <ele>450.60000610352</ele>
        <time>2021-05-23T09:24:44Z</time>
      </trkpt>
      <trkpt lat="48.24398" lon="7.3507">
        <ele>450.79998779297</ele>
        <time>2021-05-23T09:24:46Z</time>
      </trkpt>
      <trkpt lat="48.24395" lon="7.35068">
        <ele>451</ele>
        <time>2021-05-23T09:24:47Z</time>
      </trkpt>
      <trkpt lat="48.24382" lon="7.35061">
        <ele>451.60000610352</ele>
        <time>2021-05-23T09:24:50Z</time>
      </trkpt>
      <trkpt lat="48.2438" lon="7.35058">
        <ele>451.60000610352</ele>
        <time>2021-05-23T09:24:51Z</time>
      </trkpt>
      <trkpt lat="48.24372" lon="7.35052">
        <ele>452.20001220703</ele>
        <time>2021-05-23T09:24:53Z</time>
      </trkpt>
      <trkpt lat="48.24368" lon="7.35049">
        <ele>452.39999389648</ele>
        <time>2021-05-23T09:24:54Z</time>
      </trkpt>
      <trkpt lat="48.24364" lon="7.35046">
        <ele>452.60000610352</ele>
        <time>2021-05-23T09:24:55Z</time>
      </trkpt>
      <trkpt lat="48.24356" lon="7.35034">
        <ele>453.39999389648</ele>
        <time>2021-05-23T09:24:58Z</time>
      </trkpt>
      <trkpt lat="48.24353" lon="7.35025">
        <ele>453.79998779297</ele>
        <time>2021-05-23T09:25:00Z</time>
      </trkpt>
      <trkpt lat="48.24351" lon="7.35014">
        <ele>454.20001220703</ele>
        <time>2021-05-23T09:25:03Z</time>
      </trkpt>
      <trkpt lat="48.24352" lon="7.35011">
        <ele>454.60000610352</ele>
        <time>2021-05-23T09:25:04Z</time>
      </trkpt>
      <trkpt lat="48.24356" lon="7.35">
        <ele>455.39999389648</ele>
        <time>2021-05-23T09:25:08Z</time>
      </trkpt>
      <trkpt lat="48.24356" lon="7.34997">
        <ele>455.60000610352</ele>
        <time>2021-05-23T09:25:09Z</time>
      </trkpt>
      <trkpt lat="48.24357" lon="7.34993">
        <ele>455.79998779297</ele>
        <time>2021-05-23T09:25:10Z</time>
      </trkpt>
      <trkpt lat="48.24361" lon="7.34983">
        <ele>456.60000610352</ele>
        <time>2021-05-23T09:25:13Z</time>
      </trkpt>
      <trkpt lat="48.24366" lon="7.3497">
        <ele>457.60000610352</ele>
        <time>2021-05-23T09:25:17Z</time>
      </trkpt>
      <trkpt lat="48.24368" lon="7.34967">
        <ele>458</ele>
        <time>2021-05-23T09:25:18Z</time>
      </trkpt>
      <trkpt lat="48.24374" lon="7.34948">
        <ele>459</ele>
        <time>2021-05-23T09:25:22Z</time>
      </trkpt>
      <trkpt lat="48.24375" lon="7.34944">
        <ele>459.39999389648</ele>
        <time>2021-05-23T09:25:23Z</time>
      </trkpt>
      <trkpt lat="48.2438" lon="7.34921">
        <ele>460.60000610352</ele>
        <time>2021-05-23T09:25:27Z</time>
      </trkpt>
      <trkpt lat="48.24381" lon="7.3491">
        <ele>461</ele>
        <time>2021-05-23T09:25:29Z</time>
      </trkpt>
      <trkpt lat="48.24387" lon="7.3489">
        <ele>461.60000610352</ele>
        <time>2021-05-23T09:25:34Z</time>
      </trkpt>
      <trkpt lat="48.24392" lon="7.34867">
        <ele>463</ele>
        <time>2021-05-23T09:25:39Z</time>
      </trkpt>
      <trkpt lat="48.24395" lon="7.3485">
        <ele>464</ele>
        <time>2021-05-23T09:25:43Z</time>
      </trkpt>
      <trkpt lat="48.24397" lon="7.34831">
        <ele>465.20001220703</ele>
        <time>2021-05-23T09:25:47Z</time>
      </trkpt>
      <trkpt lat="48.24398" lon="7.34817">
        <ele>466</ele>
        <time>2021-05-23T09:25:50Z</time>
      </trkpt>
      <trkpt lat="48.24398" lon="7.34809">
        <ele>466.60000610352</ele>
        <time>2021-05-23T09:25:52Z</time>
      </trkpt>
      <trkpt lat="48.244" lon="7.34792">
        <ele>467.39999389648</ele>
        <time>2021-05-23T09:25:55Z</time>
      </trkpt>
      <trkpt lat="48.24401" lon="7.34788">
        <ele>467.60000610352</ele>
        <time>2021-05-23T09:25:57Z</time>
      </trkpt>
      <trkpt lat="48.24402" lon="7.34771">
        <ele>468.60000610352</ele>
        <time>2021-05-23T09:26:01Z</time>
      </trkpt>
      <trkpt lat="48.24407" lon="7.34745">
        <ele>469.60000610352</ele>
        <time>2021-05-23T09:26:07Z</time>
      </trkpt>
      <trkpt lat="48.24408" lon="7.34742">
        <ele>470</ele>
        <time>2021-05-23T09:26:08Z</time>
      </trkpt>
      <trkpt lat="48.24415" lon="7.34726">
        <ele>470.79998779297</ele>
        <time>2021-05-23T09:26:11Z</time>
      </trkpt>
      <trkpt lat="48.24421" lon="7.3471">
        <ele>471.60000610352</ele>
        <time>2021-05-23T09:26:15Z</time>
      </trkpt>
      <trkpt lat="48.24421" lon="7.3471">
        <ele>472</ele>
        <time>2021-05-23T09:26:16Z</time>
      </trkpt>
      <trkpt lat="48.2443" lon="7.34691">
        <ele>473.20001220703</ele>
        <time>2021-05-23T09:26:20Z</time>
      </trkpt>
      <trkpt lat="48.24432" lon="7.34687">
        <ele>473.60000610352</ele>
        <time>2021-05-23T09:26:22Z</time>
      </trkpt>
      <trkpt lat="48.24436" lon="7.34678">
        <ele>474.60000610352</ele>
        <time>2021-05-23T09:26:25Z</time>
      </trkpt>
      <trkpt lat="48.24441" lon="7.34665">
        <ele>475.60000610352</ele>
        <time>2021-05-23T09:26:29Z</time>
      </trkpt>
      <trkpt lat="48.24442" lon="7.34661">
        <ele>475.79998779297</ele>
        <time>2021-05-23T09:26:30Z</time>
      </trkpt>
      <trkpt lat="48.24442" lon="7.3465">
        <ele>476.60000610352</ele>
        <time>2021-05-23T09:26:34Z</time>
      </trkpt>
      <trkpt lat="48.2444" lon="7.34637">
        <ele>477.20001220703</ele>
        <time>2021-05-23T09:26:36Z</time>
      </trkpt>
      <trkpt lat="48.24438" lon="7.34633">
        <ele>477.79998779297</ele>
        <time>2021-05-23T09:26:38Z</time>
      </trkpt>
      <trkpt lat="48.24425" lon="7.34609">
        <ele>479.20001220703</ele>
        <time>2021-05-23T09:26:43Z</time>
      </trkpt>
      <trkpt lat="48.24424" lon="7.34606">
        <ele>479.39999389648</ele>
        <time>2021-05-23T09:26:44Z</time>
      </trkpt>
      <trkpt lat="48.24413" lon="7.34586">
        <ele>480.20001220703</ele>
        <time>2021-05-23T09:26:49Z</time>
      </trkpt>
      <trkpt lat="48.24411" lon="7.34577">
        <ele>480.39999389648</ele>
        <time>2021-05-23T09:26:51Z</time>
      </trkpt>
      <trkpt lat="48.24408" lon="7.3456">
        <ele>481.39999389648</ele>
        <time>2021-05-23T09:26:55Z</time>
      </trkpt>
      <trkpt lat="48.24406" lon="7.34553">
        <ele>481.79998779297</ele>
        <time>2021-05-23T09:26:58Z</time>
      </trkpt>
      <trkpt lat="48.24405" lon="7.34547">
        <ele>482.39999389648</ele>
        <time>2021-05-23T09:27:00Z</time>
      </trkpt>
      <trkpt lat="48.24404" lon="7.34542">
        <ele>482.60000610352</ele>
        <time>2021-05-23T09:27:01Z</time>
      </trkpt>
      <trkpt lat="48.24405" lon="7.34538">
        <ele>482.79998779297</ele>
        <time>2021-05-23T09:27:03Z</time>
      </trkpt>
      <trkpt lat="48.24405" lon="7.34529">
        <ele>483.60000610352</ele>
        <time>2021-05-23T09:27:06Z</time>
      </trkpt>
      <trkpt lat="48.24407" lon="7.3452">
        <ele>484.79998779297</ele>
        <time>2021-05-23T09:27:09Z</time>
      </trkpt>
      <trkpt lat="48.24408" lon="7.34516">
        <ele>484.79998779297</ele>
        <time>2021-05-23T09:27:10Z</time>
      </trkpt>
      <trkpt lat="48.24411" lon="7.34505">
        <ele>485.79998779297</ele>
        <time>2021-05-23T09:27:14Z</time>
      </trkpt>
      <trkpt lat="48.24412" lon="7.34495">
        <ele>486.60000610352</ele>
        <time>2021-05-23T09:27:17Z</time>
      </trkpt>
      <trkpt lat="48.24412" lon="7.34495">
        <ele>487</ele>
        <time>2021-05-23T09:27:18Z</time>
      </trkpt>
      <trkpt lat="48.24415" lon="7.34473">
        <ele>488</ele>
        <time>2021-05-23T09:27:23Z</time>
      </trkpt>
      <trkpt lat="48.2442" lon="7.34457">
        <ele>488.39999389648</ele>
        <time>2021-05-23T09:27:25Z</time>
      </trkpt>
      <trkpt lat="48.24424" lon="7.3444">
        <ele>489.20001220703</ele>
        <time>2021-05-23T09:27:28Z</time>
      </trkpt>
      <trkpt lat="48.24426" lon="7.34418">
        <ele>490.20001220703</ele>
        <time>2021-05-23T09:27:32Z</time>
      </trkpt>
      <trkpt lat="48.24427" lon="7.34407">
        <ele>490.60000610352</ele>
        <time>2021-05-23T09:27:34Z</time>
      </trkpt>
      <trkpt lat="48.24424" lon="7.34395">
        <ele>491.39999389648</ele>
        <time>2021-05-23T09:27:37Z</time>
      </trkpt>
      <trkpt lat="48.24423" lon="7.34385">
        <ele>491.79998779297</ele>
        <time>2021-05-23T09:27:40Z</time>
      </trkpt>
      <trkpt lat="48.24421" lon="7.34371">
        <ele>492.39999389648</ele>
        <time>2021-05-23T09:27:43Z</time>
      </trkpt>
      <trkpt lat="48.24417" lon="7.34351">
        <ele>493</ele>
        <time>2021-05-23T09:27:47Z</time>
      </trkpt>
      <trkpt lat="48.24417" lon="7.34351">
        <ele>493.39999389648</ele>
        <time>2021-05-23T09:27:48Z</time>
      </trkpt>
      <trkpt lat="48.24407" lon="7.34328">
        <ele>494.39999389648</ele>
        <time>2021-05-23T09:27:52Z</time>
      </trkpt>
      <trkpt lat="48.24405" lon="7.34319">
        <ele>495</ele>
        <time>2021-05-23T09:27:54Z</time>
      </trkpt>
      <trkpt lat="48.24405" lon="7.34309">
        <ele>495.39999389648</ele>
        <time>2021-05-23T09:27:56Z</time>
      </trkpt>
      <trkpt lat="48.244" lon="7.34296">
        <ele>496.79998779297</ele>
        <time>2021-05-23T09:28:00Z</time>
      </trkpt>
      <trkpt lat="48.24395" lon="7.34274">
        <ele>497.60000610352</ele>
        <time>2021-05-23T09:28:05Z</time>
      </trkpt>
      <trkpt lat="48.24394" lon="7.34271">
        <ele>497.79998779297</ele>
        <time>2021-05-23T09:28:06Z</time>
      </trkpt>
      <trkpt lat="48.24396" lon="7.34257">
        <ele>498.60000610352</ele>
        <time>2021-05-23T09:28:09Z</time>
      </trkpt>
      <trkpt lat="48.24397" lon="7.34248">
        <ele>499.20001220703</ele>
        <time>2021-05-23T09:28:11Z</time>
      </trkpt>
      <trkpt lat="48.244" lon="7.34231">
        <ele>500.39999389648</ele>
        <time>2021-05-23T09:28:15Z</time>
      </trkpt>
      <trkpt lat="48.24403" lon="7.34223">
        <ele>501.20001220703</ele>
        <time>2021-05-23T09:28:17Z</time>
      </trkpt>
      <trkpt lat="48.24405" lon="7.34219">
        <ele>501.60000610352</ele>
        <time>2021-05-23T09:28:18Z</time>
      </trkpt>
      <trkpt lat="48.2441" lon="7.34211">
        <ele>502.20001220703</ele>
        <time>2021-05-23T09:28:21Z</time>
      </trkpt>
      <trkpt lat="48.2441" lon="7.34208">
        <ele>502.79998779297</ele>
        <time>2021-05-23T09:28:22Z</time>
      </trkpt>
      <trkpt lat="48.24411" lon="7.34203">
        <ele>503.39999389648</ele>
        <time>2021-05-23T09:28:24Z</time>
      </trkpt>
      <trkpt lat="48.24413" lon="7.34196">
        <ele>504</ele>
        <time>2021-05-23T09:28:26Z</time>
      </trkpt>
      <trkpt lat="48.24415" lon="7.34188">
        <ele>504.39999389648</ele>
        <time>2021-05-23T09:28:28Z</time>
      </trkpt>
      <trkpt lat="48.24415" lon="7.34183">
        <ele>505</ele>
        <time>2021-05-23T09:28:30Z</time>
      </trkpt>
      <trkpt lat="48.2442" lon="7.34167">
        <ele>506.20001220703</ele>
        <time>2021-05-23T09:28:34Z</time>
      </trkpt>
      <trkpt lat="48.24424" lon="7.34154">
        <ele>506.60000610352</ele>
        <time>2021-05-23T09:28:37Z</time>
      </trkpt>
      <trkpt lat="48.2443" lon="7.34141">
        <ele>507.20001220703</ele>
        <time>2021-05-23T09:28:40Z</time>
      </trkpt>
      <trkpt lat="48.24432" lon="7.34134">
        <ele>507.79998779297</ele>
        <time>2021-05-23T09:28:42Z</time>
      </trkpt>
      <trkpt lat="48.24435" lon="7.34126">
        <ele>508.20001220703</ele>
        <time>2021-05-23T09:28:44Z</time>
      </trkpt>
      <trkpt lat="48.24439" lon="7.34109">
        <ele>509.39999389648</ele>
        <time>2021-05-23T09:28:48Z</time>
      </trkpt>
      <trkpt lat="48.24441" lon="7.34104">
        <ele>509.79998779297</ele>
        <time>2021-05-23T09:28:49Z</time>
      </trkpt>
      <trkpt lat="48.24445" lon="7.34094">
        <ele>510.60000610352</ele>
        <time>2021-05-23T09:28:52Z</time>
      </trkpt>
      <trkpt lat="48.24448" lon="7.34073">
        <ele>511.39999389648</ele>
        <time>2021-05-23T09:28:55Z</time>
      </trkpt>
      <trkpt lat="48.24449" lon="7.34063">
        <ele>511.79998779297</ele>
        <time>2021-05-23T09:28:57Z</time>
      </trkpt>
      <trkpt lat="48.24453" lon="7.34046">
        <ele>512.79998779297</ele>
        <time>2021-05-23T09:29:01Z</time>
      </trkpt>
      <trkpt lat="48.24453" lon="7.34043">
        <ele>513</ele>
        <time>2021-05-23T09:29:02Z</time>
      </trkpt>
      <trkpt lat="48.24457" lon="7.34023">
        <ele>513.59997558594</ele>
        <time>2021-05-23T09:29:06Z</time>
      </trkpt>
      <trkpt lat="48.24458" lon="7.34018">
        <ele>514</ele>
        <time>2021-05-23T09:29:07Z</time>
      </trkpt>
      <trkpt lat="48.24458" lon="7.34018">
        <ele>513.79998779297</ele>
        <time>2021-05-23T09:29:08Z</time>
      </trkpt>
      <trkpt lat="48.24462" lon="7.33995">
        <ele>515</ele>
        <time>2021-05-23T09:29:13Z</time>
      </trkpt>
      <trkpt lat="48.24463" lon="7.3398">
        <ele>516.20001220703</ele>
        <time>2021-05-23T09:29:16Z</time>
      </trkpt>
      <trkpt lat="48.24465" lon="7.3397">
        <ele>516.59997558594</ele>
        <time>2021-05-23T09:29:19Z</time>
      </trkpt>
      <trkpt lat="48.24465" lon="7.33967">
        <ele>517</ele>
        <time>2021-05-23T09:29:20Z</time>
      </trkpt>
      <trkpt lat="48.24467" lon="7.33961">
        <ele>517.40002441406</ele>
        <time>2021-05-23T09:29:22Z</time>
      </trkpt>
      <trkpt lat="48.24469" lon="7.33952">
        <ele>518</ele>
        <time>2021-05-23T09:29:25Z</time>
      </trkpt>
      <trkpt lat="48.24474" lon="7.33943">
        <ele>518.59997558594</ele>
        <time>2021-05-23T09:29:27Z</time>
      </trkpt>
      <trkpt lat="48.24475" lon="7.33924">
        <ele>520</ele>
        <time>2021-05-23T09:29:32Z</time>
      </trkpt>
      <trkpt lat="48.24481" lon="7.33905">
        <ele>521</ele>
        <time>2021-05-23T09:29:36Z</time>
      </trkpt>
      <trkpt lat="48.24481" lon="7.33905">
        <ele>521.59997558594</ele>
        <time>2021-05-23T09:29:37Z</time>
      </trkpt>
      <trkpt lat="48.24485" lon="7.33889">
        <ele>522</ele>
        <time>2021-05-23T09:29:39Z</time>
      </trkpt>
      <trkpt lat="48.24486" lon="7.33874">
        <ele>522.59997558594</ele>
        <time>2021-05-23T09:29:42Z</time>
      </trkpt>
      <trkpt lat="48.24484" lon="7.33863">
        <ele>523.20001220703</ele>
        <time>2021-05-23T09:29:44Z</time>
      </trkpt>
      <trkpt lat="48.24483" lon="7.33851">
        <ele>523.59997558594</ele>
        <time>2021-05-23T09:29:46Z</time>
      </trkpt>
      <trkpt lat="48.2448" lon="7.33841">
        <ele>524</ele>
        <time>2021-05-23T09:29:48Z</time>
      </trkpt>
      <trkpt lat="48.24475" lon="7.33833">
        <ele>524.59997558594</ele>
        <time>2021-05-23T09:29:50Z</time>
      </trkpt>
      <trkpt lat="48.24475" lon="7.33823">
        <ele>525.20001220703</ele>
        <time>2021-05-23T09:29:53Z</time>
      </trkpt>
      <trkpt lat="48.24474" lon="7.33819">
        <ele>525.40002441406</ele>
        <time>2021-05-23T09:29:54Z</time>
      </trkpt>
      <trkpt lat="48.24473" lon="7.3381">
        <ele>526.20001220703</ele>
        <time>2021-05-23T09:29:57Z</time>
      </trkpt>
      <trkpt lat="48.24472" lon="7.33795">
        <ele>526.79998779297</ele>
        <time>2021-05-23T09:29:59Z</time>
      </trkpt>
      <trkpt lat="48.24472" lon="7.33795">
        <ele>527.20001220703</ele>
        <time>2021-05-23T09:30:00Z</time>
      </trkpt>
      <trkpt lat="48.24468" lon="7.3378">
        <ele>528.40002441406</ele>
        <time>2021-05-23T09:30:04Z</time>
      </trkpt>
      <trkpt lat="48.24465" lon="7.33766">
        <ele>528.59997558594</ele>
        <time>2021-05-23T09:30:06Z</time>
      </trkpt>
      <trkpt lat="48.24461" lon="7.33742">
        <ele>529.20001220703</ele>
        <time>2021-05-23T09:30:12Z</time>
      </trkpt>
      <trkpt lat="48.24461" lon="7.33738">
        <ele>529.40002441406</ele>
        <time>2021-05-23T09:30:13Z</time>
      </trkpt>
      <trkpt lat="48.24464" lon="7.33723">
        <ele>530.40002441406</ele>
        <time>2021-05-23T09:30:17Z</time>
      </trkpt>
      <trkpt lat="48.24465" lon="7.3372">
        <ele>530.79998779297</ele>
        <time>2021-05-23T09:30:18Z</time>
      </trkpt>
      <trkpt lat="48.24472" lon="7.33711">
        <ele>532</ele>
        <time>2021-05-23T09:30:23Z</time>
      </trkpt>
      <trkpt lat="48.24477" lon="7.3371">
        <ele>532.20001220703</ele>
        <time>2021-05-23T09:30:24Z</time>
      </trkpt>
      <trkpt lat="48.24483" lon="7.33712">
        <ele>533</ele>
        <time>2021-05-23T09:30:27Z</time>
      </trkpt>
      <trkpt lat="48.24483" lon="7.33712">
        <ele>533</ele>
        <time>2021-05-23T09:30:28Z</time>
      </trkpt>
      <trkpt lat="48.24486" lon="7.33714">
        <ele>533.20001220703</ele>
        <time>2021-05-23T09:30:29Z</time>
      </trkpt>
      <trkpt lat="48.24488" lon="7.33721">
        <ele>533.59997558594</ele>
        <time>2021-05-23T09:30:32Z</time>
      </trkpt>
      <trkpt lat="48.24489" lon="7.33729">
        <ele>533.79998779297</ele>
        <time>2021-05-23T09:30:35Z</time>
      </trkpt>
      <trkpt lat="48.24492" lon="7.33735">
        <ele>534</ele>
        <time>2021-05-23T09:30:37Z</time>
      </trkpt>
      <trkpt lat="48.24492" lon="7.33738">
        <ele>534</ele>
        <time>2021-05-23T09:30:38Z</time>
      </trkpt>
      <trkpt lat="48.24494" lon="7.33758">
        <ele>534.40002441406</ele>
        <time>2021-05-23T09:30:42Z</time>
      </trkpt>
      <trkpt lat="48.24495" lon="7.33775">
        <ele>535</ele>
        <time>2021-05-23T09:30:46Z</time>
      </trkpt>
      <trkpt lat="48.24495" lon="7.33775">
        <ele>535.20001220703</ele>
        <time>2021-05-23T09:30:47Z</time>
      </trkpt>
      <trkpt lat="48.24494" lon="7.33783">
        <ele>535.40002441406</ele>
        <time>2021-05-23T09:30:48Z</time>
      </trkpt>
      <trkpt lat="48.24494" lon="7.33788">
        <ele>536.20001220703</ele>
        <time>2021-05-23T09:30:50Z</time>
      </trkpt>
      <trkpt lat="48.24498" lon="7.33813">
        <ele>537.20001220703</ele>
        <time>2021-05-23T09:30:55Z</time>
      </trkpt>
      <trkpt lat="48.24499" lon="7.33817">
        <ele>537.40002441406</ele>
        <time>2021-05-23T09:30:56Z</time>
      </trkpt>
      <trkpt lat="48.24508" lon="7.33831">
        <ele>538.20001220703</ele>
        <time>2021-05-23T09:31:00Z</time>
      </trkpt>
      <trkpt lat="48.24514" lon="7.3384">
        <ele>538.79998779297</ele>
        <time>2021-05-23T09:31:03Z</time>
      </trkpt>
      <trkpt lat="48.24517" lon="7.33843">
        <ele>539.20001220703</ele>
        <time>2021-05-23T09:31:04Z</time>
      </trkpt>
      <trkpt lat="48.24524" lon="7.33856">
        <ele>540.40002441406</ele>
        <time>2021-05-23T09:31:09Z</time>
      </trkpt>
      <trkpt lat="48.24527" lon="7.33864">
        <ele>540.40002441406</ele>
        <time>2021-05-23T09:31:10Z</time>
      </trkpt>
      <trkpt lat="48.24527" lon="7.33864">
        <ele>540.79998779297</ele>
        <time>2021-05-23T09:31:11Z</time>
      </trkpt>
      <trkpt lat="48.2453" lon="7.33887">
        <ele>541.40002441406</ele>
        <time>2021-05-23T09:31:15Z</time>
      </trkpt>
      <trkpt lat="48.24528" lon="7.33895">
        <ele>542</ele>
        <time>2021-05-23T09:31:17Z</time>
      </trkpt>
      <trkpt lat="48.24525" lon="7.3391">
        <ele>542.59997558594</ele>
        <time>2021-05-23T09:31:20Z</time>
      </trkpt>
      <trkpt lat="48.24523" lon="7.33925">
        <ele>543</ele>
        <time>2021-05-23T09:31:23Z</time>
      </trkpt>
      <trkpt lat="48.2452" lon="7.33944">
        <ele>543.59997558594</ele>
        <time>2021-05-23T09:31:27Z</time>
      </trkpt>
      <trkpt lat="48.2452" lon="7.33949">
        <ele>543.79998779297</ele>
        <time>2021-05-23T09:31:28Z</time>
      </trkpt>
      <trkpt lat="48.2452" lon="7.33969">
        <ele>544.59997558594</ele>
        <time>2021-05-23T09:31:32Z</time>
      </trkpt>
      <trkpt lat="48.2452" lon="7.33973">
        <ele>544.79998779297</ele>
        <time>2021-05-23T09:31:33Z</time>
      </trkpt>
      <trkpt lat="48.24519" lon="7.33976">
        <ele>544.79998779297</ele>
        <time>2021-05-23T09:31:34Z</time>
      </trkpt>
      <trkpt lat="48.24518" lon="7.33994">
        <ele>546</ele>
        <time>2021-05-23T09:31:39Z</time>
      </trkpt>
      <trkpt lat="48.24517" lon="7.34001">
        <ele>546.59997558594</ele>
        <time>2021-05-23T09:31:41Z</time>
      </trkpt>
      <trkpt lat="48.24519" lon="7.34008">
        <ele>547</ele>
        <time>2021-05-23T09:31:43Z</time>
      </trkpt>
      <trkpt lat="48.24519" lon="7.34011">
        <ele>547.40002441406</ele>
        <time>2021-05-23T09:31:44Z</time>
      </trkpt>
      <trkpt lat="48.24522" lon="7.34024">
        <ele>548</ele>
        <time>2021-05-23T09:31:47Z</time>
      </trkpt>
      <trkpt lat="48.24523" lon="7.3403">
        <ele>548.40002441406</ele>
        <time>2021-05-23T09:31:48Z</time>
      </trkpt>
      <trkpt lat="48.24528" lon="7.34058">
        <ele>549.40002441406</ele>
        <time>2021-05-23T09:31:53Z</time>
      </trkpt>
      <trkpt lat="48.24528" lon="7.34063">
        <ele>549.59997558594</ele>
        <time>2021-05-23T09:31:54Z</time>
      </trkpt>
      <trkpt lat="48.24533" lon="7.34092">
        <ele>550.59997558594</ele>
        <time>2021-05-23T09:32:00Z</time>
      </trkpt>
      <trkpt lat="48.24534" lon="7.34097">
        <ele>550.79998779297</ele>
        <time>2021-05-23T09:32:01Z</time>
      </trkpt>
      <trkpt lat="48.24544" lon="7.34107">
        <ele>551.20001220703</ele>
        <time>2021-05-23T09:32:03Z</time>
      </trkpt>
      <trkpt lat="48.24544" lon="7.34112">
        <ele>551.40002441406</ele>
        <time>2021-05-23T09:32:04Z</time>
      </trkpt>
      <trkpt lat="48.24543" lon="7.34117">
        <ele>551.59997558594</ele>
        <time>2021-05-23T09:32:05Z</time>
      </trkpt>
      <trkpt lat="48.2454" lon="7.34121">
        <ele>551.79998779297</ele>
        <time>2021-05-23T09:32:06Z</time>
      </trkpt>
      <trkpt lat="48.24541" lon="7.34126">
        <ele>552.20001220703</ele>
        <time>2021-05-23T09:32:07Z</time>
      </trkpt>
      <trkpt lat="48.24547" lon="7.34141">
        <ele>553.20001220703</ele>
        <time>2021-05-23T09:32:11Z</time>
      </trkpt>
      <trkpt lat="48.24548" lon="7.34152">
        <ele>553.40002441406</ele>
        <time>2021-05-23T09:32:12Z</time>
      </trkpt>
      <trkpt lat="48.24548" lon="7.34159">
        <ele>553.79998779297</ele>
        <time>2021-05-23T09:32:13Z</time>
      </trkpt>
      <trkpt lat="48.24551" lon="7.34173">
        <ele>554.40002441406</ele>
        <time>2021-05-23T09:32:16Z</time>
      </trkpt>
      <trkpt lat="48.24551" lon="7.34183">
        <ele>554.79998779297</ele>
        <time>2021-05-23T09:32:18Z</time>
      </trkpt>
      <trkpt lat="48.24552" lon="7.34188">
        <ele>554.79998779297</ele>
        <time>2021-05-23T09:32:19Z</time>
      </trkpt>
      <trkpt lat="48.24558" lon="7.342">
        <ele>555.59997558594</ele>
        <time>2021-05-23T09:32:22Z</time>
      </trkpt>
      <trkpt lat="48.24564" lon="7.34205">
        <ele>556</ele>
        <time>2021-05-23T09:32:24Z</time>
      </trkpt>
      <trkpt lat="48.24566" lon="7.34215">
        <ele>556.40002441406</ele>
        <time>2021-05-23T09:32:25Z</time>
      </trkpt>
      <trkpt lat="48.24564" lon="7.34222">
        <ele>556.79998779297</ele>
        <time>2021-05-23T09:32:27Z</time>
      </trkpt>
      <trkpt lat="48.24559" lon="7.34243">
        <ele>557.40002441406</ele>
        <time>2021-05-23T09:32:31Z</time>
      </trkpt>
      <trkpt lat="48.24559" lon="7.34253">
        <ele>557.79998779297</ele>
        <time>2021-05-23T09:32:33Z</time>
      </trkpt>
      <trkpt lat="48.24557" lon="7.34277">
        <ele>559</ele>
        <time>2021-05-23T09:32:37Z</time>
      </trkpt>
      <trkpt lat="48.24556" lon="7.34281">
        <ele>559.40002441406</ele>
        <time>2021-05-23T09:32:39Z</time>
      </trkpt>
      <trkpt lat="48.24565" lon="7.34297">
        <ele>560</ele>
        <time>2021-05-23T09:32:41Z</time>
      </trkpt>
      <trkpt lat="48.24575" lon="7.34311">
        <ele>560.40002441406</ele>
        <time>2021-05-23T09:32:43Z</time>
      </trkpt>
      <trkpt lat="48.24576" lon="7.34315">
        <ele>561</ele>
        <time>2021-05-23T09:32:44Z</time>
      </trkpt>
      <trkpt lat="48.24576" lon="7.34315">
        <ele>561</ele>
        <time>2021-05-23T09:32:45Z</time>
      </trkpt>
      <trkpt lat="48.24578" lon="7.34328">
        <ele>561.59997558594</ele>
        <time>2021-05-23T09:32:48Z</time>
      </trkpt>
      <trkpt lat="48.24581" lon="7.34339">
        <ele>562.40002441406</ele>
        <time>2021-05-23T09:32:51Z</time>
      </trkpt>
      <trkpt lat="48.2458" lon="7.34343">
        <ele>562.40002441406</ele>
        <time>2021-05-23T09:32:52Z</time>
      </trkpt>
      <trkpt lat="48.24579" lon="7.34351">
        <ele>562.40002441406</ele>
        <time>2021-05-23T09:32:54Z</time>
      </trkpt>
      <trkpt lat="48.24582" lon="7.34364">
        <ele>563.59997558594</ele>
        <time>2021-05-23T09:32:57Z</time>
      </trkpt>
      <trkpt lat="48.24589" lon="7.34389">
        <ele>564.20001220703</ele>
        <time>2021-05-23T09:33:02Z</time>
      </trkpt>
      <trkpt lat="48.24596" lon="7.34404">
        <ele>564.40002441406</ele>
        <time>2021-05-23T09:33:05Z</time>
      </trkpt>
      <trkpt lat="48.24601" lon="7.34416">
        <ele>564.59997558594</ele>
        <time>2021-05-23T09:33:07Z</time>
      </trkpt>
      <trkpt lat="48.24603" lon="7.34422">
        <ele>564.59997558594</ele>
        <time>2021-05-23T09:33:08Z</time>
      </trkpt>
      <trkpt lat="48.24612" lon="7.34454">
        <ele>565</ele>
        <time>2021-05-23T09:33:13Z</time>
      </trkpt>
      <trkpt lat="48.24614" lon="7.3446">
        <ele>565</ele>
        <time>2021-05-23T09:33:14Z</time>
      </trkpt>
      <trkpt lat="48.24616" lon="7.34465">
        <ele>565</ele>
        <time>2021-05-23T09:33:15Z</time>
      </trkpt>
      <trkpt lat="48.24622" lon="7.3449">
        <ele>565.40002441406</ele>
        <time>2021-05-23T09:33:19Z</time>
      </trkpt>
      <trkpt lat="48.24623" lon="7.34496">
        <ele>565.40002441406</ele>
        <time>2021-05-23T09:33:20Z</time>
      </trkpt>
      <trkpt lat="48.24626" lon="7.34507">
        <ele>565.59997558594</ele>
        <time>2021-05-23T09:33:22Z</time>
      </trkpt>
      <trkpt lat="48.24627" lon="7.34514">
        <ele>565.59997558594</ele>
        <time>2021-05-23T09:33:23Z</time>
      </trkpt>
      <trkpt lat="48.24626" lon="7.34529">
        <ele>565.79998779297</ele>
        <time>2021-05-23T09:33:25Z</time>
      </trkpt>
      <trkpt lat="48.2463" lon="7.34538">
        <ele>565.79998779297</ele>
        <time>2021-05-23T09:33:26Z</time>
      </trkpt>
      <trkpt lat="48.24638" lon="7.34558">
        <ele>565.79998779297</ele>
        <time>2021-05-23T09:33:29Z</time>
      </trkpt>
      <trkpt lat="48.24641" lon="7.34579">
        <ele>566</ele>
        <time>2021-05-23T09:33:32Z</time>
      </trkpt>
      <trkpt lat="48.24642" lon="7.34584">
        <ele>566</ele>
        <time>2021-05-23T09:33:33Z</time>
      </trkpt>
      <trkpt lat="48.24649" lon="7.34615">
        <ele>566</ele>
        <time>2021-05-23T09:33:37Z</time>
      </trkpt>
      <trkpt lat="48.2465" lon="7.34635">
        <ele>566</ele>
        <time>2021-05-23T09:33:40Z</time>
      </trkpt>
      <trkpt lat="48.24648" lon="7.34648">
        <ele>566</ele>
        <time>2021-05-23T09:33:42Z</time>
      </trkpt>
      <trkpt lat="48.24645" lon="7.3467">
        <ele>566.20001220703</ele>
        <time>2021-05-23T09:33:45Z</time>
      </trkpt>
      <trkpt lat="48.24644" lon="7.34685">
        <ele>566.20001220703</ele>
        <time>2021-05-23T09:33:47Z</time>
      </trkpt>
      <trkpt lat="48.24646" lon="7.34691">
        <ele>566.20001220703</ele>
        <time>2021-05-23T09:33:48Z</time>
      </trkpt>
      <trkpt lat="48.24647" lon="7.34696">
        <ele>566.40002441406</ele>
        <time>2021-05-23T09:33:49Z</time>
      </trkpt>
      <trkpt lat="48.24655" lon="7.34704">
        <ele>566.40002441406</ele>
        <time>2021-05-23T09:33:51Z</time>
      </trkpt>
      <trkpt lat="48.24667" lon="7.34709">
        <ele>566.59997558594</ele>
        <time>2021-05-23T09:33:55Z</time>
      </trkpt>
      <trkpt lat="48.2467" lon="7.34709">
        <ele>566.59997558594</ele>
        <time>2021-05-23T09:33:56Z</time>
      </trkpt>
      <trkpt lat="48.2468" lon="7.34701">
        <ele>567.40002441406</ele>
        <time>2021-05-23T09:34:00Z</time>
      </trkpt>
      <trkpt lat="48.24681" lon="7.34698">
        <ele>567.59997558594</ele>
        <time>2021-05-23T09:34:01Z</time>
      </trkpt>
      <trkpt lat="48.24681" lon="7.34687">
        <ele>568</ele>
        <time>2021-05-23T09:34:03Z</time>
      </trkpt>
      <trkpt lat="48.24678" lon="7.34663">
        <ele>568.79998779297</ele>
        <time>2021-05-23T09:34:07Z</time>
      </trkpt>
      <trkpt lat="48.24678" lon="7.34657">
        <ele>569</ele>
        <time>2021-05-23T09:34:08Z</time>
      </trkpt>
      <trkpt lat="48.24677" lon="7.34639">
        <ele>569.79998779297</ele>
        <time>2021-05-23T09:34:11Z</time>
      </trkpt>
      <trkpt lat="48.24676" lon="7.34622">
        <ele>571</ele>
        <time>2021-05-23T09:34:14Z</time>
      </trkpt>
      <trkpt lat="48.24676" lon="7.34599">
        <ele>572.40002441406</ele>
        <time>2021-05-23T09:34:18Z</time>
      </trkpt>
      <trkpt lat="48.24676" lon="7.34594">
        <ele>572.59997558594</ele>
        <time>2021-05-23T09:34:19Z</time>
      </trkpt>
      <trkpt lat="48.24674" lon="7.34582">
        <ele>573.40002441406</ele>
        <time>2021-05-23T09:34:21Z</time>
      </trkpt>
      <trkpt lat="48.24674" lon="7.34562">
        <ele>574.40002441406</ele>
        <time>2021-05-23T09:34:25Z</time>
      </trkpt>
      <trkpt lat="48.24673" lon="7.34552">
        <ele>575</ele>
        <time>2021-05-23T09:34:27Z</time>
      </trkpt>
      <trkpt lat="48.24672" lon="7.34537">
        <ele>575.79998779297</ele>
        <time>2021-05-23T09:34:30Z</time>
      </trkpt>
      <trkpt lat="48.24672" lon="7.34516">
        <ele>576.40002441406</ele>
        <time>2021-05-23T09:34:35Z</time>
      </trkpt>
      <trkpt lat="48.24671" lon="7.34506">
        <ele>577.20001220703</ele>
        <time>2021-05-23T09:34:37Z</time>
      </trkpt>
      <trkpt lat="48.24671" lon="7.3449">
        <ele>578.40002441406</ele>
        <time>2021-05-23T09:34:41Z</time>
      </trkpt>
      <trkpt lat="48.24668" lon="7.34469">
        <ele>579.59997558594</ele>
        <time>2021-05-23T09:34:46Z</time>
      </trkpt>
      <trkpt lat="48.24667" lon="7.34461">
        <ele>580.20001220703</ele>
        <time>2021-05-23T09:34:48Z</time>
      </trkpt>
      <trkpt lat="48.24667" lon="7.34447">
        <ele>580.79998779297</ele>
        <time>2021-05-23T09:34:51Z</time>
      </trkpt>
      <trkpt lat="48.24667" lon="7.34436">
        <ele>581.40002441406</ele>
        <time>2021-05-23T09:34:54Z</time>
      </trkpt>
      <trkpt lat="48.24667" lon="7.34431">
        <ele>581.59997558594</ele>
        <time>2021-05-23T09:34:55Z</time>
      </trkpt>
      <trkpt lat="48.24666" lon="7.34427">
        <ele>581.79998779297</ele>
        <time>2021-05-23T09:34:56Z</time>
      </trkpt>
      <trkpt lat="48.24665" lon="7.34422">
        <ele>582</ele>
        <time>2021-05-23T09:34:57Z</time>
      </trkpt>
      <trkpt lat="48.24664" lon="7.34411">
        <ele>583</ele>
        <time>2021-05-23T09:35:00Z</time>
      </trkpt>
      <trkpt lat="48.24664" lon="7.34401">
        <ele>583.59997558594</ele>
        <time>2021-05-23T09:35:02Z</time>
      </trkpt>
      <trkpt lat="48.24664" lon="7.34388">
        <ele>584.20001220703</ele>
        <time>2021-05-23T09:35:04Z</time>
      </trkpt>
      <trkpt lat="48.24665" lon="7.34383">
        <ele>584.40002441406</ele>
        <time>2021-05-23T09:35:05Z</time>
      </trkpt>
      <trkpt lat="48.24667" lon="7.34379">
        <ele>584.59997558594</ele>
        <time>2021-05-23T09:35:06Z</time>
      </trkpt>
      <trkpt lat="48.2467" lon="7.34369">
        <ele>585</ele>
        <time>2021-05-23T09:35:08Z</time>
      </trkpt>
      <trkpt lat="48.2467" lon="7.34364">
        <ele>585.40002441406</ele>
        <time>2021-05-23T09:35:09Z</time>
      </trkpt>
      <trkpt lat="48.2467" lon="7.34358">
        <ele>585.59997558594</ele>
        <time>2021-05-23T09:35:10Z</time>
      </trkpt>
      <trkpt lat="48.24668" lon="7.34347">
        <ele>586.40002441406</ele>
        <time>2021-05-23T09:35:12Z</time>
      </trkpt>
      <trkpt lat="48.24667" lon="7.34343">
        <ele>586.59997558594</ele>
        <time>2021-05-23T09:35:13Z</time>
      </trkpt>
      <trkpt lat="48.24667" lon="7.3434">
        <ele>586.79998779297</ele>
        <time>2021-05-23T09:35:14Z</time>
      </trkpt>
      <trkpt lat="48.24669" lon="7.34326">
        <ele>587.79998779297</ele>
        <time>2021-05-23T09:35:17Z</time>
      </trkpt>
      <trkpt lat="48.24668" lon="7.34312">
        <ele>588.20001220703</ele>
        <time>2021-05-23T09:35:20Z</time>
      </trkpt>
      <trkpt lat="48.24666" lon="7.34298">
        <ele>588.79998779297</ele>
        <time>2021-05-23T09:35:23Z</time>
      </trkpt>
      <trkpt lat="48.24665" lon="7.34294">
        <ele>589</ele>
        <time>2021-05-23T09:35:24Z</time>
      </trkpt>
      <trkpt lat="48.24664" lon="7.34289">
        <ele>589.20001220703</ele>
        <time>2021-05-23T09:35:25Z</time>
      </trkpt>
      <trkpt lat="48.24663" lon="7.34281">
        <ele>589.79998779297</ele>
        <time>2021-05-23T09:35:27Z</time>
      </trkpt>
      <trkpt lat="48.24659" lon="7.34265">
        <ele>590.40002441406</ele>
        <time>2021-05-23T09:35:30Z</time>
      </trkpt>
      <trkpt lat="48.24657" lon="7.34257">
        <ele>590.79998779297</ele>
        <time>2021-05-23T09:35:32Z</time>
      </trkpt>
      <trkpt lat="48.24654" lon="7.34249">
        <ele>591</ele>
        <time>2021-05-23T09:35:34Z</time>
      </trkpt>
      <trkpt lat="48.24653" lon="7.34245">
        <ele>591.20001220703</ele>
        <time>2021-05-23T09:35:35Z</time>
      </trkpt>
      <trkpt lat="48.24654" lon="7.34231">
        <ele>592</ele>
        <time>2021-05-23T09:35:39Z</time>
      </trkpt>
      <trkpt lat="48.24657" lon="7.34222">
        <ele>592.59997558594</ele>
        <time>2021-05-23T09:35:41Z</time>
      </trkpt>
      <trkpt lat="48.24656" lon="7.34214">
        <ele>593.20001220703</ele>
        <time>2021-05-23T09:35:43Z</time>
      </trkpt>
      <trkpt lat="48.24655" lon="7.34205">
        <ele>593.79998779297</ele>
        <time>2021-05-23T09:35:45Z</time>
      </trkpt>
      <trkpt lat="48.24655" lon="7.34202">
        <ele>594</ele>
        <time>2021-05-23T09:35:46Z</time>
      </trkpt>
      <trkpt lat="48.24656" lon="7.34199">
        <ele>594.20001220703</ele>
        <time>2021-05-23T09:35:47Z</time>
      </trkpt>
      <trkpt lat="48.24655" lon="7.34195">
        <ele>594.40002441406</ele>
        <time>2021-05-23T09:35:48Z</time>
      </trkpt>
      <trkpt lat="48.24654" lon="7.34191">
        <ele>594.59997558594</ele>
        <time>2021-05-23T09:35:49Z</time>
      </trkpt>
      <trkpt lat="48.24653" lon="7.34182">
        <ele>595.20001220703</ele>
        <time>2021-05-23T09:35:51Z</time>
      </trkpt>
      <trkpt lat="48.24655" lon="7.34164">
        <ele>596.20001220703</ele>
        <time>2021-05-23T09:35:55Z</time>
      </trkpt>
      <trkpt lat="48.24657" lon="7.34151">
        <ele>597.59997558594</ele>
        <time>2021-05-23T09:35:59Z</time>
      </trkpt>
      <trkpt lat="48.2466" lon="7.34142">
        <ele>598.20001220703</ele>
        <time>2021-05-23T09:36:01Z</time>
      </trkpt>
      <trkpt lat="48.24664" lon="7.34131">
        <ele>598.79998779297</ele>
        <time>2021-05-23T09:36:04Z</time>
      </trkpt>
      <trkpt lat="48.24667" lon="7.3412">
        <ele>599.40002441406</ele>
        <time>2021-05-23T09:36:07Z</time>
      </trkpt>
      <trkpt lat="48.24667" lon="7.34112">
        <ele>600</ele>
        <time>2021-05-23T09:36:09Z</time>
      </trkpt>
      <trkpt lat="48.24668" lon="7.34102">
        <ele>600.59997558594</ele>
        <time>2021-05-23T09:36:11Z</time>
      </trkpt>
      <trkpt lat="48.24664" lon="7.34092">
        <ele>601</ele>
        <time>2021-05-23T09:36:13Z</time>
      </trkpt>
      <trkpt lat="48.24663" lon="7.34066">
        <ele>602.20001220703</ele>
        <time>2021-05-23T09:36:18Z</time>
      </trkpt>
      <trkpt lat="48.24665" lon="7.3406">
        <ele>602.40002441406</ele>
        <time>2021-05-23T09:36:19Z</time>
      </trkpt>
      <trkpt lat="48.24665" lon="7.3406">
        <ele>602.79998779297</ele>
        <time>2021-05-23T09:36:20Z</time>
      </trkpt>
      <trkpt lat="48.24668" lon="7.34047">
        <ele>603.20001220703</ele>
        <time>2021-05-23T09:36:22Z</time>
      </trkpt>
      <trkpt lat="48.2467" lon="7.34024">
        <ele>604.40002441406</ele>
        <time>2021-05-23T09:36:27Z</time>
      </trkpt>
      <trkpt lat="48.24673" lon="7.34001">
        <ele>605.59997558594</ele>
        <time>2021-05-23T09:36:32Z</time>
      </trkpt>
      <trkpt lat="48.24674" lon="7.33991">
        <ele>606</ele>
        <time>2021-05-23T09:36:34Z</time>
      </trkpt>
      <trkpt lat="48.24674" lon="7.33986">
        <ele>606.20001220703</ele>
        <time>2021-05-23T09:36:35Z</time>
      </trkpt>
      <trkpt lat="48.24677" lon="7.3397">
        <ele>606.79998779297</ele>
        <time>2021-05-23T09:36:38Z</time>
      </trkpt>
      <trkpt lat="48.24681" lon="7.33955">
        <ele>607.40002441406</ele>
        <time>2021-05-23T09:36:41Z</time>
      </trkpt>
      <trkpt lat="48.24681" lon="7.33952">
        <ele>607.59997558594</ele>
        <time>2021-05-23T09:36:42Z</time>
      </trkpt>
      <trkpt lat="48.24681" lon="7.33948">
        <ele>607.79998779297</ele>
        <time>2021-05-23T09:36:43Z</time>
      </trkpt>
      <trkpt lat="48.24682" lon="7.33944">
        <ele>608</ele>
        <time>2021-05-23T09:36:44Z</time>
      </trkpt>
      <trkpt lat="48.24682" lon="7.3394">
        <ele>608.40002441406</ele>
        <time>2021-05-23T09:36:45Z</time>
      </trkpt>
      <trkpt lat="48.24685" lon="7.33926">
        <ele>609.20001220703</ele>
        <time>2021-05-23T09:36:48Z</time>
      </trkpt>
      <trkpt lat="48.24686" lon="7.33912">
        <ele>609.59997558594</ele>
        <time>2021-05-23T09:36:51Z</time>
      </trkpt>
      <trkpt lat="48.24689" lon="7.33905">
        <ele>610.40002441406</ele>
        <time>2021-05-23T09:36:53Z</time>
      </trkpt>
      <trkpt lat="48.2469" lon="7.33887">
        <ele>611.59997558594</ele>
        <time>2021-05-23T09:36:57Z</time>
      </trkpt>
      <trkpt lat="48.2469" lon="7.33879">
        <ele>611.79998779297</ele>
        <time>2021-05-23T09:36:59Z</time>
      </trkpt>
      <trkpt lat="48.24688" lon="7.33862">
        <ele>612.59997558594</ele>
        <time>2021-05-23T09:37:02Z</time>
      </trkpt>
      <trkpt lat="48.24689" lon="7.33849">
        <ele>613.40002441406</ele>
        <time>2021-05-23T09:37:05Z</time>
      </trkpt>
      <trkpt lat="48.24689" lon="7.3384">
        <ele>613.79998779297</ele>
        <time>2021-05-23T09:37:07Z</time>
      </trkpt>
      <trkpt lat="48.24687" lon="7.33827">
        <ele>614.59997558594</ele>
        <time>2021-05-23T09:37:10Z</time>
      </trkpt>
      <trkpt lat="48.24686" lon="7.3382">
        <ele>615</ele>
        <time>2021-05-23T09:37:12Z</time>
      </trkpt>
      <trkpt lat="48.24688" lon="7.33801">
        <ele>616.20001220703</ele>
        <time>2021-05-23T09:37:16Z</time>
      </trkpt>
      <trkpt lat="48.24687" lon="7.33797">
        <ele>616.40002441406</ele>
        <time>2021-05-23T09:37:17Z</time>
      </trkpt>
      <trkpt lat="48.24687" lon="7.3378">
        <ele>617.20001220703</ele>
        <time>2021-05-23T09:37:22Z</time>
      </trkpt>
      <trkpt lat="48.24688" lon="7.33771">
        <ele>617.40002441406</ele>
        <time>2021-05-23T09:37:23Z</time>
      </trkpt>
      <trkpt lat="48.24688" lon="7.33755">
        <ele>618.40002441406</ele>
        <time>2021-05-23T09:37:27Z</time>
      </trkpt>
      <trkpt lat="48.24686" lon="7.33745">
        <ele>618.79998779297</ele>
        <time>2021-05-23T09:37:29Z</time>
      </trkpt>
      <trkpt lat="48.24684" lon="7.33737">
        <ele>619.40002441406</ele>
        <time>2021-05-23T09:37:31Z</time>
      </trkpt>
      <trkpt lat="48.24681" lon="7.33713">
        <ele>620.40002441406</ele>
        <time>2021-05-23T09:37:36Z</time>
      </trkpt>
      <trkpt lat="48.24682" lon="7.33709">
        <ele>620.59997558594</ele>
        <time>2021-05-23T09:37:37Z</time>
      </trkpt>
      <trkpt lat="48.24682" lon="7.33692">
        <ele>621.59997558594</ele>
        <time>2021-05-23T09:37:41Z</time>
      </trkpt>
      <trkpt lat="48.24682" lon="7.33687">
        <ele>621.59997558594</ele>
        <time>2021-05-23T09:37:42Z</time>
      </trkpt>
      <trkpt lat="48.24683" lon="7.33679">
        <ele>622.79998779297</ele>
        <time>2021-05-23T09:37:45Z</time>
      </trkpt>
      <trkpt lat="48.24682" lon="7.33658">
        <ele>623.59997558594</ele>
        <time>2021-05-23T09:37:49Z</time>
      </trkpt>
      <trkpt lat="48.24682" lon="7.33648">
        <ele>624</ele>
        <time>2021-05-23T09:37:51Z</time>
      </trkpt>
      <trkpt lat="48.24683" lon="7.33633">
        <ele>625.20001220703</ele>
        <time>2021-05-23T09:37:55Z</time>
      </trkpt>
      <trkpt lat="48.24684" lon="7.33619">
        <ele>626</ele>
        <time>2021-05-23T09:37:59Z</time>
      </trkpt>
      <trkpt lat="48.24685" lon="7.33609">
        <ele>626.59997558594</ele>
        <time>2021-05-23T09:38:01Z</time>
      </trkpt>
      <trkpt lat="48.24688" lon="7.33592">
        <ele>627.40002441406</ele>
        <time>2021-05-23T09:38:05Z</time>
      </trkpt>
      <trkpt lat="48.24688" lon="7.33587">
        <ele>627.79998779297</ele>
        <time>2021-05-23T09:38:06Z</time>
      </trkpt>
      <trkpt lat="48.2469" lon="7.33566">
        <ele>629</ele>
        <time>2021-05-23T09:38:11Z</time>
      </trkpt>
      <trkpt lat="48.2469" lon="7.33544">
        <ele>630</ele>
        <time>2021-05-23T09:38:16Z</time>
      </trkpt>
      <trkpt lat="48.24689" lon="7.33534">
        <ele>630.40002441406</ele>
        <time>2021-05-23T09:38:18Z</time>
      </trkpt>
      <trkpt lat="48.24691" lon="7.33515">
        <ele>631.20001220703</ele>
        <time>2021-05-23T09:38:22Z</time>
      </trkpt>
      <trkpt lat="48.24692" lon="7.33506">
        <ele>631.59997558594</ele>
        <time>2021-05-23T09:38:24Z</time>
      </trkpt>
      <trkpt lat="48.24692" lon="7.33494">
        <ele>632.40002441406</ele>
        <time>2021-05-23T09:38:27Z</time>
      </trkpt>
      <trkpt lat="48.24695" lon="7.33476">
        <ele>633.40002441406</ele>
        <time>2021-05-23T09:38:31Z</time>
      </trkpt>
      <trkpt lat="48.24697" lon="7.33455">
        <ele>634.59997558594</ele>
        <time>2021-05-23T09:38:36Z</time>
      </trkpt>
      <trkpt lat="48.24697" lon="7.33451">
        <ele>634.79998779297</ele>
        <time>2021-05-23T09:38:37Z</time>
      </trkpt>
      <trkpt lat="48.24702" lon="7.33434">
        <ele>635.59997558594</ele>
        <time>2021-05-23T09:38:41Z</time>
      </trkpt>
      <trkpt lat="48.24701" lon="7.3343">
        <ele>635.79998779297</ele>
        <time>2021-05-23T09:38:42Z</time>
      </trkpt>
      <trkpt lat="48.247" lon="7.33415">
        <ele>636.40002441406</ele>
        <time>2021-05-23T09:38:45Z</time>
      </trkpt>
      <trkpt lat="48.24701" lon="7.3341">
        <ele>636.59997558594</ele>
        <time>2021-05-23T09:38:46Z</time>
      </trkpt>
      <trkpt lat="48.24709" lon="7.33394">
        <ele>637.79998779297</ele>
        <time>2021-05-23T09:38:50Z</time>
      </trkpt>
      <trkpt lat="48.2471" lon="7.33385">
        <ele>638</ele>
        <time>2021-05-23T09:38:52Z</time>
      </trkpt>
      <trkpt lat="48.24713" lon="7.33371">
        <ele>638.79998779297</ele>
        <time>2021-05-23T09:38:56Z</time>
      </trkpt>
      <trkpt lat="48.24718" lon="7.33361">
        <ele>639.79998779297</ele>
        <time>2021-05-23T09:38:59Z</time>
      </trkpt>
      <trkpt lat="48.2472" lon="7.33358">
        <ele>639.79998779297</ele>
        <time>2021-05-23T09:39:00Z</time>
      </trkpt>
      <trkpt lat="48.24735" lon="7.33346">
        <ele>641.20001220703</ele>
        <time>2021-05-23T09:39:06Z</time>
      </trkpt>
      <trkpt lat="48.24743" lon="7.33347">
        <ele>642.40002441406</ele>
        <time>2021-05-23T09:39:09Z</time>
      </trkpt>
      <trkpt lat="48.24752" lon="7.33352">
        <ele>643.40002441406</ele>
        <time>2021-05-23T09:39:13Z</time>
      </trkpt>
      <trkpt lat="48.24755" lon="7.33355">
        <ele>643.59997558594</ele>
        <time>2021-05-23T09:39:14Z</time>
      </trkpt>
      <trkpt lat="48.24766" lon="7.33363">
        <ele>644.40002441406</ele>
        <time>2021-05-23T09:39:18Z</time>
      </trkpt>
      <trkpt lat="48.24768" lon="7.33367">
        <ele>644.79998779297</ele>
        <time>2021-05-23T09:39:19Z</time>
      </trkpt>
      <trkpt lat="48.24771" lon="7.33369">
        <ele>645.20001220703</ele>
        <time>2021-05-23T09:39:20Z</time>
      </trkpt>
      <trkpt lat="48.24779" lon="7.33377">
        <ele>645.79998779297</ele>
        <time>2021-05-23T09:39:23Z</time>
      </trkpt>
      <trkpt lat="48.24784" lon="7.3338">
        <ele>646.59997558594</ele>
        <time>2021-05-23T09:39:25Z</time>
      </trkpt>
      <trkpt lat="48.24789" lon="7.33385">
        <ele>647</ele>
        <time>2021-05-23T09:39:27Z</time>
      </trkpt>
      <trkpt lat="48.248" lon="7.33394">
        <ele>648.40002441406</ele>
        <time>2021-05-23T09:39:31Z</time>
      </trkpt>
      <trkpt lat="48.24802" lon="7.33398">
        <ele>648.79998779297</ele>
        <time>2021-05-23T09:39:33Z</time>
      </trkpt>
      <trkpt lat="48.2481" lon="7.33406">
        <ele>649.40002441406</ele>
        <time>2021-05-23T09:39:36Z</time>
      </trkpt>
      <trkpt lat="48.24816" lon="7.33411">
        <ele>650</ele>
        <time>2021-05-23T09:39:38Z</time>
      </trkpt>
      <trkpt lat="48.24827" lon="7.33421">
        <ele>650.40002441406</ele>
        <time>2021-05-23T09:39:42Z</time>
      </trkpt>
      <trkpt lat="48.24832" lon="7.33426">
        <ele>651.20001220703</ele>
        <time>2021-05-23T09:39:44Z</time>
      </trkpt>
      <trkpt lat="48.24834" lon="7.33428">
        <ele>651.59997558594</ele>
        <time>2021-05-23T09:39:45Z</time>
      </trkpt>
      <trkpt lat="48.24847" lon="7.3344">
        <ele>652.79998779297</ele>
        <time>2021-05-23T09:39:50Z</time>
      </trkpt>
      <trkpt lat="48.2485" lon="7.33443">
        <ele>653</ele>
        <time>2021-05-23T09:39:51Z</time>
      </trkpt>
      <trkpt lat="48.2486" lon="7.33455">
        <ele>653.79998779297</ele>
        <time>2021-05-23T09:39:55Z</time>
      </trkpt>
      <trkpt lat="48.24864" lon="7.33462">
        <ele>654.40002441406</ele>
        <time>2021-05-23T09:39:57Z</time>
      </trkpt>
      <trkpt lat="48.24866" lon="7.33472">
        <ele>654.79998779297</ele>
        <time>2021-05-23T09:39:59Z</time>
      </trkpt>
      <trkpt lat="48.24865" lon="7.33476">
        <ele>655</ele>
        <time>2021-05-23T09:40:00Z</time>
      </trkpt>
      <trkpt lat="48.24863" lon="7.3348">
        <ele>655</ele>
        <time>2021-05-23T09:40:01Z</time>
      </trkpt>
      <trkpt lat="48.24856" lon="7.33486">
        <ele>655.59997558594</ele>
        <time>2021-05-23T09:40:04Z</time>
      </trkpt>
      <trkpt lat="48.24853" lon="7.33487">
        <ele>656</ele>
        <time>2021-05-23T09:40:05Z</time>
      </trkpt>
      <trkpt lat="48.2485" lon="7.33487">
        <ele>656.40002441406</ele>
        <time>2021-05-23T09:40:06Z</time>
      </trkpt>
      <trkpt lat="48.24847" lon="7.33487">
        <ele>656.59997558594</ele>
        <time>2021-05-23T09:40:07Z</time>
      </trkpt>
      <trkpt lat="48.24844" lon="7.33486">
        <ele>657.20001220703</ele>
        <time>2021-05-23T09:40:08Z</time>
      </trkpt>
      <trkpt lat="48.24834" lon="7.33485">
        <ele>658.20001220703</ele>
        <time>2021-05-23T09:40:12Z</time>
      </trkpt>
      <trkpt lat="48.24832" lon="7.33485">
        <ele>658.59997558594</ele>
        <time>2021-05-23T09:40:13Z</time>
      </trkpt>
      <trkpt lat="48.2482" lon="7.33485">
        <ele>659.59997558594</ele>
        <time>2021-05-23T09:40:17Z</time>
      </trkpt>
      <trkpt lat="48.24809" lon="7.33489">
        <ele>660.59997558594</ele>
        <time>2021-05-23T09:40:21Z</time>
      </trkpt>
      <trkpt lat="48.24806" lon="7.3349">
        <ele>660.79998779297</ele>
        <time>2021-05-23T09:40:22Z</time>
      </trkpt>
      <trkpt lat="48.24795" lon="7.33496">
        <ele>661.59997558594</ele>
        <time>2021-05-23T09:40:27Z</time>
      </trkpt>
      <trkpt lat="48.24792" lon="7.33497">
        <ele>661.79998779297</ele>
        <time>2021-05-23T09:40:28Z</time>
      </trkpt>
      <trkpt lat="48.24787" lon="7.33501">
        <ele>662</ele>
        <time>2021-05-23T09:40:30Z</time>
      </trkpt>
      <trkpt lat="48.24782" lon="7.33506">
        <ele>662.20001220703</ele>
        <time>2021-05-23T09:40:33Z</time>
      </trkpt>
      <trkpt lat="48.24781" lon="7.33506">
        <ele>662.59997558594</ele>
        <time>2021-05-23T09:40:37Z</time>
      </trkpt>
      <trkpt lat="48.24781" lon="7.33506">
        <ele>662.79998779297</ele>
        <time>2021-05-23T09:40:38Z</time>
      </trkpt>
      <trkpt lat="48.2478" lon="7.33509">
        <ele>662.59997558594</ele>
        <time>2021-05-23T09:46:30Z</time>
      </trkpt>
      <trkpt lat="48.24776" lon="7.33532">
        <ele>662.79998779297</ele>
        <time>2021-05-23T09:46:36Z</time>
      </trkpt>
      <trkpt lat="48.24772" lon="7.33556">
        <ele>663.20001220703</ele>
        <time>2021-05-23T09:46:41Z</time>
      </trkpt>
      <trkpt lat="48.24771" lon="7.33569">
        <ele>663.59997558594</ele>
        <time>2021-05-23T09:46:44Z</time>
      </trkpt>
      <trkpt lat="48.24772" lon="7.33577">
        <ele>664</ele>
        <time>2021-05-23T09:46:46Z</time>
      </trkpt>
      <trkpt lat="48.24772" lon="7.336">
        <ele>664.79998779297</ele>
        <time>2021-05-23T09:46:51Z</time>
      </trkpt>
      <trkpt lat="48.24766" lon="7.33628">
        <ele>666</ele>
        <time>2021-05-23T09:46:57Z</time>
      </trkpt>
      <trkpt lat="48.24764" lon="7.33644">
        <ele>667.20001220703</ele>
        <time>2021-05-23T09:47:01Z</time>
      </trkpt>
      <trkpt lat="48.2476" lon="7.33656">
        <ele>667.40002441406</ele>
        <time>2021-05-23T09:47:03Z</time>
      </trkpt>
      <trkpt lat="48.24763" lon="7.33675">
        <ele>668.20001220703</ele>
        <time>2021-05-23T09:47:07Z</time>
      </trkpt>
      <trkpt lat="48.24765" lon="7.33679">
        <ele>668.40002441406</ele>
        <time>2021-05-23T09:47:08Z</time>
      </trkpt>
      <trkpt lat="48.24764" lon="7.33681">
        <ele>668.59997558594</ele>
        <time>2021-05-23T09:47:09Z</time>
      </trkpt>
      <trkpt lat="48.24762" lon="7.33689">
        <ele>668.79998779297</ele>
        <time>2021-05-23T09:47:11Z</time>
      </trkpt>
      <trkpt lat="48.24765" lon="7.33701">
        <ele>669.40002441406</ele>
        <time>2021-05-23T09:47:14Z</time>
      </trkpt>
      <trkpt lat="48.24766" lon="7.33713">
        <ele>669.79998779297</ele>
        <time>2021-05-23T09:47:16Z</time>
      </trkpt>
      <trkpt lat="48.2477" lon="7.33727">
        <ele>670.40002441406</ele>
        <time>2021-05-23T09:47:19Z</time>
      </trkpt>
      <trkpt lat="48.24769" lon="7.33734">
        <ele>670.79998779297</ele>
        <time>2021-05-23T09:47:21Z</time>
      </trkpt>
      <trkpt lat="48.24765" lon="7.33752">
        <ele>671.59997558594</ele>
        <time>2021-05-23T09:47:25Z</time>
      </trkpt>
      <trkpt lat="48.24763" lon="7.3376">
        <ele>671.59997558594</ele>
        <time>2021-05-23T09:47:27Z</time>
      </trkpt>
      <trkpt lat="48.24765" lon="7.33782">
        <ele>672.59997558594</ele>
        <time>2021-05-23T09:47:32Z</time>
      </trkpt>
      <trkpt lat="48.24768" lon="7.3379">
        <ele>673</ele>
        <time>2021-05-23T09:47:34Z</time>
      </trkpt>
      <trkpt lat="48.24769" lon="7.33798">
        <ele>673.59997558594</ele>
        <time>2021-05-23T09:47:37Z</time>
      </trkpt>
      <trkpt lat="48.24773" lon="7.33812">
        <ele>674.20001220703</ele>
        <time>2021-05-23T09:47:39Z</time>
      </trkpt>
      <trkpt lat="48.24779" lon="7.33827">
        <ele>674.59997558594</ele>
        <time>2021-05-23T09:47:42Z</time>
      </trkpt>
      <trkpt lat="48.24783" lon="7.33836">
        <ele>675</ele>
        <time>2021-05-23T09:47:44Z</time>
      </trkpt>
      <trkpt lat="48.24785" lon="7.33845">
        <ele>676</ele>
        <time>2021-05-23T09:47:46Z</time>
      </trkpt>
      <trkpt lat="48.24787" lon="7.33859">
        <ele>676.40002441406</ele>
        <time>2021-05-23T09:47:49Z</time>
      </trkpt>
      <trkpt lat="48.2479" lon="7.33877">
        <ele>677</ele>
        <time>2021-05-23T09:47:53Z</time>
      </trkpt>
      <trkpt lat="48.24791" lon="7.33881">
        <ele>677.20001220703</ele>
        <time>2021-05-23T09:47:54Z</time>
      </trkpt>
      <trkpt lat="48.24793" lon="7.339">
        <ele>678.20001220703</ele>
        <time>2021-05-23T09:47:58Z</time>
      </trkpt>
      <trkpt lat="48.24794" lon="7.33909">
        <ele>678.40002441406</ele>
        <time>2021-05-23T09:48:00Z</time>
      </trkpt>
      <trkpt lat="48.24803" lon="7.33934">
        <ele>679.40002441406</ele>
        <time>2021-05-23T09:48:05Z</time>
      </trkpt>
      <trkpt lat="48.24803" lon="7.33939">
        <ele>679.59997558594</ele>
        <time>2021-05-23T09:48:06Z</time>
      </trkpt>
      <trkpt lat="48.24808" lon="7.33961">
        <ele>680.40002441406</ele>
        <time>2021-05-23T09:48:11Z</time>
      </trkpt>
      <trkpt lat="48.24809" lon="7.33966">
        <ele>680.59997558594</ele>
        <time>2021-05-23T09:48:12Z</time>
      </trkpt>
      <trkpt lat="48.24809" lon="7.33976">
        <ele>680.79998779297</ele>
        <time>2021-05-23T09:48:14Z</time>
      </trkpt>
      <trkpt lat="48.2481" lon="7.33981">
        <ele>680.79998779297</ele>
        <time>2021-05-23T09:48:15Z</time>
      </trkpt>
      <trkpt lat="48.24812" lon="7.33993">
        <ele>681.79998779297</ele>
        <time>2021-05-23T09:48:18Z</time>
      </trkpt>
      <trkpt lat="48.24813" lon="7.33997">
        <ele>682</ele>
        <time>2021-05-23T09:48:19Z</time>
      </trkpt>
      <trkpt lat="48.24813" lon="7.34002">
        <ele>682.40002441406</ele>
        <time>2021-05-23T09:48:20Z</time>
      </trkpt>
      <trkpt lat="48.24815" lon="7.34017">
        <ele>683</ele>
        <time>2021-05-23T09:48:23Z</time>
      </trkpt>
      <trkpt lat="48.24815" lon="7.34022">
        <ele>683</ele>
        <time>2021-05-23T09:48:24Z</time>
      </trkpt>
      <trkpt lat="48.24821" lon="7.34038">
        <ele>684.20001220703</ele>
        <time>2021-05-23T09:48:27Z</time>
      </trkpt>
      <trkpt lat="48.24822" lon="7.34047">
        <ele>684.79998779297</ele>
        <time>2021-05-23T09:48:29Z</time>
      </trkpt>
      <trkpt lat="48.24823" lon="7.34056">
        <ele>685.20001220703</ele>
        <time>2021-05-23T09:48:31Z</time>
      </trkpt>
      <trkpt lat="48.24825" lon="7.34066">
        <ele>685.79998779297</ele>
        <time>2021-05-23T09:48:33Z</time>
      </trkpt>
      <trkpt lat="48.24828" lon="7.3408">
        <ele>686.59997558594</ele>
        <time>2021-05-23T09:48:36Z</time>
      </trkpt>
      <trkpt lat="48.24837" lon="7.341">
        <ele>687.40002441406</ele>
        <time>2021-05-23T09:48:40Z</time>
      </trkpt>
      <trkpt lat="48.24836" lon="7.34105">
        <ele>687.59997558594</ele>
        <time>2021-05-23T09:48:41Z</time>
      </trkpt>
      <trkpt lat="48.24839" lon="7.34118">
        <ele>688.59997558594</ele>
        <time>2021-05-23T09:48:44Z</time>
      </trkpt>
      <trkpt lat="48.24838" lon="7.34122">
        <ele>688.59997558594</ele>
        <time>2021-05-23T09:48:45Z</time>
      </trkpt>
      <trkpt lat="48.24838" lon="7.34146">
        <ele>689.79998779297</ele>
        <time>2021-05-23T09:48:50Z</time>
      </trkpt>
      <trkpt lat="48.24841" lon="7.34169">
        <ele>690.79998779297</ele>
        <time>2021-05-23T09:48:55Z</time>
      </trkpt>
      <trkpt lat="48.24841" lon="7.34174">
        <ele>690.79998779297</ele>
        <time>2021-05-23T09:48:56Z</time>
      </trkpt>
      <trkpt lat="48.24842" lon="7.34187">
        <ele>691.79998779297</ele>
        <time>2021-05-23T09:48:59Z</time>
      </trkpt>
      <trkpt lat="48.24843" lon="7.34191">
        <ele>692</ele>
        <time>2021-05-23T09:49:00Z</time>
      </trkpt>
      <trkpt lat="48.24845" lon="7.34208">
        <ele>693.20001220703</ele>
        <time>2021-05-23T09:49:04Z</time>
      </trkpt>
      <trkpt lat="48.24846" lon="7.34213">
        <ele>693.40002441406</ele>
        <time>2021-05-23T09:49:05Z</time>
      </trkpt>
      <trkpt lat="48.24844" lon="7.34233">
        <ele>694.40002441406</ele>
        <time>2021-05-23T09:49:09Z</time>
      </trkpt>
      <trkpt lat="48.24845" lon="7.34246">
        <ele>695.40002441406</ele>
        <time>2021-05-23T09:49:12Z</time>
      </trkpt>
      <trkpt lat="48.2485" lon="7.34275">
        <ele>696.59997558594</ele>
        <time>2021-05-23T09:49:18Z</time>
      </trkpt>
      <trkpt lat="48.24852" lon="7.34294">
        <ele>698</ele>
        <time>2021-05-23T09:49:22Z</time>
      </trkpt>
      <trkpt lat="48.24855" lon="7.34313">
        <ele>699</ele>
        <time>2021-05-23T09:49:26Z</time>
      </trkpt>
      <trkpt lat="48.24856" lon="7.34322">
        <ele>699.40002441406</ele>
        <time>2021-05-23T09:49:28Z</time>
      </trkpt>
      <trkpt lat="48.24858" lon="7.34338">
        <ele>700.20001220703</ele>
        <time>2021-05-23T09:49:31Z</time>
      </trkpt>
      <trkpt lat="48.24859" lon="7.34354">
        <ele>701</ele>
        <time>2021-05-23T09:49:34Z</time>
      </trkpt>
      <trkpt lat="48.24861" lon="7.34364">
        <ele>701.40002441406</ele>
        <time>2021-05-23T09:49:36Z</time>
      </trkpt>
      <trkpt lat="48.24863" lon="7.3438">
        <ele>702.20001220703</ele>
        <time>2021-05-23T09:49:39Z</time>
      </trkpt>
      <trkpt lat="48.24865" lon="7.34388">
        <ele>702.59997558594</ele>
        <time>2021-05-23T09:49:41Z</time>
      </trkpt>
      <trkpt lat="48.24868" lon="7.34397">
        <ele>703</ele>
        <time>2021-05-23T09:49:43Z</time>
      </trkpt>
      <trkpt lat="48.24871" lon="7.34406">
        <ele>703.59997558594</ele>
        <time>2021-05-23T09:49:45Z</time>
      </trkpt>
      <trkpt lat="48.24876" lon="7.34423">
        <ele>704.40002441406</ele>
        <time>2021-05-23T09:49:49Z</time>
      </trkpt>
      <trkpt lat="48.24877" lon="7.34427">
        <ele>704.79998779297</ele>
        <time>2021-05-23T09:49:50Z</time>
      </trkpt>
      <trkpt lat="48.24879" lon="7.34441">
        <ele>705.79998779297</ele>
        <time>2021-05-23T09:49:53Z</time>
      </trkpt>
      <trkpt lat="48.2488" lon="7.34444">
        <ele>706</ele>
        <time>2021-05-23T09:49:54Z</time>
      </trkpt>
      <trkpt lat="48.24885" lon="7.34458">
        <ele>707</ele>
        <time>2021-05-23T09:49:57Z</time>
      </trkpt>
      <trkpt lat="48.24886" lon="7.34463">
        <ele>707.40002441406</ele>
        <time>2021-05-23T09:49:58Z</time>
      </trkpt>
      <trkpt lat="48.24889" lon="7.34477">
        <ele>708.20001220703</ele>
        <time>2021-05-23T09:50:01Z</time>
      </trkpt>
      <trkpt lat="48.24892" lon="7.3449">
        <ele>709.40002441406</ele>
        <time>2021-05-23T09:50:04Z</time>
      </trkpt>
      <trkpt lat="48.24894" lon="7.34499">
        <ele>709.79998779297</ele>
        <time>2021-05-23T09:50:06Z</time>
      </trkpt>
      <trkpt lat="48.24896" lon="7.34509">
        <ele>710.59997558594</ele>
        <time>2021-05-23T09:50:08Z</time>
      </trkpt>
      <trkpt lat="48.24902" lon="7.34533">
        <ele>711.79998779297</ele>
        <time>2021-05-23T09:50:13Z</time>
      </trkpt>
      <trkpt lat="48.24904" lon="7.34543">
        <ele>712.20001220703</ele>
        <time>2021-05-23T09:50:15Z</time>
      </trkpt>
      <trkpt lat="48.24911" lon="7.34562">
        <ele>713</ele>
        <time>2021-05-23T09:50:19Z</time>
      </trkpt>
      <trkpt lat="48.24912" lon="7.34566">
        <ele>713.20001220703</ele>
        <time>2021-05-23T09:50:20Z</time>
      </trkpt>
      <trkpt lat="48.24916" lon="7.34582">
        <ele>714.20001220703</ele>
        <time>2021-05-23T09:50:24Z</time>
      </trkpt>
      <trkpt lat="48.2492" lon="7.34592">
        <ele>714.59997558594</ele>
        <time>2021-05-23T09:50:27Z</time>
      </trkpt>
      <trkpt lat="48.24927" lon="7.34606">
        <ele>715.20001220703</ele>
        <time>2021-05-23T09:50:31Z</time>
      </trkpt>
      <trkpt lat="48.24934" lon="7.3462">
        <ele>715.59997558594</ele>
        <time>2021-05-23T09:50:35Z</time>
      </trkpt>
      <trkpt lat="48.24944" lon="7.34629">
        <ele>716</ele>
        <time>2021-05-23T09:50:40Z</time>
      </trkpt>
      <trkpt lat="48.2495" lon="7.34631">
        <ele>716.40002441406</ele>
        <time>2021-05-23T09:50:44Z</time>
      </trkpt>
      <trkpt lat="48.24957" lon="7.34629">
        <ele>716.59997558594</ele>
        <time>2021-05-23T09:50:47Z</time>
      </trkpt>
      <trkpt lat="48.24966" lon="7.34624">
        <ele>717.20001220703</ele>
        <time>2021-05-23T09:50:55Z</time>
      </trkpt>
      <trkpt lat="48.24966" lon="7.34624">
        <ele>717.20001220703</ele>
        <time>2021-05-23T09:50:58Z</time>
      </trkpt>
      <trkpt lat="48.24965" lon="7.34625">
        <ele>717.20001220703</ele>
        <time>2021-05-23T09:53:20Z</time>
      </trkpt>
      <trkpt lat="48.24961" lon="7.34628">
        <ele>717</ele>
        <time>2021-05-23T09:53:22Z</time>
      </trkpt>
      <trkpt lat="48.24951" lon="7.34631">
        <ele>716.79998779297</ele>
        <time>2021-05-23T09:53:30Z</time>
      </trkpt>
      <trkpt lat="48.2495" lon="7.34631">
        <ele>716.79998779297</ele>
        <time>2021-05-23T09:53:31Z</time>
      </trkpt>
      <trkpt lat="48.24944" lon="7.34632">
        <ele>716.79998779297</ele>
        <time>2021-05-23T09:53:36Z</time>
      </trkpt>
      <trkpt lat="48.24944" lon="7.34632">
        <ele>716.59997558594</ele>
        <time>2021-05-23T09:53:38Z</time>
      </trkpt>
      <trkpt lat="48.24948" lon="7.3463">
        <ele>716</ele>
        <time>2021-05-23T09:56:46Z</time>
      </trkpt>
      <trkpt lat="48.2495" lon="7.34629">
        <ele>716</ele>
        <time>2021-05-23T09:56:47Z</time>
      </trkpt>
      <trkpt lat="48.24958" lon="7.34619">
        <ele>716.40002441406</ele>
        <time>2021-05-23T09:56:50Z</time>
      </trkpt>
      <trkpt lat="48.24961" lon="7.34616">
        <ele>716.40002441406</ele>
        <time>2021-05-23T09:56:51Z</time>
      </trkpt>
      <trkpt lat="48.24969" lon="7.34607">
        <ele>716.40002441406</ele>
        <time>2021-05-23T09:56:53Z</time>
      </trkpt>
      <trkpt lat="48.24976" lon="7.34596">
        <ele>716.40002441406</ele>
        <time>2021-05-23T09:56:55Z</time>
      </trkpt>
      <trkpt lat="48.24978" lon="7.3459">
        <ele>716.40002441406</ele>
        <time>2021-05-23T09:56:56Z</time>
      </trkpt>
      <trkpt lat="48.24987" lon="7.34563">
        <ele>716.20001220703</ele>
        <time>2021-05-23T09:57:00Z</time>
      </trkpt>
      <trkpt lat="48.2499" lon="7.34549">
        <ele>715.79998779297</ele>
        <time>2021-05-23T09:57:02Z</time>
      </trkpt>
      <trkpt lat="48.24997" lon="7.34533">
        <ele>715</ele>
        <time>2021-05-23T09:57:05Z</time>
      </trkpt>
      <trkpt lat="48.24998" lon="7.34529">
        <ele>715</ele>
        <time>2021-05-23T09:57:06Z</time>
      </trkpt>
      <trkpt lat="48.24998" lon="7.34524">
        <ele>714.79998779297</ele>
        <time>2021-05-23T09:57:07Z</time>
      </trkpt>
      <trkpt lat="48.25" lon="7.34496">
        <ele>714.59997558594</ele>
        <time>2021-05-23T09:57:12Z</time>
      </trkpt>
      <trkpt lat="48.24999" lon="7.3449">
        <ele>714.59997558594</ele>
        <time>2021-05-23T09:57:13Z</time>
      </trkpt>
      <trkpt lat="48.25002" lon="7.34483">
        <ele>714.59997558594</ele>
        <time>2021-05-23T09:57:15Z</time>
      </trkpt>
      <trkpt lat="48.24999" lon="7.34451">
        <ele>714.40002441406</ele>
        <time>2021-05-23T09:57:20Z</time>
      </trkpt>
      <trkpt lat="48.24999" lon="7.34428">
        <ele>714.20001220703</ele>
        <time>2021-05-23T09:57:24Z</time>
      </trkpt>
      <trkpt lat="48.24998" lon="7.34417">
        <ele>714.20001220703</ele>
        <time>2021-05-23T09:57:27Z</time>
      </trkpt>
      <trkpt lat="48.24998" lon="7.34416">
        <ele>714</ele>
        <time>2021-05-23T09:57:28Z</time>
      </trkpt>
      <trkpt lat="48.24998" lon="7.34416">
        <ele>713.79998779297</ele>
        <time>2021-05-23T09:57:29Z</time>
      </trkpt>
      <trkpt lat="48.24998" lon="7.34416">
        <ele>713.59997558594</ele>
        <time>2021-05-23T09:57:31Z</time>
      </trkpt>
      <trkpt lat="48.25" lon="7.34414">
        <ele>713</ele>
        <time>2021-05-23T10:00:43Z</time>
      </trkpt>
      <trkpt lat="48.24999" lon="7.34408">
        <ele>712.59997558594</ele>
        <time>2021-05-23T10:00:45Z</time>
      </trkpt>
      <trkpt lat="48.25" lon="7.34399">
        <ele>712.59997558594</ele>
        <time>2021-05-23T10:00:47Z</time>
      </trkpt>
      <trkpt lat="48.25" lon="7.34389">
        <ele>712.59997558594</ele>
        <time>2021-05-23T10:00:49Z</time>
      </trkpt>
      <trkpt lat="48.25001" lon="7.34379">
        <ele>712.40002441406</ele>
        <time>2021-05-23T10:00:51Z</time>
      </trkpt>
      <trkpt lat="48.25002" lon="7.34355">
        <ele>711.79998779297</ele>
        <time>2021-05-23T10:00:54Z</time>
      </trkpt>
      <trkpt lat="48.25002" lon="7.34346">
        <ele>711.59997558594</ele>
        <time>2021-05-23T10:00:55Z</time>
      </trkpt>
      <trkpt lat="48.25003" lon="7.34325">
        <ele>711</ele>
        <time>2021-05-23T10:00:57Z</time>
      </trkpt>
      <trkpt lat="48.25002" lon="7.34315">
        <ele>710.59997558594</ele>
        <time>2021-05-23T10:00:58Z</time>
      </trkpt>
      <trkpt lat="48.25003" lon="7.34304">
        <ele>710.20001220703</ele>
        <time>2021-05-23T10:00:59Z</time>
      </trkpt>
      <trkpt lat="48.25004" lon="7.34292">
        <ele>709.59997558594</ele>
        <time>2021-05-23T10:01:00Z</time>
      </trkpt>
      <trkpt lat="48.25006" lon="7.3428">
        <ele>708.40002441406</ele>
        <time>2021-05-23T10:01:01Z</time>
      </trkpt>
      <trkpt lat="48.25005" lon="7.34242">
        <ele>707</ele>
        <time>2021-05-23T10:01:04Z</time>
      </trkpt>
      <trkpt lat="48.25007" lon="7.342">
        <ele>705.79998779297</ele>
        <time>2021-05-23T10:01:07Z</time>
      </trkpt>
      <trkpt lat="48.25004" lon="7.34171">
        <ele>705.20001220703</ele>
        <time>2021-05-23T10:01:09Z</time>
      </trkpt>
      <trkpt lat="48.25004" lon="7.34155">
        <ele>704.40002441406</ele>
        <time>2021-05-23T10:01:10Z</time>
      </trkpt>
      <trkpt lat="48.25006" lon="7.34127">
        <ele>702.79998779297</ele>
        <time>2021-05-23T10:01:12Z</time>
      </trkpt>
      <trkpt lat="48.25007" lon="7.34112">
        <ele>701.59997558594</ele>
        <time>2021-05-23T10:01:13Z</time>
      </trkpt>
      <trkpt lat="48.25007" lon="7.34081">
        <ele>700.40002441406</ele>
        <time>2021-05-23T10:01:15Z</time>
      </trkpt>
      <trkpt lat="48.2501" lon="7.34048">
        <ele>698.59997558594</ele>
        <time>2021-05-23T10:01:17Z</time>
      </trkpt>
      <trkpt lat="48.25015" lon="7.34013">
        <ele>696.79998779297</ele>
        <time>2021-05-23T10:01:19Z</time>
      </trkpt>
      <trkpt lat="48.25016" lon="7.33996">
        <ele>695.79998779297</ele>
        <time>2021-05-23T10:01:20Z</time>
      </trkpt>
      <trkpt lat="48.25019" lon="7.33982">
        <ele>695.59997558594</ele>
        <time>2021-05-23T10:01:21Z</time>
      </trkpt>
      <trkpt lat="48.25023" lon="7.33951">
        <ele>694</ele>
        <time>2021-05-23T10:01:23Z</time>
      </trkpt>
      <trkpt lat="48.25025" lon="7.33919">
        <ele>692.40002441406</ele>
        <time>2021-05-23T10:01:25Z</time>
      </trkpt>
      <trkpt lat="48.25025" lon="7.33902">
        <ele>690.79998779297</ele>
        <time>2021-05-23T10:01:26Z</time>
      </trkpt>
      <trkpt lat="48.25025" lon="7.33885">
        <ele>689.40002441406</ele>
        <time>2021-05-23T10:01:27Z</time>
      </trkpt>
      <trkpt lat="48.25025" lon="7.33852">
        <ele>688.20001220703</ele>
        <time>2021-05-23T10:01:29Z</time>
      </trkpt>
      <trkpt lat="48.25024" lon="7.33819">
        <ele>686.59997558594</ele>
        <time>2021-05-23T10:01:31Z</time>
      </trkpt>
      <trkpt lat="48.25024" lon="7.33789">
        <ele>684.59997558594</ele>
        <time>2021-05-23T10:01:33Z</time>
      </trkpt>
      <trkpt lat="48.25021" lon="7.33757">
        <ele>683.20001220703</ele>
        <time>2021-05-23T10:01:35Z</time>
      </trkpt>
      <trkpt lat="48.25018" lon="7.33742">
        <ele>681.79998779297</ele>
        <time>2021-05-23T10:01:36Z</time>
      </trkpt>
      <trkpt lat="48.2501" lon="7.33712">
        <ele>680</ele>
        <time>2021-05-23T10:01:38Z</time>
      </trkpt>
      <trkpt lat="48.25004" lon="7.33698">
        <ele>679.40002441406</ele>
        <time>2021-05-23T10:01:39Z</time>
      </trkpt>
      <trkpt lat="48.24997" lon="7.33685">
        <ele>678</ele>
        <time>2021-05-23T10:01:40Z</time>
      </trkpt>
      <trkpt lat="48.2498" lon="7.3366">
        <ele>676</ele>
        <time>2021-05-23T10:01:42Z</time>
      </trkpt>
      <trkpt lat="48.24973" lon="7.33647">
        <ele>674.79998779297</ele>
        <time>2021-05-23T10:01:43Z</time>
      </trkpt>
      <trkpt lat="48.24965" lon="7.33635">
        <ele>674.20001220703</ele>
        <time>2021-05-23T10:01:44Z</time>
      </trkpt>
      <trkpt lat="48.24957" lon="7.33623">
        <ele>672.79998779297</ele>
        <time>2021-05-23T10:01:45Z</time>
      </trkpt>
      <trkpt lat="48.2494" lon="7.33599">
        <ele>670.59997558594</ele>
        <time>2021-05-23T10:01:47Z</time>
      </trkpt>
      <trkpt lat="48.24931" lon="7.33587">
        <ele>670</ele>
        <time>2021-05-23T10:01:48Z</time>
      </trkpt>
      <trkpt lat="48.24921" lon="7.33574">
        <ele>669.20001220703</ele>
        <time>2021-05-23T10:01:49Z</time>
      </trkpt>
      <trkpt lat="48.24904" lon="7.33552">
        <ele>667.40002441406</ele>
        <time>2021-05-23T10:01:51Z</time>
      </trkpt>
      <trkpt lat="48.24896" lon="7.3354">
        <ele>666.20001220703</ele>
        <time>2021-05-23T10:01:52Z</time>
      </trkpt>
      <trkpt lat="48.24883" lon="7.33516">
        <ele>664.40002441406</ele>
        <time>2021-05-23T10:01:54Z</time>
      </trkpt>
      <trkpt lat="48.24873" lon="7.33492">
        <ele>662.59997558594</ele>
        <time>2021-05-23T10:01:56Z</time>
      </trkpt>
      <trkpt lat="48.24868" lon="7.33481">
        <ele>662.40002441406</ele>
        <time>2021-05-23T10:01:57Z</time>
      </trkpt>
      <trkpt lat="48.24863" lon="7.33469">
        <ele>661.59997558594</ele>
        <time>2021-05-23T10:01:58Z</time>
      </trkpt>
      <trkpt lat="48.24856" lon="7.33457">
        <ele>660.59997558594</ele>
        <time>2021-05-23T10:01:59Z</time>
      </trkpt>
      <trkpt lat="48.24849" lon="7.33445">
        <ele>660.40002441406</ele>
        <time>2021-05-23T10:02:00Z</time>
      </trkpt>
      <trkpt lat="48.24841" lon="7.33434">
        <ele>659.59997558594</ele>
        <time>2021-05-23T10:02:01Z</time>
      </trkpt>
      <trkpt lat="48.24833" lon="7.33425">
        <ele>659</ele>
        <time>2021-05-23T10:02:02Z</time>
      </trkpt>
      <trkpt lat="48.24824" lon="7.33416">
        <ele>657.79998779297</ele>
        <time>2021-05-23T10:02:03Z</time>
      </trkpt>
      <trkpt lat="48.24805" lon="7.33397">
        <ele>655.79998779297</ele>
        <time>2021-05-23T10:02:05Z</time>
      </trkpt>
      <trkpt lat="48.24793" lon="7.33387">
        <ele>654.59997558594</ele>
        <time>2021-05-23T10:02:06Z</time>
      </trkpt>
      <trkpt lat="48.24775" lon="7.33368">
        <ele>653.20001220703</ele>
        <time>2021-05-23T10:02:08Z</time>
      </trkpt>
      <trkpt lat="48.24758" lon="7.33353">
        <ele>651.40002441406</ele>
        <time>2021-05-23T10:02:10Z</time>
      </trkpt>
      <trkpt lat="48.24739" lon="7.3334">
        <ele>649.59997558594</ele>
        <time>2021-05-23T10:02:12Z</time>
      </trkpt>
      <trkpt lat="48.2473" lon="7.33341">
        <ele>649</ele>
        <time>2021-05-23T10:02:13Z</time>
      </trkpt>
      <trkpt lat="48.2472" lon="7.33344">
        <ele>648</ele>
        <time>2021-05-23T10:02:14Z</time>
      </trkpt>
      <trkpt lat="48.2471" lon="7.33348">
        <ele>647</ele>
        <time>2021-05-23T10:02:15Z</time>
      </trkpt>
      <trkpt lat="48.24702" lon="7.33356">
        <ele>646.40002441406</ele>
        <time>2021-05-23T10:02:16Z</time>
      </trkpt>
      <trkpt lat="48.24695" lon="7.33367">
        <ele>645.20001220703</ele>
        <time>2021-05-23T10:02:17Z</time>
      </trkpt>
      <trkpt lat="48.24691" lon="7.33382">
        <ele>644.40002441406</ele>
        <time>2021-05-23T10:02:18Z</time>
      </trkpt>
      <trkpt lat="48.24687" lon="7.33399">
        <ele>643.40002441406</ele>
        <time>2021-05-23T10:02:19Z</time>
      </trkpt>
      <trkpt lat="48.24682" lon="7.33435">
        <ele>641.20001220703</ele>
        <time>2021-05-23T10:02:21Z</time>
      </trkpt>
      <trkpt lat="48.2468" lon="7.33453">
        <ele>640</ele>
        <time>2021-05-23T10:02:22Z</time>
      </trkpt>
      <trkpt lat="48.24678" lon="7.3349">
        <ele>638.20001220703</ele>
        <time>2021-05-23T10:02:24Z</time>
      </trkpt>
      <trkpt lat="48.24677" lon="7.3353">
        <ele>636.59997558594</ele>
        <time>2021-05-23T10:02:26Z</time>
      </trkpt>
      <trkpt lat="48.24677" lon="7.33571">
        <ele>634.79998779297</ele>
        <time>2021-05-23T10:02:28Z</time>
      </trkpt>
      <trkpt lat="48.24676" lon="7.3359">
        <ele>633.79998779297</ele>
        <time>2021-05-23T10:02:29Z</time>
      </trkpt>
      <trkpt lat="48.24674" lon="7.33632">
        <ele>631.59997558594</ele>
        <time>2021-05-23T10:02:31Z</time>
      </trkpt>
      <trkpt lat="48.24674" lon="7.33674">
        <ele>630.40002441406</ele>
        <time>2021-05-23T10:02:33Z</time>
      </trkpt>
      <trkpt lat="48.24676" lon="7.33713">
        <ele>628.20001220703</ele>
        <time>2021-05-23T10:02:35Z</time>
      </trkpt>
      <trkpt lat="48.24676" lon="7.33752">
        <ele>626</ele>
        <time>2021-05-23T10:02:37Z</time>
      </trkpt>
      <trkpt lat="48.24677" lon="7.33771">
        <ele>625</ele>
        <time>2021-05-23T10:02:38Z</time>
      </trkpt>
      <trkpt lat="48.24675" lon="7.3381">
        <ele>622.59997558594</ele>
        <time>2021-05-23T10:02:40Z</time>
      </trkpt>
      <trkpt lat="48.24675" lon="7.3385">
        <ele>620.79998779297</ele>
        <time>2021-05-23T10:02:42Z</time>
      </trkpt>
      <trkpt lat="48.24673" lon="7.3387">
        <ele>620.40002441406</ele>
        <time>2021-05-23T10:02:43Z</time>
      </trkpt>
      <trkpt lat="48.24671" lon="7.33892">
        <ele>618.59997558594</ele>
        <time>2021-05-23T10:02:44Z</time>
      </trkpt>
      <trkpt lat="48.24669" lon="7.33913">
        <ele>617.59997558594</ele>
        <time>2021-05-23T10:02:45Z</time>
      </trkpt>
      <trkpt lat="48.24665" lon="7.33955">
        <ele>615</ele>
        <time>2021-05-23T10:02:47Z</time>
      </trkpt>
      <trkpt lat="48.24664" lon="7.33975">
        <ele>614</ele>
        <time>2021-05-23T10:02:48Z</time>
      </trkpt>
      <trkpt lat="48.24664" lon="7.33996">
        <ele>612.59997558594</ele>
        <time>2021-05-23T10:02:49Z</time>
      </trkpt>
      <trkpt lat="48.2466" lon="7.34038">
        <ele>610.40002441406</ele>
        <time>2021-05-23T10:02:51Z</time>
      </trkpt>
      <trkpt lat="48.24657" lon="7.34081">
        <ele>608.79998779297</ele>
        <time>2021-05-23T10:02:53Z</time>
      </trkpt>
      <trkpt lat="48.24654" lon="7.34101">
        <ele>607</ele>
        <time>2021-05-23T10:02:54Z</time>
      </trkpt>
      <trkpt lat="48.2465" lon="7.34143">
        <ele>604.59997558594</ele>
        <time>2021-05-23T10:02:56Z</time>
      </trkpt>
      <trkpt lat="48.24648" lon="7.34184">
        <ele>602.79998779297</ele>
        <time>2021-05-23T10:02:58Z</time>
      </trkpt>
      <trkpt lat="48.24646" lon="7.34226">
        <ele>601</ele>
        <time>2021-05-23T10:03:00Z</time>
      </trkpt>
      <trkpt lat="48.24646" lon="7.34247">
        <ele>599.40002441406</ele>
        <time>2021-05-23T10:03:01Z</time>
      </trkpt>
      <trkpt lat="48.24647" lon="7.34287">
        <ele>597.20001220703</ele>
        <time>2021-05-23T10:03:03Z</time>
      </trkpt>
      <trkpt lat="48.24649" lon="7.34328">
        <ele>595</ele>
        <time>2021-05-23T10:03:05Z</time>
      </trkpt>
      <trkpt lat="48.2465" lon="7.34369">
        <ele>593</ele>
        <time>2021-05-23T10:03:07Z</time>
      </trkpt>
      <trkpt lat="48.24649" lon="7.34388">
        <ele>592.40002441406</ele>
        <time>2021-05-23T10:03:08Z</time>
      </trkpt>
      <trkpt lat="48.24648" lon="7.34407">
        <ele>590.40002441406</ele>
        <time>2021-05-23T10:03:09Z</time>
      </trkpt>
      <trkpt lat="48.24648" lon="7.34426">
        <ele>588.79998779297</ele>
        <time>2021-05-23T10:03:10Z</time>
      </trkpt>
      <trkpt lat="48.24649" lon="7.34465">
        <ele>587</ele>
        <time>2021-05-23T10:03:12Z</time>
      </trkpt>
      <trkpt lat="48.24651" lon="7.34502">
        <ele>585.40002441406</ele>
        <time>2021-05-23T10:03:14Z</time>
      </trkpt>
      <trkpt lat="48.24654" lon="7.34536">
        <ele>583.40002441406</ele>
        <time>2021-05-23T10:03:16Z</time>
      </trkpt>
      <trkpt lat="48.24655" lon="7.34552">
        <ele>582</ele>
        <time>2021-05-23T10:03:17Z</time>
      </trkpt>
      <trkpt lat="48.24656" lon="7.34568">
        <ele>581.20001220703</ele>
        <time>2021-05-23T10:03:18Z</time>
      </trkpt>
      <trkpt lat="48.24657" lon="7.34582">
        <ele>579.79998779297</ele>
        <time>2021-05-23T10:03:19Z</time>
      </trkpt>
      <trkpt lat="48.24658" lon="7.34609">
        <ele>577.59997558594</ele>
        <time>2021-05-23T10:03:21Z</time>
      </trkpt>
      <trkpt lat="48.2466" lon="7.34636">
        <ele>576.20001220703</ele>
        <time>2021-05-23T10:03:23Z</time>
      </trkpt>
      <trkpt lat="48.24662" lon="7.34661">
        <ele>575</ele>
        <time>2021-05-23T10:03:25Z</time>
      </trkpt>
      <trkpt lat="48.24663" lon="7.3468">
        <ele>573.59997558594</ele>
        <time>2021-05-23T10:03:27Z</time>
      </trkpt>
      <trkpt lat="48.24663" lon="7.34689">
        <ele>572.79998779297</ele>
        <time>2021-05-23T10:03:28Z</time>
      </trkpt>
      <trkpt lat="48.24663" lon="7.34695">
        <ele>572.40002441406</ele>
        <time>2021-05-23T10:03:29Z</time>
      </trkpt>
      <trkpt lat="48.24659" lon="7.347">
        <ele>571.40002441406</ele>
        <time>2021-05-23T10:03:30Z</time>
      </trkpt>
      <trkpt lat="48.24655" lon="7.34702">
        <ele>571.20001220703</ele>
        <time>2021-05-23T10:03:31Z</time>
      </trkpt>
      <trkpt lat="48.24649" lon="7.34701">
        <ele>570.59997558594</ele>
        <time>2021-05-23T10:03:32Z</time>
      </trkpt>
      <trkpt lat="48.24644" lon="7.34695">
        <ele>570</ele>
        <time>2021-05-23T10:03:33Z</time>
      </trkpt>
      <trkpt lat="48.24641" lon="7.34687">
        <ele>569.59997558594</ele>
        <time>2021-05-23T10:03:34Z</time>
      </trkpt>
      <trkpt lat="48.24639" lon="7.34678">
        <ele>568.59997558594</ele>
        <time>2021-05-23T10:03:35Z</time>
      </trkpt>
      <trkpt lat="48.24639" lon="7.3467">
        <ele>568.20001220703</ele>
        <time>2021-05-23T10:03:36Z</time>
      </trkpt>
      <trkpt lat="48.2464" lon="7.34661">
        <ele>567.40002441406</ele>
        <time>2021-05-23T10:03:37Z</time>
      </trkpt>
      <trkpt lat="48.24644" lon="7.34638">
        <ele>566.20001220703</ele>
        <time>2021-05-23T10:03:40Z</time>
      </trkpt>
      <trkpt lat="48.24645" lon="7.34631">
        <ele>566.20001220703</ele>
        <time>2021-05-23T10:03:41Z</time>
      </trkpt>
      <trkpt lat="48.24645" lon="7.34625">
        <ele>566</ele>
        <time>2021-05-23T10:03:42Z</time>
      </trkpt>
      <trkpt lat="48.24645" lon="7.34618">
        <ele>565.79998779297</ele>
        <time>2021-05-23T10:03:43Z</time>
      </trkpt>
      <trkpt lat="48.2464" lon="7.34587">
        <ele>565.79998779297</ele>
        <time>2021-05-23T10:03:47Z</time>
      </trkpt>
      <trkpt lat="48.24634" lon="7.34543">
        <ele>565.79998779297</ele>
        <time>2021-05-23T10:03:52Z</time>
      </trkpt>
      <trkpt lat="48.24632" lon="7.34534">
        <ele>565.79998779297</ele>
        <time>2021-05-23T10:03:53Z</time>
      </trkpt>
      <trkpt lat="48.24622" lon="7.34497">
        <ele>565.59997558594</ele>
        <time>2021-05-23T10:03:57Z</time>
      </trkpt>
      <trkpt lat="48.24616" lon="7.3448">
        <ele>565.59997558594</ele>
        <time>2021-05-23T10:03:59Z</time>
      </trkpt>
      <trkpt lat="48.24606" lon="7.34448">
        <ele>565.20001220703</ele>
        <time>2021-05-23T10:04:02Z</time>
      </trkpt>
      <trkpt lat="48.24601" lon="7.34434">
        <ele>565.20001220703</ele>
        <time>2021-05-23T10:04:03Z</time>
      </trkpt>
      <trkpt lat="48.24598" lon="7.34421">
        <ele>565</ele>
        <time>2021-05-23T10:04:04Z</time>
      </trkpt>
      <trkpt lat="48.24578" lon="7.34381">
        <ele>564.59997558594</ele>
        <time>2021-05-23T10:04:08Z</time>
      </trkpt>
      <trkpt lat="48.2457" lon="7.34349">
        <ele>564</ele>
        <time>2021-05-23T10:04:11Z</time>
      </trkpt>
      <trkpt lat="48.24566" lon="7.34324">
        <ele>563.59997558594</ele>
        <time>2021-05-23T10:04:13Z</time>
      </trkpt>
      <trkpt lat="48.24561" lon="7.3427">
        <ele>563.20001220703</ele>
        <time>2021-05-23T10:04:17Z</time>
      </trkpt>
      <trkpt lat="48.24559" lon="7.34255">
        <ele>562.79998779297</ele>
        <time>2021-05-23T10:04:18Z</time>
      </trkpt>
      <trkpt lat="48.24559" lon="7.34241">
        <ele>562.40002441406</ele>
        <time>2021-05-23T10:04:19Z</time>
      </trkpt>
      <trkpt lat="48.24557" lon="7.34212">
        <ele>561.20001220703</ele>
        <time>2021-05-23T10:04:21Z</time>
      </trkpt>
      <trkpt lat="48.24554" lon="7.34165">
        <ele>560</ele>
        <time>2021-05-23T10:04:24Z</time>
      </trkpt>
      <trkpt lat="48.24552" lon="7.3415">
        <ele>559</ele>
        <time>2021-05-23T10:04:25Z</time>
      </trkpt>
      <trkpt lat="48.24541" lon="7.34104">
        <ele>557.20001220703</ele>
        <time>2021-05-23T10:04:28Z</time>
      </trkpt>
      <trkpt lat="48.24534" lon="7.34072">
        <ele>555.40002441406</ele>
        <time>2021-05-23T10:04:30Z</time>
      </trkpt>
      <trkpt lat="48.24526" lon="7.34023">
        <ele>553.79998779297</ele>
        <time>2021-05-23T10:04:33Z</time>
      </trkpt>
      <trkpt lat="48.24524" lon="7.34009">
        <ele>552.40002441406</ele>
        <time>2021-05-23T10:04:34Z</time>
      </trkpt>
      <trkpt lat="48.24523" lon="7.33994">
        <ele>551.40002441406</ele>
        <time>2021-05-23T10:04:35Z</time>
      </trkpt>
      <trkpt lat="48.24521" lon="7.33978">
        <ele>551</ele>
        <time>2021-05-23T10:04:36Z</time>
      </trkpt>
      <trkpt lat="48.24521" lon="7.33944">
        <ele>550</ele>
        <time>2021-05-23T10:04:38Z</time>
      </trkpt>
      <trkpt lat="48.2452" lon="7.33928">
        <ele>548.79998779297</ele>
        <time>2021-05-23T10:04:39Z</time>
      </trkpt>
      <trkpt lat="48.24522" lon="7.33899">
        <ele>547.79998779297</ele>
        <time>2021-05-23T10:04:41Z</time>
      </trkpt>
      <trkpt lat="48.24523" lon="7.33886">
        <ele>547.20001220703</ele>
        <time>2021-05-23T10:04:42Z</time>
      </trkpt>
      <trkpt lat="48.24523" lon="7.33873">
        <ele>546.59997558594</ele>
        <time>2021-05-23T10:04:43Z</time>
      </trkpt>
      <trkpt lat="48.24523" lon="7.33861">
        <ele>545.40002441406</ele>
        <time>2021-05-23T10:04:44Z</time>
      </trkpt>
      <trkpt lat="48.24515" lon="7.3385">
        <ele>545</ele>
        <time>2021-05-23T10:04:45Z</time>
      </trkpt>
      <trkpt lat="48.24511" lon="7.33842">
        <ele>544.40002441406</ele>
        <time>2021-05-23T10:04:46Z</time>
      </trkpt>
      <trkpt lat="48.24505" lon="7.33835">
        <ele>544</ele>
        <time>2021-05-23T10:04:47Z</time>
      </trkpt>
      <trkpt lat="48.24497" lon="7.33826">
        <ele>543</ele>
        <time>2021-05-23T10:04:48Z</time>
      </trkpt>
      <trkpt lat="48.24483" lon="7.33804">
        <ele>541.59997558594</ele>
        <time>2021-05-23T10:04:50Z</time>
      </trkpt>
      <trkpt lat="48.24478" lon="7.33792">
        <ele>541</ele>
        <time>2021-05-23T10:04:51Z</time>
      </trkpt>
      <trkpt lat="48.24476" lon="7.3378">
        <ele>540.79998779297</ele>
        <time>2021-05-23T10:04:52Z</time>
      </trkpt>
      <trkpt lat="48.24476" lon="7.33768">
        <ele>540.20001220703</ele>
        <time>2021-05-23T10:04:53Z</time>
      </trkpt>
      <trkpt lat="48.24477" lon="7.33758">
        <ele>539.59997558594</ele>
        <time>2021-05-23T10:04:54Z</time>
      </trkpt>
      <trkpt lat="48.24478" lon="7.33748">
        <ele>538.59997558594</ele>
        <time>2021-05-23T10:04:55Z</time>
      </trkpt>
      <trkpt lat="48.24478" lon="7.33729">
        <ele>537.40002441406</ele>
        <time>2021-05-23T10:04:57Z</time>
      </trkpt>
      <trkpt lat="48.24475" lon="7.33709">
        <ele>536.79998779297</ele>
        <time>2021-05-23T10:04:59Z</time>
      </trkpt>
      <trkpt lat="48.24473" lon="7.33701">
        <ele>536.20001220703</ele>
        <time>2021-05-23T10:05:00Z</time>
      </trkpt>
      <trkpt lat="48.2447" lon="7.33693">
        <ele>535.79998779297</ele>
        <time>2021-05-23T10:05:01Z</time>
      </trkpt>
      <trkpt lat="48.24468" lon="7.33676">
        <ele>535.20001220703</ele>
        <time>2021-05-23T10:05:03Z</time>
      </trkpt>
      <trkpt lat="48.24469" lon="7.33659">
        <ele>534.59997558594</ele>
        <time>2021-05-23T10:05:05Z</time>
      </trkpt>
      <trkpt lat="48.24472" lon="7.33646">
        <ele>534.59997558594</ele>
        <time>2021-05-23T10:05:07Z</time>
      </trkpt>
      <trkpt lat="48.24475" lon="7.33634">
        <ele>534.59997558594</ele>
        <time>2021-05-23T10:05:09Z</time>
      </trkpt>
      <trkpt lat="48.24478" lon="7.33612">
        <ele>535.59997558594</ele>
        <time>2021-05-23T10:05:14Z</time>
      </trkpt>
      <trkpt lat="48.2448" lon="7.33594">
        <ele>536.59997558594</ele>
        <time>2021-05-23T10:05:18Z</time>
      </trkpt>
      <trkpt lat="48.2448" lon="7.33584">
        <ele>537</ele>
        <time>2021-05-23T10:05:20Z</time>
      </trkpt>
      <trkpt lat="48.24482" lon="7.33574">
        <ele>537.79998779297</ele>
        <time>2021-05-23T10:05:22Z</time>
      </trkpt>
      <trkpt lat="48.24487" lon="7.3356">
        <ele>538.59997558594</ele>
        <time>2021-05-23T10:05:25Z</time>
      </trkpt>
      <trkpt lat="48.24489" lon="7.33552">
        <ele>538.79998779297</ele>
        <time>2021-05-23T10:05:27Z</time>
      </trkpt>
      <trkpt lat="48.24489" lon="7.3353">
        <ele>540.59997558594</ele>
        <time>2021-05-23T10:05:32Z</time>
      </trkpt>
      <trkpt lat="48.24488" lon="7.33512">
        <ele>541.40002441406</ele>
        <time>2021-05-23T10:05:36Z</time>
      </trkpt>
      <trkpt lat="48.24487" lon="7.33506">
        <ele>541.79998779297</ele>
        <time>2021-05-23T10:05:38Z</time>
      </trkpt>
      <trkpt lat="48.24487" lon="7.33494">
        <ele>543</ele>
        <time>2021-05-23T10:05:41Z</time>
      </trkpt>
      <trkpt lat="48.24488" lon="7.33492">
        <ele>543</ele>
        <time>2021-05-23T10:05:42Z</time>
      </trkpt>
      <trkpt lat="48.24489" lon="7.33488">
        <ele>543.40002441406</ele>
        <time>2021-05-23T10:05:43Z</time>
      </trkpt>
      <trkpt lat="48.24487" lon="7.33476">
        <ele>544</ele>
        <time>2021-05-23T10:05:46Z</time>
      </trkpt>
      <trkpt lat="48.24487" lon="7.33449">
        <ele>545.20001220703</ele>
        <time>2021-05-23T10:05:53Z</time>
      </trkpt>
      <trkpt lat="48.24489" lon="7.33435">
        <ele>546.20001220703</ele>
        <time>2021-05-23T10:05:57Z</time>
      </trkpt>
      <trkpt lat="48.24487" lon="7.33424">
        <ele>547.20001220703</ele>
        <time>2021-05-23T10:06:00Z</time>
      </trkpt>
      <trkpt lat="48.24488" lon="7.33419">
        <ele>547.40002441406</ele>
        <time>2021-05-23T10:06:01Z</time>
      </trkpt>
      <trkpt lat="48.2449" lon="7.3341">
        <ele>548.20001220703</ele>
        <time>2021-05-23T10:06:04Z</time>
      </trkpt>
      <trkpt lat="48.2449" lon="7.33402">
        <ele>548.40002441406</ele>
        <time>2021-05-23T10:06:06Z</time>
      </trkpt>
      <trkpt lat="48.2449" lon="7.33399">
        <ele>548.40002441406</ele>
        <time>2021-05-23T10:06:07Z</time>
      </trkpt>
      <trkpt lat="48.2449" lon="7.33382">
        <ele>549.59997558594</ele>
        <time>2021-05-23T10:06:12Z</time>
      </trkpt>
      <trkpt lat="48.24491" lon="7.33379">
        <ele>549.79998779297</ele>
        <time>2021-05-23T10:06:13Z</time>
      </trkpt>
      <trkpt lat="48.24491" lon="7.33375">
        <ele>550</ele>
        <time>2021-05-23T10:06:14Z</time>
      </trkpt>
      <trkpt lat="48.24489" lon="7.33363">
        <ele>550.59997558594</ele>
        <time>2021-05-23T10:06:17Z</time>
      </trkpt>
      <trkpt lat="48.24489" lon="7.33352">
        <ele>551.79998779297</ele>
        <time>2021-05-23T10:06:20Z</time>
      </trkpt>
      <trkpt lat="48.24488" lon="7.33344">
        <ele>552.20001220703</ele>
        <time>2021-05-23T10:06:22Z</time>
      </trkpt>
      <trkpt lat="48.24485" lon="7.33332">
        <ele>553.20001220703</ele>
        <time>2021-05-23T10:06:25Z</time>
      </trkpt>
      <trkpt lat="48.24485" lon="7.33324">
        <ele>553.79998779297</ele>
        <time>2021-05-23T10:06:27Z</time>
      </trkpt>
      <trkpt lat="48.24485" lon="7.33315">
        <ele>554.40002441406</ele>
        <time>2021-05-23T10:06:29Z</time>
      </trkpt>
      <trkpt lat="48.2448" lon="7.33298">
        <ele>554.79998779297</ele>
        <time>2021-05-23T10:06:33Z</time>
      </trkpt>
      <trkpt lat="48.2448" lon="7.33294">
        <ele>555.20001220703</ele>
        <time>2021-05-23T10:06:34Z</time>
      </trkpt>
      <trkpt lat="48.24481" lon="7.3329">
        <ele>555.40002441406</ele>
        <time>2021-05-23T10:06:35Z</time>
      </trkpt>
      <trkpt lat="48.24485" lon="7.33275">
        <ele>556.40002441406</ele>
        <time>2021-05-23T10:06:39Z</time>
      </trkpt>
      <trkpt lat="48.24485" lon="7.33271">
        <ele>556.59997558594</ele>
        <time>2021-05-23T10:06:40Z</time>
      </trkpt>
      <trkpt lat="48.24487" lon="7.33255">
        <ele>557.20001220703</ele>
        <time>2021-05-23T10:06:44Z</time>
      </trkpt>
      <trkpt lat="48.24489" lon="7.33247">
        <ele>558</ele>
        <time>2021-05-23T10:06:46Z</time>
      </trkpt>
      <trkpt lat="48.24494" lon="7.33227">
        <ele>558.59997558594</ele>
        <time>2021-05-23T10:06:51Z</time>
      </trkpt>
      <trkpt lat="48.24493" lon="7.33219">
        <ele>559.20001220703</ele>
        <time>2021-05-23T10:06:53Z</time>
      </trkpt>
      <trkpt lat="48.24496" lon="7.33205">
        <ele>560</ele>
        <time>2021-05-23T10:06:57Z</time>
      </trkpt>
      <trkpt lat="48.24498" lon="7.33195">
        <ele>560.40002441406</ele>
        <time>2021-05-23T10:07:00Z</time>
      </trkpt>
      <trkpt lat="48.24498" lon="7.3319">
        <ele>560.40002441406</ele>
        <time>2021-05-23T10:07:01Z</time>
      </trkpt>
      <trkpt lat="48.24499" lon="7.33182">
        <ele>561</ele>
        <time>2021-05-23T10:07:03Z</time>
      </trkpt>
      <trkpt lat="48.245" lon="7.33168">
        <ele>562</ele>
        <time>2021-05-23T10:07:07Z</time>
      </trkpt>
      <trkpt lat="48.245" lon="7.33164">
        <ele>562.40002441406</ele>
        <time>2021-05-23T10:07:08Z</time>
      </trkpt>
      <trkpt lat="48.24503" lon="7.33153">
        <ele>563</ele>
        <time>2021-05-23T10:07:11Z</time>
      </trkpt>
      <trkpt lat="48.24503" lon="7.33149">
        <ele>563.20001220703</ele>
        <time>2021-05-23T10:07:12Z</time>
      </trkpt>
      <trkpt lat="48.24502" lon="7.33145">
        <ele>563.59997558594</ele>
        <time>2021-05-23T10:07:13Z</time>
      </trkpt>
      <trkpt lat="48.24503" lon="7.33134">
        <ele>564.20001220703</ele>
        <time>2021-05-23T10:07:16Z</time>
      </trkpt>
      <trkpt lat="48.24502" lon="7.33127">
        <ele>564.59997558594</ele>
        <time>2021-05-23T10:07:18Z</time>
      </trkpt>
      <trkpt lat="48.24506" lon="7.33119">
        <ele>565.20001220703</ele>
        <time>2021-05-23T10:07:20Z</time>
      </trkpt>
      <trkpt lat="48.24508" lon="7.33116">
        <ele>565.20001220703</ele>
        <time>2021-05-23T10:07:21Z</time>
      </trkpt>
      <trkpt lat="48.24508" lon="7.33105">
        <ele>565.79998779297</ele>
        <time>2021-05-23T10:07:24Z</time>
      </trkpt>
      <trkpt lat="48.24508" lon="7.33102">
        <ele>566.20001220703</ele>
        <time>2021-05-23T10:07:25Z</time>
      </trkpt>
      <trkpt lat="48.24507" lon="7.33095">
        <ele>566.59997558594</ele>
        <time>2021-05-23T10:07:27Z</time>
      </trkpt>
      <trkpt lat="48.24507" lon="7.33088">
        <ele>567</ele>
        <time>2021-05-23T10:07:29Z</time>
      </trkpt>
      <trkpt lat="48.24508" lon="7.33076">
        <ele>567.79998779297</ele>
        <time>2021-05-23T10:07:32Z</time>
      </trkpt>
      <trkpt lat="48.24507" lon="7.33072">
        <ele>568</ele>
        <time>2021-05-23T10:07:33Z</time>
      </trkpt>
      <trkpt lat="48.24507" lon="7.33068">
        <ele>568.20001220703</ele>
        <time>2021-05-23T10:07:34Z</time>
      </trkpt>
      <trkpt lat="48.24503" lon="7.33046">
        <ele>569</ele>
        <time>2021-05-23T10:07:39Z</time>
      </trkpt>
      <trkpt lat="48.24503" lon="7.33041">
        <ele>569.20001220703</ele>
        <time>2021-05-23T10:07:40Z</time>
      </trkpt>
      <trkpt lat="48.24502" lon="7.33029">
        <ele>570.20001220703</ele>
        <time>2021-05-23T10:07:43Z</time>
      </trkpt>
      <trkpt lat="48.24503" lon="7.33018">
        <ele>570.79998779297</ele>
        <time>2021-05-23T10:07:46Z</time>
      </trkpt>
      <trkpt lat="48.24502" lon="7.3301">
        <ele>571.59997558594</ele>
        <time>2021-05-23T10:07:48Z</time>
      </trkpt>
      <trkpt lat="48.245" lon="7.33">
        <ele>571.79998779297</ele>
        <time>2021-05-23T10:07:51Z</time>
      </trkpt>
      <trkpt lat="48.24499" lon="7.32993">
        <ele>572.40002441406</ele>
        <time>2021-05-23T10:07:53Z</time>
      </trkpt>
      <trkpt lat="48.24496" lon="7.32974">
        <ele>573.40002441406</ele>
        <time>2021-05-23T10:07:58Z</time>
      </trkpt>
      <trkpt lat="48.24494" lon="7.3296">
        <ele>574.20001220703</ele>
        <time>2021-05-23T10:08:02Z</time>
      </trkpt>
      <trkpt lat="48.24494" lon="7.32957">
        <ele>574.40002441406</ele>
        <time>2021-05-23T10:08:03Z</time>
      </trkpt>
      <trkpt lat="48.24493" lon="7.32951">
        <ele>574.79998779297</ele>
        <time>2021-05-23T10:08:05Z</time>
      </trkpt>
      <trkpt lat="48.24492" lon="7.32948">
        <ele>575.20001220703</ele>
        <time>2021-05-23T10:08:06Z</time>
      </trkpt>
      <trkpt lat="48.24491" lon="7.32942">
        <ele>575.59997558594</ele>
        <time>2021-05-23T10:08:08Z</time>
      </trkpt>
      <trkpt lat="48.2449" lon="7.32936">
        <ele>576</ele>
        <time>2021-05-23T10:08:10Z</time>
      </trkpt>
      <trkpt lat="48.24487" lon="7.32932">
        <ele>576.20001220703</ele>
        <time>2021-05-23T10:08:11Z</time>
      </trkpt>
      <trkpt lat="48.2448" lon="7.32919">
        <ele>576.79998779297</ele>
        <time>2021-05-23T10:08:15Z</time>
      </trkpt>
      <trkpt lat="48.24475" lon="7.32912">
        <ele>577.20001220703</ele>
        <time>2021-05-23T10:08:17Z</time>
      </trkpt>
      <trkpt lat="48.24469" lon="7.32899">
        <ele>578</ele>
        <time>2021-05-23T10:08:21Z</time>
      </trkpt>
      <trkpt lat="48.24468" lon="7.32896">
        <ele>578.40002441406</ele>
        <time>2021-05-23T10:08:22Z</time>
      </trkpt>
      <trkpt lat="48.24461" lon="7.32882">
        <ele>579.20001220703</ele>
        <time>2021-05-23T10:08:27Z</time>
      </trkpt>
      <trkpt lat="48.2446" lon="7.3288">
        <ele>579.20001220703</ele>
        <time>2021-05-23T10:08:28Z</time>
      </trkpt>
      <trkpt lat="48.24457" lon="7.32875">
        <ele>579.59997558594</ele>
        <time>2021-05-23T10:08:30Z</time>
      </trkpt>
      <trkpt lat="48.24451" lon="7.32862">
        <ele>580.20001220703</ele>
        <time>2021-05-23T10:08:34Z</time>
      </trkpt>
      <trkpt lat="48.24449" lon="7.32859">
        <ele>580.20001220703</ele>
        <time>2021-05-23T10:08:35Z</time>
      </trkpt>
      <trkpt lat="48.24443" lon="7.32844">
        <ele>581.40002441406</ele>
        <time>2021-05-23T10:08:40Z</time>
      </trkpt>
      <trkpt lat="48.24438" lon="7.32833">
        <ele>582.40002441406</ele>
        <time>2021-05-23T10:08:44Z</time>
      </trkpt>
      <trkpt lat="48.24435" lon="7.32827">
        <ele>582.79998779297</ele>
        <time>2021-05-23T10:08:46Z</time>
      </trkpt>
      <trkpt lat="48.2443" lon="7.32813">
        <ele>583.59997558594</ele>
        <time>2021-05-23T10:08:50Z</time>
      </trkpt>
      <trkpt lat="48.24427" lon="7.32801">
        <ele>584</ele>
        <time>2021-05-23T10:08:54Z</time>
      </trkpt>
      <trkpt lat="48.24427" lon="7.32791">
        <ele>584.59997558594</ele>
        <time>2021-05-23T10:08:57Z</time>
      </trkpt>
      <trkpt lat="48.24426" lon="7.32778">
        <ele>585.79998779297</ele>
        <time>2021-05-23T10:09:01Z</time>
      </trkpt>
      <trkpt lat="48.24424" lon="7.32761">
        <ele>587</ele>
        <time>2021-05-23T10:09:06Z</time>
      </trkpt>
      <trkpt lat="48.24425" lon="7.32755">
        <ele>587.20001220703</ele>
        <time>2021-05-23T10:09:08Z</time>
      </trkpt>
      <trkpt lat="48.24422" lon="7.32736">
        <ele>588.20001220703</ele>
        <time>2021-05-23T10:09:13Z</time>
      </trkpt>
      <trkpt lat="48.24422" lon="7.32733">
        <ele>588.20001220703</ele>
        <time>2021-05-23T10:09:14Z</time>
      </trkpt>
      <trkpt lat="48.24419" lon="7.32717">
        <ele>589.40002441406</ele>
        <time>2021-05-23T10:09:19Z</time>
      </trkpt>
      <trkpt lat="48.24417" lon="7.32711">
        <ele>589.59997558594</ele>
        <time>2021-05-23T10:09:21Z</time>
      </trkpt>
      <trkpt lat="48.24414" lon="7.327">
        <ele>590.20001220703</ele>
        <time>2021-05-23T10:09:25Z</time>
      </trkpt>
      <trkpt lat="48.24413" lon="7.32694">
        <ele>590.40002441406</ele>
        <time>2021-05-23T10:09:27Z</time>
      </trkpt>
      <trkpt lat="48.24412" lon="7.32691">
        <ele>590.40002441406</ele>
        <time>2021-05-23T10:09:28Z</time>
      </trkpt>
      <trkpt lat="48.24412" lon="7.3269">
        <ele>590.59997558594</ele>
        <time>2021-05-23T10:09:30Z</time>
      </trkpt>
      <trkpt lat="48.24411" lon="7.32688">
        <ele>590.59997558594</ele>
        <time>2021-05-23T10:09:32Z</time>
      </trkpt>
      <trkpt lat="48.24407" lon="7.32678">
        <ele>591</ele>
        <time>2021-05-23T10:09:36Z</time>
      </trkpt>
      <trkpt lat="48.24404" lon="7.32663">
        <ele>591</ele>
        <time>2021-05-23T10:09:43Z</time>
      </trkpt>
      <trkpt lat="48.24405" lon="7.32653">
        <ele>591</ele>
        <time>2021-05-23T10:09:49Z</time>
      </trkpt>
      <trkpt lat="48.24406" lon="7.3265">
        <ele>591</ele>
        <time>2021-05-23T10:09:51Z</time>
      </trkpt>
      <trkpt lat="48.24406" lon="7.32649">
        <ele>591.40002441406</ele>
        <time>2021-05-23T10:09:54Z</time>
      </trkpt>
      <trkpt lat="48.24406" lon="7.32645">
        <ele>591.59997558594</ele>
        <time>2021-05-23T10:10:27Z</time>
      </trkpt>
      <trkpt lat="48.24405" lon="7.32622">
        <ele>591.59997558594</ele>
        <time>2021-05-23T10:10:31Z</time>
      </trkpt>
      <trkpt lat="48.24404" lon="7.3258">
        <ele>591.40002441406</ele>
        <time>2021-05-23T10:10:37Z</time>
      </trkpt>
      <trkpt lat="48.24405" lon="7.32559">
        <ele>591</ele>
        <time>2021-05-23T10:10:40Z</time>
      </trkpt>
      <trkpt lat="48.24404" lon="7.32538">
        <ele>590.59997558594</ele>
        <time>2021-05-23T10:10:43Z</time>
      </trkpt>
      <trkpt lat="48.24404" lon="7.32522">
        <ele>590.20001220703</ele>
        <time>2021-05-23T10:10:45Z</time>
      </trkpt>
      <trkpt lat="48.24402" lon="7.32464">
        <ele>589.79998779297</ele>
        <time>2021-05-23T10:10:52Z</time>
      </trkpt>
      <trkpt lat="48.24402" lon="7.32454">
        <ele>589.79998779297</ele>
        <time>2021-05-23T10:10:53Z</time>
      </trkpt>
      <trkpt lat="48.24402" lon="7.32427">
        <ele>589.59997558594</ele>
        <time>2021-05-23T10:10:56Z</time>
      </trkpt>
      <trkpt lat="48.24403" lon="7.32416">
        <ele>589.20001220703</ele>
        <time>2021-05-23T10:10:57Z</time>
      </trkpt>
      <trkpt lat="48.24407" lon="7.32395">
        <ele>588.20001220703</ele>
        <time>2021-05-23T10:10:59Z</time>
      </trkpt>
      <trkpt lat="48.24412" lon="7.32373">
        <ele>587.20001220703</ele>
        <time>2021-05-23T10:11:01Z</time>
      </trkpt>
      <trkpt lat="48.24417" lon="7.32363">
        <ele>587</ele>
        <time>2021-05-23T10:11:02Z</time>
      </trkpt>
      <trkpt lat="48.24423" lon="7.32356">
        <ele>586.59997558594</ele>
        <time>2021-05-23T10:11:03Z</time>
      </trkpt>
      <trkpt lat="48.24439" lon="7.32352">
        <ele>586</ele>
        <time>2021-05-23T10:11:05Z</time>
      </trkpt>
      <trkpt lat="48.24447" lon="7.32352">
        <ele>585.59997558594</ele>
        <time>2021-05-23T10:11:06Z</time>
      </trkpt>
      <trkpt lat="48.24464" lon="7.32357">
        <ele>584.59997558594</ele>
        <time>2021-05-23T10:11:08Z</time>
      </trkpt>
      <trkpt lat="48.24473" lon="7.3236">
        <ele>584.20001220703</ele>
        <time>2021-05-23T10:11:09Z</time>
      </trkpt>
      <trkpt lat="48.24483" lon="7.32363">
        <ele>583.40002441406</ele>
        <time>2021-05-23T10:11:10Z</time>
      </trkpt>
      <trkpt lat="48.24492" lon="7.32363">
        <ele>583</ele>
        <time>2021-05-23T10:11:11Z</time>
      </trkpt>
      <trkpt lat="48.24501" lon="7.32362">
        <ele>582.20001220703</ele>
        <time>2021-05-23T10:11:12Z</time>
      </trkpt>
      <trkpt lat="48.24509" lon="7.32358">
        <ele>581.79998779297</ele>
        <time>2021-05-23T10:11:13Z</time>
      </trkpt>
      <trkpt lat="48.24515" lon="7.32352">
        <ele>580.59997558594</ele>
        <time>2021-05-23T10:11:14Z</time>
      </trkpt>
      <trkpt lat="48.2453" lon="7.32329">
        <ele>579.40002441406</ele>
        <time>2021-05-23T10:11:16Z</time>
      </trkpt>
      <trkpt lat="48.24538" lon="7.3228">
        <ele>577.40002441406</ele>
        <time>2021-05-23T10:11:19Z</time>
      </trkpt>
      <trkpt lat="48.24542" lon="7.32247">
        <ele>575.79998779297</ele>
        <time>2021-05-23T10:11:21Z</time>
      </trkpt>
      <trkpt lat="48.24547" lon="7.32215">
        <ele>574.20001220703</ele>
        <time>2021-05-23T10:11:23Z</time>
      </trkpt>
      <trkpt lat="48.24551" lon="7.32202">
        <ele>572.79998779297</ele>
        <time>2021-05-23T10:11:24Z</time>
      </trkpt>
      <trkpt lat="48.24557" lon="7.32189">
        <ele>572.40002441406</ele>
        <time>2021-05-23T10:11:25Z</time>
      </trkpt>
      <trkpt lat="48.24566" lon="7.3218">
        <ele>571.40002441406</ele>
        <time>2021-05-23T10:11:26Z</time>
      </trkpt>
      <trkpt lat="48.24584" lon="7.3217">
        <ele>570</ele>
        <time>2021-05-23T10:11:28Z</time>
      </trkpt>
      <trkpt lat="48.24593" lon="7.32169">
        <ele>569</ele>
        <time>2021-05-23T10:11:29Z</time>
      </trkpt>
      <trkpt lat="48.24602" lon="7.32168">
        <ele>568.59997558594</ele>
        <time>2021-05-23T10:11:30Z</time>
      </trkpt>
      <trkpt lat="48.24612" lon="7.32166">
        <ele>567.59997558594</ele>
        <time>2021-05-23T10:11:31Z</time>
      </trkpt>
      <trkpt lat="48.24623" lon="7.32162">
        <ele>567</ele>
        <time>2021-05-23T10:11:32Z</time>
      </trkpt>
      <trkpt lat="48.24632" lon="7.32156">
        <ele>566.40002441406</ele>
        <time>2021-05-23T10:11:33Z</time>
      </trkpt>
      <trkpt lat="48.24639" lon="7.32147">
        <ele>566</ele>
        <time>2021-05-23T10:11:34Z</time>
      </trkpt>
      <trkpt lat="48.24661" lon="7.32115">
        <ele>565</ele>
        <time>2021-05-23T10:11:37Z</time>
      </trkpt>
      <trkpt lat="48.24668" lon="7.32104">
        <ele>564</ele>
        <time>2021-05-23T10:11:38Z</time>
      </trkpt>
      <trkpt lat="48.24674" lon="7.32095">
        <ele>563.40002441406</ele>
        <time>2021-05-23T10:11:39Z</time>
      </trkpt>
      <trkpt lat="48.24684" lon="7.32081">
        <ele>562.40002441406</ele>
        <time>2021-05-23T10:11:40Z</time>
      </trkpt>
      <trkpt lat="48.247" lon="7.32058">
        <ele>561</ele>
        <time>2021-05-23T10:11:42Z</time>
      </trkpt>
      <trkpt lat="48.24717" lon="7.32036">
        <ele>559.40002441406</ele>
        <time>2021-05-23T10:11:44Z</time>
      </trkpt>
      <trkpt lat="48.2474" lon="7.32001">
        <ele>558.20001220703</ele>
        <time>2021-05-23T10:11:47Z</time>
      </trkpt>
      <trkpt lat="48.24754" lon="7.31976">
        <ele>556.79998779297</ele>
        <time>2021-05-23T10:11:49Z</time>
      </trkpt>
      <trkpt lat="48.24758" lon="7.31961">
        <ele>556</ele>
        <time>2021-05-23T10:11:50Z</time>
      </trkpt>
      <trkpt lat="48.24762" lon="7.31946">
        <ele>555.20001220703</ele>
        <time>2021-05-23T10:11:51Z</time>
      </trkpt>
      <trkpt lat="48.24761" lon="7.31913">
        <ele>554</ele>
        <time>2021-05-23T10:11:53Z</time>
      </trkpt>
      <trkpt lat="48.24757" lon="7.31896">
        <ele>552.79998779297</ele>
        <time>2021-05-23T10:11:54Z</time>
      </trkpt>
      <trkpt lat="48.24749" lon="7.31884">
        <ele>552.20001220703</ele>
        <time>2021-05-23T10:11:55Z</time>
      </trkpt>
      <trkpt lat="48.2474" lon="7.31875">
        <ele>551</ele>
        <time>2021-05-23T10:11:56Z</time>
      </trkpt>
      <trkpt lat="48.24722" lon="7.31854">
        <ele>550.40002441406</ele>
        <time>2021-05-23T10:11:58Z</time>
      </trkpt>
      <trkpt lat="48.24716" lon="7.31841">
        <ele>550.20001220703</ele>
        <time>2021-05-23T10:11:59Z</time>
      </trkpt>
      <trkpt lat="48.24711" lon="7.31826">
        <ele>550.20001220703</ele>
        <time>2021-05-23T10:12:00Z</time>
      </trkpt>
      <trkpt lat="48.24709" lon="7.31811">
        <ele>550</ele>
        <time>2021-05-23T10:12:01Z</time>
      </trkpt>
      <trkpt lat="48.24709" lon="7.31796">
        <ele>549.79998779297</ele>
        <time>2021-05-23T10:12:02Z</time>
      </trkpt>
      <trkpt lat="48.2471" lon="7.31782">
        <ele>549.59997558594</ele>
        <time>2021-05-23T10:12:03Z</time>
      </trkpt>
      <trkpt lat="48.24725" lon="7.31764">
        <ele>548.20001220703</ele>
        <time>2021-05-23T10:12:05Z</time>
      </trkpt>
      <trkpt lat="48.24745" lon="7.3175">
        <ele>546.79998779297</ele>
        <time>2021-05-23T10:12:07Z</time>
      </trkpt>
      <trkpt lat="48.24755" lon="7.31743">
        <ele>545.59997558594</ele>
        <time>2021-05-23T10:12:08Z</time>
      </trkpt>
      <trkpt lat="48.24764" lon="7.31736">
        <ele>545.20001220703</ele>
        <time>2021-05-23T10:12:09Z</time>
      </trkpt>
      <trkpt lat="48.24788" lon="7.31718">
        <ele>544</ele>
        <time>2021-05-23T10:12:11Z</time>
      </trkpt>
      <trkpt lat="48.24809" lon="7.31701">
        <ele>542.79998779297</ele>
        <time>2021-05-23T10:12:13Z</time>
      </trkpt>
      <trkpt lat="48.24818" lon="7.31695">
        <ele>541.59997558594</ele>
        <time>2021-05-23T10:12:14Z</time>
      </trkpt>
      <trkpt lat="48.24828" lon="7.31687">
        <ele>540</ele>
        <time>2021-05-23T10:12:15Z</time>
      </trkpt>
      <trkpt lat="48.24849" lon="7.31665">
        <ele>538.79998779297</ele>
        <time>2021-05-23T10:12:17Z</time>
      </trkpt>
      <trkpt lat="48.24865" lon="7.31646">
        <ele>538</ele>
        <time>2021-05-23T10:12:19Z</time>
      </trkpt>
      <trkpt lat="48.24874" lon="7.31635">
        <ele>537.59997558594</ele>
        <time>2021-05-23T10:12:20Z</time>
      </trkpt>
      <trkpt lat="48.24898" lon="7.31611">
        <ele>536.59997558594</ele>
        <time>2021-05-23T10:12:22Z</time>
      </trkpt>
      <trkpt lat="48.24904" lon="7.31601">
        <ele>536.40002441406</ele>
        <time>2021-05-23T10:12:23Z</time>
      </trkpt>
      <trkpt lat="48.24931" lon="7.31566">
        <ele>535.20001220703</ele>
        <time>2021-05-23T10:12:26Z</time>
      </trkpt>
      <trkpt lat="48.24952" lon="7.3154">
        <ele>534.20001220703</ele>
        <time>2021-05-23T10:12:28Z</time>
      </trkpt>
      <trkpt lat="48.24961" lon="7.31529">
        <ele>533</ele>
        <time>2021-05-23T10:12:29Z</time>
      </trkpt>
      <trkpt lat="48.24977" lon="7.31507">
        <ele>531.40002441406</ele>
        <time>2021-05-23T10:12:31Z</time>
      </trkpt>
      <trkpt lat="48.24995" lon="7.31478">
        <ele>530.20001220703</ele>
        <time>2021-05-23T10:12:33Z</time>
      </trkpt>
      <trkpt lat="48.25011" lon="7.31455">
        <ele>527.20001220703</ele>
        <time>2021-05-23T10:12:35Z</time>
      </trkpt>
      <trkpt lat="48.25033" lon="7.3143">
        <ele>525.59997558594</ele>
        <time>2021-05-23T10:12:37Z</time>
      </trkpt>
      <trkpt lat="48.25042" lon="7.3142">
        <ele>524.40002441406</ele>
        <time>2021-05-23T10:12:38Z</time>
      </trkpt>
      <trkpt lat="48.25052" lon="7.3141">
        <ele>523.79998779297</ele>
        <time>2021-05-23T10:12:39Z</time>
      </trkpt>
      <trkpt lat="48.2506" lon="7.31401">
        <ele>523.40002441406</ele>
        <time>2021-05-23T10:12:40Z</time>
      </trkpt>
      <trkpt lat="48.25068" lon="7.31388">
        <ele>522.79998779297</ele>
        <time>2021-05-23T10:12:41Z</time>
      </trkpt>
      <trkpt lat="48.25076" lon="7.31372">
        <ele>522.20001220703</ele>
        <time>2021-05-23T10:12:42Z</time>
      </trkpt>
      <trkpt lat="48.2508" lon="7.31355">
        <ele>521.79998779297</ele>
        <time>2021-05-23T10:12:43Z</time>
      </trkpt>
      <trkpt lat="48.25083" lon="7.31337">
        <ele>520.79998779297</ele>
        <time>2021-05-23T10:12:44Z</time>
      </trkpt>
      <trkpt lat="48.25084" lon="7.31323">
        <ele>519.40002441406</ele>
        <time>2021-05-23T10:12:45Z</time>
      </trkpt>
      <trkpt lat="48.25089" lon="7.31287">
        <ele>518.40002441406</ele>
        <time>2021-05-23T10:12:47Z</time>
      </trkpt>
      <trkpt lat="48.25094" lon="7.31247">
        <ele>516.79998779297</ele>
        <time>2021-05-23T10:12:49Z</time>
      </trkpt>
      <trkpt lat="48.25098" lon="7.31196">
        <ele>515.59997558594</ele>
        <time>2021-05-23T10:12:52Z</time>
      </trkpt>
      <trkpt lat="48.25106" lon="7.31123">
        <ele>514</ele>
        <time>2021-05-23T10:12:56Z</time>
      </trkpt>
      <trkpt lat="48.2511" lon="7.31088">
        <ele>511.60000610352</ele>
        <time>2021-05-23T10:12:58Z</time>
      </trkpt>
      <trkpt lat="48.25113" lon="7.31071">
        <ele>511.20001220703</ele>
        <time>2021-05-23T10:12:59Z</time>
      </trkpt>
      <trkpt lat="48.25114" lon="7.31054">
        <ele>509.60000610352</ele>
        <time>2021-05-23T10:13:00Z</time>
      </trkpt>
      <trkpt lat="48.25118" lon="7.31022">
        <ele>508.39999389648</ele>
        <time>2021-05-23T10:13:02Z</time>
      </trkpt>
      <trkpt lat="48.25121" lon="7.30991">
        <ele>507.79998779297</ele>
        <time>2021-05-23T10:13:04Z</time>
      </trkpt>
      <trkpt lat="48.25121" lon="7.30961">
        <ele>507.39999389648</ele>
        <time>2021-05-23T10:13:06Z</time>
      </trkpt>
      <trkpt lat="48.25119" lon="7.30933">
        <ele>506.60000610352</ele>
        <time>2021-05-23T10:13:08Z</time>
      </trkpt>
      <trkpt lat="48.25117" lon="7.3092">
        <ele>506.60000610352</ele>
        <time>2021-05-23T10:13:09Z</time>
      </trkpt>
      <trkpt lat="48.25114" lon="7.30907">
        <ele>506.20001220703</ele>
        <time>2021-05-23T10:13:10Z</time>
      </trkpt>
      <trkpt lat="48.25108" lon="7.30881">
        <ele>505.39999389648</ele>
        <time>2021-05-23T10:13:12Z</time>
      </trkpt>
      <trkpt lat="48.251" lon="7.30855">
        <ele>505</ele>
        <time>2021-05-23T10:13:14Z</time>
      </trkpt>
      <trkpt lat="48.25081" lon="7.30784">
        <ele>504.39999389648</ele>
        <time>2021-05-23T10:13:19Z</time>
      </trkpt>
      <trkpt lat="48.25079" lon="7.30757">
        <ele>504</ele>
        <time>2021-05-23T10:13:21Z</time>
      </trkpt>
      <trkpt lat="48.25079" lon="7.30742">
        <ele>504</ele>
        <time>2021-05-23T10:13:22Z</time>
      </trkpt>
      <trkpt lat="48.25081" lon="7.30725">
        <ele>503.79998779297</ele>
        <time>2021-05-23T10:13:23Z</time>
      </trkpt>
      <trkpt lat="48.25088" lon="7.30697">
        <ele>503.60000610352</ele>
        <time>2021-05-23T10:13:25Z</time>
      </trkpt>
      <trkpt lat="48.25097" lon="7.30675">
        <ele>503.20001220703</ele>
        <time>2021-05-23T10:13:27Z</time>
      </trkpt>
      <trkpt lat="48.25102" lon="7.30662">
        <ele>503</ele>
        <time>2021-05-23T10:13:28Z</time>
      </trkpt>
      <trkpt lat="48.25128" lon="7.30604">
        <ele>502</ele>
        <time>2021-05-23T10:13:33Z</time>
      </trkpt>
      <trkpt lat="48.25168" lon="7.30536">
        <ele>501</ele>
        <time>2021-05-23T10:13:39Z</time>
      </trkpt>
      <trkpt lat="48.25181" lon="7.30515">
        <ele>500.39999389648</ele>
        <time>2021-05-23T10:13:41Z</time>
      </trkpt>
      <trkpt lat="48.25188" lon="7.30504">
        <ele>499.39999389648</ele>
        <time>2021-05-23T10:13:42Z</time>
      </trkpt>
      <trkpt lat="48.252" lon="7.3048">
        <ele>498.39999389648</ele>
        <time>2021-05-23T10:13:44Z</time>
      </trkpt>
      <trkpt lat="48.25207" lon="7.30468">
        <ele>497.79998779297</ele>
        <time>2021-05-23T10:13:45Z</time>
      </trkpt>
      <trkpt lat="48.25213" lon="7.30456">
        <ele>496.79998779297</ele>
        <time>2021-05-23T10:13:46Z</time>
      </trkpt>
      <trkpt lat="48.25225" lon="7.30431">
        <ele>495.79998779297</ele>
        <time>2021-05-23T10:13:48Z</time>
      </trkpt>
      <trkpt lat="48.25239" lon="7.30403">
        <ele>493.79998779297</ele>
        <time>2021-05-23T10:13:50Z</time>
      </trkpt>
      <trkpt lat="48.25244" lon="7.30392">
        <ele>492.79998779297</ele>
        <time>2021-05-23T10:13:51Z</time>
      </trkpt>
      <trkpt lat="48.25255" lon="7.30364">
        <ele>490.79998779297</ele>
        <time>2021-05-23T10:13:53Z</time>
      </trkpt>
      <trkpt lat="48.25263" lon="7.30347">
        <ele>489.79998779297</ele>
        <time>2021-05-23T10:13:54Z</time>
      </trkpt>
      <trkpt lat="48.25269" lon="7.30333">
        <ele>489.20001220703</ele>
        <time>2021-05-23T10:13:55Z</time>
      </trkpt>
      <trkpt lat="48.25284" lon="7.30306">
        <ele>487.60000610352</ele>
        <time>2021-05-23T10:13:57Z</time>
      </trkpt>
      <trkpt lat="48.2529" lon="7.30296">
        <ele>486.39999389648</ele>
        <time>2021-05-23T10:13:58Z</time>
      </trkpt>
      <trkpt lat="48.25301" lon="7.30282">
        <ele>485.60000610352</ele>
        <time>2021-05-23T10:13:59Z</time>
      </trkpt>
      <trkpt lat="48.2531" lon="7.30271">
        <ele>484.39999389648</ele>
        <time>2021-05-23T10:14:00Z</time>
      </trkpt>
      <trkpt lat="48.25321" lon="7.30262">
        <ele>483.60000610352</ele>
        <time>2021-05-23T10:14:01Z</time>
      </trkpt>
      <trkpt lat="48.25331" lon="7.30257">
        <ele>482.20001220703</ele>
        <time>2021-05-23T10:14:02Z</time>
      </trkpt>
      <trkpt lat="48.25346" lon="7.30251">
        <ele>481.20001220703</ele>
        <time>2021-05-23T10:14:03Z</time>
      </trkpt>
      <trkpt lat="48.25359" lon="7.30247">
        <ele>480.79998779297</ele>
        <time>2021-05-23T10:14:04Z</time>
      </trkpt>
      <trkpt lat="48.25385" lon="7.3024">
        <ele>479.60000610352</ele>
        <time>2021-05-23T10:14:06Z</time>
      </trkpt>
      <trkpt lat="48.25398" lon="7.30238">
        <ele>477.79998779297</ele>
        <time>2021-05-23T10:14:07Z</time>
      </trkpt>
      <trkpt lat="48.25424" lon="7.30232">
        <ele>475.39999389648</ele>
        <time>2021-05-23T10:14:09Z</time>
      </trkpt>
      <trkpt lat="48.25437" lon="7.30229">
        <ele>473.60000610352</ele>
        <time>2021-05-23T10:14:10Z</time>
      </trkpt>
      <trkpt lat="48.25464" lon="7.30227">
        <ele>471.39999389648</ele>
        <time>2021-05-23T10:14:12Z</time>
      </trkpt>
      <trkpt lat="48.25475" lon="7.30226">
        <ele>470.79998779297</ele>
        <time>2021-05-23T10:14:13Z</time>
      </trkpt>
      <trkpt lat="48.25491" lon="7.30224">
        <ele>469.60000610352</ele>
        <time>2021-05-23T10:14:14Z</time>
      </trkpt>
      <trkpt lat="48.25505" lon="7.3022">
        <ele>468.79998779297</ele>
        <time>2021-05-23T10:14:15Z</time>
      </trkpt>
      <trkpt lat="48.25519" lon="7.30217">
        <ele>467.20001220703</ele>
        <time>2021-05-23T10:14:16Z</time>
      </trkpt>
      <trkpt lat="48.25533" lon="7.30211">
        <ele>465.60000610352</ele>
        <time>2021-05-23T10:14:17Z</time>
      </trkpt>
      <trkpt lat="48.25561" lon="7.30194">
        <ele>463.79998779297</ele>
        <time>2021-05-23T10:14:19Z</time>
      </trkpt>
      <trkpt lat="48.25589" lon="7.30174">
        <ele>462</ele>
        <time>2021-05-23T10:14:21Z</time>
      </trkpt>
      <trkpt lat="48.25617" lon="7.30152">
        <ele>460.79998779297</ele>
        <time>2021-05-23T10:14:23Z</time>
      </trkpt>
      <trkpt lat="48.25644" lon="7.3013">
        <ele>459.60000610352</ele>
        <time>2021-05-23T10:14:25Z</time>
      </trkpt>
      <trkpt lat="48.25657" lon="7.3012">
        <ele>457</ele>
        <time>2021-05-23T10:14:26Z</time>
      </trkpt>
      <trkpt lat="48.25667" lon="7.30112">
        <ele>456</ele>
        <time>2021-05-23T10:14:27Z</time>
      </trkpt>
      <trkpt lat="48.25683" lon="7.30102">
        <ele>454.39999389648</ele>
        <time>2021-05-23T10:14:28Z</time>
      </trkpt>
      <trkpt lat="48.25709" lon="7.30092">
        <ele>452</ele>
        <time>2021-05-23T10:14:30Z</time>
      </trkpt>
      <trkpt lat="48.25736" lon="7.30085">
        <ele>449.79998779297</ele>
        <time>2021-05-23T10:14:32Z</time>
      </trkpt>
      <trkpt lat="48.25749" lon="7.30083">
        <ele>447.79998779297</ele>
        <time>2021-05-23T10:14:33Z</time>
      </trkpt>
      <trkpt lat="48.25762" lon="7.3008">
        <ele>446.60000610352</ele>
        <time>2021-05-23T10:14:34Z</time>
      </trkpt>
      <trkpt lat="48.25775" lon="7.30078">
        <ele>444.79998779297</ele>
        <time>2021-05-23T10:14:35Z</time>
      </trkpt>
      <trkpt lat="48.25801" lon="7.30073">
        <ele>442.20001220703</ele>
        <time>2021-05-23T10:14:37Z</time>
      </trkpt>
      <trkpt lat="48.25827" lon="7.30071">
        <ele>440.39999389648</ele>
        <time>2021-05-23T10:14:39Z</time>
      </trkpt>
      <trkpt lat="48.25839" lon="7.30072">
        <ele>439</ele>
        <time>2021-05-23T10:14:40Z</time>
      </trkpt>
      <trkpt lat="48.25863" lon="7.30076">
        <ele>437.20001220703</ele>
        <time>2021-05-23T10:14:42Z</time>
      </trkpt>
      <trkpt lat="48.25875" lon="7.30076">
        <ele>436.20001220703</ele>
        <time>2021-05-23T10:14:43Z</time>
      </trkpt>
      <trkpt lat="48.25886" lon="7.30071">
        <ele>434.79998779297</ele>
        <time>2021-05-23T10:14:44Z</time>
      </trkpt>
      <trkpt lat="48.25896" lon="7.30063">
        <ele>434.39999389648</ele>
        <time>2021-05-23T10:14:45Z</time>
      </trkpt>
      <trkpt lat="48.25904" lon="7.30051">
        <ele>433.20001220703</ele>
        <time>2021-05-23T10:14:46Z</time>
      </trkpt>
      <trkpt lat="48.25919" lon="7.3002">
        <ele>431</ele>
        <time>2021-05-23T10:14:48Z</time>
      </trkpt>
      <trkpt lat="48.25926" lon="7.30006">
        <ele>429.39999389648</ele>
        <time>2021-05-23T10:14:49Z</time>
      </trkpt>
      <trkpt lat="48.25938" lon="7.29975">
        <ele>427.39999389648</ele>
        <time>2021-05-23T10:14:51Z</time>
      </trkpt>
      <trkpt lat="48.25945" lon="7.2996">
        <ele>427</ele>
        <time>2021-05-23T10:14:52Z</time>
      </trkpt>
      <trkpt lat="48.25954" lon="7.29947">
        <ele>425</ele>
        <time>2021-05-23T10:14:53Z</time>
      </trkpt>
      <trkpt lat="48.25963" lon="7.29936">
        <ele>424.39999389648</ele>
        <time>2021-05-23T10:14:54Z</time>
      </trkpt>
      <trkpt lat="48.25973" lon="7.29928">
        <ele>422.60000610352</ele>
        <time>2021-05-23T10:14:55Z</time>
      </trkpt>
      <trkpt lat="48.25984" lon="7.29921">
        <ele>421.39999389648</ele>
        <time>2021-05-23T10:14:56Z</time>
      </trkpt>
      <trkpt lat="48.25996" lon="7.29916">
        <ele>421</ele>
        <time>2021-05-23T10:14:57Z</time>
      </trkpt>
      <trkpt lat="48.26021" lon="7.2991">
        <ele>420</ele>
        <time>2021-05-23T10:14:59Z</time>
      </trkpt>
      <trkpt lat="48.26047" lon="7.29904">
        <ele>419.20001220703</ele>
        <time>2021-05-23T10:15:01Z</time>
      </trkpt>
      <trkpt lat="48.2606" lon="7.299">
        <ele>418.39999389648</ele>
        <time>2021-05-23T10:15:02Z</time>
      </trkpt>
      <trkpt lat="48.26072" lon="7.29897">
        <ele>417.20001220703</ele>
        <time>2021-05-23T10:15:03Z</time>
      </trkpt>
      <trkpt lat="48.26098" lon="7.2989">
        <ele>416</ele>
        <time>2021-05-23T10:15:05Z</time>
      </trkpt>
      <trkpt lat="48.26121" lon="7.29884">
        <ele>414.20001220703</ele>
        <time>2021-05-23T10:15:07Z</time>
      </trkpt>
      <trkpt lat="48.26148" lon="7.29879">
        <ele>412</ele>
        <time>2021-05-23T10:15:09Z</time>
      </trkpt>
      <trkpt lat="48.26173" lon="7.29879">
        <ele>411</ele>
        <time>2021-05-23T10:15:11Z</time>
      </trkpt>
      <trkpt lat="48.26186" lon="7.29881">
        <ele>410.20001220703</ele>
        <time>2021-05-23T10:15:12Z</time>
      </trkpt>
      <trkpt lat="48.26212" lon="7.29887">
        <ele>409</ele>
        <time>2021-05-23T10:15:14Z</time>
      </trkpt>
      <trkpt lat="48.26238" lon="7.29893">
        <ele>408</ele>
        <time>2021-05-23T10:15:16Z</time>
      </trkpt>
      <trkpt lat="48.26275" lon="7.29905">
        <ele>406.20001220703</ele>
        <time>2021-05-23T10:15:19Z</time>
      </trkpt>
      <trkpt lat="48.26297" lon="7.29913">
        <ele>405.20001220703</ele>
        <time>2021-05-23T10:15:21Z</time>
      </trkpt>
      <trkpt lat="48.26307" lon="7.29916">
        <ele>404.79998779297</ele>
        <time>2021-05-23T10:15:22Z</time>
      </trkpt>
      <trkpt lat="48.26325" lon="7.29914">
        <ele>404.20001220703</ele>
        <time>2021-05-23T10:15:24Z</time>
      </trkpt>
      <trkpt lat="48.26332" lon="7.29907">
        <ele>403.79998779297</ele>
        <time>2021-05-23T10:15:25Z</time>
      </trkpt>
      <trkpt lat="48.26338" lon="7.29897">
        <ele>403.39999389648</ele>
        <time>2021-05-23T10:15:26Z</time>
      </trkpt>
      <trkpt lat="48.26345" lon="7.29874">
        <ele>402.39999389648</ele>
        <time>2021-05-23T10:15:28Z</time>
      </trkpt>
      <trkpt lat="48.26345" lon="7.29858">
        <ele>402</ele>
        <time>2021-05-23T10:15:29Z</time>
      </trkpt>
      <trkpt lat="48.26341" lon="7.29844">
        <ele>401.60000610352</ele>
        <time>2021-05-23T10:15:30Z</time>
      </trkpt>
      <trkpt lat="48.26335" lon="7.29834">
        <ele>401.20001220703</ele>
        <time>2021-05-23T10:15:31Z</time>
      </trkpt>
      <trkpt lat="48.26326" lon="7.29828">
        <ele>400.60000610352</ele>
        <time>2021-05-23T10:15:32Z</time>
      </trkpt>
      <trkpt lat="48.26318" lon="7.29825">
        <ele>399.79998779297</ele>
        <time>2021-05-23T10:15:33Z</time>
      </trkpt>
      <trkpt lat="48.26309" lon="7.29825">
        <ele>399.39999389648</ele>
        <time>2021-05-23T10:15:34Z</time>
      </trkpt>
      <trkpt lat="48.26298" lon="7.29828">
        <ele>399</ele>
        <time>2021-05-23T10:15:35Z</time>
      </trkpt>
      <trkpt lat="48.26289" lon="7.29831">
        <ele>398.79998779297</ele>
        <time>2021-05-23T10:15:36Z</time>
      </trkpt>
      <trkpt lat="48.26259" lon="7.29844">
        <ele>397.39999389648</ele>
        <time>2021-05-23T10:15:39Z</time>
      </trkpt>
      <trkpt lat="48.26249" lon="7.29847">
        <ele>397.39999389648</ele>
        <time>2021-05-23T10:15:40Z</time>
      </trkpt>
      <trkpt lat="48.2623" lon="7.29849">
        <ele>397</ele>
        <time>2021-05-23T10:15:42Z</time>
      </trkpt>
      <trkpt lat="48.26207" lon="7.29844">
        <ele>396.60000610352</ele>
        <time>2021-05-23T10:15:44Z</time>
      </trkpt>
      <trkpt lat="48.26196" lon="7.29841">
        <ele>396.39999389648</ele>
        <time>2021-05-23T10:15:45Z</time>
      </trkpt>
      <trkpt lat="48.26166" lon="7.29834">
        <ele>395.20001220703</ele>
        <time>2021-05-23T10:15:48Z</time>
      </trkpt>
      <trkpt lat="48.26154" lon="7.29832">
        <ele>395</ele>
        <time>2021-05-23T10:15:49Z</time>
      </trkpt>
      <trkpt lat="48.26133" lon="7.29829">
        <ele>394</ele>
        <time>2021-05-23T10:15:51Z</time>
      </trkpt>
      <trkpt lat="48.26115" lon="7.29828">
        <ele>392.20001220703</ele>
        <time>2021-05-23T10:15:53Z</time>
      </trkpt>
      <trkpt lat="48.26092" lon="7.29828">
        <ele>390.79998779297</ele>
        <time>2021-05-23T10:15:55Z</time>
      </trkpt>
      <trkpt lat="48.26083" lon="7.29828">
        <ele>389.79998779297</ele>
        <time>2021-05-23T10:15:56Z</time>
      </trkpt>
      <trkpt lat="48.26044" lon="7.29829">
        <ele>388.20001220703</ele>
        <time>2021-05-23T10:16:00Z</time>
      </trkpt>
      <trkpt lat="48.26036" lon="7.2983">
        <ele>387.60000610352</ele>
        <time>2021-05-23T10:16:01Z</time>
      </trkpt>
      <trkpt lat="48.26025" lon="7.2983">
        <ele>386.60000610352</ele>
        <time>2021-05-23T10:16:02Z</time>
      </trkpt>
      <trkpt lat="48.25995" lon="7.2983">
        <ele>385</ele>
        <time>2021-05-23T10:16:05Z</time>
      </trkpt>
      <trkpt lat="48.25975" lon="7.29833">
        <ele>383.60000610352</ele>
        <time>2021-05-23T10:16:07Z</time>
      </trkpt>
      <trkpt lat="48.25956" lon="7.29838">
        <ele>383</ele>
        <time>2021-05-23T10:16:09Z</time>
      </trkpt>
      <trkpt lat="48.25937" lon="7.29847">
        <ele>382.39999389648</ele>
        <time>2021-05-23T10:16:11Z</time>
      </trkpt>
      <trkpt lat="48.25918" lon="7.29859">
        <ele>381.60000610352</ele>
        <time>2021-05-23T10:16:13Z</time>
      </trkpt>
      <trkpt lat="48.25908" lon="7.29866">
        <ele>380.60000610352</ele>
        <time>2021-05-23T10:16:14Z</time>
      </trkpt>
      <trkpt lat="48.25871" lon="7.29897">
        <ele>379.60000610352</ele>
        <time>2021-05-23T10:16:18Z</time>
      </trkpt>
      <trkpt lat="48.25861" lon="7.29905">
        <ele>379.20001220703</ele>
        <time>2021-05-23T10:16:19Z</time>
      </trkpt>
      <trkpt lat="48.25851" lon="7.29911">
        <ele>379</ele>
        <time>2021-05-23T10:16:20Z</time>
      </trkpt>
      <trkpt lat="48.25831" lon="7.29918">
        <ele>378.60000610352</ele>
        <time>2021-05-23T10:16:22Z</time>
      </trkpt>
      <trkpt lat="48.2582" lon="7.2992">
        <ele>378.20001220703</ele>
        <time>2021-05-23T10:16:23Z</time>
      </trkpt>
      <trkpt lat="48.25795" lon="7.29923">
        <ele>377</ele>
        <time>2021-05-23T10:16:25Z</time>
      </trkpt>
      <trkpt lat="48.25773" lon="7.29925">
        <ele>376</ele>
        <time>2021-05-23T10:16:27Z</time>
      </trkpt>
      <trkpt lat="48.25763" lon="7.29925">
        <ele>375.39999389648</ele>
        <time>2021-05-23T10:16:28Z</time>
      </trkpt>
      <trkpt lat="48.25749" lon="7.29914">
        <ele>374.20001220703</ele>
        <time>2021-05-23T10:16:30Z</time>
      </trkpt>
      <trkpt lat="48.25737" lon="7.29895">
        <ele>373</ele>
        <time>2021-05-23T10:16:32Z</time>
      </trkpt>
      <trkpt lat="48.25738" lon="7.29883">
        <ele>372.39999389648</ele>
        <time>2021-05-23T10:16:33Z</time>
      </trkpt>
      <trkpt lat="48.25741" lon="7.2987">
        <ele>371.60000610352</ele>
        <time>2021-05-23T10:16:34Z</time>
      </trkpt>
      <trkpt lat="48.25747" lon="7.29859">
        <ele>370.79998779297</ele>
        <time>2021-05-23T10:16:35Z</time>
      </trkpt>
      <trkpt lat="48.25755" lon="7.29851">
        <ele>370.20001220703</ele>
        <time>2021-05-23T10:16:36Z</time>
      </trkpt>
      <trkpt lat="48.25773" lon="7.29835">
        <ele>368.79998779297</ele>
        <time>2021-05-23T10:16:38Z</time>
      </trkpt>
      <trkpt lat="48.25793" lon="7.29816">
        <ele>367.60000610352</ele>
        <time>2021-05-23T10:16:40Z</time>
      </trkpt>
      <trkpt lat="48.25809" lon="7.29793">
        <ele>366.39999389648</ele>
        <time>2021-05-23T10:16:42Z</time>
      </trkpt>
      <trkpt lat="48.25826" lon="7.29768">
        <ele>364.79998779297</ele>
        <time>2021-05-23T10:16:44Z</time>
      </trkpt>
      <trkpt lat="48.25845" lon="7.29745">
        <ele>363</ele>
        <time>2021-05-23T10:16:46Z</time>
      </trkpt>
      <trkpt lat="48.25867" lon="7.29726">
        <ele>361.39999389648</ele>
        <time>2021-05-23T10:16:48Z</time>
      </trkpt>
      <trkpt lat="48.25891" lon="7.29705">
        <ele>360.20001220703</ele>
        <time>2021-05-23T10:16:50Z</time>
      </trkpt>
      <trkpt lat="48.25903" lon="7.29697">
        <ele>358.60000610352</ele>
        <time>2021-05-23T10:16:51Z</time>
      </trkpt>
      <trkpt lat="48.2593" lon="7.29682">
        <ele>356.79998779297</ele>
        <time>2021-05-23T10:16:53Z</time>
      </trkpt>
      <trkpt lat="48.25956" lon="7.29671">
        <ele>354.79998779297</ele>
        <time>2021-05-23T10:16:55Z</time>
      </trkpt>
      <trkpt lat="48.25983" lon="7.29666">
        <ele>352.79998779297</ele>
        <time>2021-05-23T10:16:57Z</time>
      </trkpt>
      <trkpt lat="48.25997" lon="7.29663">
        <ele>351</ele>
        <time>2021-05-23T10:16:58Z</time>
      </trkpt>
      <trkpt lat="48.26011" lon="7.2966">
        <ele>350</ele>
        <time>2021-05-23T10:16:59Z</time>
      </trkpt>
      <trkpt lat="48.26025" lon="7.29655">
        <ele>348.39999389648</ele>
        <time>2021-05-23T10:17:00Z</time>
      </trkpt>
      <trkpt lat="48.26052" lon="7.29649">
        <ele>346.39999389648</ele>
        <time>2021-05-23T10:17:02Z</time>
      </trkpt>
      <trkpt lat="48.26066" lon="7.29649">
        <ele>345.20001220703</ele>
        <time>2021-05-23T10:17:03Z</time>
      </trkpt>
      <trkpt lat="48.2608" lon="7.2965">
        <ele>343.79998779297</ele>
        <time>2021-05-23T10:17:04Z</time>
      </trkpt>
      <trkpt lat="48.26095" lon="7.29653">
        <ele>342.20001220703</ele>
        <time>2021-05-23T10:17:05Z</time>
      </trkpt>
      <trkpt lat="48.26123" lon="7.29664">
        <ele>340</ele>
        <time>2021-05-23T10:17:07Z</time>
      </trkpt>
      <trkpt lat="48.26137" lon="7.29669">
        <ele>338.60000610352</ele>
        <time>2021-05-23T10:17:08Z</time>
      </trkpt>
      <trkpt lat="48.26151" lon="7.29671">
        <ele>337.39999389648</ele>
        <time>2021-05-23T10:17:09Z</time>
      </trkpt>
      <trkpt lat="48.26165" lon="7.2967">
        <ele>336.79998779297</ele>
        <time>2021-05-23T10:17:10Z</time>
      </trkpt>
      <trkpt lat="48.2618" lon="7.29667">
        <ele>334.79998779297</ele>
        <time>2021-05-23T10:17:11Z</time>
      </trkpt>
      <trkpt lat="48.26194" lon="7.29661">
        <ele>332.79998779297</ele>
        <time>2021-05-23T10:17:12Z</time>
      </trkpt>
      <trkpt lat="48.26209" lon="7.29655">
        <ele>332.20001220703</ele>
        <time>2021-05-23T10:17:13Z</time>
      </trkpt>
      <trkpt lat="48.26224" lon="7.29648">
        <ele>331.39999389648</ele>
        <time>2021-05-23T10:17:14Z</time>
      </trkpt>
      <trkpt lat="48.26253" lon="7.29635">
        <ele>329.60000610352</ele>
        <time>2021-05-23T10:17:16Z</time>
      </trkpt>
      <trkpt lat="48.26281" lon="7.29622">
        <ele>327</ele>
        <time>2021-05-23T10:17:18Z</time>
      </trkpt>
      <trkpt lat="48.26294" lon="7.29614">
        <ele>325.60000610352</ele>
        <time>2021-05-23T10:17:19Z</time>
      </trkpt>
      <trkpt lat="48.26309" lon="7.29606">
        <ele>324.20001220703</ele>
        <time>2021-05-23T10:17:20Z</time>
      </trkpt>
      <trkpt lat="48.26324" lon="7.29599">
        <ele>323</ele>
        <time>2021-05-23T10:17:21Z</time>
      </trkpt>
      <trkpt lat="48.26354" lon="7.29588">
        <ele>320.60000610352</ele>
        <time>2021-05-23T10:17:23Z</time>
      </trkpt>
      <trkpt lat="48.26369" lon="7.29582">
        <ele>319.79998779297</ele>
        <time>2021-05-23T10:17:24Z</time>
      </trkpt>
      <trkpt lat="48.26383" lon="7.29576">
        <ele>318</ele>
        <time>2021-05-23T10:17:25Z</time>
      </trkpt>
      <trkpt lat="48.26411" lon="7.29565">
        <ele>316.39999389648</ele>
        <time>2021-05-23T10:17:27Z</time>
      </trkpt>
      <trkpt lat="48.26425" lon="7.29556">
        <ele>314.39999389648</ele>
        <time>2021-05-23T10:17:28Z</time>
      </trkpt>
      <trkpt lat="48.26437" lon="7.29548">
        <ele>313.60000610352</ele>
        <time>2021-05-23T10:17:29Z</time>
      </trkpt>
      <trkpt lat="48.26449" lon="7.29537">
        <ele>312.39999389648</ele>
        <time>2021-05-23T10:17:30Z</time>
      </trkpt>
      <trkpt lat="48.26471" lon="7.29511">
        <ele>311</ele>
        <time>2021-05-23T10:17:32Z</time>
      </trkpt>
      <trkpt lat="48.2649" lon="7.29476">
        <ele>309.20001220703</ele>
        <time>2021-05-23T10:17:34Z</time>
      </trkpt>
      <trkpt lat="48.26495" lon="7.29458">
        <ele>308.20001220703</ele>
        <time>2021-05-23T10:17:35Z</time>
      </trkpt>
      <trkpt lat="48.26505" lon="7.29425">
        <ele>306.60000610352</ele>
        <time>2021-05-23T10:17:37Z</time>
      </trkpt>
      <trkpt lat="48.26515" lon="7.29388">
        <ele>305.39999389648</ele>
        <time>2021-05-23T10:17:39Z</time>
      </trkpt>
      <trkpt lat="48.26526" lon="7.29352">
        <ele>303.39999389648</ele>
        <time>2021-05-23T10:17:41Z</time>
      </trkpt>
      <trkpt lat="48.26536" lon="7.29315">
        <ele>302.20001220703</ele>
        <time>2021-05-23T10:17:43Z</time>
      </trkpt>
      <trkpt lat="48.26549" lon="7.29281">
        <ele>300.39999389648</ele>
        <time>2021-05-23T10:17:45Z</time>
      </trkpt>
      <trkpt lat="48.26557" lon="7.29266">
        <ele>299.39999389648</ele>
        <time>2021-05-23T10:17:46Z</time>
      </trkpt>
      <trkpt lat="48.26565" lon="7.29253">
        <ele>298.60000610352</ele>
        <time>2021-05-23T10:17:47Z</time>
      </trkpt>
      <trkpt lat="48.26575" lon="7.29243">
        <ele>297.39999389648</ele>
        <time>2021-05-23T10:17:48Z</time>
      </trkpt>
      <trkpt lat="48.26598" lon="7.29223">
        <ele>296</ele>
        <time>2021-05-23T10:17:50Z</time>
      </trkpt>
      <trkpt lat="48.26609" lon="7.29213">
        <ele>295</ele>
        <time>2021-05-23T10:17:51Z</time>
      </trkpt>
      <trkpt lat="48.26631" lon="7.29193">
        <ele>293</ele>
        <time>2021-05-23T10:17:53Z</time>
      </trkpt>
      <trkpt lat="48.26663" lon="7.29164">
        <ele>291.79998779297</ele>
        <time>2021-05-23T10:17:56Z</time>
      </trkpt>
      <trkpt lat="48.26683" lon="7.29144">
        <ele>290.39999389648</ele>
        <time>2021-05-23T10:17:58Z</time>
      </trkpt>
      <trkpt lat="48.26693" lon="7.29135">
        <ele>290</ele>
        <time>2021-05-23T10:17:59Z</time>
      </trkpt>
      <trkpt lat="48.26712" lon="7.29116">
        <ele>289.20001220703</ele>
        <time>2021-05-23T10:18:01Z</time>
      </trkpt>
      <trkpt lat="48.26733" lon="7.291">
        <ele>288.39999389648</ele>
        <time>2021-05-23T10:18:03Z</time>
      </trkpt>
      <trkpt lat="48.26743" lon="7.29095">
        <ele>287.79998779297</ele>
        <time>2021-05-23T10:18:04Z</time>
      </trkpt>
      <trkpt lat="48.26752" lon="7.29092">
        <ele>287.60000610352</ele>
        <time>2021-05-23T10:18:05Z</time>
      </trkpt>
      <trkpt lat="48.26772" lon="7.29092">
        <ele>286</ele>
        <time>2021-05-23T10:18:07Z</time>
      </trkpt>
      <trkpt lat="48.26805" lon="7.29095">
        <ele>284.60000610352</ele>
        <time>2021-05-23T10:18:10Z</time>
      </trkpt>
      <trkpt lat="48.26817" lon="7.29096">
        <ele>283.20001220703</ele>
        <time>2021-05-23T10:18:11Z</time>
      </trkpt>
      <trkpt lat="48.26828" lon="7.29097">
        <ele>282.79998779297</ele>
        <time>2021-05-23T10:18:12Z</time>
      </trkpt>
      <trkpt lat="48.26839" lon="7.29097">
        <ele>281.79998779297</ele>
        <time>2021-05-23T10:18:13Z</time>
      </trkpt>
      <trkpt lat="48.26861" lon="7.29098">
        <ele>280.39999389648</ele>
        <time>2021-05-23T10:18:15Z</time>
      </trkpt>
      <trkpt lat="48.2688" lon="7.291">
        <ele>279.20001220703</ele>
        <time>2021-05-23T10:18:17Z</time>
      </trkpt>
      <trkpt lat="48.26886" lon="7.29101">
        <ele>278.20001220703</ele>
        <time>2021-05-23T10:18:18Z</time>
      </trkpt>
      <trkpt lat="48.26898" lon="7.29104">
        <ele>276.79998779297</ele>
        <time>2021-05-23T10:18:20Z</time>
      </trkpt>
      <trkpt lat="48.26901" lon="7.29105">
        <ele>275.79998779297</ele>
        <time>2021-05-23T10:18:21Z</time>
      </trkpt>
      <trkpt lat="48.26904" lon="7.29107">
        <ele>275.60000610352</ele>
        <time>2021-05-23T10:18:22Z</time>
      </trkpt>
      <trkpt lat="48.26908" lon="7.29111">
        <ele>275.20001220703</ele>
        <time>2021-05-23T10:18:24Z</time>
      </trkpt>
      <trkpt lat="48.26913" lon="7.29113">
        <ele>275</ele>
        <time>2021-05-23T10:18:26Z</time>
      </trkpt>
      <trkpt lat="48.26917" lon="7.29111">
        <ele>274.79998779297</ele>
        <time>2021-05-23T10:18:28Z</time>
      </trkpt>
      <trkpt lat="48.26918" lon="7.29105">
        <ele>274.79998779297</ele>
        <time>2021-05-23T10:18:30Z</time>
      </trkpt>
      <trkpt lat="48.26918" lon="7.29105">
        <ele>274.79998779297</ele>
        <time>2021-05-23T10:18:31Z</time>
      </trkpt>
      <trkpt lat="48.26918" lon="7.29105">
        <ele>274.79998779297</ele>
        <time>2021-05-23T10:18:33Z</time>
      </trkpt>
      <trkpt lat="48.26916" lon="7.29089">
        <ele>274</ele>
        <time>2021-05-23T10:21:53Z</time>
      </trkpt>
      <trkpt lat="48.26914" lon="7.29062">
        <ele>273.60000610352</ele>
        <time>2021-05-23T10:21:58Z</time>
      </trkpt>
      <trkpt lat="48.26912" lon="7.29014">
        <ele>273.39999389648</ele>
        <time>2021-05-23T10:22:06Z</time>
      </trkpt>
      <trkpt lat="48.26912" lon="7.28975">
        <ele>273.20001220703</ele>
        <time>2021-05-23T10:22:12Z</time>
      </trkpt>
      <trkpt lat="48.26912" lon="7.28968">
        <ele>273.20001220703</ele>
        <time>2021-05-23T10:22:13Z</time>
      </trkpt>
      <trkpt lat="48.26911" lon="7.28909">
        <ele>273.60000610352</ele>
        <time>2021-05-23T10:22:22Z</time>
      </trkpt>
      <trkpt lat="48.26911" lon="7.28903">
        <ele>273.60000610352</ele>
        <time>2021-05-23T10:22:23Z</time>
      </trkpt>
      <trkpt lat="48.2691" lon="7.28867">
        <ele>273.79998779297</ele>
        <time>2021-05-23T10:22:28Z</time>
      </trkpt>
      <trkpt lat="48.26911" lon="7.28813">
        <ele>273.79998779297</ele>
        <time>2021-05-23T10:22:35Z</time>
      </trkpt>
      <trkpt lat="48.26912" lon="7.28783">
        <ele>274</ele>
        <time>2021-05-23T10:22:39Z</time>
      </trkpt>
      <trkpt lat="48.26917" lon="7.28771">
        <ele>274.20001220703</ele>
        <time>2021-05-23T10:22:41Z</time>
      </trkpt>
      <trkpt lat="48.26922" lon="7.28759">
        <ele>274.20001220703</ele>
        <time>2021-05-23T10:22:43Z</time>
      </trkpt>
      <trkpt lat="48.26925" lon="7.28745">
        <ele>274.60000610352</ele>
        <time>2021-05-23T10:22:45Z</time>
      </trkpt>
      <trkpt lat="48.2694" lon="7.28705">
        <ele>275</ele>
        <time>2021-05-23T10:22:51Z</time>
      </trkpt>
      <trkpt lat="48.26957" lon="7.28657">
        <ele>275</ele>
        <time>2021-05-23T10:22:57Z</time>
      </trkpt>
      <trkpt lat="48.26973" lon="7.28621">
        <ele>274.60000610352</ele>
        <time>2021-05-23T10:23:03Z</time>
      </trkpt>
      <trkpt lat="48.26976" lon="7.28615">
        <ele>274.60000610352</ele>
        <time>2021-05-23T10:23:04Z</time>
      </trkpt>
      <trkpt lat="48.26985" lon="7.28598">
        <ele>274.39999389648</ele>
        <time>2021-05-23T10:23:08Z</time>
      </trkpt>
      <trkpt lat="48.26997" lon="7.28575">
        <ele>274.39999389648</ele>
        <time>2021-05-23T10:23:14Z</time>
      </trkpt>
      <trkpt lat="48.2701" lon="7.28548">
        <ele>274.60000610352</ele>
        <time>2021-05-23T10:23:21Z</time>
      </trkpt>
      <trkpt lat="48.27017" lon="7.28544">
        <ele>274.79998779297</ele>
        <time>2021-05-23T10:23:24Z</time>
      </trkpt>
      <trkpt lat="48.27019" lon="7.28545">
        <ele>275</ele>
        <time>2021-05-23T10:23:25Z</time>
      </trkpt>
      <trkpt lat="48.27023" lon="7.28553">
        <ele>275.20001220703</ele>
        <time>2021-05-23T10:23:28Z</time>
      </trkpt>
      <trkpt lat="48.27025" lon="7.28554">
        <ele>275.20001220703</ele>
        <time>2021-05-23T10:23:29Z</time>
      </trkpt>
      <trkpt lat="48.27028" lon="7.28554">
        <ele>275.20001220703</ele>
        <time>2021-05-23T10:23:30Z</time>
      </trkpt>
      <trkpt lat="48.27033" lon="7.28556">
        <ele>275.20001220703</ele>
        <time>2021-05-23T10:23:33Z</time>
      </trkpt>
      <trkpt lat="48.27036" lon="7.2856">
        <ele>275.20001220703</ele>
        <time>2021-05-23T10:23:35Z</time>
      </trkpt>
      <trkpt lat="48.27036" lon="7.28562">
        <ele>275.20001220703</ele>
        <time>2021-05-23T10:23:36Z</time>
      </trkpt>
      <trkpt lat="48.27037" lon="7.28568">
        <ele>275</ele>
        <time>2021-05-23T10:23:38Z</time>
      </trkpt>
      <trkpt lat="48.27041" lon="7.28571">
        <ele>275.20001220703</ele>
        <time>2021-05-23T10:23:41Z</time>
      </trkpt>
      <trkpt lat="48.27042" lon="7.28571">
        <ele>275.20001220703</ele>
        <time>2021-05-23T10:23:42Z</time>
      </trkpt>
      <trkpt lat="48.27042" lon="7.2857">
        <ele>275.20001220703</ele>
        <time>2021-05-23T10:23:45Z</time>
      </trkpt>
      <trkpt lat="48.27042" lon="7.2857">
        <ele>275.20001220703</ele>
        <time>2021-05-23T10:23:46Z</time>
      </trkpt>
      <trkpt lat="48.27037" lon="7.28559">
        <ele>274</ele>
        <time>2021-05-23T11:29:32Z</time>
      </trkpt>
      <trkpt lat="48.27033" lon="7.28555">
        <ele>274</ele>
        <time>2021-05-23T11:29:34Z</time>
      </trkpt>
      <trkpt lat="48.27028" lon="7.28547">
        <ele>274</ele>
        <time>2021-05-23T11:29:38Z</time>
      </trkpt>
      <trkpt lat="48.27028" lon="7.28545">
        <ele>274.20001220703</ele>
        <time>2021-05-23T11:29:39Z</time>
      </trkpt>
      <trkpt lat="48.27031" lon="7.28534">
        <ele>274.60000610352</ele>
        <time>2021-05-23T11:29:44Z</time>
      </trkpt>
      <trkpt lat="48.27032" lon="7.28528">
        <ele>274.79998779297</ele>
        <time>2021-05-23T11:29:46Z</time>
      </trkpt>
      <trkpt lat="48.27031" lon="7.28508">
        <ele>275</ele>
        <time>2021-05-23T11:29:50Z</time>
      </trkpt>
      <trkpt lat="48.27033" lon="7.28503">
        <ele>275</ele>
        <time>2021-05-23T11:29:51Z</time>
      </trkpt>
      <trkpt lat="48.27038" lon="7.28476">
        <ele>275.20001220703</ele>
        <time>2021-05-23T11:29:56Z</time>
      </trkpt>
      <trkpt lat="48.27045" lon="7.28421">
        <ele>275.39999389648</ele>
        <time>2021-05-23T11:30:05Z</time>
      </trkpt>
      <trkpt lat="48.27045" lon="7.28415">
        <ele>275.39999389648</ele>
        <time>2021-05-23T11:30:06Z</time>
      </trkpt>
      <trkpt lat="48.27048" lon="7.28372">
        <ele>275.20001220703</ele>
        <time>2021-05-23T11:30:13Z</time>
      </trkpt>
      <trkpt lat="48.2705" lon="7.28331">
        <ele>275.20001220703</ele>
        <time>2021-05-23T11:30:20Z</time>
      </trkpt>
      <trkpt lat="48.27059" lon="7.28314">
        <ele>275.60000610352</ele>
        <time>2021-05-23T11:30:24Z</time>
      </trkpt>
      <trkpt lat="48.27085" lon="7.28281">
        <ele>276.39999389648</ele>
        <time>2021-05-23T11:30:33Z</time>
      </trkpt>
      <trkpt lat="48.27091" lon="7.28264">
        <ele>276.39999389648</ele>
        <time>2021-05-23T11:30:36Z</time>
      </trkpt>
      <trkpt lat="48.27093" lon="7.28251">
        <ele>276.39999389648</ele>
        <time>2021-05-23T11:30:38Z</time>
      </trkpt>
      <trkpt lat="48.27094" lon="7.28244">
        <ele>276.20001220703</ele>
        <time>2021-05-23T11:30:39Z</time>
      </trkpt>
      <trkpt lat="48.27095" lon="7.28231">
        <ele>276</ele>
        <time>2021-05-23T11:30:41Z</time>
      </trkpt>
      <trkpt lat="48.27097" lon="7.28212">
        <ele>275.79998779297</ele>
        <time>2021-05-23T11:30:44Z</time>
      </trkpt>
      <trkpt lat="48.27097" lon="7.28194">
        <ele>275.79998779297</ele>
        <time>2021-05-23T11:30:47Z</time>
      </trkpt>
      <trkpt lat="48.27095" lon="7.28181">
        <ele>276</ele>
        <time>2021-05-23T11:30:49Z</time>
      </trkpt>
      <trkpt lat="48.27094" lon="7.28175">
        <ele>276</ele>
        <time>2021-05-23T11:30:50Z</time>
      </trkpt>
      <trkpt lat="48.27087" lon="7.28128">
        <ele>276.20001220703</ele>
        <time>2021-05-23T11:30:58Z</time>
      </trkpt>
      <trkpt lat="48.27086" lon="7.28091">
        <ele>276</ele>
        <time>2021-05-23T11:31:05Z</time>
      </trkpt>
      <trkpt lat="48.27081" lon="7.28039">
        <ele>276.39999389648</ele>
        <time>2021-05-23T11:31:14Z</time>
      </trkpt>
      <trkpt lat="48.27077" lon="7.27993">
        <ele>277</ele>
        <time>2021-05-23T11:31:22Z</time>
      </trkpt>
      <trkpt lat="48.27072" lon="7.27947">
        <ele>277</ele>
        <time>2021-05-23T11:31:30Z</time>
      </trkpt>
      <trkpt lat="48.27069" lon="7.27897">
        <ele>277.39999389648</ele>
        <time>2021-05-23T11:31:38Z</time>
      </trkpt>
      <trkpt lat="48.27069" lon="7.27891">
        <ele>277.60000610352</ele>
        <time>2021-05-23T11:31:39Z</time>
      </trkpt>
      <trkpt lat="48.27062" lon="7.27814">
        <ele>278</ele>
        <time>2021-05-23T11:31:51Z</time>
      </trkpt>
      <trkpt lat="48.27061" lon="7.27775">
        <ele>278.39999389648</ele>
        <time>2021-05-23T11:31:57Z</time>
      </trkpt>
      <trkpt lat="48.2706" lon="7.27749">
        <ele>278.60000610352</ele>
        <time>2021-05-23T11:32:01Z</time>
      </trkpt>
      <trkpt lat="48.27054" lon="7.27684">
        <ele>278.79998779297</ele>
        <time>2021-05-23T11:32:11Z</time>
      </trkpt>
      <trkpt lat="48.27051" lon="7.27633">
        <ele>279.39999389648</ele>
        <time>2021-05-23T11:32:19Z</time>
      </trkpt>
      <trkpt lat="48.27051" lon="7.27626">
        <ele>279.39999389648</ele>
        <time>2021-05-23T11:32:20Z</time>
      </trkpt>
      <trkpt lat="48.27051" lon="7.2762">
        <ele>279.39999389648</ele>
        <time>2021-05-23T11:32:21Z</time>
      </trkpt>
      <trkpt lat="48.27054" lon="7.2759">
        <ele>279.39999389648</ele>
        <time>2021-05-23T11:32:26Z</time>
      </trkpt>
      <trkpt lat="48.27055" lon="7.2758">
        <ele>279.39999389648</ele>
        <time>2021-05-23T11:32:28Z</time>
      </trkpt>
      <trkpt lat="48.27056" lon="7.27568">
        <ele>279.39999389648</ele>
        <time>2021-05-23T11:32:30Z</time>
      </trkpt>
      <trkpt lat="48.27056" lon="7.27562">
        <ele>279.39999389648</ele>
        <time>2021-05-23T11:32:31Z</time>
      </trkpt>
      <trkpt lat="48.27055" lon="7.27555">
        <ele>279.39999389648</ele>
        <time>2021-05-23T11:32:32Z</time>
      </trkpt>
      <trkpt lat="48.2705" lon="7.27526">
        <ele>279.79998779297</ele>
        <time>2021-05-23T11:32:37Z</time>
      </trkpt>
      <trkpt lat="48.27046" lon="7.27502">
        <ele>280.60000610352</ele>
        <time>2021-05-23T11:32:41Z</time>
      </trkpt>
      <trkpt lat="48.27046" lon="7.2749">
        <ele>280.79998779297</ele>
        <time>2021-05-23T11:32:43Z</time>
      </trkpt>
      <trkpt lat="48.27047" lon="7.27476">
        <ele>281</ele>
        <time>2021-05-23T11:32:45Z</time>
      </trkpt>
      <trkpt lat="48.27049" lon="7.27427">
        <ele>281.60000610352</ele>
        <time>2021-05-23T11:32:52Z</time>
      </trkpt>
      <trkpt lat="48.27049" lon="7.2742">
        <ele>281.79998779297</ele>
        <time>2021-05-23T11:32:53Z</time>
      </trkpt>
      <trkpt lat="48.27047" lon="7.27371">
        <ele>282</ele>
        <time>2021-05-23T11:33:00Z</time>
      </trkpt>
      <trkpt lat="48.27034" lon="7.27296">
        <ele>282.39999389648</ele>
        <time>2021-05-23T11:33:11Z</time>
      </trkpt>
      <trkpt lat="48.27021" lon="7.27216">
        <ele>282.60000610352</ele>
        <time>2021-05-23T11:33:22Z</time>
      </trkpt>
      <trkpt lat="48.2702" lon="7.27209">
        <ele>282.60000610352</ele>
        <time>2021-05-23T11:33:23Z</time>
      </trkpt>
      <trkpt lat="48.27009" lon="7.27145">
        <ele>283.39999389648</ele>
        <time>2021-05-23T11:33:33Z</time>
      </trkpt>
      <trkpt lat="48.27007" lon="7.27131">
        <ele>283.60000610352</ele>
        <time>2021-05-23T11:33:35Z</time>
      </trkpt>
      <trkpt lat="48.27005" lon="7.2709">
        <ele>284</ele>
        <time>2021-05-23T11:33:41Z</time>
      </trkpt>
      <trkpt lat="48.27008" lon="7.2703">
        <ele>284.60000610352</ele>
        <time>2021-05-23T11:33:50Z</time>
      </trkpt>
      <trkpt lat="48.27008" lon="7.27023">
        <ele>284.79998779297</ele>
        <time>2021-05-23T11:33:51Z</time>
      </trkpt>
      <trkpt lat="48.2701" lon="7.26972">
        <ele>285</ele>
        <time>2021-05-23T11:33:59Z</time>
      </trkpt>
      <trkpt lat="48.27012" lon="7.26938">
        <ele>285.79998779297</ele>
        <time>2021-05-23T11:34:04Z</time>
      </trkpt>
      <trkpt lat="48.27014" lon="7.26904">
        <ele>286.60000610352</ele>
        <time>2021-05-23T11:34:09Z</time>
      </trkpt>
      <trkpt lat="48.27014" lon="7.26891">
        <ele>286.79998779297</ele>
        <time>2021-05-23T11:34:11Z</time>
      </trkpt>
      <trkpt lat="48.27016" lon="7.2684">
        <ele>287</ele>
        <time>2021-05-23T11:34:18Z</time>
      </trkpt>
      <trkpt lat="48.27018" lon="7.26778">
        <ele>287.79998779297</ele>
        <time>2021-05-23T11:34:27Z</time>
      </trkpt>
      <trkpt lat="48.27018" lon="7.2677">
        <ele>288</ele>
        <time>2021-05-23T11:34:28Z</time>
      </trkpt>
      <trkpt lat="48.27014" lon="7.26719">
        <ele>288.79998779297</ele>
        <time>2021-05-23T11:34:35Z</time>
      </trkpt>
      <trkpt lat="48.27012" lon="7.26706">
        <ele>289</ele>
        <time>2021-05-23T11:34:37Z</time>
      </trkpt>
      <trkpt lat="48.26996" lon="7.2664">
        <ele>289.20001220703</ele>
        <time>2021-05-23T11:34:46Z</time>
      </trkpt>
      <trkpt lat="48.26978" lon="7.26561">
        <ele>289.39999389648</ele>
        <time>2021-05-23T11:34:57Z</time>
      </trkpt>
      <trkpt lat="48.26977" lon="7.26555">
        <ele>289.39999389648</ele>
        <time>2021-05-23T11:34:58Z</time>
      </trkpt>
      <trkpt lat="48.26976" lon="7.26547">
        <ele>289.39999389648</ele>
        <time>2021-05-23T11:34:59Z</time>
      </trkpt>
      <trkpt lat="48.26975" lon="7.26534">
        <ele>289.39999389648</ele>
        <time>2021-05-23T11:35:01Z</time>
      </trkpt>
      <trkpt lat="48.26976" lon="7.26519">
        <ele>289.60000610352</ele>
        <time>2021-05-23T11:35:03Z</time>
      </trkpt>
      <trkpt lat="48.26979" lon="7.26499">
        <ele>289.60000610352</ele>
        <time>2021-05-23T11:35:06Z</time>
      </trkpt>
      <trkpt lat="48.26985" lon="7.26466">
        <ele>289.79998779297</ele>
        <time>2021-05-23T11:35:10Z</time>
      </trkpt>
      <trkpt lat="48.26996" lon="7.26416">
        <ele>290</ele>
        <time>2021-05-23T11:35:17Z</time>
      </trkpt>
      <trkpt lat="48.27" lon="7.264">
        <ele>290.39999389648</ele>
        <time>2021-05-23T11:35:19Z</time>
      </trkpt>
      <trkpt lat="48.27009" lon="7.26364">
        <ele>290.60000610352</ele>
        <time>2021-05-23T11:35:24Z</time>
      </trkpt>
      <trkpt lat="48.27016" lon="7.26336">
        <ele>291</ele>
        <time>2021-05-23T11:35:28Z</time>
      </trkpt>
      <trkpt lat="48.27029" lon="7.26269">
        <ele>291.39999389648</ele>
        <time>2021-05-23T11:35:37Z</time>
      </trkpt>
      <trkpt lat="48.27033" lon="7.26247">
        <ele>291.60000610352</ele>
        <time>2021-05-23T11:35:40Z</time>
      </trkpt>
      <trkpt lat="48.27042" lon="7.26198">
        <ele>292.60000610352</ele>
        <time>2021-05-23T11:35:47Z</time>
      </trkpt>
      <trkpt lat="48.27044" lon="7.26183">
        <ele>292.79998779297</ele>
        <time>2021-05-23T11:35:49Z</time>
      </trkpt>
      <trkpt lat="48.27047" lon="7.2613">
        <ele>293.79998779297</ele>
        <time>2021-05-23T11:35:56Z</time>
      </trkpt>
      <trkpt lat="48.27048" lon="7.26122">
        <ele>294</ele>
        <time>2021-05-23T11:35:57Z</time>
      </trkpt>
      <trkpt lat="48.27048" lon="7.26081">
        <ele>294.39999389648</ele>
        <time>2021-05-23T11:36:02Z</time>
      </trkpt>
      <trkpt lat="48.27048" lon="7.26065">
        <ele>294.79998779297</ele>
        <time>2021-05-23T11:36:04Z</time>
      </trkpt>
      <trkpt lat="48.27043" lon="7.26008">
        <ele>295</ele>
        <time>2021-05-23T11:36:11Z</time>
      </trkpt>
      <trkpt lat="48.27041" lon="7.25992">
        <ele>295.20001220703</ele>
        <time>2021-05-23T11:36:13Z</time>
      </trkpt>
      <trkpt lat="48.27034" lon="7.25934">
        <ele>295.39999389648</ele>
        <time>2021-05-23T11:36:20Z</time>
      </trkpt>
      <trkpt lat="48.27028" lon="7.25894">
        <ele>295.79998779297</ele>
        <time>2021-05-23T11:36:25Z</time>
      </trkpt>
      <trkpt lat="48.27025" lon="7.25872">
        <ele>296</ele>
        <time>2021-05-23T11:36:28Z</time>
      </trkpt>
      <trkpt lat="48.27011" lon="7.25802">
        <ele>296.79998779297</ele>
        <time>2021-05-23T11:36:37Z</time>
      </trkpt>
      <trkpt lat="48.27008" lon="7.25785">
        <ele>296.79998779297</ele>
        <time>2021-05-23T11:36:39Z</time>
      </trkpt>
      <trkpt lat="48.27002" lon="7.25754">
        <ele>296.79998779297</ele>
        <time>2021-05-23T11:36:43Z</time>
      </trkpt>
      <trkpt lat="48.27" lon="7.25747">
        <ele>297</ele>
        <time>2021-05-23T11:36:44Z</time>
      </trkpt>
      <trkpt lat="48.26994" lon="7.25719">
        <ele>297.20001220703</ele>
        <time>2021-05-23T11:36:48Z</time>
      </trkpt>
      <trkpt lat="48.26993" lon="7.25711">
        <ele>297.20001220703</ele>
        <time>2021-05-23T11:36:49Z</time>
      </trkpt>
      <trkpt lat="48.26986" lon="7.25676">
        <ele>297.79998779297</ele>
        <time>2021-05-23T11:36:54Z</time>
      </trkpt>
      <trkpt lat="48.2698" lon="7.25649">
        <ele>298</ele>
        <time>2021-05-23T11:36:58Z</time>
      </trkpt>
      <trkpt lat="48.2697" lon="7.25608">
        <ele>299</ele>
        <time>2021-05-23T11:37:04Z</time>
      </trkpt>
      <trkpt lat="48.26967" lon="7.25595">
        <ele>299.39999389648</ele>
        <time>2021-05-23T11:37:06Z</time>
      </trkpt>
      <trkpt lat="48.26953" lon="7.25547">
        <ele>300</ele>
        <time>2021-05-23T11:37:12Z</time>
      </trkpt>
      <trkpt lat="48.26951" lon="7.25541">
        <ele>300</ele>
        <time>2021-05-23T11:37:13Z</time>
      </trkpt>
      <trkpt lat="48.26934" lon="7.25487">
        <ele>299.79998779297</ele>
        <time>2021-05-23T11:37:20Z</time>
      </trkpt>
      <trkpt lat="48.26926" lon="7.25463">
        <ele>299.79998779297</ele>
        <time>2021-05-23T11:37:23Z</time>
      </trkpt>
      <trkpt lat="48.26912" lon="7.25432">
        <ele>299.60000610352</ele>
        <time>2021-05-23T11:37:27Z</time>
      </trkpt>
      <trkpt lat="48.26897" lon="7.25404">
        <ele>299.39999389648</ele>
        <time>2021-05-23T11:37:31Z</time>
      </trkpt>
      <trkpt lat="48.26894" lon="7.25397">
        <ele>299.39999389648</ele>
        <time>2021-05-23T11:37:32Z</time>
      </trkpt>
      <trkpt lat="48.26868" lon="7.25338">
        <ele>300.20001220703</ele>
        <time>2021-05-23T11:37:40Z</time>
      </trkpt>
      <trkpt lat="48.26856" lon="7.25315">
        <ele>300.39999389648</ele>
        <time>2021-05-23T11:37:43Z</time>
      </trkpt>
      <trkpt lat="48.26847" lon="7.25298">
        <ele>300.60000610352</ele>
        <time>2021-05-23T11:37:46Z</time>
      </trkpt>
      <trkpt lat="48.26834" lon="7.25272">
        <ele>300.79998779297</ele>
        <time>2021-05-23T11:37:50Z</time>
      </trkpt>
      <trkpt lat="48.26823" lon="7.2525">
        <ele>301.20001220703</ele>
        <time>2021-05-23T11:37:53Z</time>
      </trkpt>
      <trkpt lat="48.26817" lon="7.2523">
        <ele>301.39999389648</ele>
        <time>2021-05-23T11:37:56Z</time>
      </trkpt>
      <trkpt lat="48.26814" lon="7.25224">
        <ele>301.39999389648</ele>
        <time>2021-05-23T11:37:57Z</time>
      </trkpt>
      <trkpt lat="48.26811" lon="7.25217">
        <ele>301.60000610352</ele>
        <time>2021-05-23T11:37:58Z</time>
      </trkpt>
      <trkpt lat="48.26798" lon="7.25171">
        <ele>302</ele>
        <time>2021-05-23T11:38:04Z</time>
      </trkpt>
      <trkpt lat="48.26788" lon="7.2512">
        <ele>302.20001220703</ele>
        <time>2021-05-23T11:38:11Z</time>
      </trkpt>
      <trkpt lat="48.26785" lon="7.25097">
        <ele>302.79998779297</ele>
        <time>2021-05-23T11:38:14Z</time>
      </trkpt>
      <trkpt lat="48.26781" lon="7.25076">
        <ele>303.20001220703</ele>
        <time>2021-05-23T11:38:17Z</time>
      </trkpt>
      <trkpt lat="48.26779" lon="7.25033">
        <ele>304</ele>
        <time>2021-05-23T11:38:23Z</time>
      </trkpt>
      <trkpt lat="48.26779" lon="7.2502">
        <ele>304</ele>
        <time>2021-05-23T11:38:25Z</time>
      </trkpt>
      <trkpt lat="48.26778" lon="7.25008">
        <ele>304.20001220703</ele>
        <time>2021-05-23T11:38:27Z</time>
      </trkpt>
      <trkpt lat="48.26777" lon="7.2498">
        <ele>304.79998779297</ele>
        <time>2021-05-23T11:38:31Z</time>
      </trkpt>
      <trkpt lat="48.26776" lon="7.24968">
        <ele>305.20001220703</ele>
        <time>2021-05-23T11:38:33Z</time>
      </trkpt>
      <trkpt lat="48.26773" lon="7.24945">
        <ele>305.79998779297</ele>
        <time>2021-05-23T11:38:37Z</time>
      </trkpt>
      <trkpt lat="48.26772" lon="7.24938">
        <ele>305.79998779297</ele>
        <time>2021-05-23T11:38:38Z</time>
      </trkpt>
      <trkpt lat="48.26771" lon="7.24924">
        <ele>306.20001220703</ele>
        <time>2021-05-23T11:38:40Z</time>
      </trkpt>
      <trkpt lat="48.26768" lon="7.24875">
        <ele>307.39999389648</ele>
        <time>2021-05-23T11:38:47Z</time>
      </trkpt>
      <trkpt lat="48.26765" lon="7.24844">
        <ele>308.20001220703</ele>
        <time>2021-05-23T11:38:52Z</time>
      </trkpt>
      <trkpt lat="48.26763" lon="7.24833">
        <ele>308.60000610352</ele>
        <time>2021-05-23T11:38:54Z</time>
      </trkpt>
      <trkpt lat="48.26755" lon="7.24792">
        <ele>309.79998779297</ele>
        <time>2021-05-23T11:39:00Z</time>
      </trkpt>
      <trkpt lat="48.26754" lon="7.24784">
        <ele>310.20001220703</ele>
        <time>2021-05-23T11:39:01Z</time>
      </trkpt>
      <trkpt lat="48.2675" lon="7.24763">
        <ele>310.79998779297</ele>
        <time>2021-05-23T11:39:04Z</time>
      </trkpt>
      <trkpt lat="48.26749" lon="7.24757">
        <ele>310.79998779297</ele>
        <time>2021-05-23T11:39:05Z</time>
      </trkpt>
      <trkpt lat="48.26745" lon="7.24738">
        <ele>311</ele>
        <time>2021-05-23T11:39:08Z</time>
      </trkpt>
      <trkpt lat="48.26739" lon="7.24716">
        <ele>311.39999389648</ele>
        <time>2021-05-23T11:39:11Z</time>
      </trkpt>
      <trkpt lat="48.26734" lon="7.24696">
        <ele>311.39999389648</ele>
        <time>2021-05-23T11:39:14Z</time>
      </trkpt>
      <trkpt lat="48.26731" lon="7.24682">
        <ele>311.60000610352</ele>
        <time>2021-05-23T11:39:16Z</time>
      </trkpt>
      <trkpt lat="48.26718" lon="7.24644">
        <ele>311.79998779297</ele>
        <time>2021-05-23T11:39:21Z</time>
      </trkpt>
      <trkpt lat="48.26716" lon="7.24633">
        <ele>311.79998779297</ele>
        <time>2021-05-23T11:39:22Z</time>
      </trkpt>
      <trkpt lat="48.26714" lon="7.24626">
        <ele>312</ele>
        <time>2021-05-23T11:39:23Z</time>
      </trkpt>
      <trkpt lat="48.26706" lon="7.24602">
        <ele>312.20001220703</ele>
        <time>2021-05-23T11:39:26Z</time>
      </trkpt>
      <trkpt lat="48.26701" lon="7.24586">
        <ele>312.39999389648</ele>
        <time>2021-05-23T11:39:28Z</time>
      </trkpt>
      <trkpt lat="48.26688" lon="7.24538">
        <ele>312.60000610352</ele>
        <time>2021-05-23T11:39:34Z</time>
      </trkpt>
      <trkpt lat="48.26686" lon="7.24531">
        <ele>312.79998779297</ele>
        <time>2021-05-23T11:39:35Z</time>
      </trkpt>
      <trkpt lat="48.26676" lon="7.24495">
        <ele>313.20001220703</ele>
        <time>2021-05-23T11:39:40Z</time>
      </trkpt>
      <trkpt lat="48.26672" lon="7.24474">
        <ele>313.39999389648</ele>
        <time>2021-05-23T11:39:43Z</time>
      </trkpt>
      <trkpt lat="48.26667" lon="7.24457">
        <ele>313.39999389648</ele>
        <time>2021-05-23T11:39:45Z</time>
      </trkpt>
      <trkpt lat="48.26665" lon="7.2445">
        <ele>313.39999389648</ele>
        <time>2021-05-23T11:39:46Z</time>
      </trkpt>
      <trkpt lat="48.26664" lon="7.24443">
        <ele>313.60000610352</ele>
        <time>2021-05-23T11:39:47Z</time>
      </trkpt>
      <trkpt lat="48.26656" lon="7.24407">
        <ele>314.39999389648</ele>
        <time>2021-05-23T11:39:52Z</time>
      </trkpt>
      <trkpt lat="48.26653" lon="7.24398">
        <ele>314.39999389648</ele>
        <time>2021-05-23T11:39:53Z</time>
      </trkpt>
      <trkpt lat="48.26642" lon="7.2433">
        <ele>314.39999389648</ele>
        <time>2021-05-23T11:40:01Z</time>
      </trkpt>
      <trkpt lat="48.26638" lon="7.24292">
        <ele>314.39999389648</ele>
        <time>2021-05-23T11:40:05Z</time>
      </trkpt>
      <trkpt lat="48.26636" lon="7.24268">
        <ele>314.60000610352</ele>
        <time>2021-05-23T11:40:08Z</time>
      </trkpt>
      <trkpt lat="48.26634" lon="7.24231">
        <ele>314.79998779297</ele>
        <time>2021-05-23T11:40:12Z</time>
      </trkpt>
      <trkpt lat="48.26634" lon="7.24214">
        <ele>314.79998779297</ele>
        <time>2021-05-23T11:40:14Z</time>
      </trkpt>
      <trkpt lat="48.26636" lon="7.24155">
        <ele>314.79998779297</ele>
        <time>2021-05-23T11:40:21Z</time>
      </trkpt>
      <trkpt lat="48.26639" lon="7.2407">
        <ele>315</ele>
        <time>2021-05-23T11:40:31Z</time>
      </trkpt>
      <trkpt lat="48.26641" lon="7.23986">
        <ele>315.39999389648</ele>
        <time>2021-05-23T11:40:41Z</time>
      </trkpt>
      <trkpt lat="48.2664" lon="7.23914">
        <ele>315.39999389648</ele>
        <time>2021-05-23T11:40:50Z</time>
      </trkpt>
      <trkpt lat="48.26636" lon="7.23865">
        <ele>315.60000610352</ele>
        <time>2021-05-23T11:40:56Z</time>
      </trkpt>
      <trkpt lat="48.26633" lon="7.23833">
        <ele>315.79998779297</ele>
        <time>2021-05-23T11:41:00Z</time>
      </trkpt>
      <trkpt lat="48.26618" lon="7.23752">
        <ele>316</ele>
        <time>2021-05-23T11:41:10Z</time>
      </trkpt>
      <trkpt lat="48.26616" lon="7.23744">
        <ele>316</ele>
        <time>2021-05-23T11:41:11Z</time>
      </trkpt>
      <trkpt lat="48.26609" lon="7.23714">
        <ele>316.60000610352</ele>
        <time>2021-05-23T11:41:15Z</time>
      </trkpt>
      <trkpt lat="48.26596" lon="7.23672">
        <ele>317</ele>
        <time>2021-05-23T11:41:21Z</time>
      </trkpt>
      <trkpt lat="48.26581" lon="7.23629">
        <ele>317.79998779297</ele>
        <time>2021-05-23T11:41:27Z</time>
      </trkpt>
      <trkpt lat="48.26572" lon="7.23606">
        <ele>318</ele>
        <time>2021-05-23T11:41:30Z</time>
      </trkpt>
      <trkpt lat="48.26544" lon="7.23535">
        <ele>318</ele>
        <time>2021-05-23T11:41:40Z</time>
      </trkpt>
      <trkpt lat="48.26541" lon="7.23528">
        <ele>318</ele>
        <time>2021-05-23T11:41:41Z</time>
      </trkpt>
      <trkpt lat="48.26525" lon="7.23491">
        <ele>318</ele>
        <time>2021-05-23T11:41:46Z</time>
      </trkpt>
      <trkpt lat="48.26506" lon="7.23444">
        <ele>318.39999389648</ele>
        <time>2021-05-23T11:41:53Z</time>
      </trkpt>
      <trkpt lat="48.26477" lon="7.23373">
        <ele>318.79998779297</ele>
        <time>2021-05-23T11:42:03Z</time>
      </trkpt>
      <trkpt lat="48.26461" lon="7.23337">
        <ele>319</ele>
        <time>2021-05-23T11:42:08Z</time>
      </trkpt>
      <trkpt lat="48.26452" lon="7.23313">
        <ele>319</ele>
        <time>2021-05-23T11:42:11Z</time>
      </trkpt>
      <trkpt lat="48.26434" lon="7.23268">
        <ele>319.39999389648</ele>
        <time>2021-05-23T11:42:17Z</time>
      </trkpt>
      <trkpt lat="48.26426" lon="7.23245">
        <ele>319.60000610352</ele>
        <time>2021-05-23T11:42:20Z</time>
      </trkpt>
      <trkpt lat="48.26409" lon="7.23191">
        <ele>320</ele>
        <time>2021-05-23T11:42:27Z</time>
      </trkpt>
      <trkpt lat="48.26404" lon="7.23176">
        <ele>320.20001220703</ele>
        <time>2021-05-23T11:42:29Z</time>
      </trkpt>
      <trkpt lat="48.26391" lon="7.23131">
        <ele>320.60000610352</ele>
        <time>2021-05-23T11:42:35Z</time>
      </trkpt>
      <trkpt lat="48.26371" lon="7.23059">
        <ele>321.20001220703</ele>
        <time>2021-05-23T11:42:45Z</time>
      </trkpt>
      <trkpt lat="48.26366" lon="7.23043">
        <ele>321.20001220703</ele>
        <time>2021-05-23T11:42:47Z</time>
      </trkpt>
      <trkpt lat="48.26345" lon="7.22964">
        <ele>322</ele>
        <time>2021-05-23T11:42:58Z</time>
      </trkpt>
      <trkpt lat="48.26338" lon="7.22934">
        <ele>322.20001220703</ele>
        <time>2021-05-23T11:43:02Z</time>
      </trkpt>
      <trkpt lat="48.26329" lon="7.22895">
        <ele>322.39999389648</ele>
        <time>2021-05-23T11:43:07Z</time>
      </trkpt>
      <trkpt lat="48.26328" lon="7.22887">
        <ele>322.60000610352</ele>
        <time>2021-05-23T11:43:08Z</time>
      </trkpt>
      <trkpt lat="48.26313" lon="7.22828">
        <ele>323.20001220703</ele>
        <time>2021-05-23T11:43:16Z</time>
      </trkpt>
      <trkpt lat="48.26311" lon="7.22821">
        <ele>323.39999389648</ele>
        <time>2021-05-23T11:43:17Z</time>
      </trkpt>
      <trkpt lat="48.263" lon="7.22753">
        <ele>324</ele>
        <time>2021-05-23T11:43:26Z</time>
      </trkpt>
      <trkpt lat="48.26295" lon="7.22722">
        <ele>324.39999389648</ele>
        <time>2021-05-23T11:43:30Z</time>
      </trkpt>
      <trkpt lat="48.26289" lon="7.22684">
        <ele>325</ele>
        <time>2021-05-23T11:43:35Z</time>
      </trkpt>
      <trkpt lat="48.26286" lon="7.22659">
        <ele>325.20001220703</ele>
        <time>2021-05-23T11:43:38Z</time>
      </trkpt>
      <trkpt lat="48.26286" lon="7.22629">
        <ele>325.39999389648</ele>
        <time>2021-05-23T11:43:42Z</time>
      </trkpt>
      <trkpt lat="48.26286" lon="7.22597">
        <ele>325.79998779297</ele>
        <time>2021-05-23T11:43:46Z</time>
      </trkpt>
      <trkpt lat="48.26285" lon="7.22587">
        <ele>326</ele>
        <time>2021-05-23T11:43:47Z</time>
      </trkpt>
      <trkpt lat="48.26283" lon="7.22563">
        <ele>326.39999389648</ele>
        <time>2021-05-23T11:43:50Z</time>
      </trkpt>
      <trkpt lat="48.26278" lon="7.22533">
        <ele>326.79998779297</ele>
        <time>2021-05-23T11:43:54Z</time>
      </trkpt>
      <trkpt lat="48.26273" lon="7.22518">
        <ele>327</ele>
        <time>2021-05-23T11:43:56Z</time>
      </trkpt>
      <trkpt lat="48.26262" lon="7.22471">
        <ele>327.20001220703</ele>
        <time>2021-05-23T11:44:02Z</time>
      </trkpt>
      <trkpt lat="48.26261" lon="7.22461">
        <ele>327.20001220703</ele>
        <time>2021-05-23T11:44:03Z</time>
      </trkpt>
      <trkpt lat="48.2626" lon="7.22395">
        <ele>327</ele>
        <time>2021-05-23T11:44:10Z</time>
      </trkpt>
      <trkpt lat="48.26252" lon="7.22349">
        <ele>327.20001220703</ele>
        <time>2021-05-23T11:44:15Z</time>
      </trkpt>
      <trkpt lat="48.2625" lon="7.22342">
        <ele>327.39999389648</ele>
        <time>2021-05-23T11:44:16Z</time>
      </trkpt>
      <trkpt lat="48.26229" lon="7.22283">
        <ele>327.79998779297</ele>
        <time>2021-05-23T11:44:24Z</time>
      </trkpt>
      <trkpt lat="48.26227" lon="7.22277">
        <ele>328</ele>
        <time>2021-05-23T11:44:25Z</time>
      </trkpt>
      <trkpt lat="48.26216" lon="7.22244">
        <ele>328.79998779297</ele>
        <time>2021-05-23T11:44:30Z</time>
      </trkpt>
      <trkpt lat="48.26212" lon="7.2223">
        <ele>329.20001220703</ele>
        <time>2021-05-23T11:44:32Z</time>
      </trkpt>
      <trkpt lat="48.26201" lon="7.22196">
        <ele>329.60000610352</ele>
        <time>2021-05-23T11:44:37Z</time>
      </trkpt>
      <trkpt lat="48.2619" lon="7.22167">
        <ele>330.39999389648</ele>
        <time>2021-05-23T11:44:41Z</time>
      </trkpt>
      <trkpt lat="48.26176" lon="7.22135">
        <ele>331.20001220703</ele>
        <time>2021-05-23T11:44:46Z</time>
      </trkpt>
      <trkpt lat="48.26171" lon="7.22122">
        <ele>331.39999389648</ele>
        <time>2021-05-23T11:44:48Z</time>
      </trkpt>
      <trkpt lat="48.26155" lon="7.22077">
        <ele>332.39999389648</ele>
        <time>2021-05-23T11:44:55Z</time>
      </trkpt>
      <trkpt lat="48.26154" lon="7.2207">
        <ele>332.60000610352</ele>
        <time>2021-05-23T11:44:56Z</time>
      </trkpt>
      <trkpt lat="48.26143" lon="7.22019">
        <ele>333.20001220703</ele>
        <time>2021-05-23T11:45:03Z</time>
      </trkpt>
      <trkpt lat="48.26133" lon="7.21965">
        <ele>333.60000610352</ele>
        <time>2021-05-23T11:45:10Z</time>
      </trkpt>
      <trkpt lat="48.26129" lon="7.2195">
        <ele>334</ele>
        <time>2021-05-23T11:45:12Z</time>
      </trkpt>
      <trkpt lat="48.26117" lon="7.21909">
        <ele>334.20001220703</ele>
        <time>2021-05-23T11:45:18Z</time>
      </trkpt>
      <trkpt lat="48.26114" lon="7.21903">
        <ele>334.39999389648</ele>
        <time>2021-05-23T11:45:19Z</time>
      </trkpt>
      <trkpt lat="48.261" lon="7.21881">
        <ele>334.60000610352</ele>
        <time>2021-05-23T11:45:23Z</time>
      </trkpt>
      <trkpt lat="48.26092" lon="7.21873">
        <ele>334.79998779297</ele>
        <time>2021-05-23T11:45:25Z</time>
      </trkpt>
      <trkpt lat="48.26086" lon="7.21869">
        <ele>335</ele>
        <time>2021-05-23T11:45:26Z</time>
      </trkpt>
      <trkpt lat="48.26061" lon="7.21853">
        <ele>335.20001220703</ele>
        <time>2021-05-23T11:45:31Z</time>
      </trkpt>
      <trkpt lat="48.26037" lon="7.21839">
        <ele>335.39999389648</ele>
        <time>2021-05-23T11:45:36Z</time>
      </trkpt>
      <trkpt lat="48.26033" lon="7.21836">
        <ele>335.39999389648</ele>
        <time>2021-05-23T11:45:37Z</time>
      </trkpt>
      <trkpt lat="48.26017" lon="7.21825">
        <ele>335.20001220703</ele>
        <time>2021-05-23T11:45:40Z</time>
      </trkpt>
      <trkpt lat="48.26012" lon="7.2182">
        <ele>335.20001220703</ele>
        <time>2021-05-23T11:45:41Z</time>
      </trkpt>
      <trkpt lat="48.26002" lon="7.2181">
        <ele>335.20001220703</ele>
        <time>2021-05-23T11:45:43Z</time>
      </trkpt>
      <trkpt lat="48.2597" lon="7.21767">
        <ele>335.39999389648</ele>
        <time>2021-05-23T11:45:50Z</time>
      </trkpt>
      <trkpt lat="48.25958" lon="7.2175">
        <ele>335.60000610352</ele>
        <time>2021-05-23T11:45:53Z</time>
      </trkpt>
      <trkpt lat="48.25941" lon="7.21728">
        <ele>336</ele>
        <time>2021-05-23T11:45:57Z</time>
      </trkpt>
      <trkpt lat="48.25908" lon="7.21679">
        <ele>337</ele>
        <time>2021-05-23T11:46:06Z</time>
      </trkpt>
      <trkpt lat="48.25877" lon="7.21618">
        <ele>337.79998779297</ele>
        <time>2021-05-23T11:46:15Z</time>
      </trkpt>
      <trkpt lat="48.25871" lon="7.216">
        <ele>337.79998779297</ele>
        <time>2021-05-23T11:46:17Z</time>
      </trkpt>
      <trkpt lat="48.25866" lon="7.21578">
        <ele>338</ele>
        <time>2021-05-23T11:46:20Z</time>
      </trkpt>
      <trkpt lat="48.25864" lon="7.21568">
        <ele>338</ele>
        <time>2021-05-23T11:46:21Z</time>
      </trkpt>
      <trkpt lat="48.25854" lon="7.21521">
        <ele>338</ele>
        <time>2021-05-23T11:46:27Z</time>
      </trkpt>
      <trkpt lat="48.25851" lon="7.21506">
        <ele>338</ele>
        <time>2021-05-23T11:46:29Z</time>
      </trkpt>
      <trkpt lat="48.25846" lon="7.21484">
        <ele>338.39999389648</ele>
        <time>2021-05-23T11:46:32Z</time>
      </trkpt>
      <trkpt lat="48.25838" lon="7.21446">
        <ele>338.79998779297</ele>
        <time>2021-05-23T11:46:37Z</time>
      </trkpt>
      <trkpt lat="48.25836" lon="7.2144">
        <ele>339</ele>
        <time>2021-05-23T11:46:38Z</time>
      </trkpt>
      <trkpt lat="48.25835" lon="7.21433">
        <ele>339</ele>
        <time>2021-05-23T11:46:39Z</time>
      </trkpt>
      <trkpt lat="48.25833" lon="7.2142">
        <ele>339.20001220703</ele>
        <time>2021-05-23T11:46:41Z</time>
      </trkpt>
      <trkpt lat="48.25827" lon="7.21394">
        <ele>340</ele>
        <time>2021-05-23T11:46:45Z</time>
      </trkpt>
      <trkpt lat="48.25826" lon="7.21388">
        <ele>340</ele>
        <time>2021-05-23T11:46:46Z</time>
      </trkpt>
      <trkpt lat="48.25814" lon="7.21349">
        <ele>340.60000610352</ele>
        <time>2021-05-23T11:46:52Z</time>
      </trkpt>
      <trkpt lat="48.25809" lon="7.21335">
        <ele>341</ele>
        <time>2021-05-23T11:46:54Z</time>
      </trkpt>
      <trkpt lat="48.25797" lon="7.21301">
        <ele>341.20001220703</ele>
        <time>2021-05-23T11:46:59Z</time>
      </trkpt>
      <trkpt lat="48.25776" lon="7.21247">
        <ele>341.79998779297</ele>
        <time>2021-05-23T11:47:07Z</time>
      </trkpt>
      <trkpt lat="48.25768" lon="7.21219">
        <ele>342.20001220703</ele>
        <time>2021-05-23T11:47:11Z</time>
      </trkpt>
      <trkpt lat="48.25764" lon="7.21204">
        <ele>342.39999389648</ele>
        <time>2021-05-23T11:47:13Z</time>
      </trkpt>
      <trkpt lat="48.25752" lon="7.21161">
        <ele>342.79998779297</ele>
        <time>2021-05-23T11:47:19Z</time>
      </trkpt>
      <trkpt lat="48.2575" lon="7.21154">
        <ele>343</ele>
        <time>2021-05-23T11:47:20Z</time>
      </trkpt>
      <trkpt lat="48.25746" lon="7.21141">
        <ele>343.20001220703</ele>
        <time>2021-05-23T11:47:22Z</time>
      </trkpt>
      <trkpt lat="48.25735" lon="7.21095">
        <ele>343.79998779297</ele>
        <time>2021-05-23T11:47:28Z</time>
      </trkpt>
      <trkpt lat="48.25715" lon="7.21016">
        <ele>344.79998779297</ele>
        <time>2021-05-23T11:47:38Z</time>
      </trkpt>
      <trkpt lat="48.25701" lon="7.20964">
        <ele>345.20001220703</ele>
        <time>2021-05-23T11:47:45Z</time>
      </trkpt>
      <trkpt lat="48.25686" lon="7.20906">
        <ele>345.60000610352</ele>
        <time>2021-05-23T11:47:53Z</time>
      </trkpt>
      <trkpt lat="48.25684" lon="7.20898">
        <ele>345.79998779297</ele>
        <time>2021-05-23T11:47:54Z</time>
      </trkpt>
      <trkpt lat="48.25682" lon="7.20891">
        <ele>346</ele>
        <time>2021-05-23T11:47:55Z</time>
      </trkpt>
      <trkpt lat="48.25677" lon="7.20861">
        <ele>346.39999389648</ele>
        <time>2021-05-23T11:47:59Z</time>
      </trkpt>
      <trkpt lat="48.2567" lon="7.20825">
        <ele>346.79998779297</ele>
        <time>2021-05-23T11:48:04Z</time>
      </trkpt>
      <trkpt lat="48.25669" lon="7.20818">
        <ele>347</ele>
        <time>2021-05-23T11:48:05Z</time>
      </trkpt>
      <trkpt lat="48.25666" lon="7.20804">
        <ele>347.20001220703</ele>
        <time>2021-05-23T11:48:07Z</time>
      </trkpt>
      <trkpt lat="48.25661" lon="7.20774">
        <ele>347.79998779297</ele>
        <time>2021-05-23T11:48:12Z</time>
      </trkpt>
      <trkpt lat="48.25659" lon="7.20762">
        <ele>348.20001220703</ele>
        <time>2021-05-23T11:48:14Z</time>
      </trkpt>
      <trkpt lat="48.25654" lon="7.20726">
        <ele>348.79998779297</ele>
        <time>2021-05-23T11:48:21Z</time>
      </trkpt>
      <trkpt lat="48.25654" lon="7.20723">
        <ele>349</ele>
        <time>2021-05-23T11:48:22Z</time>
      </trkpt>
      <trkpt lat="48.25651" lon="7.20699">
        <ele>350.20001220703</ele>
        <time>2021-05-23T11:48:28Z</time>
      </trkpt>
      <trkpt lat="48.25649" lon="7.20686">
        <ele>350.60000610352</ele>
        <time>2021-05-23T11:48:34Z</time>
      </trkpt>
      <trkpt lat="48.25649" lon="7.20686">
        <ele>350.39999389648</ele>
        <time>2021-05-23T11:48:37Z</time>
      </trkpt>
      <trkpt lat="48.25643" lon="7.20679">
        <ele>350</ele>
        <time>2021-05-23T11:48:45Z</time>
      </trkpt>
      <trkpt lat="48.25641" lon="7.20675">
        <ele>350</ele>
        <time>2021-05-23T11:48:46Z</time>
      </trkpt>
      <trkpt lat="48.25631" lon="7.20648">
        <ele>349.79998779297</ele>
        <time>2021-05-23T11:48:52Z</time>
      </trkpt>
      <trkpt lat="48.25625" lon="7.20635">
        <ele>349.79998779297</ele>
        <time>2021-05-23T11:48:55Z</time>
      </trkpt>
      <trkpt lat="48.25618" lon="7.20633">
        <ele>350</ele>
        <time>2021-05-23T11:48:57Z</time>
      </trkpt>
      <trkpt lat="48.256" lon="7.20637">
        <ele>350</ele>
        <time>2021-05-23T11:49:02Z</time>
      </trkpt>
      <trkpt lat="48.25592" lon="7.20645">
        <ele>350</ele>
        <time>2021-05-23T11:49:05Z</time>
      </trkpt>
      <trkpt lat="48.25591" lon="7.20648">
        <ele>349.79998779297</ele>
        <time>2021-05-23T11:49:06Z</time>
      </trkpt>
      <trkpt lat="48.2559" lon="7.20652">
        <ele>349.79998779297</ele>
        <time>2021-05-23T11:49:07Z</time>
      </trkpt>
      <trkpt lat="48.25591" lon="7.20655">
        <ele>350</ele>
        <time>2021-05-23T11:49:09Z</time>
      </trkpt>
      <trkpt lat="48.25593" lon="7.20656">
        <ele>350</ele>
        <time>2021-05-23T11:49:10Z</time>
      </trkpt>
      <trkpt lat="48.25594" lon="7.20659">
        <ele>350</ele>
        <time>2021-05-23T11:49:16Z</time>
      </trkpt>
      <trkpt lat="48.25588" lon="7.20673">
        <ele>345.20001220703</ele>
        <time>2021-05-23T11:58:34Z</time>
      </trkpt>
      <trkpt lat="48.25586" lon="7.2067">
        <ele>345.20001220703</ele>
        <time>2021-05-23T11:58:35Z</time>
      </trkpt>
      <trkpt lat="48.25567" lon="7.20665">
        <ele>345</ele>
        <time>2021-05-23T11:58:40Z</time>
      </trkpt>
      <trkpt lat="48.25545" lon="7.20661">
        <ele>345</ele>
        <time>2021-05-23T11:58:47Z</time>
      </trkpt>
      <trkpt lat="48.25544" lon="7.20661">
        <ele>345.20001220703</ele>
        <time>2021-05-23T11:58:50Z</time>
      </trkpt>
      <trkpt lat="48.25546" lon="7.20663">
        <ele>345.20001220703</ele>
        <time>2021-05-23T11:59:39Z</time>
      </trkpt>
      <trkpt lat="48.25549" lon="7.20667">
        <ele>344.79998779297</ele>
        <time>2021-05-23T11:59:42Z</time>
      </trkpt>
      <trkpt lat="48.25549" lon="7.20668">
        <ele>344.79998779297</ele>
        <time>2021-05-23T11:59:44Z</time>
      </trkpt>
      <trkpt lat="48.25555" lon="7.2067">
        <ele>344.79998779297</ele>
        <time>2021-05-23T11:59:52Z</time>
      </trkpt>
      <trkpt lat="48.25557" lon="7.20669">
        <ele>344.79998779297</ele>
        <time>2021-05-23T11:59:53Z</time>
      </trkpt>
      <trkpt lat="48.25572" lon="7.20663">
        <ele>344.60000610352</ele>
        <time>2021-05-23T11:59:59Z</time>
      </trkpt>
      <trkpt lat="48.25583" lon="7.2065">
        <ele>344.79998779297</ele>
        <time>2021-05-23T12:00:05Z</time>
      </trkpt>
      <trkpt lat="48.25589" lon="7.20648">
        <ele>344.79998779297</ele>
        <time>2021-05-23T12:00:08Z</time>
      </trkpt>
      <trkpt lat="48.25592" lon="7.20644">
        <ele>345</ele>
        <time>2021-05-23T12:00:10Z</time>
      </trkpt>
      <trkpt lat="48.256" lon="7.20641">
        <ele>345.20001220703</ele>
        <time>2021-05-23T12:00:15Z</time>
      </trkpt>
      <trkpt lat="48.256" lon="7.20641">
        <ele>345.20001220703</ele>
        <time>2021-05-23T12:00:16Z</time>
      </trkpt>
      <trkpt lat="48.25598" lon="7.20639">
        <ele>345.79998779297</ele>
        <time>2021-05-23T12:00:44Z</time>
      </trkpt>
      <trkpt lat="48.25594" lon="7.2064">
        <ele>345.60000610352</ele>
        <time>2021-05-23T12:00:46Z</time>
      </trkpt>
      <trkpt lat="48.25585" lon="7.2064">
        <ele>345.20001220703</ele>
        <time>2021-05-23T12:00:50Z</time>
      </trkpt>
      <trkpt lat="48.25584" lon="7.20642">
        <ele>345.20001220703</ele>
        <time>2021-05-23T12:00:51Z</time>
      </trkpt>
      <trkpt lat="48.25588" lon="7.20645">
        <ele>345.20001220703</ele>
        <time>2021-05-23T12:00:54Z</time>
      </trkpt>
      <trkpt lat="48.25589" lon="7.20647">
        <ele>345.20001220703</ele>
        <time>2021-05-23T12:00:55Z</time>
      </trkpt>
      <trkpt lat="48.25588" lon="7.20653">
        <ele>345.20001220703</ele>
        <time>2021-05-23T12:00:57Z</time>
      </trkpt>
      <trkpt lat="48.25588" lon="7.20672">
        <ele>345.20001220703</ele>
        <time>2021-05-23T12:01:02Z</time>
      </trkpt>
      <trkpt lat="48.25581" lon="7.20674">
        <ele>345</ele>
        <time>2021-05-23T12:01:05Z</time>
      </trkpt>
      <trkpt lat="48.25577" lon="7.20668">
        <ele>345</ele>
        <time>2021-05-23T12:01:07Z</time>
      </trkpt>
      <trkpt lat="48.25577" lon="7.20664">
        <ele>344.79998779297</ele>
        <time>2021-05-23T12:01:08Z</time>
      </trkpt>
      <trkpt lat="48.25579" lon="7.2066">
        <ele>344.79998779297</ele>
        <time>2021-05-23T12:01:09Z</time>
      </trkpt>
      <trkpt lat="48.25587" lon="7.20651">
        <ele>344.60000610352</ele>
        <time>2021-05-23T12:01:12Z</time>
      </trkpt>
      <trkpt lat="48.2559" lon="7.20648">
        <ele>344.79998779297</ele>
        <time>2021-05-23T12:01:16Z</time>
      </trkpt>
      <trkpt lat="48.2559" lon="7.20648">
        <ele>345</ele>
        <time>2021-05-23T12:01:17Z</time>
      </trkpt>
      <trkpt lat="48.25595" lon="7.20643">
        <ele>345.39999389648</ele>
        <time>2021-05-23T12:01:46Z</time>
      </trkpt>
      <trkpt lat="48.25599" lon="7.20641">
        <ele>345.39999389648</ele>
        <time>2021-05-23T12:01:47Z</time>
      </trkpt>
      <trkpt lat="48.25619" lon="7.20632">
        <ele>345.60000610352</ele>
        <time>2021-05-23T12:01:52Z</time>
      </trkpt>
      <trkpt lat="48.25627" lon="7.20625">
        <ele>345.60000610352</ele>
        <time>2021-05-23T12:01:55Z</time>
      </trkpt>
      <trkpt lat="48.25628" lon="7.2062">
        <ele>345.79998779297</ele>
        <time>2021-05-23T12:01:56Z</time>
      </trkpt>
      <trkpt lat="48.25628" lon="7.20614">
        <ele>345.79998779297</ele>
        <time>2021-05-23T12:01:57Z</time>
      </trkpt>
      <trkpt lat="48.25624" lon="7.20596">
        <ele>345.79998779297</ele>
        <time>2021-05-23T12:02:00Z</time>
      </trkpt>
      <trkpt lat="48.25615" lon="7.20555">
        <ele>346.20001220703</ele>
        <time>2021-05-23T12:02:06Z</time>
      </trkpt>
      <trkpt lat="48.25612" lon="7.20539">
        <ele>346.79998779297</ele>
        <time>2021-05-23T12:02:08Z</time>
      </trkpt>
      <trkpt lat="48.25604" lon="7.20499">
        <ele>347.20001220703</ele>
        <time>2021-05-23T12:02:14Z</time>
      </trkpt>
      <trkpt lat="48.25603" lon="7.20493">
        <ele>347.20001220703</ele>
        <time>2021-05-23T12:02:15Z</time>
      </trkpt>
      <trkpt lat="48.25602" lon="7.20486">
        <ele>347.20001220703</ele>
        <time>2021-05-23T12:02:16Z</time>
      </trkpt>
      <trkpt lat="48.25597" lon="7.20439">
        <ele>348.39999389648</ele>
        <time>2021-05-23T12:02:23Z</time>
      </trkpt>
      <trkpt lat="48.25596" lon="7.2043">
        <ele>348.39999389648</ele>
        <time>2021-05-23T12:02:24Z</time>
      </trkpt>
      <trkpt lat="48.25594" lon="7.20417">
        <ele>348.60000610352</ele>
        <time>2021-05-23T12:02:26Z</time>
      </trkpt>
      <trkpt lat="48.25591" lon="7.20405">
        <ele>348.60000610352</ele>
        <time>2021-05-23T12:02:28Z</time>
      </trkpt>
      <trkpt lat="48.25583" lon="7.20398">
        <ele>348.60000610352</ele>
        <time>2021-05-23T12:02:30Z</time>
      </trkpt>
      <trkpt lat="48.25578" lon="7.20395">
        <ele>348.60000610352</ele>
        <time>2021-05-23T12:02:31Z</time>
      </trkpt>
      <trkpt lat="48.2555" lon="7.20376">
        <ele>348.60000610352</ele>
        <time>2021-05-23T12:02:36Z</time>
      </trkpt>
      <trkpt lat="48.25518" lon="7.20348">
        <ele>348</ele>
        <time>2021-05-23T12:02:42Z</time>
      </trkpt>
      <trkpt lat="48.25514" lon="7.20342">
        <ele>347.79998779297</ele>
        <time>2021-05-23T12:02:43Z</time>
      </trkpt>
      <trkpt lat="48.2551" lon="7.20336">
        <ele>347.60000610352</ele>
        <time>2021-05-23T12:02:44Z</time>
      </trkpt>
      <trkpt lat="48.25504" lon="7.20323">
        <ele>347.60000610352</ele>
        <time>2021-05-23T12:02:46Z</time>
      </trkpt>
      <trkpt lat="48.25502" lon="7.20315">
        <ele>347.39999389648</ele>
        <time>2021-05-23T12:02:47Z</time>
      </trkpt>
      <trkpt lat="48.25494" lon="7.20272">
        <ele>347.39999389648</ele>
        <time>2021-05-23T12:02:52Z</time>
      </trkpt>
      <trkpt lat="48.25493" lon="7.20264">
        <ele>347.60000610352</ele>
        <time>2021-05-23T12:02:53Z</time>
      </trkpt>
      <trkpt lat="48.25484" lon="7.20219">
        <ele>348.20001220703</ele>
        <time>2021-05-23T12:02:58Z</time>
      </trkpt>
      <trkpt lat="48.25471" lon="7.20152">
        <ele>349</ele>
        <time>2021-05-23T12:03:06Z</time>
      </trkpt>
      <trkpt lat="48.25465" lon="7.20119">
        <ele>349.60000610352</ele>
        <time>2021-05-23T12:03:10Z</time>
      </trkpt>
      <trkpt lat="48.25461" lon="7.20104">
        <ele>349.79998779297</ele>
        <time>2021-05-23T12:03:12Z</time>
      </trkpt>
      <trkpt lat="48.25459" lon="7.20095">
        <ele>350</ele>
        <time>2021-05-23T12:03:13Z</time>
      </trkpt>
      <trkpt lat="48.25452" lon="7.20082">
        <ele>350.39999389648</ele>
        <time>2021-05-23T12:03:15Z</time>
      </trkpt>
      <trkpt lat="48.25445" lon="7.20072">
        <ele>350.60000610352</ele>
        <time>2021-05-23T12:03:17Z</time>
      </trkpt>
      <trkpt lat="48.25441" lon="7.20068">
        <ele>350.79998779297</ele>
        <time>2021-05-23T12:03:18Z</time>
      </trkpt>
      <trkpt lat="48.25426" lon="7.20055">
        <ele>351.20001220703</ele>
        <time>2021-05-23T12:03:22Z</time>
      </trkpt>
      <trkpt lat="48.25423" lon="7.2005">
        <ele>351.20001220703</ele>
        <time>2021-05-23T12:03:23Z</time>
      </trkpt>
      <trkpt lat="48.25417" lon="7.2004">
        <ele>351.60000610352</ele>
        <time>2021-05-23T12:03:26Z</time>
      </trkpt>
      <trkpt lat="48.25416" lon="7.20036">
        <ele>351.79998779297</ele>
        <time>2021-05-23T12:03:27Z</time>
      </trkpt>
      <trkpt lat="48.25409" lon="7.20022">
        <ele>352.60000610352</ele>
        <time>2021-05-23T12:03:33Z</time>
      </trkpt>
      <trkpt lat="48.25407" lon="7.20014">
        <ele>352.60000610352</ele>
        <time>2021-05-23T12:03:36Z</time>
      </trkpt>
      <trkpt lat="48.25405" lon="7.20005">
        <ele>352.79998779297</ele>
        <time>2021-05-23T12:03:40Z</time>
      </trkpt>
      <trkpt lat="48.25403" lon="7.2">
        <ele>353</ele>
        <time>2021-05-23T12:03:42Z</time>
      </trkpt>
      <trkpt lat="48.254" lon="7.20002">
        <ele>353</ele>
        <time>2021-05-23T12:03:44Z</time>
      </trkpt>
      <trkpt lat="48.25401" lon="7.2001">
        <ele>353.20001220703</ele>
        <time>2021-05-23T12:03:46Z</time>
      </trkpt>
      <trkpt lat="48.25403" lon="7.20015">
        <ele>353.20001220703</ele>
        <time>2021-05-23T12:03:47Z</time>
      </trkpt>
      <trkpt lat="48.25406" lon="7.20027">
        <ele>353</ele>
        <time>2021-05-23T12:03:49Z</time>
      </trkpt>
      <trkpt lat="48.25411" lon="7.20039">
        <ele>352.79998779297</ele>
        <time>2021-05-23T12:03:51Z</time>
      </trkpt>
      <trkpt lat="48.25417" lon="7.20052">
        <ele>352.60000610352</ele>
        <time>2021-05-23T12:03:55Z</time>
      </trkpt>
      <trkpt lat="48.25417" lon="7.20056">
        <ele>352.39999389648</ele>
        <time>2021-05-23T12:03:59Z</time>
      </trkpt>
      <trkpt lat="48.25417" lon="7.20057">
        <ele>352.60000610352</ele>
        <time>2021-05-23T12:04:01Z</time>
      </trkpt>
      <trkpt lat="48.25421" lon="7.20059">
        <ele>352.39999389648</ele>
        <time>2021-05-23T12:04:11Z</time>
      </trkpt>
      <trkpt lat="48.25423" lon="7.20059">
        <ele>352.39999389648</ele>
        <time>2021-05-23T12:04:12Z</time>
      </trkpt>
      <trkpt lat="48.25424" lon="7.20058">
        <ele>352.39999389648</ele>
        <time>2021-05-23T12:04:13Z</time>
      </trkpt>
      <trkpt lat="48.25425" lon="7.20058">
        <ele>352.20001220703</ele>
        <time>2021-05-23T12:04:16Z</time>
      </trkpt>
      <trkpt lat="48.25426" lon="7.20055">
        <ele>352</ele>
        <time>2021-05-23T12:04:34Z</time>
      </trkpt>
      <trkpt lat="48.25425" lon="7.20051">
        <ele>352</ele>
        <time>2021-05-23T12:04:36Z</time>
      </trkpt>
      <trkpt lat="48.25424" lon="7.20047">
        <ele>352</ele>
        <time>2021-05-23T12:04:40Z</time>
      </trkpt>
      <trkpt lat="48.25421" lon="7.20043">
        <ele>351.79998779297</ele>
        <time>2021-05-23T12:05:20Z</time>
      </trkpt>
      <trkpt lat="48.25413" lon="7.20025">
        <ele>351.79998779297</ele>
        <time>2021-05-23T12:05:25Z</time>
      </trkpt>
      <trkpt lat="48.25403" lon="7.19993">
        <ele>352.20001220703</ele>
        <time>2021-05-23T12:05:30Z</time>
      </trkpt>
      <trkpt lat="48.25389" lon="7.19938">
        <ele>353.60000610352</ele>
        <time>2021-05-23T12:05:39Z</time>
      </trkpt>
      <trkpt lat="48.25387" lon="7.19933">
        <ele>354</ele>
        <time>2021-05-23T12:05:40Z</time>
      </trkpt>
      <trkpt lat="48.25384" lon="7.19918">
        <ele>354.39999389648</ele>
        <time>2021-05-23T12:05:43Z</time>
      </trkpt>
      <trkpt lat="48.25378" lon="7.19898">
        <ele>354.79998779297</ele>
        <time>2021-05-23T12:05:48Z</time>
      </trkpt>
      <trkpt lat="48.25373" lon="7.19877">
        <ele>355</ele>
        <time>2021-05-23T12:05:53Z</time>
      </trkpt>
      <trkpt lat="48.25368" lon="7.19856">
        <ele>355.39999389648</ele>
        <time>2021-05-23T12:05:58Z</time>
      </trkpt>
      <trkpt lat="48.25361" lon="7.19828">
        <ele>356.20001220703</ele>
        <time>2021-05-23T12:06:04Z</time>
      </trkpt>
      <trkpt lat="48.25356" lon="7.19808">
        <ele>357</ele>
        <time>2021-05-23T12:06:08Z</time>
      </trkpt>
      <trkpt lat="48.25353" lon="7.19798">
        <ele>357.20001220703</ele>
        <time>2021-05-23T12:06:10Z</time>
      </trkpt>
      <trkpt lat="48.25342" lon="7.19753">
        <ele>357.79998779297</ele>
        <time>2021-05-23T12:06:18Z</time>
      </trkpt>
      <trkpt lat="48.25332" lon="7.19725">
        <ele>358.39999389648</ele>
        <time>2021-05-23T12:06:23Z</time>
      </trkpt>
      <trkpt lat="48.25322" lon="7.19699">
        <ele>359.39999389648</ele>
        <time>2021-05-23T12:06:28Z</time>
      </trkpt>
      <trkpt lat="48.25309" lon="7.19675">
        <ele>360.60000610352</ele>
        <time>2021-05-23T12:06:33Z</time>
      </trkpt>
      <trkpt lat="48.253" lon="7.19658">
        <ele>361.39999389648</ele>
        <time>2021-05-23T12:06:37Z</time>
      </trkpt>
      <trkpt lat="48.25297" lon="7.19654">
        <ele>361.79998779297</ele>
        <time>2021-05-23T12:06:38Z</time>
      </trkpt>
      <trkpt lat="48.25284" lon="7.19636">
        <ele>362.60000610352</ele>
        <time>2021-05-23T12:06:43Z</time>
      </trkpt>
      <trkpt lat="48.2528" lon="7.19626">
        <ele>363.20001220703</ele>
        <time>2021-05-23T12:06:45Z</time>
      </trkpt>
      <trkpt lat="48.25277" lon="7.19615">
        <ele>363.60000610352</ele>
        <time>2021-05-23T12:06:47Z</time>
      </trkpt>
      <trkpt lat="48.25268" lon="7.19601">
        <ele>364.39999389648</ele>
        <time>2021-05-23T12:06:50Z</time>
      </trkpt>
      <trkpt lat="48.25265" lon="7.19597">
        <ele>364.60000610352</ele>
        <time>2021-05-23T12:06:51Z</time>
      </trkpt>
      <trkpt lat="48.25251" lon="7.19571">
        <ele>365.20001220703</ele>
        <time>2021-05-23T12:06:57Z</time>
      </trkpt>
      <trkpt lat="48.25239" lon="7.19539">
        <ele>365.39999389648</ele>
        <time>2021-05-23T12:07:02Z</time>
      </trkpt>
      <trkpt lat="48.25213" lon="7.19485">
        <ele>364.60000610352</ele>
        <time>2021-05-23T12:07:10Z</time>
      </trkpt>
      <trkpt lat="48.2519" lon="7.19436">
        <ele>364</ele>
        <time>2021-05-23T12:07:17Z</time>
      </trkpt>
      <trkpt lat="48.25166" lon="7.19374">
        <ele>363.39999389648</ele>
        <time>2021-05-23T12:07:25Z</time>
      </trkpt>
      <trkpt lat="48.25163" lon="7.19367">
        <ele>363.20001220703</ele>
        <time>2021-05-23T12:07:26Z</time>
      </trkpt>
      <trkpt lat="48.25135" lon="7.19298">
        <ele>362.39999389648</ele>
        <time>2021-05-23T12:07:35Z</time>
      </trkpt>
      <trkpt lat="48.25122" lon="7.1926">
        <ele>362.60000610352</ele>
        <time>2021-05-23T12:07:40Z</time>
      </trkpt>
      <trkpt lat="48.25094" lon="7.19194">
        <ele>363</ele>
        <time>2021-05-23T12:07:49Z</time>
      </trkpt>
      <trkpt lat="48.25078" lon="7.1915">
        <ele>363</ele>
        <time>2021-05-23T12:07:55Z</time>
      </trkpt>
      <trkpt lat="48.25075" lon="7.19143">
        <ele>363</ele>
        <time>2021-05-23T12:07:56Z</time>
      </trkpt>
      <trkpt lat="48.2507" lon="7.1913">
        <ele>363.20001220703</ele>
        <time>2021-05-23T12:07:58Z</time>
      </trkpt>
      <trkpt lat="48.25066" lon="7.19124">
        <ele>363.20001220703</ele>
        <time>2021-05-23T12:07:59Z</time>
      </trkpt>
      <trkpt lat="48.25062" lon="7.19117">
        <ele>363.39999389648</ele>
        <time>2021-05-23T12:08:00Z</time>
      </trkpt>
      <trkpt lat="48.2505" lon="7.19101">
        <ele>363.60000610352</ele>
        <time>2021-05-23T12:08:03Z</time>
      </trkpt>
      <trkpt lat="48.25046" lon="7.19096">
        <ele>363.79998779297</ele>
        <time>2021-05-23T12:08:04Z</time>
      </trkpt>
      <trkpt lat="48.25037" lon="7.19088">
        <ele>364</ele>
        <time>2021-05-23T12:08:06Z</time>
      </trkpt>
      <trkpt lat="48.25018" lon="7.19072">
        <ele>364.20001220703</ele>
        <time>2021-05-23T12:08:10Z</time>
      </trkpt>
      <trkpt lat="48.25014" lon="7.19068">
        <ele>364.20001220703</ele>
        <time>2021-05-23T12:08:11Z</time>
      </trkpt>
      <trkpt lat="48.2501" lon="7.19064">
        <ele>364.39999389648</ele>
        <time>2021-05-23T12:08:12Z</time>
      </trkpt>
      <trkpt lat="48.25" lon="7.19056">
        <ele>364.79998779297</ele>
        <time>2021-05-23T12:08:14Z</time>
      </trkpt>
      <trkpt lat="48.24996" lon="7.19052">
        <ele>365</ele>
        <time>2021-05-23T12:08:15Z</time>
      </trkpt>
      <trkpt lat="48.24981" lon="7.19041">
        <ele>365.20001220703</ele>
        <time>2021-05-23T12:08:18Z</time>
      </trkpt>
      <trkpt lat="48.2497" lon="7.19029">
        <ele>365.79998779297</ele>
        <time>2021-05-23T12:08:21Z</time>
      </trkpt>
      <trkpt lat="48.24948" lon="7.19008">
        <ele>366.39999389648</ele>
        <time>2021-05-23T12:08:26Z</time>
      </trkpt>
      <trkpt lat="48.24931" lon="7.18992">
        <ele>367</ele>
        <time>2021-05-23T12:08:30Z</time>
      </trkpt>
      <trkpt lat="48.2491" lon="7.18973">
        <ele>367.39999389648</ele>
        <time>2021-05-23T12:08:35Z</time>
      </trkpt>
      <trkpt lat="48.24905" lon="7.18969">
        <ele>367.39999389648</ele>
        <time>2021-05-23T12:08:36Z</time>
      </trkpt>
      <trkpt lat="48.24894" lon="7.18955">
        <ele>367.39999389648</ele>
        <time>2021-05-23T12:08:39Z</time>
      </trkpt>
      <trkpt lat="48.24892" lon="7.18948">
        <ele>367.39999389648</ele>
        <time>2021-05-23T12:08:40Z</time>
      </trkpt>
      <trkpt lat="48.2489" lon="7.18941">
        <ele>367.39999389648</ele>
        <time>2021-05-23T12:08:41Z</time>
      </trkpt>
      <trkpt lat="48.24891" lon="7.18927">
        <ele>367.60000610352</ele>
        <time>2021-05-23T12:08:43Z</time>
      </trkpt>
      <trkpt lat="48.24899" lon="7.18897">
        <ele>368.20001220703</ele>
        <time>2021-05-23T12:08:47Z</time>
      </trkpt>
      <trkpt lat="48.249" lon="7.18889">
        <ele>368.39999389648</ele>
        <time>2021-05-23T12:08:48Z</time>
      </trkpt>
      <trkpt lat="48.24903" lon="7.18873">
        <ele>368.60000610352</ele>
        <time>2021-05-23T12:08:50Z</time>
      </trkpt>
      <trkpt lat="48.24906" lon="7.18859">
        <ele>368.60000610352</ele>
        <time>2021-05-23T12:08:52Z</time>
      </trkpt>
      <trkpt lat="48.24904" lon="7.18844">
        <ele>368.60000610352</ele>
        <time>2021-05-23T12:08:54Z</time>
      </trkpt>
      <trkpt lat="48.249" lon="7.18837">
        <ele>368.60000610352</ele>
        <time>2021-05-23T12:08:55Z</time>
      </trkpt>
      <trkpt lat="48.24897" lon="7.18832">
        <ele>368.60000610352</ele>
        <time>2021-05-23T12:08:56Z</time>
      </trkpt>
      <trkpt lat="48.24881" lon="7.18816">
        <ele>368.79998779297</ele>
        <time>2021-05-23T12:09:00Z</time>
      </trkpt>
      <trkpt lat="48.24874" lon="7.18807">
        <ele>369.39999389648</ele>
        <time>2021-05-23T12:09:02Z</time>
      </trkpt>
      <trkpt lat="48.24868" lon="7.18798">
        <ele>369.60000610352</ele>
        <time>2021-05-23T12:09:04Z</time>
      </trkpt>
      <trkpt lat="48.24864" lon="7.18794">
        <ele>369.60000610352</ele>
        <time>2021-05-23T12:09:05Z</time>
      </trkpt>
      <trkpt lat="48.24856" lon="7.18784">
        <ele>369.60000610352</ele>
        <time>2021-05-23T12:09:07Z</time>
      </trkpt>
      <trkpt lat="48.24849" lon="7.18773">
        <ele>369.79998779297</ele>
        <time>2021-05-23T12:09:09Z</time>
      </trkpt>
      <trkpt lat="48.24845" lon="7.18768">
        <ele>369.79998779297</ele>
        <time>2021-05-23T12:09:10Z</time>
      </trkpt>
      <trkpt lat="48.24844" lon="7.18756">
        <ele>369.79998779297</ele>
        <time>2021-05-23T12:09:12Z</time>
      </trkpt>
      <trkpt lat="48.24851" lon="7.1874">
        <ele>370.20001220703</ele>
        <time>2021-05-23T12:09:15Z</time>
      </trkpt>
      <trkpt lat="48.24853" lon="7.18735">
        <ele>370.39999389648</ele>
        <time>2021-05-23T12:09:16Z</time>
      </trkpt>
      <trkpt lat="48.24854" lon="7.1873">
        <ele>370.60000610352</ele>
        <time>2021-05-23T12:09:17Z</time>
      </trkpt>
      <trkpt lat="48.24863" lon="7.18706">
        <ele>371.39999389648</ele>
        <time>2021-05-23T12:09:22Z</time>
      </trkpt>
      <trkpt lat="48.24864" lon="7.18699">
        <ele>371.60000610352</ele>
        <time>2021-05-23T12:09:24Z</time>
      </trkpt>
      <trkpt lat="48.24865" lon="7.18697">
        <ele>371.60000610352</ele>
        <time>2021-05-23T12:09:26Z</time>
      </trkpt>
      <trkpt lat="48.24861" lon="7.18714">
        <ele>371.79998779297</ele>
        <time>2021-05-23T12:09:30Z</time>
      </trkpt>
      <trkpt lat="48.2485" lon="7.18745">
        <ele>371.39999389648</ele>
        <time>2021-05-23T12:09:35Z</time>
      </trkpt>
      <trkpt lat="48.24848" lon="7.1875">
        <ele>371.20001220703</ele>
        <time>2021-05-23T12:09:36Z</time>
      </trkpt>
      <trkpt lat="48.24844" lon="7.18756">
        <ele>371</ele>
        <time>2021-05-23T12:09:38Z</time>
      </trkpt>
      <trkpt lat="48.24842" lon="7.18756">
        <ele>371</ele>
        <time>2021-05-23T12:09:39Z</time>
      </trkpt>
      <trkpt lat="48.24828" lon="7.18745">
        <ele>371</ele>
        <time>2021-05-23T12:09:43Z</time>
      </trkpt>
      <trkpt lat="48.24816" lon="7.18734">
        <ele>370.79998779297</ele>
        <time>2021-05-23T12:09:46Z</time>
      </trkpt>
      <trkpt lat="48.24808" lon="7.18727">
        <ele>370.79998779297</ele>
        <time>2021-05-23T12:09:48Z</time>
      </trkpt>
      <trkpt lat="48.24803" lon="7.18724">
        <ele>370.79998779297</ele>
        <time>2021-05-23T12:09:49Z</time>
      </trkpt>
      <trkpt lat="48.24795" lon="7.18715">
        <ele>370.79998779297</ele>
        <time>2021-05-23T12:09:51Z</time>
      </trkpt>
      <trkpt lat="48.24787" lon="7.18707">
        <ele>370.79998779297</ele>
        <time>2021-05-23T12:09:53Z</time>
      </trkpt>
      <trkpt lat="48.24783" lon="7.18703">
        <ele>370.79998779297</ele>
        <time>2021-05-23T12:09:54Z</time>
      </trkpt>
      <trkpt lat="48.24772" lon="7.18689">
        <ele>371.20001220703</ele>
        <time>2021-05-23T12:09:57Z</time>
      </trkpt>
      <trkpt lat="48.24765" lon="7.18678">
        <ele>371.39999389648</ele>
        <time>2021-05-23T12:09:59Z</time>
      </trkpt>
      <trkpt lat="48.24759" lon="7.18668">
        <ele>371.39999389648</ele>
        <time>2021-05-23T12:10:01Z</time>
      </trkpt>
      <trkpt lat="48.24734" lon="7.18623">
        <ele>371.79998779297</ele>
        <time>2021-05-23T12:10:09Z</time>
      </trkpt>
      <trkpt lat="48.24714" lon="7.18584">
        <ele>372</ele>
        <time>2021-05-23T12:10:16Z</time>
      </trkpt>
      <trkpt lat="48.24697" lon="7.1854">
        <ele>372.60000610352</ele>
        <time>2021-05-23T12:10:23Z</time>
      </trkpt>
      <trkpt lat="48.24694" lon="7.18534">
        <ele>372.79998779297</ele>
        <time>2021-05-23T12:10:24Z</time>
      </trkpt>
      <trkpt lat="48.24692" lon="7.18528">
        <ele>372.79998779297</ele>
        <time>2021-05-23T12:10:25Z</time>
      </trkpt>
      <trkpt lat="48.24677" lon="7.18489">
        <ele>373</ele>
        <time>2021-05-23T12:10:31Z</time>
      </trkpt>
      <trkpt lat="48.24661" lon="7.18444">
        <ele>373.79998779297</ele>
        <time>2021-05-23T12:10:38Z</time>
      </trkpt>
      <trkpt lat="48.24653" lon="7.18425">
        <ele>374.20001220703</ele>
        <time>2021-05-23T12:10:41Z</time>
      </trkpt>
      <trkpt lat="48.24644" lon="7.18406">
        <ele>375</ele>
        <time>2021-05-23T12:10:44Z</time>
      </trkpt>
      <trkpt lat="48.24634" lon="7.18389">
        <ele>375.39999389648</ele>
        <time>2021-05-23T12:10:47Z</time>
      </trkpt>
      <trkpt lat="48.24627" lon="7.18378">
        <ele>375.39999389648</ele>
        <time>2021-05-23T12:10:49Z</time>
      </trkpt>
      <trkpt lat="48.24621" lon="7.18367">
        <ele>375.60000610352</ele>
        <time>2021-05-23T12:10:51Z</time>
      </trkpt>
      <trkpt lat="48.24619" lon="7.18361">
        <ele>375.60000610352</ele>
        <time>2021-05-23T12:10:52Z</time>
      </trkpt>
      <trkpt lat="48.24606" lon="7.18325">
        <ele>376</ele>
        <time>2021-05-23T12:10:58Z</time>
      </trkpt>
      <trkpt lat="48.246" lon="7.18308">
        <ele>376.20001220703</ele>
        <time>2021-05-23T12:11:01Z</time>
      </trkpt>
      <trkpt lat="48.24595" lon="7.18295">
        <ele>376.39999389648</ele>
        <time>2021-05-23T12:11:03Z</time>
      </trkpt>
      <trkpt lat="48.24587" lon="7.18279">
        <ele>376.60000610352</ele>
        <time>2021-05-23T12:11:06Z</time>
      </trkpt>
      <trkpt lat="48.24583" lon="7.18269">
        <ele>377.39999389648</ele>
        <time>2021-05-23T12:11:08Z</time>
      </trkpt>
      <trkpt lat="48.24567" lon="7.18244">
        <ele>378.20001220703</ele>
        <time>2021-05-23T12:11:13Z</time>
      </trkpt>
      <trkpt lat="48.24561" lon="7.18233">
        <ele>378.39999389648</ele>
        <time>2021-05-23T12:11:15Z</time>
      </trkpt>
      <trkpt lat="48.24545" lon="7.18202">
        <ele>379.60000610352</ele>
        <time>2021-05-23T12:11:21Z</time>
      </trkpt>
      <trkpt lat="48.24537" lon="7.18182">
        <ele>380.60000610352</ele>
        <time>2021-05-23T12:11:25Z</time>
      </trkpt>
      <trkpt lat="48.24531" lon="7.18165">
        <ele>381</ele>
        <time>2021-05-23T12:11:28Z</time>
      </trkpt>
      <trkpt lat="48.24522" lon="7.18129">
        <ele>381.60000610352</ele>
        <time>2021-05-23T12:11:34Z</time>
      </trkpt>
      <trkpt lat="48.2452" lon="7.18118">
        <ele>382</ele>
        <time>2021-05-23T12:11:36Z</time>
      </trkpt>
      <trkpt lat="48.24516" lon="7.18101">
        <ele>382.79998779297</ele>
        <time>2021-05-23T12:11:39Z</time>
      </trkpt>
      <trkpt lat="48.24514" lon="7.18095">
        <ele>383</ele>
        <time>2021-05-23T12:11:40Z</time>
      </trkpt>
      <trkpt lat="48.24512" lon="7.18082">
        <ele>383.20001220703</ele>
        <time>2021-05-23T12:11:42Z</time>
      </trkpt>
      <trkpt lat="48.2451" lon="7.18076">
        <ele>383.39999389648</ele>
        <time>2021-05-23T12:11:43Z</time>
      </trkpt>
      <trkpt lat="48.24508" lon="7.18063">
        <ele>383.79998779297</ele>
        <time>2021-05-23T12:11:45Z</time>
      </trkpt>
      <trkpt lat="48.24499" lon="7.18033">
        <ele>384.39999389648</ele>
        <time>2021-05-23T12:11:50Z</time>
      </trkpt>
      <trkpt lat="48.24498" lon="7.18027">
        <ele>384.79998779297</ele>
        <time>2021-05-23T12:11:51Z</time>
      </trkpt>
      <trkpt lat="48.24495" lon="7.18014">
        <ele>385</ele>
        <time>2021-05-23T12:11:53Z</time>
      </trkpt>
      <trkpt lat="48.24493" lon="7.18003">
        <ele>385</ele>
        <time>2021-05-23T12:11:55Z</time>
      </trkpt>
      <trkpt lat="48.24491" lon="7.17998">
        <ele>385.20001220703</ele>
        <time>2021-05-23T12:11:56Z</time>
      </trkpt>
      <trkpt lat="48.24488" lon="7.17992">
        <ele>385.20001220703</ele>
        <time>2021-05-23T12:11:57Z</time>
      </trkpt>
      <trkpt lat="48.24483" lon="7.17984">
        <ele>385.39999389648</ele>
        <time>2021-05-23T12:11:59Z</time>
      </trkpt>
      <trkpt lat="48.2448" lon="7.17982">
        <ele>385.60000610352</ele>
        <time>2021-05-23T12:12:00Z</time>
      </trkpt>
      <trkpt lat="48.24476" lon="7.17983">
        <ele>386</ele>
        <time>2021-05-23T12:12:01Z</time>
      </trkpt>
      <trkpt lat="48.24469" lon="7.17988">
        <ele>386.39999389648</ele>
        <time>2021-05-23T12:12:03Z</time>
      </trkpt>
      <trkpt lat="48.24444" lon="7.18002">
        <ele>386.79998779297</ele>
        <time>2021-05-23T12:12:09Z</time>
      </trkpt>
      <trkpt lat="48.24439" lon="7.18004">
        <ele>386.79998779297</ele>
        <time>2021-05-23T12:12:10Z</time>
      </trkpt>
      <trkpt lat="48.24415" lon="7.18013">
        <ele>386.60000610352</ele>
        <time>2021-05-23T12:12:15Z</time>
      </trkpt>
      <trkpt lat="48.2441" lon="7.18013">
        <ele>386.60000610352</ele>
        <time>2021-05-23T12:12:16Z</time>
      </trkpt>
      <trkpt lat="48.24394" lon="7.1801">
        <ele>386.39999389648</ele>
        <time>2021-05-23T12:12:19Z</time>
      </trkpt>
      <trkpt lat="48.24389" lon="7.1801">
        <ele>386.39999389648</ele>
        <time>2021-05-23T12:12:20Z</time>
      </trkpt>
      <trkpt lat="48.24373" lon="7.18009">
        <ele>386.60000610352</ele>
        <time>2021-05-23T12:12:23Z</time>
      </trkpt>
      <trkpt lat="48.24341" lon="7.17994">
        <ele>386.79998779297</ele>
        <time>2021-05-23T12:12:29Z</time>
      </trkpt>
      <trkpt lat="48.24335" lon="7.17991">
        <ele>387</ele>
        <time>2021-05-23T12:12:30Z</time>
      </trkpt>
      <trkpt lat="48.24291" lon="7.1798">
        <ele>386.60000610352</ele>
        <time>2021-05-23T12:12:38Z</time>
      </trkpt>
      <trkpt lat="48.24247" lon="7.17985">
        <ele>386.20001220703</ele>
        <time>2021-05-23T12:12:46Z</time>
      </trkpt>
      <trkpt lat="48.24229" lon="7.17989">
        <ele>385.79998779297</ele>
        <time>2021-05-23T12:12:49Z</time>
      </trkpt>
      <trkpt lat="48.24217" lon="7.1799">
        <ele>385.79998779297</ele>
        <time>2021-05-23T12:12:51Z</time>
      </trkpt>
      <trkpt lat="48.24212" lon="7.17989">
        <ele>385.79998779297</ele>
        <time>2021-05-23T12:12:52Z</time>
      </trkpt>
      <trkpt lat="48.242" lon="7.17987">
        <ele>385.79998779297</ele>
        <time>2021-05-23T12:12:54Z</time>
      </trkpt>
      <trkpt lat="48.24174" lon="7.17981">
        <ele>386.20001220703</ele>
        <time>2021-05-23T12:12:58Z</time>
      </trkpt>
      <trkpt lat="48.24174" lon="7.17981">
        <ele>386.39999389648</ele>
        <time>2021-05-23T12:12:59Z</time>
      </trkpt>
      <trkpt lat="48.24153" lon="7.17972">
        <ele>386.79998779297</ele>
        <time>2021-05-23T12:13:02Z</time>
      </trkpt>
      <trkpt lat="48.24149" lon="7.17968">
        <ele>387</ele>
        <time>2021-05-23T12:13:04Z</time>
      </trkpt>
      <trkpt lat="48.24144" lon="7.17964">
        <ele>387</ele>
        <time>2021-05-23T12:13:05Z</time>
      </trkpt>
      <trkpt lat="48.24104" lon="7.17924">
        <ele>387.79998779297</ele>
        <time>2021-05-23T12:13:12Z</time>
      </trkpt>
      <trkpt lat="48.24097" lon="7.17913">
        <ele>388</ele>
        <time>2021-05-23T12:13:15Z</time>
      </trkpt>
      <trkpt lat="48.24092" lon="7.17909">
        <ele>388.20001220703</ele>
        <time>2021-05-23T12:13:16Z</time>
      </trkpt>
      <trkpt lat="48.24078" lon="7.17896">
        <ele>388.20001220703</ele>
        <time>2021-05-23T12:13:18Z</time>
      </trkpt>
      <trkpt lat="48.24058" lon="7.17872">
        <ele>388.39999389648</ele>
        <time>2021-05-23T12:13:24Z</time>
      </trkpt>
      <trkpt lat="48.24051" lon="7.17863">
        <ele>388.60000610352</ele>
        <time>2021-05-23T12:13:25Z</time>
      </trkpt>
      <trkpt lat="48.24047" lon="7.17858">
        <ele>388.79998779297</ele>
        <time>2021-05-23T12:13:26Z</time>
      </trkpt>
      <trkpt lat="48.24042" lon="7.17854">
        <ele>388.79998779297</ele>
        <time>2021-05-23T12:13:27Z</time>
      </trkpt>
      <trkpt lat="48.24038" lon="7.17849">
        <ele>389.39999389648</ele>
        <time>2021-05-23T12:13:29Z</time>
      </trkpt>
      <trkpt lat="48.24031" lon="7.1784">
        <ele>389.39999389648</ele>
        <time>2021-05-23T12:13:30Z</time>
      </trkpt>
      <trkpt lat="48.24023" lon="7.1783">
        <ele>389.79998779297</ele>
        <time>2021-05-23T12:13:32Z</time>
      </trkpt>
      <trkpt lat="48.24011" lon="7.17816">
        <ele>390.39999389648</ele>
        <time>2021-05-23T12:13:35Z</time>
      </trkpt>
      <trkpt lat="48.23991" lon="7.17795">
        <ele>391.39999389648</ele>
        <time>2021-05-23T12:13:40Z</time>
      </trkpt>
      <trkpt lat="48.23991" lon="7.17795">
        <ele>391.60000610352</ele>
        <time>2021-05-23T12:13:41Z</time>
      </trkpt>
      <trkpt lat="48.23947" lon="7.17753">
        <ele>392.39999389648</ele>
        <time>2021-05-23T12:13:50Z</time>
      </trkpt>
      <trkpt lat="48.23923" lon="7.17723">
        <ele>392.60000610352</ele>
        <time>2021-05-23T12:13:56Z</time>
      </trkpt>
      <trkpt lat="48.23911" lon="7.17707">
        <ele>392.79998779297</ele>
        <time>2021-05-23T12:13:59Z</time>
      </trkpt>
      <trkpt lat="48.23904" lon="7.17696">
        <ele>393</ele>
        <time>2021-05-23T12:14:01Z</time>
      </trkpt>
      <trkpt lat="48.23899" lon="7.17684">
        <ele>393.39999389648</ele>
        <time>2021-05-23T12:14:03Z</time>
      </trkpt>
      <trkpt lat="48.23897" lon="7.17677">
        <ele>393.39999389648</ele>
        <time>2021-05-23T12:14:04Z</time>
      </trkpt>
      <trkpt lat="48.23896" lon="7.1767">
        <ele>393.60000610352</ele>
        <time>2021-05-23T12:14:05Z</time>
      </trkpt>
      <trkpt lat="48.23893" lon="7.17649">
        <ele>394.20001220703</ele>
        <time>2021-05-23T12:14:09Z</time>
      </trkpt>
      <trkpt lat="48.23891" lon="7.17636">
        <ele>394.60000610352</ele>
        <time>2021-05-23T12:14:11Z</time>
      </trkpt>
      <trkpt lat="48.23881" lon="7.17577">
        <ele>395.60000610352</ele>
        <time>2021-05-23T12:14:19Z</time>
      </trkpt>
      <trkpt lat="48.23879" lon="7.17571">
        <ele>396</ele>
        <time>2021-05-23T12:14:20Z</time>
      </trkpt>
      <trkpt lat="48.23876" lon="7.17559">
        <ele>396.79998779297</ele>
        <time>2021-05-23T12:14:23Z</time>
      </trkpt>
      <trkpt lat="48.23871" lon="7.17535">
        <ele>397.79998779297</ele>
        <time>2021-05-23T12:14:26Z</time>
      </trkpt>
      <trkpt lat="48.2387" lon="7.1753">
        <ele>398.20001220703</ele>
        <time>2021-05-23T12:14:28Z</time>
      </trkpt>
      <trkpt lat="48.23865" lon="7.17505">
        <ele>398.79998779297</ele>
        <time>2021-05-23T12:14:32Z</time>
      </trkpt>
      <trkpt lat="48.23864" lon="7.17502">
        <ele>399.20001220703</ele>
        <time>2021-05-23T12:14:33Z</time>
      </trkpt>
      <trkpt lat="48.23863" lon="7.175">
        <ele>399.60000610352</ele>
        <time>2021-05-23T12:14:35Z</time>
      </trkpt>
      <trkpt lat="48.23862" lon="7.175">
        <ele>399.79998779297</ele>
        <time>2021-05-23T12:14:36Z</time>
      </trkpt>
      <trkpt lat="48.23862" lon="7.175">
        <ele>399.79998779297</ele>
        <time>2021-05-23T12:14:37Z</time>
      </trkpt>
      <trkpt lat="48.23862" lon="7.175">
        <ele>400.20001220703</ele>
        <time>2021-05-23T12:14:39Z</time>
      </trkpt>
      <trkpt lat="48.23859" lon="7.17493">
        <ele>400.79998779297</ele>
        <time>2021-05-23T12:19:34Z</time>
      </trkpt>
      <trkpt lat="48.23857" lon="7.1749">
        <ele>400.79998779297</ele>
        <time>2021-05-23T12:19:35Z</time>
      </trkpt>
      <trkpt lat="48.23848" lon="7.17469">
        <ele>400.79998779297</ele>
        <time>2021-05-23T12:19:40Z</time>
      </trkpt>
      <trkpt lat="48.23845" lon="7.17465">
        <ele>401</ele>
        <time>2021-05-23T12:19:41Z</time>
      </trkpt>
      <trkpt lat="48.23836" lon="7.17447">
        <ele>401.20001220703</ele>
        <time>2021-05-23T12:19:44Z</time>
      </trkpt>
      <trkpt lat="48.23832" lon="7.17437">
        <ele>401.60000610352</ele>
        <time>2021-05-23T12:19:46Z</time>
      </trkpt>
      <trkpt lat="48.23824" lon="7.17419">
        <ele>401.60000610352</ele>
        <time>2021-05-23T12:19:49Z</time>
      </trkpt>
      <trkpt lat="48.23822" lon="7.17412">
        <ele>401.79998779297</ele>
        <time>2021-05-23T12:19:50Z</time>
      </trkpt>
      <trkpt lat="48.23819" lon="7.17406">
        <ele>401.79998779297</ele>
        <time>2021-05-23T12:19:51Z</time>
      </trkpt>
      <trkpt lat="48.23813" lon="7.17394">
        <ele>402</ele>
        <time>2021-05-23T12:19:53Z</time>
      </trkpt>
      <trkpt lat="48.23805" lon="7.17373">
        <ele>402.79998779297</ele>
        <time>2021-05-23T12:19:56Z</time>
      </trkpt>
      <trkpt lat="48.23794" lon="7.17348">
        <ele>404</ele>
        <time>2021-05-23T12:20:01Z</time>
      </trkpt>
      <trkpt lat="48.23783" lon="7.17316">
        <ele>404.60000610352</ele>
        <time>2021-05-23T12:20:05Z</time>
      </trkpt>
      <trkpt lat="48.23769" lon="7.1728">
        <ele>405.20001220703</ele>
        <time>2021-05-23T12:20:10Z</time>
      </trkpt>
      <trkpt lat="48.23766" lon="7.17273">
        <ele>405.39999389648</ele>
        <time>2021-05-23T12:20:11Z</time>
      </trkpt>
      <trkpt lat="48.23755" lon="7.17247">
        <ele>406.39999389648</ele>
        <time>2021-05-23T12:20:15Z</time>
      </trkpt>
      <trkpt lat="48.23743" lon="7.17221">
        <ele>406.60000610352</ele>
        <time>2021-05-23T12:20:19Z</time>
      </trkpt>
      <trkpt lat="48.23735" lon="7.172">
        <ele>407.39999389648</ele>
        <time>2021-05-23T12:20:22Z</time>
      </trkpt>
      <trkpt lat="48.23726" lon="7.17171">
        <ele>407.79998779297</ele>
        <time>2021-05-23T12:20:26Z</time>
      </trkpt>
      <trkpt lat="48.23724" lon="7.17164">
        <ele>407.79998779297</ele>
        <time>2021-05-23T12:20:27Z</time>
      </trkpt>
      <trkpt lat="48.2372" lon="7.17148">
        <ele>408</ele>
        <time>2021-05-23T12:20:29Z</time>
      </trkpt>
      <trkpt lat="48.23718" lon="7.17141">
        <ele>408.20001220703</ele>
        <time>2021-05-23T12:20:30Z</time>
      </trkpt>
      <trkpt lat="48.23717" lon="7.17134">
        <ele>408.20001220703</ele>
        <time>2021-05-23T12:20:31Z</time>
      </trkpt>
      <trkpt lat="48.23714" lon="7.17118">
        <ele>408.39999389648</ele>
        <time>2021-05-23T12:20:33Z</time>
      </trkpt>
      <trkpt lat="48.23708" lon="7.17081">
        <ele>409.39999389648</ele>
        <time>2021-05-23T12:20:38Z</time>
      </trkpt>
      <trkpt lat="48.23704" lon="7.17058">
        <ele>410</ele>
        <time>2021-05-23T12:20:41Z</time>
      </trkpt>
      <trkpt lat="48.23701" lon="7.17043">
        <ele>410.60000610352</ele>
        <time>2021-05-23T12:20:43Z</time>
      </trkpt>
      <trkpt lat="48.23694" lon="7.17007">
        <ele>411.60000610352</ele>
        <time>2021-05-23T12:20:48Z</time>
      </trkpt>
      <trkpt lat="48.23693" lon="7.16998">
        <ele>411.60000610352</ele>
        <time>2021-05-23T12:20:49Z</time>
      </trkpt>
      <trkpt lat="48.23685" lon="7.16961">
        <ele>412.60000610352</ele>
        <time>2021-05-23T12:20:54Z</time>
      </trkpt>
      <trkpt lat="48.23679" lon="7.16938">
        <ele>412.79998779297</ele>
        <time>2021-05-23T12:20:57Z</time>
      </trkpt>
      <trkpt lat="48.23668" lon="7.16898">
        <ele>413.79998779297</ele>
        <time>2021-05-23T12:21:02Z</time>
      </trkpt>
      <trkpt lat="48.23663" lon="7.16881">
        <ele>414</ele>
        <time>2021-05-23T12:21:04Z</time>
      </trkpt>
      <trkpt lat="48.23652" lon="7.16849">
        <ele>414.79998779297</ele>
        <time>2021-05-23T12:21:08Z</time>
      </trkpt>
      <trkpt lat="48.23649" lon="7.16841">
        <ele>415</ele>
        <time>2021-05-23T12:21:09Z</time>
      </trkpt>
      <trkpt lat="48.23646" lon="7.16833">
        <ele>415.20001220703</ele>
        <time>2021-05-23T12:21:10Z</time>
      </trkpt>
      <trkpt lat="48.23637" lon="7.1681">
        <ele>415.60000610352</ele>
        <time>2021-05-23T12:21:13Z</time>
      </trkpt>
      <trkpt lat="48.23635" lon="7.16802">
        <ele>415.79998779297</ele>
        <time>2021-05-23T12:21:15Z</time>
      </trkpt>
      <trkpt lat="48.23631" lon="7.16785">
        <ele>416.20001220703</ele>
        <time>2021-05-23T12:21:16Z</time>
      </trkpt>
      <trkpt lat="48.23622" lon="7.16744">
        <ele>417</ele>
        <time>2021-05-23T12:21:21Z</time>
      </trkpt>
      <trkpt lat="48.23619" lon="7.16727">
        <ele>417.39999389648</ele>
        <time>2021-05-23T12:21:23Z</time>
      </trkpt>
      <trkpt lat="48.23614" lon="7.16685">
        <ele>417.79998779297</ele>
        <time>2021-05-23T12:21:28Z</time>
      </trkpt>
      <trkpt lat="48.23612" lon="7.16667">
        <ele>417.79998779297</ele>
        <time>2021-05-23T12:21:30Z</time>
      </trkpt>
      <trkpt lat="48.23608" lon="7.16633">
        <ele>419</ele>
        <time>2021-05-23T12:21:34Z</time>
      </trkpt>
      <trkpt lat="48.23607" lon="7.16624">
        <ele>419.60000610352</ele>
        <time>2021-05-23T12:21:35Z</time>
      </trkpt>
      <trkpt lat="48.23601" lon="7.16589">
        <ele>420</ele>
        <time>2021-05-23T12:21:39Z</time>
      </trkpt>
      <trkpt lat="48.23596" lon="7.16574">
        <ele>420.20001220703</ele>
        <time>2021-05-23T12:21:41Z</time>
      </trkpt>
      <trkpt lat="48.23583" lon="7.16534">
        <ele>421.20001220703</ele>
        <time>2021-05-23T12:21:46Z</time>
      </trkpt>
      <trkpt lat="48.23576" lon="7.16511">
        <ele>421.60000610352</ele>
        <time>2021-05-23T12:21:49Z</time>
      </trkpt>
      <trkpt lat="48.23569" lon="7.1647">
        <ele>422.39999389648</ele>
        <time>2021-05-23T12:21:54Z</time>
      </trkpt>
      <trkpt lat="48.23567" lon="7.16453">
        <ele>422.79998779297</ele>
        <time>2021-05-23T12:21:56Z</time>
      </trkpt>
      <trkpt lat="48.23565" lon="7.16445">
        <ele>423.20001220703</ele>
        <time>2021-05-23T12:21:58Z</time>
      </trkpt>
      <trkpt lat="48.23562" lon="7.16428">
        <ele>423.39999389648</ele>
        <time>2021-05-23T12:21:59Z</time>
      </trkpt>
      <trkpt lat="48.23555" lon="7.16396">
        <ele>424.60000610352</ele>
        <time>2021-05-23T12:22:03Z</time>
      </trkpt>
      <trkpt lat="48.2355" lon="7.1638">
        <ele>425.20001220703</ele>
        <time>2021-05-23T12:22:05Z</time>
      </trkpt>
      <trkpt lat="48.23541" lon="7.16359">
        <ele>425.60000610352</ele>
        <time>2021-05-23T12:22:08Z</time>
      </trkpt>
      <trkpt lat="48.23526" lon="7.16333">
        <ele>426.60000610352</ele>
        <time>2021-05-23T12:22:12Z</time>
      </trkpt>
      <trkpt lat="48.23523" lon="7.16327">
        <ele>426.79998779297</ele>
        <time>2021-05-23T12:22:13Z</time>
      </trkpt>
      <trkpt lat="48.2351" lon="7.1631">
        <ele>427.39999389648</ele>
        <time>2021-05-23T12:22:16Z</time>
      </trkpt>
      <trkpt lat="48.23495" lon="7.16297">
        <ele>427.60000610352</ele>
        <time>2021-05-23T12:22:19Z</time>
      </trkpt>
      <trkpt lat="48.23462" lon="7.16279">
        <ele>428</ele>
        <time>2021-05-23T12:22:25Z</time>
      </trkpt>
      <trkpt lat="48.23427" lon="7.16257">
        <ele>428.60000610352</ele>
        <time>2021-05-23T12:22:31Z</time>
      </trkpt>
      <trkpt lat="48.2339" lon="7.16217">
        <ele>428.60000610352</ele>
        <time>2021-05-23T12:22:37Z</time>
      </trkpt>
      <trkpt lat="48.23372" lon="7.16197">
        <ele>428.39999389648</ele>
        <time>2021-05-23T12:22:40Z</time>
      </trkpt>
      <trkpt lat="48.23354" lon="7.16182">
        <ele>428.39999389648</ele>
        <time>2021-05-23T12:22:43Z</time>
      </trkpt>
      <trkpt lat="48.23311" lon="7.16157">
        <ele>429</ele>
        <time>2021-05-23T12:22:50Z</time>
      </trkpt>
      <trkpt lat="48.23289" lon="7.16147">
        <ele>429.79998779297</ele>
        <time>2021-05-23T12:22:54Z</time>
      </trkpt>
      <trkpt lat="48.23273" lon="7.16136">
        <ele>430.39999389648</ele>
        <time>2021-05-23T12:22:57Z</time>
      </trkpt>
      <trkpt lat="48.23262" lon="7.1613">
        <ele>430.60000610352</ele>
        <time>2021-05-23T12:22:59Z</time>
      </trkpt>
      <trkpt lat="48.23244" lon="7.16121">
        <ele>431</ele>
        <time>2021-05-23T12:23:02Z</time>
      </trkpt>
      <trkpt lat="48.23238" lon="7.16118">
        <ele>431</ele>
        <time>2021-05-23T12:23:03Z</time>
      </trkpt>
      <trkpt lat="48.23233" lon="7.16116">
        <ele>431.20001220703</ele>
        <time>2021-05-23T12:23:04Z</time>
      </trkpt>
      <trkpt lat="48.23207" lon="7.16111">
        <ele>431.60000610352</ele>
        <time>2021-05-23T12:23:08Z</time>
      </trkpt>
      <trkpt lat="48.23188" lon="7.16106">
        <ele>432</ele>
        <time>2021-05-23T12:23:11Z</time>
      </trkpt>
      <trkpt lat="48.23182" lon="7.16104">
        <ele>432</ele>
        <time>2021-05-23T12:23:12Z</time>
      </trkpt>
      <trkpt lat="48.23171" lon="7.16095">
        <ele>432.20001220703</ele>
        <time>2021-05-23T12:23:14Z</time>
      </trkpt>
      <trkpt lat="48.2316" lon="7.16089">
        <ele>432.60000610352</ele>
        <time>2021-05-23T12:23:16Z</time>
      </trkpt>
      <trkpt lat="48.23154" lon="7.16087">
        <ele>432.60000610352</ele>
        <time>2021-05-23T12:23:17Z</time>
      </trkpt>
      <trkpt lat="48.23141" lon="7.16085">
        <ele>432.79998779297</ele>
        <time>2021-05-23T12:23:19Z</time>
      </trkpt>
      <trkpt lat="48.23129" lon="7.16086">
        <ele>433</ele>
        <time>2021-05-23T12:23:21Z</time>
      </trkpt>
      <trkpt lat="48.23107" lon="7.16087">
        <ele>433.60000610352</ele>
        <time>2021-05-23T12:23:25Z</time>
      </trkpt>
      <trkpt lat="48.23101" lon="7.16086">
        <ele>434</ele>
        <time>2021-05-23T12:23:26Z</time>
      </trkpt>
      <trkpt lat="48.2309" lon="7.16081">
        <ele>434.39999389648</ele>
        <time>2021-05-23T12:23:28Z</time>
      </trkpt>
      <trkpt lat="48.2308" lon="7.16074">
        <ele>435</ele>
        <time>2021-05-23T12:23:30Z</time>
      </trkpt>
      <trkpt lat="48.23076" lon="7.16069">
        <ele>435.39999389648</ele>
        <time>2021-05-23T12:23:31Z</time>
      </trkpt>
      <trkpt lat="48.23067" lon="7.16059">
        <ele>436</ele>
        <time>2021-05-23T12:23:33Z</time>
      </trkpt>
      <trkpt lat="48.23053" lon="7.16041">
        <ele>436.39999389648</ele>
        <time>2021-05-23T12:23:36Z</time>
      </trkpt>
      <trkpt lat="48.23044" lon="7.1603">
        <ele>436.60000610352</ele>
        <time>2021-05-23T12:23:38Z</time>
      </trkpt>
      <trkpt lat="48.23014" lon="7.15989">
        <ele>437.60000610352</ele>
        <time>2021-05-23T12:23:45Z</time>
      </trkpt>
      <trkpt lat="48.2301" lon="7.15982">
        <ele>437.79998779297</ele>
        <time>2021-05-23T12:23:46Z</time>
      </trkpt>
      <trkpt lat="48.23002" lon="7.15958">
        <ele>438.20001220703</ele>
        <time>2021-05-23T12:23:49Z</time>
      </trkpt>
      <trkpt lat="48.22996" lon="7.15918">
        <ele>438.79998779297</ele>
        <time>2021-05-23T12:23:54Z</time>
      </trkpt>
      <trkpt lat="48.22995" lon="7.15911">
        <ele>438.79998779297</ele>
        <time>2021-05-23T12:23:55Z</time>
      </trkpt>
      <trkpt lat="48.22994" lon="7.15899">
        <ele>439</ele>
        <time>2021-05-23T12:23:57Z</time>
      </trkpt>
      <trkpt lat="48.22992" lon="7.1588">
        <ele>439.39999389648</ele>
        <time>2021-05-23T12:24:01Z</time>
      </trkpt>
      <trkpt lat="48.22992" lon="7.15876">
        <ele>439.79998779297</ele>
        <time>2021-05-23T12:24:05Z</time>
      </trkpt>
      <trkpt lat="48.22992" lon="7.15869">
        <ele>440.20001220703</ele>
        <time>2021-05-23T12:24:16Z</time>
      </trkpt>
      <trkpt lat="48.22991" lon="7.1586">
        <ele>440</ele>
        <time>2021-05-23T12:24:18Z</time>
      </trkpt>
      <trkpt lat="48.22985" lon="7.15828">
        <ele>440</ele>
        <time>2021-05-23T12:24:23Z</time>
      </trkpt>
      <trkpt lat="48.22975" lon="7.15779">
        <ele>441</ele>
        <time>2021-05-23T12:24:30Z</time>
      </trkpt>
      <trkpt lat="48.22973" lon="7.15772">
        <ele>441.20001220703</ele>
        <time>2021-05-23T12:24:31Z</time>
      </trkpt>
      <trkpt lat="48.22968" lon="7.15738">
        <ele>442.39999389648</ele>
        <time>2021-05-23T12:24:36Z</time>
      </trkpt>
      <trkpt lat="48.22967" lon="7.15731">
        <ele>442.60000610352</ele>
        <time>2021-05-23T12:24:37Z</time>
      </trkpt>
      <trkpt lat="48.22966" lon="7.15724">
        <ele>442.79998779297</ele>
        <time>2021-05-23T12:24:38Z</time>
      </trkpt>
      <trkpt lat="48.22959" lon="7.15676">
        <ele>443.60000610352</ele>
        <time>2021-05-23T12:24:45Z</time>
      </trkpt>
      <trkpt lat="48.22954" lon="7.15638">
        <ele>444.60000610352</ele>
        <time>2021-05-23T12:24:50Z</time>
      </trkpt>
      <trkpt lat="48.22949" lon="7.15599">
        <ele>445.60000610352</ele>
        <time>2021-05-23T12:24:55Z</time>
      </trkpt>
      <trkpt lat="48.22948" lon="7.15592">
        <ele>445.60000610352</ele>
        <time>2021-05-23T12:24:56Z</time>
      </trkpt>
      <trkpt lat="48.22934" lon="7.15548">
        <ele>446.20001220703</ele>
        <time>2021-05-23T12:25:02Z</time>
      </trkpt>
      <trkpt lat="48.22931" lon="7.15542">
        <ele>446.39999389648</ele>
        <time>2021-05-23T12:25:04Z</time>
      </trkpt>
      <trkpt lat="48.22922" lon="7.15521">
        <ele>446.79998779297</ele>
        <time>2021-05-23T12:25:06Z</time>
      </trkpt>
      <trkpt lat="48.22908" lon="7.15489">
        <ele>448</ele>
        <time>2021-05-23T12:25:11Z</time>
      </trkpt>
      <trkpt lat="48.22891" lon="7.15451">
        <ele>449.20001220703</ele>
        <time>2021-05-23T12:25:17Z</time>
      </trkpt>
      <trkpt lat="48.22888" lon="7.15445">
        <ele>449.39999389648</ele>
        <time>2021-05-23T12:25:18Z</time>
      </trkpt>
      <trkpt lat="48.22885" lon="7.15439">
        <ele>449.60000610352</ele>
        <time>2021-05-23T12:25:19Z</time>
      </trkpt>
      <trkpt lat="48.22871" lon="7.15417">
        <ele>450.39999389648</ele>
        <time>2021-05-23T12:25:23Z</time>
      </trkpt>
      <trkpt lat="48.22854" lon="7.15394">
        <ele>451.39999389648</ele>
        <time>2021-05-23T12:25:27Z</time>
      </trkpt>
      <trkpt lat="48.2285" lon="7.15389">
        <ele>451.39999389648</ele>
        <time>2021-05-23T12:25:28Z</time>
      </trkpt>
      <trkpt lat="48.22828" lon="7.15361">
        <ele>452</ele>
        <time>2021-05-23T12:25:33Z</time>
      </trkpt>
      <trkpt lat="48.22819" lon="7.15349">
        <ele>452</ele>
        <time>2021-05-23T12:25:35Z</time>
      </trkpt>
      <trkpt lat="48.22811" lon="7.15338">
        <ele>452.79998779297</ele>
        <time>2021-05-23T12:25:37Z</time>
      </trkpt>
      <trkpt lat="48.22785" lon="7.15305">
        <ele>454</ele>
        <time>2021-05-23T12:25:43Z</time>
      </trkpt>
      <trkpt lat="48.22769" lon="7.15285">
        <ele>454.60000610352</ele>
        <time>2021-05-23T12:25:47Z</time>
      </trkpt>
      <trkpt lat="48.22757" lon="7.15269">
        <ele>455</ele>
        <time>2021-05-23T12:25:50Z</time>
      </trkpt>
      <trkpt lat="48.22733" lon="7.15238">
        <ele>455.60000610352</ele>
        <time>2021-05-23T12:25:56Z</time>
      </trkpt>
      <trkpt lat="48.22729" lon="7.15233">
        <ele>455.79998779297</ele>
        <time>2021-05-23T12:25:57Z</time>
      </trkpt>
      <trkpt lat="48.22722" lon="7.15222">
        <ele>456</ele>
        <time>2021-05-23T12:25:59Z</time>
      </trkpt>
      <trkpt lat="48.22718" lon="7.15217">
        <ele>456.20001220703</ele>
        <time>2021-05-23T12:26:00Z</time>
      </trkpt>
      <trkpt lat="48.22714" lon="7.15211">
        <ele>456.39999389648</ele>
        <time>2021-05-23T12:26:01Z</time>
      </trkpt>
      <trkpt lat="48.22695" lon="7.15184">
        <ele>457.39999389648</ele>
        <time>2021-05-23T12:26:06Z</time>
      </trkpt>
      <trkpt lat="48.22679" lon="7.15161">
        <ele>458.39999389648</ele>
        <time>2021-05-23T12:26:10Z</time>
      </trkpt>
      <trkpt lat="48.22675" lon="7.15155">
        <ele>458.60000610352</ele>
        <time>2021-05-23T12:26:11Z</time>
      </trkpt>
      <trkpt lat="48.22654" lon="7.15126">
        <ele>459.60000610352</ele>
        <time>2021-05-23T12:26:16Z</time>
      </trkpt>
      <trkpt lat="48.22634" lon="7.15101">
        <ele>460.39999389648</ele>
        <time>2021-05-23T12:26:21Z</time>
      </trkpt>
      <trkpt lat="48.2263" lon="7.15097">
        <ele>460.60000610352</ele>
        <time>2021-05-23T12:26:22Z</time>
      </trkpt>
      <trkpt lat="48.22625" lon="7.15092">
        <ele>460.79998779297</ele>
        <time>2021-05-23T12:26:23Z</time>
      </trkpt>
      <trkpt lat="48.22603" lon="7.15068">
        <ele>461.60000610352</ele>
        <time>2021-05-23T12:26:28Z</time>
      </trkpt>
      <trkpt lat="48.22595" lon="7.15059">
        <ele>461.79998779297</ele>
        <time>2021-05-23T12:26:30Z</time>
      </trkpt>
      <trkpt lat="48.22563" lon="7.15026">
        <ele>462.79998779297</ele>
        <time>2021-05-23T12:26:37Z</time>
      </trkpt>
      <trkpt lat="48.22559" lon="7.15021">
        <ele>463</ele>
        <time>2021-05-23T12:26:38Z</time>
      </trkpt>
      <trkpt lat="48.22531" lon="7.14998">
        <ele>464</ele>
        <time>2021-05-23T12:26:44Z</time>
      </trkpt>
      <trkpt lat="48.22526" lon="7.14994">
        <ele>464</ele>
        <time>2021-05-23T12:26:45Z</time>
      </trkpt>
      <trkpt lat="48.22496" lon="7.14975">
        <ele>465.20001220703</ele>
        <time>2021-05-23T12:26:51Z</time>
      </trkpt>
      <trkpt lat="48.22486" lon="7.14968">
        <ele>465.60000610352</ele>
        <time>2021-05-23T12:26:53Z</time>
      </trkpt>
      <trkpt lat="48.22476" lon="7.14961">
        <ele>465.79998779297</ele>
        <time>2021-05-23T12:26:55Z</time>
      </trkpt>
      <trkpt lat="48.22461" lon="7.14951">
        <ele>466</ele>
        <time>2021-05-23T12:26:58Z</time>
      </trkpt>
      <trkpt lat="48.22451" lon="7.14943">
        <ele>466.20001220703</ele>
        <time>2021-05-23T12:27:00Z</time>
      </trkpt>
      <trkpt lat="48.22436" lon="7.1493">
        <ele>466.60000610352</ele>
        <time>2021-05-23T12:27:03Z</time>
      </trkpt>
      <trkpt lat="48.22432" lon="7.14926">
        <ele>467</ele>
        <time>2021-05-23T12:27:04Z</time>
      </trkpt>
      <trkpt lat="48.22413" lon="7.1491">
        <ele>467.20001220703</ele>
        <time>2021-05-23T12:27:08Z</time>
      </trkpt>
      <trkpt lat="48.22408" lon="7.14905">
        <ele>467.39999389648</ele>
        <time>2021-05-23T12:27:09Z</time>
      </trkpt>
      <trkpt lat="48.224" lon="7.14896">
        <ele>467.60000610352</ele>
        <time>2021-05-23T12:27:11Z</time>
      </trkpt>
      <trkpt lat="48.22396" lon="7.14891">
        <ele>467.79998779297</ele>
        <time>2021-05-23T12:27:12Z</time>
      </trkpt>
      <trkpt lat="48.22387" lon="7.14872">
        <ele>468.20001220703</ele>
        <time>2021-05-23T12:27:15Z</time>
      </trkpt>
      <trkpt lat="48.22385" lon="7.14866">
        <ele>468.60000610352</ele>
        <time>2021-05-23T12:27:16Z</time>
      </trkpt>
      <trkpt lat="48.2238" lon="7.14852">
        <ele>468.79998779297</ele>
        <time>2021-05-23T12:27:18Z</time>
      </trkpt>
      <trkpt lat="48.22377" lon="7.14844">
        <ele>469</ele>
        <time>2021-05-23T12:27:19Z</time>
      </trkpt>
      <trkpt lat="48.22375" lon="7.14837">
        <ele>469</ele>
        <time>2021-05-23T12:27:20Z</time>
      </trkpt>
      <trkpt lat="48.2237" lon="7.14823">
        <ele>469.60000610352</ele>
        <time>2021-05-23T12:27:22Z</time>
      </trkpt>
      <trkpt lat="48.22356" lon="7.14788">
        <ele>470.39999389648</ele>
        <time>2021-05-23T12:27:27Z</time>
      </trkpt>
      <trkpt lat="48.22347" lon="7.14768">
        <ele>470.79998779297</ele>
        <time>2021-05-23T12:27:30Z</time>
      </trkpt>
      <trkpt lat="48.22335" lon="7.14748">
        <ele>471</ele>
        <time>2021-05-23T12:27:33Z</time>
      </trkpt>
      <trkpt lat="48.22308" lon="7.14706">
        <ele>471.79998779297</ele>
        <time>2021-05-23T12:27:40Z</time>
      </trkpt>
      <trkpt lat="48.22292" lon="7.14685">
        <ele>472.60000610352</ele>
        <time>2021-05-23T12:27:44Z</time>
      </trkpt>
      <trkpt lat="48.22288" lon="7.14681">
        <ele>472.60000610352</ele>
        <time>2021-05-23T12:27:45Z</time>
      </trkpt>
      <trkpt lat="48.22283" lon="7.14677">
        <ele>472.79998779297</ele>
        <time>2021-05-23T12:27:46Z</time>
      </trkpt>
      <trkpt lat="48.22278" lon="7.14675">
        <ele>473</ele>
        <time>2021-05-23T12:27:47Z</time>
      </trkpt>
      <trkpt lat="48.22273" lon="7.14673">
        <ele>473.20001220703</ele>
        <time>2021-05-23T12:27:48Z</time>
      </trkpt>
      <trkpt lat="48.22253" lon="7.1467">
        <ele>474</ele>
        <time>2021-05-23T12:27:52Z</time>
      </trkpt>
      <trkpt lat="48.22249" lon="7.14668">
        <ele>474.39999389648</ele>
        <time>2021-05-23T12:27:53Z</time>
      </trkpt>
      <trkpt lat="48.2224" lon="7.14665">
        <ele>475.20001220703</ele>
        <time>2021-05-23T12:27:55Z</time>
      </trkpt>
      <trkpt lat="48.22235" lon="7.14662">
        <ele>475.39999389648</ele>
        <time>2021-05-23T12:27:56Z</time>
      </trkpt>
      <trkpt lat="48.22224" lon="7.14652">
        <ele>476</ele>
        <time>2021-05-23T12:27:59Z</time>
      </trkpt>
      <trkpt lat="48.22221" lon="7.14648">
        <ele>476.60000610352</ele>
        <time>2021-05-23T12:28:00Z</time>
      </trkpt>
      <trkpt lat="48.22218" lon="7.14644">
        <ele>477</ele>
        <time>2021-05-23T12:28:01Z</time>
      </trkpt>
      <trkpt lat="48.22215" lon="7.14639">
        <ele>477.60000610352</ele>
        <time>2021-05-23T12:28:02Z</time>
      </trkpt>
      <trkpt lat="48.22207" lon="7.14623">
        <ele>478.60000610352</ele>
        <time>2021-05-23T12:28:05Z</time>
      </trkpt>
      <trkpt lat="48.22196" lon="7.14603">
        <ele>479.60000610352</ele>
        <time>2021-05-23T12:28:09Z</time>
      </trkpt>
      <trkpt lat="48.22194" lon="7.14598">
        <ele>480.20001220703</ele>
        <time>2021-05-23T12:28:10Z</time>
      </trkpt>
      <trkpt lat="48.22188" lon="7.14587">
        <ele>481</ele>
        <time>2021-05-23T12:28:12Z</time>
      </trkpt>
      <trkpt lat="48.22178" lon="7.14569">
        <ele>482</ele>
        <time>2021-05-23T12:28:16Z</time>
      </trkpt>
      <trkpt lat="48.22176" lon="7.14565">
        <ele>482.20001220703</ele>
        <time>2021-05-23T12:28:17Z</time>
      </trkpt>
      <trkpt lat="48.22166" lon="7.14549">
        <ele>483.39999389648</ele>
        <time>2021-05-23T12:28:21Z</time>
      </trkpt>
      <trkpt lat="48.2216" lon="7.14541">
        <ele>484</ele>
        <time>2021-05-23T12:28:23Z</time>
      </trkpt>
      <trkpt lat="48.22157" lon="7.14538">
        <ele>484.20001220703</ele>
        <time>2021-05-23T12:28:24Z</time>
      </trkpt>
      <trkpt lat="48.22155" lon="7.14535">
        <ele>484.39999389648</ele>
        <time>2021-05-23T12:28:25Z</time>
      </trkpt>
      <trkpt lat="48.22142" lon="7.14523">
        <ele>485.79998779297</ele>
        <time>2021-05-23T12:28:30Z</time>
      </trkpt>
      <trkpt lat="48.22118" lon="7.14506">
        <ele>486.79998779297</ele>
        <time>2021-05-23T12:28:38Z</time>
      </trkpt>
      <trkpt lat="48.22099" lon="7.14491">
        <ele>488</ele>
        <time>2021-05-23T12:28:44Z</time>
      </trkpt>
      <trkpt lat="48.22089" lon="7.14485">
        <ele>488.60000610352</ele>
        <time>2021-05-23T12:28:47Z</time>
      </trkpt>
      <trkpt lat="48.22083" lon="7.14481">
        <ele>489</ele>
        <time>2021-05-23T12:28:49Z</time>
      </trkpt>
      <trkpt lat="48.22066" lon="7.1447">
        <ele>490.20001220703</ele>
        <time>2021-05-23T12:28:54Z</time>
      </trkpt>
      <trkpt lat="48.22049" lon="7.14458">
        <ele>491.20001220703</ele>
        <time>2021-05-23T12:28:59Z</time>
      </trkpt>
      <trkpt lat="48.22031" lon="7.14447">
        <ele>492.20001220703</ele>
        <time>2021-05-23T12:29:04Z</time>
      </trkpt>
      <trkpt lat="48.22021" lon="7.1444">
        <ele>492.79998779297</ele>
        <time>2021-05-23T12:29:07Z</time>
      </trkpt>
      <trkpt lat="48.22014" lon="7.14437">
        <ele>493.20001220703</ele>
        <time>2021-05-23T12:29:09Z</time>
      </trkpt>
      <trkpt lat="48.2201" lon="7.14435">
        <ele>493.60000610352</ele>
        <time>2021-05-23T12:29:10Z</time>
      </trkpt>
      <trkpt lat="48.21996" lon="7.1443">
        <ele>494.20001220703</ele>
        <time>2021-05-23T12:29:14Z</time>
      </trkpt>
      <trkpt lat="48.2198" lon="7.14427">
        <ele>495</ele>
        <time>2021-05-23T12:29:18Z</time>
      </trkpt>
      <trkpt lat="48.21967" lon="7.14424">
        <ele>495.39999389648</ele>
        <time>2021-05-23T12:29:21Z</time>
      </trkpt>
      <trkpt lat="48.21955" lon="7.14419">
        <ele>496.79998779297</ele>
        <time>2021-05-23T12:29:24Z</time>
      </trkpt>
      <trkpt lat="48.21949" lon="7.14414">
        <ele>497</ele>
        <time>2021-05-23T12:29:26Z</time>
      </trkpt>
      <trkpt lat="48.21936" lon="7.14402">
        <ele>497.79998779297</ele>
        <time>2021-05-23T12:29:30Z</time>
      </trkpt>
      <trkpt lat="48.21924" lon="7.14387">
        <ele>498.79998779297</ele>
        <time>2021-05-23T12:29:34Z</time>
      </trkpt>
      <trkpt lat="48.21907" lon="7.14362">
        <ele>499.79998779297</ele>
        <time>2021-05-23T12:29:40Z</time>
      </trkpt>
      <trkpt lat="48.21905" lon="7.14358">
        <ele>500</ele>
        <time>2021-05-23T12:29:41Z</time>
      </trkpt>
      <trkpt lat="48.21889" lon="7.14333">
        <ele>501</ele>
        <time>2021-05-23T12:29:47Z</time>
      </trkpt>
      <trkpt lat="48.21882" lon="7.14325">
        <ele>501.20001220703</ele>
        <time>2021-05-23T12:29:49Z</time>
      </trkpt>
      <trkpt lat="48.21869" lon="7.14309">
        <ele>502</ele>
        <time>2021-05-23T12:29:53Z</time>
      </trkpt>
      <trkpt lat="48.21865" lon="7.14305">
        <ele>502.20001220703</ele>
        <time>2021-05-23T12:29:54Z</time>
      </trkpt>
      <trkpt lat="48.21858" lon="7.14298">
        <ele>502.60000610352</ele>
        <time>2021-05-23T12:29:56Z</time>
      </trkpt>
      <trkpt lat="48.2185" lon="7.14292">
        <ele>502.60000610352</ele>
        <time>2021-05-23T12:29:58Z</time>
      </trkpt>
      <trkpt lat="48.21846" lon="7.14289">
        <ele>502.79998779297</ele>
        <time>2021-05-23T12:29:59Z</time>
      </trkpt>
      <trkpt lat="48.21822" lon="7.14272">
        <ele>503</ele>
        <time>2021-05-23T12:30:04Z</time>
      </trkpt>
      <trkpt lat="48.21791" lon="7.14238">
        <ele>502.60000610352</ele>
        <time>2021-05-23T12:30:11Z</time>
      </trkpt>
      <trkpt lat="48.21761" lon="7.1419">
        <ele>503</ele>
        <time>2021-05-23T12:30:19Z</time>
      </trkpt>
      <trkpt lat="48.21755" lon="7.14177">
        <ele>503.39999389648</ele>
        <time>2021-05-23T12:30:21Z</time>
      </trkpt>
      <trkpt lat="48.21735" lon="7.1414">
        <ele>503.79998779297</ele>
        <time>2021-05-23T12:30:27Z</time>
      </trkpt>
      <trkpt lat="48.21717" lon="7.14111">
        <ele>504.39999389648</ele>
        <time>2021-05-23T12:30:32Z</time>
      </trkpt>
      <trkpt lat="48.21713" lon="7.14106">
        <ele>504.60000610352</ele>
        <time>2021-05-23T12:30:33Z</time>
      </trkpt>
      <trkpt lat="48.21706" lon="7.14098">
        <ele>504.79998779297</ele>
        <time>2021-05-23T12:30:35Z</time>
      </trkpt>
      <trkpt lat="48.21691" lon="7.14086">
        <ele>505.39999389648</ele>
        <time>2021-05-23T12:30:38Z</time>
      </trkpt>
      <trkpt lat="48.21687" lon="7.14083">
        <ele>505.60000610352</ele>
        <time>2021-05-23T12:30:39Z</time>
      </trkpt>
      <trkpt lat="48.2167" lon="7.14072">
        <ele>506.60000610352</ele>
        <time>2021-05-23T12:30:43Z</time>
      </trkpt>
      <trkpt lat="48.21666" lon="7.14071">
        <ele>507</ele>
        <time>2021-05-23T12:30:44Z</time>
      </trkpt>
      <trkpt lat="48.21649" lon="7.14067">
        <ele>507.60000610352</ele>
        <time>2021-05-23T12:30:48Z</time>
      </trkpt>
      <trkpt lat="48.21635" lon="7.14065">
        <ele>508.20001220703</ele>
        <time>2021-05-23T12:30:51Z</time>
      </trkpt>
      <trkpt lat="48.21606" lon="7.14057">
        <ele>509.20001220703</ele>
        <time>2021-05-23T12:30:58Z</time>
      </trkpt>
      <trkpt lat="48.21602" lon="7.14055">
        <ele>509.39999389648</ele>
        <time>2021-05-23T12:30:59Z</time>
      </trkpt>
      <trkpt lat="48.2158" lon="7.14047">
        <ele>510.39999389648</ele>
        <time>2021-05-23T12:31:05Z</time>
      </trkpt>
      <trkpt lat="48.21573" lon="7.14042">
        <ele>511.20001220703</ele>
        <time>2021-05-23T12:31:07Z</time>
      </trkpt>
      <trkpt lat="48.21566" lon="7.14036">
        <ele>511.60000610352</ele>
        <time>2021-05-23T12:31:09Z</time>
      </trkpt>
      <trkpt lat="48.21551" lon="7.14022">
        <ele>512.40002441406</ele>
        <time>2021-05-23T12:31:14Z</time>
      </trkpt>
      <trkpt lat="48.21546" lon="7.14016">
        <ele>512.59997558594</ele>
        <time>2021-05-23T12:31:16Z</time>
      </trkpt>
      <trkpt lat="48.21539" lon="7.14008">
        <ele>513</ele>
        <time>2021-05-23T12:31:19Z</time>
      </trkpt>
      <trkpt lat="48.21533" lon="7.13999">
        <ele>513.79998779297</ele>
        <time>2021-05-23T12:31:22Z</time>
      </trkpt>
      <trkpt lat="48.21524" lon="7.13985">
        <ele>515.40002441406</ele>
        <time>2021-05-23T12:31:26Z</time>
      </trkpt>
      <trkpt lat="48.21511" lon="7.13963">
        <ele>516.40002441406</ele>
        <time>2021-05-23T12:31:32Z</time>
      </trkpt>
      <trkpt lat="48.21506" lon="7.1395">
        <ele>517</ele>
        <time>2021-05-23T12:31:35Z</time>
      </trkpt>
      <trkpt lat="48.21498" lon="7.13939">
        <ele>517.59997558594</ele>
        <time>2021-05-23T12:31:38Z</time>
      </trkpt>
      <trkpt lat="48.21485" lon="7.13914">
        <ele>518.79998779297</ele>
        <time>2021-05-23T12:31:44Z</time>
      </trkpt>
      <trkpt lat="48.21475" lon="7.13893">
        <ele>519.79998779297</ele>
        <time>2021-05-23T12:31:49Z</time>
      </trkpt>
      <trkpt lat="48.21468" lon="7.13878">
        <ele>520.40002441406</ele>
        <time>2021-05-23T12:31:53Z</time>
      </trkpt>
      <trkpt lat="48.21465" lon="7.1387">
        <ele>521</ele>
        <time>2021-05-23T12:31:55Z</time>
      </trkpt>
      <trkpt lat="48.21456" lon="7.1385">
        <ele>522</ele>
        <time>2021-05-23T12:32:00Z</time>
      </trkpt>
      <trkpt lat="48.21453" lon="7.13838">
        <ele>522.79998779297</ele>
        <time>2021-05-23T12:32:03Z</time>
      </trkpt>
      <trkpt lat="48.21451" lon="7.13834">
        <ele>523.20001220703</ele>
        <time>2021-05-23T12:32:04Z</time>
      </trkpt>
      <trkpt lat="48.21444" lon="7.13815">
        <ele>524.40002441406</ele>
        <time>2021-05-23T12:32:09Z</time>
      </trkpt>
      <trkpt lat="48.21441" lon="7.13808">
        <ele>524.79998779297</ele>
        <time>2021-05-23T12:32:11Z</time>
      </trkpt>
      <trkpt lat="48.2144" lon="7.13805">
        <ele>525</ele>
        <time>2021-05-23T12:32:12Z</time>
      </trkpt>
      <trkpt lat="48.21437" lon="7.13799">
        <ele>525.40002441406</ele>
        <time>2021-05-23T12:32:14Z</time>
      </trkpt>
      <trkpt lat="48.21429" lon="7.13786">
        <ele>526.20001220703</ele>
        <time>2021-05-23T12:32:18Z</time>
      </trkpt>
      <trkpt lat="48.21427" lon="7.13783">
        <ele>526.40002441406</ele>
        <time>2021-05-23T12:32:19Z</time>
      </trkpt>
      <trkpt lat="48.21418" lon="7.1377">
        <ele>527.59997558594</ele>
        <time>2021-05-23T12:32:23Z</time>
      </trkpt>
      <trkpt lat="48.21412" lon="7.13761">
        <ele>528.20001220703</ele>
        <time>2021-05-23T12:32:26Z</time>
      </trkpt>
      <trkpt lat="48.21408" lon="7.13755">
        <ele>528.59997558594</ele>
        <time>2021-05-23T12:32:28Z</time>
      </trkpt>
      <trkpt lat="48.21392" lon="7.13725">
        <ele>529.59997558594</ele>
        <time>2021-05-23T12:32:36Z</time>
      </trkpt>
      <trkpt lat="48.2139" lon="7.13721">
        <ele>529.79998779297</ele>
        <time>2021-05-23T12:32:37Z</time>
      </trkpt>
      <trkpt lat="48.21385" lon="7.13699">
        <ele>530.79998779297</ele>
        <time>2021-05-23T12:32:42Z</time>
      </trkpt>
      <trkpt lat="48.21382" lon="7.13681">
        <ele>531.59997558594</ele>
        <time>2021-05-23T12:32:46Z</time>
      </trkpt>
      <trkpt lat="48.21382" lon="7.13673">
        <ele>531.79998779297</ele>
        <time>2021-05-23T12:32:48Z</time>
      </trkpt>
      <trkpt lat="48.21381" lon="7.13648">
        <ele>532.79998779297</ele>
        <time>2021-05-23T12:32:54Z</time>
      </trkpt>
      <trkpt lat="48.2138" lon="7.13643">
        <ele>533</ele>
        <time>2021-05-23T12:32:55Z</time>
      </trkpt>
      <trkpt lat="48.21374" lon="7.13614">
        <ele>534</ele>
        <time>2021-05-23T12:33:02Z</time>
      </trkpt>
      <trkpt lat="48.21373" lon="7.13611">
        <ele>534.20001220703</ele>
        <time>2021-05-23T12:33:03Z</time>
      </trkpt>
      <trkpt lat="48.21367" lon="7.13596">
        <ele>534.79998779297</ele>
        <time>2021-05-23T12:33:09Z</time>
      </trkpt>
      <trkpt lat="48.2136" lon="7.13587">
        <ele>535.20001220703</ele>
        <time>2021-05-23T12:33:14Z</time>
      </trkpt>
      <trkpt lat="48.21358" lon="7.13586">
        <ele>535.20001220703</ele>
        <time>2021-05-23T12:33:16Z</time>
      </trkpt>
      <trkpt lat="48.21358" lon="7.13594">
        <ele>535.20001220703</ele>
        <time>2021-05-23T12:33:20Z</time>
      </trkpt>
      <trkpt lat="48.21358" lon="7.13599">
        <ele>535.20001220703</ele>
        <time>2021-05-23T12:33:22Z</time>
      </trkpt>
      <trkpt lat="48.21354" lon="7.13606">
        <ele>535</ele>
        <time>2021-05-23T12:33:25Z</time>
      </trkpt>
      <trkpt lat="48.2135" lon="7.13617">
        <ele>534.20001220703</ele>
        <time>2021-05-23T12:33:31Z</time>
      </trkpt>
      <trkpt lat="48.21349" lon="7.13618">
        <ele>533.79998779297</ele>
        <time>2021-05-23T12:33:32Z</time>
      </trkpt>
      <trkpt lat="48.21344" lon="7.13625">
        <ele>533</ele>
        <time>2021-05-23T12:33:35Z</time>
      </trkpt>
      <trkpt lat="48.2134" lon="7.13631">
        <ele>532.79998779297</ele>
        <time>2021-05-23T12:33:37Z</time>
      </trkpt>
      <trkpt lat="48.21337" lon="7.13642">
        <ele>531.79998779297</ele>
        <time>2021-05-23T12:33:41Z</time>
      </trkpt>
      <trkpt lat="48.21339" lon="7.13655">
        <ele>531.40002441406</ele>
        <time>2021-05-23T12:33:46Z</time>
      </trkpt>
      <trkpt lat="48.21344" lon="7.13668">
        <ele>531.20001220703</ele>
        <time>2021-05-23T12:33:50Z</time>
      </trkpt>
      <trkpt lat="48.21349" lon="7.13677">
        <ele>531.20001220703</ele>
        <time>2021-05-23T12:33:53Z</time>
      </trkpt>
      <trkpt lat="48.21354" lon="7.13694">
        <ele>531.20001220703</ele>
        <time>2021-05-23T12:33:59Z</time>
      </trkpt>
      <trkpt lat="48.21354" lon="7.13696">
        <ele>531</ele>
        <time>2021-05-23T12:34:03Z</time>
      </trkpt>
      <trkpt lat="48.21354" lon="7.13687">
        <ele>532</ele>
        <time>2021-05-23T12:40:08Z</time>
      </trkpt>
      <trkpt lat="48.21348" lon="7.13672">
        <ele>532</ele>
        <time>2021-05-23T12:40:13Z</time>
      </trkpt>
      <trkpt lat="48.21347" lon="7.13651">
        <ele>532</ele>
        <time>2021-05-23T12:40:18Z</time>
      </trkpt>
      <trkpt lat="48.21356" lon="7.13628">
        <ele>532.20001220703</ele>
        <time>2021-05-23T12:40:23Z</time>
      </trkpt>
      <trkpt lat="48.21361" lon="7.13611">
        <ele>532.40002441406</ele>
        <time>2021-05-23T12:40:27Z</time>
      </trkpt>
      <trkpt lat="48.21365" lon="7.13599">
        <ele>533</ele>
        <time>2021-05-23T12:40:30Z</time>
      </trkpt>
      <trkpt lat="48.21365" lon="7.13595">
        <ele>533.40002441406</ele>
        <time>2021-05-23T12:40:31Z</time>
      </trkpt>
      <trkpt lat="48.21364" lon="7.13591">
        <ele>533.40002441406</ele>
        <time>2021-05-23T12:40:32Z</time>
      </trkpt>
      <trkpt lat="48.21362" lon="7.13588">
        <ele>534</ele>
        <time>2021-05-23T12:40:33Z</time>
      </trkpt>
      <trkpt lat="48.21357" lon="7.13582">
        <ele>534.59997558594</ele>
        <time>2021-05-23T12:40:35Z</time>
      </trkpt>
      <trkpt lat="48.21345" lon="7.1357">
        <ele>535.40002441406</ele>
        <time>2021-05-23T12:40:40Z</time>
      </trkpt>
      <trkpt lat="48.21336" lon="7.13561">
        <ele>535.79998779297</ele>
        <time>2021-05-23T12:40:44Z</time>
      </trkpt>
      <trkpt lat="48.21327" lon="7.13551">
        <ele>536.40002441406</ele>
        <time>2021-05-23T12:40:48Z</time>
      </trkpt>
      <trkpt lat="48.2132" lon="7.13543">
        <ele>536.79998779297</ele>
        <time>2021-05-23T12:40:51Z</time>
      </trkpt>
      <trkpt lat="48.21304" lon="7.13528">
        <ele>537.79998779297</ele>
        <time>2021-05-23T12:40:58Z</time>
      </trkpt>
      <trkpt lat="48.21302" lon="7.13526">
        <ele>538</ele>
        <time>2021-05-23T12:40:59Z</time>
      </trkpt>
      <trkpt lat="48.21282" lon="7.13515">
        <ele>539</ele>
        <time>2021-05-23T12:41:06Z</time>
      </trkpt>
      <trkpt lat="48.21279" lon="7.13514">
        <ele>539.20001220703</ele>
        <time>2021-05-23T12:41:07Z</time>
      </trkpt>
      <trkpt lat="48.21267" lon="7.13507">
        <ele>540.20001220703</ele>
        <time>2021-05-23T12:41:12Z</time>
      </trkpt>
      <trkpt lat="48.21261" lon="7.13501">
        <ele>540.79998779297</ele>
        <time>2021-05-23T12:41:15Z</time>
      </trkpt>
      <trkpt lat="48.21257" lon="7.13498">
        <ele>541.40002441406</ele>
        <time>2021-05-23T12:41:17Z</time>
      </trkpt>
      <trkpt lat="48.21244" lon="7.13484">
        <ele>542.59997558594</ele>
        <time>2021-05-23T12:41:23Z</time>
      </trkpt>
      <trkpt lat="48.21235" lon="7.13472">
        <ele>543.40002441406</ele>
        <time>2021-05-23T12:41:27Z</time>
      </trkpt>
      <trkpt lat="48.21233" lon="7.13468">
        <ele>543.59997558594</ele>
        <time>2021-05-23T12:41:28Z</time>
      </trkpt>
      <trkpt lat="48.21221" lon="7.13451">
        <ele>544.79998779297</ele>
        <time>2021-05-23T12:41:34Z</time>
      </trkpt>
      <trkpt lat="48.21215" lon="7.13442">
        <ele>545.40002441406</ele>
        <time>2021-05-23T12:41:37Z</time>
      </trkpt>
      <trkpt lat="48.21208" lon="7.13433">
        <ele>545.79998779297</ele>
        <time>2021-05-23T12:41:40Z</time>
      </trkpt>
      <trkpt lat="48.21195" lon="7.1342">
        <ele>547</ele>
        <time>2021-05-23T12:41:45Z</time>
      </trkpt>
      <trkpt lat="48.21192" lon="7.13418">
        <ele>547</ele>
        <time>2021-05-23T12:41:46Z</time>
      </trkpt>
      <trkpt lat="48.21166" lon="7.13398">
        <ele>548</ele>
        <time>2021-05-23T12:41:55Z</time>
      </trkpt>
      <trkpt lat="48.21159" lon="7.13393">
        <ele>548.20001220703</ele>
        <time>2021-05-23T12:41:57Z</time>
      </trkpt>
      <trkpt lat="48.21135" lon="7.13381">
        <ele>548.79998779297</ele>
        <time>2021-05-23T12:42:04Z</time>
      </trkpt>
      <trkpt lat="48.21117" lon="7.13377">
        <ele>549.20001220703</ele>
        <time>2021-05-23T12:42:09Z</time>
      </trkpt>
      <trkpt lat="48.2111" lon="7.13376">
        <ele>549.40002441406</ele>
        <time>2021-05-23T12:42:11Z</time>
      </trkpt>
      <trkpt lat="48.21086" lon="7.13381">
        <ele>550.20001220703</ele>
        <time>2021-05-23T12:42:18Z</time>
      </trkpt>
      <trkpt lat="48.2108" lon="7.13383">
        <ele>550.59997558594</ele>
        <time>2021-05-23T12:42:20Z</time>
      </trkpt>
      <trkpt lat="48.21061" lon="7.13387">
        <ele>551.59997558594</ele>
        <time>2021-05-23T12:42:26Z</time>
      </trkpt>
      <trkpt lat="48.21054" lon="7.13386">
        <ele>551.79998779297</ele>
        <time>2021-05-23T12:42:28Z</time>
      </trkpt>
      <trkpt lat="48.21043" lon="7.13384">
        <ele>552.59997558594</ele>
        <time>2021-05-23T12:42:32Z</time>
      </trkpt>
      <trkpt lat="48.21037" lon="7.13382">
        <ele>552.79998779297</ele>
        <time>2021-05-23T12:42:34Z</time>
      </trkpt>
      <trkpt lat="48.21035" lon="7.13381">
        <ele>552.79998779297</ele>
        <time>2021-05-23T12:42:35Z</time>
      </trkpt>
      <trkpt lat="48.21022" lon="7.1337">
        <ele>553.59997558594</ele>
        <time>2021-05-23T12:42:40Z</time>
      </trkpt>
      <trkpt lat="48.2102" lon="7.13367">
        <ele>553.59997558594</ele>
        <time>2021-05-23T12:42:41Z</time>
      </trkpt>
      <trkpt lat="48.21003" lon="7.13349">
        <ele>554.40002441406</ele>
        <time>2021-05-23T12:42:47Z</time>
      </trkpt>
      <trkpt lat="48.21" lon="7.13346">
        <ele>554.59997558594</ele>
        <time>2021-05-23T12:42:48Z</time>
      </trkpt>
      <trkpt lat="48.20979" lon="7.13326">
        <ele>555.40002441406</ele>
        <time>2021-05-23T12:42:55Z</time>
      </trkpt>
      <trkpt lat="48.2097" lon="7.13316">
        <ele>555.79998779297</ele>
        <time>2021-05-23T12:42:58Z</time>
      </trkpt>
      <trkpt lat="48.20947" lon="7.13296">
        <ele>556.20001220703</ele>
        <time>2021-05-23T12:43:05Z</time>
      </trkpt>
      <trkpt lat="48.20926" lon="7.13277">
        <ele>556.40002441406</ele>
        <time>2021-05-23T12:43:11Z</time>
      </trkpt>
      <trkpt lat="48.20906" lon="7.13248">
        <ele>557</ele>
        <time>2021-05-23T12:43:18Z</time>
      </trkpt>
      <trkpt lat="48.20893" lon="7.13225">
        <ele>557.20001220703</ele>
        <time>2021-05-23T12:43:24Z</time>
      </trkpt>
      <trkpt lat="48.20892" lon="7.1322">
        <ele>557.40002441406</ele>
        <time>2021-05-23T12:43:25Z</time>
      </trkpt>
      <trkpt lat="48.20884" lon="7.13199">
        <ele>558.59997558594</ele>
        <time>2021-05-23T12:43:30Z</time>
      </trkpt>
      <trkpt lat="48.20883" lon="7.13193">
        <ele>558.79998779297</ele>
        <time>2021-05-23T12:43:32Z</time>
      </trkpt>
      <trkpt lat="48.20883" lon="7.13189">
        <ele>559.20001220703</ele>
        <time>2021-05-23T12:43:34Z</time>
      </trkpt>
      <trkpt lat="48.20882" lon="7.13186">
        <ele>559.59997558594</ele>
        <time>2021-05-23T12:43:35Z</time>
      </trkpt>
      <trkpt lat="48.20882" lon="7.13183">
        <ele>560.20001220703</ele>
        <time>2021-05-23T12:43:36Z</time>
      </trkpt>
      <trkpt lat="48.20882" lon="7.1318">
        <ele>560.59997558594</ele>
        <time>2021-05-23T12:43:37Z</time>
      </trkpt>
      <trkpt lat="48.20882" lon="7.13176">
        <ele>560.79998779297</ele>
        <time>2021-05-23T12:43:38Z</time>
      </trkpt>
      <trkpt lat="48.20877" lon="7.13152">
        <ele>561.79998779297</ele>
        <time>2021-05-23T12:43:44Z</time>
      </trkpt>
      <trkpt lat="48.20874" lon="7.13134">
        <ele>563</ele>
        <time>2021-05-23T12:43:48Z</time>
      </trkpt>
      <trkpt lat="48.2087" lon="7.13121">
        <ele>564</ele>
        <time>2021-05-23T12:43:51Z</time>
      </trkpt>
      <trkpt lat="48.20866" lon="7.13112">
        <ele>564.20001220703</ele>
        <time>2021-05-23T12:43:53Z</time>
      </trkpt>
      <trkpt lat="48.20859" lon="7.13087">
        <ele>565.20001220703</ele>
        <time>2021-05-23T12:43:58Z</time>
      </trkpt>
      <trkpt lat="48.20858" lon="7.13077">
        <ele>565.40002441406</ele>
        <time>2021-05-23T12:44:00Z</time>
      </trkpt>
      <trkpt lat="48.20853" lon="7.13064">
        <ele>565.79998779297</ele>
        <time>2021-05-23T12:44:03Z</time>
      </trkpt>
      <trkpt lat="48.20851" lon="7.1306">
        <ele>566.20001220703</ele>
        <time>2021-05-23T12:44:04Z</time>
      </trkpt>
      <trkpt lat="48.20849" lon="7.13056">
        <ele>566.40002441406</ele>
        <time>2021-05-23T12:44:05Z</time>
      </trkpt>
      <trkpt lat="48.20834" lon="7.13026">
        <ele>567.20001220703</ele>
        <time>2021-05-23T12:44:13Z</time>
      </trkpt>
      <trkpt lat="48.2083" lon="7.13018">
        <ele>567.59997558594</ele>
        <time>2021-05-23T12:44:15Z</time>
      </trkpt>
      <trkpt lat="48.2082" lon="7.13">
        <ele>568.59997558594</ele>
        <time>2021-05-23T12:44:20Z</time>
      </trkpt>
      <trkpt lat="48.20816" lon="7.12993">
        <ele>568.79998779297</ele>
        <time>2021-05-23T12:44:22Z</time>
      </trkpt>
      <trkpt lat="48.20805" lon="7.12976">
        <ele>569.59997558594</ele>
        <time>2021-05-23T12:44:27Z</time>
      </trkpt>
      <trkpt lat="48.20797" lon="7.12967">
        <ele>570</ele>
        <time>2021-05-23T12:44:30Z</time>
      </trkpt>
      <trkpt lat="48.20794" lon="7.12964">
        <ele>570.20001220703</ele>
        <time>2021-05-23T12:44:31Z</time>
      </trkpt>
      <trkpt lat="48.20788" lon="7.12956">
        <ele>570.79998779297</ele>
        <time>2021-05-23T12:44:34Z</time>
      </trkpt>
      <trkpt lat="48.20771" lon="7.12939">
        <ele>572</ele>
        <time>2021-05-23T12:44:41Z</time>
      </trkpt>
      <trkpt lat="48.20752" lon="7.12919">
        <ele>573.20001220703</ele>
        <time>2021-05-23T12:44:49Z</time>
      </trkpt>
      <trkpt lat="48.20738" lon="7.12904">
        <ele>574.20001220703</ele>
        <time>2021-05-23T12:44:55Z</time>
      </trkpt>
      <trkpt lat="48.2073" lon="7.12896">
        <ele>574.59997558594</ele>
        <time>2021-05-23T12:44:58Z</time>
      </trkpt>
      <trkpt lat="48.20723" lon="7.12888">
        <ele>575.20001220703</ele>
        <time>2021-05-23T12:45:01Z</time>
      </trkpt>
      <trkpt lat="48.20721" lon="7.12885">
        <ele>575.40002441406</ele>
        <time>2021-05-23T12:45:02Z</time>
      </trkpt>
      <trkpt lat="48.20706" lon="7.12864">
        <ele>576.79998779297</ele>
        <time>2021-05-23T12:45:09Z</time>
      </trkpt>
      <trkpt lat="48.20697" lon="7.12852">
        <ele>578</ele>
        <time>2021-05-23T12:45:13Z</time>
      </trkpt>
      <trkpt lat="48.20686" lon="7.1284">
        <ele>578.79998779297</ele>
        <time>2021-05-23T12:45:18Z</time>
      </trkpt>
      <trkpt lat="48.20683" lon="7.12837">
        <ele>579</ele>
        <time>2021-05-23T12:45:19Z</time>
      </trkpt>
      <trkpt lat="48.20674" lon="7.12827">
        <ele>580</ele>
        <time>2021-05-23T12:45:23Z</time>
      </trkpt>
      <trkpt lat="48.20665" lon="7.12818">
        <ele>580.79998779297</ele>
        <time>2021-05-23T12:45:27Z</time>
      </trkpt>
      <trkpt lat="48.20658" lon="7.12812">
        <ele>581.40002441406</ele>
        <time>2021-05-23T12:45:30Z</time>
      </trkpt>
      <trkpt lat="48.20653" lon="7.12808">
        <ele>581.79998779297</ele>
        <time>2021-05-23T12:45:32Z</time>
      </trkpt>
      <trkpt lat="48.20646" lon="7.12802">
        <ele>582</ele>
        <time>2021-05-23T12:45:35Z</time>
      </trkpt>
      <trkpt lat="48.20644" lon="7.12799">
        <ele>582.40002441406</ele>
        <time>2021-05-23T12:45:36Z</time>
      </trkpt>
      <trkpt lat="48.20636" lon="7.12792">
        <ele>583.40002441406</ele>
        <time>2021-05-23T12:45:40Z</time>
      </trkpt>
      <trkpt lat="48.20627" lon="7.12783">
        <ele>584.59997558594</ele>
        <time>2021-05-23T12:45:44Z</time>
      </trkpt>
      <trkpt lat="48.20623" lon="7.12778">
        <ele>585</ele>
        <time>2021-05-23T12:45:46Z</time>
      </trkpt>
      <trkpt lat="48.20618" lon="7.12773">
        <ele>585.79998779297</ele>
        <time>2021-05-23T12:45:48Z</time>
      </trkpt>
      <trkpt lat="48.20608" lon="7.12761">
        <ele>587</ele>
        <time>2021-05-23T12:45:53Z</time>
      </trkpt>
      <trkpt lat="48.206" lon="7.1275">
        <ele>588</ele>
        <time>2021-05-23T12:45:57Z</time>
      </trkpt>
      <trkpt lat="48.2059" lon="7.12736">
        <ele>589.59997558594</ele>
        <time>2021-05-23T12:46:02Z</time>
      </trkpt>
      <trkpt lat="48.20582" lon="7.12726">
        <ele>590.20001220703</ele>
        <time>2021-05-23T12:46:06Z</time>
      </trkpt>
      <trkpt lat="48.20577" lon="7.12718">
        <ele>590.79998779297</ele>
        <time>2021-05-23T12:46:09Z</time>
      </trkpt>
      <trkpt lat="48.20575" lon="7.12716">
        <ele>591</ele>
        <time>2021-05-23T12:46:10Z</time>
      </trkpt>
      <trkpt lat="48.20568" lon="7.12705">
        <ele>592</ele>
        <time>2021-05-23T12:46:14Z</time>
      </trkpt>
      <trkpt lat="48.20559" lon="7.12695">
        <ele>593</ele>
        <time>2021-05-23T12:46:18Z</time>
      </trkpt>
      <trkpt lat="48.20557" lon="7.12692">
        <ele>593.20001220703</ele>
        <time>2021-05-23T12:46:19Z</time>
      </trkpt>
      <trkpt lat="48.20548" lon="7.12681">
        <ele>594</ele>
        <time>2021-05-23T12:46:23Z</time>
      </trkpt>
      <trkpt lat="48.20534" lon="7.12664">
        <ele>594.79998779297</ele>
        <time>2021-05-23T12:46:29Z</time>
      </trkpt>
      <trkpt lat="48.20531" lon="7.12661">
        <ele>595</ele>
        <time>2021-05-23T12:46:30Z</time>
      </trkpt>
      <trkpt lat="48.20521" lon="7.12645">
        <ele>596</ele>
        <time>2021-05-23T12:46:35Z</time>
      </trkpt>
      <trkpt lat="48.20515" lon="7.12634">
        <ele>596.79998779297</ele>
        <time>2021-05-23T12:46:38Z</time>
      </trkpt>
      <trkpt lat="48.20514" lon="7.12631">
        <ele>597.20001220703</ele>
        <time>2021-05-23T12:46:39Z</time>
      </trkpt>
      <trkpt lat="48.20501" lon="7.12612">
        <ele>598</ele>
        <time>2021-05-23T12:46:45Z</time>
      </trkpt>
      <trkpt lat="48.20499" lon="7.12609">
        <ele>598.40002441406</ele>
        <time>2021-05-23T12:46:46Z</time>
      </trkpt>
      <trkpt lat="48.20492" lon="7.12597">
        <ele>599.59997558594</ele>
        <time>2021-05-23T12:46:50Z</time>
      </trkpt>
      <trkpt lat="48.20484" lon="7.12583">
        <ele>600.59997558594</ele>
        <time>2021-05-23T12:46:54Z</time>
      </trkpt>
      <trkpt lat="48.20482" lon="7.1258">
        <ele>600.79998779297</ele>
        <time>2021-05-23T12:46:55Z</time>
      </trkpt>
      <trkpt lat="48.20472" lon="7.12564">
        <ele>602.20001220703</ele>
        <time>2021-05-23T12:47:00Z</time>
      </trkpt>
      <trkpt lat="48.20466" lon="7.12556">
        <ele>602.40002441406</ele>
        <time>2021-05-23T12:47:03Z</time>
      </trkpt>
      <trkpt lat="48.20462" lon="7.1255">
        <ele>603.20001220703</ele>
        <time>2021-05-23T12:47:05Z</time>
      </trkpt>
      <trkpt lat="48.20453" lon="7.12538">
        <ele>604</ele>
        <time>2021-05-23T12:47:09Z</time>
      </trkpt>
      <trkpt lat="48.20451" lon="7.12535">
        <ele>604.20001220703</ele>
        <time>2021-05-23T12:47:10Z</time>
      </trkpt>
      <trkpt lat="48.20442" lon="7.12525">
        <ele>605.40002441406</ele>
        <time>2021-05-23T12:47:14Z</time>
      </trkpt>
      <trkpt lat="48.20439" lon="7.12523">
        <ele>605.59997558594</ele>
        <time>2021-05-23T12:47:15Z</time>
      </trkpt>
      <trkpt lat="48.20437" lon="7.12521">
        <ele>605.79998779297</ele>
        <time>2021-05-23T12:47:16Z</time>
      </trkpt>
      <trkpt lat="48.20433" lon="7.12517">
        <ele>606.40002441406</ele>
        <time>2021-05-23T12:47:18Z</time>
      </trkpt>
      <trkpt lat="48.20422" lon="7.12512">
        <ele>607.79998779297</ele>
        <time>2021-05-23T12:47:22Z</time>
      </trkpt>
      <trkpt lat="48.20408" lon="7.12505">
        <ele>608.79998779297</ele>
        <time>2021-05-23T12:47:27Z</time>
      </trkpt>
      <trkpt lat="48.20395" lon="7.12497">
        <ele>610</ele>
        <time>2021-05-23T12:47:32Z</time>
      </trkpt>
      <trkpt lat="48.20386" lon="7.12488">
        <ele>611.20001220703</ele>
        <time>2021-05-23T12:47:36Z</time>
      </trkpt>
      <trkpt lat="48.20384" lon="7.12486">
        <ele>611.40002441406</ele>
        <time>2021-05-23T12:47:37Z</time>
      </trkpt>
      <trkpt lat="48.20375" lon="7.12474">
        <ele>612.20001220703</ele>
        <time>2021-05-23T12:47:41Z</time>
      </trkpt>
      <trkpt lat="48.2037" lon="7.12464">
        <ele>612.79998779297</ele>
        <time>2021-05-23T12:47:44Z</time>
      </trkpt>
      <trkpt lat="48.20369" lon="7.1246">
        <ele>613.20001220703</ele>
        <time>2021-05-23T12:47:45Z</time>
      </trkpt>
      <trkpt lat="48.20368" lon="7.12456">
        <ele>613.40002441406</ele>
        <time>2021-05-23T12:47:46Z</time>
      </trkpt>
      <trkpt lat="48.20361" lon="7.1244">
        <ele>614.20001220703</ele>
        <time>2021-05-23T12:47:51Z</time>
      </trkpt>
      <trkpt lat="48.20356" lon="7.12426">
        <ele>615.40002441406</ele>
        <time>2021-05-23T12:47:55Z</time>
      </trkpt>
      <trkpt lat="48.20347" lon="7.12412">
        <ele>616.59997558594</ele>
        <time>2021-05-23T12:48:00Z</time>
      </trkpt>
      <trkpt lat="48.20342" lon="7.12407">
        <ele>617.79998779297</ele>
        <time>2021-05-23T12:48:02Z</time>
      </trkpt>
      <trkpt lat="48.20337" lon="7.12402">
        <ele>618.20001220703</ele>
        <time>2021-05-23T12:48:04Z</time>
      </trkpt>
      <trkpt lat="48.20327" lon="7.12393">
        <ele>619</ele>
        <time>2021-05-23T12:48:08Z</time>
      </trkpt>
      <trkpt lat="48.20317" lon="7.12387">
        <ele>620.20001220703</ele>
        <time>2021-05-23T12:48:12Z</time>
      </trkpt>
      <trkpt lat="48.20306" lon="7.12382">
        <ele>621.59997558594</ele>
        <time>2021-05-23T12:48:16Z</time>
      </trkpt>
      <trkpt lat="48.20298" lon="7.12378">
        <ele>622.20001220703</ele>
        <time>2021-05-23T12:48:19Z</time>
      </trkpt>
      <trkpt lat="48.20293" lon="7.12376">
        <ele>622.59997558594</ele>
        <time>2021-05-23T12:48:21Z</time>
      </trkpt>
      <trkpt lat="48.20277" lon="7.12367">
        <ele>623.79998779297</ele>
        <time>2021-05-23T12:48:27Z</time>
      </trkpt>
      <trkpt lat="48.20274" lon="7.12365">
        <ele>624</ele>
        <time>2021-05-23T12:48:28Z</time>
      </trkpt>
      <trkpt lat="48.20264" lon="7.12359">
        <ele>624.79998779297</ele>
        <time>2021-05-23T12:48:32Z</time>
      </trkpt>
      <trkpt lat="48.20256" lon="7.12354">
        <ele>625.40002441406</ele>
        <time>2021-05-23T12:48:35Z</time>
      </trkpt>
      <trkpt lat="48.20249" lon="7.12349">
        <ele>626</ele>
        <time>2021-05-23T12:48:38Z</time>
      </trkpt>
      <trkpt lat="48.20239" lon="7.12342">
        <ele>627</ele>
        <time>2021-05-23T12:48:42Z</time>
      </trkpt>
      <trkpt lat="48.20237" lon="7.1234">
        <ele>627.40002441406</ele>
        <time>2021-05-23T12:48:43Z</time>
      </trkpt>
      <trkpt lat="48.2023" lon="7.12335">
        <ele>628.20001220703</ele>
        <time>2021-05-23T12:48:46Z</time>
      </trkpt>
      <trkpt lat="48.2022" lon="7.12328">
        <ele>629.20001220703</ele>
        <time>2021-05-23T12:48:50Z</time>
      </trkpt>
      <trkpt lat="48.20218" lon="7.12326">
        <ele>629.40002441406</ele>
        <time>2021-05-23T12:48:51Z</time>
      </trkpt>
      <trkpt lat="48.20206" lon="7.12317">
        <ele>630.40002441406</ele>
        <time>2021-05-23T12:48:56Z</time>
      </trkpt>
      <trkpt lat="48.20196" lon="7.12308">
        <ele>631.59997558594</ele>
        <time>2021-05-23T12:49:00Z</time>
      </trkpt>
      <trkpt lat="48.20191" lon="7.12305">
        <ele>632</ele>
        <time>2021-05-23T12:49:02Z</time>
      </trkpt>
      <trkpt lat="48.20181" lon="7.12297">
        <ele>632.59997558594</ele>
        <time>2021-05-23T12:49:06Z</time>
      </trkpt>
      <trkpt lat="48.2017" lon="7.1229">
        <ele>633.59997558594</ele>
        <time>2021-05-23T12:49:11Z</time>
      </trkpt>
      <trkpt lat="48.20167" lon="7.12288">
        <ele>633.79998779297</ele>
        <time>2021-05-23T12:49:12Z</time>
      </trkpt>
      <trkpt lat="48.20155" lon="7.12279">
        <ele>634.79998779297</ele>
        <time>2021-05-23T12:49:17Z</time>
      </trkpt>
      <trkpt lat="48.2014" lon="7.12267">
        <ele>636</ele>
        <time>2021-05-23T12:49:23Z</time>
      </trkpt>
      <trkpt lat="48.20137" lon="7.12265">
        <ele>636.20001220703</ele>
        <time>2021-05-23T12:49:24Z</time>
      </trkpt>
      <trkpt lat="48.20125" lon="7.12255">
        <ele>637.20001220703</ele>
        <time>2021-05-23T12:49:29Z</time>
      </trkpt>
      <trkpt lat="48.20121" lon="7.12253">
        <ele>637.59997558594</ele>
        <time>2021-05-23T12:49:31Z</time>
      </trkpt>
      <trkpt lat="48.20115" lon="7.12248">
        <ele>638.40002441406</ele>
        <time>2021-05-23T12:49:34Z</time>
      </trkpt>
      <trkpt lat="48.20112" lon="7.12245">
        <ele>638.59997558594</ele>
        <time>2021-05-23T12:49:36Z</time>
      </trkpt>
      <trkpt lat="48.20106" lon="7.12239">
        <ele>639.40002441406</ele>
        <time>2021-05-23T12:49:39Z</time>
      </trkpt>
      <trkpt lat="48.20095" lon="7.12229">
        <ele>640.20001220703</ele>
        <time>2021-05-23T12:49:44Z</time>
      </trkpt>
      <trkpt lat="48.20093" lon="7.12227">
        <ele>640.40002441406</ele>
        <time>2021-05-23T12:49:45Z</time>
      </trkpt>
      <trkpt lat="48.20083" lon="7.12216">
        <ele>641.59997558594</ele>
        <time>2021-05-23T12:49:50Z</time>
      </trkpt>
      <trkpt lat="48.20077" lon="7.12208">
        <ele>642.40002441406</ele>
        <time>2021-05-23T12:49:53Z</time>
      </trkpt>
      <trkpt lat="48.20074" lon="7.12203">
        <ele>642.59997558594</ele>
        <time>2021-05-23T12:49:55Z</time>
      </trkpt>
      <trkpt lat="48.20065" lon="7.12185">
        <ele>644</ele>
        <time>2021-05-23T12:50:01Z</time>
      </trkpt>
      <trkpt lat="48.20063" lon="7.12181">
        <ele>644.20001220703</ele>
        <time>2021-05-23T12:50:02Z</time>
      </trkpt>
      <trkpt lat="48.20055" lon="7.12167">
        <ele>645.20001220703</ele>
        <time>2021-05-23T12:50:07Z</time>
      </trkpt>
      <trkpt lat="48.2005" lon="7.12162">
        <ele>645.79998779297</ele>
        <time>2021-05-23T12:50:09Z</time>
      </trkpt>
      <trkpt lat="48.20042" lon="7.12159">
        <ele>646.20001220703</ele>
        <time>2021-05-23T12:50:12Z</time>
      </trkpt>
      <trkpt lat="48.20027" lon="7.12159">
        <ele>647.40002441406</ele>
        <time>2021-05-23T12:50:17Z</time>
      </trkpt>
      <trkpt lat="48.2001" lon="7.12169">
        <ele>648.59997558594</ele>
        <time>2021-05-23T12:50:23Z</time>
      </trkpt>
      <trkpt lat="48.19998" lon="7.12191">
        <ele>649.59997558594</ele>
        <time>2021-05-23T12:50:29Z</time>
      </trkpt>
      <trkpt lat="48.19997" lon="7.12195">
        <ele>649.79998779297</ele>
        <time>2021-05-23T12:50:30Z</time>
      </trkpt>
      <trkpt lat="48.19995" lon="7.12217">
        <ele>650.59997558594</ele>
        <time>2021-05-23T12:50:35Z</time>
      </trkpt>
      <trkpt lat="48.19995" lon="7.12222">
        <ele>650.79998779297</ele>
        <time>2021-05-23T12:50:36Z</time>
      </trkpt>
      <trkpt lat="48.2" lon="7.1224">
        <ele>652</ele>
        <time>2021-05-23T12:50:40Z</time>
      </trkpt>
      <trkpt lat="48.20004" lon="7.12247">
        <ele>652.40002441406</ele>
        <time>2021-05-23T12:50:42Z</time>
      </trkpt>
      <trkpt lat="48.20009" lon="7.12253">
        <ele>653.40002441406</ele>
        <time>2021-05-23T12:50:44Z</time>
      </trkpt>
      <trkpt lat="48.20023" lon="7.12269">
        <ele>654.20001220703</ele>
        <time>2021-05-23T12:50:49Z</time>
      </trkpt>
      <trkpt lat="48.20024" lon="7.12272">
        <ele>654.59997558594</ele>
        <time>2021-05-23T12:50:50Z</time>
      </trkpt>
      <trkpt lat="48.20027" lon="7.12275">
        <ele>654.79998779297</ele>
        <time>2021-05-23T12:50:51Z</time>
      </trkpt>
      <trkpt lat="48.20032" lon="7.12282">
        <ele>655.40002441406</ele>
        <time>2021-05-23T12:50:53Z</time>
      </trkpt>
      <trkpt lat="48.20033" lon="7.12285">
        <ele>655.59997558594</ele>
        <time>2021-05-23T12:50:54Z</time>
      </trkpt>
      <trkpt lat="48.20038" lon="7.12296">
        <ele>656.20001220703</ele>
        <time>2021-05-23T12:50:57Z</time>
      </trkpt>
      <trkpt lat="48.20042" lon="7.12308">
        <ele>657</ele>
        <time>2021-05-23T12:51:00Z</time>
      </trkpt>
      <trkpt lat="48.20043" lon="7.12315">
        <ele>657.59997558594</ele>
        <time>2021-05-23T12:51:02Z</time>
      </trkpt>
      <trkpt lat="48.20047" lon="7.12327">
        <ele>658.20001220703</ele>
        <time>2021-05-23T12:51:05Z</time>
      </trkpt>
      <trkpt lat="48.20051" lon="7.12344">
        <ele>659.59997558594</ele>
        <time>2021-05-23T12:51:09Z</time>
      </trkpt>
      <trkpt lat="48.20058" lon="7.12363">
        <ele>660.59997558594</ele>
        <time>2021-05-23T12:51:14Z</time>
      </trkpt>
      <trkpt lat="48.20059" lon="7.12367">
        <ele>660.79998779297</ele>
        <time>2021-05-23T12:51:15Z</time>
      </trkpt>
      <trkpt lat="48.20068" lon="7.12382">
        <ele>661.59997558594</ele>
        <time>2021-05-23T12:51:20Z</time>
      </trkpt>
      <trkpt lat="48.20073" lon="7.12402">
        <ele>663</ele>
        <time>2021-05-23T12:51:25Z</time>
      </trkpt>
      <trkpt lat="48.20077" lon="7.12411">
        <ele>663.79998779297</ele>
        <time>2021-05-23T12:51:27Z</time>
      </trkpt>
      <trkpt lat="48.20078" lon="7.12414">
        <ele>664.20001220703</ele>
        <time>2021-05-23T12:51:28Z</time>
      </trkpt>
      <trkpt lat="48.20088" lon="7.12436">
        <ele>665.40002441406</ele>
        <time>2021-05-23T12:51:34Z</time>
      </trkpt>
      <trkpt lat="48.20092" lon="7.12443">
        <ele>666</ele>
        <time>2021-05-23T12:51:36Z</time>
      </trkpt>
      <trkpt lat="48.20094" lon="7.12446">
        <ele>666.40002441406</ele>
        <time>2021-05-23T12:51:37Z</time>
      </trkpt>
      <trkpt lat="48.20104" lon="7.12459">
        <ele>667.20001220703</ele>
        <time>2021-05-23T12:51:41Z</time>
      </trkpt>
      <trkpt lat="48.20105" lon="7.12463">
        <ele>667.40002441406</ele>
        <time>2021-05-23T12:51:42Z</time>
      </trkpt>
      <trkpt lat="48.20113" lon="7.12477">
        <ele>668.40002441406</ele>
        <time>2021-05-23T12:51:46Z</time>
      </trkpt>
      <trkpt lat="48.20116" lon="7.12483">
        <ele>668.79998779297</ele>
        <time>2021-05-23T12:51:48Z</time>
      </trkpt>
      <trkpt lat="48.2012" lon="7.12494">
        <ele>669.40002441406</ele>
        <time>2021-05-23T12:51:51Z</time>
      </trkpt>
      <trkpt lat="48.20126" lon="7.12508">
        <ele>670</ele>
        <time>2021-05-23T12:51:55Z</time>
      </trkpt>
      <trkpt lat="48.20129" lon="7.12516">
        <ele>670.59997558594</ele>
        <time>2021-05-23T12:51:57Z</time>
      </trkpt>
      <trkpt lat="48.20135" lon="7.1253">
        <ele>671.59997558594</ele>
        <time>2021-05-23T12:52:01Z</time>
      </trkpt>
      <trkpt lat="48.20138" lon="7.12554">
        <ele>672.59997558594</ele>
        <time>2021-05-23T12:52:07Z</time>
      </trkpt>
      <trkpt lat="48.20138" lon="7.12558">
        <ele>672.79998779297</ele>
        <time>2021-05-23T12:52:08Z</time>
      </trkpt>
      <trkpt lat="48.20134" lon="7.12574">
        <ele>674</ele>
        <time>2021-05-23T12:52:12Z</time>
      </trkpt>
      <trkpt lat="48.20132" lon="7.1258">
        <ele>674.40002441406</ele>
        <time>2021-05-23T12:52:14Z</time>
      </trkpt>
      <trkpt lat="48.20128" lon="7.12588">
        <ele>675</ele>
        <time>2021-05-23T12:52:17Z</time>
      </trkpt>
      <trkpt lat="48.20126" lon="7.12591">
        <ele>675.40002441406</ele>
        <time>2021-05-23T12:52:18Z</time>
      </trkpt>
      <trkpt lat="48.2012" lon="7.12597">
        <ele>676.40002441406</ele>
        <time>2021-05-23T12:52:21Z</time>
      </trkpt>
      <trkpt lat="48.20117" lon="7.12599">
        <ele>676.40002441406</ele>
        <time>2021-05-23T12:52:22Z</time>
      </trkpt>
      <trkpt lat="48.20107" lon="7.12607">
        <ele>677.59997558594</ele>
        <time>2021-05-23T12:52:26Z</time>
      </trkpt>
      <trkpt lat="48.20103" lon="7.12611">
        <ele>678</ele>
        <time>2021-05-23T12:52:28Z</time>
      </trkpt>
      <trkpt lat="48.20095" lon="7.12623">
        <ele>678.79998779297</ele>
        <time>2021-05-23T12:52:32Z</time>
      </trkpt>
      <trkpt lat="48.20092" lon="7.12631">
        <ele>679</ele>
        <time>2021-05-23T12:52:34Z</time>
      </trkpt>
      <trkpt lat="48.2009" lon="7.12645">
        <ele>679.79998779297</ele>
        <time>2021-05-23T12:52:37Z</time>
      </trkpt>
      <trkpt lat="48.20091" lon="7.12657">
        <ele>680</ele>
        <time>2021-05-23T12:52:40Z</time>
      </trkpt>
      <trkpt lat="48.20095" lon="7.12668">
        <ele>680.59997558594</ele>
        <time>2021-05-23T12:52:43Z</time>
      </trkpt>
      <trkpt lat="48.201" lon="7.12679">
        <ele>681</ele>
        <time>2021-05-23T12:52:46Z</time>
      </trkpt>
      <trkpt lat="48.20105" lon="7.1269">
        <ele>681.79998779297</ele>
        <time>2021-05-23T12:52:49Z</time>
      </trkpt>
      <trkpt lat="48.20107" lon="7.12697">
        <ele>682</ele>
        <time>2021-05-23T12:52:51Z</time>
      </trkpt>
      <trkpt lat="48.20109" lon="7.12704">
        <ele>682.40002441406</ele>
        <time>2021-05-23T12:52:53Z</time>
      </trkpt>
      <trkpt lat="48.20112" lon="7.12712">
        <ele>682.79998779297</ele>
        <time>2021-05-23T12:52:55Z</time>
      </trkpt>
      <trkpt lat="48.20114" lon="7.12724">
        <ele>683.79998779297</ele>
        <time>2021-05-23T12:52:58Z</time>
      </trkpt>
      <trkpt lat="48.20115" lon="7.12732">
        <ele>684.40002441406</ele>
        <time>2021-05-23T12:53:00Z</time>
      </trkpt>
      <trkpt lat="48.20115" lon="7.12741">
        <ele>685</ele>
        <time>2021-05-23T12:53:02Z</time>
      </trkpt>
      <trkpt lat="48.20115" lon="7.12763">
        <ele>686</ele>
        <time>2021-05-23T12:53:07Z</time>
      </trkpt>
      <trkpt lat="48.20114" lon="7.12772">
        <ele>686.40002441406</ele>
        <time>2021-05-23T12:53:09Z</time>
      </trkpt>
      <trkpt lat="48.20112" lon="7.12782">
        <ele>687</ele>
        <time>2021-05-23T12:53:12Z</time>
      </trkpt>
      <trkpt lat="48.20109" lon="7.12799">
        <ele>687.79998779297</ele>
        <time>2021-05-23T12:53:17Z</time>
      </trkpt>
      <trkpt lat="48.20103" lon="7.12814">
        <ele>689</ele>
        <time>2021-05-23T12:53:21Z</time>
      </trkpt>
      <trkpt lat="48.20099" lon="7.12825">
        <ele>689.20001220703</ele>
        <time>2021-05-23T12:53:24Z</time>
      </trkpt>
      <trkpt lat="48.20093" lon="7.12838">
        <ele>690.20001220703</ele>
        <time>2021-05-23T12:53:28Z</time>
      </trkpt>
      <trkpt lat="48.20088" lon="7.12848">
        <ele>691</ele>
        <time>2021-05-23T12:53:31Z</time>
      </trkpt>
      <trkpt lat="48.20086" lon="7.12852">
        <ele>691.20001220703</ele>
        <time>2021-05-23T12:53:32Z</time>
      </trkpt>
      <trkpt lat="48.20083" lon="7.12867">
        <ele>692.40002441406</ele>
        <time>2021-05-23T12:53:35Z</time>
      </trkpt>
      <trkpt lat="48.20083" lon="7.12871">
        <ele>692.40002441406</ele>
        <time>2021-05-23T12:53:36Z</time>
      </trkpt>
      <trkpt lat="48.20096" lon="7.12882">
        <ele>694</ele>
        <time>2021-05-23T12:53:41Z</time>
      </trkpt>
      <trkpt lat="48.20099" lon="7.12883">
        <ele>694.40002441406</ele>
        <time>2021-05-23T12:53:42Z</time>
      </trkpt>
      <trkpt lat="48.2011" lon="7.1288">
        <ele>694.79998779297</ele>
        <time>2021-05-23T12:53:46Z</time>
      </trkpt>
      <trkpt lat="48.20116" lon="7.12877">
        <ele>695</ele>
        <time>2021-05-23T12:53:48Z</time>
      </trkpt>
      <trkpt lat="48.20135" lon="7.12867">
        <ele>695.79998779297</ele>
        <time>2021-05-23T12:53:55Z</time>
      </trkpt>
      <trkpt lat="48.20147" lon="7.12859">
        <ele>697</ele>
        <time>2021-05-23T12:53:59Z</time>
      </trkpt>
      <trkpt lat="48.20155" lon="7.12851">
        <ele>697.79998779297</ele>
        <time>2021-05-23T12:54:02Z</time>
      </trkpt>
      <trkpt lat="48.20158" lon="7.12846">
        <ele>698</ele>
        <time>2021-05-23T12:54:04Z</time>
      </trkpt>
      <trkpt lat="48.20165" lon="7.1284">
        <ele>698.59997558594</ele>
        <time>2021-05-23T12:54:07Z</time>
      </trkpt>
      <trkpt lat="48.20171" lon="7.12836">
        <ele>699.20001220703</ele>
        <time>2021-05-23T12:54:09Z</time>
      </trkpt>
      <trkpt lat="48.20186" lon="7.12826">
        <ele>700.20001220703</ele>
        <time>2021-05-23T12:54:15Z</time>
      </trkpt>
      <trkpt lat="48.20194" lon="7.12821">
        <ele>700.79998779297</ele>
        <time>2021-05-23T12:54:18Z</time>
      </trkpt>
      <trkpt lat="48.20202" lon="7.12816">
        <ele>701.40002441406</ele>
        <time>2021-05-23T12:54:21Z</time>
      </trkpt>
      <trkpt lat="48.20213" lon="7.12811">
        <ele>702.20001220703</ele>
        <time>2021-05-23T12:54:25Z</time>
      </trkpt>
      <trkpt lat="48.20216" lon="7.12811">
        <ele>702.40002441406</ele>
        <time>2021-05-23T12:54:26Z</time>
      </trkpt>
      <trkpt lat="48.20219" lon="7.12811">
        <ele>702.40002441406</ele>
        <time>2021-05-23T12:54:27Z</time>
      </trkpt>
      <trkpt lat="48.20232" lon="7.1282">
        <ele>703.59997558594</ele>
        <time>2021-05-23T12:54:32Z</time>
      </trkpt>
      <trkpt lat="48.20234" lon="7.12822">
        <ele>703.59997558594</ele>
        <time>2021-05-23T12:54:33Z</time>
      </trkpt>
      <trkpt lat="48.20241" lon="7.12832">
        <ele>704.59997558594</ele>
        <time>2021-05-23T12:54:36Z</time>
      </trkpt>
      <trkpt lat="48.20245" lon="7.12842">
        <ele>705.40002441406</ele>
        <time>2021-05-23T12:54:39Z</time>
      </trkpt>
      <trkpt lat="48.20247" lon="7.12845">
        <ele>705.59997558594</ele>
        <time>2021-05-23T12:54:40Z</time>
      </trkpt>
      <trkpt lat="48.20252" lon="7.12859">
        <ele>706.79998779297</ele>
        <time>2021-05-23T12:54:44Z</time>
      </trkpt>
      <trkpt lat="48.20253" lon="7.12863">
        <ele>707</ele>
        <time>2021-05-23T12:54:45Z</time>
      </trkpt>
      <trkpt lat="48.20258" lon="7.12876">
        <ele>708</ele>
        <time>2021-05-23T12:54:49Z</time>
      </trkpt>
      <trkpt lat="48.20259" lon="7.1288">
        <ele>708.20001220703</ele>
        <time>2021-05-23T12:54:50Z</time>
      </trkpt>
      <trkpt lat="48.20265" lon="7.12895">
        <ele>709</ele>
        <time>2021-05-23T12:54:54Z</time>
      </trkpt>
      <trkpt lat="48.20268" lon="7.12902">
        <ele>709.40002441406</ele>
        <time>2021-05-23T12:54:56Z</time>
      </trkpt>
      <trkpt lat="48.20272" lon="7.12909">
        <ele>710.20001220703</ele>
        <time>2021-05-23T12:54:58Z</time>
      </trkpt>
      <trkpt lat="48.20285" lon="7.12925">
        <ele>711.40002441406</ele>
        <time>2021-05-23T12:55:03Z</time>
      </trkpt>
      <trkpt lat="48.20288" lon="7.12929">
        <ele>711.59997558594</ele>
        <time>2021-05-23T12:55:04Z</time>
      </trkpt>
      <trkpt lat="48.20295" lon="7.12943">
        <ele>712.59997558594</ele>
        <time>2021-05-23T12:55:08Z</time>
      </trkpt>
      <trkpt lat="48.20296" lon="7.12956">
        <ele>713.59997558594</ele>
        <time>2021-05-23T12:55:11Z</time>
      </trkpt>
      <trkpt lat="48.20298" lon="7.12964">
        <ele>713.79998779297</ele>
        <time>2021-05-23T12:55:13Z</time>
      </trkpt>
      <trkpt lat="48.20296" lon="7.12988">
        <ele>714.59997558594</ele>
        <time>2021-05-23T12:55:18Z</time>
      </trkpt>
      <trkpt lat="48.20291" lon="7.13007">
        <ele>715.79998779297</ele>
        <time>2021-05-23T12:55:22Z</time>
      </trkpt>
      <trkpt lat="48.20289" lon="7.13019">
        <ele>717</ele>
        <time>2021-05-23T12:55:25Z</time>
      </trkpt>
      <trkpt lat="48.20291" lon="7.13044">
        <ele>717.79998779297</ele>
        <time>2021-05-23T12:55:31Z</time>
      </trkpt>
      <trkpt lat="48.2029" lon="7.13049">
        <ele>718.20001220703</ele>
        <time>2021-05-23T12:55:32Z</time>
      </trkpt>
      <trkpt lat="48.20297" lon="7.13069">
        <ele>719.79998779297</ele>
        <time>2021-05-23T12:55:37Z</time>
      </trkpt>
      <trkpt lat="48.20305" lon="7.13088">
        <ele>721</ele>
        <time>2021-05-23T12:55:42Z</time>
      </trkpt>
      <trkpt lat="48.20318" lon="7.1311">
        <ele>721.59997558594</ele>
        <time>2021-05-23T12:55:48Z</time>
      </trkpt>
      <trkpt lat="48.20319" lon="7.13114">
        <ele>721.59997558594</ele>
        <time>2021-05-23T12:55:49Z</time>
      </trkpt>
      <trkpt lat="48.20321" lon="7.13121">
        <ele>722.20001220703</ele>
        <time>2021-05-23T12:55:51Z</time>
      </trkpt>
      <trkpt lat="48.20322" lon="7.13125">
        <ele>722.40002441406</ele>
        <time>2021-05-23T12:55:52Z</time>
      </trkpt>
      <trkpt lat="48.20337" lon="7.13138">
        <ele>723.40002441406</ele>
        <time>2021-05-23T12:55:58Z</time>
      </trkpt>
      <trkpt lat="48.20343" lon="7.13141">
        <ele>724.20001220703</ele>
        <time>2021-05-23T12:56:00Z</time>
      </trkpt>
      <trkpt lat="48.20349" lon="7.13144">
        <ele>724.40002441406</ele>
        <time>2021-05-23T12:56:02Z</time>
      </trkpt>
      <trkpt lat="48.20357" lon="7.13147">
        <ele>724.59997558594</ele>
        <time>2021-05-23T12:56:05Z</time>
      </trkpt>
      <trkpt lat="48.20377" lon="7.13155">
        <ele>725.59997558594</ele>
        <time>2021-05-23T12:56:13Z</time>
      </trkpt>
      <trkpt lat="48.20392" lon="7.13163">
        <ele>726.59997558594</ele>
        <time>2021-05-23T12:56:18Z</time>
      </trkpt>
      <trkpt lat="48.20405" lon="7.13174">
        <ele>727.59997558594</ele>
        <time>2021-05-23T12:56:23Z</time>
      </trkpt>
      <trkpt lat="48.20419" lon="7.13192">
        <ele>728.79998779297</ele>
        <time>2021-05-23T12:56:29Z</time>
      </trkpt>
      <trkpt lat="48.20424" lon="7.13198">
        <ele>729.20001220703</ele>
        <time>2021-05-23T12:56:31Z</time>
      </trkpt>
      <trkpt lat="48.20428" lon="7.13204">
        <ele>730</ele>
        <time>2021-05-23T12:56:33Z</time>
      </trkpt>
      <trkpt lat="48.20435" lon="7.13217">
        <ele>731</ele>
        <time>2021-05-23T12:56:37Z</time>
      </trkpt>
      <trkpt lat="48.20439" lon="7.13222">
        <ele>731.40002441406</ele>
        <time>2021-05-23T12:56:39Z</time>
      </trkpt>
      <trkpt lat="48.20448" lon="7.13235">
        <ele>732</ele>
        <time>2021-05-23T12:56:43Z</time>
      </trkpt>
      <trkpt lat="48.20455" lon="7.13244">
        <ele>733.20001220703</ele>
        <time>2021-05-23T12:56:46Z</time>
      </trkpt>
      <trkpt lat="48.2046" lon="7.13249">
        <ele>733.40002441406</ele>
        <time>2021-05-23T12:56:48Z</time>
      </trkpt>
      <trkpt lat="48.20467" lon="7.13257">
        <ele>734.40002441406</ele>
        <time>2021-05-23T12:56:51Z</time>
      </trkpt>
      <trkpt lat="48.20478" lon="7.1327">
        <ele>735.40002441406</ele>
        <time>2021-05-23T12:56:56Z</time>
      </trkpt>
      <trkpt lat="48.20481" lon="7.13273">
        <ele>735.59997558594</ele>
        <time>2021-05-23T12:56:57Z</time>
      </trkpt>
      <trkpt lat="48.20495" lon="7.13293">
        <ele>736.59997558594</ele>
        <time>2021-05-23T12:57:03Z</time>
      </trkpt>
      <trkpt lat="48.20497" lon="7.13296">
        <ele>737</ele>
        <time>2021-05-23T12:57:04Z</time>
      </trkpt>
      <trkpt lat="48.20504" lon="7.13306">
        <ele>737.59997558594</ele>
        <time>2021-05-23T12:57:07Z</time>
      </trkpt>
      <trkpt lat="48.20514" lon="7.13319">
        <ele>738.59997558594</ele>
        <time>2021-05-23T12:57:11Z</time>
      </trkpt>
      <trkpt lat="48.20516" lon="7.13321">
        <ele>738.59997558594</ele>
        <time>2021-05-23T12:57:12Z</time>
      </trkpt>
      <trkpt lat="48.20523" lon="7.13333">
        <ele>739.79998779297</ele>
        <time>2021-05-23T12:57:16Z</time>
      </trkpt>
      <trkpt lat="48.20525" lon="7.13336">
        <ele>740</ele>
        <time>2021-05-23T12:57:17Z</time>
      </trkpt>
      <trkpt lat="48.20544" lon="7.13355">
        <ele>740.79998779297</ele>
        <time>2021-05-23T12:57:23Z</time>
      </trkpt>
      <trkpt lat="48.20546" lon="7.13358">
        <ele>741</ele>
        <time>2021-05-23T12:57:24Z</time>
      </trkpt>
      <trkpt lat="48.20556" lon="7.13377">
        <ele>742</ele>
        <time>2021-05-23T12:57:29Z</time>
      </trkpt>
      <trkpt lat="48.20558" lon="7.13381">
        <ele>742.40002441406</ele>
        <time>2021-05-23T12:57:30Z</time>
      </trkpt>
      <trkpt lat="48.20569" lon="7.13402">
        <ele>743</ele>
        <time>2021-05-23T12:57:35Z</time>
      </trkpt>
      <trkpt lat="48.20575" lon="7.13413">
        <ele>743.59997558594</ele>
        <time>2021-05-23T12:57:38Z</time>
      </trkpt>
      <trkpt lat="48.20582" lon="7.13429">
        <ele>744</ele>
        <time>2021-05-23T12:57:42Z</time>
      </trkpt>
      <trkpt lat="48.20586" lon="7.13437">
        <ele>744.20001220703</ele>
        <time>2021-05-23T12:57:44Z</time>
      </trkpt>
      <trkpt lat="48.2059" lon="7.13459">
        <ele>745</ele>
        <time>2021-05-23T12:57:49Z</time>
      </trkpt>
      <trkpt lat="48.20592" lon="7.13463">
        <ele>745.40002441406</ele>
        <time>2021-05-23T12:57:50Z</time>
      </trkpt>
      <trkpt lat="48.20593" lon="7.13466">
        <ele>745.59997558594</ele>
        <time>2021-05-23T12:57:51Z</time>
      </trkpt>
      <trkpt lat="48.20595" lon="7.13469">
        <ele>746.20001220703</ele>
        <time>2021-05-23T12:57:53Z</time>
      </trkpt>
      <trkpt lat="48.20598" lon="7.13477">
        <ele>746.20001220703</ele>
        <time>2021-05-23T12:57:54Z</time>
      </trkpt>
      <trkpt lat="48.20613" lon="7.13508">
        <ele>747.40002441406</ele>
        <time>2021-05-23T12:58:01Z</time>
      </trkpt>
      <trkpt lat="48.20614" lon="7.13513">
        <ele>747.40002441406</ele>
        <time>2021-05-23T12:58:02Z</time>
      </trkpt>
      <trkpt lat="48.20615" lon="7.13533">
        <ele>748</ele>
        <time>2021-05-23T12:58:06Z</time>
      </trkpt>
      <trkpt lat="48.20613" lon="7.13537">
        <ele>748.20001220703</ele>
        <time>2021-05-23T12:58:07Z</time>
      </trkpt>
      <trkpt lat="48.20611" lon="7.1354">
        <ele>748.40002441406</ele>
        <time>2021-05-23T12:58:08Z</time>
      </trkpt>
      <trkpt lat="48.20608" lon="7.13541">
        <ele>748.40002441406</ele>
        <time>2021-05-23T12:58:09Z</time>
      </trkpt>
      <trkpt lat="48.20596" lon="7.13532">
        <ele>749</ele>
        <time>2021-05-23T12:58:13Z</time>
      </trkpt>
      <trkpt lat="48.20591" lon="7.1352">
        <ele>749.40002441406</ele>
        <time>2021-05-23T12:58:16Z</time>
      </trkpt>
      <trkpt lat="48.20588" lon="7.13512">
        <ele>749.59997558594</ele>
        <time>2021-05-23T12:58:18Z</time>
      </trkpt>
      <trkpt lat="48.20581" lon="7.13486">
        <ele>750.79998779297</ele>
        <time>2021-05-23T12:58:24Z</time>
      </trkpt>
      <trkpt lat="48.2057" lon="7.13462">
        <ele>751.59997558594</ele>
        <time>2021-05-23T12:58:30Z</time>
      </trkpt>
      <trkpt lat="48.20568" lon="7.13457">
        <ele>752</ele>
        <time>2021-05-23T12:58:31Z</time>
      </trkpt>
      <trkpt lat="48.20557" lon="7.13435">
        <ele>752.79998779297</ele>
        <time>2021-05-23T12:58:36Z</time>
      </trkpt>
      <trkpt lat="48.20555" lon="7.1343">
        <ele>753</ele>
        <time>2021-05-23T12:58:37Z</time>
      </trkpt>
      <trkpt lat="48.20546" lon="7.13414">
        <ele>754</ele>
        <time>2021-05-23T12:58:41Z</time>
      </trkpt>
      <trkpt lat="48.20533" lon="7.13396">
        <ele>755.20001220703</ele>
        <time>2021-05-23T12:58:46Z</time>
      </trkpt>
      <trkpt lat="48.2053" lon="7.13393">
        <ele>755.20001220703</ele>
        <time>2021-05-23T12:58:47Z</time>
      </trkpt>
      <trkpt lat="48.20519" lon="7.13381">
        <ele>756</ele>
        <time>2021-05-23T12:58:52Z</time>
      </trkpt>
      <trkpt lat="48.20502" lon="7.13368">
        <ele>757</ele>
        <time>2021-05-23T12:58:57Z</time>
      </trkpt>
      <trkpt lat="48.20496" lon="7.13364">
        <ele>757.20001220703</ele>
        <time>2021-05-23T12:58:59Z</time>
      </trkpt>
      <trkpt lat="48.20484" lon="7.13355">
        <ele>758.40002441406</ele>
        <time>2021-05-23T12:59:03Z</time>
      </trkpt>
      <trkpt lat="48.20478" lon="7.13352">
        <ele>759.20001220703</ele>
        <time>2021-05-23T12:59:05Z</time>
      </trkpt>
      <trkpt lat="48.20475" lon="7.1335">
        <ele>759.59997558594</ele>
        <time>2021-05-23T12:59:06Z</time>
      </trkpt>
      <trkpt lat="48.2046" lon="7.13341">
        <ele>760.79998779297</ele>
        <time>2021-05-23T12:59:11Z</time>
      </trkpt>
      <trkpt lat="48.20446" lon="7.13333">
        <ele>761.59997558594</ele>
        <time>2021-05-23T12:59:16Z</time>
      </trkpt>
      <trkpt lat="48.20434" lon="7.13326">
        <ele>762.20001220703</ele>
        <time>2021-05-23T12:59:20Z</time>
      </trkpt>
      <trkpt lat="48.20428" lon="7.13323">
        <ele>762.59997558594</ele>
        <time>2021-05-23T12:59:22Z</time>
      </trkpt>
      <trkpt lat="48.2042" lon="7.13318">
        <ele>763.59997558594</ele>
        <time>2021-05-23T12:59:25Z</time>
      </trkpt>
      <trkpt lat="48.20409" lon="7.13312">
        <ele>764.40002441406</ele>
        <time>2021-05-23T12:59:29Z</time>
      </trkpt>
      <trkpt lat="48.20403" lon="7.13309">
        <ele>764.79998779297</ele>
        <time>2021-05-23T12:59:31Z</time>
      </trkpt>
      <trkpt lat="48.20389" lon="7.13298">
        <ele>765.20001220703</ele>
        <time>2021-05-23T12:59:36Z</time>
      </trkpt>
      <trkpt lat="48.20382" lon="7.13293">
        <ele>766</ele>
        <time>2021-05-23T12:59:38Z</time>
      </trkpt>
      <trkpt lat="48.20372" lon="7.13285">
        <ele>767.20001220703</ele>
        <time>2021-05-23T12:59:41Z</time>
      </trkpt>
      <trkpt lat="48.20357" lon="7.13277">
        <ele>768</ele>
        <time>2021-05-23T12:59:45Z</time>
      </trkpt>
      <trkpt lat="48.20353" lon="7.13275">
        <ele>768.20001220703</ele>
        <time>2021-05-23T12:59:46Z</time>
      </trkpt>
      <trkpt lat="48.20343" lon="7.13269">
        <ele>769.20001220703</ele>
        <time>2021-05-23T12:59:49Z</time>
      </trkpt>
      <trkpt lat="48.20328" lon="7.13261">
        <ele>769.79998779297</ele>
        <time>2021-05-23T12:59:53Z</time>
      </trkpt>
      <trkpt lat="48.20322" lon="7.1326">
        <ele>770.20001220703</ele>
        <time>2021-05-23T12:59:55Z</time>
      </trkpt>
      <trkpt lat="48.20309" lon="7.13251">
        <ele>771</ele>
        <time>2021-05-23T12:59:59Z</time>
      </trkpt>
      <trkpt lat="48.20301" lon="7.1325">
        <ele>771.40002441406</ele>
        <time>2021-05-23T13:00:01Z</time>
      </trkpt>
      <trkpt lat="48.20294" lon="7.13247">
        <ele>772.59997558594</ele>
        <time>2021-05-23T13:00:04Z</time>
      </trkpt>
      <trkpt lat="48.20292" lon="7.13245">
        <ele>772.59997558594</ele>
        <time>2021-05-23T13:00:05Z</time>
      </trkpt>
      <trkpt lat="48.20281" lon="7.13238">
        <ele>773.79998779297</ele>
        <time>2021-05-23T13:00:08Z</time>
      </trkpt>
      <trkpt lat="48.20273" lon="7.13231">
        <ele>774.40002441406</ele>
        <time>2021-05-23T13:00:11Z</time>
      </trkpt>
      <trkpt lat="48.20267" lon="7.13224">
        <ele>774.79998779297</ele>
        <time>2021-05-23T13:00:14Z</time>
      </trkpt>
      <trkpt lat="48.20256" lon="7.13216">
        <ele>775.59997558594</ele>
        <time>2021-05-23T13:00:18Z</time>
      </trkpt>
      <trkpt lat="48.20254" lon="7.13214">
        <ele>775.79998779297</ele>
        <time>2021-05-23T13:00:19Z</time>
      </trkpt>
      <trkpt lat="48.20243" lon="7.13206">
        <ele>776.59997558594</ele>
        <time>2021-05-23T13:00:23Z</time>
      </trkpt>
      <trkpt lat="48.20234" lon="7.13196">
        <ele>777.79998779297</ele>
        <time>2021-05-23T13:00:27Z</time>
      </trkpt>
      <trkpt lat="48.20216" lon="7.13175">
        <ele>779</ele>
        <time>2021-05-23T13:00:34Z</time>
      </trkpt>
      <trkpt lat="48.20199" lon="7.13154">
        <ele>779.79998779297</ele>
        <time>2021-05-23T13:00:41Z</time>
      </trkpt>
      <trkpt lat="48.20193" lon="7.13148">
        <ele>780.40002441406</ele>
        <time>2021-05-23T13:00:43Z</time>
      </trkpt>
      <trkpt lat="48.20184" lon="7.13139">
        <ele>781.40002441406</ele>
        <time>2021-05-23T13:00:46Z</time>
      </trkpt>
      <trkpt lat="48.20179" lon="7.13133">
        <ele>782.40002441406</ele>
        <time>2021-05-23T13:00:48Z</time>
      </trkpt>
      <trkpt lat="48.20174" lon="7.13128">
        <ele>782.79998779297</ele>
        <time>2021-05-23T13:00:50Z</time>
      </trkpt>
      <trkpt lat="48.20167" lon="7.13124">
        <ele>783.20001220703</ele>
        <time>2021-05-23T13:00:52Z</time>
      </trkpt>
      <trkpt lat="48.2016" lon="7.1312">
        <ele>783.59997558594</ele>
        <time>2021-05-23T13:00:54Z</time>
      </trkpt>
      <trkpt lat="48.20149" lon="7.13115">
        <ele>784.20001220703</ele>
        <time>2021-05-23T13:00:58Z</time>
      </trkpt>
      <trkpt lat="48.20145" lon="7.13114">
        <ele>784.79998779297</ele>
        <time>2021-05-23T13:00:59Z</time>
      </trkpt>
      <trkpt lat="48.20135" lon="7.13111">
        <ele>786.20001220703</ele>
        <time>2021-05-23T13:01:02Z</time>
      </trkpt>
      <trkpt lat="48.20127" lon="7.1311">
        <ele>786.79998779297</ele>
        <time>2021-05-23T13:01:05Z</time>
      </trkpt>
      <trkpt lat="48.20122" lon="7.13109">
        <ele>787.20001220703</ele>
        <time>2021-05-23T13:01:07Z</time>
      </trkpt>
      <trkpt lat="48.2011" lon="7.13109">
        <ele>788.20001220703</ele>
        <time>2021-05-23T13:01:11Z</time>
      </trkpt>
      <trkpt lat="48.20107" lon="7.1311">
        <ele>788.59997558594</ele>
        <time>2021-05-23T13:01:12Z</time>
      </trkpt>
      <trkpt lat="48.20089" lon="7.13112">
        <ele>789.79998779297</ele>
        <time>2021-05-23T13:01:17Z</time>
      </trkpt>
      <trkpt lat="48.20086" lon="7.13113">
        <ele>790</ele>
        <time>2021-05-23T13:01:18Z</time>
      </trkpt>
      <trkpt lat="48.20069" lon="7.13118">
        <ele>790.79998779297</ele>
        <time>2021-05-23T13:01:23Z</time>
      </trkpt>
      <trkpt lat="48.20056" lon="7.13121">
        <ele>791.40002441406</ele>
        <time>2021-05-23T13:01:26Z</time>
      </trkpt>
      <trkpt lat="48.20046" lon="7.13126">
        <ele>792</ele>
        <time>2021-05-23T13:01:29Z</time>
      </trkpt>
      <trkpt lat="48.20039" lon="7.1313">
        <ele>793</ele>
        <time>2021-05-23T13:01:32Z</time>
      </trkpt>
      <trkpt lat="48.20027" lon="7.13136">
        <ele>794.20001220703</ele>
        <time>2021-05-23T13:01:36Z</time>
      </trkpt>
      <trkpt lat="48.20024" lon="7.13137">
        <ele>794.40002441406</ele>
        <time>2021-05-23T13:01:37Z</time>
      </trkpt>
      <trkpt lat="48.20014" lon="7.13142">
        <ele>795.59997558594</ele>
        <time>2021-05-23T13:01:41Z</time>
      </trkpt>
      <trkpt lat="48.20009" lon="7.13145">
        <ele>796.20001220703</ele>
        <time>2021-05-23T13:01:43Z</time>
      </trkpt>
      <trkpt lat="48.20001" lon="7.1315">
        <ele>797</ele>
        <time>2021-05-23T13:01:47Z</time>
      </trkpt>
      <trkpt lat="48.19997" lon="7.13152">
        <ele>797.20001220703</ele>
        <time>2021-05-23T13:01:49Z</time>
      </trkpt>
      <trkpt lat="48.19985" lon="7.13165">
        <ele>798.20001220703</ele>
        <time>2021-05-23T13:01:54Z</time>
      </trkpt>
      <trkpt lat="48.19983" lon="7.13168">
        <ele>798.59997558594</ele>
        <time>2021-05-23T13:01:55Z</time>
      </trkpt>
      <trkpt lat="48.19977" lon="7.13171">
        <ele>799.20001220703</ele>
        <time>2021-05-23T13:01:57Z</time>
      </trkpt>
      <trkpt lat="48.19965" lon="7.13187">
        <ele>800.40002441406</ele>
        <time>2021-05-23T13:02:02Z</time>
      </trkpt>
      <trkpt lat="48.1995" lon="7.13205">
        <ele>801.20001220703</ele>
        <time>2021-05-23T13:02:07Z</time>
      </trkpt>
      <trkpt lat="48.19947" lon="7.13208">
        <ele>801.40002441406</ele>
        <time>2021-05-23T13:02:08Z</time>
      </trkpt>
      <trkpt lat="48.19938" lon="7.13213">
        <ele>802.40002441406</ele>
        <time>2021-05-23T13:02:11Z</time>
      </trkpt>
      <trkpt lat="48.19935" lon="7.13215">
        <ele>802.59997558594</ele>
        <time>2021-05-23T13:02:12Z</time>
      </trkpt>
      <trkpt lat="48.19924" lon="7.13231">
        <ele>803.59997558594</ele>
        <time>2021-05-23T13:02:16Z</time>
      </trkpt>
      <trkpt lat="48.19922" lon="7.13235">
        <ele>803.79998779297</ele>
        <time>2021-05-23T13:02:17Z</time>
      </trkpt>
      <trkpt lat="48.19903" lon="7.13246">
        <ele>804.79998779297</ele>
        <time>2021-05-23T13:02:21Z</time>
      </trkpt>
      <trkpt lat="48.19898" lon="7.13247">
        <ele>805</ele>
        <time>2021-05-23T13:02:23Z</time>
      </trkpt>
      <trkpt lat="48.19886" lon="7.13236">
        <ele>805.59997558594</ele>
        <time>2021-05-23T13:02:27Z</time>
      </trkpt>
      <trkpt lat="48.19878" lon="7.13211">
        <ele>806.79998779297</ele>
        <time>2021-05-23T13:02:32Z</time>
      </trkpt>
      <trkpt lat="48.19877" lon="7.13187">
        <ele>807.79998779297</ele>
        <time>2021-05-23T13:02:37Z</time>
      </trkpt>
      <trkpt lat="48.19876" lon="7.13178">
        <ele>808.59997558594</ele>
        <time>2021-05-23T13:02:39Z</time>
      </trkpt>
      <trkpt lat="48.19876" lon="7.13168">
        <ele>808.79998779297</ele>
        <time>2021-05-23T13:02:41Z</time>
      </trkpt>
      <trkpt lat="48.19874" lon="7.13148">
        <ele>810</ele>
        <time>2021-05-23T13:02:45Z</time>
      </trkpt>
      <trkpt lat="48.19875" lon="7.13143">
        <ele>810.20001220703</ele>
        <time>2021-05-23T13:02:46Z</time>
      </trkpt>
      <trkpt lat="48.19875" lon="7.13129">
        <ele>811</ele>
        <time>2021-05-23T13:02:49Z</time>
      </trkpt>
      <trkpt lat="48.19876" lon="7.13109">
        <ele>812</ele>
        <time>2021-05-23T13:02:53Z</time>
      </trkpt>
      <trkpt lat="48.19877" lon="7.13083">
        <ele>813.20001220703</ele>
        <time>2021-05-23T13:02:58Z</time>
      </trkpt>
      <trkpt lat="48.19877" lon="7.13066">
        <ele>814</ele>
        <time>2021-05-23T13:03:01Z</time>
      </trkpt>
      <trkpt lat="48.19878" lon="7.13057">
        <ele>814.59997558594</ele>
        <time>2021-05-23T13:03:03Z</time>
      </trkpt>
      <trkpt lat="48.19877" lon="7.13038">
        <ele>815.20001220703</ele>
        <time>2021-05-23T13:03:06Z</time>
      </trkpt>
      <trkpt lat="48.19876" lon="7.13004">
        <ele>816</ele>
        <time>2021-05-23T13:03:11Z</time>
      </trkpt>
      <trkpt lat="48.19876" lon="7.12993">
        <ele>816.40002441406</ele>
        <time>2021-05-23T13:03:13Z</time>
      </trkpt>
      <trkpt lat="48.19876" lon="7.12964">
        <ele>817.59997558594</ele>
        <time>2021-05-23T13:03:19Z</time>
      </trkpt>
      <trkpt lat="48.19876" lon="7.12945">
        <ele>818.79998779297</ele>
        <time>2021-05-23T13:03:23Z</time>
      </trkpt>
      <trkpt lat="48.19876" lon="7.12927">
        <ele>819.59997558594</ele>
        <time>2021-05-23T13:03:27Z</time>
      </trkpt>
      <trkpt lat="48.19876" lon="7.12918">
        <ele>820</ele>
        <time>2021-05-23T13:03:29Z</time>
      </trkpt>
      <trkpt lat="48.19872" lon="7.12896">
        <ele>821</ele>
        <time>2021-05-23T13:03:34Z</time>
      </trkpt>
      <trkpt lat="48.19865" lon="7.12881">
        <ele>822.20001220703</ele>
        <time>2021-05-23T13:03:38Z</time>
      </trkpt>
      <trkpt lat="48.19858" lon="7.12871">
        <ele>822.79998779297</ele>
        <time>2021-05-23T13:03:41Z</time>
      </trkpt>
      <trkpt lat="48.1985" lon="7.12863">
        <ele>823.40002441406</ele>
        <time>2021-05-23T13:03:44Z</time>
      </trkpt>
      <trkpt lat="48.19841" lon="7.12858">
        <ele>824.20001220703</ele>
        <time>2021-05-23T13:03:47Z</time>
      </trkpt>
      <trkpt lat="48.19838" lon="7.12856">
        <ele>824.40002441406</ele>
        <time>2021-05-23T13:03:48Z</time>
      </trkpt>
      <trkpt lat="48.19826" lon="7.12852">
        <ele>825.40002441406</ele>
        <time>2021-05-23T13:03:52Z</time>
      </trkpt>
      <trkpt lat="48.1982" lon="7.12851">
        <ele>825.79998779297</ele>
        <time>2021-05-23T13:03:54Z</time>
      </trkpt>
      <trkpt lat="48.19811" lon="7.1285">
        <ele>826.59997558594</ele>
        <time>2021-05-23T13:03:57Z</time>
      </trkpt>
      <trkpt lat="48.19801" lon="7.12848">
        <ele>827.20001220703</ele>
        <time>2021-05-23T13:04:00Z</time>
      </trkpt>
      <trkpt lat="48.19795" lon="7.12848">
        <ele>827.59997558594</ele>
        <time>2021-05-23T13:04:02Z</time>
      </trkpt>
      <trkpt lat="48.19779" lon="7.12845">
        <ele>829</ele>
        <time>2021-05-23T13:04:07Z</time>
      </trkpt>
      <trkpt lat="48.19766" lon="7.12843">
        <ele>830</ele>
        <time>2021-05-23T13:04:11Z</time>
      </trkpt>
      <trkpt lat="48.19753" lon="7.12841">
        <ele>831.20001220703</ele>
        <time>2021-05-23T13:04:15Z</time>
      </trkpt>
      <trkpt lat="48.19737" lon="7.12832">
        <ele>832.20001220703</ele>
        <time>2021-05-23T13:04:21Z</time>
      </trkpt>
      <trkpt lat="48.19732" lon="7.12816">
        <ele>833.40002441406</ele>
        <time>2021-05-23T13:04:25Z</time>
      </trkpt>
      <trkpt lat="48.19731" lon="7.12812">
        <ele>833.40002441406</ele>
        <time>2021-05-23T13:04:26Z</time>
      </trkpt>
      <trkpt lat="48.19734" lon="7.12792">
        <ele>834.59997558594</ele>
        <time>2021-05-23T13:04:30Z</time>
      </trkpt>
      <trkpt lat="48.19735" lon="7.12784">
        <ele>835</ele>
        <time>2021-05-23T13:04:32Z</time>
      </trkpt>
      <trkpt lat="48.19736" lon="7.12772">
        <ele>835.59997558594</ele>
        <time>2021-05-23T13:04:35Z</time>
      </trkpt>
      <trkpt lat="48.19736" lon="7.12758">
        <ele>836</ele>
        <time>2021-05-23T13:04:38Z</time>
      </trkpt>
      <trkpt lat="48.19736" lon="7.12746">
        <ele>837</ele>
        <time>2021-05-23T13:04:41Z</time>
      </trkpt>
      <trkpt lat="48.19737" lon="7.12738">
        <ele>837.40002441406</ele>
        <time>2021-05-23T13:04:43Z</time>
      </trkpt>
      <trkpt lat="48.19736" lon="7.12722">
        <ele>838</ele>
        <time>2021-05-23T13:04:47Z</time>
      </trkpt>
      <trkpt lat="48.19734" lon="7.12702">
        <ele>838.40002441406</ele>
        <time>2021-05-23T13:04:50Z</time>
      </trkpt>
      <trkpt lat="48.19732" lon="7.12678">
        <ele>838.79998779297</ele>
        <time>2021-05-23T13:04:55Z</time>
      </trkpt>
      <trkpt lat="48.19732" lon="7.1267">
        <ele>839.59997558594</ele>
        <time>2021-05-23T13:04:57Z</time>
      </trkpt>
      <trkpt lat="48.19731" lon="7.12659">
        <ele>840.20001220703</ele>
        <time>2021-05-23T13:04:59Z</time>
      </trkpt>
      <trkpt lat="48.19731" lon="7.12654">
        <ele>840.79998779297</ele>
        <time>2021-05-23T13:05:00Z</time>
      </trkpt>
      <trkpt lat="48.19734" lon="7.12627">
        <ele>841.59997558594</ele>
        <time>2021-05-23T13:05:05Z</time>
      </trkpt>
      <trkpt lat="48.19735" lon="7.12622">
        <ele>841.79998779297</ele>
        <time>2021-05-23T13:05:06Z</time>
      </trkpt>
      <trkpt lat="48.19734" lon="7.12608">
        <ele>843.20001220703</ele>
        <time>2021-05-23T13:05:09Z</time>
      </trkpt>
      <trkpt lat="48.19731" lon="7.12594">
        <ele>844</ele>
        <time>2021-05-23T13:05:12Z</time>
      </trkpt>
      <trkpt lat="48.1973" lon="7.12589">
        <ele>844.20001220703</ele>
        <time>2021-05-23T13:05:13Z</time>
      </trkpt>
      <trkpt lat="48.19721" lon="7.12572">
        <ele>845.20001220703</ele>
        <time>2021-05-23T13:05:18Z</time>
      </trkpt>
      <trkpt lat="48.1971" lon="7.12564">
        <ele>846</ele>
        <time>2021-05-23T13:05:22Z</time>
      </trkpt>
      <trkpt lat="48.19707" lon="7.12562">
        <ele>846.20001220703</ele>
        <time>2021-05-23T13:05:23Z</time>
      </trkpt>
      <trkpt lat="48.197" lon="7.12559">
        <ele>846.40002441406</ele>
        <time>2021-05-23T13:05:25Z</time>
      </trkpt>
      <trkpt lat="48.19688" lon="7.12552">
        <ele>847.40002441406</ele>
        <time>2021-05-23T13:05:29Z</time>
      </trkpt>
      <trkpt lat="48.19674" lon="7.12544">
        <ele>848.40002441406</ele>
        <time>2021-05-23T13:05:34Z</time>
      </trkpt>
      <trkpt lat="48.1967" lon="7.12542">
        <ele>848.59997558594</ele>
        <time>2021-05-23T13:05:36Z</time>
      </trkpt>
      <trkpt lat="48.19661" lon="7.12537">
        <ele>849.20001220703</ele>
        <time>2021-05-23T13:05:39Z</time>
      </trkpt>
      <trkpt lat="48.19656" lon="7.12534">
        <ele>849.79998779297</ele>
        <time>2021-05-23T13:05:41Z</time>
      </trkpt>
      <trkpt lat="48.19644" lon="7.1253">
        <ele>850.79998779297</ele>
        <time>2021-05-23T13:05:45Z</time>
      </trkpt>
      <trkpt lat="48.19641" lon="7.12529">
        <ele>851</ele>
        <time>2021-05-23T13:05:46Z</time>
      </trkpt>
      <trkpt lat="48.19626" lon="7.1252">
        <ele>852</ele>
        <time>2021-05-23T13:05:51Z</time>
      </trkpt>
      <trkpt lat="48.19612" lon="7.12511">
        <ele>853</ele>
        <time>2021-05-23T13:05:55Z</time>
      </trkpt>
      <trkpt lat="48.19596" lon="7.12498">
        <ele>854.20001220703</ele>
        <time>2021-05-23T13:06:00Z</time>
      </trkpt>
      <trkpt lat="48.19587" lon="7.12489">
        <ele>855.20001220703</ele>
        <time>2021-05-23T13:06:03Z</time>
      </trkpt>
      <trkpt lat="48.19584" lon="7.12487">
        <ele>855.59997558594</ele>
        <time>2021-05-23T13:06:04Z</time>
      </trkpt>
      <trkpt lat="48.19571" lon="7.12473">
        <ele>856.59997558594</ele>
        <time>2021-05-23T13:06:09Z</time>
      </trkpt>
      <trkpt lat="48.19568" lon="7.1247">
        <ele>856.79998779297</ele>
        <time>2021-05-23T13:06:10Z</time>
      </trkpt>
      <trkpt lat="48.19558" lon="7.12459">
        <ele>857.79998779297</ele>
        <time>2021-05-23T13:06:14Z</time>
      </trkpt>
      <trkpt lat="48.19547" lon="7.12449">
        <ele>859</ele>
        <time>2021-05-23T13:06:18Z</time>
      </trkpt>
      <trkpt lat="48.1954" lon="7.12442">
        <ele>859.79998779297</ele>
        <time>2021-05-23T13:06:21Z</time>
      </trkpt>
      <trkpt lat="48.19534" lon="7.12438">
        <ele>860.20001220703</ele>
        <time>2021-05-23T13:06:23Z</time>
      </trkpt>
      <trkpt lat="48.19519" lon="7.12429">
        <ele>861.40002441406</ele>
        <time>2021-05-23T13:06:28Z</time>
      </trkpt>
      <trkpt lat="48.19501" lon="7.12419">
        <ele>862.59997558594</ele>
        <time>2021-05-23T13:06:34Z</time>
      </trkpt>
      <trkpt lat="48.19494" lon="7.12403">
        <ele>863.40002441406</ele>
        <time>2021-05-23T13:06:38Z</time>
      </trkpt>
      <trkpt lat="48.19493" lon="7.12394">
        <ele>863.59997558594</ele>
        <time>2021-05-23T13:06:40Z</time>
      </trkpt>
      <trkpt lat="48.19494" lon="7.12379">
        <ele>864.40002441406</ele>
        <time>2021-05-23T13:06:43Z</time>
      </trkpt>
      <trkpt lat="48.19497" lon="7.12369">
        <ele>864.79998779297</ele>
        <time>2021-05-23T13:06:45Z</time>
      </trkpt>
      <trkpt lat="48.19501" lon="7.12356">
        <ele>865.40002441406</ele>
        <time>2021-05-23T13:06:48Z</time>
      </trkpt>
      <trkpt lat="48.19504" lon="7.12348">
        <ele>865.79998779297</ele>
        <time>2021-05-23T13:06:50Z</time>
      </trkpt>
      <trkpt lat="48.19514" lon="7.12326">
        <ele>866.79998779297</ele>
        <time>2021-05-23T13:06:55Z</time>
      </trkpt>
      <trkpt lat="48.19521" lon="7.12315">
        <ele>867.59997558594</ele>
        <time>2021-05-23T13:06:58Z</time>
      </trkpt>
      <trkpt lat="48.19525" lon="7.12307">
        <ele>868</ele>
        <time>2021-05-23T13:07:00Z</time>
      </trkpt>
      <trkpt lat="48.19533" lon="7.12293">
        <ele>869</ele>
        <time>2021-05-23T13:07:04Z</time>
      </trkpt>
      <trkpt lat="48.19539" lon="7.12266">
        <ele>870</ele>
        <time>2021-05-23T13:07:10Z</time>
      </trkpt>
      <trkpt lat="48.19539" lon="7.12261">
        <ele>870</ele>
        <time>2021-05-23T13:07:11Z</time>
      </trkpt>
      <trkpt lat="48.19536" lon="7.12237">
        <ele>870.40002441406</ele>
        <time>2021-05-23T13:07:16Z</time>
      </trkpt>
      <trkpt lat="48.19532" lon="7.12219">
        <ele>871</ele>
        <time>2021-05-23T13:07:20Z</time>
      </trkpt>
      <trkpt lat="48.1953" lon="7.12205">
        <ele>872</ele>
        <time>2021-05-23T13:07:23Z</time>
      </trkpt>
      <trkpt lat="48.19529" lon="7.12201">
        <ele>872.20001220703</ele>
        <time>2021-05-23T13:07:24Z</time>
      </trkpt>
      <trkpt lat="48.19526" lon="7.12183">
        <ele>873.40002441406</ele>
        <time>2021-05-23T13:07:28Z</time>
      </trkpt>
      <trkpt lat="48.19522" lon="7.12158">
        <ele>874.40002441406</ele>
        <time>2021-05-23T13:07:33Z</time>
      </trkpt>
      <trkpt lat="48.1952" lon="7.12154">
        <ele>874.59997558594</ele>
        <time>2021-05-23T13:07:34Z</time>
      </trkpt>
      <trkpt lat="48.19515" lon="7.12138">
        <ele>875.59997558594</ele>
        <time>2021-05-23T13:07:38Z</time>
      </trkpt>
      <trkpt lat="48.19514" lon="7.12127">
        <ele>876</ele>
        <time>2021-05-23T13:07:40Z</time>
      </trkpt>
      <trkpt lat="48.19511" lon="7.12105">
        <ele>876.79998779297</ele>
        <time>2021-05-23T13:07:44Z</time>
      </trkpt>
      <trkpt lat="48.19509" lon="7.12086">
        <ele>877.59997558594</ele>
        <time>2021-05-23T13:07:48Z</time>
      </trkpt>
      <trkpt lat="48.19506" lon="7.12075">
        <ele>878</ele>
        <time>2021-05-23T13:07:50Z</time>
      </trkpt>
      <trkpt lat="48.195" lon="7.12047">
        <ele>879</ele>
        <time>2021-05-23T13:07:56Z</time>
      </trkpt>
      <trkpt lat="48.19499" lon="7.12044">
        <ele>879.40002441406</ele>
        <time>2021-05-23T13:07:57Z</time>
      </trkpt>
      <trkpt lat="48.19497" lon="7.12036">
        <ele>880</ele>
        <time>2021-05-23T13:07:59Z</time>
      </trkpt>
      <trkpt lat="48.19492" lon="7.12017">
        <ele>881</ele>
        <time>2021-05-23T13:08:04Z</time>
      </trkpt>
      <trkpt lat="48.19487" lon="7.12">
        <ele>882.20001220703</ele>
        <time>2021-05-23T13:08:09Z</time>
      </trkpt>
      <trkpt lat="48.19483" lon="7.11989">
        <ele>882.59997558594</ele>
        <time>2021-05-23T13:08:12Z</time>
      </trkpt>
      <trkpt lat="48.19478" lon="7.11975">
        <ele>883.40002441406</ele>
        <time>2021-05-23T13:08:16Z</time>
      </trkpt>
      <trkpt lat="48.19477" lon="7.11971">
        <ele>883.40002441406</ele>
        <time>2021-05-23T13:08:17Z</time>
      </trkpt>
      <trkpt lat="48.19471" lon="7.11952">
        <ele>884.59997558594</ele>
        <time>2021-05-23T13:08:22Z</time>
      </trkpt>
      <trkpt lat="48.19467" lon="7.11941">
        <ele>885</ele>
        <time>2021-05-23T13:08:24Z</time>
      </trkpt>
      <trkpt lat="48.19464" lon="7.11931">
        <ele>885.59997558594</ele>
        <time>2021-05-23T13:08:26Z</time>
      </trkpt>
      <trkpt lat="48.1946" lon="7.11906">
        <ele>886.79998779297</ele>
        <time>2021-05-23T13:08:32Z</time>
      </trkpt>
      <trkpt lat="48.19452" lon="7.11883">
        <ele>887.79998779297</ele>
        <time>2021-05-23T13:08:37Z</time>
      </trkpt>
      <trkpt lat="48.1945" lon="7.11865">
        <ele>888.40002441406</ele>
        <time>2021-05-23T13:08:41Z</time>
      </trkpt>
      <trkpt lat="48.19445" lon="7.11854">
        <ele>889</ele>
        <time>2021-05-23T13:08:44Z</time>
      </trkpt>
      <trkpt lat="48.19437" lon="7.11836">
        <ele>889.79998779297</ele>
        <time>2021-05-23T13:08:49Z</time>
      </trkpt>
      <trkpt lat="48.19435" lon="7.11832">
        <ele>890</ele>
        <time>2021-05-23T13:08:50Z</time>
      </trkpt>
      <trkpt lat="48.19434" lon="7.11829">
        <ele>890.40002441406</ele>
        <time>2021-05-23T13:08:51Z</time>
      </trkpt>
      <trkpt lat="48.19427" lon="7.11817">
        <ele>891.59997558594</ele>
        <time>2021-05-23T13:08:55Z</time>
      </trkpt>
      <trkpt lat="48.19422" lon="7.11807">
        <ele>892.20001220703</ele>
        <time>2021-05-23T13:08:58Z</time>
      </trkpt>
      <trkpt lat="48.1942" lon="7.11803">
        <ele>892.59997558594</ele>
        <time>2021-05-23T13:08:59Z</time>
      </trkpt>
      <trkpt lat="48.19405" lon="7.11782">
        <ele>893.79998779297</ele>
        <time>2021-05-23T13:09:06Z</time>
      </trkpt>
      <trkpt lat="48.19393" lon="7.11768">
        <ele>894.79998779297</ele>
        <time>2021-05-23T13:09:11Z</time>
      </trkpt>
      <trkpt lat="48.19379" lon="7.11757">
        <ele>895.40002441406</ele>
        <time>2021-05-23T13:09:17Z</time>
      </trkpt>
      <trkpt lat="48.19372" lon="7.11751">
        <ele>896.40002441406</ele>
        <time>2021-05-23T13:09:20Z</time>
      </trkpt>
      <trkpt lat="48.19365" lon="7.11743">
        <ele>897.40002441406</ele>
        <time>2021-05-23T13:09:23Z</time>
      </trkpt>
      <trkpt lat="48.19362" lon="7.11737">
        <ele>897.59997558594</ele>
        <time>2021-05-23T13:09:25Z</time>
      </trkpt>
      <trkpt lat="48.19359" lon="7.11729">
        <ele>897.79998779297</ele>
        <time>2021-05-23T13:09:27Z</time>
      </trkpt>
      <trkpt lat="48.19357" lon="7.11725">
        <ele>898</ele>
        <time>2021-05-23T13:09:28Z</time>
      </trkpt>
      <trkpt lat="48.19353" lon="7.11709">
        <ele>899</ele>
        <time>2021-05-23T13:09:32Z</time>
      </trkpt>
      <trkpt lat="48.19352" lon="7.11699">
        <ele>899.59997558594</ele>
        <time>2021-05-23T13:09:34Z</time>
      </trkpt>
      <trkpt lat="48.19348" lon="7.11682">
        <ele>900.40002441406</ele>
        <time>2021-05-23T13:09:38Z</time>
      </trkpt>
      <trkpt lat="48.19344" lon="7.11665">
        <ele>901.20001220703</ele>
        <time>2021-05-23T13:09:41Z</time>
      </trkpt>
      <trkpt lat="48.19341" lon="7.11656">
        <ele>901.59997558594</ele>
        <time>2021-05-23T13:09:43Z</time>
      </trkpt>
      <trkpt lat="48.19342" lon="7.11635">
        <ele>903.20001220703</ele>
        <time>2021-05-23T13:09:48Z</time>
      </trkpt>
      <trkpt lat="48.1934" lon="7.11628">
        <ele>903.79998779297</ele>
        <time>2021-05-23T13:09:50Z</time>
      </trkpt>
      <trkpt lat="48.19339" lon="7.11617">
        <ele>904.59997558594</ele>
        <time>2021-05-23T13:09:53Z</time>
      </trkpt>
      <trkpt lat="48.19333" lon="7.11588">
        <ele>905.40002441406</ele>
        <time>2021-05-23T13:09:59Z</time>
      </trkpt>
      <trkpt lat="48.19331" lon="7.11579">
        <ele>905.79998779297</ele>
        <time>2021-05-23T13:10:01Z</time>
      </trkpt>
      <trkpt lat="48.19328" lon="7.11565">
        <ele>906.40002441406</ele>
        <time>2021-05-23T13:10:04Z</time>
      </trkpt>
      <trkpt lat="48.19325" lon="7.11553">
        <ele>906.79998779297</ele>
        <time>2021-05-23T13:10:07Z</time>
      </trkpt>
      <trkpt lat="48.19323" lon="7.11544">
        <ele>907.20001220703</ele>
        <time>2021-05-23T13:10:09Z</time>
      </trkpt>
      <trkpt lat="48.19316" lon="7.11523">
        <ele>907.79998779297</ele>
        <time>2021-05-23T13:10:14Z</time>
      </trkpt>
      <trkpt lat="48.19314" lon="7.11514">
        <ele>908.20001220703</ele>
        <time>2021-05-23T13:10:16Z</time>
      </trkpt>
      <trkpt lat="48.19308" lon="7.11498">
        <ele>909.20001220703</ele>
        <time>2021-05-23T13:10:20Z</time>
      </trkpt>
      <trkpt lat="48.19303" lon="7.11487">
        <ele>909.79998779297</ele>
        <time>2021-05-23T13:10:23Z</time>
      </trkpt>
      <trkpt lat="48.193" lon="7.11479">
        <ele>910.40002441406</ele>
        <time>2021-05-23T13:10:25Z</time>
      </trkpt>
      <trkpt lat="48.19294" lon="7.11466">
        <ele>911.40002441406</ele>
        <time>2021-05-23T13:10:30Z</time>
      </trkpt>
      <trkpt lat="48.19295" lon="7.11463">
        <ele>912.20001220703</ele>
        <time>2021-05-23T13:10:34Z</time>
      </trkpt>
      <trkpt lat="48.19291" lon="7.1145">
        <ele>912.59997558594</ele>
        <time>2021-05-23T13:15:12Z</time>
      </trkpt>
      <trkpt lat="48.19292" lon="7.11448">
        <ele>912.59997558594</ele>
        <time>2021-05-23T13:15:13Z</time>
      </trkpt>
      <trkpt lat="48.19298" lon="7.11438">
        <ele>912.59997558594</ele>
        <time>2021-05-23T13:15:18Z</time>
      </trkpt>
      <trkpt lat="48.19299" lon="7.11436">
        <ele>912.59997558594</ele>
        <time>2021-05-23T13:15:19Z</time>
      </trkpt>
      <trkpt lat="48.19301" lon="7.11432">
        <ele>912.59997558594</ele>
        <time>2021-05-23T13:15:21Z</time>
      </trkpt>
      <trkpt lat="48.19299" lon="7.11429">
        <ele>912.59997558594</ele>
        <time>2021-05-23T13:15:23Z</time>
      </trkpt>
      <trkpt lat="48.19295" lon="7.11434">
        <ele>912.59997558594</ele>
        <time>2021-05-23T13:15:27Z</time>
      </trkpt>
      <trkpt lat="48.1929" lon="7.11441">
        <ele>912.59997558594</ele>
        <time>2021-05-23T13:15:31Z</time>
      </trkpt>
      <trkpt lat="48.19287" lon="7.11439">
        <ele>912.59997558594</ele>
        <time>2021-05-23T13:15:33Z</time>
      </trkpt>
      <trkpt lat="48.1928" lon="7.11427">
        <ele>913.40002441406</ele>
        <time>2021-05-23T13:15:40Z</time>
      </trkpt>
      <trkpt lat="48.19268" lon="7.11409">
        <ele>914</ele>
        <time>2021-05-23T13:15:50Z</time>
      </trkpt>
      <trkpt lat="48.19263" lon="7.11403">
        <ele>914.20001220703</ele>
        <time>2021-05-23T13:15:55Z</time>
      </trkpt>
      <trkpt lat="48.19261" lon="7.11401">
        <ele>914.20001220703</ele>
        <time>2021-05-23T13:15:57Z</time>
      </trkpt>
      <trkpt lat="48.19257" lon="7.11396">
        <ele>914.20001220703</ele>
        <time>2021-05-23T13:16:02Z</time>
      </trkpt>
      <trkpt lat="48.19256" lon="7.11397">
        <ele>914.20001220703</ele>
        <time>2021-05-23T13:16:03Z</time>
      </trkpt>
      <trkpt lat="48.19258" lon="7.11414">
        <ele>914.20001220703</ele>
        <time>2021-05-23T13:16:08Z</time>
      </trkpt>
      <trkpt lat="48.19269" lon="7.11432">
        <ele>914</ele>
        <time>2021-05-23T13:16:13Z</time>
      </trkpt>
      <trkpt lat="48.1928" lon="7.11446">
        <ele>913.40002441406</ele>
        <time>2021-05-23T13:16:18Z</time>
      </trkpt>
      <trkpt lat="48.19288" lon="7.11451">
        <ele>912.59997558594</ele>
        <time>2021-05-23T13:16:23Z</time>
      </trkpt>
      <trkpt lat="48.19289" lon="7.11452">
        <ele>912.40002441406</ele>
        <time>2021-05-23T13:16:24Z</time>
      </trkpt>
      <trkpt lat="48.1929" lon="7.11456">
        <ele>912.20001220703</ele>
        <time>2021-05-23T13:16:26Z</time>
      </trkpt>
      <trkpt lat="48.19291" lon="7.11458">
        <ele>912</ele>
        <time>2021-05-23T13:16:27Z</time>
      </trkpt>
      <trkpt lat="48.19291" lon="7.11458">
        <ele>911.79998779297</ele>
        <time>2021-05-23T13:16:30Z</time>
      </trkpt>
      <trkpt lat="48.19289" lon="7.11457">
        <ele>913</ele>
        <time>2021-05-23T13:23:21Z</time>
      </trkpt>
      <trkpt lat="48.19287" lon="7.11454">
        <ele>913</ele>
        <time>2021-05-23T13:23:22Z</time>
      </trkpt>
      <trkpt lat="48.19276" lon="7.11434">
        <ele>913.40002441406</ele>
        <time>2021-05-23T13:23:27Z</time>
      </trkpt>
      <trkpt lat="48.19268" lon="7.11417">
        <ele>913.79998779297</ele>
        <time>2021-05-23T13:23:31Z</time>
      </trkpt>
      <trkpt lat="48.19264" lon="7.11408">
        <ele>914.20001220703</ele>
        <time>2021-05-23T13:23:33Z</time>
      </trkpt>
      <trkpt lat="48.19262" lon="7.11405">
        <ele>914.20001220703</ele>
        <time>2021-05-23T13:23:34Z</time>
      </trkpt>
      <trkpt lat="48.19254" lon="7.11382">
        <ele>915</ele>
        <time>2021-05-23T13:23:39Z</time>
      </trkpt>
      <trkpt lat="48.19254" lon="7.11377">
        <ele>915.20001220703</ele>
        <time>2021-05-23T13:23:40Z</time>
      </trkpt>
      <trkpt lat="48.19257" lon="7.1135">
        <ele>916.59997558594</ele>
        <time>2021-05-23T13:23:46Z</time>
      </trkpt>
      <trkpt lat="48.19259" lon="7.11338">
        <ele>917.79998779297</ele>
        <time>2021-05-23T13:23:49Z</time>
      </trkpt>
      <trkpt lat="48.19259" lon="7.11326">
        <ele>918.79998779297</ele>
        <time>2021-05-23T13:23:52Z</time>
      </trkpt>
      <trkpt lat="48.19259" lon="7.11321">
        <ele>919.59997558594</ele>
        <time>2021-05-23T13:23:53Z</time>
      </trkpt>
      <trkpt lat="48.1926" lon="7.11313">
        <ele>920.20001220703</ele>
        <time>2021-05-23T13:23:55Z</time>
      </trkpt>
      <trkpt lat="48.1926" lon="7.11293">
        <ele>921.20001220703</ele>
        <time>2021-05-23T13:24:00Z</time>
      </trkpt>
      <trkpt lat="48.1926" lon="7.11281">
        <ele>922</ele>
        <time>2021-05-23T13:24:03Z</time>
      </trkpt>
      <trkpt lat="48.1926" lon="7.11277">
        <ele>922.40002441406</ele>
        <time>2021-05-23T13:24:04Z</time>
      </trkpt>
      <trkpt lat="48.19259" lon="7.11263">
        <ele>923.40002441406</ele>
        <time>2021-05-23T13:24:08Z</time>
      </trkpt>
      <trkpt lat="48.19258" lon="7.11249">
        <ele>924.40002441406</ele>
        <time>2021-05-23T13:24:12Z</time>
      </trkpt>
      <trkpt lat="48.19255" lon="7.11229">
        <ele>925.59997558594</ele>
        <time>2021-05-23T13:24:18Z</time>
      </trkpt>
      <trkpt lat="48.19255" lon="7.11225">
        <ele>925.59997558594</ele>
        <time>2021-05-23T13:24:19Z</time>
      </trkpt>
      <trkpt lat="48.19251" lon="7.11206">
        <ele>926.59997558594</ele>
        <time>2021-05-23T13:24:25Z</time>
      </trkpt>
      <trkpt lat="48.19249" lon="7.11193">
        <ele>927.20001220703</ele>
        <time>2021-05-23T13:24:29Z</time>
      </trkpt>
      <trkpt lat="48.19246" lon="7.11179">
        <ele>927.79998779297</ele>
        <time>2021-05-23T13:24:33Z</time>
      </trkpt>
      <trkpt lat="48.19243" lon="7.11165">
        <ele>928.59997558594</ele>
        <time>2021-05-23T13:24:37Z</time>
      </trkpt>
      <trkpt lat="48.19241" lon="7.11157">
        <ele>928.79998779297</ele>
        <time>2021-05-23T13:24:39Z</time>
      </trkpt>
      <trkpt lat="48.19237" lon="7.11135">
        <ele>930</ele>
        <time>2021-05-23T13:24:45Z</time>
      </trkpt>
      <trkpt lat="48.19236" lon="7.11132">
        <ele>930.40002441406</ele>
        <time>2021-05-23T13:24:46Z</time>
      </trkpt>
      <trkpt lat="48.19235" lon="7.11118">
        <ele>931.20001220703</ele>
        <time>2021-05-23T13:24:50Z</time>
      </trkpt>
      <trkpt lat="48.19233" lon="7.11108">
        <ele>932</ele>
        <time>2021-05-23T13:24:53Z</time>
      </trkpt>
      <trkpt lat="48.19233" lon="7.11104">
        <ele>932.20001220703</ele>
        <time>2021-05-23T13:24:54Z</time>
      </trkpt>
      <trkpt lat="48.19231" lon="7.11088">
        <ele>933.40002441406</ele>
        <time>2021-05-23T13:24:58Z</time>
      </trkpt>
      <trkpt lat="48.1923" lon="7.11081">
        <ele>934</ele>
        <time>2021-05-23T13:25:00Z</time>
      </trkpt>
      <trkpt lat="48.19229" lon="7.11075">
        <ele>935</ele>
        <time>2021-05-23T13:25:02Z</time>
      </trkpt>
      <trkpt lat="48.19228" lon="7.11049">
        <ele>936.20001220703</ele>
        <time>2021-05-23T13:25:09Z</time>
      </trkpt>
      <trkpt lat="48.19226" lon="7.11039">
        <ele>937.20001220703</ele>
        <time>2021-05-23T13:25:12Z</time>
      </trkpt>
      <trkpt lat="48.19224" lon="7.11024">
        <ele>938.59997558594</ele>
        <time>2021-05-23T13:25:16Z</time>
      </trkpt>
      <trkpt lat="48.19222" lon="7.11012">
        <ele>939.20001220703</ele>
        <time>2021-05-23T13:25:19Z</time>
      </trkpt>
      <trkpt lat="48.19219" lon="7.11001">
        <ele>939.59997558594</ele>
        <time>2021-05-23T13:25:22Z</time>
      </trkpt>
      <trkpt lat="48.19211" lon="7.10984">
        <ele>940.79998779297</ele>
        <time>2021-05-23T13:25:27Z</time>
      </trkpt>
      <trkpt lat="48.19201" lon="7.10963">
        <ele>941.79998779297</ele>
        <time>2021-05-23T13:25:33Z</time>
      </trkpt>
      <trkpt lat="48.19195" lon="7.10952">
        <ele>942.40002441406</ele>
        <time>2021-05-23T13:25:36Z</time>
      </trkpt>
      <trkpt lat="48.19179" lon="7.10928">
        <ele>943</ele>
        <time>2021-05-23T13:25:43Z</time>
      </trkpt>
      <trkpt lat="48.19177" lon="7.10925">
        <ele>943</ele>
        <time>2021-05-23T13:25:44Z</time>
      </trkpt>
      <trkpt lat="48.19165" lon="7.10901">
        <ele>944.20001220703</ele>
        <time>2021-05-23T13:25:51Z</time>
      </trkpt>
      <trkpt lat="48.19164" lon="7.10896">
        <ele>944.20001220703</ele>
        <time>2021-05-23T13:25:52Z</time>
      </trkpt>
      <trkpt lat="48.19168" lon="7.10882">
        <ele>945.40002441406</ele>
        <time>2021-05-23T13:25:56Z</time>
      </trkpt>
      <trkpt lat="48.1917" lon="7.10879">
        <ele>945.79998779297</ele>
        <time>2021-05-23T13:25:57Z</time>
      </trkpt>
      <trkpt lat="48.19175" lon="7.10881">
        <ele>946.40002441406</ele>
        <time>2021-05-23T13:25:59Z</time>
      </trkpt>
      <trkpt lat="48.1918" lon="7.10885">
        <ele>946.79998779297</ele>
        <time>2021-05-23T13:26:01Z</time>
      </trkpt>
      <trkpt lat="48.19185" lon="7.10894">
        <ele>947.59997558594</ele>
        <time>2021-05-23T13:26:03Z</time>
      </trkpt>
      <trkpt lat="48.19193" lon="7.10911">
        <ele>949</ele>
        <time>2021-05-23T13:26:07Z</time>
      </trkpt>
      <trkpt lat="48.19206" lon="7.10934">
        <ele>950</ele>
        <time>2021-05-23T13:26:13Z</time>
      </trkpt>
      <trkpt lat="48.19219" lon="7.10954">
        <ele>951</ele>
        <time>2021-05-23T13:26:19Z</time>
      </trkpt>
      <trkpt lat="48.19221" lon="7.10958">
        <ele>951.20001220703</ele>
        <time>2021-05-23T13:26:20Z</time>
      </trkpt>
      <trkpt lat="48.1923" lon="7.10976">
        <ele>952.40002441406</ele>
        <time>2021-05-23T13:26:25Z</time>
      </trkpt>
      <trkpt lat="48.19235" lon="7.10987">
        <ele>952.59997558594</ele>
        <time>2021-05-23T13:26:28Z</time>
      </trkpt>
      <trkpt lat="48.19246" lon="7.11009">
        <ele>953.59997558594</ele>
        <time>2021-05-23T13:26:34Z</time>
      </trkpt>
      <trkpt lat="48.19249" lon="7.11017">
        <ele>953.79998779297</ele>
        <time>2021-05-23T13:26:36Z</time>
      </trkpt>
      <trkpt lat="48.19254" lon="7.11031">
        <ele>954.40002441406</ele>
        <time>2021-05-23T13:26:40Z</time>
      </trkpt>
      <trkpt lat="48.19256" lon="7.11038">
        <ele>954.79998779297</ele>
        <time>2021-05-23T13:26:42Z</time>
      </trkpt>
      <trkpt lat="48.1926" lon="7.11052">
        <ele>955.40002441406</ele>
        <time>2021-05-23T13:26:45Z</time>
      </trkpt>
      <trkpt lat="48.19265" lon="7.11071">
        <ele>956.59997558594</ele>
        <time>2021-05-23T13:26:50Z</time>
      </trkpt>
      <trkpt lat="48.19266" lon="7.11074">
        <ele>957</ele>
        <time>2021-05-23T13:26:51Z</time>
      </trkpt>
      <trkpt lat="48.19271" lon="7.1109">
        <ele>957.79998779297</ele>
        <time>2021-05-23T13:26:55Z</time>
      </trkpt>
      <trkpt lat="48.19278" lon="7.11109">
        <ele>959</ele>
        <time>2021-05-23T13:27:00Z</time>
      </trkpt>
      <trkpt lat="48.19287" lon="7.1113">
        <ele>960.20001220703</ele>
        <time>2021-05-23T13:27:06Z</time>
      </trkpt>
      <trkpt lat="48.19293" lon="7.11139">
        <ele>961</ele>
        <time>2021-05-23T13:27:09Z</time>
      </trkpt>
      <trkpt lat="48.19296" lon="7.11143">
        <ele>961.20001220703</ele>
        <time>2021-05-23T13:27:10Z</time>
      </trkpt>
      <trkpt lat="48.19306" lon="7.11157">
        <ele>962.20001220703</ele>
        <time>2021-05-23T13:27:15Z</time>
      </trkpt>
      <trkpt lat="48.19312" lon="7.11164">
        <ele>962.79998779297</ele>
        <time>2021-05-23T13:27:18Z</time>
      </trkpt>
      <trkpt lat="48.19316" lon="7.11169">
        <ele>963.20001220703</ele>
        <time>2021-05-23T13:27:20Z</time>
      </trkpt>
      <trkpt lat="48.19328" lon="7.1118">
        <ele>964.59997558594</ele>
        <time>2021-05-23T13:27:26Z</time>
      </trkpt>
      <trkpt lat="48.19342" lon="7.1119">
        <ele>965.59997558594</ele>
        <time>2021-05-23T13:27:31Z</time>
      </trkpt>
      <trkpt lat="48.19347" lon="7.11192">
        <ele>966.20001220703</ele>
        <time>2021-05-23T13:27:33Z</time>
      </trkpt>
      <trkpt lat="48.19353" lon="7.11194">
        <ele>966.79998779297</ele>
        <time>2021-05-23T13:27:35Z</time>
      </trkpt>
      <trkpt lat="48.19356" lon="7.11195">
        <ele>967.20001220703</ele>
        <time>2021-05-23T13:27:36Z</time>
      </trkpt>
      <trkpt lat="48.19367" lon="7.11197">
        <ele>968</ele>
        <time>2021-05-23T13:27:40Z</time>
      </trkpt>
      <trkpt lat="48.19378" lon="7.11197">
        <ele>968.79998779297</ele>
        <time>2021-05-23T13:27:44Z</time>
      </trkpt>
      <trkpt lat="48.19381" lon="7.11197">
        <ele>969</ele>
        <time>2021-05-23T13:27:45Z</time>
      </trkpt>
      <trkpt lat="48.19402" lon="7.11195">
        <ele>970</ele>
        <time>2021-05-23T13:27:53Z</time>
      </trkpt>
      <trkpt lat="48.19415" lon="7.11192">
        <ele>971</ele>
        <time>2021-05-23T13:27:58Z</time>
      </trkpt>
      <trkpt lat="48.19423" lon="7.11189">
        <ele>971.59997558594</ele>
        <time>2021-05-23T13:28:01Z</time>
      </trkpt>
      <trkpt lat="48.19433" lon="7.11183">
        <ele>972.40002441406</ele>
        <time>2021-05-23T13:28:05Z</time>
      </trkpt>
      <trkpt lat="48.19445" lon="7.11174">
        <ele>973.40002441406</ele>
        <time>2021-05-23T13:28:10Z</time>
      </trkpt>
      <trkpt lat="48.1945" lon="7.1117">
        <ele>973.79998779297</ele>
        <time>2021-05-23T13:28:12Z</time>
      </trkpt>
      <trkpt lat="48.19458" lon="7.11159">
        <ele>974.40002441406</ele>
        <time>2021-05-23T13:28:16Z</time>
      </trkpt>
      <trkpt lat="48.19463" lon="7.1115">
        <ele>974.79998779297</ele>
        <time>2021-05-23T13:28:19Z</time>
      </trkpt>
      <trkpt lat="48.19471" lon="7.11138">
        <ele>975.59997558594</ele>
        <time>2021-05-23T13:28:23Z</time>
      </trkpt>
      <trkpt lat="48.19477" lon="7.11123">
        <ele>976</ele>
        <time>2021-05-23T13:28:27Z</time>
      </trkpt>
      <trkpt lat="48.19482" lon="7.11112">
        <ele>976.59997558594</ele>
        <time>2021-05-23T13:28:30Z</time>
      </trkpt>
      <trkpt lat="48.19487" lon="7.11101">
        <ele>977</ele>
        <time>2021-05-23T13:28:33Z</time>
      </trkpt>
      <trkpt lat="48.19491" lon="7.1109">
        <ele>978</ele>
        <time>2021-05-23T13:28:36Z</time>
      </trkpt>
      <trkpt lat="48.19497" lon="7.1107">
        <ele>978.79998779297</ele>
        <time>2021-05-23T13:28:41Z</time>
      </trkpt>
      <trkpt lat="48.19498" lon="7.11066">
        <ele>979</ele>
        <time>2021-05-23T13:28:42Z</time>
      </trkpt>
      <trkpt lat="48.19508" lon="7.1104">
        <ele>980</ele>
        <time>2021-05-23T13:28:48Z</time>
      </trkpt>
      <trkpt lat="48.19512" lon="7.11031">
        <ele>980.59997558594</ele>
        <time>2021-05-23T13:28:50Z</time>
      </trkpt>
      <trkpt lat="48.19516" lon="7.11023">
        <ele>980.79998779297</ele>
        <time>2021-05-23T13:28:52Z</time>
      </trkpt>
      <trkpt lat="48.19532" lon="7.11004">
        <ele>981.20001220703</ele>
        <time>2021-05-23T13:28:58Z</time>
      </trkpt>
      <trkpt lat="48.19558" lon="7.10993">
        <ele>982.40002441406</ele>
        <time>2021-05-23T13:29:06Z</time>
      </trkpt>
      <trkpt lat="48.19573" lon="7.10992">
        <ele>983.20001220703</ele>
        <time>2021-05-23T13:29:11Z</time>
      </trkpt>
      <trkpt lat="48.19581" lon="7.10992">
        <ele>983.40002441406</ele>
        <time>2021-05-23T13:29:13Z</time>
      </trkpt>
      <trkpt lat="48.19598" lon="7.10991">
        <ele>984.59997558594</ele>
        <time>2021-05-23T13:29:18Z</time>
      </trkpt>
      <trkpt lat="48.19615" lon="7.10987">
        <ele>985.59997558594</ele>
        <time>2021-05-23T13:29:23Z</time>
      </trkpt>
      <trkpt lat="48.19619" lon="7.10986">
        <ele>985.59997558594</ele>
        <time>2021-05-23T13:29:24Z</time>
      </trkpt>
      <trkpt lat="48.19639" lon="7.1097">
        <ele>986.79998779297</ele>
        <time>2021-05-23T13:29:31Z</time>
      </trkpt>
      <trkpt lat="48.19652" lon="7.10957">
        <ele>987.79998779297</ele>
        <time>2021-05-23T13:29:36Z</time>
      </trkpt>
      <trkpt lat="48.19657" lon="7.10951">
        <ele>988.20001220703</ele>
        <time>2021-05-23T13:29:38Z</time>
      </trkpt>
      <trkpt lat="48.19665" lon="7.10942">
        <ele>989</ele>
        <time>2021-05-23T13:29:41Z</time>
      </trkpt>
      <trkpt lat="48.19672" lon="7.10941">
        <ele>989.40002441406</ele>
        <time>2021-05-23T13:29:44Z</time>
      </trkpt>
      <trkpt lat="48.19679" lon="7.10942">
        <ele>990</ele>
        <time>2021-05-23T13:29:46Z</time>
      </trkpt>
      <trkpt lat="48.19696" lon="7.10946">
        <ele>991</ele>
        <time>2021-05-23T13:29:51Z</time>
      </trkpt>
      <trkpt lat="48.19702" lon="7.10948">
        <ele>991.20001220703</ele>
        <time>2021-05-23T13:29:53Z</time>
      </trkpt>
      <trkpt lat="48.19725" lon="7.10958">
        <ele>992.20001220703</ele>
        <time>2021-05-23T13:30:00Z</time>
      </trkpt>
      <trkpt lat="48.19745" lon="7.10966">
        <ele>993.20001220703</ele>
        <time>2021-05-23T13:30:06Z</time>
      </trkpt>
      <trkpt lat="48.19752" lon="7.10968">
        <ele>993.59997558594</ele>
        <time>2021-05-23T13:30:08Z</time>
      </trkpt>
      <trkpt lat="48.19767" lon="7.10972">
        <ele>994</ele>
        <time>2021-05-23T13:30:13Z</time>
      </trkpt>
      <trkpt lat="48.19774" lon="7.10972">
        <ele>994.40002441406</ele>
        <time>2021-05-23T13:30:15Z</time>
      </trkpt>
      <trkpt lat="48.1978" lon="7.10974">
        <ele>994.59997558594</ele>
        <time>2021-05-23T13:30:17Z</time>
      </trkpt>
      <trkpt lat="48.19789" lon="7.10976">
        <ele>995.59997558594</ele>
        <time>2021-05-23T13:30:20Z</time>
      </trkpt>
      <trkpt lat="48.19809" lon="7.10978">
        <ele>996.59997558594</ele>
        <time>2021-05-23T13:30:26Z</time>
      </trkpt>
      <trkpt lat="48.19812" lon="7.10978">
        <ele>996.59997558594</ele>
        <time>2021-05-23T13:30:27Z</time>
      </trkpt>
      <trkpt lat="48.19828" lon="7.10977">
        <ele>997.40002441406</ele>
        <time>2021-05-23T13:30:32Z</time>
      </trkpt>
      <trkpt lat="48.19831" lon="7.10977">
        <ele>997.79998779297</ele>
        <time>2021-05-23T13:30:33Z</time>
      </trkpt>
      <trkpt lat="48.19848" lon="7.10976">
        <ele>998.79998779297</ele>
        <time>2021-05-23T13:30:38Z</time>
      </trkpt>
      <trkpt lat="48.19851" lon="7.10976">
        <ele>998.79998779297</ele>
        <time>2021-05-23T13:30:39Z</time>
      </trkpt>
      <trkpt lat="48.19861" lon="7.10977">
        <ele>999.79998779297</ele>
        <time>2021-05-23T13:30:42Z</time>
      </trkpt>
      <trkpt lat="48.19873" lon="7.10981">
        <ele>1000.4000244141</ele>
        <time>2021-05-23T13:30:46Z</time>
      </trkpt>
      <trkpt lat="48.19882" lon="7.10986">
        <ele>1001</ele>
        <time>2021-05-23T13:30:49Z</time>
      </trkpt>
      <trkpt lat="48.19893" lon="7.10995">
        <ele>1002</ele>
        <time>2021-05-23T13:30:53Z</time>
      </trkpt>
      <trkpt lat="48.19911" lon="7.11004">
        <ele>1003.4000244141</ele>
        <time>2021-05-23T13:30:59Z</time>
      </trkpt>
      <trkpt lat="48.19917" lon="7.11005">
        <ele>1003.799987793</ele>
        <time>2021-05-23T13:31:01Z</time>
      </trkpt>
      <trkpt lat="48.19923" lon="7.11002">
        <ele>1004.5999755859</ele>
        <time>2021-05-23T13:31:03Z</time>
      </trkpt>
      <trkpt lat="48.19928" lon="7.10997">
        <ele>1005</ele>
        <time>2021-05-23T13:31:05Z</time>
      </trkpt>
      <trkpt lat="48.19934" lon="7.10982">
        <ele>1005.5999755859</ele>
        <time>2021-05-23T13:31:09Z</time>
      </trkpt>
      <trkpt lat="48.19937" lon="7.10973">
        <ele>1006.200012207</ele>
        <time>2021-05-23T13:31:11Z</time>
      </trkpt>
      <trkpt lat="48.19938" lon="7.10967">
        <ele>1006.799987793</ele>
        <time>2021-05-23T13:31:12Z</time>
      </trkpt>
      <trkpt lat="48.19935" lon="7.10946">
        <ele>1007.799987793</ele>
        <time>2021-05-23T13:31:16Z</time>
      </trkpt>
      <trkpt lat="48.19936" lon="7.10941">
        <ele>1008.200012207</ele>
        <time>2021-05-23T13:31:17Z</time>
      </trkpt>
      <trkpt lat="48.19933" lon="7.10916">
        <ele>1009</ele>
        <time>2021-05-23T13:31:22Z</time>
      </trkpt>
      <trkpt lat="48.19933" lon="7.10891">
        <ele>1010</ele>
        <time>2021-05-23T13:31:27Z</time>
      </trkpt>
      <trkpt lat="48.19932" lon="7.10882">
        <ele>1010.5999755859</ele>
        <time>2021-05-23T13:31:29Z</time>
      </trkpt>
      <trkpt lat="48.1993" lon="7.1087">
        <ele>1011.200012207</ele>
        <time>2021-05-23T13:31:32Z</time>
      </trkpt>
      <trkpt lat="48.19929" lon="7.10855">
        <ele>1012.5999755859</ele>
        <time>2021-05-23T13:31:36Z</time>
      </trkpt>
      <trkpt lat="48.19928" lon="7.10851">
        <ele>1012.5999755859</ele>
        <time>2021-05-23T13:31:37Z</time>
      </trkpt>
      <trkpt lat="48.19928" lon="7.10842">
        <ele>1013.200012207</ele>
        <time>2021-05-23T13:31:39Z</time>
      </trkpt>
      <trkpt lat="48.19928" lon="7.10837">
        <ele>1013.799987793</ele>
        <time>2021-05-23T13:31:40Z</time>
      </trkpt>
      <trkpt lat="48.19929" lon="7.10819">
        <ele>1015</ele>
        <time>2021-05-23T13:31:45Z</time>
      </trkpt>
      <trkpt lat="48.19929" lon="7.10803">
        <ele>1016</ele>
        <time>2021-05-23T13:31:49Z</time>
      </trkpt>
      <trkpt lat="48.19931" lon="7.10786">
        <ele>1017</ele>
        <time>2021-05-23T13:31:53Z</time>
      </trkpt>
      <trkpt lat="48.19932" lon="7.10778">
        <ele>1017.5999755859</ele>
        <time>2021-05-23T13:31:55Z</time>
      </trkpt>
      <trkpt lat="48.19933" lon="7.10769">
        <ele>1018</ele>
        <time>2021-05-23T13:31:57Z</time>
      </trkpt>
      <trkpt lat="48.19938" lon="7.10737">
        <ele>1019.200012207</ele>
        <time>2021-05-23T13:32:04Z</time>
      </trkpt>
      <trkpt lat="48.1994" lon="7.10721">
        <ele>1019.799987793</ele>
        <time>2021-05-23T13:32:07Z</time>
      </trkpt>
      <trkpt lat="48.1994" lon="7.10707">
        <ele>1020.200012207</ele>
        <time>2021-05-23T13:32:10Z</time>
      </trkpt>
      <trkpt lat="48.19938" lon="7.10702">
        <ele>1020.4000244141</ele>
        <time>2021-05-23T13:32:11Z</time>
      </trkpt>
      <trkpt lat="48.1992" lon="7.10686">
        <ele>1021.4000244141</ele>
        <time>2021-05-23T13:32:17Z</time>
      </trkpt>
      <trkpt lat="48.19913" lon="7.10681">
        <ele>1021.5999755859</ele>
        <time>2021-05-23T13:32:19Z</time>
      </trkpt>
      <trkpt lat="48.19898" lon="7.10672">
        <ele>1022.4000244141</ele>
        <time>2021-05-23T13:32:24Z</time>
      </trkpt>
      <trkpt lat="48.19884" lon="7.10663">
        <ele>1023.200012207</ele>
        <time>2021-05-23T13:32:29Z</time>
      </trkpt>
      <trkpt lat="48.19881" lon="7.10662">
        <ele>1023.5999755859</ele>
        <time>2021-05-23T13:32:30Z</time>
      </trkpt>
      <trkpt lat="48.19868" lon="7.10653">
        <ele>1024.5999755859</ele>
        <time>2021-05-23T13:32:35Z</time>
      </trkpt>
      <trkpt lat="48.19853" lon="7.10645">
        <ele>1025.5999755859</ele>
        <time>2021-05-23T13:32:40Z</time>
      </trkpt>
      <trkpt lat="48.19849" lon="7.10643">
        <ele>1025.8000488281</ele>
        <time>2021-05-23T13:32:41Z</time>
      </trkpt>
      <trkpt lat="48.19833" lon="7.10636">
        <ele>1027</ele>
        <time>2021-05-23T13:32:46Z</time>
      </trkpt>
      <trkpt lat="48.19821" lon="7.1063">
        <ele>1028</ele>
        <time>2021-05-23T13:32:50Z</time>
      </trkpt>
      <trkpt lat="48.19817" lon="7.10628">
        <ele>1028.1999511719</ele>
        <time>2021-05-23T13:32:51Z</time>
      </trkpt>
      <trkpt lat="48.19806" lon="7.1062">
        <ele>1029.1999511719</ele>
        <time>2021-05-23T13:32:55Z</time>
      </trkpt>
      <trkpt lat="48.19802" lon="7.10619">
        <ele>1029.5999755859</ele>
        <time>2021-05-23T13:32:56Z</time>
      </trkpt>
      <trkpt lat="48.19791" lon="7.10612">
        <ele>1030.5999755859</ele>
        <time>2021-05-23T13:33:00Z</time>
      </trkpt>
      <trkpt lat="48.19772" lon="7.106">
        <ele>1031.4000244141</ele>
        <time>2021-05-23T13:33:06Z</time>
      </trkpt>
      <trkpt lat="48.19769" lon="7.10598">
        <ele>1031.8000488281</ele>
        <time>2021-05-23T13:33:07Z</time>
      </trkpt>
      <trkpt lat="48.19761" lon="7.10593">
        <ele>1032.4000244141</ele>
        <time>2021-05-23T13:33:10Z</time>
      </trkpt>
      <trkpt lat="48.19753" lon="7.10586">
        <ele>1033.4000244141</ele>
        <time>2021-05-23T13:33:13Z</time>
      </trkpt>
      <trkpt lat="48.19748" lon="7.10579">
        <ele>1033.8000488281</ele>
        <time>2021-05-23T13:33:15Z</time>
      </trkpt>
      <trkpt lat="48.19738" lon="7.10566">
        <ele>1034.5999755859</ele>
        <time>2021-05-23T13:33:19Z</time>
      </trkpt>
      <trkpt lat="48.19729" lon="7.1055">
        <ele>1035.5999755859</ele>
        <time>2021-05-23T13:33:23Z</time>
      </trkpt>
      <trkpt lat="48.19727" lon="7.10546">
        <ele>1035.5999755859</ele>
        <time>2021-05-23T13:33:24Z</time>
      </trkpt>
      <trkpt lat="48.1972" lon="7.10536">
        <ele>1036.5999755859</ele>
        <time>2021-05-23T13:33:27Z</time>
      </trkpt>
      <trkpt lat="48.19709" lon="7.10519">
        <ele>1037.5999755859</ele>
        <time>2021-05-23T13:33:32Z</time>
      </trkpt>
      <trkpt lat="48.19703" lon="7.10507">
        <ele>1038.4000244141</ele>
        <time>2021-05-23T13:33:35Z</time>
      </trkpt>
      <trkpt lat="48.19698" lon="7.105">
        <ele>1038.8000488281</ele>
        <time>2021-05-23T13:33:37Z</time>
      </trkpt>
      <trkpt lat="48.19687" lon="7.10482">
        <ele>1039.8000488281</ele>
        <time>2021-05-23T13:33:42Z</time>
      </trkpt>
      <trkpt lat="48.19679" lon="7.10467">
        <ele>1040.8000488281</ele>
        <time>2021-05-23T13:33:46Z</time>
      </trkpt>
      <trkpt lat="48.1967" lon="7.10452">
        <ele>1042</ele>
        <time>2021-05-23T13:33:50Z</time>
      </trkpt>
      <trkpt lat="48.19661" lon="7.10439">
        <ele>1043</ele>
        <time>2021-05-23T13:33:54Z</time>
      </trkpt>
      <trkpt lat="48.19657" lon="7.10432">
        <ele>1043.4000244141</ele>
        <time>2021-05-23T13:33:56Z</time>
      </trkpt>
      <trkpt lat="48.19647" lon="7.10421">
        <ele>1044</ele>
        <time>2021-05-23T13:34:00Z</time>
      </trkpt>
      <trkpt lat="48.19636" lon="7.10409">
        <ele>1045.1999511719</ele>
        <time>2021-05-23T13:34:04Z</time>
      </trkpt>
      <trkpt lat="48.19627" lon="7.10402">
        <ele>1045.8000488281</ele>
        <time>2021-05-23T13:34:07Z</time>
      </trkpt>
      <trkpt lat="48.19617" lon="7.10398">
        <ele>1046.1999511719</ele>
        <time>2021-05-23T13:34:10Z</time>
      </trkpt>
      <trkpt lat="48.19603" lon="7.10392">
        <ele>1047.1999511719</ele>
        <time>2021-05-23T13:34:14Z</time>
      </trkpt>
      <trkpt lat="48.19596" lon="7.1039">
        <ele>1047.5999755859</ele>
        <time>2021-05-23T13:34:16Z</time>
      </trkpt>
      <trkpt lat="48.19571" lon="7.10379">
        <ele>1048.4000244141</ele>
        <time>2021-05-23T13:34:23Z</time>
      </trkpt>
      <trkpt lat="48.19568" lon="7.10377">
        <ele>1048.4000244141</ele>
        <time>2021-05-23T13:34:24Z</time>
      </trkpt>
      <trkpt lat="48.1954" lon="7.10354">
        <ele>1049.5999755859</ele>
        <time>2021-05-23T13:34:32Z</time>
      </trkpt>
      <trkpt lat="48.19537" lon="7.1035">
        <ele>1049.5999755859</ele>
        <time>2021-05-23T13:34:33Z</time>
      </trkpt>
      <trkpt lat="48.19513" lon="7.10327">
        <ele>1050.4000244141</ele>
        <time>2021-05-23T13:34:40Z</time>
      </trkpt>
      <trkpt lat="48.1951" lon="7.10324">
        <ele>1050.5999755859</ele>
        <time>2021-05-23T13:34:41Z</time>
      </trkpt>
      <trkpt lat="48.19486" lon="7.10299">
        <ele>1051.8000488281</ele>
        <time>2021-05-23T13:34:48Z</time>
      </trkpt>
      <trkpt lat="48.19476" lon="7.10288">
        <ele>1052.4000244141</ele>
        <time>2021-05-23T13:34:51Z</time>
      </trkpt>
      <trkpt lat="48.19467" lon="7.10278">
        <ele>1052.8000488281</ele>
        <time>2021-05-23T13:34:54Z</time>
      </trkpt>
      <trkpt lat="48.1945" lon="7.10259">
        <ele>1053.4000244141</ele>
        <time>2021-05-23T13:34:59Z</time>
      </trkpt>
      <trkpt lat="48.19441" lon="7.10247">
        <ele>1054</ele>
        <time>2021-05-23T13:35:02Z</time>
      </trkpt>
      <trkpt lat="48.19425" lon="7.10229">
        <ele>1054.5999755859</ele>
        <time>2021-05-23T13:35:07Z</time>
      </trkpt>
      <trkpt lat="48.19418" lon="7.10222">
        <ele>1055</ele>
        <time>2021-05-23T13:35:09Z</time>
      </trkpt>
      <trkpt lat="48.19402" lon="7.10202">
        <ele>1056.1999511719</ele>
        <time>2021-05-23T13:35:14Z</time>
      </trkpt>
      <trkpt lat="48.19399" lon="7.10199">
        <ele>1056.4000244141</ele>
        <time>2021-05-23T13:35:15Z</time>
      </trkpt>
      <trkpt lat="48.19383" lon="7.1018">
        <ele>1057.4000244141</ele>
        <time>2021-05-23T13:35:20Z</time>
      </trkpt>
      <trkpt lat="48.19373" lon="7.10169">
        <ele>1057.8000488281</ele>
        <time>2021-05-23T13:35:23Z</time>
      </trkpt>
      <trkpt lat="48.19367" lon="7.10162">
        <ele>1058.4000244141</ele>
        <time>2021-05-23T13:35:25Z</time>
      </trkpt>
      <trkpt lat="48.19348" lon="7.10141">
        <ele>1059.4000244141</ele>
        <time>2021-05-23T13:35:31Z</time>
      </trkpt>
      <trkpt lat="48.19338" lon="7.10132">
        <ele>1060</ele>
        <time>2021-05-23T13:35:34Z</time>
      </trkpt>
      <trkpt lat="48.19327" lon="7.10123">
        <ele>1060.4000244141</ele>
        <time>2021-05-23T13:35:37Z</time>
      </trkpt>
      <trkpt lat="48.19312" lon="7.10114">
        <ele>1061.1999511719</ele>
        <time>2021-05-23T13:35:41Z</time>
      </trkpt>
      <trkpt lat="48.19305" lon="7.10109">
        <ele>1061.5999755859</ele>
        <time>2021-05-23T13:35:43Z</time>
      </trkpt>
      <trkpt lat="48.19301" lon="7.10107">
        <ele>1061.5999755859</ele>
        <time>2021-05-23T13:35:44Z</time>
      </trkpt>
      <trkpt lat="48.1927" lon="7.10093">
        <ele>1062.5999755859</ele>
        <time>2021-05-23T13:35:52Z</time>
      </trkpt>
      <trkpt lat="48.19244" lon="7.10081">
        <ele>1063.8000488281</ele>
        <time>2021-05-23T13:35:59Z</time>
      </trkpt>
      <trkpt lat="48.19228" lon="7.10075">
        <ele>1064.4000244141</ele>
        <time>2021-05-23T13:36:03Z</time>
      </trkpt>
      <trkpt lat="48.19219" lon="7.10072">
        <ele>1064.8000488281</ele>
        <time>2021-05-23T13:36:05Z</time>
      </trkpt>
      <trkpt lat="48.19193" lon="7.10068">
        <ele>1065.4000244141</ele>
        <time>2021-05-23T13:36:11Z</time>
      </trkpt>
      <trkpt lat="48.19167" lon="7.10071">
        <ele>1065.8000488281</ele>
        <time>2021-05-23T13:36:16Z</time>
      </trkpt>
      <trkpt lat="48.1916" lon="7.10073">
        <ele>1065.8000488281</ele>
        <time>2021-05-23T13:36:17Z</time>
      </trkpt>
      <trkpt lat="48.19121" lon="7.10086">
        <ele>1065.1999511719</ele>
        <time>2021-05-23T13:36:23Z</time>
      </trkpt>
      <trkpt lat="48.19091" lon="7.10095">
        <ele>1063.5999755859</ele>
        <time>2021-05-23T13:36:27Z</time>
      </trkpt>
      <trkpt lat="48.19076" lon="7.10098">
        <ele>1063</ele>
        <time>2021-05-23T13:36:29Z</time>
      </trkpt>
      <trkpt lat="48.1906" lon="7.10099">
        <ele>1062.5999755859</ele>
        <time>2021-05-23T13:36:31Z</time>
      </trkpt>
      <trkpt lat="48.19026" lon="7.10096">
        <ele>1061.4000244141</ele>
        <time>2021-05-23T13:36:35Z</time>
      </trkpt>
      <trkpt lat="48.19" lon="7.10094">
        <ele>1060.5999755859</ele>
        <time>2021-05-23T13:36:38Z</time>
      </trkpt>
      <trkpt lat="48.18984" lon="7.10092">
        <ele>1060.4000244141</ele>
        <time>2021-05-23T13:36:40Z</time>
      </trkpt>
      <trkpt lat="48.18944" lon="7.10089">
        <ele>1060</ele>
        <time>2021-05-23T13:36:45Z</time>
      </trkpt>
      <trkpt lat="48.18917" lon="7.10077">
        <ele>1061</ele>
        <time>2021-05-23T13:36:50Z</time>
      </trkpt>
      <trkpt lat="48.18912" lon="7.10074">
        <ele>1061.4000244141</ele>
        <time>2021-05-23T13:36:51Z</time>
      </trkpt>
      <trkpt lat="48.18899" lon="7.10061">
        <ele>1062.4000244141</ele>
        <time>2021-05-23T13:36:54Z</time>
      </trkpt>
      <trkpt lat="48.18896" lon="7.10056">
        <ele>1062.8000488281</ele>
        <time>2021-05-23T13:36:55Z</time>
      </trkpt>
      <trkpt lat="48.1889" lon="7.10048">
        <ele>1064</ele>
        <time>2021-05-23T13:36:57Z</time>
      </trkpt>
      <trkpt lat="48.18885" lon="7.10038">
        <ele>1065.4000244141</ele>
        <time>2021-05-23T13:36:59Z</time>
      </trkpt>
      <trkpt lat="48.18878" lon="7.10024">
        <ele>1066.4000244141</ele>
        <time>2021-05-23T13:37:02Z</time>
      </trkpt>
      <trkpt lat="48.18874" lon="7.10016">
        <ele>1067.1999511719</ele>
        <time>2021-05-23T13:37:04Z</time>
      </trkpt>
      <trkpt lat="48.18871" lon="7.10007">
        <ele>1067.5999755859</ele>
        <time>2021-05-23T13:37:06Z</time>
      </trkpt>
      <trkpt lat="48.18865" lon="7.09995">
        <ele>1068.5999755859</ele>
        <time>2021-05-23T13:37:09Z</time>
      </trkpt>
      <trkpt lat="48.18859" lon="7.09982">
        <ele>1070</ele>
        <time>2021-05-23T13:37:12Z</time>
      </trkpt>
      <trkpt lat="48.18852" lon="7.09966">
        <ele>1071</ele>
        <time>2021-05-23T13:37:16Z</time>
      </trkpt>
      <trkpt lat="48.18846" lon="7.0995">
        <ele>1072</ele>
        <time>2021-05-23T13:37:20Z</time>
      </trkpt>
      <trkpt lat="48.18841" lon="7.09932">
        <ele>1073.1999511719</ele>
        <time>2021-05-23T13:37:24Z</time>
      </trkpt>
      <trkpt lat="48.18836" lon="7.09908">
        <ele>1074.4000244141</ele>
        <time>2021-05-23T13:37:29Z</time>
      </trkpt>
      <trkpt lat="48.18833" lon="7.09878">
        <ele>1075.5999755859</ele>
        <time>2021-05-23T13:37:35Z</time>
      </trkpt>
      <trkpt lat="48.18832" lon="7.09856">
        <ele>1076.8000488281</ele>
        <time>2021-05-23T13:37:39Z</time>
      </trkpt>
      <trkpt lat="48.18832" lon="7.0985">
        <ele>1077</ele>
        <time>2021-05-23T13:37:40Z</time>
      </trkpt>
      <trkpt lat="48.1883" lon="7.09803">
        <ele>1077.8000488281</ele>
        <time>2021-05-23T13:37:48Z</time>
      </trkpt>
      <trkpt lat="48.1883" lon="7.09791">
        <ele>1078.1999511719</ele>
        <time>2021-05-23T13:37:50Z</time>
      </trkpt>
      <trkpt lat="48.18826" lon="7.09758">
        <ele>1078.8000488281</ele>
        <time>2021-05-23T13:37:55Z</time>
      </trkpt>
      <trkpt lat="48.18823" lon="7.09745">
        <ele>1079</ele>
        <time>2021-05-23T13:37:57Z</time>
      </trkpt>
      <trkpt lat="48.18809" lon="7.09702">
        <ele>1079.1999511719</ele>
        <time>2021-05-23T13:38:03Z</time>
      </trkpt>
      <trkpt lat="48.18789" lon="7.09644">
        <ele>1078.8000488281</ele>
        <time>2021-05-23T13:38:10Z</time>
      </trkpt>
      <trkpt lat="48.18766" lon="7.09577">
        <ele>1078.8000488281</ele>
        <time>2021-05-23T13:38:18Z</time>
      </trkpt>
      <trkpt lat="48.18763" lon="7.09568">
        <ele>1078.5999755859</ele>
        <time>2021-05-23T13:38:19Z</time>
      </trkpt>
      <trkpt lat="48.18748" lon="7.09534">
        <ele>1078.4000244141</ele>
        <time>2021-05-23T13:38:23Z</time>
      </trkpt>
      <trkpt lat="48.18712" lon="7.0947">
        <ele>1078.1999511719</ele>
        <time>2021-05-23T13:38:31Z</time>
      </trkpt>
      <trkpt lat="48.18707" lon="7.09463">
        <ele>1078.1999511719</ele>
        <time>2021-05-23T13:38:32Z</time>
      </trkpt>
      <trkpt lat="48.18701" lon="7.09455">
        <ele>1078.4000244141</ele>
        <time>2021-05-23T13:38:33Z</time>
      </trkpt>
      <trkpt lat="48.18683" lon="7.09439">
        <ele>1078.4000244141</ele>
        <time>2021-05-23T13:38:36Z</time>
      </trkpt>
      <trkpt lat="48.18642" lon="7.09413">
        <ele>1078.5999755859</ele>
        <time>2021-05-23T13:38:42Z</time>
      </trkpt>
      <trkpt lat="48.18609" lon="7.09391">
        <ele>1079.1999511719</ele>
        <time>2021-05-23T13:38:47Z</time>
      </trkpt>
      <trkpt lat="48.18596" lon="7.09383">
        <ele>1079.5999755859</ele>
        <time>2021-05-23T13:38:49Z</time>
      </trkpt>
      <trkpt lat="48.18575" lon="7.09371">
        <ele>1079.5999755859</ele>
        <time>2021-05-23T13:38:52Z</time>
      </trkpt>
      <trkpt lat="48.18535" lon="7.09349">
        <ele>1079.5999755859</ele>
        <time>2021-05-23T13:38:58Z</time>
      </trkpt>
      <trkpt lat="48.18493" lon="7.09338">
        <ele>1079.8000488281</ele>
        <time>2021-05-23T13:39:04Z</time>
      </trkpt>
      <trkpt lat="48.18486" lon="7.09337">
        <ele>1079.8000488281</ele>
        <time>2021-05-23T13:39:05Z</time>
      </trkpt>
      <trkpt lat="48.18442" lon="7.0933">
        <ele>1080.4000244141</ele>
        <time>2021-05-23T13:39:11Z</time>
      </trkpt>
      <trkpt lat="48.18394" lon="7.0932">
        <ele>1080.4000244141</ele>
        <time>2021-05-23T13:39:18Z</time>
      </trkpt>
      <trkpt lat="48.18346" lon="7.09308">
        <ele>1079.8000488281</ele>
        <time>2021-05-23T13:39:25Z</time>
      </trkpt>
      <trkpt lat="48.18324" lon="7.09298">
        <ele>1079.4000244141</ele>
        <time>2021-05-23T13:39:28Z</time>
      </trkpt>
      <trkpt lat="48.18309" lon="7.09286">
        <ele>1079.1999511719</ele>
        <time>2021-05-23T13:39:30Z</time>
      </trkpt>
      <trkpt lat="48.18297" lon="7.09267">
        <ele>1078.5999755859</ele>
        <time>2021-05-23T13:39:32Z</time>
      </trkpt>
      <trkpt lat="48.18292" lon="7.09256">
        <ele>1078.4000244141</ele>
        <time>2021-05-23T13:39:33Z</time>
      </trkpt>
      <trkpt lat="48.18287" lon="7.09243">
        <ele>1078.1999511719</ele>
        <time>2021-05-23T13:39:34Z</time>
      </trkpt>
      <trkpt lat="48.18284" lon="7.09228">
        <ele>1077.5999755859</ele>
        <time>2021-05-23T13:39:35Z</time>
      </trkpt>
      <trkpt lat="48.1828" lon="7.09209">
        <ele>1077</ele>
        <time>2021-05-23T13:39:36Z</time>
      </trkpt>
      <trkpt lat="48.18279" lon="7.09195">
        <ele>1076</ele>
        <time>2021-05-23T13:39:37Z</time>
      </trkpt>
      <trkpt lat="48.18275" lon="7.09159">
        <ele>1074.4000244141</ele>
        <time>2021-05-23T13:39:39Z</time>
      </trkpt>
      <trkpt lat="48.18273" lon="7.0914">
        <ele>1074</ele>
        <time>2021-05-23T13:39:40Z</time>
      </trkpt>
      <trkpt lat="48.18271" lon="7.09117">
        <ele>1073</ele>
        <time>2021-05-23T13:39:41Z</time>
      </trkpt>
      <trkpt lat="48.18269" lon="7.09101">
        <ele>1071.8000488281</ele>
        <time>2021-05-23T13:39:42Z</time>
      </trkpt>
      <trkpt lat="48.18269" lon="7.09081">
        <ele>1069.8000488281</ele>
        <time>2021-05-23T13:39:43Z</time>
      </trkpt>
      <trkpt lat="48.18268" lon="7.09061">
        <ele>1068</ele>
        <time>2021-05-23T13:39:44Z</time>
      </trkpt>
      <trkpt lat="48.18268" lon="7.09041">
        <ele>1066.8000488281</ele>
        <time>2021-05-23T13:39:45Z</time>
      </trkpt>
      <trkpt lat="48.18267" lon="7.0902">
        <ele>1064</ele>
        <time>2021-05-23T13:39:46Z</time>
      </trkpt>
      <trkpt lat="48.18267" lon="7.08978">
        <ele>1061.8000488281</ele>
        <time>2021-05-23T13:39:48Z</time>
      </trkpt>
      <trkpt lat="48.18267" lon="7.08959">
        <ele>1060.8000488281</ele>
        <time>2021-05-23T13:39:49Z</time>
      </trkpt>
      <trkpt lat="48.18267" lon="7.0894">
        <ele>1058.5999755859</ele>
        <time>2021-05-23T13:39:50Z</time>
      </trkpt>
      <trkpt lat="48.18266" lon="7.08923">
        <ele>1056.5999755859</ele>
        <time>2021-05-23T13:39:51Z</time>
      </trkpt>
      <trkpt lat="48.18263" lon="7.08906">
        <ele>1055.8000488281</ele>
        <time>2021-05-23T13:39:52Z</time>
      </trkpt>
      <trkpt lat="48.18258" lon="7.08891">
        <ele>1054.8000488281</ele>
        <time>2021-05-23T13:39:53Z</time>
      </trkpt>
      <trkpt lat="48.18251" lon="7.08878">
        <ele>1053.8000488281</ele>
        <time>2021-05-23T13:39:54Z</time>
      </trkpt>
      <trkpt lat="48.18243" lon="7.08868">
        <ele>1052.5999755859</ele>
        <time>2021-05-23T13:39:55Z</time>
      </trkpt>
      <trkpt lat="48.18232" lon="7.0886">
        <ele>1052</ele>
        <time>2021-05-23T13:39:56Z</time>
      </trkpt>
      <trkpt lat="48.18223" lon="7.0886">
        <ele>1051</ele>
        <time>2021-05-23T13:39:57Z</time>
      </trkpt>
      <trkpt lat="48.18212" lon="7.08862">
        <ele>1050.5999755859</ele>
        <time>2021-05-23T13:39:58Z</time>
      </trkpt>
      <trkpt lat="48.18201" lon="7.08866">
        <ele>1049.4000244141</ele>
        <time>2021-05-23T13:39:59Z</time>
      </trkpt>
      <trkpt lat="48.18189" lon="7.0887">
        <ele>1048.1999511719</ele>
        <time>2021-05-23T13:40:00Z</time>
      </trkpt>
      <trkpt lat="48.18175" lon="7.08878">
        <ele>1046.4000244141</ele>
        <time>2021-05-23T13:40:01Z</time>
      </trkpt>
      <trkpt lat="48.18163" lon="7.08887">
        <ele>1044.5999755859</ele>
        <time>2021-05-23T13:40:02Z</time>
      </trkpt>
      <trkpt lat="48.18151" lon="7.08897">
        <ele>1044</ele>
        <time>2021-05-23T13:40:03Z</time>
      </trkpt>
      <trkpt lat="48.18139" lon="7.08908">
        <ele>1041.1999511719</ele>
        <time>2021-05-23T13:40:04Z</time>
      </trkpt>
      <trkpt lat="48.18128" lon="7.08922">
        <ele>1040</ele>
        <time>2021-05-23T13:40:05Z</time>
      </trkpt>
      <trkpt lat="48.18118" lon="7.08939">
        <ele>1038.4000244141</ele>
        <time>2021-05-23T13:40:06Z</time>
      </trkpt>
      <trkpt lat="48.18108" lon="7.08956">
        <ele>1036.5999755859</ele>
        <time>2021-05-23T13:40:07Z</time>
      </trkpt>
      <trkpt lat="48.18098" lon="7.08971">
        <ele>1035.8000488281</ele>
        <time>2021-05-23T13:40:08Z</time>
      </trkpt>
      <trkpt lat="48.18087" lon="7.08985">
        <ele>1034</ele>
        <time>2021-05-23T13:40:09Z</time>
      </trkpt>
      <trkpt lat="48.18077" lon="7.08998">
        <ele>1033</ele>
        <time>2021-05-23T13:40:10Z</time>
      </trkpt>
      <trkpt lat="48.18064" lon="7.09008">
        <ele>1030.4000244141</ele>
        <time>2021-05-23T13:40:11Z</time>
      </trkpt>
      <trkpt lat="48.1805" lon="7.09015">
        <ele>1028.8000488281</ele>
        <time>2021-05-23T13:40:12Z</time>
      </trkpt>
      <trkpt lat="48.18035" lon="7.09021">
        <ele>1026.8000488281</ele>
        <time>2021-05-23T13:40:13Z</time>
      </trkpt>
      <trkpt lat="48.18021" lon="7.09028">
        <ele>1025.8000488281</ele>
        <time>2021-05-23T13:40:14Z</time>
      </trkpt>
      <trkpt lat="48.18007" lon="7.09034">
        <ele>1024.1999511719</ele>
        <time>2021-05-23T13:40:15Z</time>
      </trkpt>
      <trkpt lat="48.17993" lon="7.09043">
        <ele>1022</ele>
        <time>2021-05-23T13:40:16Z</time>
      </trkpt>
      <trkpt lat="48.17979" lon="7.09051">
        <ele>1021.200012207</ele>
        <time>2021-05-23T13:40:17Z</time>
      </trkpt>
      <trkpt lat="48.17968" lon="7.09058">
        <ele>1019.4000244141</ele>
        <time>2021-05-23T13:40:18Z</time>
      </trkpt>
      <trkpt lat="48.17956" lon="7.09067">
        <ele>1018.4000244141</ele>
        <time>2021-05-23T13:40:19Z</time>
      </trkpt>
      <trkpt lat="48.17943" lon="7.09076">
        <ele>1015.799987793</ele>
        <time>2021-05-23T13:40:20Z</time>
      </trkpt>
      <trkpt lat="48.17928" lon="7.09086">
        <ele>1014.5999755859</ele>
        <time>2021-05-23T13:40:21Z</time>
      </trkpt>
      <trkpt lat="48.17917" lon="7.09094">
        <ele>1012.5999755859</ele>
        <time>2021-05-23T13:40:22Z</time>
      </trkpt>
      <trkpt lat="48.17905" lon="7.09101">
        <ele>1011</ele>
        <time>2021-05-23T13:40:23Z</time>
      </trkpt>
      <trkpt lat="48.17885" lon="7.09113">
        <ele>1009</ele>
        <time>2021-05-23T13:40:25Z</time>
      </trkpt>
      <trkpt lat="48.1787" lon="7.09115">
        <ele>1007.4000244141</ele>
        <time>2021-05-23T13:40:26Z</time>
      </trkpt>
      <trkpt lat="48.17858" lon="7.09112">
        <ele>1005.5999755859</ele>
        <time>2021-05-23T13:40:27Z</time>
      </trkpt>
      <trkpt lat="48.17849" lon="7.09105">
        <ele>1004.799987793</ele>
        <time>2021-05-23T13:40:28Z</time>
      </trkpt>
      <trkpt lat="48.1784" lon="7.09091">
        <ele>1003.200012207</ele>
        <time>2021-05-23T13:40:29Z</time>
      </trkpt>
      <trkpt lat="48.17832" lon="7.09076">
        <ele>1002.200012207</ele>
        <time>2021-05-23T13:40:30Z</time>
      </trkpt>
      <trkpt lat="48.17822" lon="7.09056">
        <ele>1001</ele>
        <time>2021-05-23T13:40:31Z</time>
      </trkpt>
      <trkpt lat="48.17814" lon="7.0904">
        <ele>998.79998779297</ele>
        <time>2021-05-23T13:40:32Z</time>
      </trkpt>
      <trkpt lat="48.17805" lon="7.09026">
        <ele>997.59997558594</ele>
        <time>2021-05-23T13:40:33Z</time>
      </trkpt>
      <trkpt lat="48.17795" lon="7.09016">
        <ele>995.20001220703</ele>
        <time>2021-05-23T13:40:34Z</time>
      </trkpt>
      <trkpt lat="48.17784" lon="7.09012">
        <ele>994</ele>
        <time>2021-05-23T13:40:35Z</time>
      </trkpt>
      <trkpt lat="48.17772" lon="7.09015">
        <ele>992</ele>
        <time>2021-05-23T13:40:36Z</time>
      </trkpt>
      <trkpt lat="48.17761" lon="7.09024">
        <ele>991.40002441406</ele>
        <time>2021-05-23T13:40:37Z</time>
      </trkpt>
      <trkpt lat="48.17751" lon="7.09037">
        <ele>990.40002441406</ele>
        <time>2021-05-23T13:40:38Z</time>
      </trkpt>
      <trkpt lat="48.17744" lon="7.09048">
        <ele>988.79998779297</ele>
        <time>2021-05-23T13:40:39Z</time>
      </trkpt>
      <trkpt lat="48.17734" lon="7.09065">
        <ele>987.79998779297</ele>
        <time>2021-05-23T13:40:40Z</time>
      </trkpt>
      <trkpt lat="48.17728" lon="7.09083">
        <ele>986</ele>
        <time>2021-05-23T13:40:41Z</time>
      </trkpt>
      <trkpt lat="48.17716" lon="7.09119">
        <ele>984.40002441406</ele>
        <time>2021-05-23T13:40:43Z</time>
      </trkpt>
      <trkpt lat="48.17711" lon="7.09133">
        <ele>983.20001220703</ele>
        <time>2021-05-23T13:40:44Z</time>
      </trkpt>
      <trkpt lat="48.17704" lon="7.09149">
        <ele>981</ele>
        <time>2021-05-23T13:40:45Z</time>
      </trkpt>
      <trkpt lat="48.17695" lon="7.09161">
        <ele>979.20001220703</ele>
        <time>2021-05-23T13:40:46Z</time>
      </trkpt>
      <trkpt lat="48.17684" lon="7.09169">
        <ele>978.20001220703</ele>
        <time>2021-05-23T13:40:47Z</time>
      </trkpt>
      <trkpt lat="48.17672" lon="7.09172">
        <ele>976.59997558594</ele>
        <time>2021-05-23T13:40:48Z</time>
      </trkpt>
      <trkpt lat="48.17659" lon="7.09174">
        <ele>975.79998779297</ele>
        <time>2021-05-23T13:40:49Z</time>
      </trkpt>
      <trkpt lat="48.17646" lon="7.09174">
        <ele>974.20001220703</ele>
        <time>2021-05-23T13:40:50Z</time>
      </trkpt>
      <trkpt lat="48.17632" lon="7.09173">
        <ele>973.59997558594</ele>
        <time>2021-05-23T13:40:51Z</time>
      </trkpt>
      <trkpt lat="48.17619" lon="7.0917">
        <ele>972</ele>
        <time>2021-05-23T13:40:52Z</time>
      </trkpt>
      <trkpt lat="48.17593" lon="7.09152">
        <ele>969.59997558594</ele>
        <time>2021-05-23T13:40:54Z</time>
      </trkpt>
      <trkpt lat="48.17585" lon="7.09141">
        <ele>967.40002441406</ele>
        <time>2021-05-23T13:40:55Z</time>
      </trkpt>
      <trkpt lat="48.17576" lon="7.09125">
        <ele>966.20001220703</ele>
        <time>2021-05-23T13:40:56Z</time>
      </trkpt>
      <trkpt lat="48.17568" lon="7.09108">
        <ele>964.40002441406</ele>
        <time>2021-05-23T13:40:57Z</time>
      </trkpt>
      <trkpt lat="48.1755" lon="7.09072">
        <ele>962</ele>
        <time>2021-05-23T13:40:59Z</time>
      </trkpt>
      <trkpt lat="48.17544" lon="7.09058">
        <ele>961.40002441406</ele>
        <time>2021-05-23T13:41:00Z</time>
      </trkpt>
      <trkpt lat="48.17537" lon="7.0904">
        <ele>960.20001220703</ele>
        <time>2021-05-23T13:41:01Z</time>
      </trkpt>
      <trkpt lat="48.17527" lon="7.09005">
        <ele>958.59997558594</ele>
        <time>2021-05-23T13:41:03Z</time>
      </trkpt>
      <trkpt lat="48.17523" lon="7.08988">
        <ele>957.79998779297</ele>
        <time>2021-05-23T13:41:04Z</time>
      </trkpt>
      <trkpt lat="48.17519" lon="7.0897">
        <ele>957.40002441406</ele>
        <time>2021-05-23T13:41:05Z</time>
      </trkpt>
      <trkpt lat="48.1751" lon="7.08934">
        <ele>956.40002441406</ele>
        <time>2021-05-23T13:41:07Z</time>
      </trkpt>
      <trkpt lat="48.17505" lon="7.08917">
        <ele>954.79998779297</ele>
        <time>2021-05-23T13:41:08Z</time>
      </trkpt>
      <trkpt lat="48.17499" lon="7.08902">
        <ele>953.59997558594</ele>
        <time>2021-05-23T13:41:09Z</time>
      </trkpt>
      <trkpt lat="48.17477" lon="7.08856">
        <ele>952.79998779297</ele>
        <time>2021-05-23T13:41:12Z</time>
      </trkpt>
      <trkpt lat="48.17467" lon="7.0884">
        <ele>952</ele>
        <time>2021-05-23T13:41:13Z</time>
      </trkpt>
      <trkpt lat="48.17457" lon="7.0883">
        <ele>951.79998779297</ele>
        <time>2021-05-23T13:41:14Z</time>
      </trkpt>
      <trkpt lat="48.17448" lon="7.08824">
        <ele>951.59997558594</ele>
        <time>2021-05-23T13:41:15Z</time>
      </trkpt>
      <trkpt lat="48.17434" lon="7.0882">
        <ele>951.20001220703</ele>
        <time>2021-05-23T13:41:16Z</time>
      </trkpt>
      <trkpt lat="48.17422" lon="7.08823">
        <ele>951</ele>
        <time>2021-05-23T13:41:17Z</time>
      </trkpt>
      <trkpt lat="48.17411" lon="7.08829">
        <ele>950.59997558594</ele>
        <time>2021-05-23T13:41:18Z</time>
      </trkpt>
      <trkpt lat="48.17386" lon="7.08844">
        <ele>949</ele>
        <time>2021-05-23T13:41:20Z</time>
      </trkpt>
      <trkpt lat="48.17376" lon="7.0885">
        <ele>948.79998779297</ele>
        <time>2021-05-23T13:41:21Z</time>
      </trkpt>
      <trkpt lat="48.17361" lon="7.08858">
        <ele>947.40002441406</ele>
        <time>2021-05-23T13:41:22Z</time>
      </trkpt>
      <trkpt lat="48.17349" lon="7.08867">
        <ele>946.79998779297</ele>
        <time>2021-05-23T13:41:23Z</time>
      </trkpt>
      <trkpt lat="48.17338" lon="7.08877">
        <ele>945.40002441406</ele>
        <time>2021-05-23T13:41:24Z</time>
      </trkpt>
      <trkpt lat="48.1733" lon="7.08887">
        <ele>944.79998779297</ele>
        <time>2021-05-23T13:41:25Z</time>
      </trkpt>
      <trkpt lat="48.1732" lon="7.08905">
        <ele>944.40002441406</ele>
        <time>2021-05-23T13:41:26Z</time>
      </trkpt>
      <trkpt lat="48.17314" lon="7.08923">
        <ele>943</ele>
        <time>2021-05-23T13:41:27Z</time>
      </trkpt>
      <trkpt lat="48.17308" lon="7.08956">
        <ele>940.40002441406</ele>
        <time>2021-05-23T13:41:29Z</time>
      </trkpt>
      <trkpt lat="48.17306" lon="7.08975">
        <ele>939.40002441406</ele>
        <time>2021-05-23T13:41:30Z</time>
      </trkpt>
      <trkpt lat="48.17301" lon="7.08994">
        <ele>938.40002441406</ele>
        <time>2021-05-23T13:41:31Z</time>
      </trkpt>
      <trkpt lat="48.17295" lon="7.09009">
        <ele>937.40002441406</ele>
        <time>2021-05-23T13:41:32Z</time>
      </trkpt>
      <trkpt lat="48.17286" lon="7.09021">
        <ele>935.59997558594</ele>
        <time>2021-05-23T13:41:33Z</time>
      </trkpt>
      <trkpt lat="48.17277" lon="7.09029">
        <ele>934.20001220703</ele>
        <time>2021-05-23T13:41:34Z</time>
      </trkpt>
      <trkpt lat="48.17267" lon="7.09032">
        <ele>933.79998779297</ele>
        <time>2021-05-23T13:41:35Z</time>
      </trkpt>
      <trkpt lat="48.17256" lon="7.09032">
        <ele>933.20001220703</ele>
        <time>2021-05-23T13:41:36Z</time>
      </trkpt>
      <trkpt lat="48.17245" lon="7.0903">
        <ele>933.20001220703</ele>
        <time>2021-05-23T13:41:37Z</time>
      </trkpt>
      <trkpt lat="48.17227" lon="7.09019">
        <ele>933</ele>
        <time>2021-05-23T13:41:39Z</time>
      </trkpt>
      <trkpt lat="48.17219" lon="7.0901">
        <ele>932.79998779297</ele>
        <time>2021-05-23T13:41:40Z</time>
      </trkpt>
      <trkpt lat="48.17212" lon="7.08999">
        <ele>932.79998779297</ele>
        <time>2021-05-23T13:41:41Z</time>
      </trkpt>
      <trkpt lat="48.17191" lon="7.08971">
        <ele>933</ele>
        <time>2021-05-23T13:41:44Z</time>
      </trkpt>
      <trkpt lat="48.17184" lon="7.08964">
        <ele>933</ele>
        <time>2021-05-23T13:41:45Z</time>
      </trkpt>
      <trkpt lat="48.17177" lon="7.08959">
        <ele>933</ele>
        <time>2021-05-23T13:41:46Z</time>
      </trkpt>
      <trkpt lat="48.17162" lon="7.08952">
        <ele>933.40002441406</ele>
        <time>2021-05-23T13:41:48Z</time>
      </trkpt>
      <trkpt lat="48.17156" lon="7.0895">
        <ele>933.40002441406</ele>
        <time>2021-05-23T13:41:49Z</time>
      </trkpt>
      <trkpt lat="48.17149" lon="7.08948">
        <ele>934</ele>
        <time>2021-05-23T13:41:50Z</time>
      </trkpt>
      <trkpt lat="48.17143" lon="7.08947">
        <ele>934.40002441406</ele>
        <time>2021-05-23T13:41:51Z</time>
      </trkpt>
      <trkpt lat="48.17137" lon="7.08946">
        <ele>935.20001220703</ele>
        <time>2021-05-23T13:41:52Z</time>
      </trkpt>
      <trkpt lat="48.17131" lon="7.08944">
        <ele>935.40002441406</ele>
        <time>2021-05-23T13:41:53Z</time>
      </trkpt>
      <trkpt lat="48.17112" lon="7.08938">
        <ele>936.79998779297</ele>
        <time>2021-05-23T13:41:56Z</time>
      </trkpt>
      <trkpt lat="48.17106" lon="7.08934">
        <ele>937.40002441406</ele>
        <time>2021-05-23T13:41:57Z</time>
      </trkpt>
      <trkpt lat="48.17096" lon="7.08927">
        <ele>938.79998779297</ele>
        <time>2021-05-23T13:41:59Z</time>
      </trkpt>
      <trkpt lat="48.17091" lon="7.08923">
        <ele>939</ele>
        <time>2021-05-23T13:42:00Z</time>
      </trkpt>
      <trkpt lat="48.17087" lon="7.08917">
        <ele>939.79998779297</ele>
        <time>2021-05-23T13:42:01Z</time>
      </trkpt>
      <trkpt lat="48.17083" lon="7.08912">
        <ele>939.79998779297</ele>
        <time>2021-05-23T13:42:02Z</time>
      </trkpt>
      <trkpt lat="48.17078" lon="7.08908">
        <ele>940.20001220703</ele>
        <time>2021-05-23T13:42:03Z</time>
      </trkpt>
      <trkpt lat="48.17069" lon="7.08898">
        <ele>940.40002441406</ele>
        <time>2021-05-23T13:42:05Z</time>
      </trkpt>
      <trkpt lat="48.17064" lon="7.08894">
        <ele>940.79998779297</ele>
        <time>2021-05-23T13:42:06Z</time>
      </trkpt>
      <trkpt lat="48.17059" lon="7.08891">
        <ele>941</ele>
        <time>2021-05-23T13:42:07Z</time>
      </trkpt>
      <trkpt lat="48.17055" lon="7.08886">
        <ele>941</ele>
        <time>2021-05-23T13:42:08Z</time>
      </trkpt>
      <trkpt lat="48.1705" lon="7.08882">
        <ele>941.20001220703</ele>
        <time>2021-05-23T13:42:09Z</time>
      </trkpt>
      <trkpt lat="48.17041" lon="7.08875">
        <ele>941.40002441406</ele>
        <time>2021-05-23T13:42:11Z</time>
      </trkpt>
      <trkpt lat="48.17026" lon="7.08863">
        <ele>941.59997558594</ele>
        <time>2021-05-23T13:42:14Z</time>
      </trkpt>
      <trkpt lat="48.1702" lon="7.08859">
        <ele>941.79998779297</ele>
        <time>2021-05-23T13:42:15Z</time>
      </trkpt>
      <trkpt lat="48.1701" lon="7.08852">
        <ele>942.20001220703</ele>
        <time>2021-05-23T13:42:17Z</time>
      </trkpt>
      <trkpt lat="48.16997" lon="7.08838">
        <ele>942.79998779297</ele>
        <time>2021-05-23T13:42:20Z</time>
      </trkpt>
      <trkpt lat="48.16993" lon="7.08834">
        <ele>943</ele>
        <time>2021-05-23T13:42:21Z</time>
      </trkpt>
      <trkpt lat="48.16981" lon="7.08817">
        <ele>943.79998779297</ele>
        <time>2021-05-23T13:42:24Z</time>
      </trkpt>
      <trkpt lat="48.16977" lon="7.08812">
        <ele>944</ele>
        <time>2021-05-23T13:42:25Z</time>
      </trkpt>
      <trkpt lat="48.16974" lon="7.08807">
        <ele>944</ele>
        <time>2021-05-23T13:42:26Z</time>
      </trkpt>
      <trkpt lat="48.16963" lon="7.0879">
        <ele>944.20001220703</ele>
        <time>2021-05-23T13:42:29Z</time>
      </trkpt>
      <trkpt lat="48.1695" lon="7.08767">
        <ele>944.59997558594</ele>
        <time>2021-05-23T13:42:33Z</time>
      </trkpt>
      <trkpt lat="48.16933" lon="7.08737">
        <ele>944.79998779297</ele>
        <time>2021-05-23T13:42:38Z</time>
      </trkpt>
      <trkpt lat="48.16921" lon="7.08711">
        <ele>944.40002441406</ele>
        <time>2021-05-23T13:42:42Z</time>
      </trkpt>
      <trkpt lat="48.1691" lon="7.08686">
        <ele>944.59997558594</ele>
        <time>2021-05-23T13:42:46Z</time>
      </trkpt>
      <trkpt lat="48.16905" lon="7.08665">
        <ele>945.20001220703</ele>
        <time>2021-05-23T13:42:49Z</time>
      </trkpt>
      <trkpt lat="48.16904" lon="7.08658">
        <ele>945.40002441406</ele>
        <time>2021-05-23T13:42:50Z</time>
      </trkpt>
      <trkpt lat="48.16903" lon="7.08646">
        <ele>946.59997558594</ele>
        <time>2021-05-23T13:42:52Z</time>
      </trkpt>
      <trkpt lat="48.16903" lon="7.08627">
        <ele>947</ele>
        <time>2021-05-23T13:42:55Z</time>
      </trkpt>
      <trkpt lat="48.16904" lon="7.08615">
        <ele>947.40002441406</ele>
        <time>2021-05-23T13:42:57Z</time>
      </trkpt>
      <trkpt lat="48.16904" lon="7.08595">
        <ele>948.79998779297</ele>
        <time>2021-05-23T13:43:01Z</time>
      </trkpt>
      <trkpt lat="48.16908" lon="7.08576">
        <ele>949.59997558594</ele>
        <time>2021-05-23T13:43:06Z</time>
      </trkpt>
      <trkpt lat="48.16908" lon="7.08572">
        <ele>949.79998779297</ele>
        <time>2021-05-23T13:43:07Z</time>
      </trkpt>
      <trkpt lat="48.1691" lon="7.08559">
        <ele>950.59997558594</ele>
        <time>2021-05-23T13:43:10Z</time>
      </trkpt>
      <trkpt lat="48.16911" lon="7.0855">
        <ele>950.79998779297</ele>
        <time>2021-05-23T13:43:12Z</time>
      </trkpt>
      <trkpt lat="48.16912" lon="7.08532">
        <ele>951.59997558594</ele>
        <time>2021-05-23T13:43:16Z</time>
      </trkpt>
      <trkpt lat="48.16912" lon="7.08526">
        <ele>952</ele>
        <time>2021-05-23T13:43:17Z</time>
      </trkpt>
      <trkpt lat="48.16911" lon="7.08505">
        <ele>953</ele>
        <time>2021-05-23T13:43:21Z</time>
      </trkpt>
      <trkpt lat="48.1691" lon="7.08498">
        <ele>953.20001220703</ele>
        <time>2021-05-23T13:43:22Z</time>
      </trkpt>
      <trkpt lat="48.16909" lon="7.08487">
        <ele>954.20001220703</ele>
        <time>2021-05-23T13:43:24Z</time>
      </trkpt>
      <trkpt lat="48.16908" lon="7.08466">
        <ele>955.20001220703</ele>
        <time>2021-05-23T13:43:27Z</time>
      </trkpt>
      <trkpt lat="48.16908" lon="7.08461">
        <ele>955.59997558594</ele>
        <time>2021-05-23T13:43:28Z</time>
      </trkpt>
      <trkpt lat="48.16908" lon="7.08443">
        <ele>956.40002441406</ele>
        <time>2021-05-23T13:43:31Z</time>
      </trkpt>
      <trkpt lat="48.16906" lon="7.08408">
        <ele>957.20001220703</ele>
        <time>2021-05-23T13:43:37Z</time>
      </trkpt>
      <trkpt lat="48.16906" lon="7.08404">
        <ele>957.79998779297</ele>
        <time>2021-05-23T13:43:38Z</time>
      </trkpt>
      <trkpt lat="48.16905" lon="7.08378">
        <ele>958.40002441406</ele>
        <time>2021-05-23T13:43:43Z</time>
      </trkpt>
      <trkpt lat="48.16904" lon="7.08368">
        <ele>958.79998779297</ele>
        <time>2021-05-23T13:43:45Z</time>
      </trkpt>
      <trkpt lat="48.16904" lon="7.08344">
        <ele>959.79998779297</ele>
        <time>2021-05-23T13:43:50Z</time>
      </trkpt>
      <trkpt lat="48.16903" lon="7.08329">
        <ele>960.59997558594</ele>
        <time>2021-05-23T13:43:53Z</time>
      </trkpt>
      <trkpt lat="48.16903" lon="7.08323">
        <ele>961</ele>
        <time>2021-05-23T13:43:54Z</time>
      </trkpt>
      <trkpt lat="48.16901" lon="7.08296">
        <ele>962</ele>
        <time>2021-05-23T13:43:59Z</time>
      </trkpt>
      <trkpt lat="48.16901" lon="7.08272">
        <ele>963</ele>
        <time>2021-05-23T13:44:03Z</time>
      </trkpt>
      <trkpt lat="48.169" lon="7.08267">
        <ele>963.20001220703</ele>
        <time>2021-05-23T13:44:04Z</time>
      </trkpt>
      <trkpt lat="48.16899" lon="7.08243">
        <ele>964.20001220703</ele>
        <time>2021-05-23T13:44:08Z</time>
      </trkpt>
      <trkpt lat="48.16898" lon="7.08232">
        <ele>965.20001220703</ele>
        <time>2021-05-23T13:44:10Z</time>
      </trkpt>
      <trkpt lat="48.16898" lon="7.08224">
        <ele>965.20001220703</ele>
        <time>2021-05-23T13:44:11Z</time>
      </trkpt>
      <trkpt lat="48.16895" lon="7.08204">
        <ele>965.79998779297</ele>
        <time>2021-05-23T13:44:14Z</time>
      </trkpt>
      <trkpt lat="48.16891" lon="7.08187">
        <ele>966</ele>
        <time>2021-05-23T13:44:16Z</time>
      </trkpt>
      <trkpt lat="48.16885" lon="7.08174">
        <ele>966</ele>
        <time>2021-05-23T13:44:18Z</time>
      </trkpt>
      <trkpt lat="48.16882" lon="7.08168">
        <ele>965.79998779297</ele>
        <time>2021-05-23T13:44:19Z</time>
      </trkpt>
      <trkpt lat="48.16877" lon="7.08163">
        <ele>965.79998779297</ele>
        <time>2021-05-23T13:44:20Z</time>
      </trkpt>
      <trkpt lat="48.16872" lon="7.08158">
        <ele>965.79998779297</ele>
        <time>2021-05-23T13:44:21Z</time>
      </trkpt>
      <trkpt lat="48.16853" lon="7.08152">
        <ele>965.79998779297</ele>
        <time>2021-05-23T13:44:24Z</time>
      </trkpt>
      <trkpt lat="48.16827" lon="7.08157">
        <ele>965.40002441406</ele>
        <time>2021-05-23T13:44:28Z</time>
      </trkpt>
      <trkpt lat="48.16806" lon="7.08162">
        <ele>965.20001220703</ele>
        <time>2021-05-23T13:44:31Z</time>
      </trkpt>
      <trkpt lat="48.16793" lon="7.08162">
        <ele>965</ele>
        <time>2021-05-23T13:44:33Z</time>
      </trkpt>
      <trkpt lat="48.16748" lon="7.08153">
        <ele>965</ele>
        <time>2021-05-23T13:44:39Z</time>
      </trkpt>
      <trkpt lat="48.16701" lon="7.08142">
        <ele>964.59997558594</ele>
        <time>2021-05-23T13:44:45Z</time>
      </trkpt>
      <trkpt lat="48.16678" lon="7.08131">
        <ele>963.79998779297</ele>
        <time>2021-05-23T13:44:48Z</time>
      </trkpt>
      <trkpt lat="48.16657" lon="7.08117">
        <ele>963.40002441406</ele>
        <time>2021-05-23T13:44:51Z</time>
      </trkpt>
      <trkpt lat="48.16644" lon="7.08108">
        <ele>963.40002441406</ele>
        <time>2021-05-23T13:44:53Z</time>
      </trkpt>
      <trkpt lat="48.16624" lon="7.08093">
        <ele>963</ele>
        <time>2021-05-23T13:44:56Z</time>
      </trkpt>
      <trkpt lat="48.16597" lon="7.08069">
        <ele>962.59997558594</ele>
        <time>2021-05-23T13:45:00Z</time>
      </trkpt>
      <trkpt lat="48.16585" lon="7.08055">
        <ele>962.40002441406</ele>
        <time>2021-05-23T13:45:02Z</time>
      </trkpt>
      <trkpt lat="48.16559" lon="7.08023">
        <ele>962</ele>
        <time>2021-05-23T13:45:07Z</time>
      </trkpt>
      <trkpt lat="48.16545" lon="7.08004">
        <ele>961.79998779297</ele>
        <time>2021-05-23T13:45:10Z</time>
      </trkpt>
      <trkpt lat="48.16537" lon="7.07995">
        <ele>961.59997558594</ele>
        <time>2021-05-23T13:45:12Z</time>
      </trkpt>
      <trkpt lat="48.16533" lon="7.0799">
        <ele>961.59997558594</ele>
        <time>2021-05-23T13:45:13Z</time>
      </trkpt>
      <trkpt lat="48.16525" lon="7.07981">
        <ele>961.59997558594</ele>
        <time>2021-05-23T13:45:16Z</time>
      </trkpt>
      <trkpt lat="48.16518" lon="7.07971">
        <ele>961.79998779297</ele>
        <time>2021-05-23T13:45:21Z</time>
      </trkpt>
      <trkpt lat="48.16506" lon="7.07957">
        <ele>961.59997558594</ele>
        <time>2021-05-23T13:45:29Z</time>
      </trkpt>
      <trkpt lat="48.16501" lon="7.07957">
        <ele>961.40002441406</ele>
        <time>2021-05-23T13:45:32Z</time>
      </trkpt>
      <trkpt lat="48.165" lon="7.07959">
        <ele>961.20001220703</ele>
        <time>2021-05-23T13:45:34Z</time>
      </trkpt>
      <trkpt lat="48.165" lon="7.07959">
        <ele>961.20001220703</ele>
        <time>2021-05-23T13:45:35Z</time>
      </trkpt>
      <trkpt lat="48.16499" lon="7.07961">
        <ele>962</ele>
        <time>2021-05-23T13:45:58Z</time>
      </trkpt>
      <trkpt lat="48.16495" lon="7.07968">
        <ele>961.79998779297</ele>
        <time>2021-05-23T13:46:01Z</time>
      </trkpt>
      <trkpt lat="48.16493" lon="7.0797">
        <ele>961.79998779297</ele>
        <time>2021-05-23T13:46:02Z</time>
      </trkpt>
      <trkpt lat="48.16483" lon="7.07983">
        <ele>961.59997558594</ele>
        <time>2021-05-23T13:46:08Z</time>
      </trkpt>
      <trkpt lat="48.16473" lon="7.07998">
        <ele>961.79998779297</ele>
        <time>2021-05-23T13:46:14Z</time>
      </trkpt>
      <trkpt lat="48.16464" lon="7.08008">
        <ele>962.20001220703</ele>
        <time>2021-05-23T13:46:19Z</time>
      </trkpt>
      <trkpt lat="48.16457" lon="7.08014">
        <ele>962.40002441406</ele>
        <time>2021-05-23T13:46:24Z</time>
      </trkpt>
      <trkpt lat="48.16456" lon="7.08014">
        <ele>962.40002441406</ele>
        <time>2021-05-23T13:46:25Z</time>
      </trkpt>
      <trkpt lat="48.16456" lon="7.08014">
        <ele>962.40002441406</ele>
        <time>2021-05-23T13:46:26Z</time>
      </trkpt>
      <trkpt lat="48.16462" lon="7.08008">
        <ele>962.20001220703</ele>
        <time>2021-05-23T13:47:19Z</time>
      </trkpt>
      <trkpt lat="48.16465" lon="7.08005">
        <ele>962</ele>
        <time>2021-05-23T13:47:20Z</time>
      </trkpt>
      <trkpt lat="48.16482" lon="7.07985">
        <ele>962.20001220703</ele>
        <time>2021-05-23T13:47:26Z</time>
      </trkpt>
      <trkpt lat="48.16489" lon="7.07974">
        <ele>962</ele>
        <time>2021-05-23T13:47:31Z</time>
      </trkpt>
      <trkpt lat="48.16499" lon="7.07972">
        <ele>962</ele>
        <time>2021-05-23T13:47:37Z</time>
      </trkpt>
      <trkpt lat="48.16511" lon="7.07977">
        <ele>961.79998779297</ele>
        <time>2021-05-23T13:47:44Z</time>
      </trkpt>
      <trkpt lat="48.16513" lon="7.07979">
        <ele>961.79998779297</ele>
        <time>2021-05-23T13:47:46Z</time>
      </trkpt>
      <trkpt lat="48.16513" lon="7.07981">
        <ele>961.79998779297</ele>
        <time>2021-05-23T13:47:49Z</time>
      </trkpt>
      <trkpt lat="48.16513" lon="7.07981">
        <ele>961.79998779297</ele>
        <time>2021-05-23T13:47:50Z</time>
      </trkpt>
      <trkpt lat="48.16512" lon="7.07975">
        <ele>961.40002441406</ele>
        <time>2021-05-23T13:53:29Z</time>
      </trkpt>
      <trkpt lat="48.16509" lon="7.07971">
        <ele>961.40002441406</ele>
        <time>2021-05-23T13:53:31Z</time>
      </trkpt>
      <trkpt lat="48.16498" lon="7.07957">
        <ele>961.40002441406</ele>
        <time>2021-05-23T13:53:37Z</time>
      </trkpt>
      <trkpt lat="48.16487" lon="7.07942">
        <ele>961.40002441406</ele>
        <time>2021-05-23T13:53:43Z</time>
      </trkpt>
      <trkpt lat="48.16475" lon="7.07922">
        <ele>961.40002441406</ele>
        <time>2021-05-23T13:53:50Z</time>
      </trkpt>
      <trkpt lat="48.16464" lon="7.0791">
        <ele>961.59997558594</ele>
        <time>2021-05-23T13:53:55Z</time>
      </trkpt>
      <trkpt lat="48.16436" lon="7.07901">
        <ele>961.59997558594</ele>
        <time>2021-05-23T13:54:03Z</time>
      </trkpt>
      <trkpt lat="48.16414" lon="7.07894">
        <ele>961.79998779297</ele>
        <time>2021-05-23T13:54:10Z</time>
      </trkpt>
      <trkpt lat="48.16405" lon="7.07889">
        <ele>963</ele>
        <time>2021-05-23T13:54:13Z</time>
      </trkpt>
      <trkpt lat="48.16394" lon="7.07881">
        <ele>963.59997558594</ele>
        <time>2021-05-23T13:54:17Z</time>
      </trkpt>
      <trkpt lat="48.16386" lon="7.07874">
        <ele>964</ele>
        <time>2021-05-23T13:54:20Z</time>
      </trkpt>
      <trkpt lat="48.16376" lon="7.07866">
        <ele>964.79998779297</ele>
        <time>2021-05-23T13:54:24Z</time>
      </trkpt>
      <trkpt lat="48.16371" lon="7.07861">
        <ele>965.20001220703</ele>
        <time>2021-05-23T13:54:26Z</time>
      </trkpt>
      <trkpt lat="48.16363" lon="7.07854">
        <ele>966</ele>
        <time>2021-05-23T13:54:29Z</time>
      </trkpt>
      <trkpt lat="48.16357" lon="7.07849">
        <ele>966.40002441406</ele>
        <time>2021-05-23T13:54:31Z</time>
      </trkpt>
      <trkpt lat="48.16349" lon="7.0784">
        <ele>967</ele>
        <time>2021-05-23T13:54:34Z</time>
      </trkpt>
      <trkpt lat="48.16345" lon="7.07835">
        <ele>967.20001220703</ele>
        <time>2021-05-23T13:54:36Z</time>
      </trkpt>
      <trkpt lat="48.16343" lon="7.07832">
        <ele>967.40002441406</ele>
        <time>2021-05-23T13:54:37Z</time>
      </trkpt>
      <trkpt lat="48.1634" lon="7.07829">
        <ele>967.40002441406</ele>
        <time>2021-05-23T13:54:38Z</time>
      </trkpt>
      <trkpt lat="48.16329" lon="7.07815">
        <ele>968.40002441406</ele>
        <time>2021-05-23T13:54:42Z</time>
      </trkpt>
      <trkpt lat="48.16321" lon="7.07805">
        <ele>968.79998779297</ele>
        <time>2021-05-23T13:54:45Z</time>
      </trkpt>
      <trkpt lat="48.16302" lon="7.07787">
        <ele>969.20001220703</ele>
        <time>2021-05-23T13:54:50Z</time>
      </trkpt>
      <trkpt lat="48.16298" lon="7.07784">
        <ele>969.40002441406</ele>
        <time>2021-05-23T13:54:51Z</time>
      </trkpt>
      <trkpt lat="48.16279" lon="7.07769">
        <ele>970.20001220703</ele>
        <time>2021-05-23T13:54:57Z</time>
      </trkpt>
      <trkpt lat="48.16265" lon="7.0776">
        <ele>970.59997558594</ele>
        <time>2021-05-23T13:55:01Z</time>
      </trkpt>
      <trkpt lat="48.16247" lon="7.07749">
        <ele>971</ele>
        <time>2021-05-23T13:55:05Z</time>
      </trkpt>
      <trkpt lat="48.16223" lon="7.07742">
        <ele>971.20001220703</ele>
        <time>2021-05-23T13:55:10Z</time>
      </trkpt>
      <trkpt lat="48.16211" lon="7.0774">
        <ele>971.20001220703</ele>
        <time>2021-05-23T13:55:13Z</time>
      </trkpt>
      <trkpt lat="48.16201" lon="7.0774">
        <ele>971.20001220703</ele>
        <time>2021-05-23T13:55:15Z</time>
      </trkpt>
      <trkpt lat="48.1616" lon="7.07737">
        <ele>971.79998779297</ele>
        <time>2021-05-23T13:55:23Z</time>
      </trkpt>
      <trkpt lat="48.16154" lon="7.07735">
        <ele>972</ele>
        <time>2021-05-23T13:55:24Z</time>
      </trkpt>
      <trkpt lat="48.16148" lon="7.07733">
        <ele>972</ele>
        <time>2021-05-23T13:55:25Z</time>
      </trkpt>
      <trkpt lat="48.16129" lon="7.07725">
        <ele>972.20001220703</ele>
        <time>2021-05-23T13:55:29Z</time>
      </trkpt>
      <trkpt lat="48.16124" lon="7.07722">
        <ele>972.20001220703</ele>
        <time>2021-05-23T13:55:30Z</time>
      </trkpt>
      <trkpt lat="48.16108" lon="7.07715">
        <ele>972.40002441406</ele>
        <time>2021-05-23T13:55:33Z</time>
      </trkpt>
      <trkpt lat="48.16102" lon="7.07712">
        <ele>972.20001220703</ele>
        <time>2021-05-23T13:55:34Z</time>
      </trkpt>
      <trkpt lat="48.16097" lon="7.07709">
        <ele>972.40002441406</ele>
        <time>2021-05-23T13:55:35Z</time>
      </trkpt>
      <trkpt lat="48.16078" lon="7.07701">
        <ele>972</ele>
        <time>2021-05-23T13:55:38Z</time>
      </trkpt>
      <trkpt lat="48.16063" lon="7.07691">
        <ele>971.79998779297</ele>
        <time>2021-05-23T13:55:41Z</time>
      </trkpt>
      <trkpt lat="48.16059" lon="7.07686">
        <ele>971.79998779297</ele>
        <time>2021-05-23T13:55:42Z</time>
      </trkpt>
      <trkpt lat="48.16051" lon="7.07674">
        <ele>971.79998779297</ele>
        <time>2021-05-23T13:55:44Z</time>
      </trkpt>
      <trkpt lat="48.16042" lon="7.07665">
        <ele>971.79998779297</ele>
        <time>2021-05-23T13:55:46Z</time>
      </trkpt>
      <trkpt lat="48.16037" lon="7.0766">
        <ele>971.79998779297</ele>
        <time>2021-05-23T13:55:47Z</time>
      </trkpt>
      <trkpt lat="48.16022" lon="7.07646">
        <ele>972</ele>
        <time>2021-05-23T13:55:50Z</time>
      </trkpt>
      <trkpt lat="48.16014" lon="7.07636">
        <ele>972.20001220703</ele>
        <time>2021-05-23T13:55:52Z</time>
      </trkpt>
      <trkpt lat="48.16" lon="7.07623">
        <ele>972.59997558594</ele>
        <time>2021-05-23T13:55:55Z</time>
      </trkpt>
      <trkpt lat="48.15996" lon="7.07619">
        <ele>972.59997558594</ele>
        <time>2021-05-23T13:55:56Z</time>
      </trkpt>
      <trkpt lat="48.15983" lon="7.07607">
        <ele>972.59997558594</ele>
        <time>2021-05-23T13:55:59Z</time>
      </trkpt>
      <trkpt lat="48.15971" lon="7.07594">
        <ele>973</ele>
        <time>2021-05-23T13:56:02Z</time>
      </trkpt>
      <trkpt lat="48.15967" lon="7.07589">
        <ele>973</ele>
        <time>2021-05-23T13:56:03Z</time>
      </trkpt>
      <trkpt lat="48.15961" lon="7.0758">
        <ele>973.40002441406</ele>
        <time>2021-05-23T13:56:05Z</time>
      </trkpt>
      <trkpt lat="48.15954" lon="7.0757">
        <ele>973.59997558594</ele>
        <time>2021-05-23T13:56:07Z</time>
      </trkpt>
      <trkpt lat="48.15945" lon="7.07558">
        <ele>974</ele>
        <time>2021-05-23T13:56:10Z</time>
      </trkpt>
      <trkpt lat="48.15942" lon="7.07556">
        <ele>974.59997558594</ele>
        <time>2021-05-23T13:56:11Z</time>
      </trkpt>
      <trkpt lat="48.15934" lon="7.07546">
        <ele>975.59997558594</ele>
        <time>2021-05-23T13:56:14Z</time>
      </trkpt>
      <trkpt lat="48.15925" lon="7.07531">
        <ele>976.79998779297</ele>
        <time>2021-05-23T13:56:18Z</time>
      </trkpt>
      <trkpt lat="48.15922" lon="7.07526">
        <ele>977</ele>
        <time>2021-05-23T13:56:19Z</time>
      </trkpt>
      <trkpt lat="48.1592" lon="7.07521">
        <ele>977.40002441406</ele>
        <time>2021-05-23T13:56:20Z</time>
      </trkpt>
      <trkpt lat="48.15914" lon="7.07507">
        <ele>978</ele>
        <time>2021-05-23T13:56:23Z</time>
      </trkpt>
      <trkpt lat="48.15911" lon="7.07498">
        <ele>978.20001220703</ele>
        <time>2021-05-23T13:56:25Z</time>
      </trkpt>
      <trkpt lat="48.15905" lon="7.07489">
        <ele>978.59997558594</ele>
        <time>2021-05-23T13:56:28Z</time>
      </trkpt>
      <trkpt lat="48.15902" lon="7.07486">
        <ele>978.59997558594</ele>
        <time>2021-05-23T13:56:29Z</time>
      </trkpt>
      <trkpt lat="48.15896" lon="7.07477">
        <ele>979</ele>
        <time>2021-05-23T13:56:32Z</time>
      </trkpt>
      <trkpt lat="48.15891" lon="7.0747">
        <ele>979.20001220703</ele>
        <time>2021-05-23T13:56:34Z</time>
      </trkpt>
      <trkpt lat="48.15883" lon="7.0746">
        <ele>979.79998779297</ele>
        <time>2021-05-23T13:56:37Z</time>
      </trkpt>
      <trkpt lat="48.15877" lon="7.07453">
        <ele>980</ele>
        <time>2021-05-23T13:56:39Z</time>
      </trkpt>
      <trkpt lat="48.15868" lon="7.07444">
        <ele>980.20001220703</ele>
        <time>2021-05-23T13:56:41Z</time>
      </trkpt>
      <trkpt lat="48.15851" lon="7.07428">
        <ele>980.79998779297</ele>
        <time>2021-05-23T13:56:45Z</time>
      </trkpt>
      <trkpt lat="48.15843" lon="7.07421">
        <ele>981.40002441406</ele>
        <time>2021-05-23T13:56:47Z</time>
      </trkpt>
      <trkpt lat="48.15829" lon="7.07406">
        <ele>982.40002441406</ele>
        <time>2021-05-23T13:56:51Z</time>
      </trkpt>
      <trkpt lat="48.15824" lon="7.07403">
        <ele>982.59997558594</ele>
        <time>2021-05-23T13:56:52Z</time>
      </trkpt>
      <trkpt lat="48.15818" lon="7.07397">
        <ele>982.79998779297</ele>
        <time>2021-05-23T13:56:54Z</time>
      </trkpt>
      <trkpt lat="48.15799" lon="7.07378">
        <ele>983.59997558594</ele>
        <time>2021-05-23T13:57:00Z</time>
      </trkpt>
      <trkpt lat="48.15792" lon="7.07372">
        <ele>983.79998779297</ele>
        <time>2021-05-23T13:57:02Z</time>
      </trkpt>
      <trkpt lat="48.1577" lon="7.07351">
        <ele>984.59997558594</ele>
        <time>2021-05-23T13:57:09Z</time>
      </trkpt>
      <trkpt lat="48.15766" lon="7.07349">
        <ele>984.59997558594</ele>
        <time>2021-05-23T13:57:10Z</time>
      </trkpt>
      <trkpt lat="48.15763" lon="7.07347">
        <ele>984.59997558594</ele>
        <time>2021-05-23T13:57:11Z</time>
      </trkpt>
      <trkpt lat="48.15749" lon="7.0734">
        <ele>985.40002441406</ele>
        <time>2021-05-23T13:57:15Z</time>
      </trkpt>
      <trkpt lat="48.15746" lon="7.07338">
        <ele>985.59997558594</ele>
        <time>2021-05-23T13:57:16Z</time>
      </trkpt>
      <trkpt lat="48.15727" lon="7.07334">
        <ele>986.59997558594</ele>
        <time>2021-05-23T13:57:21Z</time>
      </trkpt>
      <trkpt lat="48.15719" lon="7.07335">
        <ele>986.79998779297</ele>
        <time>2021-05-23T13:57:23Z</time>
      </trkpt>
      <trkpt lat="48.15695" lon="7.0733">
        <ele>987.59997558594</ele>
        <time>2021-05-23T13:57:29Z</time>
      </trkpt>
      <trkpt lat="48.15691" lon="7.07329">
        <ele>987.79998779297</ele>
        <time>2021-05-23T13:57:30Z</time>
      </trkpt>
      <trkpt lat="48.15674" lon="7.07329">
        <ele>988.59997558594</ele>
        <time>2021-05-23T13:57:34Z</time>
      </trkpt>
      <trkpt lat="48.15669" lon="7.07328">
        <ele>988.79998779297</ele>
        <time>2021-05-23T13:57:35Z</time>
      </trkpt>
      <trkpt lat="48.15642" lon="7.07324">
        <ele>989.79998779297</ele>
        <time>2021-05-23T13:57:42Z</time>
      </trkpt>
      <trkpt lat="48.15638" lon="7.07324">
        <ele>990</ele>
        <time>2021-05-23T13:57:43Z</time>
      </trkpt>
      <trkpt lat="48.15611" lon="7.07325">
        <ele>991</ele>
        <time>2021-05-23T13:57:49Z</time>
      </trkpt>
      <trkpt lat="48.15607" lon="7.07323">
        <ele>991.40002441406</ele>
        <time>2021-05-23T13:57:50Z</time>
      </trkpt>
      <trkpt lat="48.15585" lon="7.07316">
        <ele>992.20001220703</ele>
        <time>2021-05-23T13:57:56Z</time>
      </trkpt>
      <trkpt lat="48.15582" lon="7.07314">
        <ele>992.40002441406</ele>
        <time>2021-05-23T13:57:57Z</time>
      </trkpt>
      <trkpt lat="48.15569" lon="7.07305">
        <ele>993.20001220703</ele>
        <time>2021-05-23T13:58:01Z</time>
      </trkpt>
      <trkpt lat="48.15564" lon="7.073">
        <ele>993.59997558594</ele>
        <time>2021-05-23T13:58:03Z</time>
      </trkpt>
      <trkpt lat="48.15552" lon="7.07287">
        <ele>994.20001220703</ele>
        <time>2021-05-23T13:58:07Z</time>
      </trkpt>
      <trkpt lat="48.15542" lon="7.07278">
        <ele>994.59997558594</ele>
        <time>2021-05-23T13:58:10Z</time>
      </trkpt>
      <trkpt lat="48.15524" lon="7.07264">
        <ele>995.20001220703</ele>
        <time>2021-05-23T13:58:15Z</time>
      </trkpt>
      <trkpt lat="48.15517" lon="7.07258">
        <ele>995.59997558594</ele>
        <time>2021-05-23T13:58:17Z</time>
      </trkpt>
      <trkpt lat="48.15499" lon="7.07242">
        <ele>995.79998779297</ele>
        <time>2021-05-23T13:58:22Z</time>
      </trkpt>
      <trkpt lat="48.1548" lon="7.07223">
        <ele>995.79998779297</ele>
        <time>2021-05-23T13:58:27Z</time>
      </trkpt>
      <trkpt lat="48.15466" lon="7.07208">
        <ele>995.40002441406</ele>
        <time>2021-05-23T13:58:31Z</time>
      </trkpt>
      <trkpt lat="48.15458" lon="7.07199">
        <ele>995.20001220703</ele>
        <time>2021-05-23T13:58:33Z</time>
      </trkpt>
      <trkpt lat="48.15447" lon="7.07184">
        <ele>994.40002441406</ele>
        <time>2021-05-23T13:58:36Z</time>
      </trkpt>
      <trkpt lat="48.15438" lon="7.07172">
        <ele>994.20001220703</ele>
        <time>2021-05-23T13:58:38Z</time>
      </trkpt>
      <trkpt lat="48.15424" lon="7.07154">
        <ele>993.59997558594</ele>
        <time>2021-05-23T13:58:41Z</time>
      </trkpt>
      <trkpt lat="48.15419" lon="7.07148">
        <ele>993.20001220703</ele>
        <time>2021-05-23T13:58:42Z</time>
      </trkpt>
      <trkpt lat="48.15407" lon="7.07138">
        <ele>992.20001220703</ele>
        <time>2021-05-23T13:58:44Z</time>
      </trkpt>
      <trkpt lat="48.15393" lon="7.07129">
        <ele>991.59997558594</ele>
        <time>2021-05-23T13:58:46Z</time>
      </trkpt>
      <trkpt lat="48.1538" lon="7.07122">
        <ele>991</ele>
        <time>2021-05-23T13:58:48Z</time>
      </trkpt>
      <trkpt lat="48.15375" lon="7.07119">
        <ele>991</ele>
        <time>2021-05-23T13:58:49Z</time>
      </trkpt>
      <trkpt lat="48.15347" lon="7.07107">
        <ele>989.79998779297</ele>
        <time>2021-05-23T13:58:53Z</time>
      </trkpt>
      <trkpt lat="48.15333" lon="7.071">
        <ele>989</ele>
        <time>2021-05-23T13:58:55Z</time>
      </trkpt>
      <trkpt lat="48.15319" lon="7.07093">
        <ele>988.79998779297</ele>
        <time>2021-05-23T13:58:57Z</time>
      </trkpt>
      <trkpt lat="48.15271" lon="7.07067">
        <ele>989</ele>
        <time>2021-05-23T13:59:04Z</time>
      </trkpt>
      <trkpt lat="48.1524" lon="7.07042">
        <ele>989.20001220703</ele>
        <time>2021-05-23T13:59:09Z</time>
      </trkpt>
      <trkpt lat="48.15234" lon="7.07038">
        <ele>989.20001220703</ele>
        <time>2021-05-23T13:59:10Z</time>
      </trkpt>
      <trkpt lat="48.15215" lon="7.07019">
        <ele>989.59997558594</ele>
        <time>2021-05-23T13:59:14Z</time>
      </trkpt>
      <trkpt lat="48.15211" lon="7.07015">
        <ele>989.59997558594</ele>
        <time>2021-05-23T13:59:15Z</time>
      </trkpt>
      <trkpt lat="48.15206" lon="7.07011">
        <ele>989.59997558594</ele>
        <time>2021-05-23T13:59:16Z</time>
      </trkpt>
      <trkpt lat="48.15196" lon="7.07005">
        <ele>989.79998779297</ele>
        <time>2021-05-23T13:59:18Z</time>
      </trkpt>
      <trkpt lat="48.15191" lon="7.07002">
        <ele>989.79998779297</ele>
        <time>2021-05-23T13:59:19Z</time>
      </trkpt>
      <trkpt lat="48.15186" lon="7.07">
        <ele>990</ele>
        <time>2021-05-23T13:59:20Z</time>
      </trkpt>
      <trkpt lat="48.15182" lon="7.06998">
        <ele>990.20001220703</ele>
        <time>2021-05-23T13:59:21Z</time>
      </trkpt>
      <trkpt lat="48.15173" lon="7.06996">
        <ele>990.79998779297</ele>
        <time>2021-05-23T13:59:23Z</time>
      </trkpt>
      <trkpt lat="48.15168" lon="7.06996">
        <ele>991</ele>
        <time>2021-05-23T13:59:24Z</time>
      </trkpt>
      <trkpt lat="48.15155" lon="7.06993">
        <ele>991.79998779297</ele>
        <time>2021-05-23T13:59:27Z</time>
      </trkpt>
      <trkpt lat="48.15148" lon="7.06991">
        <ele>992.20001220703</ele>
        <time>2021-05-23T13:59:29Z</time>
      </trkpt>
      <trkpt lat="48.15135" lon="7.06985">
        <ele>993.20001220703</ele>
        <time>2021-05-23T13:59:32Z</time>
      </trkpt>
      <trkpt lat="48.15126" lon="7.0698">
        <ele>993.79998779297</ele>
        <time>2021-05-23T13:59:34Z</time>
      </trkpt>
      <trkpt lat="48.15116" lon="7.06975">
        <ele>994.40002441406</ele>
        <time>2021-05-23T13:59:36Z</time>
      </trkpt>
      <trkpt lat="48.15093" lon="7.0696">
        <ele>995.40002441406</ele>
        <time>2021-05-23T13:59:41Z</time>
      </trkpt>
      <trkpt lat="48.15054" lon="7.06937">
        <ele>996.40002441406</ele>
        <time>2021-05-23T13:59:49Z</time>
      </trkpt>
      <trkpt lat="48.15049" lon="7.06933">
        <ele>996.40002441406</ele>
        <time>2021-05-23T13:59:50Z</time>
      </trkpt>
      <trkpt lat="48.15022" lon="7.06906">
        <ele>997.40002441406</ele>
        <time>2021-05-23T13:59:57Z</time>
      </trkpt>
      <trkpt lat="48.15018" lon="7.06902">
        <ele>997.40002441406</ele>
        <time>2021-05-23T13:59:58Z</time>
      </trkpt>
      <trkpt lat="48.15013" lon="7.06898">
        <ele>997.79998779297</ele>
        <time>2021-05-23T13:59:59Z</time>
      </trkpt>
      <trkpt lat="48.1499" lon="7.06878">
        <ele>998.20001220703</ele>
        <time>2021-05-23T14:00:04Z</time>
      </trkpt>
      <trkpt lat="48.14985" lon="7.06874">
        <ele>998.20001220703</ele>
        <time>2021-05-23T14:00:05Z</time>
      </trkpt>
      <trkpt lat="48.14973" lon="7.06859">
        <ele>998.20001220703</ele>
        <time>2021-05-23T14:00:08Z</time>
      </trkpt>
      <trkpt lat="48.14967" lon="7.06854">
        <ele>998.20001220703</ele>
        <time>2021-05-23T14:00:09Z</time>
      </trkpt>
      <trkpt lat="48.14957" lon="7.06842">
        <ele>998.40002441406</ele>
        <time>2021-05-23T14:00:12Z</time>
      </trkpt>
      <trkpt lat="48.14949" lon="7.06831">
        <ele>998.79998779297</ele>
        <time>2021-05-23T14:00:14Z</time>
      </trkpt>
      <trkpt lat="48.14945" lon="7.06826">
        <ele>998.79998779297</ele>
        <time>2021-05-23T14:00:15Z</time>
      </trkpt>
      <trkpt lat="48.14927" lon="7.06801">
        <ele>999.20001220703</ele>
        <time>2021-05-23T14:00:20Z</time>
      </trkpt>
      <trkpt lat="48.14924" lon="7.06796">
        <ele>999.20001220703</ele>
        <time>2021-05-23T14:00:21Z</time>
      </trkpt>
      <trkpt lat="48.14916" lon="7.06785">
        <ele>999.40002441406</ele>
        <time>2021-05-23T14:00:23Z</time>
      </trkpt>
      <trkpt lat="48.14909" lon="7.06776">
        <ele>999.40002441406</ele>
        <time>2021-05-23T14:00:25Z</time>
      </trkpt>
      <trkpt lat="48.14904" lon="7.06772">
        <ele>999.40002441406</ele>
        <time>2021-05-23T14:00:26Z</time>
      </trkpt>
      <trkpt lat="48.14884" lon="7.06757">
        <ele>1000</ele>
        <time>2021-05-23T14:00:30Z</time>
      </trkpt>
      <trkpt lat="48.1488" lon="7.06754">
        <ele>1000</ele>
        <time>2021-05-23T14:00:31Z</time>
      </trkpt>
      <trkpt lat="48.14875" lon="7.0675">
        <ele>1000</ele>
        <time>2021-05-23T14:00:32Z</time>
      </trkpt>
      <trkpt lat="48.14865" lon="7.06745">
        <ele>1000.200012207</ele>
        <time>2021-05-23T14:00:34Z</time>
      </trkpt>
      <trkpt lat="48.14861" lon="7.06741">
        <ele>1000.200012207</ele>
        <time>2021-05-23T14:00:35Z</time>
      </trkpt>
      <trkpt lat="48.14848" lon="7.0673">
        <ele>1000.4000244141</ele>
        <time>2021-05-23T14:00:38Z</time>
      </trkpt>
      <trkpt lat="48.14839" lon="7.06725">
        <ele>1000.799987793</ele>
        <time>2021-05-23T14:00:40Z</time>
      </trkpt>
      <trkpt lat="48.14833" lon="7.06723">
        <ele>1001</ele>
        <time>2021-05-23T14:00:41Z</time>
      </trkpt>
      <trkpt lat="48.14812" lon="7.06716">
        <ele>1001.5999755859</ele>
        <time>2021-05-23T14:00:45Z</time>
      </trkpt>
      <trkpt lat="48.14802" lon="7.06715">
        <ele>1002.200012207</ele>
        <time>2021-05-23T14:00:47Z</time>
      </trkpt>
      <trkpt lat="48.14789" lon="7.06715">
        <ele>1003.200012207</ele>
        <time>2021-05-23T14:00:50Z</time>
      </trkpt>
      <trkpt lat="48.14771" lon="7.06714">
        <ele>1003.799987793</ele>
        <time>2021-05-23T14:00:54Z</time>
      </trkpt>
      <trkpt lat="48.14766" lon="7.06714">
        <ele>1003.799987793</ele>
        <time>2021-05-23T14:00:55Z</time>
      </trkpt>
      <trkpt lat="48.14762" lon="7.06715">
        <ele>1004.200012207</ele>
        <time>2021-05-23T14:00:56Z</time>
      </trkpt>
      <trkpt lat="48.14758" lon="7.06715">
        <ele>1004.4000244141</ele>
        <time>2021-05-23T14:00:57Z</time>
      </trkpt>
      <trkpt lat="48.14748" lon="7.06718">
        <ele>1004.5999755859</ele>
        <time>2021-05-23T14:01:00Z</time>
      </trkpt>
      <trkpt lat="48.14737" lon="7.06722">
        <ele>1005.200012207</ele>
        <time>2021-05-23T14:01:03Z</time>
      </trkpt>
      <trkpt lat="48.14726" lon="7.06725">
        <ele>1006.4000244141</ele>
        <time>2021-05-23T14:01:06Z</time>
      </trkpt>
      <trkpt lat="48.14715" lon="7.06729">
        <ele>1007</ele>
        <time>2021-05-23T14:01:09Z</time>
      </trkpt>
      <trkpt lat="48.14708" lon="7.06732">
        <ele>1007.5999755859</ele>
        <time>2021-05-23T14:01:11Z</time>
      </trkpt>
      <trkpt lat="48.14702" lon="7.06737">
        <ele>1008</ele>
        <time>2021-05-23T14:01:13Z</time>
      </trkpt>
      <trkpt lat="48.14693" lon="7.0674">
        <ele>1009</ele>
        <time>2021-05-23T14:01:16Z</time>
      </trkpt>
      <trkpt lat="48.14681" lon="7.06743">
        <ele>1009.799987793</ele>
        <time>2021-05-23T14:01:19Z</time>
      </trkpt>
      <trkpt lat="48.14677" lon="7.06745">
        <ele>1010</ele>
        <time>2021-05-23T14:01:20Z</time>
      </trkpt>
      <trkpt lat="48.14667" lon="7.0675">
        <ele>1011.200012207</ele>
        <time>2021-05-23T14:01:23Z</time>
      </trkpt>
      <trkpt lat="48.14663" lon="7.06749">
        <ele>1011.4000244141</ele>
        <time>2021-05-23T14:01:24Z</time>
      </trkpt>
      <trkpt lat="48.14652" lon="7.06753">
        <ele>1012.5999755859</ele>
        <time>2021-05-23T14:01:27Z</time>
      </trkpt>
      <trkpt lat="48.14636" lon="7.06751">
        <ele>1013.799987793</ele>
        <time>2021-05-23T14:01:31Z</time>
      </trkpt>
      <trkpt lat="48.14627" lon="7.0675">
        <ele>1015</ele>
        <time>2021-05-23T14:01:34Z</time>
      </trkpt>
      <trkpt lat="48.14615" lon="7.0675">
        <ele>1016.4000244141</ele>
        <time>2021-05-23T14:01:38Z</time>
      </trkpt>
      <trkpt lat="48.14599" lon="7.06749">
        <ele>1017.4000244141</ele>
        <time>2021-05-23T14:01:42Z</time>
      </trkpt>
      <trkpt lat="48.1459" lon="7.06746">
        <ele>1018.200012207</ele>
        <time>2021-05-23T14:01:45Z</time>
      </trkpt>
      <trkpt lat="48.14584" lon="7.06745">
        <ele>1018.5999755859</ele>
        <time>2021-05-23T14:01:47Z</time>
      </trkpt>
      <trkpt lat="48.14573" lon="7.06743">
        <ele>1019.200012207</ele>
        <time>2021-05-23T14:01:51Z</time>
      </trkpt>
      <trkpt lat="48.1457" lon="7.06742">
        <ele>1019.5999755859</ele>
        <time>2021-05-23T14:01:52Z</time>
      </trkpt>
      <trkpt lat="48.14564" lon="7.06738">
        <ele>1020</ele>
        <time>2021-05-23T14:01:54Z</time>
      </trkpt>
      <trkpt lat="48.14561" lon="7.06736">
        <ele>1020.4000244141</ele>
        <time>2021-05-23T14:01:55Z</time>
      </trkpt>
      <trkpt lat="48.14557" lon="7.06735">
        <ele>1020.5999755859</ele>
        <time>2021-05-23T14:01:56Z</time>
      </trkpt>
      <trkpt lat="48.14551" lon="7.06732">
        <ele>1021.200012207</ele>
        <time>2021-05-23T14:01:58Z</time>
      </trkpt>
      <trkpt lat="48.14545" lon="7.06729">
        <ele>1021.5999755859</ele>
        <time>2021-05-23T14:02:00Z</time>
      </trkpt>
      <trkpt lat="48.14535" lon="7.06724">
        <ele>1022.4000244141</ele>
        <time>2021-05-23T14:02:03Z</time>
      </trkpt>
      <trkpt lat="48.14528" lon="7.06721">
        <ele>1022.5999755859</ele>
        <time>2021-05-23T14:02:05Z</time>
      </trkpt>
      <trkpt lat="48.14518" lon="7.06717">
        <ele>1022.799987793</ele>
        <time>2021-05-23T14:02:07Z</time>
      </trkpt>
      <trkpt lat="48.14512" lon="7.06717">
        <ele>1022.799987793</ele>
        <time>2021-05-23T14:02:08Z</time>
      </trkpt>
      <trkpt lat="48.14507" lon="7.06716">
        <ele>1022.799987793</ele>
        <time>2021-05-23T14:02:09Z</time>
      </trkpt>
      <trkpt lat="48.14484" lon="7.06711">
        <ele>1023.4000244141</ele>
        <time>2021-05-23T14:02:13Z</time>
      </trkpt>
      <trkpt lat="48.14466" lon="7.06705">
        <ele>1023.799987793</ele>
        <time>2021-05-23T14:02:16Z</time>
      </trkpt>
      <trkpt lat="48.14457" lon="7.06701">
        <ele>1023.799987793</ele>
        <time>2021-05-23T14:02:18Z</time>
      </trkpt>
      <trkpt lat="48.14434" lon="7.0669">
        <ele>1023.799987793</ele>
        <time>2021-05-23T14:02:23Z</time>
      </trkpt>
      <trkpt lat="48.14427" lon="7.06685">
        <ele>1024</ele>
        <time>2021-05-23T14:02:24Z</time>
      </trkpt>
      <trkpt lat="48.14416" lon="7.06681">
        <ele>1024.1999511719</ele>
        <time>2021-05-23T14:02:26Z</time>
      </trkpt>
      <trkpt lat="48.14402" lon="7.06673">
        <ele>1024.4000244141</ele>
        <time>2021-05-23T14:02:29Z</time>
      </trkpt>
      <trkpt lat="48.14397" lon="7.0667">
        <ele>1024.4000244141</ele>
        <time>2021-05-23T14:02:30Z</time>
      </trkpt>
      <trkpt lat="48.14393" lon="7.06665">
        <ele>1024.8000488281</ele>
        <time>2021-05-23T14:02:31Z</time>
      </trkpt>
      <trkpt lat="48.14381" lon="7.06649">
        <ele>1025</ele>
        <time>2021-05-23T14:02:34Z</time>
      </trkpt>
      <trkpt lat="48.14377" lon="7.06644">
        <ele>1025.1999511719</ele>
        <time>2021-05-23T14:02:35Z</time>
      </trkpt>
      <trkpt lat="48.1436" lon="7.06621">
        <ele>1025.4000244141</ele>
        <time>2021-05-23T14:02:39Z</time>
      </trkpt>
      <trkpt lat="48.14353" lon="7.06608">
        <ele>1025.5999755859</ele>
        <time>2021-05-23T14:02:41Z</time>
      </trkpt>
      <trkpt lat="48.14348" lon="7.06595">
        <ele>1025.8000488281</ele>
        <time>2021-05-23T14:02:43Z</time>
      </trkpt>
      <trkpt lat="48.14341" lon="7.06583">
        <ele>1026</ele>
        <time>2021-05-23T14:02:45Z</time>
      </trkpt>
      <trkpt lat="48.14322" lon="7.06549">
        <ele>1026.1999511719</ele>
        <time>2021-05-23T14:02:50Z</time>
      </trkpt>
      <trkpt lat="48.14295" lon="7.06509">
        <ele>1026</ele>
        <time>2021-05-23T14:02:56Z</time>
      </trkpt>
      <trkpt lat="48.14251" lon="7.06462">
        <ele>1025.1999511719</ele>
        <time>2021-05-23T14:03:04Z</time>
      </trkpt>
      <trkpt lat="48.14239" lon="7.0645">
        <ele>1024.4000244141</ele>
        <time>2021-05-23T14:03:06Z</time>
      </trkpt>
      <trkpt lat="48.14225" lon="7.06437">
        <ele>1023.200012207</ele>
        <time>2021-05-23T14:03:08Z</time>
      </trkpt>
      <trkpt lat="48.14219" lon="7.0643">
        <ele>1022.799987793</ele>
        <time>2021-05-23T14:03:09Z</time>
      </trkpt>
      <trkpt lat="48.14206" lon="7.06417">
        <ele>1022</ele>
        <time>2021-05-23T14:03:11Z</time>
      </trkpt>
      <trkpt lat="48.14193" lon="7.06402">
        <ele>1021</ele>
        <time>2021-05-23T14:03:13Z</time>
      </trkpt>
      <trkpt lat="48.14185" lon="7.06395">
        <ele>1020.799987793</ele>
        <time>2021-05-23T14:03:14Z</time>
      </trkpt>
      <trkpt lat="48.14163" lon="7.06375">
        <ele>1020.4000244141</ele>
        <time>2021-05-23T14:03:17Z</time>
      </trkpt>
      <trkpt lat="48.14143" lon="7.06353">
        <ele>1020.200012207</ele>
        <time>2021-05-23T14:03:20Z</time>
      </trkpt>
      <trkpt lat="48.14132" lon="7.06338">
        <ele>1020</ele>
        <time>2021-05-23T14:03:22Z</time>
      </trkpt>
      <trkpt lat="48.14116" lon="7.06317">
        <ele>1019.799987793</ele>
        <time>2021-05-23T14:03:25Z</time>
      </trkpt>
      <trkpt lat="48.14102" lon="7.06294">
        <ele>1019.799987793</ele>
        <time>2021-05-23T14:03:28Z</time>
      </trkpt>
      <trkpt lat="48.14072" lon="7.06251">
        <ele>1020.5999755859</ele>
        <time>2021-05-23T14:03:35Z</time>
      </trkpt>
      <trkpt lat="48.14063" lon="7.0624">
        <ele>1020.799987793</ele>
        <time>2021-05-23T14:03:37Z</time>
      </trkpt>
      <trkpt lat="48.14048" lon="7.06225">
        <ele>1021.200012207</ele>
        <time>2021-05-23T14:03:40Z</time>
      </trkpt>
      <trkpt lat="48.14037" lon="7.06219">
        <ele>1021.200012207</ele>
        <time>2021-05-23T14:03:42Z</time>
      </trkpt>
      <trkpt lat="48.14025" lon="7.06219">
        <ele>1021.4000244141</ele>
        <time>2021-05-23T14:03:44Z</time>
      </trkpt>
      <trkpt lat="48.14013" lon="7.06224">
        <ele>1021.5999755859</ele>
        <time>2021-05-23T14:03:46Z</time>
      </trkpt>
      <trkpt lat="48.14002" lon="7.06231">
        <ele>1022</ele>
        <time>2021-05-23T14:03:48Z</time>
      </trkpt>
      <trkpt lat="48.13996" lon="7.06235">
        <ele>1022</ele>
        <time>2021-05-23T14:03:49Z</time>
      </trkpt>
      <trkpt lat="48.13986" lon="7.06247">
        <ele>1022.200012207</ele>
        <time>2021-05-23T14:03:51Z</time>
      </trkpt>
      <trkpt lat="48.1397" lon="7.06284">
        <ele>1022.200012207</ele>
        <time>2021-05-23T14:03:55Z</time>
      </trkpt>
      <trkpt lat="48.13965" lon="7.06294">
        <ele>1022</ele>
        <time>2021-05-23T14:03:56Z</time>
      </trkpt>
      <trkpt lat="48.13951" lon="7.06308">
        <ele>1021</ele>
        <time>2021-05-23T14:03:58Z</time>
      </trkpt>
      <trkpt lat="48.13943" lon="7.06313">
        <ele>1019.799987793</ele>
        <time>2021-05-23T14:03:59Z</time>
      </trkpt>
      <trkpt lat="48.13934" lon="7.06315">
        <ele>1019.4000244141</ele>
        <time>2021-05-23T14:04:00Z</time>
      </trkpt>
      <trkpt lat="48.13924" lon="7.06315">
        <ele>1019</ele>
        <time>2021-05-23T14:04:01Z</time>
      </trkpt>
      <trkpt lat="48.13914" lon="7.06314">
        <ele>1018.200012207</ele>
        <time>2021-05-23T14:04:02Z</time>
      </trkpt>
      <trkpt lat="48.13893" lon="7.0631">
        <ele>1016.799987793</ele>
        <time>2021-05-23T14:04:04Z</time>
      </trkpt>
      <trkpt lat="48.13881" lon="7.06307">
        <ele>1015.799987793</ele>
        <time>2021-05-23T14:04:05Z</time>
      </trkpt>
      <trkpt lat="48.1387" lon="7.06304">
        <ele>1015.200012207</ele>
        <time>2021-05-23T14:04:06Z</time>
      </trkpt>
      <trkpt lat="48.13846" lon="7.06299">
        <ele>1013</ele>
        <time>2021-05-23T14:04:08Z</time>
      </trkpt>
      <trkpt lat="48.13819" lon="7.06291">
        <ele>1010.5999755859</ele>
        <time>2021-05-23T14:04:10Z</time>
      </trkpt>
      <trkpt lat="48.1381" lon="7.06286">
        <ele>1010</ele>
        <time>2021-05-23T14:04:11Z</time>
      </trkpt>
      <trkpt lat="48.13799" lon="7.06276">
        <ele>1008.799987793</ele>
        <time>2021-05-23T14:04:12Z</time>
      </trkpt>
      <trkpt lat="48.1378" lon="7.06251">
        <ele>1006.200012207</ele>
        <time>2021-05-23T14:04:14Z</time>
      </trkpt>
      <trkpt lat="48.13764" lon="7.06222">
        <ele>1004.200012207</ele>
        <time>2021-05-23T14:04:16Z</time>
      </trkpt>
      <trkpt lat="48.13757" lon="7.06207">
        <ele>1001.799987793</ele>
        <time>2021-05-23T14:04:17Z</time>
      </trkpt>
      <trkpt lat="48.1374" lon="7.06178">
        <ele>999.79998779297</ele>
        <time>2021-05-23T14:04:19Z</time>
      </trkpt>
      <trkpt lat="48.13722" lon="7.06151">
        <ele>998</ele>
        <time>2021-05-23T14:04:21Z</time>
      </trkpt>
      <trkpt lat="48.13715" lon="7.06142">
        <ele>996.20001220703</ele>
        <time>2021-05-23T14:04:22Z</time>
      </trkpt>
      <trkpt lat="48.13706" lon="7.06132">
        <ele>995.79998779297</ele>
        <time>2021-05-23T14:04:23Z</time>
      </trkpt>
      <trkpt lat="48.13696" lon="7.06125">
        <ele>994.59997558594</ele>
        <time>2021-05-23T14:04:24Z</time>
      </trkpt>
      <trkpt lat="48.13675" lon="7.06116">
        <ele>992.40002441406</ele>
        <time>2021-05-23T14:04:26Z</time>
      </trkpt>
      <trkpt lat="48.13659" lon="7.06113">
        <ele>991.40002441406</ele>
        <time>2021-05-23T14:04:28Z</time>
      </trkpt>
      <trkpt lat="48.13652" lon="7.06113">
        <ele>990.79998779297</ele>
        <time>2021-05-23T14:04:29Z</time>
      </trkpt>
      <trkpt lat="48.13639" lon="7.06118">
        <ele>990.59997558594</ele>
        <time>2021-05-23T14:04:31Z</time>
      </trkpt>
      <trkpt lat="48.13635" lon="7.06122">
        <ele>990.59997558594</ele>
        <time>2021-05-23T14:04:32Z</time>
      </trkpt>
      <trkpt lat="48.13632" lon="7.06126">
        <ele>990.59997558594</ele>
        <time>2021-05-23T14:04:33Z</time>
      </trkpt>
      <trkpt lat="48.13626" lon="7.06138">
        <ele>990.59997558594</ele>
        <time>2021-05-23T14:04:36Z</time>
      </trkpt>
      <trkpt lat="48.13625" lon="7.0615">
        <ele>991.20001220703</ele>
        <time>2021-05-23T14:04:40Z</time>
      </trkpt>
      <trkpt lat="48.13627" lon="7.0616">
        <ele>992</ele>
        <time>2021-05-23T14:04:44Z</time>
      </trkpt>
      <trkpt lat="48.13629" lon="7.06162">
        <ele>992.20001220703</ele>
        <time>2021-05-23T14:04:45Z</time>
      </trkpt>
      <trkpt lat="48.13629" lon="7.06164">
        <ele>992.40002441406</ele>
        <time>2021-05-23T14:04:46Z</time>
      </trkpt>
      <trkpt lat="48.13633" lon="7.06177">
        <ele>993</ele>
        <time>2021-05-23T14:04:51Z</time>
      </trkpt>
      <trkpt lat="48.1364" lon="7.06195">
        <ele>993.40002441406</ele>
        <time>2021-05-23T14:04:57Z</time>
      </trkpt>
      <trkpt lat="48.13644" lon="7.06207">
        <ele>994</ele>
        <time>2021-05-23T14:05:00Z</time>
      </trkpt>
      <trkpt lat="48.13645" lon="7.06211">
        <ele>994.20001220703</ele>
        <time>2021-05-23T14:05:01Z</time>
      </trkpt>
      <trkpt lat="48.13647" lon="7.06221">
        <ele>994.59997558594</ele>
        <time>2021-05-23T14:05:03Z</time>
      </trkpt>
      <trkpt lat="48.1365" lon="7.06236">
        <ele>995</ele>
        <time>2021-05-23T14:05:06Z</time>
      </trkpt>
      <trkpt lat="48.13652" lon="7.06246">
        <ele>995.79998779297</ele>
        <time>2021-05-23T14:05:08Z</time>
      </trkpt>
      <trkpt lat="48.13654" lon="7.06267">
        <ele>996.59997558594</ele>
        <time>2021-05-23T14:05:12Z</time>
      </trkpt>
      <trkpt lat="48.13655" lon="7.06277">
        <ele>997</ele>
        <time>2021-05-23T14:05:14Z</time>
      </trkpt>
      <trkpt lat="48.13654" lon="7.06292">
        <ele>998.20001220703</ele>
        <time>2021-05-23T14:05:17Z</time>
      </trkpt>
      <trkpt lat="48.13652" lon="7.06305">
        <ele>999</ele>
        <time>2021-05-23T14:05:20Z</time>
      </trkpt>
      <trkpt lat="48.13651" lon="7.06309">
        <ele>999.20001220703</ele>
        <time>2021-05-23T14:05:21Z</time>
      </trkpt>
      <trkpt lat="48.13649" lon="7.06334">
        <ele>1000.5999755859</ele>
        <time>2021-05-23T14:05:26Z</time>
      </trkpt>
      <trkpt lat="48.1365" lon="7.06352">
        <ele>1001.799987793</ele>
        <time>2021-05-23T14:05:30Z</time>
      </trkpt>
      <trkpt lat="48.13653" lon="7.06371">
        <ele>1002.799987793</ele>
        <time>2021-05-23T14:05:34Z</time>
      </trkpt>
      <trkpt lat="48.13653" lon="7.06376">
        <ele>1003</ele>
        <time>2021-05-23T14:05:35Z</time>
      </trkpt>
      <trkpt lat="48.13655" lon="7.0639">
        <ele>1003.799987793</ele>
        <time>2021-05-23T14:05:38Z</time>
      </trkpt>
      <trkpt lat="48.13658" lon="7.06409">
        <ele>1005</ele>
        <time>2021-05-23T14:05:42Z</time>
      </trkpt>
      <trkpt lat="48.1366" lon="7.06431">
        <ele>1006</ele>
        <time>2021-05-23T14:05:47Z</time>
      </trkpt>
      <trkpt lat="48.13661" lon="7.06435">
        <ele>1006.200012207</ele>
        <time>2021-05-23T14:05:48Z</time>
      </trkpt>
      <trkpt lat="48.13664" lon="7.06457">
        <ele>1007.4000244141</ele>
        <time>2021-05-23T14:05:53Z</time>
      </trkpt>
      <trkpt lat="48.13665" lon="7.06466">
        <ele>1008</ele>
        <time>2021-05-23T14:05:55Z</time>
      </trkpt>
      <trkpt lat="48.13666" lon="7.0647">
        <ele>1008.799987793</ele>
        <time>2021-05-23T14:05:56Z</time>
      </trkpt>
      <trkpt lat="48.13667" lon="7.06493">
        <ele>1009.799987793</ele>
        <time>2021-05-23T14:06:01Z</time>
      </trkpt>
      <trkpt lat="48.13667" lon="7.06498">
        <ele>1010.200012207</ele>
        <time>2021-05-23T14:06:02Z</time>
      </trkpt>
      <trkpt lat="48.13668" lon="7.06513">
        <ele>1010.799987793</ele>
        <time>2021-05-23T14:06:05Z</time>
      </trkpt>
      <trkpt lat="48.13668" lon="7.06531">
        <ele>1012</ele>
        <time>2021-05-23T14:06:09Z</time>
      </trkpt>
      <trkpt lat="48.13668" lon="7.06541">
        <ele>1012.4000244141</ele>
        <time>2021-05-23T14:06:11Z</time>
      </trkpt>
      <trkpt lat="48.13668" lon="7.06555">
        <ele>1013</ele>
        <time>2021-05-23T14:06:14Z</time>
      </trkpt>
      <trkpt lat="48.13667" lon="7.06575">
        <ele>1013.5999755859</ele>
        <time>2021-05-23T14:06:18Z</time>
      </trkpt>
      <trkpt lat="48.13667" lon="7.06581">
        <ele>1013.799987793</ele>
        <time>2021-05-23T14:06:19Z</time>
      </trkpt>
      <trkpt lat="48.13668" lon="7.06585">
        <ele>1014</ele>
        <time>2021-05-23T14:06:20Z</time>
      </trkpt>
      <trkpt lat="48.1367" lon="7.06614">
        <ele>1015</ele>
        <time>2021-05-23T14:06:25Z</time>
      </trkpt>
      <trkpt lat="48.13675" lon="7.06646">
        <ele>1015.799987793</ele>
        <time>2021-05-23T14:06:30Z</time>
      </trkpt>
      <trkpt lat="48.13676" lon="7.06653">
        <ele>1016</ele>
        <time>2021-05-23T14:06:31Z</time>
      </trkpt>
      <trkpt lat="48.13677" lon="7.06666">
        <ele>1016</ele>
        <time>2021-05-23T14:06:33Z</time>
      </trkpt>
      <trkpt lat="48.13677" lon="7.06673">
        <ele>1016</ele>
        <time>2021-05-23T14:06:34Z</time>
      </trkpt>
      <trkpt lat="48.13675" lon="7.06679">
        <ele>1016</ele>
        <time>2021-05-23T14:06:35Z</time>
      </trkpt>
      <trkpt lat="48.13669" lon="7.06686">
        <ele>1016</ele>
        <time>2021-05-23T14:06:37Z</time>
      </trkpt>
      <trkpt lat="48.13661" lon="7.06684">
        <ele>1016.200012207</ele>
        <time>2021-05-23T14:06:39Z</time>
      </trkpt>
      <trkpt lat="48.13659" lon="7.06682">
        <ele>1016.200012207</ele>
        <time>2021-05-23T14:06:40Z</time>
      </trkpt>
      <trkpt lat="48.13657" lon="7.06679">
        <ele>1016.200012207</ele>
        <time>2021-05-23T14:06:41Z</time>
      </trkpt>
      <trkpt lat="48.13658" lon="7.0667">
        <ele>1016.799987793</ele>
        <time>2021-05-23T14:06:43Z</time>
      </trkpt>
      <trkpt lat="48.13659" lon="7.06665">
        <ele>1017.4000244141</ele>
        <time>2021-05-23T14:06:44Z</time>
      </trkpt>
      <trkpt lat="48.13661" lon="7.0665">
        <ele>1018.4000244141</ele>
        <time>2021-05-23T14:06:47Z</time>
      </trkpt>
      <trkpt lat="48.13662" lon="7.0664">
        <ele>1019</ele>
        <time>2021-05-23T14:06:49Z</time>
      </trkpt>
      <trkpt lat="48.13662" lon="7.06632">
        <ele>1019.5999755859</ele>
        <time>2021-05-23T14:06:51Z</time>
      </trkpt>
      <trkpt lat="48.13661" lon="7.06621">
        <ele>1020</ele>
        <time>2021-05-23T14:06:53Z</time>
      </trkpt>
      <trkpt lat="48.13656" lon="7.06594">
        <ele>1020.799987793</ele>
        <time>2021-05-23T14:06:57Z</time>
      </trkpt>
      <trkpt lat="48.13653" lon="7.0658">
        <ele>1021.200012207</ele>
        <time>2021-05-23T14:06:59Z</time>
      </trkpt>
      <trkpt lat="48.13646" lon="7.06561">
        <ele>1021.799987793</ele>
        <time>2021-05-23T14:07:02Z</time>
      </trkpt>
      <trkpt lat="48.13639" lon="7.06545">
        <ele>1022.5999755859</ele>
        <time>2021-05-23T14:07:05Z</time>
      </trkpt>
      <trkpt lat="48.13634" lon="7.06537">
        <ele>1023.200012207</ele>
        <time>2021-05-23T14:07:07Z</time>
      </trkpt>
      <trkpt lat="48.13624" lon="7.06521">
        <ele>1024.1999511719</ele>
        <time>2021-05-23T14:07:11Z</time>
      </trkpt>
      <trkpt lat="48.13622" lon="7.06518">
        <ele>1024.5999755859</ele>
        <time>2021-05-23T14:07:12Z</time>
      </trkpt>
      <trkpt lat="48.13616" lon="7.06511">
        <ele>1025.4000244141</ele>
        <time>2021-05-23T14:07:15Z</time>
      </trkpt>
      <trkpt lat="48.13609" lon="7.06502">
        <ele>1026.4000244141</ele>
        <time>2021-05-23T14:07:18Z</time>
      </trkpt>
      <trkpt lat="48.13606" lon="7.065">
        <ele>1026.5999755859</ele>
        <time>2021-05-23T14:07:19Z</time>
      </trkpt>
      <trkpt lat="48.13595" lon="7.06487">
        <ele>1027.8000488281</ele>
        <time>2021-05-23T14:07:23Z</time>
      </trkpt>
      <trkpt lat="48.13593" lon="7.06484">
        <ele>1028</ele>
        <time>2021-05-23T14:07:24Z</time>
      </trkpt>
      <trkpt lat="48.13585" lon="7.06473">
        <ele>1029</ele>
        <time>2021-05-23T14:07:28Z</time>
      </trkpt>
      <trkpt lat="48.13582" lon="7.06467">
        <ele>1029.5999755859</ele>
        <time>2021-05-23T14:07:30Z</time>
      </trkpt>
      <trkpt lat="48.13578" lon="7.06461">
        <ele>1030.1999511719</ele>
        <time>2021-05-23T14:07:32Z</time>
      </trkpt>
      <trkpt lat="48.13571" lon="7.0645">
        <ele>1031.4000244141</ele>
        <time>2021-05-23T14:07:36Z</time>
      </trkpt>
      <trkpt lat="48.13568" lon="7.06442">
        <ele>1031.8000488281</ele>
        <time>2021-05-23T14:07:38Z</time>
      </trkpt>
      <trkpt lat="48.13562" lon="7.06431">
        <ele>1032.4000244141</ele>
        <time>2021-05-23T14:07:41Z</time>
      </trkpt>
      <trkpt lat="48.13559" lon="7.06422">
        <ele>1033</ele>
        <time>2021-05-23T14:07:43Z</time>
      </trkpt>
      <trkpt lat="48.13554" lon="7.06408">
        <ele>1033.5999755859</ele>
        <time>2021-05-23T14:07:46Z</time>
      </trkpt>
      <trkpt lat="48.13546" lon="7.06385">
        <ele>1034.1999511719</ele>
        <time>2021-05-23T14:07:51Z</time>
      </trkpt>
      <trkpt lat="48.13536" lon="7.06372">
        <ele>1034.4000244141</ele>
        <time>2021-05-23T14:07:55Z</time>
      </trkpt>
      <trkpt lat="48.13529" lon="7.06372">
        <ele>1034.8000488281</ele>
        <time>2021-05-23T14:07:57Z</time>
      </trkpt>
      <trkpt lat="48.13523" lon="7.06376">
        <ele>1035</ele>
        <time>2021-05-23T14:07:59Z</time>
      </trkpt>
      <trkpt lat="48.13519" lon="7.0639">
        <ele>1035.8000488281</ele>
        <time>2021-05-23T14:08:02Z</time>
      </trkpt>
      <trkpt lat="48.1352" lon="7.06396">
        <ele>1035.8000488281</ele>
        <time>2021-05-23T14:08:03Z</time>
      </trkpt>
      <trkpt lat="48.13525" lon="7.06411">
        <ele>1036.5999755859</ele>
        <time>2021-05-23T14:08:06Z</time>
      </trkpt>
      <trkpt lat="48.13528" lon="7.06416">
        <ele>1037</ele>
        <time>2021-05-23T14:08:07Z</time>
      </trkpt>
      <trkpt lat="48.13541" lon="7.06443">
        <ele>1037.5999755859</ele>
        <time>2021-05-23T14:08:12Z</time>
      </trkpt>
      <trkpt lat="48.13543" lon="7.06449">
        <ele>1037.5999755859</ele>
        <time>2021-05-23T14:08:13Z</time>
      </trkpt>
      <trkpt lat="48.13547" lon="7.0646">
        <ele>1037.5999755859</ele>
        <time>2021-05-23T14:08:15Z</time>
      </trkpt>
      <trkpt lat="48.13548" lon="7.0647">
        <ele>1037.8000488281</ele>
        <time>2021-05-23T14:08:17Z</time>
      </trkpt>
      <trkpt lat="48.13548" lon="7.06476">
        <ele>1037.8000488281</ele>
        <time>2021-05-23T14:08:18Z</time>
      </trkpt>
      <trkpt lat="48.13549" lon="7.06482">
        <ele>1038</ele>
        <time>2021-05-23T14:08:19Z</time>
      </trkpt>
      <trkpt lat="48.13552" lon="7.06503">
        <ele>1039</ele>
        <time>2021-05-23T14:08:23Z</time>
      </trkpt>
      <trkpt lat="48.13553" lon="7.06525">
        <ele>1039.8000488281</ele>
        <time>2021-05-23T14:08:27Z</time>
      </trkpt>
      <trkpt lat="48.13553" lon="7.06536">
        <ele>1040</ele>
        <time>2021-05-23T14:08:29Z</time>
      </trkpt>
      <trkpt lat="48.13553" lon="7.06546">
        <ele>1040.8000488281</ele>
        <time>2021-05-23T14:08:31Z</time>
      </trkpt>
      <trkpt lat="48.13552" lon="7.06551">
        <ele>1041.1999511719</ele>
        <time>2021-05-23T14:08:32Z</time>
      </trkpt>
      <trkpt lat="48.1355" lon="7.06575">
        <ele>1042.1999511719</ele>
        <time>2021-05-23T14:08:37Z</time>
      </trkpt>
      <trkpt lat="48.13549" lon="7.0658">
        <ele>1042.4000244141</ele>
        <time>2021-05-23T14:08:38Z</time>
      </trkpt>
      <trkpt lat="48.13545" lon="7.06592">
        <ele>1043.4000244141</ele>
        <time>2021-05-23T14:08:41Z</time>
      </trkpt>
      <trkpt lat="48.1354" lon="7.06608">
        <ele>1044.4000244141</ele>
        <time>2021-05-23T14:08:45Z</time>
      </trkpt>
      <trkpt lat="48.13537" lon="7.06618">
        <ele>1045.4000244141</ele>
        <time>2021-05-23T14:08:48Z</time>
      </trkpt>
      <trkpt lat="48.13532" lon="7.06634">
        <ele>1046.5999755859</ele>
        <time>2021-05-23T14:08:52Z</time>
      </trkpt>
      <trkpt lat="48.13528" lon="7.06648">
        <ele>1047.5999755859</ele>
        <time>2021-05-23T14:08:56Z</time>
      </trkpt>
      <trkpt lat="48.13522" lon="7.06667">
        <ele>1048.8000488281</ele>
        <time>2021-05-23T14:09:01Z</time>
      </trkpt>
      <trkpt lat="48.13517" lon="7.06682">
        <ele>1049.8000488281</ele>
        <time>2021-05-23T14:09:05Z</time>
      </trkpt>
      <trkpt lat="48.13516" lon="7.06687">
        <ele>1049.5999755859</ele>
        <time>2021-05-23T14:09:06Z</time>
      </trkpt>
      <trkpt lat="48.13511" lon="7.06702">
        <ele>1050.5999755859</ele>
        <time>2021-05-23T14:09:10Z</time>
      </trkpt>
      <trkpt lat="48.13504" lon="7.06716">
        <ele>1051.5999755859</ele>
        <time>2021-05-23T14:09:14Z</time>
      </trkpt>
      <trkpt lat="48.13503" lon="7.06719">
        <ele>1051.8000488281</ele>
        <time>2021-05-23T14:09:15Z</time>
      </trkpt>
      <trkpt lat="48.13492" lon="7.06734">
        <ele>1053</ele>
        <time>2021-05-23T14:09:20Z</time>
      </trkpt>
      <trkpt lat="48.13484" lon="7.06744">
        <ele>1054</ele>
        <time>2021-05-23T14:09:24Z</time>
      </trkpt>
      <trkpt lat="48.13481" lon="7.06747">
        <ele>1054.1999511719</ele>
        <time>2021-05-23T14:09:25Z</time>
      </trkpt>
      <trkpt lat="48.13468" lon="7.06761">
        <ele>1055.4000244141</ele>
        <time>2021-05-23T14:09:31Z</time>
      </trkpt>
      <trkpt lat="48.13463" lon="7.06765">
        <ele>1056</ele>
        <time>2021-05-23T14:09:33Z</time>
      </trkpt>
      <trkpt lat="48.13461" lon="7.06768">
        <ele>1056.4000244141</ele>
        <time>2021-05-23T14:09:34Z</time>
      </trkpt>
      <trkpt lat="48.13451" lon="7.06778">
        <ele>1057.5999755859</ele>
        <time>2021-05-23T14:09:38Z</time>
      </trkpt>
      <trkpt lat="48.13444" lon="7.06787">
        <ele>1058.4000244141</ele>
        <time>2021-05-23T14:09:42Z</time>
      </trkpt>
      <trkpt lat="48.13441" lon="7.0679">
        <ele>1058.8000488281</ele>
        <time>2021-05-23T14:09:43Z</time>
      </trkpt>
      <trkpt lat="48.13431" lon="7.06801">
        <ele>1059.8000488281</ele>
        <time>2021-05-23T14:09:48Z</time>
      </trkpt>
      <trkpt lat="48.13426" lon="7.0681">
        <ele>1060.4000244141</ele>
        <time>2021-05-23T14:09:51Z</time>
      </trkpt>
      <trkpt lat="48.13422" lon="7.06815">
        <ele>1061</ele>
        <time>2021-05-23T14:09:53Z</time>
      </trkpt>
      <trkpt lat="48.13414" lon="7.06826">
        <ele>1062</ele>
        <time>2021-05-23T14:09:57Z</time>
      </trkpt>
      <trkpt lat="48.13413" lon="7.06828">
        <ele>1062.1999511719</ele>
        <time>2021-05-23T14:09:58Z</time>
      </trkpt>
      <trkpt lat="48.13405" lon="7.0684">
        <ele>1063.4000244141</ele>
        <time>2021-05-23T14:10:02Z</time>
      </trkpt>
      <trkpt lat="48.13397" lon="7.06858">
        <ele>1064.4000244141</ele>
        <time>2021-05-23T14:10:07Z</time>
      </trkpt>
      <trkpt lat="48.13396" lon="7.06861">
        <ele>1064.8000488281</ele>
        <time>2021-05-23T14:10:08Z</time>
      </trkpt>
      <trkpt lat="48.13391" lon="7.06876">
        <ele>1065.4000244141</ele>
        <time>2021-05-23T14:10:12Z</time>
      </trkpt>
      <trkpt lat="48.1339" lon="7.0688">
        <ele>1065.5999755859</ele>
        <time>2021-05-23T14:10:13Z</time>
      </trkpt>
      <trkpt lat="48.13388" lon="7.06893">
        <ele>1066.5999755859</ele>
        <time>2021-05-23T14:10:16Z</time>
      </trkpt>
      <trkpt lat="48.13386" lon="7.06909">
        <ele>1067.4000244141</ele>
        <time>2021-05-23T14:10:20Z</time>
      </trkpt>
      <trkpt lat="48.13385" lon="7.06918">
        <ele>1067.5999755859</ele>
        <time>2021-05-23T14:10:22Z</time>
      </trkpt>
      <trkpt lat="48.13382" lon="7.06939">
        <ele>1068.5999755859</ele>
        <time>2021-05-23T14:10:27Z</time>
      </trkpt>
      <trkpt lat="48.13382" lon="7.06942">
        <ele>1068.5999755859</ele>
        <time>2021-05-23T14:10:28Z</time>
      </trkpt>
      <trkpt lat="48.13379" lon="7.06965">
        <ele>1069.5999755859</ele>
        <time>2021-05-23T14:10:33Z</time>
      </trkpt>
      <trkpt lat="48.13378" lon="7.06976">
        <ele>1070.1999511719</ele>
        <time>2021-05-23T14:10:36Z</time>
      </trkpt>
      <trkpt lat="48.13375" lon="7.06994">
        <ele>1071</ele>
        <time>2021-05-23T14:10:40Z</time>
      </trkpt>
      <trkpt lat="48.13373" lon="7.07009">
        <ele>1071.5999755859</ele>
        <time>2021-05-23T14:10:44Z</time>
      </trkpt>
      <trkpt lat="48.13372" lon="7.07019">
        <ele>1072</ele>
        <time>2021-05-23T14:10:46Z</time>
      </trkpt>
      <trkpt lat="48.13369" lon="7.07036">
        <ele>1073</ele>
        <time>2021-05-23T14:10:50Z</time>
      </trkpt>
      <trkpt lat="48.13367" lon="7.07051">
        <ele>1073.5999755859</ele>
        <time>2021-05-23T14:10:53Z</time>
      </trkpt>
      <trkpt lat="48.13365" lon="7.07066">
        <ele>1074.1999511719</ele>
        <time>2021-05-23T14:10:56Z</time>
      </trkpt>
      <trkpt lat="48.13365" lon="7.07073">
        <ele>1074.5999755859</ele>
        <time>2021-05-23T14:10:58Z</time>
      </trkpt>
      <trkpt lat="48.13363" lon="7.07087">
        <ele>1075.4000244141</ele>
        <time>2021-05-23T14:11:01Z</time>
      </trkpt>
      <trkpt lat="48.13359" lon="7.07104">
        <ele>1076.5999755859</ele>
        <time>2021-05-23T14:11:05Z</time>
      </trkpt>
      <trkpt lat="48.13358" lon="7.07116">
        <ele>1077.5999755859</ele>
        <time>2021-05-23T14:11:08Z</time>
      </trkpt>
      <trkpt lat="48.13357" lon="7.07123">
        <ele>1077.8000488281</ele>
        <time>2021-05-23T14:11:10Z</time>
      </trkpt>
      <trkpt lat="48.13355" lon="7.07143">
        <ele>1079.1999511719</ele>
        <time>2021-05-23T14:11:15Z</time>
      </trkpt>
      <trkpt lat="48.13354" lon="7.07155">
        <ele>1080.4000244141</ele>
        <time>2021-05-23T14:11:18Z</time>
      </trkpt>
      <trkpt lat="48.13354" lon="7.07159">
        <ele>1080.5999755859</ele>
        <time>2021-05-23T14:11:19Z</time>
      </trkpt>
      <trkpt lat="48.13354" lon="7.07179">
        <ele>1081.8000488281</ele>
        <time>2021-05-23T14:11:24Z</time>
      </trkpt>
      <trkpt lat="48.13354" lon="7.07186">
        <ele>1082.1999511719</ele>
        <time>2021-05-23T14:11:26Z</time>
      </trkpt>
      <trkpt lat="48.13355" lon="7.07201">
        <ele>1082.8000488281</ele>
        <time>2021-05-23T14:11:30Z</time>
      </trkpt>
      <trkpt lat="48.13355" lon="7.07216">
        <ele>1083.4000244141</ele>
        <time>2021-05-23T14:11:34Z</time>
      </trkpt>
      <trkpt lat="48.13355" lon="7.07229">
        <ele>1084</ele>
        <time>2021-05-23T14:11:37Z</time>
      </trkpt>
      <trkpt lat="48.13355" lon="7.07244">
        <ele>1084.8000488281</ele>
        <time>2021-05-23T14:11:41Z</time>
      </trkpt>
      <trkpt lat="48.13355" lon="7.07248">
        <ele>1085.1999511719</ele>
        <time>2021-05-23T14:11:42Z</time>
      </trkpt>
      <trkpt lat="48.13354" lon="7.07267">
        <ele>1086.4000244141</ele>
        <time>2021-05-23T14:11:47Z</time>
      </trkpt>
      <trkpt lat="48.13355" lon="7.07274">
        <ele>1087</ele>
        <time>2021-05-23T14:11:49Z</time>
      </trkpt>
      <trkpt lat="48.13355" lon="7.07283">
        <ele>1087.4000244141</ele>
        <time>2021-05-23T14:11:51Z</time>
      </trkpt>
      <trkpt lat="48.13356" lon="7.07303">
        <ele>1088.4000244141</ele>
        <time>2021-05-23T14:11:56Z</time>
      </trkpt>
      <trkpt lat="48.13356" lon="7.07314">
        <ele>1089</ele>
        <time>2021-05-23T14:11:59Z</time>
      </trkpt>
      <trkpt lat="48.13357" lon="7.07331">
        <ele>1089.8000488281</ele>
        <time>2021-05-23T14:12:03Z</time>
      </trkpt>
      <trkpt lat="48.13357" lon="7.07347">
        <ele>1091</ele>
        <time>2021-05-23T14:12:07Z</time>
      </trkpt>
      <trkpt lat="48.13357" lon="7.07355">
        <ele>1091.1999511719</ele>
        <time>2021-05-23T14:12:09Z</time>
      </trkpt>
      <trkpt lat="48.13356" lon="7.07367">
        <ele>1092.1999511719</ele>
        <time>2021-05-23T14:12:12Z</time>
      </trkpt>
      <trkpt lat="48.13355" lon="7.07385">
        <ele>1093.8000488281</ele>
        <time>2021-05-23T14:12:17Z</time>
      </trkpt>
      <trkpt lat="48.13352" lon="7.074">
        <ele>1094.8000488281</ele>
        <time>2021-05-23T14:12:21Z</time>
      </trkpt>
      <trkpt lat="48.1335" lon="7.07416">
        <ele>1096</ele>
        <time>2021-05-23T14:12:25Z</time>
      </trkpt>
      <trkpt lat="48.13348" lon="7.07429">
        <ele>1096.4000244141</ele>
        <time>2021-05-23T14:12:28Z</time>
      </trkpt>
      <trkpt lat="48.13347" lon="7.07454">
        <ele>1097.1999511719</ele>
        <time>2021-05-23T14:12:33Z</time>
      </trkpt>
      <trkpt lat="48.13348" lon="7.07464">
        <ele>1097.8000488281</ele>
        <time>2021-05-23T14:12:35Z</time>
      </trkpt>
      <trkpt lat="48.13354" lon="7.07479">
        <ele>1098.1999511719</ele>
        <time>2021-05-23T14:12:38Z</time>
      </trkpt>
      <trkpt lat="48.13358" lon="7.07487">
        <ele>1098.4000244141</ele>
        <time>2021-05-23T14:12:40Z</time>
      </trkpt>
      <trkpt lat="48.13376" lon="7.07509">
        <ele>1099.4000244141</ele>
        <time>2021-05-23T14:12:46Z</time>
      </trkpt>
      <trkpt lat="48.13379" lon="7.07514">
        <ele>1099.4000244141</ele>
        <time>2021-05-23T14:12:47Z</time>
      </trkpt>
      <trkpt lat="48.1339" lon="7.07536">
        <ele>1100.4000244141</ele>
        <time>2021-05-23T14:12:52Z</time>
      </trkpt>
      <trkpt lat="48.13396" lon="7.07548">
        <ele>1101.1999511719</ele>
        <time>2021-05-23T14:12:55Z</time>
      </trkpt>
      <trkpt lat="48.13401" lon="7.07559">
        <ele>1101.5999755859</ele>
        <time>2021-05-23T14:12:58Z</time>
      </trkpt>
      <trkpt lat="48.13408" lon="7.07572">
        <ele>1102.1999511719</ele>
        <time>2021-05-23T14:13:01Z</time>
      </trkpt>
      <trkpt lat="48.13415" lon="7.07587">
        <ele>1103</ele>
        <time>2021-05-23T14:13:05Z</time>
      </trkpt>
      <trkpt lat="48.13424" lon="7.07608">
        <ele>1104</ele>
        <time>2021-05-23T14:13:10Z</time>
      </trkpt>
      <trkpt lat="48.13428" lon="7.07617">
        <ele>1104.8000488281</ele>
        <time>2021-05-23T14:13:12Z</time>
      </trkpt>
      <trkpt lat="48.13433" lon="7.07625">
        <ele>1105.1999511719</ele>
        <time>2021-05-23T14:13:14Z</time>
      </trkpt>
      <trkpt lat="48.13442" lon="7.07643">
        <ele>1106</ele>
        <time>2021-05-23T14:13:18Z</time>
      </trkpt>
      <trkpt lat="48.13445" lon="7.07646">
        <ele>1106.5999755859</ele>
        <time>2021-05-23T14:13:19Z</time>
      </trkpt>
      <trkpt lat="48.13456" lon="7.07662">
        <ele>1107.5999755859</ele>
        <time>2021-05-23T14:13:23Z</time>
      </trkpt>
      <trkpt lat="48.13468" lon="7.07675">
        <ele>1108.1999511719</ele>
        <time>2021-05-23T14:13:27Z</time>
      </trkpt>
      <trkpt lat="48.13476" lon="7.07684">
        <ele>1108.8000488281</ele>
        <time>2021-05-23T14:13:30Z</time>
      </trkpt>
      <trkpt lat="48.13486" lon="7.07696">
        <ele>1109.5999755859</ele>
        <time>2021-05-23T14:13:34Z</time>
      </trkpt>
      <trkpt lat="48.13489" lon="7.07699">
        <ele>1110</ele>
        <time>2021-05-23T14:13:35Z</time>
      </trkpt>
      <trkpt lat="48.13505" lon="7.07715">
        <ele>1111</ele>
        <time>2021-05-23T14:13:40Z</time>
      </trkpt>
      <trkpt lat="48.13507" lon="7.07717">
        <ele>1111.4000244141</ele>
        <time>2021-05-23T14:13:41Z</time>
      </trkpt>
      <trkpt lat="48.13517" lon="7.07729">
        <ele>1112.1999511719</ele>
        <time>2021-05-23T14:13:45Z</time>
      </trkpt>
      <trkpt lat="48.13531" lon="7.07745">
        <ele>1113</ele>
        <time>2021-05-23T14:13:50Z</time>
      </trkpt>
      <trkpt lat="48.13534" lon="7.07748">
        <ele>1113.1999511719</ele>
        <time>2021-05-23T14:13:51Z</time>
      </trkpt>
      <trkpt lat="48.13545" lon="7.07759">
        <ele>1114.1999511719</ele>
        <time>2021-05-23T14:13:55Z</time>
      </trkpt>
      <trkpt lat="48.13554" lon="7.07768">
        <ele>1115</ele>
        <time>2021-05-23T14:13:58Z</time>
      </trkpt>
      <trkpt lat="48.13561" lon="7.07775">
        <ele>1115.4000244141</ele>
        <time>2021-05-23T14:14:00Z</time>
      </trkpt>
      <trkpt lat="48.13579" lon="7.078">
        <ele>1116.5999755859</ele>
        <time>2021-05-23T14:14:07Z</time>
      </trkpt>
      <trkpt lat="48.13582" lon="7.07804">
        <ele>1116.5999755859</ele>
        <time>2021-05-23T14:14:08Z</time>
      </trkpt>
      <trkpt lat="48.13593" lon="7.07824">
        <ele>1117.5999755859</ele>
        <time>2021-05-23T14:14:13Z</time>
      </trkpt>
      <trkpt lat="48.13602" lon="7.07839">
        <ele>1118.5999755859</ele>
        <time>2021-05-23T14:14:17Z</time>
      </trkpt>
      <trkpt lat="48.13604" lon="7.07843">
        <ele>1119</ele>
        <time>2021-05-23T14:14:18Z</time>
      </trkpt>
      <trkpt lat="48.13613" lon="7.07865">
        <ele>1119.8000488281</ele>
        <time>2021-05-23T14:14:23Z</time>
      </trkpt>
      <trkpt lat="48.13618" lon="7.07877">
        <ele>1120.4000244141</ele>
        <time>2021-05-23T14:14:26Z</time>
      </trkpt>
      <trkpt lat="48.1362" lon="7.07882">
        <ele>1121</ele>
        <time>2021-05-23T14:14:27Z</time>
      </trkpt>
      <trkpt lat="48.13628" lon="7.07909">
        <ele>1122</ele>
        <time>2021-05-23T14:14:33Z</time>
      </trkpt>
      <trkpt lat="48.13633" lon="7.07923">
        <ele>1122.5999755859</ele>
        <time>2021-05-23T14:14:36Z</time>
      </trkpt>
      <trkpt lat="48.13637" lon="7.07936">
        <ele>1123.1999511719</ele>
        <time>2021-05-23T14:14:39Z</time>
      </trkpt>
      <trkpt lat="48.13643" lon="7.07959">
        <ele>1124.1999511719</ele>
        <time>2021-05-23T14:14:44Z</time>
      </trkpt>
      <trkpt lat="48.13648" lon="7.07971">
        <ele>1125.1999511719</ele>
        <time>2021-05-23T14:14:47Z</time>
      </trkpt>
      <trkpt lat="48.13653" lon="7.07986">
        <ele>1126.1999511719</ele>
        <time>2021-05-23T14:14:51Z</time>
      </trkpt>
      <trkpt lat="48.13657" lon="7.07998">
        <ele>1127</ele>
        <time>2021-05-23T14:14:54Z</time>
      </trkpt>
      <trkpt lat="48.13658" lon="7.08001">
        <ele>1127.4000244141</ele>
        <time>2021-05-23T14:14:55Z</time>
      </trkpt>
      <trkpt lat="48.13664" lon="7.08017">
        <ele>1128.5999755859</ele>
        <time>2021-05-23T14:14:59Z</time>
      </trkpt>
      <trkpt lat="48.13669" lon="7.08031">
        <ele>1129.8000488281</ele>
        <time>2021-05-23T14:15:03Z</time>
      </trkpt>
      <trkpt lat="48.13672" lon="7.08041">
        <ele>1130.8000488281</ele>
        <time>2021-05-23T14:15:06Z</time>
      </trkpt>
      <trkpt lat="48.13679" lon="7.08059">
        <ele>1132</ele>
        <time>2021-05-23T14:15:11Z</time>
      </trkpt>
      <trkpt lat="48.13681" lon="7.08066">
        <ele>1132.4000244141</ele>
        <time>2021-05-23T14:15:13Z</time>
      </trkpt>
      <trkpt lat="48.13686" lon="7.08077">
        <ele>1133.1999511719</ele>
        <time>2021-05-23T14:15:16Z</time>
      </trkpt>
      <trkpt lat="48.13691" lon="7.08092">
        <ele>1134.1999511719</ele>
        <time>2021-05-23T14:15:20Z</time>
      </trkpt>
      <trkpt lat="48.13693" lon="7.081">
        <ele>1135</ele>
        <time>2021-05-23T14:15:22Z</time>
      </trkpt>
      <trkpt lat="48.13695" lon="7.08107">
        <ele>1135.4000244141</ele>
        <time>2021-05-23T14:15:24Z</time>
      </trkpt>
      <trkpt lat="48.13699" lon="7.08122">
        <ele>1136.5999755859</ele>
        <time>2021-05-23T14:15:28Z</time>
      </trkpt>
      <trkpt lat="48.137" lon="7.0813">
        <ele>1137</ele>
        <time>2021-05-23T14:15:30Z</time>
      </trkpt>
      <trkpt lat="48.13701" lon="7.08141">
        <ele>1137.5999755859</ele>
        <time>2021-05-23T14:15:33Z</time>
      </trkpt>
      <trkpt lat="48.13704" lon="7.08162">
        <ele>1138.8000488281</ele>
        <time>2021-05-23T14:15:38Z</time>
      </trkpt>
      <trkpt lat="48.13704" lon="7.08166">
        <ele>1139.1999511719</ele>
        <time>2021-05-23T14:15:39Z</time>
      </trkpt>
      <trkpt lat="48.13706" lon="7.08178">
        <ele>1139.8000488281</ele>
        <time>2021-05-23T14:15:42Z</time>
      </trkpt>
      <trkpt lat="48.13707" lon="7.08193">
        <ele>1141</ele>
        <time>2021-05-23T14:15:46Z</time>
      </trkpt>
      <trkpt lat="48.13708" lon="7.08206">
        <ele>1141.8000488281</ele>
        <time>2021-05-23T14:15:49Z</time>
      </trkpt>
      <trkpt lat="48.13708" lon="7.0821">
        <ele>1142.1999511719</ele>
        <time>2021-05-23T14:15:50Z</time>
      </trkpt>
      <trkpt lat="48.13709" lon="7.08228">
        <ele>1143.4000244141</ele>
        <time>2021-05-23T14:15:54Z</time>
      </trkpt>
      <trkpt lat="48.1371" lon="7.08232">
        <ele>1143.8000488281</ele>
        <time>2021-05-23T14:15:55Z</time>
      </trkpt>
      <trkpt lat="48.13711" lon="7.08249">
        <ele>1144.8000488281</ele>
        <time>2021-05-23T14:15:59Z</time>
      </trkpt>
      <trkpt lat="48.13712" lon="7.08277">
        <ele>1146</ele>
        <time>2021-05-23T14:16:05Z</time>
      </trkpt>
      <trkpt lat="48.13713" lon="7.08301">
        <ele>1147.4000244141</ele>
        <time>2021-05-23T14:16:10Z</time>
      </trkpt>
      <trkpt lat="48.13714" lon="7.08324">
        <ele>1148.4000244141</ele>
        <time>2021-05-23T14:16:15Z</time>
      </trkpt>
      <trkpt lat="48.13716" lon="7.08356">
        <ele>1149.8000488281</ele>
        <time>2021-05-23T14:16:21Z</time>
      </trkpt>
      <trkpt lat="48.13718" lon="7.08378">
        <ele>1150.4000244141</ele>
        <time>2021-05-23T14:16:25Z</time>
      </trkpt>
      <trkpt lat="48.13719" lon="7.08393">
        <ele>1150.8000488281</ele>
        <time>2021-05-23T14:16:28Z</time>
      </trkpt>
      <trkpt lat="48.1372" lon="7.08427">
        <ele>1151.8000488281</ele>
        <time>2021-05-23T14:16:34Z</time>
      </trkpt>
      <trkpt lat="48.13722" lon="7.08477">
        <ele>1152.5999755859</ele>
        <time>2021-05-23T14:16:43Z</time>
      </trkpt>
      <trkpt lat="48.13722" lon="7.08503">
        <ele>1152.5999755859</ele>
        <time>2021-05-23T14:16:48Z</time>
      </trkpt>
      <trkpt lat="48.13725" lon="7.08509">
        <ele>1152.5999755859</ele>
        <time>2021-05-23T14:16:50Z</time>
      </trkpt>
      <trkpt lat="48.13731" lon="7.08518">
        <ele>1152.5999755859</ele>
        <time>2021-05-23T14:16:54Z</time>
      </trkpt>
      <trkpt lat="48.13732" lon="7.08519">
        <ele>1152.8000488281</ele>
        <time>2021-05-23T14:16:55Z</time>
      </trkpt>
      <trkpt lat="48.13732" lon="7.08519">
        <ele>1153</ele>
        <time>2021-05-23T14:16:56Z</time>
      </trkpt>
      <trkpt lat="48.13732" lon="7.08519">
        <ele>1153.1999511719</ele>
        <time>2021-05-23T14:16:57Z</time>
      </trkpt>
      <trkpt lat="48.13725" lon="7.0853">
        <ele>1151.8000488281</ele>
        <time>2021-05-23T14:26:05Z</time>
      </trkpt>
      <trkpt lat="48.13724" lon="7.08533">
        <ele>1152</ele>
        <time>2021-05-23T14:26:06Z</time>
      </trkpt>
      <trkpt lat="48.13721" lon="7.08552">
        <ele>1152</ele>
        <time>2021-05-23T14:26:12Z</time>
      </trkpt>
      <trkpt lat="48.13715" lon="7.0858">
        <ele>1153</ele>
        <time>2021-05-23T14:26:18Z</time>
      </trkpt>
      <trkpt lat="48.13714" lon="7.08585">
        <ele>1153</ele>
        <time>2021-05-23T14:26:19Z</time>
      </trkpt>
      <trkpt lat="48.13708" lon="7.08616">
        <ele>1154.1999511719</ele>
        <time>2021-05-23T14:26:26Z</time>
      </trkpt>
      <trkpt lat="48.13696" lon="7.08654">
        <ele>1154.8000488281</ele>
        <time>2021-05-23T14:26:34Z</time>
      </trkpt>
      <trkpt lat="48.13689" lon="7.08674">
        <ele>1155.1999511719</ele>
        <time>2021-05-23T14:26:38Z</time>
      </trkpt>
      <trkpt lat="48.13686" lon="7.08683">
        <ele>1155.4000244141</ele>
        <time>2021-05-23T14:26:40Z</time>
      </trkpt>
      <trkpt lat="48.13679" lon="7.0871">
        <ele>1155.8000488281</ele>
        <time>2021-05-23T14:26:46Z</time>
      </trkpt>
      <trkpt lat="48.13673" lon="7.08736">
        <ele>1156.1999511719</ele>
        <time>2021-05-23T14:26:52Z</time>
      </trkpt>
      <trkpt lat="48.1367" lon="7.08745">
        <ele>1156.4000244141</ele>
        <time>2021-05-23T14:26:54Z</time>
      </trkpt>
      <trkpt lat="48.13667" lon="7.08772">
        <ele>1156.5999755859</ele>
        <time>2021-05-23T14:26:59Z</time>
      </trkpt>
      <trkpt lat="48.13659" lon="7.08821">
        <ele>1157</ele>
        <time>2021-05-23T14:27:09Z</time>
      </trkpt>
      <trkpt lat="48.1365" lon="7.08845">
        <ele>1157</ele>
        <time>2021-05-23T14:27:15Z</time>
      </trkpt>
      <trkpt lat="48.13636" lon="7.0885">
        <ele>1157</ele>
        <time>2021-05-23T14:27:20Z</time>
      </trkpt>
      <trkpt lat="48.13617" lon="7.08858">
        <ele>1157</ele>
        <time>2021-05-23T14:27:26Z</time>
      </trkpt>
      <trkpt lat="48.13604" lon="7.08873">
        <ele>1157.1999511719</ele>
        <time>2021-05-23T14:27:32Z</time>
      </trkpt>
      <trkpt lat="48.13589" lon="7.08892">
        <ele>1156</ele>
        <time>2021-05-23T14:27:39Z</time>
      </trkpt>
      <trkpt lat="48.1358" lon="7.08904">
        <ele>1155.1999511719</ele>
        <time>2021-05-23T14:27:42Z</time>
      </trkpt>
      <trkpt lat="48.13573" lon="7.08914">
        <ele>1154.8000488281</ele>
        <time>2021-05-23T14:27:44Z</time>
      </trkpt>
      <trkpt lat="48.13561" lon="7.08933">
        <ele>1154</ele>
        <time>2021-05-23T14:27:47Z</time>
      </trkpt>
      <trkpt lat="48.13555" lon="7.08945">
        <ele>1153</ele>
        <time>2021-05-23T14:27:49Z</time>
      </trkpt>
      <trkpt lat="48.13552" lon="7.08952">
        <ele>1152.5999755859</ele>
        <time>2021-05-23T14:27:50Z</time>
      </trkpt>
      <trkpt lat="48.13541" lon="7.0898">
        <ele>1151.1999511719</ele>
        <time>2021-05-23T14:27:54Z</time>
      </trkpt>
      <trkpt lat="48.13535" lon="7.08998">
        <ele>1150.4000244141</ele>
        <time>2021-05-23T14:27:56Z</time>
      </trkpt>
      <trkpt lat="48.13533" lon="7.09009">
        <ele>1150</ele>
        <time>2021-05-23T14:27:57Z</time>
      </trkpt>
      <trkpt lat="48.13525" lon="7.09045">
        <ele>1148.8000488281</ele>
        <time>2021-05-23T14:28:00Z</time>
      </trkpt>
      <trkpt lat="48.13519" lon="7.09074">
        <ele>1147.5999755859</ele>
        <time>2021-05-23T14:28:02Z</time>
      </trkpt>
      <trkpt lat="48.13515" lon="7.09089">
        <ele>1146.4000244141</ele>
        <time>2021-05-23T14:28:03Z</time>
      </trkpt>
      <trkpt lat="48.13512" lon="7.09103">
        <ele>1145</ele>
        <time>2021-05-23T14:28:04Z</time>
      </trkpt>
      <trkpt lat="48.1351" lon="7.09118">
        <ele>1144.1999511719</ele>
        <time>2021-05-23T14:28:05Z</time>
      </trkpt>
      <trkpt lat="48.13507" lon="7.09132">
        <ele>1143.1999511719</ele>
        <time>2021-05-23T14:28:06Z</time>
      </trkpt>
      <trkpt lat="48.135" lon="7.09163">
        <ele>1141.8000488281</ele>
        <time>2021-05-23T14:28:08Z</time>
      </trkpt>
      <trkpt lat="48.13495" lon="7.09178">
        <ele>1141.1999511719</ele>
        <time>2021-05-23T14:28:09Z</time>
      </trkpt>
      <trkpt lat="48.1349" lon="7.09189">
        <ele>1140.4000244141</ele>
        <time>2021-05-23T14:28:10Z</time>
      </trkpt>
      <trkpt lat="48.13483" lon="7.09203">
        <ele>1139</ele>
        <time>2021-05-23T14:28:11Z</time>
      </trkpt>
      <trkpt lat="48.13466" lon="7.09232">
        <ele>1137.8000488281</ele>
        <time>2021-05-23T14:28:13Z</time>
      </trkpt>
      <trkpt lat="48.13449" lon="7.09254">
        <ele>1136</ele>
        <time>2021-05-23T14:28:15Z</time>
      </trkpt>
      <trkpt lat="48.13428" lon="7.09275">
        <ele>1133.8000488281</ele>
        <time>2021-05-23T14:28:17Z</time>
      </trkpt>
      <trkpt lat="48.13412" lon="7.09286">
        <ele>1132.1999511719</ele>
        <time>2021-05-23T14:28:19Z</time>
      </trkpt>
      <trkpt lat="48.13402" lon="7.0929">
        <ele>1131.1999511719</ele>
        <time>2021-05-23T14:28:20Z</time>
      </trkpt>
      <trkpt lat="48.13392" lon="7.09291">
        <ele>1130.4000244141</ele>
        <time>2021-05-23T14:28:21Z</time>
      </trkpt>
      <trkpt lat="48.13382" lon="7.0929">
        <ele>1129</ele>
        <time>2021-05-23T14:28:22Z</time>
      </trkpt>
      <trkpt lat="48.13372" lon="7.09286">
        <ele>1128.5999755859</ele>
        <time>2021-05-23T14:28:23Z</time>
      </trkpt>
      <trkpt lat="48.13362" lon="7.0928">
        <ele>1127.8000488281</ele>
        <time>2021-05-23T14:28:24Z</time>
      </trkpt>
      <trkpt lat="48.13353" lon="7.09273">
        <ele>1127</ele>
        <time>2021-05-23T14:28:25Z</time>
      </trkpt>
      <trkpt lat="48.13344" lon="7.09264">
        <ele>1126</ele>
        <time>2021-05-23T14:28:26Z</time>
      </trkpt>
      <trkpt lat="48.13336" lon="7.09255">
        <ele>1124.4000244141</ele>
        <time>2021-05-23T14:28:27Z</time>
      </trkpt>
      <trkpt lat="48.13316" lon="7.09238">
        <ele>1121.8000488281</ele>
        <time>2021-05-23T14:28:29Z</time>
      </trkpt>
      <trkpt lat="48.13305" lon="7.09233">
        <ele>1121.4000244141</ele>
        <time>2021-05-23T14:28:30Z</time>
      </trkpt>
      <trkpt lat="48.13296" lon="7.09231">
        <ele>1120.5999755859</ele>
        <time>2021-05-23T14:28:31Z</time>
      </trkpt>
      <trkpt lat="48.13285" lon="7.09228">
        <ele>1119.1999511719</ele>
        <time>2021-05-23T14:28:32Z</time>
      </trkpt>
      <trkpt lat="48.13272" lon="7.09226">
        <ele>1118.5999755859</ele>
        <time>2021-05-23T14:28:33Z</time>
      </trkpt>
      <trkpt lat="48.13262" lon="7.09225">
        <ele>1117.4000244141</ele>
        <time>2021-05-23T14:28:34Z</time>
      </trkpt>
      <trkpt lat="48.13243" lon="7.09222">
        <ele>1116.4000244141</ele>
        <time>2021-05-23T14:28:36Z</time>
      </trkpt>
      <trkpt lat="48.1322" lon="7.09219">
        <ele>1115.1999511719</ele>
        <time>2021-05-23T14:28:38Z</time>
      </trkpt>
      <trkpt lat="48.13199" lon="7.09215">
        <ele>1114.1999511719</ele>
        <time>2021-05-23T14:28:40Z</time>
      </trkpt>
      <trkpt lat="48.13191" lon="7.09213">
        <ele>1113.8000488281</ele>
        <time>2021-05-23T14:28:41Z</time>
      </trkpt>
      <trkpt lat="48.13143" lon="7.09201">
        <ele>1112.5999755859</ele>
        <time>2021-05-23T14:28:46Z</time>
      </trkpt>
      <trkpt lat="48.13096" lon="7.09191">
        <ele>1111.5999755859</ele>
        <time>2021-05-23T14:28:51Z</time>
      </trkpt>
      <trkpt lat="48.13074" lon="7.09187">
        <ele>1111.1999511719</ele>
        <time>2021-05-23T14:28:53Z</time>
      </trkpt>
      <trkpt lat="48.13065" lon="7.09185">
        <ele>1111</ele>
        <time>2021-05-23T14:28:54Z</time>
      </trkpt>
      <trkpt lat="48.13047" lon="7.09182">
        <ele>1110.5999755859</ele>
        <time>2021-05-23T14:28:56Z</time>
      </trkpt>
      <trkpt lat="48.13014" lon="7.09176">
        <ele>1109.5999755859</ele>
        <time>2021-05-23T14:28:59Z</time>
      </trkpt>
      <trkpt lat="48.12994" lon="7.09174">
        <ele>1108.4000244141</ele>
        <time>2021-05-23T14:29:01Z</time>
      </trkpt>
      <trkpt lat="48.12964" lon="7.09175">
        <ele>1107</ele>
        <time>2021-05-23T14:29:04Z</time>
      </trkpt>
      <trkpt lat="48.12943" lon="7.0918">
        <ele>1106.1999511719</ele>
        <time>2021-05-23T14:29:06Z</time>
      </trkpt>
      <trkpt lat="48.12933" lon="7.09185">
        <ele>1105.8000488281</ele>
        <time>2021-05-23T14:29:07Z</time>
      </trkpt>
      <trkpt lat="48.12924" lon="7.09191">
        <ele>1105.1999511719</ele>
        <time>2021-05-23T14:29:08Z</time>
      </trkpt>
      <trkpt lat="48.12914" lon="7.09199">
        <ele>1105</ele>
        <time>2021-05-23T14:29:09Z</time>
      </trkpt>
      <trkpt lat="48.12906" lon="7.09207">
        <ele>1104.4000244141</ele>
        <time>2021-05-23T14:29:10Z</time>
      </trkpt>
      <trkpt lat="48.12877" lon="7.09235">
        <ele>1103.1999511719</ele>
        <time>2021-05-23T14:29:13Z</time>
      </trkpt>
      <trkpt lat="48.12858" lon="7.09256">
        <ele>1101.1999511719</ele>
        <time>2021-05-23T14:29:15Z</time>
      </trkpt>
      <trkpt lat="48.12839" lon="7.09278">
        <ele>1099.5999755859</ele>
        <time>2021-05-23T14:29:17Z</time>
      </trkpt>
      <trkpt lat="48.12822" lon="7.093">
        <ele>1098.8000488281</ele>
        <time>2021-05-23T14:29:19Z</time>
      </trkpt>
      <trkpt lat="48.12811" lon="7.09315">
        <ele>1097.8000488281</ele>
        <time>2021-05-23T14:29:20Z</time>
      </trkpt>
      <trkpt lat="48.12792" lon="7.09339">
        <ele>1096.1999511719</ele>
        <time>2021-05-23T14:29:22Z</time>
      </trkpt>
      <trkpt lat="48.12774" lon="7.09359">
        <ele>1094.5999755859</ele>
        <time>2021-05-23T14:29:24Z</time>
      </trkpt>
      <trkpt lat="48.12755" lon="7.0938">
        <ele>1093.5999755859</ele>
        <time>2021-05-23T14:29:26Z</time>
      </trkpt>
      <trkpt lat="48.12746" lon="7.0939">
        <ele>1092</ele>
        <time>2021-05-23T14:29:27Z</time>
      </trkpt>
      <trkpt lat="48.12727" lon="7.09409">
        <ele>1089.5999755859</ele>
        <time>2021-05-23T14:29:29Z</time>
      </trkpt>
      <trkpt lat="48.12708" lon="7.09426">
        <ele>1088.1999511719</ele>
        <time>2021-05-23T14:29:31Z</time>
      </trkpt>
      <trkpt lat="48.12699" lon="7.09434">
        <ele>1087.8000488281</ele>
        <time>2021-05-23T14:29:32Z</time>
      </trkpt>
      <trkpt lat="48.12689" lon="7.09443">
        <ele>1087.1999511719</ele>
        <time>2021-05-23T14:29:33Z</time>
      </trkpt>
      <trkpt lat="48.12657" lon="7.09469">
        <ele>1085.8000488281</ele>
        <time>2021-05-23T14:29:36Z</time>
      </trkpt>
      <trkpt lat="48.12639" lon="7.09486">
        <ele>1083.5999755859</ele>
        <time>2021-05-23T14:29:38Z</time>
      </trkpt>
      <trkpt lat="48.12618" lon="7.09506">
        <ele>1082.4000244141</ele>
        <time>2021-05-23T14:29:40Z</time>
      </trkpt>
      <trkpt lat="48.12609" lon="7.09518">
        <ele>1081.4000244141</ele>
        <time>2021-05-23T14:29:41Z</time>
      </trkpt>
      <trkpt lat="48.12591" lon="7.09543">
        <ele>1079.8000488281</ele>
        <time>2021-05-23T14:29:43Z</time>
      </trkpt>
      <trkpt lat="48.12583" lon="7.09555">
        <ele>1079.4000244141</ele>
        <time>2021-05-23T14:29:44Z</time>
      </trkpt>
      <trkpt lat="48.12575" lon="7.09567">
        <ele>1078.5999755859</ele>
        <time>2021-05-23T14:29:45Z</time>
      </trkpt>
      <trkpt lat="48.12559" lon="7.09593">
        <ele>1077</ele>
        <time>2021-05-23T14:29:47Z</time>
      </trkpt>
      <trkpt lat="48.12545" lon="7.09614">
        <ele>1075.8000488281</ele>
        <time>2021-05-23T14:29:49Z</time>
      </trkpt>
      <trkpt lat="48.12529" lon="7.09637">
        <ele>1074.4000244141</ele>
        <time>2021-05-23T14:29:51Z</time>
      </trkpt>
      <trkpt lat="48.1252" lon="7.0965">
        <ele>1072.8000488281</ele>
        <time>2021-05-23T14:29:52Z</time>
      </trkpt>
      <trkpt lat="48.12506" lon="7.09678">
        <ele>1071.4000244141</ele>
        <time>2021-05-23T14:29:54Z</time>
      </trkpt>
      <trkpt lat="48.125" lon="7.09693">
        <ele>1070.4000244141</ele>
        <time>2021-05-23T14:29:55Z</time>
      </trkpt>
      <trkpt lat="48.12488" lon="7.09723">
        <ele>1068.8000488281</ele>
        <time>2021-05-23T14:29:57Z</time>
      </trkpt>
      <trkpt lat="48.1248" lon="7.09738">
        <ele>1068.5999755859</ele>
        <time>2021-05-23T14:29:58Z</time>
      </trkpt>
      <trkpt lat="48.12471" lon="7.09751">
        <ele>1067.8000488281</ele>
        <time>2021-05-23T14:29:59Z</time>
      </trkpt>
      <trkpt lat="48.12461" lon="7.09763">
        <ele>1067</ele>
        <time>2021-05-23T14:30:00Z</time>
      </trkpt>
      <trkpt lat="48.1245" lon="7.09773">
        <ele>1065.1999511719</ele>
        <time>2021-05-23T14:30:01Z</time>
      </trkpt>
      <trkpt lat="48.12438" lon="7.09783">
        <ele>1063.1999511719</ele>
        <time>2021-05-23T14:30:02Z</time>
      </trkpt>
      <trkpt lat="48.12413" lon="7.09802">
        <ele>1060.5999755859</ele>
        <time>2021-05-23T14:30:04Z</time>
      </trkpt>
      <trkpt lat="48.12386" lon="7.09824">
        <ele>1058</ele>
        <time>2021-05-23T14:30:06Z</time>
      </trkpt>
      <trkpt lat="48.12366" lon="7.09856">
        <ele>1055.1999511719</ele>
        <time>2021-05-23T14:30:08Z</time>
      </trkpt>
      <trkpt lat="48.12362" lon="7.09873">
        <ele>1052.8000488281</ele>
        <time>2021-05-23T14:30:09Z</time>
      </trkpt>
      <trkpt lat="48.12354" lon="7.09917">
        <ele>1052.1999511719</ele>
        <time>2021-05-23T14:30:10Z</time>
      </trkpt>
      <trkpt lat="48.12349" lon="7.09937">
        <ele>1050</ele>
        <time>2021-05-23T14:30:11Z</time>
      </trkpt>
      <trkpt lat="48.12343" lon="7.09959">
        <ele>1048.8000488281</ele>
        <time>2021-05-23T14:30:12Z</time>
      </trkpt>
      <trkpt lat="48.12338" lon="7.0997">
        <ele>1046.8000488281</ele>
        <time>2021-05-23T14:30:13Z</time>
      </trkpt>
      <trkpt lat="48.1233" lon="7.09981">
        <ele>1044.5999755859</ele>
        <time>2021-05-23T14:30:15Z</time>
      </trkpt>
      <trkpt lat="48.1232" lon="7.09987">
        <ele>1043.8000488281</ele>
        <time>2021-05-23T14:30:16Z</time>
      </trkpt>
      <trkpt lat="48.1231" lon="7.09989">
        <ele>1042.8000488281</ele>
        <time>2021-05-23T14:30:17Z</time>
      </trkpt>
      <trkpt lat="48.12296" lon="7.09985">
        <ele>1041.4000244141</ele>
        <time>2021-05-23T14:30:18Z</time>
      </trkpt>
      <trkpt lat="48.12287" lon="7.09979">
        <ele>1040.4000244141</ele>
        <time>2021-05-23T14:30:19Z</time>
      </trkpt>
      <trkpt lat="48.12275" lon="7.0997">
        <ele>1038.8000488281</ele>
        <time>2021-05-23T14:30:20Z</time>
      </trkpt>
      <trkpt lat="48.12253" lon="7.0995">
        <ele>1038.1999511719</ele>
        <time>2021-05-23T14:30:21Z</time>
      </trkpt>
      <trkpt lat="48.12253" lon="7.0995">
        <ele>1037.4000244141</ele>
        <time>2021-05-23T14:30:22Z</time>
      </trkpt>
      <trkpt lat="48.12227" lon="7.09933">
        <ele>1034.8000488281</ele>
        <time>2021-05-23T14:30:24Z</time>
      </trkpt>
      <trkpt lat="48.12217" lon="7.09931">
        <ele>1033.5999755859</ele>
        <time>2021-05-23T14:30:25Z</time>
      </trkpt>
      <trkpt lat="48.12204" lon="7.09933">
        <ele>1032.4000244141</ele>
        <time>2021-05-23T14:30:26Z</time>
      </trkpt>
      <trkpt lat="48.12188" lon="7.09939">
        <ele>1030.8000488281</ele>
        <time>2021-05-23T14:30:27Z</time>
      </trkpt>
      <trkpt lat="48.1217" lon="7.09963">
        <ele>1030.1999511719</ele>
        <time>2021-05-23T14:30:28Z</time>
      </trkpt>
      <trkpt lat="48.12167" lon="7.09976">
        <ele>1028.4000244141</ele>
        <time>2021-05-23T14:30:29Z</time>
      </trkpt>
      <trkpt lat="48.12162" lon="7.09996">
        <ele>1025.8000488281</ele>
        <time>2021-05-23T14:30:31Z</time>
      </trkpt>
      <trkpt lat="48.12161" lon="7.10028">
        <ele>1024.4000244141</ele>
        <time>2021-05-23T14:30:33Z</time>
      </trkpt>
      <trkpt lat="48.12161" lon="7.10065">
        <ele>1023.799987793</ele>
        <time>2021-05-23T14:30:35Z</time>
      </trkpt>
      <trkpt lat="48.12167" lon="7.10105">
        <ele>1023.4000244141</ele>
        <time>2021-05-23T14:30:37Z</time>
      </trkpt>
      <trkpt lat="48.12174" lon="7.1014">
        <ele>1023</ele>
        <time>2021-05-23T14:30:38Z</time>
      </trkpt>
      <trkpt lat="48.12178" lon="7.10157">
        <ele>1022.799987793</ele>
        <time>2021-05-23T14:30:39Z</time>
      </trkpt>
      <trkpt lat="48.12184" lon="7.10173">
        <ele>1021.799987793</ele>
        <time>2021-05-23T14:30:41Z</time>
      </trkpt>
      <trkpt lat="48.12218" lon="7.10243">
        <ele>1021</ele>
        <time>2021-05-23T14:30:45Z</time>
      </trkpt>
      <trkpt lat="48.12224" lon="7.10252">
        <ele>1020.799987793</ele>
        <time>2021-05-23T14:30:47Z</time>
      </trkpt>
      <trkpt lat="48.12246" lon="7.10291">
        <ele>1020.4000244141</ele>
        <time>2021-05-23T14:30:50Z</time>
      </trkpt>
      <trkpt lat="48.12266" lon="7.10326">
        <ele>1020.200012207</ele>
        <time>2021-05-23T14:30:53Z</time>
      </trkpt>
      <trkpt lat="48.12287" lon="7.10374">
        <ele>1019.5999755859</ele>
        <time>2021-05-23T14:30:56Z</time>
      </trkpt>
      <trkpt lat="48.12296" lon="7.10404">
        <ele>1019</ele>
        <time>2021-05-23T14:30:58Z</time>
      </trkpt>
      <trkpt lat="48.12296" lon="7.10404">
        <ele>1018.5999755859</ele>
        <time>2021-05-23T14:30:59Z</time>
      </trkpt>
      <trkpt lat="48.12298" lon="7.1042">
        <ele>1018.4000244141</ele>
        <time>2021-05-23T14:31:00Z</time>
      </trkpt>
      <trkpt lat="48.12298" lon="7.10456">
        <ele>1017.4000244141</ele>
        <time>2021-05-23T14:31:02Z</time>
      </trkpt>
      <trkpt lat="48.12292" lon="7.10492">
        <ele>1016.4000244141</ele>
        <time>2021-05-23T14:31:04Z</time>
      </trkpt>
      <trkpt lat="48.1228" lon="7.10528">
        <ele>1015.799987793</ele>
        <time>2021-05-23T14:31:05Z</time>
      </trkpt>
      <trkpt lat="48.12273" lon="7.10545">
        <ele>1014.4000244141</ele>
        <time>2021-05-23T14:31:06Z</time>
      </trkpt>
      <trkpt lat="48.12266" lon="7.10562">
        <ele>1012.4000244141</ele>
        <time>2021-05-23T14:31:08Z</time>
      </trkpt>
      <trkpt lat="48.12258" lon="7.10579">
        <ele>1011</ele>
        <time>2021-05-23T14:31:09Z</time>
      </trkpt>
      <trkpt lat="48.12251" lon="7.10595">
        <ele>1010.4000244141</ele>
        <time>2021-05-23T14:31:10Z</time>
      </trkpt>
      <trkpt lat="48.12244" lon="7.10611">
        <ele>1009</ele>
        <time>2021-05-23T14:31:11Z</time>
      </trkpt>
      <trkpt lat="48.12223" lon="7.10656">
        <ele>1007.4000244141</ele>
        <time>2021-05-23T14:31:13Z</time>
      </trkpt>
      <trkpt lat="48.12209" lon="7.10684">
        <ele>1006.5999755859</ele>
        <time>2021-05-23T14:31:15Z</time>
      </trkpt>
      <trkpt lat="48.12203" lon="7.10698">
        <ele>1005.799987793</ele>
        <time>2021-05-23T14:31:17Z</time>
      </trkpt>
      <trkpt lat="48.12183" lon="7.1076">
        <ele>1004.799987793</ele>
        <time>2021-05-23T14:31:20Z</time>
      </trkpt>
      <trkpt lat="48.12183" lon="7.1076">
        <ele>1004.5999755859</ele>
        <time>2021-05-23T14:31:21Z</time>
      </trkpt>
      <trkpt lat="48.12175" lon="7.1083">
        <ele>1003.5999755859</ele>
        <time>2021-05-23T14:31:24Z</time>
      </trkpt>
      <trkpt lat="48.12174" lon="7.10848">
        <ele>1003.4000244141</ele>
        <time>2021-05-23T14:31:25Z</time>
      </trkpt>
      <trkpt lat="48.12174" lon="7.10848">
        <ele>1003.200012207</ele>
        <time>2021-05-23T14:31:26Z</time>
      </trkpt>
      <trkpt lat="48.12171" lon="7.10903">
        <ele>1002</ele>
        <time>2021-05-23T14:31:28Z</time>
      </trkpt>
      <trkpt lat="48.12171" lon="7.10903">
        <ele>1000.799987793</ele>
        <time>2021-05-23T14:31:29Z</time>
      </trkpt>
      <trkpt lat="48.12169" lon="7.10958">
        <ele>999.79998779297</ele>
        <time>2021-05-23T14:31:31Z</time>
      </trkpt>
      <trkpt lat="48.12162" lon="7.10993">
        <ele>998.59997558594</ele>
        <time>2021-05-23T14:31:33Z</time>
      </trkpt>
      <trkpt lat="48.12162" lon="7.10993">
        <ele>998</ele>
        <time>2021-05-23T14:31:34Z</time>
      </trkpt>
      <trkpt lat="48.12156" lon="7.11011">
        <ele>997.59997558594</ele>
        <time>2021-05-23T14:31:35Z</time>
      </trkpt>
      <trkpt lat="48.12149" lon="7.11027">
        <ele>996.40002441406</ele>
        <time>2021-05-23T14:31:36Z</time>
      </trkpt>
      <trkpt lat="48.12133" lon="7.11059">
        <ele>995.79998779297</ele>
        <time>2021-05-23T14:31:37Z</time>
      </trkpt>
      <trkpt lat="48.12133" lon="7.11059">
        <ele>995.20001220703</ele>
        <time>2021-05-23T14:31:38Z</time>
      </trkpt>
      <trkpt lat="48.12109" lon="7.11105">
        <ele>993.59997558594</ele>
        <time>2021-05-23T14:31:40Z</time>
      </trkpt>
      <trkpt lat="48.121" lon="7.11119">
        <ele>992.20001220703</ele>
        <time>2021-05-23T14:31:41Z</time>
      </trkpt>
      <trkpt lat="48.121" lon="7.11119">
        <ele>991.79998779297</ele>
        <time>2021-05-23T14:31:42Z</time>
      </trkpt>
      <trkpt lat="48.12091" lon="7.1113">
        <ele>990.79998779297</ele>
        <time>2021-05-23T14:31:43Z</time>
      </trkpt>
      <trkpt lat="48.12081" lon="7.1114">
        <ele>990.40002441406</ele>
        <time>2021-05-23T14:31:44Z</time>
      </trkpt>
      <trkpt lat="48.12054" lon="7.11155">
        <ele>989</ele>
        <time>2021-05-23T14:31:45Z</time>
      </trkpt>
      <trkpt lat="48.12042" lon="7.11164">
        <ele>988.40002441406</ele>
        <time>2021-05-23T14:31:46Z</time>
      </trkpt>
      <trkpt lat="48.12042" lon="7.11164">
        <ele>987</ele>
        <time>2021-05-23T14:31:47Z</time>
      </trkpt>
      <trkpt lat="48.1203" lon="7.11176">
        <ele>984.79998779297</ele>
        <time>2021-05-23T14:31:48Z</time>
      </trkpt>
      <trkpt lat="48.12019" lon="7.11187">
        <ele>984</ele>
        <time>2021-05-23T14:31:49Z</time>
      </trkpt>
      <trkpt lat="48.12008" lon="7.11199">
        <ele>982.59997558594</ele>
        <time>2021-05-23T14:31:50Z</time>
      </trkpt>
      <trkpt lat="48.11979" lon="7.11234">
        <ele>980.79998779297</ele>
        <time>2021-05-23T14:31:52Z</time>
      </trkpt>
      <trkpt lat="48.11971" lon="7.11247">
        <ele>980.40002441406</ele>
        <time>2021-05-23T14:31:53Z</time>
      </trkpt>
      <trkpt lat="48.11965" lon="7.11262">
        <ele>979.20001220703</ele>
        <time>2021-05-23T14:31:54Z</time>
      </trkpt>
      <trkpt lat="48.11963" lon="7.11278">
        <ele>978.20001220703</ele>
        <time>2021-05-23T14:31:55Z</time>
      </trkpt>
      <trkpt lat="48.11969" lon="7.11312">
        <ele>977</ele>
        <time>2021-05-23T14:31:57Z</time>
      </trkpt>
      <trkpt lat="48.11977" lon="7.11323">
        <ele>975.40002441406</ele>
        <time>2021-05-23T14:31:59Z</time>
      </trkpt>
      <trkpt lat="48.11999" lon="7.11337">
        <ele>974.79998779297</ele>
        <time>2021-05-23T14:32:00Z</time>
      </trkpt>
      <trkpt lat="48.12011" lon="7.11342">
        <ele>973</ele>
        <time>2021-05-23T14:32:01Z</time>
      </trkpt>
      <trkpt lat="48.12023" lon="7.11347">
        <ele>971.79998779297</ele>
        <time>2021-05-23T14:32:02Z</time>
      </trkpt>
      <trkpt lat="48.12048" lon="7.11356">
        <ele>970.79998779297</ele>
        <time>2021-05-23T14:32:05Z</time>
      </trkpt>
      <trkpt lat="48.12073" lon="7.11365">
        <ele>970.40002441406</ele>
        <time>2021-05-23T14:32:06Z</time>
      </trkpt>
      <trkpt lat="48.121" lon="7.11378">
        <ele>969</ele>
        <time>2021-05-23T14:32:08Z</time>
      </trkpt>
      <trkpt lat="48.12125" lon="7.11396">
        <ele>967.59997558594</ele>
        <time>2021-05-23T14:32:10Z</time>
      </trkpt>
      <trkpt lat="48.12137" lon="7.11406">
        <ele>966.40002441406</ele>
        <time>2021-05-23T14:32:11Z</time>
      </trkpt>
      <trkpt lat="48.12162" lon="7.11426">
        <ele>964.59997558594</ele>
        <time>2021-05-23T14:32:13Z</time>
      </trkpt>
      <trkpt lat="48.12186" lon="7.11446">
        <ele>962.20001220703</ele>
        <time>2021-05-23T14:32:15Z</time>
      </trkpt>
      <trkpt lat="48.12211" lon="7.11464">
        <ele>960</ele>
        <time>2021-05-23T14:32:17Z</time>
      </trkpt>
      <trkpt lat="48.12223" lon="7.11474">
        <ele>958.20001220703</ele>
        <time>2021-05-23T14:32:18Z</time>
      </trkpt>
      <trkpt lat="48.12234" lon="7.11483">
        <ele>955.79998779297</ele>
        <time>2021-05-23T14:32:20Z</time>
      </trkpt>
      <trkpt lat="48.12256" lon="7.11508">
        <ele>955.40002441406</ele>
        <time>2021-05-23T14:32:21Z</time>
      </trkpt>
      <trkpt lat="48.12265" lon="7.11524">
        <ele>954</ele>
        <time>2021-05-23T14:32:22Z</time>
      </trkpt>
      <trkpt lat="48.12272" lon="7.11543">
        <ele>953.40002441406</ele>
        <time>2021-05-23T14:32:23Z</time>
      </trkpt>
      <trkpt lat="48.12278" lon="7.11562">
        <ele>951.79998779297</ele>
        <time>2021-05-23T14:32:24Z</time>
      </trkpt>
      <trkpt lat="48.12283" lon="7.11583">
        <ele>950.40002441406</ele>
        <time>2021-05-23T14:32:25Z</time>
      </trkpt>
      <trkpt lat="48.12293" lon="7.11624">
        <ele>948.20001220703</ele>
        <time>2021-05-23T14:32:27Z</time>
      </trkpt>
      <trkpt lat="48.12299" lon="7.11643">
        <ele>947</ele>
        <time>2021-05-23T14:32:28Z</time>
      </trkpt>
      <trkpt lat="48.12306" lon="7.11662">
        <ele>945</ele>
        <time>2021-05-23T14:32:29Z</time>
      </trkpt>
      <trkpt lat="48.12315" lon="7.1168">
        <ele>944.40002441406</ele>
        <time>2021-05-23T14:32:30Z</time>
      </trkpt>
      <trkpt lat="48.12324" lon="7.11695">
        <ele>942.59997558594</ele>
        <time>2021-05-23T14:32:31Z</time>
      </trkpt>
      <trkpt lat="48.12335" lon="7.1171">
        <ele>942</ele>
        <time>2021-05-23T14:32:32Z</time>
      </trkpt>
      <trkpt lat="48.12346" lon="7.11722">
        <ele>940.59997558594</ele>
        <time>2021-05-23T14:32:33Z</time>
      </trkpt>
      <trkpt lat="48.12359" lon="7.11732">
        <ele>938.40002441406</ele>
        <time>2021-05-23T14:32:34Z</time>
      </trkpt>
      <trkpt lat="48.12371" lon="7.11741">
        <ele>937.20001220703</ele>
        <time>2021-05-23T14:32:35Z</time>
      </trkpt>
      <trkpt lat="48.12371" lon="7.11741">
        <ele>935.79998779297</ele>
        <time>2021-05-23T14:32:36Z</time>
      </trkpt>
      <trkpt lat="48.12397" lon="7.11759">
        <ele>934.40002441406</ele>
        <time>2021-05-23T14:32:38Z</time>
      </trkpt>
      <trkpt lat="48.12424" lon="7.11776">
        <ele>933.79998779297</ele>
        <time>2021-05-23T14:32:39Z</time>
      </trkpt>
      <trkpt lat="48.12438" lon="7.11783">
        <ele>932.20001220703</ele>
        <time>2021-05-23T14:32:40Z</time>
      </trkpt>
      <trkpt lat="48.12438" lon="7.11783">
        <ele>930.59997558594</ele>
        <time>2021-05-23T14:32:41Z</time>
      </trkpt>
      <trkpt lat="48.12467" lon="7.11796">
        <ele>930.20001220703</ele>
        <time>2021-05-23T14:32:42Z</time>
      </trkpt>
      <trkpt lat="48.12467" lon="7.11796">
        <ele>929.40002441406</ele>
        <time>2021-05-23T14:32:43Z</time>
      </trkpt>
      <trkpt lat="48.12496" lon="7.11805">
        <ele>927</ele>
        <time>2021-05-23T14:32:45Z</time>
      </trkpt>
      <trkpt lat="48.12537" lon="7.1182">
        <ele>925.59997558594</ele>
        <time>2021-05-23T14:32:47Z</time>
      </trkpt>
      <trkpt lat="48.12563" lon="7.11835">
        <ele>923.79998779297</ele>
        <time>2021-05-23T14:32:49Z</time>
      </trkpt>
      <trkpt lat="48.12563" lon="7.11835">
        <ele>922.20001220703</ele>
        <time>2021-05-23T14:32:50Z</time>
      </trkpt>
      <trkpt lat="48.12585" lon="7.11858">
        <ele>921</ele>
        <time>2021-05-23T14:32:51Z</time>
      </trkpt>
      <trkpt lat="48.12594" lon="7.11874">
        <ele>919.40002441406</ele>
        <time>2021-05-23T14:32:52Z</time>
      </trkpt>
      <trkpt lat="48.12601" lon="7.11891">
        <ele>918.20001220703</ele>
        <time>2021-05-23T14:32:53Z</time>
      </trkpt>
      <trkpt lat="48.12601" lon="7.11891">
        <ele>917</ele>
        <time>2021-05-23T14:32:54Z</time>
      </trkpt>
      <trkpt lat="48.12611" lon="7.11929">
        <ele>916.59997558594</ele>
        <time>2021-05-23T14:32:55Z</time>
      </trkpt>
      <trkpt lat="48.12612" lon="7.11949">
        <ele>915.79998779297</ele>
        <time>2021-05-23T14:32:56Z</time>
      </trkpt>
      <trkpt lat="48.12612" lon="7.11949">
        <ele>915.20001220703</ele>
        <time>2021-05-23T14:32:57Z</time>
      </trkpt>
      <trkpt lat="48.12606" lon="7.11991">
        <ele>914.79998779297</ele>
        <time>2021-05-23T14:32:58Z</time>
      </trkpt>
      <trkpt lat="48.12601" lon="7.1201">
        <ele>914.40002441406</ele>
        <time>2021-05-23T14:32:59Z</time>
      </trkpt>
      <trkpt lat="48.12593" lon="7.12029">
        <ele>913.59997558594</ele>
        <time>2021-05-23T14:33:00Z</time>
      </trkpt>
      <trkpt lat="48.12584" lon="7.12046">
        <ele>911.79998779297</ele>
        <time>2021-05-23T14:33:01Z</time>
      </trkpt>
      <trkpt lat="48.12564" lon="7.1208">
        <ele>909.79998779297</ele>
        <time>2021-05-23T14:33:03Z</time>
      </trkpt>
      <trkpt lat="48.12564" lon="7.1208">
        <ele>908</ele>
        <time>2021-05-23T14:33:04Z</time>
      </trkpt>
      <trkpt lat="48.12543" lon="7.1211">
        <ele>907</ele>
        <time>2021-05-23T14:33:05Z</time>
      </trkpt>
      <trkpt lat="48.12532" lon="7.12122">
        <ele>905.79998779297</ele>
        <time>2021-05-23T14:33:06Z</time>
      </trkpt>
      <trkpt lat="48.1252" lon="7.1213">
        <ele>905.59997558594</ele>
        <time>2021-05-23T14:33:07Z</time>
      </trkpt>
      <trkpt lat="48.12506" lon="7.12135">
        <ele>904.40002441406</ele>
        <time>2021-05-23T14:33:08Z</time>
      </trkpt>
      <trkpt lat="48.12491" lon="7.12135">
        <ele>903.59997558594</ele>
        <time>2021-05-23T14:33:09Z</time>
      </trkpt>
      <trkpt lat="48.12491" lon="7.12135">
        <ele>902.20001220703</ele>
        <time>2021-05-23T14:33:10Z</time>
      </trkpt>
      <trkpt lat="48.12477" lon="7.12133">
        <ele>900.79998779297</ele>
        <time>2021-05-23T14:33:11Z</time>
      </trkpt>
      <trkpt lat="48.12437" lon="7.1211">
        <ele>898.79998779297</ele>
        <time>2021-05-23T14:33:13Z</time>
      </trkpt>
      <trkpt lat="48.12424" lon="7.12099">
        <ele>896.79998779297</ele>
        <time>2021-05-23T14:33:15Z</time>
      </trkpt>
      <trkpt lat="48.12385" lon="7.12064">
        <ele>895.20001220703</ele>
        <time>2021-05-23T14:33:17Z</time>
      </trkpt>
      <trkpt lat="48.12385" lon="7.12064">
        <ele>894.79998779297</ele>
        <time>2021-05-23T14:33:18Z</time>
      </trkpt>
      <trkpt lat="48.12362" lon="7.12034">
        <ele>892.79998779297</ele>
        <time>2021-05-23T14:33:19Z</time>
      </trkpt>
      <trkpt lat="48.12351" lon="7.12018">
        <ele>891.59997558594</ele>
        <time>2021-05-23T14:33:20Z</time>
      </trkpt>
      <trkpt lat="48.12341" lon="7.12002">
        <ele>891.20001220703</ele>
        <time>2021-05-23T14:33:21Z</time>
      </trkpt>
      <trkpt lat="48.12332" lon="7.11985">
        <ele>889.40002441406</ele>
        <time>2021-05-23T14:33:22Z</time>
      </trkpt>
      <trkpt lat="48.12323" lon="7.11968">
        <ele>888</ele>
        <time>2021-05-23T14:33:23Z</time>
      </trkpt>
      <trkpt lat="48.12315" lon="7.1195">
        <ele>886.40002441406</ele>
        <time>2021-05-23T14:33:24Z</time>
      </trkpt>
      <trkpt lat="48.12306" lon="7.11932">
        <ele>885.79998779297</ele>
        <time>2021-05-23T14:33:25Z</time>
      </trkpt>
      <trkpt lat="48.12297" lon="7.11913">
        <ele>883.79998779297</ele>
        <time>2021-05-23T14:33:26Z</time>
      </trkpt>
      <trkpt lat="48.12289" lon="7.11895">
        <ele>882.59997558594</ele>
        <time>2021-05-23T14:33:27Z</time>
      </trkpt>
      <trkpt lat="48.12266" lon="7.11859">
        <ele>880.79998779297</ele>
        <time>2021-05-23T14:33:29Z</time>
      </trkpt>
      <trkpt lat="48.12242" lon="7.11838">
        <ele>878.20001220703</ele>
        <time>2021-05-23T14:33:31Z</time>
      </trkpt>
      <trkpt lat="48.12228" lon="7.1183">
        <ele>877.59997558594</ele>
        <time>2021-05-23T14:33:32Z</time>
      </trkpt>
      <trkpt lat="48.12213" lon="7.11823">
        <ele>876.40002441406</ele>
        <time>2021-05-23T14:33:33Z</time>
      </trkpt>
      <trkpt lat="48.12198" lon="7.11816">
        <ele>874.40002441406</ele>
        <time>2021-05-23T14:33:34Z</time>
      </trkpt>
      <trkpt lat="48.12168" lon="7.11804">
        <ele>872.59997558594</ele>
        <time>2021-05-23T14:33:36Z</time>
      </trkpt>
      <trkpt lat="48.12153" lon="7.11797">
        <ele>872.20001220703</ele>
        <time>2021-05-23T14:33:37Z</time>
      </trkpt>
      <trkpt lat="48.12138" lon="7.11788">
        <ele>869.59997558594</ele>
        <time>2021-05-23T14:33:38Z</time>
      </trkpt>
      <trkpt lat="48.12107" lon="7.11766">
        <ele>867.79998779297</ele>
        <time>2021-05-23T14:33:40Z</time>
      </trkpt>
      <trkpt lat="48.12096" lon="7.11756">
        <ele>867.20001220703</ele>
        <time>2021-05-23T14:33:41Z</time>
      </trkpt>
      <trkpt lat="48.12096" lon="7.11756">
        <ele>865.40002441406</ele>
        <time>2021-05-23T14:33:42Z</time>
      </trkpt>
      <trkpt lat="48.12069" lon="7.11734">
        <ele>863.40002441406</ele>
        <time>2021-05-23T14:33:43Z</time>
      </trkpt>
      <trkpt lat="48.12043" lon="7.11713">
        <ele>861.79998779297</ele>
        <time>2021-05-23T14:33:45Z</time>
      </trkpt>
      <trkpt lat="48.12017" lon="7.11692">
        <ele>859.40002441406</ele>
        <time>2021-05-23T14:33:47Z</time>
      </trkpt>
      <trkpt lat="48.12004" lon="7.11682">
        <ele>857.40002441406</ele>
        <time>2021-05-23T14:33:49Z</time>
      </trkpt>
      <trkpt lat="48.11991" lon="7.11673">
        <ele>856.20001220703</ele>
        <time>2021-05-23T14:33:50Z</time>
      </trkpt>
      <trkpt lat="48.11961" lon="7.1166">
        <ele>855.59997558594</ele>
        <time>2021-05-23T14:33:51Z</time>
      </trkpt>
      <trkpt lat="48.1195" lon="7.11657">
        <ele>854.40002441406</ele>
        <time>2021-05-23T14:33:52Z</time>
      </trkpt>
      <trkpt lat="48.11909" lon="7.11649">
        <ele>853.20001220703</ele>
        <time>2021-05-23T14:33:55Z</time>
      </trkpt>
      <trkpt lat="48.11895" lon="7.11647">
        <ele>852</ele>
        <time>2021-05-23T14:33:56Z</time>
      </trkpt>
      <trkpt lat="48.11866" lon="7.11645">
        <ele>851</ele>
        <time>2021-05-23T14:33:58Z</time>
      </trkpt>
      <trkpt lat="48.11852" lon="7.11644">
        <ele>849.59997558594</ele>
        <time>2021-05-23T14:33:59Z</time>
      </trkpt>
      <trkpt lat="48.11824" lon="7.1164">
        <ele>847.59997558594</ele>
        <time>2021-05-23T14:34:01Z</time>
      </trkpt>
      <trkpt lat="48.1181" lon="7.11636">
        <ele>847.20001220703</ele>
        <time>2021-05-23T14:34:02Z</time>
      </trkpt>
      <trkpt lat="48.11796" lon="7.11631">
        <ele>846.40002441406</ele>
        <time>2021-05-23T14:34:03Z</time>
      </trkpt>
      <trkpt lat="48.11782" lon="7.11626">
        <ele>845</ele>
        <time>2021-05-23T14:34:04Z</time>
      </trkpt>
      <trkpt lat="48.11782" lon="7.11626">
        <ele>843.20001220703</ele>
        <time>2021-05-23T14:34:05Z</time>
      </trkpt>
      <trkpt lat="48.11754" lon="7.11612">
        <ele>841.40002441406</ele>
        <time>2021-05-23T14:34:06Z</time>
      </trkpt>
      <trkpt lat="48.11738" lon="7.11602">
        <ele>840.79998779297</ele>
        <time>2021-05-23T14:34:07Z</time>
      </trkpt>
      <trkpt lat="48.11727" lon="7.11595">
        <ele>840.20001220703</ele>
        <time>2021-05-23T14:34:08Z</time>
      </trkpt>
      <trkpt lat="48.11715" lon="7.11584">
        <ele>838</ele>
        <time>2021-05-23T14:34:10Z</time>
      </trkpt>
      <trkpt lat="48.11679" lon="7.11547">
        <ele>835.79998779297</ele>
        <time>2021-05-23T14:34:12Z</time>
      </trkpt>
      <trkpt lat="48.11656" lon="7.11516">
        <ele>834.40002441406</ele>
        <time>2021-05-23T14:34:14Z</time>
      </trkpt>
      <trkpt lat="48.11645" lon="7.115">
        <ele>833.40002441406</ele>
        <time>2021-05-23T14:34:15Z</time>
      </trkpt>
      <trkpt lat="48.11634" lon="7.11484">
        <ele>832.40002441406</ele>
        <time>2021-05-23T14:34:16Z</time>
      </trkpt>
      <trkpt lat="48.11623" lon="7.11468">
        <ele>830.59997558594</ele>
        <time>2021-05-23T14:34:17Z</time>
      </trkpt>
      <trkpt lat="48.11613" lon="7.11451">
        <ele>829.40002441406</ele>
        <time>2021-05-23T14:34:18Z</time>
      </trkpt>
      <trkpt lat="48.11604" lon="7.11434">
        <ele>827.40002441406</ele>
        <time>2021-05-23T14:34:19Z</time>
      </trkpt>
      <trkpt lat="48.11595" lon="7.11416">
        <ele>826</ele>
        <time>2021-05-23T14:34:20Z</time>
      </trkpt>
      <trkpt lat="48.11576" lon="7.11375">
        <ele>823.59997558594</ele>
        <time>2021-05-23T14:34:22Z</time>
      </trkpt>
      <trkpt lat="48.11562" lon="7.11343">
        <ele>821.40002441406</ele>
        <time>2021-05-23T14:34:24Z</time>
      </trkpt>
      <trkpt lat="48.11555" lon="7.11324">
        <ele>820.59997558594</ele>
        <time>2021-05-23T14:34:25Z</time>
      </trkpt>
      <trkpt lat="48.11555" lon="7.11324">
        <ele>819.40002441406</ele>
        <time>2021-05-23T14:34:26Z</time>
      </trkpt>
      <trkpt lat="48.11534" lon="7.11273">
        <ele>817</ele>
        <time>2021-05-23T14:34:28Z</time>
      </trkpt>
      <trkpt lat="48.11526" lon="7.11257">
        <ele>815.59997558594</ele>
        <time>2021-05-23T14:34:29Z</time>
      </trkpt>
      <trkpt lat="48.11517" lon="7.11242">
        <ele>815</ele>
        <time>2021-05-23T14:34:30Z</time>
      </trkpt>
      <trkpt lat="48.11517" lon="7.11242">
        <ele>813.79998779297</ele>
        <time>2021-05-23T14:34:31Z</time>
      </trkpt>
      <trkpt lat="48.11507" lon="7.1123">
        <ele>813.40002441406</ele>
        <time>2021-05-23T14:34:32Z</time>
      </trkpt>
      <trkpt lat="48.11486" lon="7.11213">
        <ele>812.79998779297</ele>
        <time>2021-05-23T14:34:33Z</time>
      </trkpt>
      <trkpt lat="48.11486" lon="7.11213">
        <ele>812.59997558594</ele>
        <time>2021-05-23T14:34:34Z</time>
      </trkpt>
      <trkpt lat="48.11462" lon="7.11202">
        <ele>811.79998779297</ele>
        <time>2021-05-23T14:34:35Z</time>
      </trkpt>
      <trkpt lat="48.11462" lon="7.11202">
        <ele>811</ele>
        <time>2021-05-23T14:34:36Z</time>
      </trkpt>
      <trkpt lat="48.11428" lon="7.11186">
        <ele>809.59997558594</ele>
        <time>2021-05-23T14:34:38Z</time>
      </trkpt>
      <trkpt lat="48.11404" lon="7.11175">
        <ele>808.20001220703</ele>
        <time>2021-05-23T14:34:40Z</time>
      </trkpt>
      <trkpt lat="48.11379" lon="7.11163">
        <ele>807.20001220703</ele>
        <time>2021-05-23T14:34:42Z</time>
      </trkpt>
      <trkpt lat="48.11354" lon="7.11155">
        <ele>806</ele>
        <time>2021-05-23T14:34:44Z</time>
      </trkpt>
      <trkpt lat="48.11342" lon="7.11152">
        <ele>805</ele>
        <time>2021-05-23T14:34:45Z</time>
      </trkpt>
      <trkpt lat="48.1133" lon="7.11151">
        <ele>802.79998779297</ele>
        <time>2021-05-23T14:34:47Z</time>
      </trkpt>
      <trkpt lat="48.11307" lon="7.11159">
        <ele>802.20001220703</ele>
        <time>2021-05-23T14:34:48Z</time>
      </trkpt>
      <trkpt lat="48.11296" lon="7.11166">
        <ele>800.20001220703</ele>
        <time>2021-05-23T14:34:49Z</time>
      </trkpt>
      <trkpt lat="48.11287" lon="7.11175">
        <ele>799.40002441406</ele>
        <time>2021-05-23T14:34:50Z</time>
      </trkpt>
      <trkpt lat="48.11277" lon="7.11186">
        <ele>798.79998779297</ele>
        <time>2021-05-23T14:34:51Z</time>
      </trkpt>
      <trkpt lat="48.1126" lon="7.11213">
        <ele>798.20001220703</ele>
        <time>2021-05-23T14:34:53Z</time>
      </trkpt>
      <trkpt lat="48.1126" lon="7.11213">
        <ele>797.20001220703</ele>
        <time>2021-05-23T14:34:54Z</time>
      </trkpt>
      <trkpt lat="48.11247" lon="7.11246">
        <ele>796.40002441406</ele>
        <time>2021-05-23T14:34:55Z</time>
      </trkpt>
      <trkpt lat="48.11247" lon="7.11246">
        <ele>795</ele>
        <time>2021-05-23T14:34:56Z</time>
      </trkpt>
      <trkpt lat="48.11224" lon="7.11295">
        <ele>793.59997558594</ele>
        <time>2021-05-23T14:34:58Z</time>
      </trkpt>
      <trkpt lat="48.11216" lon="7.11311">
        <ele>792.59997558594</ele>
        <time>2021-05-23T14:34:59Z</time>
      </trkpt>
      <trkpt lat="48.11196" lon="7.1134">
        <ele>790.79998779297</ele>
        <time>2021-05-23T14:35:01Z</time>
      </trkpt>
      <trkpt lat="48.11186" lon="7.11352">
        <ele>790.20001220703</ele>
        <time>2021-05-23T14:35:02Z</time>
      </trkpt>
      <trkpt lat="48.11174" lon="7.11361">
        <ele>789</ele>
        <time>2021-05-23T14:35:03Z</time>
      </trkpt>
      <trkpt lat="48.11161" lon="7.11369">
        <ele>787.79998779297</ele>
        <time>2021-05-23T14:35:04Z</time>
      </trkpt>
      <trkpt lat="48.11147" lon="7.11375">
        <ele>786</ele>
        <time>2021-05-23T14:35:05Z</time>
      </trkpt>
      <trkpt lat="48.11121" lon="7.11386">
        <ele>783.79998779297</ele>
        <time>2021-05-23T14:35:07Z</time>
      </trkpt>
      <trkpt lat="48.11097" lon="7.11396">
        <ele>782.59997558594</ele>
        <time>2021-05-23T14:35:09Z</time>
      </trkpt>
      <trkpt lat="48.11075" lon="7.11407">
        <ele>781.20001220703</ele>
        <time>2021-05-23T14:35:11Z</time>
      </trkpt>
      <trkpt lat="48.11044" lon="7.11427">
        <ele>780.40002441406</ele>
        <time>2021-05-23T14:35:14Z</time>
      </trkpt>
      <trkpt lat="48.11024" lon="7.11444">
        <ele>780.20001220703</ele>
        <time>2021-05-23T14:35:16Z</time>
      </trkpt>
      <trkpt lat="48.11014" lon="7.11453">
        <ele>780</ele>
        <time>2021-05-23T14:35:17Z</time>
      </trkpt>
      <trkpt lat="48.11005" lon="7.11464">
        <ele>780</ele>
        <time>2021-05-23T14:35:18Z</time>
      </trkpt>
      <trkpt lat="48.10998" lon="7.11476">
        <ele>779.79998779297</ele>
        <time>2021-05-23T14:35:19Z</time>
      </trkpt>
      <trkpt lat="48.10986" lon="7.11507">
        <ele>779.59997558594</ele>
        <time>2021-05-23T14:35:21Z</time>
      </trkpt>
      <trkpt lat="48.10976" lon="7.11541">
        <ele>778.79998779297</ele>
        <time>2021-05-23T14:35:23Z</time>
      </trkpt>
      <trkpt lat="48.10968" lon="7.11579">
        <ele>777.59997558594</ele>
        <time>2021-05-23T14:35:25Z</time>
      </trkpt>
      <trkpt lat="48.10966" lon="7.11619">
        <ele>776.40002441406</ele>
        <time>2021-05-23T14:35:27Z</time>
      </trkpt>
      <trkpt lat="48.10967" lon="7.1164">
        <ele>775</ele>
        <time>2021-05-23T14:35:29Z</time>
      </trkpt>
      <trkpt lat="48.10974" lon="7.11681">
        <ele>773.20001220703</ele>
        <time>2021-05-23T14:35:30Z</time>
      </trkpt>
      <trkpt lat="48.10981" lon="7.11701">
        <ele>772.20001220703</ele>
        <time>2021-05-23T14:35:31Z</time>
      </trkpt>
      <trkpt lat="48.10989" lon="7.11718">
        <ele>771</ele>
        <time>2021-05-23T14:35:32Z</time>
      </trkpt>
      <trkpt lat="48.11" lon="7.11732">
        <ele>769.79998779297</ele>
        <time>2021-05-23T14:35:33Z</time>
      </trkpt>
      <trkpt lat="48.11025" lon="7.11756">
        <ele>768.20001220703</ele>
        <time>2021-05-23T14:35:35Z</time>
      </trkpt>
      <trkpt lat="48.11037" lon="7.11768">
        <ele>766.79998779297</ele>
        <time>2021-05-23T14:35:36Z</time>
      </trkpt>
      <trkpt lat="48.1105" lon="7.11781">
        <ele>764.79998779297</ele>
        <time>2021-05-23T14:35:37Z</time>
      </trkpt>
      <trkpt lat="48.11062" lon="7.11794">
        <ele>763.40002441406</ele>
        <time>2021-05-23T14:35:38Z</time>
      </trkpt>
      <trkpt lat="48.11088" lon="7.1182">
        <ele>761.59997558594</ele>
        <time>2021-05-23T14:35:40Z</time>
      </trkpt>
      <trkpt lat="48.11102" lon="7.11834">
        <ele>760.40002441406</ele>
        <time>2021-05-23T14:35:41Z</time>
      </trkpt>
      <trkpt lat="48.11115" lon="7.11848">
        <ele>758.59997558594</ele>
        <time>2021-05-23T14:35:42Z</time>
      </trkpt>
      <trkpt lat="48.11141" lon="7.11874">
        <ele>756</ele>
        <time>2021-05-23T14:35:44Z</time>
      </trkpt>
      <trkpt lat="48.11141" lon="7.11874">
        <ele>753.40002441406</ele>
        <time>2021-05-23T14:35:45Z</time>
      </trkpt>
      <trkpt lat="48.11175" lon="7.11909">
        <ele>750.20001220703</ele>
        <time>2021-05-23T14:35:47Z</time>
      </trkpt>
      <trkpt lat="48.11187" lon="7.11918">
        <ele>749.40002441406</ele>
        <time>2021-05-23T14:35:48Z</time>
      </trkpt>
      <trkpt lat="48.112" lon="7.11924">
        <ele>747.40002441406</ele>
        <time>2021-05-23T14:35:49Z</time>
      </trkpt>
      <trkpt lat="48.11212" lon="7.11926">
        <ele>746.20001220703</ele>
        <time>2021-05-23T14:35:50Z</time>
      </trkpt>
      <trkpt lat="48.11212" lon="7.11926">
        <ele>744.20001220703</ele>
        <time>2021-05-23T14:35:51Z</time>
      </trkpt>
      <trkpt lat="48.11238" lon="7.11923">
        <ele>743.40002441406</ele>
        <time>2021-05-23T14:35:52Z</time>
      </trkpt>
      <trkpt lat="48.11251" lon="7.11918">
        <ele>742.20001220703</ele>
        <time>2021-05-23T14:35:53Z</time>
      </trkpt>
      <trkpt lat="48.11251" lon="7.11918">
        <ele>740.59997558594</ele>
        <time>2021-05-23T14:35:54Z</time>
      </trkpt>
      <trkpt lat="48.11278" lon="7.11905">
        <ele>739.40002441406</ele>
        <time>2021-05-23T14:35:55Z</time>
      </trkpt>
      <trkpt lat="48.11291" lon="7.11898">
        <ele>737.79998779297</ele>
        <time>2021-05-23T14:35:56Z</time>
      </trkpt>
      <trkpt lat="48.11314" lon="7.1189">
        <ele>735.59997558594</ele>
        <time>2021-05-23T14:35:58Z</time>
      </trkpt>
      <trkpt lat="48.11336" lon="7.11889">
        <ele>733</ele>
        <time>2021-05-23T14:36:00Z</time>
      </trkpt>
      <trkpt lat="48.11336" lon="7.11889">
        <ele>731.59997558594</ele>
        <time>2021-05-23T14:36:01Z</time>
      </trkpt>
      <trkpt lat="48.11359" lon="7.11894">
        <ele>731.20001220703</ele>
        <time>2021-05-23T14:36:02Z</time>
      </trkpt>
      <trkpt lat="48.11371" lon="7.119">
        <ele>730.20001220703</ele>
        <time>2021-05-23T14:36:03Z</time>
      </trkpt>
      <trkpt lat="48.11383" lon="7.11908">
        <ele>729.79998779297</ele>
        <time>2021-05-23T14:36:04Z</time>
      </trkpt>
      <trkpt lat="48.11383" lon="7.11908">
        <ele>729</ele>
        <time>2021-05-23T14:36:05Z</time>
      </trkpt>
      <trkpt lat="48.11404" lon="7.11929">
        <ele>728.20001220703</ele>
        <time>2021-05-23T14:36:06Z</time>
      </trkpt>
      <trkpt lat="48.11412" lon="7.11942">
        <ele>727</ele>
        <time>2021-05-23T14:36:07Z</time>
      </trkpt>
      <trkpt lat="48.1142" lon="7.11956">
        <ele>726</ele>
        <time>2021-05-23T14:36:08Z</time>
      </trkpt>
      <trkpt lat="48.11428" lon="7.11969">
        <ele>725.59997558594</ele>
        <time>2021-05-23T14:36:09Z</time>
      </trkpt>
      <trkpt lat="48.11428" lon="7.11969">
        <ele>723.79998779297</ele>
        <time>2021-05-23T14:36:10Z</time>
      </trkpt>
      <trkpt lat="48.11452" lon="7.1201">
        <ele>722.40002441406</ele>
        <time>2021-05-23T14:36:12Z</time>
      </trkpt>
      <trkpt lat="48.11464" lon="7.12037">
        <ele>721</ele>
        <time>2021-05-23T14:36:14Z</time>
      </trkpt>
      <trkpt lat="48.11475" lon="7.12069">
        <ele>719.20001220703</ele>
        <time>2021-05-23T14:36:16Z</time>
      </trkpt>
      <trkpt lat="48.11475" lon="7.12069">
        <ele>717.59997558594</ele>
        <time>2021-05-23T14:36:17Z</time>
      </trkpt>
      <trkpt lat="48.11491" lon="7.12123">
        <ele>715.79998779297</ele>
        <time>2021-05-23T14:36:19Z</time>
      </trkpt>
      <trkpt lat="48.11503" lon="7.12161">
        <ele>713.20001220703</ele>
        <time>2021-05-23T14:36:21Z</time>
      </trkpt>
      <trkpt lat="48.11513" lon="7.12204">
        <ele>710.40002441406</ele>
        <time>2021-05-23T14:36:23Z</time>
      </trkpt>
      <trkpt lat="48.11517" lon="7.12227">
        <ele>708.79998779297</ele>
        <time>2021-05-23T14:36:24Z</time>
      </trkpt>
      <trkpt lat="48.11523" lon="7.12274">
        <ele>706</ele>
        <time>2021-05-23T14:36:26Z</time>
      </trkpt>
      <trkpt lat="48.11527" lon="7.12298">
        <ele>704.79998779297</ele>
        <time>2021-05-23T14:36:27Z</time>
      </trkpt>
      <trkpt lat="48.11531" lon="7.12322">
        <ele>703</ele>
        <time>2021-05-23T14:36:28Z</time>
      </trkpt>
      <trkpt lat="48.11543" lon="7.12368">
        <ele>699.40002441406</ele>
        <time>2021-05-23T14:36:30Z</time>
      </trkpt>
      <trkpt lat="48.1155" lon="7.12392">
        <ele>698.20001220703</ele>
        <time>2021-05-23T14:36:31Z</time>
      </trkpt>
      <trkpt lat="48.1155" lon="7.12392">
        <ele>695.59997558594</ele>
        <time>2021-05-23T14:36:32Z</time>
      </trkpt>
      <trkpt lat="48.11558" lon="7.12414">
        <ele>692.79998779297</ele>
        <time>2021-05-23T14:36:33Z</time>
      </trkpt>
      <trkpt lat="48.11576" lon="7.12458">
        <ele>691.59997558594</ele>
        <time>2021-05-23T14:36:34Z</time>
      </trkpt>
      <trkpt lat="48.11584" lon="7.12479">
        <ele>689.59997558594</ele>
        <time>2021-05-23T14:36:35Z</time>
      </trkpt>
      <trkpt lat="48.11592" lon="7.125">
        <ele>688</ele>
        <time>2021-05-23T14:36:36Z</time>
      </trkpt>
      <trkpt lat="48.116" lon="7.1252">
        <ele>685.79998779297</ele>
        <time>2021-05-23T14:36:37Z</time>
      </trkpt>
      <trkpt lat="48.116" lon="7.1252">
        <ele>684.40002441406</ele>
        <time>2021-05-23T14:36:38Z</time>
      </trkpt>
      <trkpt lat="48.11616" lon="7.12559">
        <ele>682.20001220703</ele>
        <time>2021-05-23T14:36:39Z</time>
      </trkpt>
      <trkpt lat="48.11623" lon="7.12578">
        <ele>680.20001220703</ele>
        <time>2021-05-23T14:36:40Z</time>
      </trkpt>
      <trkpt lat="48.11629" lon="7.12597">
        <ele>679.40002441406</ele>
        <time>2021-05-23T14:36:41Z</time>
      </trkpt>
      <trkpt lat="48.11634" lon="7.12616">
        <ele>678</ele>
        <time>2021-05-23T14:36:42Z</time>
      </trkpt>
      <trkpt lat="48.11637" lon="7.12635">
        <ele>676.59997558594</ele>
        <time>2021-05-23T14:36:43Z</time>
      </trkpt>
      <trkpt lat="48.11639" lon="7.12654">
        <ele>673.40002441406</ele>
        <time>2021-05-23T14:36:44Z</time>
      </trkpt>
      <trkpt lat="48.11642" lon="7.12695">
        <ele>671</ele>
        <time>2021-05-23T14:36:46Z</time>
      </trkpt>
      <trkpt lat="48.11642" lon="7.12717">
        <ele>669.20001220703</ele>
        <time>2021-05-23T14:36:47Z</time>
      </trkpt>
      <trkpt lat="48.11642" lon="7.12739">
        <ele>668.59997558594</ele>
        <time>2021-05-23T14:36:48Z</time>
      </trkpt>
      <trkpt lat="48.11642" lon="7.12739">
        <ele>667</ele>
        <time>2021-05-23T14:36:49Z</time>
      </trkpt>
      <trkpt lat="48.11641" lon="7.12784">
        <ele>666</ele>
        <time>2021-05-23T14:36:50Z</time>
      </trkpt>
      <trkpt lat="48.11641" lon="7.12807">
        <ele>663.59997558594</ele>
        <time>2021-05-23T14:36:51Z</time>
      </trkpt>
      <trkpt lat="48.11643" lon="7.12831">
        <ele>663</ele>
        <time>2021-05-23T14:36:52Z</time>
      </trkpt>
      <trkpt lat="48.11646" lon="7.12855">
        <ele>661.20001220703</ele>
        <time>2021-05-23T14:36:53Z</time>
      </trkpt>
      <trkpt lat="48.11646" lon="7.12855">
        <ele>658.59997558594</ele>
        <time>2021-05-23T14:36:54Z</time>
      </trkpt>
      <trkpt lat="48.11657" lon="7.12903">
        <ele>657.79998779297</ele>
        <time>2021-05-23T14:36:55Z</time>
      </trkpt>
      <trkpt lat="48.11665" lon="7.12926">
        <ele>655.79998779297</ele>
        <time>2021-05-23T14:36:56Z</time>
      </trkpt>
      <trkpt lat="48.11673" lon="7.12947">
        <ele>654.79998779297</ele>
        <time>2021-05-23T14:36:57Z</time>
      </trkpt>
      <trkpt lat="48.11681" lon="7.12969">
        <ele>652.20001220703</ele>
        <time>2021-05-23T14:36:58Z</time>
      </trkpt>
      <trkpt lat="48.1169" lon="7.12991">
        <ele>651.20001220703</ele>
        <time>2021-05-23T14:36:59Z</time>
      </trkpt>
      <trkpt lat="48.11699" lon="7.13012">
        <ele>647.79998779297</ele>
        <time>2021-05-23T14:37:00Z</time>
      </trkpt>
      <trkpt lat="48.11707" lon="7.13034">
        <ele>646.59997558594</ele>
        <time>2021-05-23T14:37:01Z</time>
      </trkpt>
      <trkpt lat="48.11715" lon="7.13056">
        <ele>644.79998779297</ele>
        <time>2021-05-23T14:37:02Z</time>
      </trkpt>
      <trkpt lat="48.11723" lon="7.13079">
        <ele>642.79998779297</ele>
        <time>2021-05-23T14:37:03Z</time>
      </trkpt>
      <trkpt lat="48.11729" lon="7.13102">
        <ele>642</ele>
        <time>2021-05-23T14:37:04Z</time>
      </trkpt>
      <trkpt lat="48.11729" lon="7.13102">
        <ele>641</ele>
        <time>2021-05-23T14:37:05Z</time>
      </trkpt>
      <trkpt lat="48.11741" lon="7.13176">
        <ele>639</ele>
        <time>2021-05-23T14:37:07Z</time>
      </trkpt>
      <trkpt lat="48.11745" lon="7.13201">
        <ele>638</ele>
        <time>2021-05-23T14:37:08Z</time>
      </trkpt>
      <trkpt lat="48.11749" lon="7.13227">
        <ele>636</ele>
        <time>2021-05-23T14:37:09Z</time>
      </trkpt>
      <trkpt lat="48.11754" lon="7.13257">
        <ele>634.79998779297</ele>
        <time>2021-05-23T14:37:10Z</time>
      </trkpt>
      <trkpt lat="48.11758" lon="7.13282">
        <ele>632.40002441406</ele>
        <time>2021-05-23T14:37:12Z</time>
      </trkpt>
      <trkpt lat="48.11768" lon="7.13331">
        <ele>631.20001220703</ele>
        <time>2021-05-23T14:37:13Z</time>
      </trkpt>
      <trkpt lat="48.11773" lon="7.13355">
        <ele>628.79998779297</ele>
        <time>2021-05-23T14:37:14Z</time>
      </trkpt>
      <trkpt lat="48.11778" lon="7.13373">
        <ele>627.79998779297</ele>
        <time>2021-05-23T14:37:15Z</time>
      </trkpt>
      <trkpt lat="48.11778" lon="7.13373">
        <ele>626</ele>
        <time>2021-05-23T14:37:16Z</time>
      </trkpt>
      <trkpt lat="48.11786" lon="7.134">
        <ele>623.79998779297</ele>
        <time>2021-05-23T14:37:17Z</time>
      </trkpt>
      <trkpt lat="48.118" lon="7.13444">
        <ele>622.59997558594</ele>
        <time>2021-05-23T14:37:18Z</time>
      </trkpt>
      <trkpt lat="48.11805" lon="7.13462">
        <ele>621.20001220703</ele>
        <time>2021-05-23T14:37:19Z</time>
      </trkpt>
      <trkpt lat="48.11817" lon="7.13505">
        <ele>619.40002441406</ele>
        <time>2021-05-23T14:37:21Z</time>
      </trkpt>
      <trkpt lat="48.11828" lon="7.13549">
        <ele>617.59997558594</ele>
        <time>2021-05-23T14:37:23Z</time>
      </trkpt>
      <trkpt lat="48.11832" lon="7.13572">
        <ele>616.59997558594</ele>
        <time>2021-05-23T14:37:24Z</time>
      </trkpt>
      <trkpt lat="48.11835" lon="7.13596">
        <ele>615.40002441406</ele>
        <time>2021-05-23T14:37:25Z</time>
      </trkpt>
      <trkpt lat="48.11835" lon="7.13648">
        <ele>613.20001220703</ele>
        <time>2021-05-23T14:37:27Z</time>
      </trkpt>
      <trkpt lat="48.11833" lon="7.13671">
        <ele>611.20001220703</ele>
        <time>2021-05-23T14:37:28Z</time>
      </trkpt>
      <trkpt lat="48.11829" lon="7.13714">
        <ele>609.59997558594</ele>
        <time>2021-05-23T14:37:30Z</time>
      </trkpt>
      <trkpt lat="48.11825" lon="7.13762">
        <ele>607.20001220703</ele>
        <time>2021-05-23T14:37:32Z</time>
      </trkpt>
      <trkpt lat="48.11824" lon="7.13785">
        <ele>605.59997558594</ele>
        <time>2021-05-23T14:37:33Z</time>
      </trkpt>
      <trkpt lat="48.1182" lon="7.13832">
        <ele>602.79998779297</ele>
        <time>2021-05-23T14:37:35Z</time>
      </trkpt>
      <trkpt lat="48.1182" lon="7.13832">
        <ele>601.59997558594</ele>
        <time>2021-05-23T14:37:36Z</time>
      </trkpt>
      <trkpt lat="48.11816" lon="7.13878">
        <ele>600.20001220703</ele>
        <time>2021-05-23T14:37:37Z</time>
      </trkpt>
      <trkpt lat="48.11812" lon="7.13924">
        <ele>598.20001220703</ele>
        <time>2021-05-23T14:37:39Z</time>
      </trkpt>
      <trkpt lat="48.1181" lon="7.13947">
        <ele>596.59997558594</ele>
        <time>2021-05-23T14:37:40Z</time>
      </trkpt>
      <trkpt lat="48.11804" lon="7.13992">
        <ele>595.20001220703</ele>
        <time>2021-05-23T14:37:42Z</time>
      </trkpt>
      <trkpt lat="48.11798" lon="7.14036">
        <ele>593.40002441406</ele>
        <time>2021-05-23T14:37:44Z</time>
      </trkpt>
      <trkpt lat="48.11794" lon="7.14078">
        <ele>591.20001220703</ele>
        <time>2021-05-23T14:37:46Z</time>
      </trkpt>
      <trkpt lat="48.11793" lon="7.14099">
        <ele>590.79998779297</ele>
        <time>2021-05-23T14:37:47Z</time>
      </trkpt>
      <trkpt lat="48.11793" lon="7.14124">
        <ele>589.79998779297</ele>
        <time>2021-05-23T14:37:48Z</time>
      </trkpt>
      <trkpt lat="48.11794" lon="7.1414">
        <ele>588.59997558594</ele>
        <time>2021-05-23T14:37:49Z</time>
      </trkpt>
      <trkpt lat="48.11797" lon="7.14179">
        <ele>586.40002441406</ele>
        <time>2021-05-23T14:37:51Z</time>
      </trkpt>
      <trkpt lat="48.11799" lon="7.14219">
        <ele>584.59997558594</ele>
        <time>2021-05-23T14:37:53Z</time>
      </trkpt>
      <trkpt lat="48.118" lon="7.14259">
        <ele>582.79998779297</ele>
        <time>2021-05-23T14:37:55Z</time>
      </trkpt>
      <trkpt lat="48.118" lon="7.14279">
        <ele>582.20001220703</ele>
        <time>2021-05-23T14:37:57Z</time>
      </trkpt>
      <trkpt lat="48.118" lon="7.14318">
        <ele>581.59997558594</ele>
        <time>2021-05-23T14:37:58Z</time>
      </trkpt>
      <trkpt lat="48.11802" lon="7.14355">
        <ele>580.20001220703</ele>
        <time>2021-05-23T14:38:00Z</time>
      </trkpt>
      <trkpt lat="48.11805" lon="7.14372">
        <ele>579.79998779297</ele>
        <time>2021-05-23T14:38:01Z</time>
      </trkpt>
      <trkpt lat="48.11805" lon="7.14372">
        <ele>579.20001220703</ele>
        <time>2021-05-23T14:38:02Z</time>
      </trkpt>
      <trkpt lat="48.11814" lon="7.14406">
        <ele>577.59997558594</ele>
        <time>2021-05-23T14:38:03Z</time>
      </trkpt>
      <trkpt lat="48.11826" lon="7.14436">
        <ele>575.59997558594</ele>
        <time>2021-05-23T14:38:05Z</time>
      </trkpt>
      <trkpt lat="48.11842" lon="7.14463">
        <ele>573.59997558594</ele>
        <time>2021-05-23T14:38:07Z</time>
      </trkpt>
      <trkpt lat="48.11851" lon="7.14475">
        <ele>573.20001220703</ele>
        <time>2021-05-23T14:38:08Z</time>
      </trkpt>
      <trkpt lat="48.11861" lon="7.14486">
        <ele>571.20001220703</ele>
        <time>2021-05-23T14:38:10Z</time>
      </trkpt>
      <trkpt lat="48.11881" lon="7.14507">
        <ele>570.59997558594</ele>
        <time>2021-05-23T14:38:11Z</time>
      </trkpt>
      <trkpt lat="48.11892" lon="7.14516">
        <ele>569.59997558594</ele>
        <time>2021-05-23T14:38:12Z</time>
      </trkpt>
      <trkpt lat="48.11904" lon="7.14525">
        <ele>569.20001220703</ele>
        <time>2021-05-23T14:38:13Z</time>
      </trkpt>
      <trkpt lat="48.11926" lon="7.14541">
        <ele>568.40002441406</ele>
        <time>2021-05-23T14:38:15Z</time>
      </trkpt>
      <trkpt lat="48.11938" lon="7.14549">
        <ele>567.40002441406</ele>
        <time>2021-05-23T14:38:16Z</time>
      </trkpt>
      <trkpt lat="48.11948" lon="7.14557">
        <ele>565.79998779297</ele>
        <time>2021-05-23T14:38:18Z</time>
      </trkpt>
      <trkpt lat="48.11967" lon="7.14579">
        <ele>565</ele>
        <time>2021-05-23T14:38:19Z</time>
      </trkpt>
      <trkpt lat="48.11975" lon="7.14592">
        <ele>564.59997558594</ele>
        <time>2021-05-23T14:38:20Z</time>
      </trkpt>
      <trkpt lat="48.11997" lon="7.14636">
        <ele>562.40002441406</ele>
        <time>2021-05-23T14:38:23Z</time>
      </trkpt>
      <trkpt lat="48.1202" lon="7.14677">
        <ele>561</ele>
        <time>2021-05-23T14:38:26Z</time>
      </trkpt>
      <trkpt lat="48.12036" lon="7.14704">
        <ele>559</ele>
        <time>2021-05-23T14:38:28Z</time>
      </trkpt>
      <trkpt lat="48.1205" lon="7.14732">
        <ele>557.20001220703</ele>
        <time>2021-05-23T14:38:30Z</time>
      </trkpt>
      <trkpt lat="48.12056" lon="7.14746">
        <ele>557</ele>
        <time>2021-05-23T14:38:31Z</time>
      </trkpt>
      <trkpt lat="48.12066" lon="7.14774">
        <ele>556.20001220703</ele>
        <time>2021-05-23T14:38:33Z</time>
      </trkpt>
      <trkpt lat="48.12076" lon="7.14799">
        <ele>555.20001220703</ele>
        <time>2021-05-23T14:38:35Z</time>
      </trkpt>
      <trkpt lat="48.12085" lon="7.14818">
        <ele>554.20001220703</ele>
        <time>2021-05-23T14:38:37Z</time>
      </trkpt>
      <trkpt lat="48.1209" lon="7.14826">
        <ele>553.40002441406</ele>
        <time>2021-05-23T14:38:39Z</time>
      </trkpt>
      <trkpt lat="48.121" lon="7.14844">
        <ele>553.20001220703</ele>
        <time>2021-05-23T14:38:40Z</time>
      </trkpt>
      <trkpt lat="48.12109" lon="7.14862">
        <ele>552</ele>
        <time>2021-05-23T14:38:42Z</time>
      </trkpt>
      <trkpt lat="48.12123" lon="7.14889">
        <ele>551</ele>
        <time>2021-05-23T14:38:45Z</time>
      </trkpt>
      <trkpt lat="48.12128" lon="7.14898">
        <ele>550.20001220703</ele>
        <time>2021-05-23T14:38:46Z</time>
      </trkpt>
      <trkpt lat="48.12128" lon="7.14898">
        <ele>549.79998779297</ele>
        <time>2021-05-23T14:38:47Z</time>
      </trkpt>
      <trkpt lat="48.12144" lon="7.14929">
        <ele>548.59997558594</ele>
        <time>2021-05-23T14:38:49Z</time>
      </trkpt>
      <trkpt lat="48.12154" lon="7.14949">
        <ele>547.40002441406</ele>
        <time>2021-05-23T14:38:52Z</time>
      </trkpt>
      <trkpt lat="48.12171" lon="7.14978">
        <ele>546.20001220703</ele>
        <time>2021-05-23T14:38:54Z</time>
      </trkpt>
      <trkpt lat="48.12182" lon="7.14995">
        <ele>545</ele>
        <time>2021-05-23T14:38:56Z</time>
      </trkpt>
      <trkpt lat="48.12187" lon="7.15004">
        <ele>544.59997558594</ele>
        <time>2021-05-23T14:38:57Z</time>
      </trkpt>
      <trkpt lat="48.12208" lon="7.15039">
        <ele>544</ele>
        <time>2021-05-23T14:39:01Z</time>
      </trkpt>
      <trkpt lat="48.12224" lon="7.1507">
        <ele>543</ele>
        <time>2021-05-23T14:39:04Z</time>
      </trkpt>
      <trkpt lat="48.1223" lon="7.15082">
        <ele>542.40002441406</ele>
        <time>2021-05-23T14:39:05Z</time>
      </trkpt>
      <trkpt lat="48.12241" lon="7.15106">
        <ele>541.20001220703</ele>
        <time>2021-05-23T14:39:07Z</time>
      </trkpt>
      <trkpt lat="48.12254" lon="7.15127">
        <ele>540.40002441406</ele>
        <time>2021-05-23T14:39:09Z</time>
      </trkpt>
      <trkpt lat="48.12261" lon="7.15139">
        <ele>540</ele>
        <time>2021-05-23T14:39:10Z</time>
      </trkpt>
      <trkpt lat="48.12268" lon="7.1515">
        <ele>538.79998779297</ele>
        <time>2021-05-23T14:39:11Z</time>
      </trkpt>
      <trkpt lat="48.12274" lon="7.15162">
        <ele>537.40002441406</ele>
        <time>2021-05-23T14:39:12Z</time>
      </trkpt>
      <trkpt lat="48.12287" lon="7.15186">
        <ele>536.20001220703</ele>
        <time>2021-05-23T14:39:14Z</time>
      </trkpt>
      <trkpt lat="48.12294" lon="7.15198">
        <ele>536</ele>
        <time>2021-05-23T14:39:15Z</time>
      </trkpt>
      <trkpt lat="48.12314" lon="7.15234">
        <ele>534.40002441406</ele>
        <time>2021-05-23T14:39:18Z</time>
      </trkpt>
      <trkpt lat="48.1233" lon="7.15256">
        <ele>533</ele>
        <time>2021-05-23T14:39:21Z</time>
      </trkpt>
      <trkpt lat="48.12349" lon="7.15274">
        <ele>532.79998779297</ele>
        <time>2021-05-23T14:39:22Z</time>
      </trkpt>
      <trkpt lat="48.12359" lon="7.15279">
        <ele>532.40002441406</ele>
        <time>2021-05-23T14:39:23Z</time>
      </trkpt>
      <trkpt lat="48.1237" lon="7.15283">
        <ele>532.20001220703</ele>
        <time>2021-05-23T14:39:24Z</time>
      </trkpt>
      <trkpt lat="48.1238" lon="7.15284">
        <ele>531.40002441406</ele>
        <time>2021-05-23T14:39:25Z</time>
      </trkpt>
      <trkpt lat="48.12391" lon="7.15285">
        <ele>530.40002441406</ele>
        <time>2021-05-23T14:39:26Z</time>
      </trkpt>
      <trkpt lat="48.12401" lon="7.15285">
        <ele>530.20001220703</ele>
        <time>2021-05-23T14:39:27Z</time>
      </trkpt>
      <trkpt lat="48.12432" lon="7.15288">
        <ele>528.79998779297</ele>
        <time>2021-05-23T14:39:30Z</time>
      </trkpt>
      <trkpt lat="48.12451" lon="7.15294">
        <ele>528.40002441406</ele>
        <time>2021-05-23T14:39:32Z</time>
      </trkpt>
      <trkpt lat="48.1248" lon="7.15308">
        <ele>528</ele>
        <time>2021-05-23T14:39:35Z</time>
      </trkpt>
      <trkpt lat="48.12488" lon="7.15315">
        <ele>527.40002441406</ele>
        <time>2021-05-23T14:39:37Z</time>
      </trkpt>
      <trkpt lat="48.12504" lon="7.15334">
        <ele>527.40002441406</ele>
        <time>2021-05-23T14:39:38Z</time>
      </trkpt>
      <trkpt lat="48.12517" lon="7.15354">
        <ele>526.79998779297</ele>
        <time>2021-05-23T14:39:40Z</time>
      </trkpt>
      <trkpt lat="48.12523" lon="7.15366">
        <ele>526</ele>
        <time>2021-05-23T14:39:41Z</time>
      </trkpt>
      <trkpt lat="48.12533" lon="7.15393">
        <ele>525.20001220703</ele>
        <time>2021-05-23T14:39:43Z</time>
      </trkpt>
      <trkpt lat="48.12537" lon="7.15408">
        <ele>524.59997558594</ele>
        <time>2021-05-23T14:39:44Z</time>
      </trkpt>
      <trkpt lat="48.12546" lon="7.15455">
        <ele>523.79998779297</ele>
        <time>2021-05-23T14:39:47Z</time>
      </trkpt>
      <trkpt lat="48.12549" lon="7.15486">
        <ele>522.40002441406</ele>
        <time>2021-05-23T14:39:49Z</time>
      </trkpt>
      <trkpt lat="48.1255" lon="7.15519">
        <ele>521.20001220703</ele>
        <time>2021-05-23T14:39:51Z</time>
      </trkpt>
      <trkpt lat="48.12557" lon="7.15551">
        <ele>519.59997558594</ele>
        <time>2021-05-23T14:39:53Z</time>
      </trkpt>
      <trkpt lat="48.12573" lon="7.15576">
        <ele>518.40002441406</ele>
        <time>2021-05-23T14:39:55Z</time>
      </trkpt>
      <trkpt lat="48.12582" lon="7.15586">
        <ele>517.40002441406</ele>
        <time>2021-05-23T14:39:56Z</time>
      </trkpt>
      <trkpt lat="48.12592" lon="7.15595">
        <ele>516</ele>
        <time>2021-05-23T14:39:58Z</time>
      </trkpt>
      <trkpt lat="48.12607" lon="7.15615">
        <ele>515.20001220703</ele>
        <time>2021-05-23T14:39:59Z</time>
      </trkpt>
      <trkpt lat="48.12611" lon="7.15627">
        <ele>513.79998779297</ele>
        <time>2021-05-23T14:40:00Z</time>
      </trkpt>
      <trkpt lat="48.12613" lon="7.1564">
        <ele>513.20001220703</ele>
        <time>2021-05-23T14:40:01Z</time>
      </trkpt>
      <trkpt lat="48.12613" lon="7.15655">
        <ele>512.40002441406</ele>
        <time>2021-05-23T14:40:02Z</time>
      </trkpt>
      <trkpt lat="48.12612" lon="7.15684">
        <ele>511.60000610352</ele>
        <time>2021-05-23T14:40:04Z</time>
      </trkpt>
      <trkpt lat="48.12612" lon="7.157">
        <ele>511.20001220703</ele>
        <time>2021-05-23T14:40:05Z</time>
      </trkpt>
      <trkpt lat="48.12611" lon="7.15715">
        <ele>511.20001220703</ele>
        <time>2021-05-23T14:40:06Z</time>
      </trkpt>
      <trkpt lat="48.1261" lon="7.15744">
        <ele>510</ele>
        <time>2021-05-23T14:40:08Z</time>
      </trkpt>
      <trkpt lat="48.12611" lon="7.15787">
        <ele>508.60000610352</ele>
        <time>2021-05-23T14:40:11Z</time>
      </trkpt>
      <trkpt lat="48.12612" lon="7.15802">
        <ele>508.39999389648</ele>
        <time>2021-05-23T14:40:12Z</time>
      </trkpt>
      <trkpt lat="48.12622" lon="7.15856">
        <ele>507.39999389648</ele>
        <time>2021-05-23T14:40:16Z</time>
      </trkpt>
      <trkpt lat="48.12624" lon="7.15869">
        <ele>507.39999389648</ele>
        <time>2021-05-23T14:40:17Z</time>
      </trkpt>
      <trkpt lat="48.12629" lon="7.1592">
        <ele>506.39999389648</ele>
        <time>2021-05-23T14:40:21Z</time>
      </trkpt>
      <trkpt lat="48.1263" lon="7.15932">
        <ele>506.20001220703</ele>
        <time>2021-05-23T14:40:22Z</time>
      </trkpt>
      <trkpt lat="48.12629" lon="7.15974">
        <ele>505.60000610352</ele>
        <time>2021-05-23T14:40:26Z</time>
      </trkpt>
      <trkpt lat="48.12629" lon="7.15979">
        <ele>505.20001220703</ele>
        <time>2021-05-23T14:40:27Z</time>
      </trkpt>
      <trkpt lat="48.12627" lon="7.15987">
        <ele>505</ele>
        <time>2021-05-23T14:40:29Z</time>
      </trkpt>
      <trkpt lat="48.12625" lon="7.1599">
        <ele>504.79998779297</ele>
        <time>2021-05-23T14:40:30Z</time>
      </trkpt>
      <trkpt lat="48.12621" lon="7.15991">
        <ele>504.60000610352</ele>
        <time>2021-05-23T14:40:32Z</time>
      </trkpt>
      <trkpt lat="48.12615" lon="7.15989">
        <ele>504.79998779297</ele>
        <time>2021-05-23T14:40:36Z</time>
      </trkpt>
      <trkpt lat="48.12614" lon="7.15985">
        <ele>505</ele>
        <time>2021-05-23T14:40:38Z</time>
      </trkpt>
      <trkpt lat="48.1261" lon="7.15979">
        <ele>505.60000610352</ele>
        <time>2021-05-23T14:40:43Z</time>
      </trkpt>
    </trkseg>
  </trk>
</gpx>